<?xml version="1.0" encoding="UTF-8" standalone="no" ?>
<gpx xmlns="http://www.topografix.com/GPX/1/1" xmlns:xsi="http://www.w3.org/2001/XMLSchema-instance" xsi:schemaLocation="http://www.topografix.com/GPX/1/1 http://www.topografix.com/GPX/1/1/gpx.xsd" version="1.1" creator="VisuGPX - https://www.visugpx.com">
  <metadata>
    <name>Montfaucon 31</name>
  </metadata>
  <trk>
    <name><![CDATA[Montfaucon 31_1]]></name>
    <extensions>
      <line xmlns="http://www.topografix.com/GPX/gpx_style/0/2">
        <color>0000FF</color>
        <width>4</width>
      </line>
    </extensions>
    <trkseg>
      <trkpt lat="47.24679" lon="6.02499">
        <ele>265.8</ele>
        <time>2021-09-30T09:48:17Z</time>
      </trkpt>
      <trkpt lat="47.24679" lon="6.02499">
        <ele>269</ele>
        <time>2021-09-30T09:48:23Z</time>
      </trkpt>
      <trkpt lat="47.24684" lon="6.02501">
        <ele>269</ele>
        <time>2021-09-30T09:48:42Z</time>
      </trkpt>
      <trkpt lat="47.24688" lon="6.02499">
        <ele>269</ele>
        <time>2021-09-30T09:48:45Z</time>
      </trkpt>
      <trkpt lat="47.24691" lon="6.02497">
        <ele>269</ele>
        <time>2021-09-30T09:48:47Z</time>
      </trkpt>
      <trkpt lat="47.24693" lon="6.02495">
        <ele>269</ele>
        <time>2021-09-30T09:48:48Z</time>
      </trkpt>
      <trkpt lat="47.24697" lon="6.02493">
        <ele>269</ele>
        <time>2021-09-30T09:48:50Z</time>
      </trkpt>
      <trkpt lat="47.24707" lon="6.02485">
        <ele>269.8</ele>
        <time>2021-09-30T09:48:55Z</time>
      </trkpt>
      <trkpt lat="47.2471" lon="6.02485">
        <ele>270.2</ele>
        <time>2021-09-30T09:48:56Z</time>
      </trkpt>
      <trkpt lat="47.24717" lon="6.02493">
        <ele>270.8</ele>
        <time>2021-09-30T09:49:00Z</time>
      </trkpt>
      <trkpt lat="47.24719" lon="6.02496">
        <ele>270.8</ele>
        <time>2021-09-30T09:49:01Z</time>
      </trkpt>
      <trkpt lat="47.24721" lon="6.02499">
        <ele>271</ele>
        <time>2021-09-30T09:49:02Z</time>
      </trkpt>
      <trkpt lat="47.24729" lon="6.02516">
        <ele>271.4</ele>
        <time>2021-09-30T09:49:07Z</time>
      </trkpt>
      <trkpt lat="47.24739" lon="6.02533">
        <ele>271.4</ele>
        <time>2021-09-30T09:49:12Z</time>
      </trkpt>
      <trkpt lat="47.24741" lon="6.02533">
        <ele>271.4</ele>
        <time>2021-09-30T09:49:13Z</time>
      </trkpt>
      <trkpt lat="47.24743" lon="6.02533">
        <ele>271.4</ele>
        <time>2021-09-30T09:49:14Z</time>
      </trkpt>
      <trkpt lat="47.24746" lon="6.02532">
        <ele>271.4</ele>
        <time>2021-09-30T09:49:15Z</time>
      </trkpt>
      <trkpt lat="47.24748" lon="6.02531">
        <ele>271.4</ele>
        <time>2021-09-30T09:49:16Z</time>
      </trkpt>
      <trkpt lat="47.24751" lon="6.02528">
        <ele>271.2</ele>
        <time>2021-09-30T09:49:17Z</time>
      </trkpt>
      <trkpt lat="47.24753" lon="6.02526">
        <ele>271.2</ele>
        <time>2021-09-30T09:49:18Z</time>
      </trkpt>
      <trkpt lat="47.2477" lon="6.02509">
        <ele>271.2</ele>
        <time>2021-09-30T09:49:25Z</time>
      </trkpt>
      <trkpt lat="47.24772" lon="6.02505">
        <ele>271.2</ele>
        <time>2021-09-30T09:49:26Z</time>
      </trkpt>
      <trkpt lat="47.24776" lon="6.02501">
        <ele>271.4</ele>
        <time>2021-09-30T09:49:28Z</time>
      </trkpt>
      <trkpt lat="47.24779" lon="6.02501">
        <ele>271.4</ele>
        <time>2021-09-30T09:49:29Z</time>
      </trkpt>
      <trkpt lat="47.24788" lon="6.0251">
        <ele>271.8</ele>
        <time>2021-09-30T09:49:33Z</time>
      </trkpt>
      <trkpt lat="47.2479" lon="6.02515">
        <ele>271.8</ele>
        <time>2021-09-30T09:49:34Z</time>
      </trkpt>
      <trkpt lat="47.24793" lon="6.0252">
        <ele>271.8</ele>
        <time>2021-09-30T09:49:35Z</time>
      </trkpt>
      <trkpt lat="47.24795" lon="6.02526">
        <ele>271.8</ele>
        <time>2021-09-30T09:49:36Z</time>
      </trkpt>
      <trkpt lat="47.24799" lon="6.0254">
        <ele>271.8</ele>
        <time>2021-09-30T09:49:38Z</time>
      </trkpt>
      <trkpt lat="47.24812" lon="6.02582">
        <ele>271</ele>
        <time>2021-09-30T09:49:44Z</time>
      </trkpt>
      <trkpt lat="47.24823" lon="6.02622">
        <ele>270</ele>
        <time>2021-09-30T09:49:50Z</time>
      </trkpt>
      <trkpt lat="47.24824" lon="6.02628">
        <ele>270</ele>
        <time>2021-09-30T09:49:51Z</time>
      </trkpt>
      <trkpt lat="47.24825" lon="6.02634">
        <ele>269.8</ele>
        <time>2021-09-30T09:49:52Z</time>
      </trkpt>
      <trkpt lat="47.24826" lon="6.0264">
        <ele>269.8</ele>
        <time>2021-09-30T09:49:53Z</time>
      </trkpt>
      <trkpt lat="47.24828" lon="6.02645">
        <ele>269.8</ele>
        <time>2021-09-30T09:49:54Z</time>
      </trkpt>
      <trkpt lat="47.24829" lon="6.0265">
        <ele>269.8</ele>
        <time>2021-09-30T09:49:55Z</time>
      </trkpt>
      <trkpt lat="47.2483" lon="6.02654">
        <ele>269.8</ele>
        <time>2021-09-30T09:49:56Z</time>
      </trkpt>
      <trkpt lat="47.24831" lon="6.0266">
        <ele>269.8</ele>
        <time>2021-09-30T09:49:57Z</time>
      </trkpt>
      <trkpt lat="47.24833" lon="6.0267">
        <ele>270</ele>
        <time>2021-09-30T09:49:59Z</time>
      </trkpt>
      <trkpt lat="47.24834" lon="6.02675">
        <ele>270</ele>
        <time>2021-09-30T09:50:00Z</time>
      </trkpt>
      <trkpt lat="47.24835" lon="6.0268">
        <ele>270.2</ele>
        <time>2021-09-30T09:50:01Z</time>
      </trkpt>
      <trkpt lat="47.24836" lon="6.02686">
        <ele>270.2</ele>
        <time>2021-09-30T09:50:02Z</time>
      </trkpt>
      <trkpt lat="47.24837" lon="6.02692">
        <ele>270.2</ele>
        <time>2021-09-30T09:50:03Z</time>
      </trkpt>
      <trkpt lat="47.24839" lon="6.02698">
        <ele>270.4</ele>
        <time>2021-09-30T09:50:04Z</time>
      </trkpt>
      <trkpt lat="47.2484" lon="6.02704">
        <ele>270.4</ele>
        <time>2021-09-30T09:50:05Z</time>
      </trkpt>
      <trkpt lat="47.24852" lon="6.0273">
        <ele>271</ele>
        <time>2021-09-30T09:50:11Z</time>
      </trkpt>
      <trkpt lat="47.24855" lon="6.02738">
        <ele>271.2</ele>
        <time>2021-09-30T09:50:13Z</time>
      </trkpt>
      <trkpt lat="47.24857" lon="6.02742">
        <ele>271.2</ele>
        <time>2021-09-30T09:50:14Z</time>
      </trkpt>
      <trkpt lat="47.24859" lon="6.02746">
        <ele>271.2</ele>
        <time>2021-09-30T09:50:15Z</time>
      </trkpt>
      <trkpt lat="47.24861" lon="6.0275">
        <ele>271.4</ele>
        <time>2021-09-30T09:50:16Z</time>
      </trkpt>
      <trkpt lat="47.24862" lon="6.02753">
        <ele>271.6</ele>
        <time>2021-09-30T09:50:17Z</time>
      </trkpt>
      <trkpt lat="47.24863" lon="6.02757">
        <ele>271.8</ele>
        <time>2021-09-30T09:50:18Z</time>
      </trkpt>
      <trkpt lat="47.24865" lon="6.02762">
        <ele>271.8</ele>
        <time>2021-09-30T09:50:19Z</time>
      </trkpt>
      <trkpt lat="47.24866" lon="6.02765">
        <ele>272</ele>
        <time>2021-09-30T09:50:20Z</time>
      </trkpt>
      <trkpt lat="47.24867" lon="6.02769">
        <ele>272</ele>
        <time>2021-09-30T09:50:21Z</time>
      </trkpt>
      <trkpt lat="47.24869" lon="6.02773">
        <ele>272</ele>
        <time>2021-09-30T09:50:22Z</time>
      </trkpt>
      <trkpt lat="47.24869" lon="6.02776">
        <ele>272.2</ele>
        <time>2021-09-30T09:50:23Z</time>
      </trkpt>
      <trkpt lat="47.24869" lon="6.02778">
        <ele>272.2</ele>
        <time>2021-09-30T09:50:24Z</time>
      </trkpt>
      <trkpt lat="47.24869" lon="6.0278">
        <ele>272.2</ele>
        <time>2021-09-30T09:50:25Z</time>
      </trkpt>
      <trkpt lat="47.24868" lon="6.02782">
        <ele>272.2</ele>
        <time>2021-09-30T09:50:26Z</time>
      </trkpt>
      <trkpt lat="47.24866" lon="6.02785">
        <ele>272.2</ele>
        <time>2021-09-30T09:50:27Z</time>
      </trkpt>
      <trkpt lat="47.24865" lon="6.02788">
        <ele>272.2</ele>
        <time>2021-09-30T09:50:28Z</time>
      </trkpt>
      <trkpt lat="47.24863" lon="6.02791">
        <ele>272</ele>
        <time>2021-09-30T09:50:29Z</time>
      </trkpt>
      <trkpt lat="47.24861" lon="6.02799">
        <ele>271.8</ele>
        <time>2021-09-30T09:50:32Z</time>
      </trkpt>
      <trkpt lat="47.24861" lon="6.02801">
        <ele>271.6</ele>
        <time>2021-09-30T09:50:33Z</time>
      </trkpt>
      <trkpt lat="47.24863" lon="6.02803">
        <ele>271.2</ele>
        <time>2021-09-30T09:50:34Z</time>
      </trkpt>
      <trkpt lat="47.24868" lon="6.02806">
        <ele>270.8</ele>
        <time>2021-09-30T09:50:36Z</time>
      </trkpt>
      <trkpt lat="47.2487" lon="6.02808">
        <ele>270.8</ele>
        <time>2021-09-30T09:50:37Z</time>
      </trkpt>
      <trkpt lat="47.24872" lon="6.0281">
        <ele>270.6</ele>
        <time>2021-09-30T09:50:38Z</time>
      </trkpt>
      <trkpt lat="47.24887" lon="6.02824">
        <ele>270.4</ele>
        <time>2021-09-30T09:50:43Z</time>
      </trkpt>
      <trkpt lat="47.24903" lon="6.02833">
        <ele>270.8</ele>
        <time>2021-09-30T09:50:47Z</time>
      </trkpt>
      <trkpt lat="47.24911" lon="6.02838">
        <ele>270.8</ele>
        <time>2021-09-30T09:50:49Z</time>
      </trkpt>
      <trkpt lat="47.24915" lon="6.02841">
        <ele>270.8</ele>
        <time>2021-09-30T09:50:50Z</time>
      </trkpt>
      <trkpt lat="47.24941" lon="6.02858">
        <ele>271.8</ele>
        <time>2021-09-30T09:50:57Z</time>
      </trkpt>
      <trkpt lat="47.24944" lon="6.0286">
        <ele>272</ele>
        <time>2021-09-30T09:50:58Z</time>
      </trkpt>
      <trkpt lat="47.24948" lon="6.02863">
        <ele>272</ele>
        <time>2021-09-30T09:50:59Z</time>
      </trkpt>
      <trkpt lat="47.24951" lon="6.02866">
        <ele>272.2</ele>
        <time>2021-09-30T09:51:00Z</time>
      </trkpt>
      <trkpt lat="47.24954" lon="6.02867">
        <ele>272.4</ele>
        <time>2021-09-30T09:51:01Z</time>
      </trkpt>
      <trkpt lat="47.24958" lon="6.02869">
        <ele>272.4</ele>
        <time>2021-09-30T09:51:02Z</time>
      </trkpt>
      <trkpt lat="47.24961" lon="6.02871">
        <ele>272.6</ele>
        <time>2021-09-30T09:51:03Z</time>
      </trkpt>
      <trkpt lat="47.24965" lon="6.02874">
        <ele>272.6</ele>
        <time>2021-09-30T09:51:04Z</time>
      </trkpt>
      <trkpt lat="47.24972" lon="6.02878">
        <ele>272.8</ele>
        <time>2021-09-30T09:51:06Z</time>
      </trkpt>
      <trkpt lat="47.24975" lon="6.0288">
        <ele>273</ele>
        <time>2021-09-30T09:51:07Z</time>
      </trkpt>
      <trkpt lat="47.24984" lon="6.02887">
        <ele>273.4</ele>
        <time>2021-09-30T09:51:10Z</time>
      </trkpt>
      <trkpt lat="47.24987" lon="6.02889">
        <ele>273.6</ele>
        <time>2021-09-30T09:51:11Z</time>
      </trkpt>
      <trkpt lat="47.24993" lon="6.02894">
        <ele>274</ele>
        <time>2021-09-30T09:51:13Z</time>
      </trkpt>
      <trkpt lat="47.24997" lon="6.02896">
        <ele>274.2</ele>
        <time>2021-09-30T09:51:14Z</time>
      </trkpt>
      <trkpt lat="47.25" lon="6.02899">
        <ele>274.2</ele>
        <time>2021-09-30T09:51:15Z</time>
      </trkpt>
      <trkpt lat="47.25004" lon="6.02902">
        <ele>274.4</ele>
        <time>2021-09-30T09:51:16Z</time>
      </trkpt>
      <trkpt lat="47.25007" lon="6.02904">
        <ele>274.4</ele>
        <time>2021-09-30T09:51:17Z</time>
      </trkpt>
      <trkpt lat="47.25009" lon="6.02906">
        <ele>274.4</ele>
        <time>2021-09-30T09:51:18Z</time>
      </trkpt>
      <trkpt lat="47.25013" lon="6.02909">
        <ele>274.8</ele>
        <time>2021-09-30T09:51:19Z</time>
      </trkpt>
      <trkpt lat="47.25016" lon="6.02911">
        <ele>275</ele>
        <time>2021-09-30T09:51:20Z</time>
      </trkpt>
      <trkpt lat="47.25018" lon="6.02914">
        <ele>275</ele>
        <time>2021-09-30T09:51:21Z</time>
      </trkpt>
      <trkpt lat="47.25021" lon="6.02916">
        <ele>275</ele>
        <time>2021-09-30T09:51:22Z</time>
      </trkpt>
      <trkpt lat="47.25024" lon="6.02918">
        <ele>275.2</ele>
        <time>2021-09-30T09:51:23Z</time>
      </trkpt>
      <trkpt lat="47.25027" lon="6.0292">
        <ele>275.6</ele>
        <time>2021-09-30T09:51:24Z</time>
      </trkpt>
      <trkpt lat="47.2503" lon="6.02922">
        <ele>275.8</ele>
        <time>2021-09-30T09:51:25Z</time>
      </trkpt>
      <trkpt lat="47.25033" lon="6.02925">
        <ele>276</ele>
        <time>2021-09-30T09:51:26Z</time>
      </trkpt>
      <trkpt lat="47.25035" lon="6.02928">
        <ele>276</ele>
        <time>2021-09-30T09:51:27Z</time>
      </trkpt>
      <trkpt lat="47.25037" lon="6.02931">
        <ele>276</ele>
        <time>2021-09-30T09:51:28Z</time>
      </trkpt>
      <trkpt lat="47.25039" lon="6.02935">
        <ele>276</ele>
        <time>2021-09-30T09:51:29Z</time>
      </trkpt>
      <trkpt lat="47.2504" lon="6.02939">
        <ele>276.2</ele>
        <time>2021-09-30T09:51:30Z</time>
      </trkpt>
      <trkpt lat="47.25041" lon="6.02942">
        <ele>276.4</ele>
        <time>2021-09-30T09:51:31Z</time>
      </trkpt>
      <trkpt lat="47.25042" lon="6.02946">
        <ele>276.8</ele>
        <time>2021-09-30T09:51:32Z</time>
      </trkpt>
      <trkpt lat="47.25043" lon="6.0295">
        <ele>277</ele>
        <time>2021-09-30T09:51:33Z</time>
      </trkpt>
      <trkpt lat="47.25045" lon="6.02954">
        <ele>277.2</ele>
        <time>2021-09-30T09:51:34Z</time>
      </trkpt>
      <trkpt lat="47.25045" lon="6.02958">
        <ele>277.4</ele>
        <time>2021-09-30T09:51:35Z</time>
      </trkpt>
      <trkpt lat="47.25046" lon="6.02962">
        <ele>277.6</ele>
        <time>2021-09-30T09:51:36Z</time>
      </trkpt>
      <trkpt lat="47.25048" lon="6.02966">
        <ele>277.8</ele>
        <time>2021-09-30T09:51:37Z</time>
      </trkpt>
      <trkpt lat="47.25049" lon="6.0297">
        <ele>277.8</ele>
        <time>2021-09-30T09:51:38Z</time>
      </trkpt>
      <trkpt lat="47.25051" lon="6.02974">
        <ele>278.2</ele>
        <time>2021-09-30T09:51:39Z</time>
      </trkpt>
      <trkpt lat="47.25051" lon="6.02978">
        <ele>278.2</ele>
        <time>2021-09-30T09:51:40Z</time>
      </trkpt>
      <trkpt lat="47.25053" lon="6.02982">
        <ele>278.4</ele>
        <time>2021-09-30T09:51:41Z</time>
      </trkpt>
      <trkpt lat="47.25054" lon="6.02985">
        <ele>278.4</ele>
        <time>2021-09-30T09:51:42Z</time>
      </trkpt>
      <trkpt lat="47.25056" lon="6.02989">
        <ele>278.6</ele>
        <time>2021-09-30T09:51:43Z</time>
      </trkpt>
      <trkpt lat="47.25057" lon="6.02993">
        <ele>278.6</ele>
        <time>2021-09-30T09:51:44Z</time>
      </trkpt>
      <trkpt lat="47.25059" lon="6.02997">
        <ele>278.6</ele>
        <time>2021-09-30T09:51:45Z</time>
      </trkpt>
      <trkpt lat="47.2506" lon="6.03">
        <ele>278.6</ele>
        <time>2021-09-30T09:51:46Z</time>
      </trkpt>
      <trkpt lat="47.25062" lon="6.03004">
        <ele>278.8</ele>
        <time>2021-09-30T09:51:47Z</time>
      </trkpt>
      <trkpt lat="47.25063" lon="6.03007">
        <ele>278.8</ele>
        <time>2021-09-30T09:51:48Z</time>
      </trkpt>
      <trkpt lat="47.25065" lon="6.03011">
        <ele>279</ele>
        <time>2021-09-30T09:51:49Z</time>
      </trkpt>
      <trkpt lat="47.25066" lon="6.03015">
        <ele>279.2</ele>
        <time>2021-09-30T09:51:50Z</time>
      </trkpt>
      <trkpt lat="47.25068" lon="6.03019">
        <ele>279.6</ele>
        <time>2021-09-30T09:51:51Z</time>
      </trkpt>
      <trkpt lat="47.2507" lon="6.03022">
        <ele>279.6</ele>
        <time>2021-09-30T09:51:52Z</time>
      </trkpt>
      <trkpt lat="47.25072" lon="6.03025">
        <ele>279.8</ele>
        <time>2021-09-30T09:51:53Z</time>
      </trkpt>
      <trkpt lat="47.25074" lon="6.03028">
        <ele>279.8</ele>
        <time>2021-09-30T09:51:54Z</time>
      </trkpt>
      <trkpt lat="47.25077" lon="6.03031">
        <ele>280</ele>
        <time>2021-09-30T09:51:55Z</time>
      </trkpt>
      <trkpt lat="47.25079" lon="6.03033">
        <ele>280</ele>
        <time>2021-09-30T09:51:56Z</time>
      </trkpt>
      <trkpt lat="47.25082" lon="6.03035">
        <ele>280.4</ele>
        <time>2021-09-30T09:51:57Z</time>
      </trkpt>
      <trkpt lat="47.25084" lon="6.03037">
        <ele>280.6</ele>
        <time>2021-09-30T09:51:58Z</time>
      </trkpt>
      <trkpt lat="47.25087" lon="6.03038">
        <ele>280.8</ele>
        <time>2021-09-30T09:51:59Z</time>
      </trkpt>
      <trkpt lat="47.2509" lon="6.0304">
        <ele>281</ele>
        <time>2021-09-30T09:52:00Z</time>
      </trkpt>
      <trkpt lat="47.25093" lon="6.03041">
        <ele>281</ele>
        <time>2021-09-30T09:52:01Z</time>
      </trkpt>
      <trkpt lat="47.25095" lon="6.03041">
        <ele>281.2</ele>
        <time>2021-09-30T09:52:02Z</time>
      </trkpt>
      <trkpt lat="47.25098" lon="6.03042">
        <ele>281.2</ele>
        <time>2021-09-30T09:52:03Z</time>
      </trkpt>
      <trkpt lat="47.25101" lon="6.03042">
        <ele>281.6</ele>
        <time>2021-09-30T09:52:04Z</time>
      </trkpt>
      <trkpt lat="47.25104" lon="6.03042">
        <ele>281.6</ele>
        <time>2021-09-30T09:52:05Z</time>
      </trkpt>
      <trkpt lat="47.25108" lon="6.03042">
        <ele>281.8</ele>
        <time>2021-09-30T09:52:06Z</time>
      </trkpt>
      <trkpt lat="47.25111" lon="6.03041">
        <ele>281.8</ele>
        <time>2021-09-30T09:52:07Z</time>
      </trkpt>
      <trkpt lat="47.25114" lon="6.0304">
        <ele>282</ele>
        <time>2021-09-30T09:52:08Z</time>
      </trkpt>
      <trkpt lat="47.25117" lon="6.0304">
        <ele>282.4</ele>
        <time>2021-09-30T09:52:09Z</time>
      </trkpt>
      <trkpt lat="47.2512" lon="6.03039">
        <ele>282.6</ele>
        <time>2021-09-30T09:52:10Z</time>
      </trkpt>
      <trkpt lat="47.25123" lon="6.03038">
        <ele>282.8</ele>
        <time>2021-09-30T09:52:11Z</time>
      </trkpt>
      <trkpt lat="47.25126" lon="6.03037">
        <ele>282.8</ele>
        <time>2021-09-30T09:52:12Z</time>
      </trkpt>
      <trkpt lat="47.2513" lon="6.03035">
        <ele>283</ele>
        <time>2021-09-30T09:52:13Z</time>
      </trkpt>
      <trkpt lat="47.25133" lon="6.03034">
        <ele>283.2</ele>
        <time>2021-09-30T09:52:14Z</time>
      </trkpt>
      <trkpt lat="47.25136" lon="6.03033">
        <ele>283.2</ele>
        <time>2021-09-30T09:52:15Z</time>
      </trkpt>
      <trkpt lat="47.25139" lon="6.03031">
        <ele>283.4</ele>
        <time>2021-09-30T09:52:16Z</time>
      </trkpt>
      <trkpt lat="47.25142" lon="6.03029">
        <ele>283.4</ele>
        <time>2021-09-30T09:52:17Z</time>
      </trkpt>
      <trkpt lat="47.25144" lon="6.03028">
        <ele>283.6</ele>
        <time>2021-09-30T09:52:18Z</time>
      </trkpt>
      <trkpt lat="47.25147" lon="6.03026">
        <ele>283.8</ele>
        <time>2021-09-30T09:52:19Z</time>
      </trkpt>
      <trkpt lat="47.2515" lon="6.03024">
        <ele>284</ele>
        <time>2021-09-30T09:52:20Z</time>
      </trkpt>
      <trkpt lat="47.25153" lon="6.03022">
        <ele>284.2</ele>
        <time>2021-09-30T09:52:21Z</time>
      </trkpt>
      <trkpt lat="47.25155" lon="6.03021">
        <ele>284.4</ele>
        <time>2021-09-30T09:52:22Z</time>
      </trkpt>
      <trkpt lat="47.25158" lon="6.0302">
        <ele>284.6</ele>
        <time>2021-09-30T09:52:23Z</time>
      </trkpt>
      <trkpt lat="47.25161" lon="6.03018">
        <ele>284.8</ele>
        <time>2021-09-30T09:52:24Z</time>
      </trkpt>
      <trkpt lat="47.25164" lon="6.03017">
        <ele>285</ele>
        <time>2021-09-30T09:52:25Z</time>
      </trkpt>
      <trkpt lat="47.25167" lon="6.03015">
        <ele>285</ele>
        <time>2021-09-30T09:52:26Z</time>
      </trkpt>
      <trkpt lat="47.25171" lon="6.03015">
        <ele>285.2</ele>
        <time>2021-09-30T09:52:27Z</time>
      </trkpt>
      <trkpt lat="47.25174" lon="6.03014">
        <ele>285.4</ele>
        <time>2021-09-30T09:52:28Z</time>
      </trkpt>
      <trkpt lat="47.25178" lon="6.03014">
        <ele>285.4</ele>
        <time>2021-09-30T09:52:29Z</time>
      </trkpt>
      <trkpt lat="47.25182" lon="6.03014">
        <ele>285.6</ele>
        <time>2021-09-30T09:52:30Z</time>
      </trkpt>
      <trkpt lat="47.25185" lon="6.03014">
        <ele>285.8</ele>
        <time>2021-09-30T09:52:31Z</time>
      </trkpt>
      <trkpt lat="47.25188" lon="6.03015">
        <ele>285.8</ele>
        <time>2021-09-30T09:52:32Z</time>
      </trkpt>
      <trkpt lat="47.25192" lon="6.03016">
        <ele>286.2</ele>
        <time>2021-09-30T09:52:33Z</time>
      </trkpt>
      <trkpt lat="47.25195" lon="6.03017">
        <ele>286</ele>
        <time>2021-09-30T09:52:34Z</time>
      </trkpt>
      <trkpt lat="47.25198" lon="6.03019">
        <ele>286.2</ele>
        <time>2021-09-30T09:52:35Z</time>
      </trkpt>
      <trkpt lat="47.25201" lon="6.0302">
        <ele>286.2</ele>
        <time>2021-09-30T09:52:36Z</time>
      </trkpt>
      <trkpt lat="47.25204" lon="6.03022">
        <ele>286.4</ele>
        <time>2021-09-30T09:52:37Z</time>
      </trkpt>
      <trkpt lat="47.25207" lon="6.03024">
        <ele>286.6</ele>
        <time>2021-09-30T09:52:38Z</time>
      </trkpt>
      <trkpt lat="47.2521" lon="6.03026">
        <ele>286.6</ele>
        <time>2021-09-30T09:52:39Z</time>
      </trkpt>
      <trkpt lat="47.25213" lon="6.03028">
        <ele>286.6</ele>
        <time>2021-09-30T09:52:40Z</time>
      </trkpt>
      <trkpt lat="47.25216" lon="6.0303">
        <ele>286.6</ele>
        <time>2021-09-30T09:52:41Z</time>
      </trkpt>
      <trkpt lat="47.25218" lon="6.03032">
        <ele>286.8</ele>
        <time>2021-09-30T09:52:42Z</time>
      </trkpt>
      <trkpt lat="47.25221" lon="6.03034">
        <ele>287</ele>
        <time>2021-09-30T09:52:43Z</time>
      </trkpt>
      <trkpt lat="47.25223" lon="6.03035">
        <ele>287.2</ele>
        <time>2021-09-30T09:52:44Z</time>
      </trkpt>
      <trkpt lat="47.25226" lon="6.03037">
        <ele>287.2</ele>
        <time>2021-09-30T09:52:45Z</time>
      </trkpt>
      <trkpt lat="47.25228" lon="6.03038">
        <ele>287.6</ele>
        <time>2021-09-30T09:52:46Z</time>
      </trkpt>
      <trkpt lat="47.25231" lon="6.0304">
        <ele>287.6</ele>
        <time>2021-09-30T09:52:47Z</time>
      </trkpt>
      <trkpt lat="47.25234" lon="6.03041">
        <ele>287.8</ele>
        <time>2021-09-30T09:52:48Z</time>
      </trkpt>
      <trkpt lat="47.25236" lon="6.03042">
        <ele>287.6</ele>
        <time>2021-09-30T09:52:49Z</time>
      </trkpt>
      <trkpt lat="47.25239" lon="6.03044">
        <ele>288</ele>
        <time>2021-09-30T09:52:50Z</time>
      </trkpt>
      <trkpt lat="47.25242" lon="6.03046">
        <ele>288</ele>
        <time>2021-09-30T09:52:51Z</time>
      </trkpt>
      <trkpt lat="47.25245" lon="6.03048">
        <ele>288</ele>
        <time>2021-09-30T09:52:52Z</time>
      </trkpt>
      <trkpt lat="47.25248" lon="6.03049">
        <ele>288.2</ele>
        <time>2021-09-30T09:52:53Z</time>
      </trkpt>
      <trkpt lat="47.2525" lon="6.0305">
        <ele>288.6</ele>
        <time>2021-09-30T09:52:54Z</time>
      </trkpt>
      <trkpt lat="47.25253" lon="6.03052">
        <ele>288.6</ele>
        <time>2021-09-30T09:52:55Z</time>
      </trkpt>
      <trkpt lat="47.25256" lon="6.03053">
        <ele>289</ele>
        <time>2021-09-30T09:52:56Z</time>
      </trkpt>
      <trkpt lat="47.25259" lon="6.03054">
        <ele>289</ele>
        <time>2021-09-30T09:52:57Z</time>
      </trkpt>
      <trkpt lat="47.25261" lon="6.03056">
        <ele>289.2</ele>
        <time>2021-09-30T09:52:58Z</time>
      </trkpt>
      <trkpt lat="47.25264" lon="6.03058">
        <ele>289.4</ele>
        <time>2021-09-30T09:52:59Z</time>
      </trkpt>
      <trkpt lat="47.25266" lon="6.03059">
        <ele>289.6</ele>
        <time>2021-09-30T09:53:00Z</time>
      </trkpt>
      <trkpt lat="47.25269" lon="6.0306">
        <ele>289.8</ele>
        <time>2021-09-30T09:53:01Z</time>
      </trkpt>
      <trkpt lat="47.25271" lon="6.03061">
        <ele>290.2</ele>
        <time>2021-09-30T09:53:02Z</time>
      </trkpt>
      <trkpt lat="47.25274" lon="6.03062">
        <ele>290.2</ele>
        <time>2021-09-30T09:53:03Z</time>
      </trkpt>
      <trkpt lat="47.25276" lon="6.03063">
        <ele>290.2</ele>
        <time>2021-09-30T09:53:04Z</time>
      </trkpt>
      <trkpt lat="47.25278" lon="6.03064">
        <ele>290.6</ele>
        <time>2021-09-30T09:53:05Z</time>
      </trkpt>
      <trkpt lat="47.25281" lon="6.03066">
        <ele>290.6</ele>
        <time>2021-09-30T09:53:06Z</time>
      </trkpt>
      <trkpt lat="47.25285" lon="6.03068">
        <ele>290.8</ele>
        <time>2021-09-30T09:53:07Z</time>
      </trkpt>
      <trkpt lat="47.25288" lon="6.0307">
        <ele>291</ele>
        <time>2021-09-30T09:53:08Z</time>
      </trkpt>
      <trkpt lat="47.25291" lon="6.03071">
        <ele>291.2</ele>
        <time>2021-09-30T09:53:09Z</time>
      </trkpt>
      <trkpt lat="47.25294" lon="6.03073">
        <ele>291.2</ele>
        <time>2021-09-30T09:53:10Z</time>
      </trkpt>
      <trkpt lat="47.25297" lon="6.03074">
        <ele>291</ele>
        <time>2021-09-30T09:53:11Z</time>
      </trkpt>
      <trkpt lat="47.253" lon="6.03076">
        <ele>291.4</ele>
        <time>2021-09-30T09:53:12Z</time>
      </trkpt>
      <trkpt lat="47.25303" lon="6.03078">
        <ele>291.4</ele>
        <time>2021-09-30T09:53:13Z</time>
      </trkpt>
      <trkpt lat="47.25306" lon="6.03079">
        <ele>291.6</ele>
        <time>2021-09-30T09:53:14Z</time>
      </trkpt>
      <trkpt lat="47.25309" lon="6.03081">
        <ele>291.6</ele>
        <time>2021-09-30T09:53:15Z</time>
      </trkpt>
      <trkpt lat="47.25312" lon="6.03082">
        <ele>292.2</ele>
        <time>2021-09-30T09:53:16Z</time>
      </trkpt>
      <trkpt lat="47.25314" lon="6.03084">
        <ele>292.4</ele>
        <time>2021-09-30T09:53:17Z</time>
      </trkpt>
      <trkpt lat="47.25317" lon="6.03085">
        <ele>292.4</ele>
        <time>2021-09-30T09:53:18Z</time>
      </trkpt>
      <trkpt lat="47.2532" lon="6.03087">
        <ele>292.6</ele>
        <time>2021-09-30T09:53:19Z</time>
      </trkpt>
      <trkpt lat="47.25323" lon="6.03088">
        <ele>292.8</ele>
        <time>2021-09-30T09:53:20Z</time>
      </trkpt>
      <trkpt lat="47.25326" lon="6.0309">
        <ele>292.8</ele>
        <time>2021-09-30T09:53:21Z</time>
      </trkpt>
      <trkpt lat="47.25329" lon="6.03092">
        <ele>292.6</ele>
        <time>2021-09-30T09:53:22Z</time>
      </trkpt>
      <trkpt lat="47.25332" lon="6.03094">
        <ele>293</ele>
        <time>2021-09-30T09:53:23Z</time>
      </trkpt>
      <trkpt lat="47.25335" lon="6.03096">
        <ele>293.2</ele>
        <time>2021-09-30T09:53:24Z</time>
      </trkpt>
      <trkpt lat="47.25337" lon="6.03098">
        <ele>293.4</ele>
        <time>2021-09-30T09:53:25Z</time>
      </trkpt>
      <trkpt lat="47.2534" lon="6.031">
        <ele>293.6</ele>
        <time>2021-09-30T09:53:26Z</time>
      </trkpt>
      <trkpt lat="47.25343" lon="6.03102">
        <ele>293.8</ele>
        <time>2021-09-30T09:53:27Z</time>
      </trkpt>
      <trkpt lat="47.25345" lon="6.03104">
        <ele>294</ele>
        <time>2021-09-30T09:53:28Z</time>
      </trkpt>
      <trkpt lat="47.25348" lon="6.03107">
        <ele>294</ele>
        <time>2021-09-30T09:53:29Z</time>
      </trkpt>
      <trkpt lat="47.25351" lon="6.03109">
        <ele>294.2</ele>
        <time>2021-09-30T09:53:30Z</time>
      </trkpt>
      <trkpt lat="47.25354" lon="6.03111">
        <ele>294.4</ele>
        <time>2021-09-30T09:53:31Z</time>
      </trkpt>
      <trkpt lat="47.25356" lon="6.03113">
        <ele>294.4</ele>
        <time>2021-09-30T09:53:32Z</time>
      </trkpt>
      <trkpt lat="47.25359" lon="6.03115">
        <ele>294.6</ele>
        <time>2021-09-30T09:53:33Z</time>
      </trkpt>
      <trkpt lat="47.25361" lon="6.03117">
        <ele>294.8</ele>
        <time>2021-09-30T09:53:34Z</time>
      </trkpt>
      <trkpt lat="47.25363" lon="6.03119">
        <ele>295.2</ele>
        <time>2021-09-30T09:53:35Z</time>
      </trkpt>
      <trkpt lat="47.25366" lon="6.0312">
        <ele>295.2</ele>
        <time>2021-09-30T09:53:36Z</time>
      </trkpt>
      <trkpt lat="47.25368" lon="6.03122">
        <ele>295.2</ele>
        <time>2021-09-30T09:53:37Z</time>
      </trkpt>
      <trkpt lat="47.2537" lon="6.03124">
        <ele>295.4</ele>
        <time>2021-09-30T09:53:38Z</time>
      </trkpt>
      <trkpt lat="47.25372" lon="6.03125">
        <ele>295.6</ele>
        <time>2021-09-30T09:53:39Z</time>
      </trkpt>
      <trkpt lat="47.25374" lon="6.03127">
        <ele>295.6</ele>
        <time>2021-09-30T09:53:40Z</time>
      </trkpt>
      <trkpt lat="47.25376" lon="6.03128">
        <ele>295.8</ele>
        <time>2021-09-30T09:53:41Z</time>
      </trkpt>
      <trkpt lat="47.25377" lon="6.0313">
        <ele>296</ele>
        <time>2021-09-30T09:53:42Z</time>
      </trkpt>
      <trkpt lat="47.25379" lon="6.03132">
        <ele>296.4</ele>
        <time>2021-09-30T09:53:43Z</time>
      </trkpt>
      <trkpt lat="47.25382" lon="6.03135">
        <ele>296.6</ele>
        <time>2021-09-30T09:53:44Z</time>
      </trkpt>
      <trkpt lat="47.25384" lon="6.03137">
        <ele>296.6</ele>
        <time>2021-09-30T09:53:45Z</time>
      </trkpt>
      <trkpt lat="47.25386" lon="6.03139">
        <ele>296.8</ele>
        <time>2021-09-30T09:53:46Z</time>
      </trkpt>
      <trkpt lat="47.25388" lon="6.03141">
        <ele>297</ele>
        <time>2021-09-30T09:53:47Z</time>
      </trkpt>
      <trkpt lat="47.2539" lon="6.03143">
        <ele>297.4</ele>
        <time>2021-09-30T09:53:48Z</time>
      </trkpt>
      <trkpt lat="47.25393" lon="6.03145">
        <ele>297.4</ele>
        <time>2021-09-30T09:53:49Z</time>
      </trkpt>
      <trkpt lat="47.25395" lon="6.03147">
        <ele>297.8</ele>
        <time>2021-09-30T09:53:50Z</time>
      </trkpt>
      <trkpt lat="47.25397" lon="6.03149">
        <ele>297.8</ele>
        <time>2021-09-30T09:53:51Z</time>
      </trkpt>
      <trkpt lat="47.25399" lon="6.03151">
        <ele>298</ele>
        <time>2021-09-30T09:53:52Z</time>
      </trkpt>
      <trkpt lat="47.25402" lon="6.03153">
        <ele>298</ele>
        <time>2021-09-30T09:53:53Z</time>
      </trkpt>
      <trkpt lat="47.25404" lon="6.03155">
        <ele>298.2</ele>
        <time>2021-09-30T09:53:54Z</time>
      </trkpt>
      <trkpt lat="47.25407" lon="6.03157">
        <ele>298.4</ele>
        <time>2021-09-30T09:53:55Z</time>
      </trkpt>
      <trkpt lat="47.25409" lon="6.03159">
        <ele>298.6</ele>
        <time>2021-09-30T09:53:56Z</time>
      </trkpt>
      <trkpt lat="47.25412" lon="6.03161">
        <ele>298.4</ele>
        <time>2021-09-30T09:53:57Z</time>
      </trkpt>
      <trkpt lat="47.25415" lon="6.03164">
        <ele>298.8</ele>
        <time>2021-09-30T09:53:58Z</time>
      </trkpt>
      <trkpt lat="47.25418" lon="6.03166">
        <ele>298.6</ele>
        <time>2021-09-30T09:53:59Z</time>
      </trkpt>
      <trkpt lat="47.2542" lon="6.03167">
        <ele>298.8</ele>
        <time>2021-09-30T09:54:00Z</time>
      </trkpt>
      <trkpt lat="47.25423" lon="6.03168">
        <ele>298.8</ele>
        <time>2021-09-30T09:54:01Z</time>
      </trkpt>
      <trkpt lat="47.25426" lon="6.0317">
        <ele>299</ele>
        <time>2021-09-30T09:54:02Z</time>
      </trkpt>
      <trkpt lat="47.25429" lon="6.03172">
        <ele>299</ele>
        <time>2021-09-30T09:54:03Z</time>
      </trkpt>
      <trkpt lat="47.25433" lon="6.03174">
        <ele>299</ele>
        <time>2021-09-30T09:54:04Z</time>
      </trkpt>
      <trkpt lat="47.25436" lon="6.03176">
        <ele>299</ele>
        <time>2021-09-30T09:54:05Z</time>
      </trkpt>
      <trkpt lat="47.25439" lon="6.03178">
        <ele>299</ele>
        <time>2021-09-30T09:54:06Z</time>
      </trkpt>
      <trkpt lat="47.25442" lon="6.03179">
        <ele>299</ele>
        <time>2021-09-30T09:54:07Z</time>
      </trkpt>
      <trkpt lat="47.25445" lon="6.03181">
        <ele>299</ele>
        <time>2021-09-30T09:54:08Z</time>
      </trkpt>
      <trkpt lat="47.25448" lon="6.03182">
        <ele>299</ele>
        <time>2021-09-30T09:54:09Z</time>
      </trkpt>
      <trkpt lat="47.25451" lon="6.03184">
        <ele>299</ele>
        <time>2021-09-30T09:54:10Z</time>
      </trkpt>
      <trkpt lat="47.25454" lon="6.03186">
        <ele>299</ele>
        <time>2021-09-30T09:54:11Z</time>
      </trkpt>
      <trkpt lat="47.25457" lon="6.03188">
        <ele>299</ele>
        <time>2021-09-30T09:54:12Z</time>
      </trkpt>
      <trkpt lat="47.2546" lon="6.03189">
        <ele>298.8</ele>
        <time>2021-09-30T09:54:13Z</time>
      </trkpt>
      <trkpt lat="47.25465" lon="6.03193">
        <ele>298.8</ele>
        <time>2021-09-30T09:54:15Z</time>
      </trkpt>
      <trkpt lat="47.25468" lon="6.03195">
        <ele>298.8</ele>
        <time>2021-09-30T09:54:16Z</time>
      </trkpt>
      <trkpt lat="47.25471" lon="6.03197">
        <ele>298.8</ele>
        <time>2021-09-30T09:54:17Z</time>
      </trkpt>
      <trkpt lat="47.25484" lon="6.03207">
        <ele>298.6</ele>
        <time>2021-09-30T09:54:21Z</time>
      </trkpt>
      <trkpt lat="47.25514" lon="6.03235">
        <ele>297.2</ele>
        <time>2021-09-30T09:54:30Z</time>
      </trkpt>
      <trkpt lat="47.25526" lon="6.03255">
        <ele>297.2</ele>
        <time>2021-09-30T09:54:35Z</time>
      </trkpt>
      <trkpt lat="47.25532" lon="6.03272">
        <ele>297</ele>
        <time>2021-09-30T09:54:39Z</time>
      </trkpt>
      <trkpt lat="47.25533" lon="6.03277">
        <ele>297</ele>
        <time>2021-09-30T09:54:40Z</time>
      </trkpt>
      <trkpt lat="47.25534" lon="6.03281">
        <ele>297</ele>
        <time>2021-09-30T09:54:41Z</time>
      </trkpt>
      <trkpt lat="47.25536" lon="6.03286">
        <ele>297</ele>
        <time>2021-09-30T09:54:42Z</time>
      </trkpt>
      <trkpt lat="47.25537" lon="6.03291">
        <ele>297</ele>
        <time>2021-09-30T09:54:43Z</time>
      </trkpt>
      <trkpt lat="47.25539" lon="6.03294">
        <ele>297</ele>
        <time>2021-09-30T09:54:44Z</time>
      </trkpt>
      <trkpt lat="47.25544" lon="6.03302">
        <ele>297.2</ele>
        <time>2021-09-30T09:54:46Z</time>
      </trkpt>
      <trkpt lat="47.25546" lon="6.03305">
        <ele>297.4</ele>
        <time>2021-09-30T09:54:47Z</time>
      </trkpt>
      <trkpt lat="47.25557" lon="6.03319">
        <ele>297.4</ele>
        <time>2021-09-30T09:54:52Z</time>
      </trkpt>
      <trkpt lat="47.25559" lon="6.03321">
        <ele>297.6</ele>
        <time>2021-09-30T09:54:53Z</time>
      </trkpt>
      <trkpt lat="47.25564" lon="6.03329">
        <ele>298.2</ele>
        <time>2021-09-30T09:54:56Z</time>
      </trkpt>
      <trkpt lat="47.25565" lon="6.03331">
        <ele>298.4</ele>
        <time>2021-09-30T09:54:57Z</time>
      </trkpt>
      <trkpt lat="47.25567" lon="6.03334">
        <ele>298.8</ele>
        <time>2021-09-30T09:54:58Z</time>
      </trkpt>
      <trkpt lat="47.25568" lon="6.03336">
        <ele>299</ele>
        <time>2021-09-30T09:54:59Z</time>
      </trkpt>
      <trkpt lat="47.2557" lon="6.03338">
        <ele>299</ele>
        <time>2021-09-30T09:55:00Z</time>
      </trkpt>
      <trkpt lat="47.25571" lon="6.0334">
        <ele>299.2</ele>
        <time>2021-09-30T09:55:01Z</time>
      </trkpt>
      <trkpt lat="47.25573" lon="6.03343">
        <ele>299.4</ele>
        <time>2021-09-30T09:55:02Z</time>
      </trkpt>
      <trkpt lat="47.25574" lon="6.03345">
        <ele>299.4</ele>
        <time>2021-09-30T09:55:03Z</time>
      </trkpt>
      <trkpt lat="47.25582" lon="6.0336">
        <ele>300.4</ele>
        <time>2021-09-30T09:55:08Z</time>
      </trkpt>
      <trkpt lat="47.25584" lon="6.03363">
        <ele>300.8</ele>
        <time>2021-09-30T09:55:09Z</time>
      </trkpt>
      <trkpt lat="47.25586" lon="6.03365">
        <ele>300.8</ele>
        <time>2021-09-30T09:55:10Z</time>
      </trkpt>
      <trkpt lat="47.25588" lon="6.03368">
        <ele>301.2</ele>
        <time>2021-09-30T09:55:11Z</time>
      </trkpt>
      <trkpt lat="47.25589" lon="6.0337">
        <ele>301.4</ele>
        <time>2021-09-30T09:55:12Z</time>
      </trkpt>
      <trkpt lat="47.25591" lon="6.03372">
        <ele>301.8</ele>
        <time>2021-09-30T09:55:13Z</time>
      </trkpt>
      <trkpt lat="47.25592" lon="6.03374">
        <ele>302</ele>
        <time>2021-09-30T09:55:14Z</time>
      </trkpt>
      <trkpt lat="47.25593" lon="6.03376">
        <ele>302</ele>
        <time>2021-09-30T09:55:15Z</time>
      </trkpt>
      <trkpt lat="47.25595" lon="6.03378">
        <ele>302.2</ele>
        <time>2021-09-30T09:55:16Z</time>
      </trkpt>
      <trkpt lat="47.25596" lon="6.0338">
        <ele>302.2</ele>
        <time>2021-09-30T09:55:17Z</time>
      </trkpt>
      <trkpt lat="47.25598" lon="6.03383">
        <ele>302.6</ele>
        <time>2021-09-30T09:55:18Z</time>
      </trkpt>
      <trkpt lat="47.256" lon="6.03386">
        <ele>302.6</ele>
        <time>2021-09-30T09:55:19Z</time>
      </trkpt>
      <trkpt lat="47.25601" lon="6.03389">
        <ele>302.8</ele>
        <time>2021-09-30T09:55:20Z</time>
      </trkpt>
      <trkpt lat="47.25603" lon="6.03391">
        <ele>302.8</ele>
        <time>2021-09-30T09:55:21Z</time>
      </trkpt>
      <trkpt lat="47.25605" lon="6.03394">
        <ele>303</ele>
        <time>2021-09-30T09:55:22Z</time>
      </trkpt>
      <trkpt lat="47.25606" lon="6.03396">
        <ele>303</ele>
        <time>2021-09-30T09:55:23Z</time>
      </trkpt>
      <trkpt lat="47.25608" lon="6.03399">
        <ele>303.2</ele>
        <time>2021-09-30T09:55:24Z</time>
      </trkpt>
      <trkpt lat="47.25609" lon="6.03401">
        <ele>303.2</ele>
        <time>2021-09-30T09:55:25Z</time>
      </trkpt>
      <trkpt lat="47.25611" lon="6.03404">
        <ele>303.2</ele>
        <time>2021-09-30T09:55:26Z</time>
      </trkpt>
      <trkpt lat="47.25612" lon="6.03407">
        <ele>303.4</ele>
        <time>2021-09-30T09:55:27Z</time>
      </trkpt>
      <trkpt lat="47.25614" lon="6.03409">
        <ele>303.6</ele>
        <time>2021-09-30T09:55:28Z</time>
      </trkpt>
      <trkpt lat="47.25615" lon="6.03412">
        <ele>303.8</ele>
        <time>2021-09-30T09:55:29Z</time>
      </trkpt>
      <trkpt lat="47.25617" lon="6.03415">
        <ele>303.8</ele>
        <time>2021-09-30T09:55:30Z</time>
      </trkpt>
      <trkpt lat="47.25619" lon="6.03418">
        <ele>304.2</ele>
        <time>2021-09-30T09:55:31Z</time>
      </trkpt>
      <trkpt lat="47.2562" lon="6.03421">
        <ele>304.2</ele>
        <time>2021-09-30T09:55:32Z</time>
      </trkpt>
      <trkpt lat="47.25622" lon="6.03424">
        <ele>304.4</ele>
        <time>2021-09-30T09:55:33Z</time>
      </trkpt>
      <trkpt lat="47.25625" lon="6.03427">
        <ele>304.6</ele>
        <time>2021-09-30T09:55:34Z</time>
      </trkpt>
      <trkpt lat="47.25627" lon="6.0343">
        <ele>304.6</ele>
        <time>2021-09-30T09:55:35Z</time>
      </trkpt>
      <trkpt lat="47.25628" lon="6.03433">
        <ele>304.8</ele>
        <time>2021-09-30T09:55:36Z</time>
      </trkpt>
      <trkpt lat="47.2563" lon="6.03436">
        <ele>304.8</ele>
        <time>2021-09-30T09:55:37Z</time>
      </trkpt>
      <trkpt lat="47.25631" lon="6.03438">
        <ele>305</ele>
        <time>2021-09-30T09:55:38Z</time>
      </trkpt>
      <trkpt lat="47.25633" lon="6.0344">
        <ele>305.2</ele>
        <time>2021-09-30T09:55:39Z</time>
      </trkpt>
      <trkpt lat="47.25634" lon="6.03443">
        <ele>305.4</ele>
        <time>2021-09-30T09:55:40Z</time>
      </trkpt>
      <trkpt lat="47.25636" lon="6.03447">
        <ele>305.4</ele>
        <time>2021-09-30T09:55:41Z</time>
      </trkpt>
      <trkpt lat="47.25638" lon="6.0345">
        <ele>305.6</ele>
        <time>2021-09-30T09:55:42Z</time>
      </trkpt>
      <trkpt lat="47.25639" lon="6.03452">
        <ele>305.6</ele>
        <time>2021-09-30T09:55:43Z</time>
      </trkpt>
      <trkpt lat="47.25641" lon="6.03455">
        <ele>305.6</ele>
        <time>2021-09-30T09:55:44Z</time>
      </trkpt>
      <trkpt lat="47.25643" lon="6.03459">
        <ele>305.8</ele>
        <time>2021-09-30T09:55:45Z</time>
      </trkpt>
      <trkpt lat="47.25645" lon="6.03462">
        <ele>305.8</ele>
        <time>2021-09-30T09:55:46Z</time>
      </trkpt>
      <trkpt lat="47.25646" lon="6.03464">
        <ele>305.8</ele>
        <time>2021-09-30T09:55:47Z</time>
      </trkpt>
      <trkpt lat="47.25648" lon="6.03467">
        <ele>306</ele>
        <time>2021-09-30T09:55:48Z</time>
      </trkpt>
      <trkpt lat="47.2565" lon="6.0347">
        <ele>306</ele>
        <time>2021-09-30T09:55:49Z</time>
      </trkpt>
      <trkpt lat="47.25651" lon="6.03473">
        <ele>306.2</ele>
        <time>2021-09-30T09:55:50Z</time>
      </trkpt>
      <trkpt lat="47.25653" lon="6.03476">
        <ele>306.2</ele>
        <time>2021-09-30T09:55:51Z</time>
      </trkpt>
      <trkpt lat="47.25655" lon="6.03479">
        <ele>306.4</ele>
        <time>2021-09-30T09:55:52Z</time>
      </trkpt>
      <trkpt lat="47.25657" lon="6.03483">
        <ele>306.4</ele>
        <time>2021-09-30T09:55:53Z</time>
      </trkpt>
      <trkpt lat="47.25659" lon="6.03486">
        <ele>306.4</ele>
        <time>2021-09-30T09:55:54Z</time>
      </trkpt>
      <trkpt lat="47.25661" lon="6.03489">
        <ele>306.6</ele>
        <time>2021-09-30T09:55:55Z</time>
      </trkpt>
      <trkpt lat="47.25662" lon="6.03492">
        <ele>306.6</ele>
        <time>2021-09-30T09:55:56Z</time>
      </trkpt>
      <trkpt lat="47.25664" lon="6.03495">
        <ele>306.8</ele>
        <time>2021-09-30T09:55:57Z</time>
      </trkpt>
      <trkpt lat="47.25666" lon="6.03498">
        <ele>306.8</ele>
        <time>2021-09-30T09:55:58Z</time>
      </trkpt>
      <trkpt lat="47.25668" lon="6.03502">
        <ele>307</ele>
        <time>2021-09-30T09:55:59Z</time>
      </trkpt>
      <trkpt lat="47.2567" lon="6.03505">
        <ele>307.2</ele>
        <time>2021-09-30T09:56:00Z</time>
      </trkpt>
      <trkpt lat="47.25672" lon="6.03509">
        <ele>307.2</ele>
        <time>2021-09-30T09:56:01Z</time>
      </trkpt>
      <trkpt lat="47.25674" lon="6.03512">
        <ele>307.4</ele>
        <time>2021-09-30T09:56:02Z</time>
      </trkpt>
      <trkpt lat="47.25676" lon="6.03515">
        <ele>307.4</ele>
        <time>2021-09-30T09:56:03Z</time>
      </trkpt>
      <trkpt lat="47.25678" lon="6.03519">
        <ele>307.6</ele>
        <time>2021-09-30T09:56:04Z</time>
      </trkpt>
      <trkpt lat="47.25679" lon="6.03522">
        <ele>307.6</ele>
        <time>2021-09-30T09:56:05Z</time>
      </trkpt>
      <trkpt lat="47.25681" lon="6.03525">
        <ele>307.6</ele>
        <time>2021-09-30T09:56:06Z</time>
      </trkpt>
      <trkpt lat="47.25683" lon="6.03529">
        <ele>307.6</ele>
        <time>2021-09-30T09:56:07Z</time>
      </trkpt>
      <trkpt lat="47.25685" lon="6.03532">
        <ele>307.8</ele>
        <time>2021-09-30T09:56:08Z</time>
      </trkpt>
      <trkpt lat="47.25689" lon="6.03539">
        <ele>308.2</ele>
        <time>2021-09-30T09:56:10Z</time>
      </trkpt>
      <trkpt lat="47.257" lon="6.0356">
        <ele>308.4</ele>
        <time>2021-09-30T09:56:16Z</time>
      </trkpt>
      <trkpt lat="47.25716" lon="6.03591">
        <ele>309</ele>
        <time>2021-09-30T09:56:25Z</time>
      </trkpt>
      <trkpt lat="47.25721" lon="6.03601">
        <ele>309.4</ele>
        <time>2021-09-30T09:56:28Z</time>
      </trkpt>
      <trkpt lat="47.25723" lon="6.03605">
        <ele>309.4</ele>
        <time>2021-09-30T09:56:29Z</time>
      </trkpt>
      <trkpt lat="47.25732" lon="6.03622">
        <ele>309.4</ele>
        <time>2021-09-30T09:56:34Z</time>
      </trkpt>
      <trkpt lat="47.25746" lon="6.03648">
        <ele>310.4</ele>
        <time>2021-09-30T09:56:41Z</time>
      </trkpt>
      <trkpt lat="47.2575" lon="6.03656">
        <ele>310.6</ele>
        <time>2021-09-30T09:56:43Z</time>
      </trkpt>
      <trkpt lat="47.25772" lon="6.03695">
        <ele>311.2</ele>
        <time>2021-09-30T09:56:53Z</time>
      </trkpt>
      <trkpt lat="47.25783" lon="6.03716">
        <ele>311.4</ele>
        <time>2021-09-30T09:56:58Z</time>
      </trkpt>
      <trkpt lat="47.25791" lon="6.03733">
        <ele>311.8</ele>
        <time>2021-09-30T09:57:02Z</time>
      </trkpt>
      <trkpt lat="47.25802" lon="6.03764">
        <ele>312.2</ele>
        <time>2021-09-30T09:57:09Z</time>
      </trkpt>
      <trkpt lat="47.25804" lon="6.03768">
        <ele>312.2</ele>
        <time>2021-09-30T09:57:10Z</time>
      </trkpt>
      <trkpt lat="47.25811" lon="6.03785">
        <ele>312.4</ele>
        <time>2021-09-30T09:57:14Z</time>
      </trkpt>
      <trkpt lat="47.25815" lon="6.03794">
        <ele>312.4</ele>
        <time>2021-09-30T09:57:16Z</time>
      </trkpt>
      <trkpt lat="47.25832" lon="6.03827">
        <ele>312.8</ele>
        <time>2021-09-30T09:57:24Z</time>
      </trkpt>
      <trkpt lat="47.25842" lon="6.03847">
        <ele>313</ele>
        <time>2021-09-30T09:57:29Z</time>
      </trkpt>
      <trkpt lat="47.25853" lon="6.03867">
        <ele>313.4</ele>
        <time>2021-09-30T09:57:34Z</time>
      </trkpt>
      <trkpt lat="47.25855" lon="6.0387">
        <ele>313.4</ele>
        <time>2021-09-30T09:57:35Z</time>
      </trkpt>
      <trkpt lat="47.25874" lon="6.03902">
        <ele>314</ele>
        <time>2021-09-30T09:57:43Z</time>
      </trkpt>
      <trkpt lat="47.25889" lon="6.03923">
        <ele>314.6</ele>
        <time>2021-09-30T09:57:49Z</time>
      </trkpt>
      <trkpt lat="47.25894" lon="6.0393">
        <ele>314.8</ele>
        <time>2021-09-30T09:57:51Z</time>
      </trkpt>
      <trkpt lat="47.25896" lon="6.03933">
        <ele>314.8</ele>
        <time>2021-09-30T09:57:52Z</time>
      </trkpt>
      <trkpt lat="47.25899" lon="6.03937">
        <ele>315</ele>
        <time>2021-09-30T09:57:53Z</time>
      </trkpt>
      <trkpt lat="47.25906" lon="6.03946">
        <ele>315</ele>
        <time>2021-09-30T09:57:56Z</time>
      </trkpt>
      <trkpt lat="47.25908" lon="6.03948">
        <ele>315.2</ele>
        <time>2021-09-30T09:57:57Z</time>
      </trkpt>
      <trkpt lat="47.2591" lon="6.03951">
        <ele>315.4</ele>
        <time>2021-09-30T09:57:58Z</time>
      </trkpt>
      <trkpt lat="47.25912" lon="6.03954">
        <ele>315.6</ele>
        <time>2021-09-30T09:57:59Z</time>
      </trkpt>
      <trkpt lat="47.25914" lon="6.03956">
        <ele>315.8</ele>
        <time>2021-09-30T09:58:00Z</time>
      </trkpt>
      <trkpt lat="47.25926" lon="6.03972">
        <ele>316.2</ele>
        <time>2021-09-30T09:58:05Z</time>
      </trkpt>
      <trkpt lat="47.25949" lon="6.04002">
        <ele>317</ele>
        <time>2021-09-30T09:58:14Z</time>
      </trkpt>
      <trkpt lat="47.25951" lon="6.04006">
        <ele>317</ele>
        <time>2021-09-30T09:58:15Z</time>
      </trkpt>
      <trkpt lat="47.25967" lon="6.04034">
        <ele>318</ele>
        <time>2021-09-30T09:58:22Z</time>
      </trkpt>
      <trkpt lat="47.25971" lon="6.04045">
        <ele>318.2</ele>
        <time>2021-09-30T09:58:25Z</time>
      </trkpt>
      <trkpt lat="47.25973" lon="6.04048">
        <ele>318.4</ele>
        <time>2021-09-30T09:58:26Z</time>
      </trkpt>
      <trkpt lat="47.25975" lon="6.04052">
        <ele>318.4</ele>
        <time>2021-09-30T09:58:27Z</time>
      </trkpt>
      <trkpt lat="47.25977" lon="6.04056">
        <ele>318.4</ele>
        <time>2021-09-30T09:58:28Z</time>
      </trkpt>
      <trkpt lat="47.25979" lon="6.0406">
        <ele>318.6</ele>
        <time>2021-09-30T09:58:29Z</time>
      </trkpt>
      <trkpt lat="47.25981" lon="6.04064">
        <ele>318.8</ele>
        <time>2021-09-30T09:58:30Z</time>
      </trkpt>
      <trkpt lat="47.25983" lon="6.04068">
        <ele>319</ele>
        <time>2021-09-30T09:58:31Z</time>
      </trkpt>
      <trkpt lat="47.25985" lon="6.04071">
        <ele>319</ele>
        <time>2021-09-30T09:58:32Z</time>
      </trkpt>
      <trkpt lat="47.25987" lon="6.04075">
        <ele>319</ele>
        <time>2021-09-30T09:58:33Z</time>
      </trkpt>
      <trkpt lat="47.25989" lon="6.04079">
        <ele>319.2</ele>
        <time>2021-09-30T09:58:34Z</time>
      </trkpt>
      <trkpt lat="47.25991" lon="6.04082">
        <ele>319.2</ele>
        <time>2021-09-30T09:58:35Z</time>
      </trkpt>
      <trkpt lat="47.25993" lon="6.04086">
        <ele>319.2</ele>
        <time>2021-09-30T09:58:36Z</time>
      </trkpt>
      <trkpt lat="47.25995" lon="6.04089">
        <ele>319.4</ele>
        <time>2021-09-30T09:58:37Z</time>
      </trkpt>
      <trkpt lat="47.25998" lon="6.04093">
        <ele>319.4</ele>
        <time>2021-09-30T09:58:38Z</time>
      </trkpt>
      <trkpt lat="47.26" lon="6.04097">
        <ele>319.6</ele>
        <time>2021-09-30T09:58:39Z</time>
      </trkpt>
      <trkpt lat="47.26002" lon="6.041">
        <ele>319.6</ele>
        <time>2021-09-30T09:58:40Z</time>
      </trkpt>
      <trkpt lat="47.26004" lon="6.04104">
        <ele>319.8</ele>
        <time>2021-09-30T09:58:41Z</time>
      </trkpt>
      <trkpt lat="47.26007" lon="6.04107">
        <ele>319.8</ele>
        <time>2021-09-30T09:58:42Z</time>
      </trkpt>
      <trkpt lat="47.26009" lon="6.04111">
        <ele>320.2</ele>
        <time>2021-09-30T09:58:43Z</time>
      </trkpt>
      <trkpt lat="47.26012" lon="6.04115">
        <ele>320.4</ele>
        <time>2021-09-30T09:58:44Z</time>
      </trkpt>
      <trkpt lat="47.26014" lon="6.04118">
        <ele>320.6</ele>
        <time>2021-09-30T09:58:45Z</time>
      </trkpt>
      <trkpt lat="47.26017" lon="6.04122">
        <ele>320.6</ele>
        <time>2021-09-30T09:58:46Z</time>
      </trkpt>
      <trkpt lat="47.26019" lon="6.04125">
        <ele>320.8</ele>
        <time>2021-09-30T09:58:47Z</time>
      </trkpt>
      <trkpt lat="47.26021" lon="6.04128">
        <ele>321</ele>
        <time>2021-09-30T09:58:48Z</time>
      </trkpt>
      <trkpt lat="47.26024" lon="6.04132">
        <ele>321.2</ele>
        <time>2021-09-30T09:58:49Z</time>
      </trkpt>
      <trkpt lat="47.26027" lon="6.04135">
        <ele>321.2</ele>
        <time>2021-09-30T09:58:50Z</time>
      </trkpt>
      <trkpt lat="47.2603" lon="6.04138">
        <ele>321.4</ele>
        <time>2021-09-30T09:58:51Z</time>
      </trkpt>
      <trkpt lat="47.26032" lon="6.04142">
        <ele>321.4</ele>
        <time>2021-09-30T09:58:52Z</time>
      </trkpt>
      <trkpt lat="47.26035" lon="6.04145">
        <ele>321.4</ele>
        <time>2021-09-30T09:58:53Z</time>
      </trkpt>
      <trkpt lat="47.26037" lon="6.04149">
        <ele>321.6</ele>
        <time>2021-09-30T09:58:54Z</time>
      </trkpt>
      <trkpt lat="47.2604" lon="6.04152">
        <ele>321.6</ele>
        <time>2021-09-30T09:58:55Z</time>
      </trkpt>
      <trkpt lat="47.26043" lon="6.04155">
        <ele>321.6</ele>
        <time>2021-09-30T09:58:56Z</time>
      </trkpt>
      <trkpt lat="47.26045" lon="6.04158">
        <ele>321.8</ele>
        <time>2021-09-30T09:58:57Z</time>
      </trkpt>
      <trkpt lat="47.26048" lon="6.04161">
        <ele>321.8</ele>
        <time>2021-09-30T09:58:58Z</time>
      </trkpt>
      <trkpt lat="47.2605" lon="6.04164">
        <ele>321.8</ele>
        <time>2021-09-30T09:58:59Z</time>
      </trkpt>
      <trkpt lat="47.26052" lon="6.04168">
        <ele>321.8</ele>
        <time>2021-09-30T09:59:00Z</time>
      </trkpt>
      <trkpt lat="47.26055" lon="6.04171">
        <ele>322</ele>
        <time>2021-09-30T09:59:01Z</time>
      </trkpt>
      <trkpt lat="47.26058" lon="6.04175">
        <ele>322</ele>
        <time>2021-09-30T09:59:02Z</time>
      </trkpt>
      <trkpt lat="47.2606" lon="6.04178">
        <ele>322.2</ele>
        <time>2021-09-30T09:59:03Z</time>
      </trkpt>
      <trkpt lat="47.26063" lon="6.04182">
        <ele>322.2</ele>
        <time>2021-09-30T09:59:04Z</time>
      </trkpt>
      <trkpt lat="47.26065" lon="6.04186">
        <ele>322.2</ele>
        <time>2021-09-30T09:59:05Z</time>
      </trkpt>
      <trkpt lat="47.26068" lon="6.04189">
        <ele>322.2</ele>
        <time>2021-09-30T09:59:06Z</time>
      </trkpt>
      <trkpt lat="47.26069" lon="6.04192">
        <ele>322.4</ele>
        <time>2021-09-30T09:59:07Z</time>
      </trkpt>
      <trkpt lat="47.2607" lon="6.04194">
        <ele>322.6</ele>
        <time>2021-09-30T09:59:08Z</time>
      </trkpt>
      <trkpt lat="47.26071" lon="6.04197">
        <ele>322.8</ele>
        <time>2021-09-30T09:59:09Z</time>
      </trkpt>
      <trkpt lat="47.26071" lon="6.04201">
        <ele>322.8</ele>
        <time>2021-09-30T09:59:10Z</time>
      </trkpt>
      <trkpt lat="47.26071" lon="6.04205">
        <ele>323</ele>
        <time>2021-09-30T09:59:11Z</time>
      </trkpt>
      <trkpt lat="47.26071" lon="6.04209">
        <ele>323</ele>
        <time>2021-09-30T09:59:12Z</time>
      </trkpt>
      <trkpt lat="47.2607" lon="6.04212">
        <ele>323</ele>
        <time>2021-09-30T09:59:13Z</time>
      </trkpt>
      <trkpt lat="47.26069" lon="6.04216">
        <ele>323</ele>
        <time>2021-09-30T09:59:14Z</time>
      </trkpt>
      <trkpt lat="47.26067" lon="6.0422">
        <ele>323</ele>
        <time>2021-09-30T09:59:15Z</time>
      </trkpt>
      <trkpt lat="47.26066" lon="6.04224">
        <ele>323</ele>
        <time>2021-09-30T09:59:16Z</time>
      </trkpt>
      <trkpt lat="47.26063" lon="6.04229">
        <ele>323</ele>
        <time>2021-09-30T09:59:17Z</time>
      </trkpt>
      <trkpt lat="47.26061" lon="6.04234">
        <ele>323</ele>
        <time>2021-09-30T09:59:18Z</time>
      </trkpt>
      <trkpt lat="47.26055" lon="6.04244">
        <ele>323</ele>
        <time>2021-09-30T09:59:20Z</time>
      </trkpt>
      <trkpt lat="47.2605" lon="6.0426">
        <ele>322.2</ele>
        <time>2021-09-30T09:59:23Z</time>
      </trkpt>
      <trkpt lat="47.26052" lon="6.04266">
        <ele>322</ele>
        <time>2021-09-30T09:59:24Z</time>
      </trkpt>
      <trkpt lat="47.26054" lon="6.04271">
        <ele>321.4</ele>
        <time>2021-09-30T09:59:25Z</time>
      </trkpt>
      <trkpt lat="47.26057" lon="6.04276">
        <ele>320.8</ele>
        <time>2021-09-30T09:59:26Z</time>
      </trkpt>
      <trkpt lat="47.26061" lon="6.04283">
        <ele>320.4</ele>
        <time>2021-09-30T09:59:28Z</time>
      </trkpt>
      <trkpt lat="47.26064" lon="6.04287">
        <ele>320.2</ele>
        <time>2021-09-30T09:59:29Z</time>
      </trkpt>
      <trkpt lat="47.26066" lon="6.04291">
        <ele>320</ele>
        <time>2021-09-30T09:59:30Z</time>
      </trkpt>
      <trkpt lat="47.26068" lon="6.04295">
        <ele>320</ele>
        <time>2021-09-30T09:59:31Z</time>
      </trkpt>
      <trkpt lat="47.2607" lon="6.04298">
        <ele>320</ele>
        <time>2021-09-30T09:59:32Z</time>
      </trkpt>
      <trkpt lat="47.26071" lon="6.04302">
        <ele>320</ele>
        <time>2021-09-30T09:59:33Z</time>
      </trkpt>
      <trkpt lat="47.26073" lon="6.04307">
        <ele>320</ele>
        <time>2021-09-30T09:59:34Z</time>
      </trkpt>
      <trkpt lat="47.26075" lon="6.04311">
        <ele>320</ele>
        <time>2021-09-30T09:59:35Z</time>
      </trkpt>
      <trkpt lat="47.26077" lon="6.04317">
        <ele>320</ele>
        <time>2021-09-30T09:59:36Z</time>
      </trkpt>
      <trkpt lat="47.2608" lon="6.04326">
        <ele>320</ele>
        <time>2021-09-30T09:59:38Z</time>
      </trkpt>
      <trkpt lat="47.26082" lon="6.04332">
        <ele>320</ele>
        <time>2021-09-30T09:59:39Z</time>
      </trkpt>
      <trkpt lat="47.26087" lon="6.04365">
        <ele>320</ele>
        <time>2021-09-30T09:59:45Z</time>
      </trkpt>
      <trkpt lat="47.2609" lon="6.04376">
        <ele>320</ele>
        <time>2021-09-30T09:59:47Z</time>
      </trkpt>
      <trkpt lat="47.26099" lon="6.0442">
        <ele>319.8</ele>
        <time>2021-09-30T09:59:55Z</time>
      </trkpt>
      <trkpt lat="47.26102" lon="6.04431">
        <ele>319.6</ele>
        <time>2021-09-30T09:59:57Z</time>
      </trkpt>
      <trkpt lat="47.2611" lon="6.0447">
        <ele>319.4</ele>
        <time>2021-09-30T10:00:05Z</time>
      </trkpt>
      <trkpt lat="47.2611" lon="6.04475">
        <ele>319.6</ele>
        <time>2021-09-30T10:00:06Z</time>
      </trkpt>
      <trkpt lat="47.26111" lon="6.0448">
        <ele>319.6</ele>
        <time>2021-09-30T10:00:07Z</time>
      </trkpt>
      <trkpt lat="47.26112" lon="6.04485">
        <ele>319.6</ele>
        <time>2021-09-30T10:00:08Z</time>
      </trkpt>
      <trkpt lat="47.26112" lon="6.0449">
        <ele>319.6</ele>
        <time>2021-09-30T10:00:09Z</time>
      </trkpt>
      <trkpt lat="47.26112" lon="6.04494">
        <ele>319.6</ele>
        <time>2021-09-30T10:00:10Z</time>
      </trkpt>
      <trkpt lat="47.26112" lon="6.04503">
        <ele>319.8</ele>
        <time>2021-09-30T10:00:12Z</time>
      </trkpt>
      <trkpt lat="47.26111" lon="6.04507">
        <ele>319.8</ele>
        <time>2021-09-30T10:00:13Z</time>
      </trkpt>
      <trkpt lat="47.26111" lon="6.0451">
        <ele>319.8</ele>
        <time>2021-09-30T10:00:14Z</time>
      </trkpt>
      <trkpt lat="47.26111" lon="6.04514">
        <ele>319.8</ele>
        <time>2021-09-30T10:00:15Z</time>
      </trkpt>
      <trkpt lat="47.26112" lon="6.04517">
        <ele>319.8</ele>
        <time>2021-09-30T10:00:16Z</time>
      </trkpt>
      <trkpt lat="47.26114" lon="6.0452">
        <ele>319.8</ele>
        <time>2021-09-30T10:00:17Z</time>
      </trkpt>
      <trkpt lat="47.26121" lon="6.04526">
        <ele>319.8</ele>
        <time>2021-09-30T10:00:20Z</time>
      </trkpt>
      <trkpt lat="47.26123" lon="6.04528">
        <ele>319.8</ele>
        <time>2021-09-30T10:00:21Z</time>
      </trkpt>
      <trkpt lat="47.26125" lon="6.0453">
        <ele>319.8</ele>
        <time>2021-09-30T10:00:22Z</time>
      </trkpt>
      <trkpt lat="47.26126" lon="6.04532">
        <ele>319.8</ele>
        <time>2021-09-30T10:00:23Z</time>
      </trkpt>
      <trkpt lat="47.26127" lon="6.04534">
        <ele>319.8</ele>
        <time>2021-09-30T10:00:24Z</time>
      </trkpt>
      <trkpt lat="47.26127" lon="6.04537">
        <ele>319.8</ele>
        <time>2021-09-30T10:00:25Z</time>
      </trkpt>
      <trkpt lat="47.26127" lon="6.04539">
        <ele>319.8</ele>
        <time>2021-09-30T10:00:26Z</time>
      </trkpt>
      <trkpt lat="47.26126" lon="6.04542">
        <ele>319.8</ele>
        <time>2021-09-30T10:00:27Z</time>
      </trkpt>
      <trkpt lat="47.26126" lon="6.04545">
        <ele>320</ele>
        <time>2021-09-30T10:00:28Z</time>
      </trkpt>
      <trkpt lat="47.26126" lon="6.04548">
        <ele>320</ele>
        <time>2021-09-30T10:00:29Z</time>
      </trkpt>
      <trkpt lat="47.26126" lon="6.04551">
        <ele>320.2</ele>
        <time>2021-09-30T10:00:30Z</time>
      </trkpt>
      <trkpt lat="47.26126" lon="6.04554">
        <ele>320.2</ele>
        <time>2021-09-30T10:00:31Z</time>
      </trkpt>
      <trkpt lat="47.26125" lon="6.04558">
        <ele>320.4</ele>
        <time>2021-09-30T10:00:32Z</time>
      </trkpt>
      <trkpt lat="47.26124" lon="6.04571">
        <ele>320.4</ele>
        <time>2021-09-30T10:00:35Z</time>
      </trkpt>
      <trkpt lat="47.26121" lon="6.04585">
        <ele>320.4</ele>
        <time>2021-09-30T10:00:38Z</time>
      </trkpt>
      <trkpt lat="47.26118" lon="6.04595">
        <ele>320.4</ele>
        <time>2021-09-30T10:00:40Z</time>
      </trkpt>
      <trkpt lat="47.2611" lon="6.04621">
        <ele>320.2</ele>
        <time>2021-09-30T10:00:46Z</time>
      </trkpt>
      <trkpt lat="47.26108" lon="6.04631">
        <ele>320</ele>
        <time>2021-09-30T10:00:48Z</time>
      </trkpt>
      <trkpt lat="47.26107" lon="6.04636">
        <ele>320</ele>
        <time>2021-09-30T10:00:49Z</time>
      </trkpt>
      <trkpt lat="47.26104" lon="6.04659">
        <ele>319.8</ele>
        <time>2021-09-30T10:00:53Z</time>
      </trkpt>
      <trkpt lat="47.26103" lon="6.04682">
        <ele>319.8</ele>
        <time>2021-09-30T10:00:57Z</time>
      </trkpt>
      <trkpt lat="47.26103" lon="6.04688">
        <ele>319.8</ele>
        <time>2021-09-30T10:00:58Z</time>
      </trkpt>
      <trkpt lat="47.26103" lon="6.04693">
        <ele>319.8</ele>
        <time>2021-09-30T10:00:59Z</time>
      </trkpt>
      <trkpt lat="47.26103" lon="6.04698">
        <ele>319.8</ele>
        <time>2021-09-30T10:01:00Z</time>
      </trkpt>
      <trkpt lat="47.26102" lon="6.04707">
        <ele>319.6</ele>
        <time>2021-09-30T10:01:02Z</time>
      </trkpt>
      <trkpt lat="47.26101" lon="6.04709">
        <ele>319.6</ele>
        <time>2021-09-30T10:01:03Z</time>
      </trkpt>
      <trkpt lat="47.26101" lon="6.04712">
        <ele>319.6</ele>
        <time>2021-09-30T10:01:04Z</time>
      </trkpt>
      <trkpt lat="47.26101" lon="6.04715">
        <ele>319.6</ele>
        <time>2021-09-30T10:01:05Z</time>
      </trkpt>
      <trkpt lat="47.26104" lon="6.04723">
        <ele>319.6</ele>
        <time>2021-09-30T10:01:07Z</time>
      </trkpt>
      <trkpt lat="47.26106" lon="6.04727">
        <ele>319.6</ele>
        <time>2021-09-30T10:01:08Z</time>
      </trkpt>
      <trkpt lat="47.26108" lon="6.04729">
        <ele>319.4</ele>
        <time>2021-09-30T10:01:09Z</time>
      </trkpt>
      <trkpt lat="47.26111" lon="6.04733">
        <ele>319.4</ele>
        <time>2021-09-30T10:01:10Z</time>
      </trkpt>
      <trkpt lat="47.26113" lon="6.04736">
        <ele>319.2</ele>
        <time>2021-09-30T10:01:11Z</time>
      </trkpt>
      <trkpt lat="47.26128" lon="6.04757">
        <ele>319.2</ele>
        <time>2021-09-30T10:01:18Z</time>
      </trkpt>
      <trkpt lat="47.26132" lon="6.04762">
        <ele>319.2</ele>
        <time>2021-09-30T10:01:20Z</time>
      </trkpt>
      <trkpt lat="47.26134" lon="6.04765">
        <ele>319.2</ele>
        <time>2021-09-30T10:01:21Z</time>
      </trkpt>
      <trkpt lat="47.26136" lon="6.04767">
        <ele>319.4</ele>
        <time>2021-09-30T10:01:22Z</time>
      </trkpt>
      <trkpt lat="47.26137" lon="6.04769">
        <ele>319.4</ele>
        <time>2021-09-30T10:01:23Z</time>
      </trkpt>
      <trkpt lat="47.26139" lon="6.04772">
        <ele>319.4</ele>
        <time>2021-09-30T10:01:24Z</time>
      </trkpt>
      <trkpt lat="47.26141" lon="6.04775">
        <ele>319.6</ele>
        <time>2021-09-30T10:01:25Z</time>
      </trkpt>
      <trkpt lat="47.26143" lon="6.04778">
        <ele>319.6</ele>
        <time>2021-09-30T10:01:26Z</time>
      </trkpt>
      <trkpt lat="47.26145" lon="6.04781">
        <ele>319.6</ele>
        <time>2021-09-30T10:01:27Z</time>
      </trkpt>
      <trkpt lat="47.26152" lon="6.04791">
        <ele>320</ele>
        <time>2021-09-30T10:01:30Z</time>
      </trkpt>
      <trkpt lat="47.26155" lon="6.04794">
        <ele>320</ele>
        <time>2021-09-30T10:01:31Z</time>
      </trkpt>
      <trkpt lat="47.26172" lon="6.0482">
        <ele>320.2</ele>
        <time>2021-09-30T10:01:38Z</time>
      </trkpt>
      <trkpt lat="47.26187" lon="6.04849">
        <ele>320.2</ele>
        <time>2021-09-30T10:01:45Z</time>
      </trkpt>
      <trkpt lat="47.26188" lon="6.04854">
        <ele>320.2</ele>
        <time>2021-09-30T10:01:46Z</time>
      </trkpt>
      <trkpt lat="47.26188" lon="6.04859">
        <ele>320.4</ele>
        <time>2021-09-30T10:01:47Z</time>
      </trkpt>
      <trkpt lat="47.26187" lon="6.04863">
        <ele>320.4</ele>
        <time>2021-09-30T10:01:48Z</time>
      </trkpt>
      <trkpt lat="47.26184" lon="6.04867">
        <ele>320.4</ele>
        <time>2021-09-30T10:01:49Z</time>
      </trkpt>
      <trkpt lat="47.26182" lon="6.04872">
        <ele>320.4</ele>
        <time>2021-09-30T10:01:50Z</time>
      </trkpt>
      <trkpt lat="47.26179" lon="6.04876">
        <ele>320.4</ele>
        <time>2021-09-30T10:01:51Z</time>
      </trkpt>
      <trkpt lat="47.26176" lon="6.04879">
        <ele>320.4</ele>
        <time>2021-09-30T10:01:52Z</time>
      </trkpt>
      <trkpt lat="47.26174" lon="6.04883">
        <ele>320.4</ele>
        <time>2021-09-30T10:01:53Z</time>
      </trkpt>
      <trkpt lat="47.26172" lon="6.04886">
        <ele>320.4</ele>
        <time>2021-09-30T10:01:54Z</time>
      </trkpt>
      <trkpt lat="47.2617" lon="6.04889">
        <ele>320.2</ele>
        <time>2021-09-30T10:01:55Z</time>
      </trkpt>
      <trkpt lat="47.26169" lon="6.04891">
        <ele>320</ele>
        <time>2021-09-30T10:01:56Z</time>
      </trkpt>
      <trkpt lat="47.26168" lon="6.04892">
        <ele>320</ele>
        <time>2021-09-30T10:01:57Z</time>
      </trkpt>
      <trkpt lat="47.26167" lon="6.04893">
        <ele>319.8</ele>
        <time>2021-09-30T10:01:58Z</time>
      </trkpt>
      <trkpt lat="47.26166" lon="6.04894">
        <ele>319.8</ele>
        <time>2021-09-30T10:01:59Z</time>
      </trkpt>
      <trkpt lat="47.26166" lon="6.04894">
        <ele>319.6</ele>
        <time>2021-09-30T10:02:01Z</time>
      </trkpt>
      <trkpt lat="47.26163" lon="6.04899">
        <ele>319.2</ele>
        <time>2021-09-30T10:02:06Z</time>
      </trkpt>
      <trkpt lat="47.26162" lon="6.04902">
        <ele>319.2</ele>
        <time>2021-09-30T10:02:07Z</time>
      </trkpt>
      <trkpt lat="47.26162" lon="6.04907">
        <ele>319.2</ele>
        <time>2021-09-30T10:02:08Z</time>
      </trkpt>
      <trkpt lat="47.26167" lon="6.04915">
        <ele>319</ele>
        <time>2021-09-30T10:02:10Z</time>
      </trkpt>
      <trkpt lat="47.26182" lon="6.04933">
        <ele>319</ele>
        <time>2021-09-30T10:02:15Z</time>
      </trkpt>
      <trkpt lat="47.26184" lon="6.04936">
        <ele>319</ele>
        <time>2021-09-30T10:02:16Z</time>
      </trkpt>
      <trkpt lat="47.26193" lon="6.04963">
        <ele>319.2</ele>
        <time>2021-09-30T10:02:21Z</time>
      </trkpt>
      <trkpt lat="47.26194" lon="6.04968">
        <ele>319.4</ele>
        <time>2021-09-30T10:02:22Z</time>
      </trkpt>
      <trkpt lat="47.26198" lon="6.04987">
        <ele>319.8</ele>
        <time>2021-09-30T10:02:25Z</time>
      </trkpt>
      <trkpt lat="47.26197" lon="6.04991">
        <ele>319.8</ele>
        <time>2021-09-30T10:02:26Z</time>
      </trkpt>
      <trkpt lat="47.26196" lon="6.04997">
        <ele>319.8</ele>
        <time>2021-09-30T10:02:27Z</time>
      </trkpt>
      <trkpt lat="47.26196" lon="6.05004">
        <ele>319.8</ele>
        <time>2021-09-30T10:02:28Z</time>
      </trkpt>
      <trkpt lat="47.26195" lon="6.05012">
        <ele>320</ele>
        <time>2021-09-30T10:02:29Z</time>
      </trkpt>
      <trkpt lat="47.26197" lon="6.05023">
        <ele>319.8</ele>
        <time>2021-09-30T10:02:31Z</time>
      </trkpt>
      <trkpt lat="47.26198" lon="6.0503">
        <ele>319.8</ele>
        <time>2021-09-30T10:02:32Z</time>
      </trkpt>
      <trkpt lat="47.262" lon="6.05037">
        <ele>319.8</ele>
        <time>2021-09-30T10:02:33Z</time>
      </trkpt>
      <trkpt lat="47.26208" lon="6.05087">
        <ele>319.6</ele>
        <time>2021-09-30T10:02:40Z</time>
      </trkpt>
      <trkpt lat="47.26214" lon="6.05127">
        <ele>319.2</ele>
        <time>2021-09-30T10:02:45Z</time>
      </trkpt>
      <trkpt lat="47.26216" lon="6.05141">
        <ele>319</ele>
        <time>2021-09-30T10:02:47Z</time>
      </trkpt>
      <trkpt lat="47.26218" lon="6.05151">
        <ele>318.6</ele>
        <time>2021-09-30T10:02:48Z</time>
      </trkpt>
      <trkpt lat="47.26225" lon="6.05182">
        <ele>318</ele>
        <time>2021-09-30T10:02:52Z</time>
      </trkpt>
      <trkpt lat="47.26232" lon="6.05197">
        <ele>317.8</ele>
        <time>2021-09-30T10:02:54Z</time>
      </trkpt>
      <trkpt lat="47.26239" lon="6.0521">
        <ele>317.6</ele>
        <time>2021-09-30T10:02:56Z</time>
      </trkpt>
      <trkpt lat="47.26262" lon="6.05253">
        <ele>316</ele>
        <time>2021-09-30T10:03:01Z</time>
      </trkpt>
      <trkpt lat="47.2628" lon="6.05292">
        <ele>314.6</ele>
        <time>2021-09-30T10:03:05Z</time>
      </trkpt>
      <trkpt lat="47.26284" lon="6.05303">
        <ele>314.2</ele>
        <time>2021-09-30T10:03:06Z</time>
      </trkpt>
      <trkpt lat="47.26292" lon="6.05329">
        <ele>313</ele>
        <time>2021-09-30T10:03:08Z</time>
      </trkpt>
      <trkpt lat="47.26298" lon="6.05352">
        <ele>312.2</ele>
        <time>2021-09-30T10:03:10Z</time>
      </trkpt>
      <trkpt lat="47.26301" lon="6.05368">
        <ele>311.8</ele>
        <time>2021-09-30T10:03:11Z</time>
      </trkpt>
      <trkpt lat="47.26306" lon="6.05395">
        <ele>310.4</ele>
        <time>2021-09-30T10:03:13Z</time>
      </trkpt>
      <trkpt lat="47.26307" lon="6.05406">
        <ele>309</ele>
        <time>2021-09-30T10:03:14Z</time>
      </trkpt>
      <trkpt lat="47.26308" lon="6.0542">
        <ele>308.2</ele>
        <time>2021-09-30T10:03:15Z</time>
      </trkpt>
      <trkpt lat="47.26307" lon="6.05437">
        <ele>307.6</ele>
        <time>2021-09-30T10:03:16Z</time>
      </trkpt>
      <trkpt lat="47.26307" lon="6.05451">
        <ele>306.2</ele>
        <time>2021-09-30T10:03:17Z</time>
      </trkpt>
      <trkpt lat="47.2631" lon="6.05476">
        <ele>305</ele>
        <time>2021-09-30T10:03:19Z</time>
      </trkpt>
      <trkpt lat="47.26313" lon="6.05506">
        <ele>304</ele>
        <time>2021-09-30T10:03:21Z</time>
      </trkpt>
      <trkpt lat="47.26316" lon="6.05528">
        <ele>302.6</ele>
        <time>2021-09-30T10:03:23Z</time>
      </trkpt>
      <trkpt lat="47.26316" lon="6.0554">
        <ele>301.8</ele>
        <time>2021-09-30T10:03:24Z</time>
      </trkpt>
      <trkpt lat="47.26316" lon="6.0555">
        <ele>301.4</ele>
        <time>2021-09-30T10:03:25Z</time>
      </trkpt>
      <trkpt lat="47.26315" lon="6.05559">
        <ele>301</ele>
        <time>2021-09-30T10:03:26Z</time>
      </trkpt>
      <trkpt lat="47.26315" lon="6.05568">
        <ele>300.8</ele>
        <time>2021-09-30T10:03:27Z</time>
      </trkpt>
      <trkpt lat="47.26315" lon="6.05573">
        <ele>300.2</ele>
        <time>2021-09-30T10:03:28Z</time>
      </trkpt>
      <trkpt lat="47.26315" lon="6.05578">
        <ele>300</ele>
        <time>2021-09-30T10:03:29Z</time>
      </trkpt>
      <trkpt lat="47.26313" lon="6.05582">
        <ele>299.6</ele>
        <time>2021-09-30T10:03:30Z</time>
      </trkpt>
      <trkpt lat="47.26309" lon="6.05584">
        <ele>299.4</ele>
        <time>2021-09-30T10:03:31Z</time>
      </trkpt>
      <trkpt lat="47.26305" lon="6.05586">
        <ele>299.2</ele>
        <time>2021-09-30T10:03:32Z</time>
      </trkpt>
      <trkpt lat="47.26297" lon="6.0559">
        <ele>298.8</ele>
        <time>2021-09-30T10:03:34Z</time>
      </trkpt>
      <trkpt lat="47.26293" lon="6.05592">
        <ele>298.6</ele>
        <time>2021-09-30T10:03:35Z</time>
      </trkpt>
      <trkpt lat="47.26278" lon="6.05601">
        <ele>298.4</ele>
        <time>2021-09-30T10:03:38Z</time>
      </trkpt>
      <trkpt lat="47.26275" lon="6.05605">
        <ele>298.2</ele>
        <time>2021-09-30T10:03:39Z</time>
      </trkpt>
      <trkpt lat="47.26273" lon="6.05611">
        <ele>298.2</ele>
        <time>2021-09-30T10:03:40Z</time>
      </trkpt>
      <trkpt lat="47.26272" lon="6.05619">
        <ele>298</ele>
        <time>2021-09-30T10:03:41Z</time>
      </trkpt>
      <trkpt lat="47.26273" lon="6.05625">
        <ele>297.8</ele>
        <time>2021-09-30T10:03:42Z</time>
      </trkpt>
      <trkpt lat="47.26273" lon="6.05632">
        <ele>297.8</ele>
        <time>2021-09-30T10:03:43Z</time>
      </trkpt>
      <trkpt lat="47.26274" lon="6.05637">
        <ele>297.6</ele>
        <time>2021-09-30T10:03:44Z</time>
      </trkpt>
      <trkpt lat="47.26274" lon="6.05643">
        <ele>297.6</ele>
        <time>2021-09-30T10:03:45Z</time>
      </trkpt>
      <trkpt lat="47.26275" lon="6.05656">
        <ele>297.6</ele>
        <time>2021-09-30T10:03:47Z</time>
      </trkpt>
      <trkpt lat="47.26276" lon="6.05661">
        <ele>297.6</ele>
        <time>2021-09-30T10:03:48Z</time>
      </trkpt>
      <trkpt lat="47.26275" lon="6.05666">
        <ele>297.6</ele>
        <time>2021-09-30T10:03:49Z</time>
      </trkpt>
      <trkpt lat="47.26274" lon="6.05673">
        <ele>297.6</ele>
        <time>2021-09-30T10:03:50Z</time>
      </trkpt>
      <trkpt lat="47.26273" lon="6.05678">
        <ele>297.6</ele>
        <time>2021-09-30T10:03:51Z</time>
      </trkpt>
      <trkpt lat="47.26273" lon="6.05684">
        <ele>297.6</ele>
        <time>2021-09-30T10:03:52Z</time>
      </trkpt>
      <trkpt lat="47.26273" lon="6.05689">
        <ele>297.6</ele>
        <time>2021-09-30T10:03:53Z</time>
      </trkpt>
      <trkpt lat="47.26273" lon="6.05703">
        <ele>297.6</ele>
        <time>2021-09-30T10:03:55Z</time>
      </trkpt>
      <trkpt lat="47.26278" lon="6.05746">
        <ele>297.2</ele>
        <time>2021-09-30T10:04:01Z</time>
      </trkpt>
      <trkpt lat="47.26279" lon="6.05759">
        <ele>297</ele>
        <time>2021-09-30T10:04:03Z</time>
      </trkpt>
      <trkpt lat="47.26279" lon="6.05766">
        <ele>296.8</ele>
        <time>2021-09-30T10:04:04Z</time>
      </trkpt>
      <trkpt lat="47.26278" lon="6.05797">
        <ele>296.4</ele>
        <time>2021-09-30T10:04:08Z</time>
      </trkpt>
      <trkpt lat="47.26277" lon="6.05805">
        <ele>296.4</ele>
        <time>2021-09-30T10:04:09Z</time>
      </trkpt>
      <trkpt lat="47.26273" lon="6.05823">
        <ele>295.8</ele>
        <time>2021-09-30T10:04:11Z</time>
      </trkpt>
      <trkpt lat="47.2627" lon="6.05831">
        <ele>295.8</ele>
        <time>2021-09-30T10:04:12Z</time>
      </trkpt>
      <trkpt lat="47.26248" lon="6.05867">
        <ele>294.4</ele>
        <time>2021-09-30T10:04:17Z</time>
      </trkpt>
      <trkpt lat="47.26244" lon="6.05875">
        <ele>294.4</ele>
        <time>2021-09-30T10:04:18Z</time>
      </trkpt>
      <trkpt lat="47.26238" lon="6.05886">
        <ele>294</ele>
        <time>2021-09-30T10:04:19Z</time>
      </trkpt>
      <trkpt lat="47.26235" lon="6.05896">
        <ele>293.4</ele>
        <time>2021-09-30T10:04:20Z</time>
      </trkpt>
      <trkpt lat="47.26233" lon="6.05907">
        <ele>293.2</ele>
        <time>2021-09-30T10:04:21Z</time>
      </trkpt>
      <trkpt lat="47.26232" lon="6.05916">
        <ele>292.4</ele>
        <time>2021-09-30T10:04:22Z</time>
      </trkpt>
      <trkpt lat="47.26231" lon="6.05928">
        <ele>292.2</ele>
        <time>2021-09-30T10:04:23Z</time>
      </trkpt>
      <trkpt lat="47.26232" lon="6.05942">
        <ele>291.8</ele>
        <time>2021-09-30T10:04:24Z</time>
      </trkpt>
      <trkpt lat="47.26234" lon="6.05954">
        <ele>291.6</ele>
        <time>2021-09-30T10:04:25Z</time>
      </trkpt>
      <trkpt lat="47.26235" lon="6.05966">
        <ele>290.8</ele>
        <time>2021-09-30T10:04:26Z</time>
      </trkpt>
      <trkpt lat="47.26238" lon="6.05989">
        <ele>289.6</ele>
        <time>2021-09-30T10:04:28Z</time>
      </trkpt>
      <trkpt lat="47.26242" lon="6.06014">
        <ele>288.6</ele>
        <time>2021-09-30T10:04:30Z</time>
      </trkpt>
      <trkpt lat="47.26243" lon="6.06027">
        <ele>287.6</ele>
        <time>2021-09-30T10:04:31Z</time>
      </trkpt>
      <trkpt lat="47.26245" lon="6.0604">
        <ele>287.2</ele>
        <time>2021-09-30T10:04:32Z</time>
      </trkpt>
      <trkpt lat="47.26249" lon="6.06064">
        <ele>286.4</ele>
        <time>2021-09-30T10:04:34Z</time>
      </trkpt>
      <trkpt lat="47.26251" lon="6.06075">
        <ele>285.4</ele>
        <time>2021-09-30T10:04:35Z</time>
      </trkpt>
      <trkpt lat="47.26253" lon="6.06083">
        <ele>285</ele>
        <time>2021-09-30T10:04:36Z</time>
      </trkpt>
      <trkpt lat="47.26254" lon="6.06091">
        <ele>284</ele>
        <time>2021-09-30T10:04:37Z</time>
      </trkpt>
      <trkpt lat="47.26253" lon="6.06098">
        <ele>283</ele>
        <time>2021-09-30T10:04:38Z</time>
      </trkpt>
      <trkpt lat="47.26251" lon="6.06106">
        <ele>282.6</ele>
        <time>2021-09-30T10:04:39Z</time>
      </trkpt>
      <trkpt lat="47.26249" lon="6.06112">
        <ele>282.2</ele>
        <time>2021-09-30T10:04:40Z</time>
      </trkpt>
      <trkpt lat="47.26249" lon="6.0612">
        <ele>282.2</ele>
        <time>2021-09-30T10:04:41Z</time>
      </trkpt>
      <trkpt lat="47.26249" lon="6.06127">
        <ele>281.6</ele>
        <time>2021-09-30T10:04:42Z</time>
      </trkpt>
      <trkpt lat="47.2625" lon="6.06134">
        <ele>281.6</ele>
        <time>2021-09-30T10:04:43Z</time>
      </trkpt>
      <trkpt lat="47.26252" lon="6.06141">
        <ele>281.4</ele>
        <time>2021-09-30T10:04:44Z</time>
      </trkpt>
      <trkpt lat="47.26254" lon="6.06144">
        <ele>281.4</ele>
        <time>2021-09-30T10:04:45Z</time>
      </trkpt>
      <trkpt lat="47.26256" lon="6.06148">
        <ele>281.4</ele>
        <time>2021-09-30T10:04:46Z</time>
      </trkpt>
      <trkpt lat="47.26259" lon="6.06151">
        <ele>281.2</ele>
        <time>2021-09-30T10:04:47Z</time>
      </trkpt>
      <trkpt lat="47.26261" lon="6.06154">
        <ele>281.2</ele>
        <time>2021-09-30T10:04:48Z</time>
      </trkpt>
      <trkpt lat="47.26264" lon="6.06158">
        <ele>281</ele>
        <time>2021-09-30T10:04:49Z</time>
      </trkpt>
      <trkpt lat="47.26274" lon="6.06165">
        <ele>280.8</ele>
        <time>2021-09-30T10:04:52Z</time>
      </trkpt>
      <trkpt lat="47.26286" lon="6.06172">
        <ele>280.4</ele>
        <time>2021-09-30T10:04:55Z</time>
      </trkpt>
      <trkpt lat="47.26289" lon="6.06176">
        <ele>280.4</ele>
        <time>2021-09-30T10:04:56Z</time>
      </trkpt>
      <trkpt lat="47.26291" lon="6.0618">
        <ele>280.4</ele>
        <time>2021-09-30T10:04:57Z</time>
      </trkpt>
      <trkpt lat="47.26294" lon="6.06185">
        <ele>280.4</ele>
        <time>2021-09-30T10:04:58Z</time>
      </trkpt>
      <trkpt lat="47.26296" lon="6.0619">
        <ele>280.2</ele>
        <time>2021-09-30T10:04:59Z</time>
      </trkpt>
      <trkpt lat="47.26297" lon="6.06194">
        <ele>280.2</ele>
        <time>2021-09-30T10:05:00Z</time>
      </trkpt>
      <trkpt lat="47.26297" lon="6.06199">
        <ele>280.2</ele>
        <time>2021-09-30T10:05:01Z</time>
      </trkpt>
      <trkpt lat="47.26301" lon="6.06211">
        <ele>279.6</ele>
        <time>2021-09-30T10:05:04Z</time>
      </trkpt>
      <trkpt lat="47.26303" lon="6.06213">
        <ele>279.4</ele>
        <time>2021-09-30T10:05:05Z</time>
      </trkpt>
      <trkpt lat="47.26306" lon="6.06215">
        <ele>279</ele>
        <time>2021-09-30T10:05:06Z</time>
      </trkpt>
      <trkpt lat="47.26307" lon="6.06217">
        <ele>278.8</ele>
        <time>2021-09-30T10:05:07Z</time>
      </trkpt>
      <trkpt lat="47.26307" lon="6.06217">
        <ele>278.6</ele>
        <time>2021-09-30T10:05:08Z</time>
      </trkpt>
      <trkpt lat="47.26307" lon="6.06217">
        <ele>278.2</ele>
        <time>2021-09-30T10:05:09Z</time>
      </trkpt>
      <trkpt lat="47.26311" lon="6.06221">
        <ele>277.6</ele>
        <time>2021-09-30T10:05:13Z</time>
      </trkpt>
      <trkpt lat="47.26312" lon="6.06226">
        <ele>277.6</ele>
        <time>2021-09-30T10:05:14Z</time>
      </trkpt>
      <trkpt lat="47.26314" lon="6.06231">
        <ele>277.4</ele>
        <time>2021-09-30T10:05:15Z</time>
      </trkpt>
      <trkpt lat="47.26316" lon="6.06237">
        <ele>277.2</ele>
        <time>2021-09-30T10:05:16Z</time>
      </trkpt>
      <trkpt lat="47.26317" lon="6.06244">
        <ele>277.2</ele>
        <time>2021-09-30T10:05:17Z</time>
      </trkpt>
      <trkpt lat="47.26318" lon="6.06251">
        <ele>277</ele>
        <time>2021-09-30T10:05:18Z</time>
      </trkpt>
      <trkpt lat="47.26325" lon="6.06285">
        <ele>276.4</ele>
        <time>2021-09-30T10:05:22Z</time>
      </trkpt>
      <trkpt lat="47.26327" lon="6.06294">
        <ele>276.2</ele>
        <time>2021-09-30T10:05:23Z</time>
      </trkpt>
      <trkpt lat="47.26328" lon="6.06303">
        <ele>276</ele>
        <time>2021-09-30T10:05:24Z</time>
      </trkpt>
      <trkpt lat="47.2633" lon="6.06312">
        <ele>275.8</ele>
        <time>2021-09-30T10:05:25Z</time>
      </trkpt>
      <trkpt lat="47.26337" lon="6.06349">
        <ele>274.8</ele>
        <time>2021-09-30T10:05:29Z</time>
      </trkpt>
      <trkpt lat="47.26347" lon="6.06402">
        <ele>273.6</ele>
        <time>2021-09-30T10:05:34Z</time>
      </trkpt>
      <trkpt lat="47.26355" lon="6.06447">
        <ele>272.6</ele>
        <time>2021-09-30T10:05:38Z</time>
      </trkpt>
      <trkpt lat="47.26356" lon="6.06458">
        <ele>272.4</ele>
        <time>2021-09-30T10:05:39Z</time>
      </trkpt>
      <trkpt lat="47.26356" lon="6.06467">
        <ele>272</ele>
        <time>2021-09-30T10:05:40Z</time>
      </trkpt>
      <trkpt lat="47.26356" lon="6.06477">
        <ele>271.8</ele>
        <time>2021-09-30T10:05:41Z</time>
      </trkpt>
      <trkpt lat="47.26357" lon="6.06486">
        <ele>271.4</ele>
        <time>2021-09-30T10:05:42Z</time>
      </trkpt>
      <trkpt lat="47.2636" lon="6.06494">
        <ele>270.6</ele>
        <time>2021-09-30T10:05:43Z</time>
      </trkpt>
      <trkpt lat="47.26363" lon="6.06503">
        <ele>270.2</ele>
        <time>2021-09-30T10:05:44Z</time>
      </trkpt>
      <trkpt lat="47.26369" lon="6.06531">
        <ele>268.6</ele>
        <time>2021-09-30T10:05:47Z</time>
      </trkpt>
      <trkpt lat="47.26371" lon="6.06541">
        <ele>268.2</ele>
        <time>2021-09-30T10:05:48Z</time>
      </trkpt>
      <trkpt lat="47.26377" lon="6.06573">
        <ele>267.6</ele>
        <time>2021-09-30T10:05:51Z</time>
      </trkpt>
      <trkpt lat="47.26381" lon="6.06589">
        <ele>266.8</ele>
        <time>2021-09-30T10:05:53Z</time>
      </trkpt>
      <trkpt lat="47.26382" lon="6.06595">
        <ele>265.6</ele>
        <time>2021-09-30T10:05:54Z</time>
      </trkpt>
      <trkpt lat="47.26382" lon="6.06598">
        <ele>265</ele>
        <time>2021-09-30T10:05:55Z</time>
      </trkpt>
      <trkpt lat="47.26382" lon="6.06601">
        <ele>264.8</ele>
        <time>2021-09-30T10:05:56Z</time>
      </trkpt>
      <trkpt lat="47.26382" lon="6.06604">
        <ele>264.4</ele>
        <time>2021-09-30T10:05:57Z</time>
      </trkpt>
      <trkpt lat="47.26382" lon="6.06607">
        <ele>263.6</ele>
        <time>2021-09-30T10:05:58Z</time>
      </trkpt>
      <trkpt lat="47.26382" lon="6.06613">
        <ele>263.4</ele>
        <time>2021-09-30T10:05:59Z</time>
      </trkpt>
      <trkpt lat="47.26382" lon="6.06618">
        <ele>263</ele>
        <time>2021-09-30T10:06:00Z</time>
      </trkpt>
      <trkpt lat="47.26382" lon="6.06625">
        <ele>263</ele>
        <time>2021-09-30T10:06:01Z</time>
      </trkpt>
      <trkpt lat="47.26379" lon="6.06638">
        <ele>262.2</ele>
        <time>2021-09-30T10:06:03Z</time>
      </trkpt>
      <trkpt lat="47.26378" lon="6.06644">
        <ele>261.8</ele>
        <time>2021-09-30T10:06:04Z</time>
      </trkpt>
      <trkpt lat="47.26376" lon="6.06651">
        <ele>261.6</ele>
        <time>2021-09-30T10:06:05Z</time>
      </trkpt>
      <trkpt lat="47.26376" lon="6.06657">
        <ele>261.2</ele>
        <time>2021-09-30T10:06:06Z</time>
      </trkpt>
      <trkpt lat="47.26378" lon="6.06663">
        <ele>261</ele>
        <time>2021-09-30T10:06:07Z</time>
      </trkpt>
      <trkpt lat="47.26381" lon="6.06668">
        <ele>260.8</ele>
        <time>2021-09-30T10:06:08Z</time>
      </trkpt>
      <trkpt lat="47.26383" lon="6.06675">
        <ele>260.4</ele>
        <time>2021-09-30T10:06:09Z</time>
      </trkpt>
      <trkpt lat="47.26382" lon="6.06689">
        <ele>259.8</ele>
        <time>2021-09-30T10:06:11Z</time>
      </trkpt>
      <trkpt lat="47.2638" lon="6.06697">
        <ele>259.2</ele>
        <time>2021-09-30T10:06:12Z</time>
      </trkpt>
      <trkpt lat="47.26375" lon="6.06713">
        <ele>259.2</ele>
        <time>2021-09-30T10:06:14Z</time>
      </trkpt>
      <trkpt lat="47.26372" lon="6.06721">
        <ele>259.2</ele>
        <time>2021-09-30T10:06:15Z</time>
      </trkpt>
      <trkpt lat="47.26369" lon="6.06729">
        <ele>258.6</ele>
        <time>2021-09-30T10:06:16Z</time>
      </trkpt>
      <trkpt lat="47.26364" lon="6.06742">
        <ele>258.4</ele>
        <time>2021-09-30T10:06:18Z</time>
      </trkpt>
      <trkpt lat="47.26363" lon="6.06748">
        <ele>258.2</ele>
        <time>2021-09-30T10:06:19Z</time>
      </trkpt>
      <trkpt lat="47.26363" lon="6.06753">
        <ele>257.8</ele>
        <time>2021-09-30T10:06:20Z</time>
      </trkpt>
      <trkpt lat="47.26365" lon="6.06756">
        <ele>257.6</ele>
        <time>2021-09-30T10:06:21Z</time>
      </trkpt>
      <trkpt lat="47.26368" lon="6.06759">
        <ele>257.2</ele>
        <time>2021-09-30T10:06:22Z</time>
      </trkpt>
      <trkpt lat="47.26372" lon="6.06761">
        <ele>257</ele>
        <time>2021-09-30T10:06:23Z</time>
      </trkpt>
      <trkpt lat="47.26375" lon="6.06764">
        <ele>256.6</ele>
        <time>2021-09-30T10:06:24Z</time>
      </trkpt>
      <trkpt lat="47.26379" lon="6.06766">
        <ele>256.6</ele>
        <time>2021-09-30T10:06:25Z</time>
      </trkpt>
      <trkpt lat="47.26383" lon="6.0677">
        <ele>256.6</ele>
        <time>2021-09-30T10:06:26Z</time>
      </trkpt>
      <trkpt lat="47.26387" lon="6.06773">
        <ele>256</ele>
        <time>2021-09-30T10:06:27Z</time>
      </trkpt>
      <trkpt lat="47.26391" lon="6.06777">
        <ele>256</ele>
        <time>2021-09-30T10:06:28Z</time>
      </trkpt>
      <trkpt lat="47.26416" lon="6.06793">
        <ele>255.2</ele>
        <time>2021-09-30T10:06:33Z</time>
      </trkpt>
      <trkpt lat="47.26426" lon="6.06799">
        <ele>254.6</ele>
        <time>2021-09-30T10:06:35Z</time>
      </trkpt>
      <trkpt lat="47.26431" lon="6.06802">
        <ele>254.4</ele>
        <time>2021-09-30T10:06:36Z</time>
      </trkpt>
      <trkpt lat="47.2644" lon="6.06808">
        <ele>254</ele>
        <time>2021-09-30T10:06:38Z</time>
      </trkpt>
      <trkpt lat="47.26444" lon="6.06811">
        <ele>253.4</ele>
        <time>2021-09-30T10:06:39Z</time>
      </trkpt>
      <trkpt lat="47.26449" lon="6.06813">
        <ele>253.4</ele>
        <time>2021-09-30T10:06:40Z</time>
      </trkpt>
      <trkpt lat="47.26453" lon="6.06816">
        <ele>253.4</ele>
        <time>2021-09-30T10:06:41Z</time>
      </trkpt>
      <trkpt lat="47.26463" lon="6.06823">
        <ele>253.2</ele>
        <time>2021-09-30T10:06:43Z</time>
      </trkpt>
      <trkpt lat="47.26474" lon="6.06835">
        <ele>253.2</ele>
        <time>2021-09-30T10:06:45Z</time>
      </trkpt>
      <trkpt lat="47.26483" lon="6.06848">
        <ele>252.6</ele>
        <time>2021-09-30T10:06:47Z</time>
      </trkpt>
      <trkpt lat="47.26492" lon="6.06859">
        <ele>252.4</ele>
        <time>2021-09-30T10:06:49Z</time>
      </trkpt>
      <trkpt lat="47.26496" lon="6.06865">
        <ele>252</ele>
        <time>2021-09-30T10:06:50Z</time>
      </trkpt>
      <trkpt lat="47.26501" lon="6.06871">
        <ele>251.8</ele>
        <time>2021-09-30T10:06:51Z</time>
      </trkpt>
      <trkpt lat="47.26505" lon="6.06878">
        <ele>251.4</ele>
        <time>2021-09-30T10:06:52Z</time>
      </trkpt>
      <trkpt lat="47.26524" lon="6.06916">
        <ele>250.8</ele>
        <time>2021-09-30T10:06:57Z</time>
      </trkpt>
      <trkpt lat="47.26527" lon="6.06924">
        <ele>250.8</ele>
        <time>2021-09-30T10:06:58Z</time>
      </trkpt>
      <trkpt lat="47.2653" lon="6.06933">
        <ele>250.4</ele>
        <time>2021-09-30T10:06:59Z</time>
      </trkpt>
      <trkpt lat="47.26532" lon="6.06939">
        <ele>250.4</ele>
        <time>2021-09-30T10:07:00Z</time>
      </trkpt>
      <trkpt lat="47.26535" lon="6.06947">
        <ele>250</ele>
        <time>2021-09-30T10:07:01Z</time>
      </trkpt>
      <trkpt lat="47.26542" lon="6.06964">
        <ele>249.4</ele>
        <time>2021-09-30T10:07:03Z</time>
      </trkpt>
      <trkpt lat="47.26545" lon="6.06974">
        <ele>249.4</ele>
        <time>2021-09-30T10:07:04Z</time>
      </trkpt>
      <trkpt lat="47.26559" lon="6.0701">
        <ele>248.8</ele>
        <time>2021-09-30T10:07:08Z</time>
      </trkpt>
      <trkpt lat="47.26562" lon="6.07019">
        <ele>248.6</ele>
        <time>2021-09-30T10:07:09Z</time>
      </trkpt>
      <trkpt lat="47.26565" lon="6.07028">
        <ele>248.2</ele>
        <time>2021-09-30T10:07:10Z</time>
      </trkpt>
      <trkpt lat="47.2658" lon="6.07071">
        <ele>248</ele>
        <time>2021-09-30T10:07:15Z</time>
      </trkpt>
      <trkpt lat="47.26582" lon="6.07078">
        <ele>247.6</ele>
        <time>2021-09-30T10:07:16Z</time>
      </trkpt>
      <trkpt lat="47.26584" lon="6.07084">
        <ele>247.6</ele>
        <time>2021-09-30T10:07:17Z</time>
      </trkpt>
      <trkpt lat="47.26585" lon="6.07088">
        <ele>247.6</ele>
        <time>2021-09-30T10:07:18Z</time>
      </trkpt>
      <trkpt lat="47.26585" lon="6.07092">
        <ele>247.6</ele>
        <time>2021-09-30T10:07:19Z</time>
      </trkpt>
      <trkpt lat="47.26584" lon="6.07094">
        <ele>247.6</ele>
        <time>2021-09-30T10:07:20Z</time>
      </trkpt>
      <trkpt lat="47.26582" lon="6.07095">
        <ele>247.6</ele>
        <time>2021-09-30T10:07:21Z</time>
      </trkpt>
      <trkpt lat="47.26582" lon="6.07096">
        <ele>247.6</ele>
        <time>2021-09-30T10:07:22Z</time>
      </trkpt>
      <trkpt lat="47.26582" lon="6.07097">
        <ele>247.6</ele>
        <time>2021-09-30T10:07:23Z</time>
      </trkpt>
      <trkpt lat="47.26582" lon="6.07099">
        <ele>247.6</ele>
        <time>2021-09-30T10:07:24Z</time>
      </trkpt>
      <trkpt lat="47.26583" lon="6.07101">
        <ele>247.6</ele>
        <time>2021-09-30T10:07:25Z</time>
      </trkpt>
      <trkpt lat="47.26587" lon="6.07106">
        <ele>247.6</ele>
        <time>2021-09-30T10:07:27Z</time>
      </trkpt>
      <trkpt lat="47.26588" lon="6.07107">
        <ele>247.6</ele>
        <time>2021-09-30T10:07:28Z</time>
      </trkpt>
      <trkpt lat="47.26588" lon="6.07107">
        <ele>247.4</ele>
        <time>2021-09-30T10:07:29Z</time>
      </trkpt>
      <trkpt lat="47.26588" lon="6.07107">
        <ele>247.4</ele>
        <time>2021-09-30T10:07:30Z</time>
      </trkpt>
      <trkpt lat="47.26588" lon="6.07108">
        <ele>247.4</ele>
        <time>2021-09-30T10:07:32Z</time>
      </trkpt>
      <trkpt lat="47.26588" lon="6.0711">
        <ele>247.4</ele>
        <time>2021-09-30T10:07:33Z</time>
      </trkpt>
      <trkpt lat="47.26588" lon="6.07113">
        <ele>247.2</ele>
        <time>2021-09-30T10:07:34Z</time>
      </trkpt>
      <trkpt lat="47.26587" lon="6.07115">
        <ele>246.8</ele>
        <time>2021-09-30T10:07:35Z</time>
      </trkpt>
      <trkpt lat="47.26585" lon="6.07116">
        <ele>246.8</ele>
        <time>2021-09-30T10:07:36Z</time>
      </trkpt>
      <trkpt lat="47.26581" lon="6.07117">
        <ele>246.8</ele>
        <time>2021-09-30T10:07:38Z</time>
      </trkpt>
      <trkpt lat="47.26579" lon="6.07119">
        <ele>246.8</ele>
        <time>2021-09-30T10:07:39Z</time>
      </trkpt>
      <trkpt lat="47.26578" lon="6.07123">
        <ele>246.8</ele>
        <time>2021-09-30T10:07:40Z</time>
      </trkpt>
      <trkpt lat="47.26577" lon="6.07127">
        <ele>246.8</ele>
        <time>2021-09-30T10:07:41Z</time>
      </trkpt>
      <trkpt lat="47.26584" lon="6.07146">
        <ele>247.2</ele>
        <time>2021-09-30T10:07:45Z</time>
      </trkpt>
      <trkpt lat="47.26586" lon="6.0715">
        <ele>247.4</ele>
        <time>2021-09-30T10:07:46Z</time>
      </trkpt>
      <trkpt lat="47.26588" lon="6.07154">
        <ele>247.4</ele>
        <time>2021-09-30T10:07:47Z</time>
      </trkpt>
      <trkpt lat="47.26592" lon="6.07167">
        <ele>247.4</ele>
        <time>2021-09-30T10:07:50Z</time>
      </trkpt>
      <trkpt lat="47.266" lon="6.07196">
        <ele>247.4</ele>
        <time>2021-09-30T10:07:56Z</time>
      </trkpt>
      <trkpt lat="47.26611" lon="6.07242">
        <ele>247.8</ele>
        <time>2021-09-30T10:08:05Z</time>
      </trkpt>
      <trkpt lat="47.26613" lon="6.07247">
        <ele>247.8</ele>
        <time>2021-09-30T10:08:06Z</time>
      </trkpt>
      <trkpt lat="47.26622" lon="6.07275">
        <ele>248</ele>
        <time>2021-09-30T10:08:11Z</time>
      </trkpt>
      <trkpt lat="47.26624" lon="6.07281">
        <ele>248</ele>
        <time>2021-09-30T10:08:12Z</time>
      </trkpt>
      <trkpt lat="47.26628" lon="6.07291">
        <ele>248</ele>
        <time>2021-09-30T10:08:14Z</time>
      </trkpt>
      <trkpt lat="47.2664" lon="6.07319">
        <ele>248</ele>
        <time>2021-09-30T10:08:20Z</time>
      </trkpt>
      <trkpt lat="47.26643" lon="6.0732">
        <ele>248.2</ele>
        <time>2021-09-30T10:08:21Z</time>
      </trkpt>
      <trkpt lat="47.26645" lon="6.07319">
        <ele>248.2</ele>
        <time>2021-09-30T10:08:22Z</time>
      </trkpt>
      <trkpt lat="47.26647" lon="6.07317">
        <ele>248.2</ele>
        <time>2021-09-30T10:08:23Z</time>
      </trkpt>
      <trkpt lat="47.26649" lon="6.07316">
        <ele>248.4</ele>
        <time>2021-09-30T10:08:24Z</time>
      </trkpt>
      <trkpt lat="47.26651" lon="6.07316">
        <ele>248.4</ele>
        <time>2021-09-30T10:08:25Z</time>
      </trkpt>
      <trkpt lat="47.26652" lon="6.07318">
        <ele>248.8</ele>
        <time>2021-09-30T10:08:26Z</time>
      </trkpt>
      <trkpt lat="47.26653" lon="6.0732">
        <ele>249</ele>
        <time>2021-09-30T10:08:27Z</time>
      </trkpt>
      <trkpt lat="47.26654" lon="6.07323">
        <ele>249.2</ele>
        <time>2021-09-30T10:08:28Z</time>
      </trkpt>
      <trkpt lat="47.26655" lon="6.07327">
        <ele>249.4</ele>
        <time>2021-09-30T10:08:29Z</time>
      </trkpt>
      <trkpt lat="47.26656" lon="6.0733">
        <ele>249.6</ele>
        <time>2021-09-30T10:08:30Z</time>
      </trkpt>
      <trkpt lat="47.26657" lon="6.07334">
        <ele>249.8</ele>
        <time>2021-09-30T10:08:31Z</time>
      </trkpt>
      <trkpt lat="47.26659" lon="6.07338">
        <ele>250</ele>
        <time>2021-09-30T10:08:32Z</time>
      </trkpt>
      <trkpt lat="47.26662" lon="6.07346">
        <ele>250.4</ele>
        <time>2021-09-30T10:08:34Z</time>
      </trkpt>
      <trkpt lat="47.26672" lon="6.07371">
        <ele>250.6</ele>
        <time>2021-09-30T10:08:39Z</time>
      </trkpt>
      <trkpt lat="47.26675" lon="6.07376">
        <ele>250.6</ele>
        <time>2021-09-30T10:08:40Z</time>
      </trkpt>
      <trkpt lat="47.26677" lon="6.07381">
        <ele>250.6</ele>
        <time>2021-09-30T10:08:41Z</time>
      </trkpt>
      <trkpt lat="47.2668" lon="6.07386">
        <ele>250.6</ele>
        <time>2021-09-30T10:08:42Z</time>
      </trkpt>
      <trkpt lat="47.26682" lon="6.07391">
        <ele>250.6</ele>
        <time>2021-09-30T10:08:43Z</time>
      </trkpt>
      <trkpt lat="47.26684" lon="6.07395">
        <ele>250.6</ele>
        <time>2021-09-30T10:08:44Z</time>
      </trkpt>
      <trkpt lat="47.26687" lon="6.074">
        <ele>250.6</ele>
        <time>2021-09-30T10:08:45Z</time>
      </trkpt>
      <trkpt lat="47.26689" lon="6.07404">
        <ele>250.6</ele>
        <time>2021-09-30T10:08:46Z</time>
      </trkpt>
      <trkpt lat="47.26703" lon="6.07433">
        <ele>250.2</ele>
        <time>2021-09-30T10:08:52Z</time>
      </trkpt>
      <trkpt lat="47.26731" lon="6.07483">
        <ele>250</ele>
        <time>2021-09-30T10:09:03Z</time>
      </trkpt>
      <trkpt lat="47.26758" lon="6.07525">
        <ele>250</ele>
        <time>2021-09-30T10:09:13Z</time>
      </trkpt>
      <trkpt lat="47.26778" lon="6.07553">
        <ele>250.4</ele>
        <time>2021-09-30T10:09:20Z</time>
      </trkpt>
      <trkpt lat="47.26784" lon="6.07561">
        <ele>250.6</ele>
        <time>2021-09-30T10:09:22Z</time>
      </trkpt>
      <trkpt lat="47.26811" lon="6.0759">
        <ele>250.6</ele>
        <time>2021-09-30T10:09:30Z</time>
      </trkpt>
      <trkpt lat="47.26837" lon="6.07616">
        <ele>250.8</ele>
        <time>2021-09-30T10:09:37Z</time>
      </trkpt>
      <trkpt lat="47.2684" lon="6.0762">
        <ele>251</ele>
        <time>2021-09-30T10:09:38Z</time>
      </trkpt>
      <trkpt lat="47.26847" lon="6.07628">
        <ele>251</ele>
        <time>2021-09-30T10:09:40Z</time>
      </trkpt>
      <trkpt lat="47.26851" lon="6.07631">
        <ele>251</ele>
        <time>2021-09-30T10:09:41Z</time>
      </trkpt>
      <trkpt lat="47.26881" lon="6.07662">
        <ele>250.8</ele>
        <time>2021-09-30T10:09:49Z</time>
      </trkpt>
      <trkpt lat="47.26911" lon="6.07695">
        <ele>250.8</ele>
        <time>2021-09-30T10:09:57Z</time>
      </trkpt>
      <trkpt lat="47.26914" lon="6.07699">
        <ele>250.8</ele>
        <time>2021-09-30T10:09:58Z</time>
      </trkpt>
      <trkpt lat="47.26924" lon="6.07711">
        <ele>250.8</ele>
        <time>2021-09-30T10:10:01Z</time>
      </trkpt>
      <trkpt lat="47.26931" lon="6.0772">
        <ele>250.8</ele>
        <time>2021-09-30T10:10:03Z</time>
      </trkpt>
      <trkpt lat="47.26934" lon="6.07725">
        <ele>250.8</ele>
        <time>2021-09-30T10:10:04Z</time>
      </trkpt>
      <trkpt lat="47.26962" lon="6.07762">
        <ele>250.8</ele>
        <time>2021-09-30T10:10:12Z</time>
      </trkpt>
      <trkpt lat="47.26987" lon="6.07802">
        <ele>251</ele>
        <time>2021-09-30T10:10:20Z</time>
      </trkpt>
      <trkpt lat="47.2701" lon="6.07844">
        <ele>250.8</ele>
        <time>2021-09-30T10:10:28Z</time>
      </trkpt>
      <trkpt lat="47.27013" lon="6.0785">
        <ele>250.6</ele>
        <time>2021-09-30T10:10:29Z</time>
      </trkpt>
      <trkpt lat="47.27028" lon="6.07878">
        <ele>250.4</ele>
        <time>2021-09-30T10:10:34Z</time>
      </trkpt>
      <trkpt lat="47.27036" lon="6.07896">
        <ele>250.2</ele>
        <time>2021-09-30T10:10:37Z</time>
      </trkpt>
      <trkpt lat="47.27055" lon="6.07944">
        <ele>250.6</ele>
        <time>2021-09-30T10:10:45Z</time>
      </trkpt>
      <trkpt lat="47.27066" lon="6.07974">
        <ele>250.6</ele>
        <time>2021-09-30T10:10:50Z</time>
      </trkpt>
      <trkpt lat="47.27068" lon="6.0798">
        <ele>250.6</ele>
        <time>2021-09-30T10:10:51Z</time>
      </trkpt>
      <trkpt lat="47.2707" lon="6.07986">
        <ele>250.6</ele>
        <time>2021-09-30T10:10:52Z</time>
      </trkpt>
      <trkpt lat="47.27074" lon="6.07999">
        <ele>250.6</ele>
        <time>2021-09-30T10:10:54Z</time>
      </trkpt>
      <trkpt lat="47.27078" lon="6.08011">
        <ele>250.4</ele>
        <time>2021-09-30T10:10:56Z</time>
      </trkpt>
      <trkpt lat="47.27086" lon="6.08036">
        <ele>250.4</ele>
        <time>2021-09-30T10:11:00Z</time>
      </trkpt>
      <trkpt lat="47.27087" lon="6.08042">
        <ele>250.2</ele>
        <time>2021-09-30T10:11:01Z</time>
      </trkpt>
      <trkpt lat="47.27089" lon="6.08048">
        <ele>250.2</ele>
        <time>2021-09-30T10:11:02Z</time>
      </trkpt>
      <trkpt lat="47.27092" lon="6.08061">
        <ele>250</ele>
        <time>2021-09-30T10:11:04Z</time>
      </trkpt>
      <trkpt lat="47.27104" lon="6.08107">
        <ele>250</ele>
        <time>2021-09-30T10:11:11Z</time>
      </trkpt>
      <trkpt lat="47.27117" lon="6.08179">
        <ele>250</ele>
        <time>2021-09-30T10:11:22Z</time>
      </trkpt>
      <trkpt lat="47.27118" lon="6.08185">
        <ele>250</ele>
        <time>2021-09-30T10:11:23Z</time>
      </trkpt>
      <trkpt lat="47.27126" lon="6.08247">
        <ele>250.4</ele>
        <time>2021-09-30T10:11:32Z</time>
      </trkpt>
      <trkpt lat="47.27132" lon="6.08311">
        <ele>250.4</ele>
        <time>2021-09-30T10:11:41Z</time>
      </trkpt>
      <trkpt lat="47.27136" lon="6.08376">
        <ele>250.2</ele>
        <time>2021-09-30T10:11:50Z</time>
      </trkpt>
      <trkpt lat="47.27136" lon="6.08397">
        <ele>250</ele>
        <time>2021-09-30T10:11:53Z</time>
      </trkpt>
      <trkpt lat="47.27134" lon="6.0841">
        <ele>250</ele>
        <time>2021-09-30T10:11:55Z</time>
      </trkpt>
      <trkpt lat="47.27133" lon="6.08416">
        <ele>250.2</ele>
        <time>2021-09-30T10:11:56Z</time>
      </trkpt>
      <trkpt lat="47.27131" lon="6.08421">
        <ele>250.2</ele>
        <time>2021-09-30T10:11:57Z</time>
      </trkpt>
      <trkpt lat="47.27129" lon="6.08427">
        <ele>250.2</ele>
        <time>2021-09-30T10:11:58Z</time>
      </trkpt>
      <trkpt lat="47.27127" lon="6.08432">
        <ele>250.2</ele>
        <time>2021-09-30T10:11:59Z</time>
      </trkpt>
      <trkpt lat="47.27126" lon="6.08438">
        <ele>250.2</ele>
        <time>2021-09-30T10:12:00Z</time>
      </trkpt>
      <trkpt lat="47.27124" lon="6.08443">
        <ele>250.4</ele>
        <time>2021-09-30T10:12:01Z</time>
      </trkpt>
      <trkpt lat="47.27121" lon="6.08448">
        <ele>250.4</ele>
        <time>2021-09-30T10:12:02Z</time>
      </trkpt>
      <trkpt lat="47.27117" lon="6.08452">
        <ele>250.4</ele>
        <time>2021-09-30T10:12:03Z</time>
      </trkpt>
      <trkpt lat="47.27114" lon="6.08456">
        <ele>250.4</ele>
        <time>2021-09-30T10:12:04Z</time>
      </trkpt>
      <trkpt lat="47.2711" lon="6.08459">
        <ele>250.4</ele>
        <time>2021-09-30T10:12:05Z</time>
      </trkpt>
      <trkpt lat="47.27106" lon="6.08461">
        <ele>250.4</ele>
        <time>2021-09-30T10:12:06Z</time>
      </trkpt>
      <trkpt lat="47.27103" lon="6.08463">
        <ele>250.4</ele>
        <time>2021-09-30T10:12:07Z</time>
      </trkpt>
      <trkpt lat="47.27099" lon="6.08465">
        <ele>250.4</ele>
        <time>2021-09-30T10:12:08Z</time>
      </trkpt>
      <trkpt lat="47.27095" lon="6.08467">
        <ele>250.4</ele>
        <time>2021-09-30T10:12:09Z</time>
      </trkpt>
      <trkpt lat="47.27091" lon="6.08469">
        <ele>250.4</ele>
        <time>2021-09-30T10:12:10Z</time>
      </trkpt>
      <trkpt lat="47.27088" lon="6.0847">
        <ele>250.2</ele>
        <time>2021-09-30T10:12:11Z</time>
      </trkpt>
      <trkpt lat="47.27084" lon="6.08471">
        <ele>250.2</ele>
        <time>2021-09-30T10:12:12Z</time>
      </trkpt>
      <trkpt lat="47.27081" lon="6.08473">
        <ele>250.2</ele>
        <time>2021-09-30T10:12:13Z</time>
      </trkpt>
      <trkpt lat="47.27078" lon="6.08473">
        <ele>250.2</ele>
        <time>2021-09-30T10:12:14Z</time>
      </trkpt>
      <trkpt lat="47.27075" lon="6.08474">
        <ele>250.2</ele>
        <time>2021-09-30T10:12:15Z</time>
      </trkpt>
      <trkpt lat="47.27072" lon="6.08474">
        <ele>250.2</ele>
        <time>2021-09-30T10:12:16Z</time>
      </trkpt>
      <trkpt lat="47.27069" lon="6.08475">
        <ele>250.2</ele>
        <time>2021-09-30T10:12:17Z</time>
      </trkpt>
      <trkpt lat="47.27066" lon="6.08476">
        <ele>250.4</ele>
        <time>2021-09-30T10:12:18Z</time>
      </trkpt>
      <trkpt lat="47.2706" lon="6.08476">
        <ele>250.6</ele>
        <time>2021-09-30T10:12:20Z</time>
      </trkpt>
      <trkpt lat="47.27057" lon="6.08477">
        <ele>250.8</ele>
        <time>2021-09-30T10:12:21Z</time>
      </trkpt>
      <trkpt lat="47.27054" lon="6.08477">
        <ele>251</ele>
        <time>2021-09-30T10:12:22Z</time>
      </trkpt>
      <trkpt lat="47.27051" lon="6.08478">
        <ele>251.2</ele>
        <time>2021-09-30T10:12:23Z</time>
      </trkpt>
      <trkpt lat="47.27048" lon="6.08479">
        <ele>251.4</ele>
        <time>2021-09-30T10:12:24Z</time>
      </trkpt>
      <trkpt lat="47.27033" lon="6.08482">
        <ele>252.4</ele>
        <time>2021-09-30T10:12:29Z</time>
      </trkpt>
      <trkpt lat="47.2703" lon="6.08483">
        <ele>252.4</ele>
        <time>2021-09-30T10:12:30Z</time>
      </trkpt>
      <trkpt lat="47.27021" lon="6.08485">
        <ele>252.6</ele>
        <time>2021-09-30T10:12:33Z</time>
      </trkpt>
      <trkpt lat="47.26982" lon="6.08495">
        <ele>253.6</ele>
        <time>2021-09-30T10:12:45Z</time>
      </trkpt>
      <trkpt lat="47.2693" lon="6.08508">
        <ele>253.6</ele>
        <time>2021-09-30T10:12:59Z</time>
      </trkpt>
      <trkpt lat="47.26888" lon="6.08522">
        <ele>253</ele>
        <time>2021-09-30T10:13:09Z</time>
      </trkpt>
      <trkpt lat="47.26876" lon="6.0853">
        <ele>252.6</ele>
        <time>2021-09-30T10:13:12Z</time>
      </trkpt>
      <trkpt lat="47.26861" lon="6.08545">
        <ele>252.2</ele>
        <time>2021-09-30T10:13:16Z</time>
      </trkpt>
      <trkpt lat="47.26844" lon="6.08576">
        <ele>251.6</ele>
        <time>2021-09-30T10:13:22Z</time>
      </trkpt>
      <trkpt lat="47.26841" lon="6.08582">
        <ele>251.6</ele>
        <time>2021-09-30T10:13:23Z</time>
      </trkpt>
      <trkpt lat="47.26835" lon="6.086">
        <ele>251</ele>
        <time>2021-09-30T10:13:26Z</time>
      </trkpt>
      <trkpt lat="47.26832" lon="6.08619">
        <ele>250.6</ele>
        <time>2021-09-30T10:13:29Z</time>
      </trkpt>
      <trkpt lat="47.26831" lon="6.08626">
        <ele>250.4</ele>
        <time>2021-09-30T10:13:30Z</time>
      </trkpt>
      <trkpt lat="47.2683" lon="6.08673">
        <ele>249.8</ele>
        <time>2021-09-30T10:13:37Z</time>
      </trkpt>
      <trkpt lat="47.26836" lon="6.08738">
        <ele>249.4</ele>
        <time>2021-09-30T10:13:47Z</time>
      </trkpt>
      <trkpt lat="47.26838" lon="6.08757">
        <ele>249.4</ele>
        <time>2021-09-30T10:13:50Z</time>
      </trkpt>
      <trkpt lat="47.26839" lon="6.08763">
        <ele>249.4</ele>
        <time>2021-09-30T10:13:51Z</time>
      </trkpt>
      <trkpt lat="47.26839" lon="6.08769">
        <ele>249.4</ele>
        <time>2021-09-30T10:13:52Z</time>
      </trkpt>
      <trkpt lat="47.26838" lon="6.08774">
        <ele>249.4</ele>
        <time>2021-09-30T10:13:53Z</time>
      </trkpt>
      <trkpt lat="47.26837" lon="6.0878">
        <ele>249.4</ele>
        <time>2021-09-30T10:13:54Z</time>
      </trkpt>
      <trkpt lat="47.26835" lon="6.08785">
        <ele>249.4</ele>
        <time>2021-09-30T10:13:55Z</time>
      </trkpt>
      <trkpt lat="47.26832" lon="6.08788">
        <ele>249.4</ele>
        <time>2021-09-30T10:13:56Z</time>
      </trkpt>
      <trkpt lat="47.26828" lon="6.08791">
        <ele>249.4</ele>
        <time>2021-09-30T10:13:57Z</time>
      </trkpt>
      <trkpt lat="47.2682" lon="6.08795">
        <ele>249.6</ele>
        <time>2021-09-30T10:13:59Z</time>
      </trkpt>
      <trkpt lat="47.26817" lon="6.08798">
        <ele>249.6</ele>
        <time>2021-09-30T10:14:00Z</time>
      </trkpt>
      <trkpt lat="47.26813" lon="6.088">
        <ele>249.6</ele>
        <time>2021-09-30T10:14:01Z</time>
      </trkpt>
      <trkpt lat="47.26798" lon="6.08814">
        <ele>249.6</ele>
        <time>2021-09-30T10:14:05Z</time>
      </trkpt>
      <trkpt lat="47.26772" lon="6.08843">
        <ele>249.6</ele>
        <time>2021-09-30T10:14:13Z</time>
      </trkpt>
      <trkpt lat="47.26766" lon="6.0885">
        <ele>249.6</ele>
        <time>2021-09-30T10:14:15Z</time>
      </trkpt>
      <trkpt lat="47.26763" lon="6.08854">
        <ele>249.6</ele>
        <time>2021-09-30T10:14:16Z</time>
      </trkpt>
      <trkpt lat="47.26759" lon="6.08857">
        <ele>249.6</ele>
        <time>2021-09-30T10:14:17Z</time>
      </trkpt>
      <trkpt lat="47.26756" lon="6.08861">
        <ele>249.8</ele>
        <time>2021-09-30T10:14:18Z</time>
      </trkpt>
      <trkpt lat="47.26752" lon="6.08863">
        <ele>249.8</ele>
        <time>2021-09-30T10:14:19Z</time>
      </trkpt>
      <trkpt lat="47.26748" lon="6.08866">
        <ele>249.8</ele>
        <time>2021-09-30T10:14:20Z</time>
      </trkpt>
      <trkpt lat="47.26745" lon="6.08868">
        <ele>249.8</ele>
        <time>2021-09-30T10:14:21Z</time>
      </trkpt>
      <trkpt lat="47.26741" lon="6.08871">
        <ele>250</ele>
        <time>2021-09-30T10:14:22Z</time>
      </trkpt>
      <trkpt lat="47.26738" lon="6.08874">
        <ele>250</ele>
        <time>2021-09-30T10:14:23Z</time>
      </trkpt>
      <trkpt lat="47.26735" lon="6.08877">
        <ele>250</ele>
        <time>2021-09-30T10:14:24Z</time>
      </trkpt>
      <trkpt lat="47.26727" lon="6.08892">
        <ele>250.2</ele>
        <time>2021-09-30T10:14:28Z</time>
      </trkpt>
      <trkpt lat="47.26725" lon="6.08896">
        <ele>250.2</ele>
        <time>2021-09-30T10:14:29Z</time>
      </trkpt>
      <trkpt lat="47.26724" lon="6.08899">
        <ele>250.4</ele>
        <time>2021-09-30T10:14:30Z</time>
      </trkpt>
      <trkpt lat="47.26722" lon="6.08903">
        <ele>250.6</ele>
        <time>2021-09-30T10:14:31Z</time>
      </trkpt>
      <trkpt lat="47.26721" lon="6.08906">
        <ele>250.8</ele>
        <time>2021-09-30T10:14:32Z</time>
      </trkpt>
      <trkpt lat="47.26719" lon="6.08911">
        <ele>251.4</ele>
        <time>2021-09-30T10:14:34Z</time>
      </trkpt>
      <trkpt lat="47.26717" lon="6.08914">
        <ele>251.8</ele>
        <time>2021-09-30T10:14:35Z</time>
      </trkpt>
      <trkpt lat="47.26715" lon="6.08916">
        <ele>252</ele>
        <time>2021-09-30T10:14:36Z</time>
      </trkpt>
      <trkpt lat="47.26713" lon="6.08918">
        <ele>252.4</ele>
        <time>2021-09-30T10:14:37Z</time>
      </trkpt>
      <trkpt lat="47.2671" lon="6.08921">
        <ele>253</ele>
        <time>2021-09-30T10:14:39Z</time>
      </trkpt>
      <trkpt lat="47.26708" lon="6.08922">
        <ele>253.2</ele>
        <time>2021-09-30T10:14:40Z</time>
      </trkpt>
      <trkpt lat="47.26706" lon="6.08923">
        <ele>253.8</ele>
        <time>2021-09-30T10:14:41Z</time>
      </trkpt>
      <trkpt lat="47.26704" lon="6.08924">
        <ele>254.2</ele>
        <time>2021-09-30T10:14:42Z</time>
      </trkpt>
      <trkpt lat="47.26702" lon="6.08925">
        <ele>254.6</ele>
        <time>2021-09-30T10:14:43Z</time>
      </trkpt>
      <trkpt lat="47.267" lon="6.08925">
        <ele>254.8</ele>
        <time>2021-09-30T10:14:44Z</time>
      </trkpt>
      <trkpt lat="47.26698" lon="6.08925">
        <ele>255</ele>
        <time>2021-09-30T10:14:45Z</time>
      </trkpt>
      <trkpt lat="47.26697" lon="6.08925">
        <ele>255.4</ele>
        <time>2021-09-30T10:14:46Z</time>
      </trkpt>
      <trkpt lat="47.26695" lon="6.08925">
        <ele>255.6</ele>
        <time>2021-09-30T10:14:47Z</time>
      </trkpt>
      <trkpt lat="47.26693" lon="6.08926">
        <ele>256</ele>
        <time>2021-09-30T10:14:48Z</time>
      </trkpt>
      <trkpt lat="47.26691" lon="6.08926">
        <ele>256.2</ele>
        <time>2021-09-30T10:14:49Z</time>
      </trkpt>
      <trkpt lat="47.26689" lon="6.08926">
        <ele>256.6</ele>
        <time>2021-09-30T10:14:50Z</time>
      </trkpt>
      <trkpt lat="47.26687" lon="6.08925">
        <ele>256.8</ele>
        <time>2021-09-30T10:14:51Z</time>
      </trkpt>
      <trkpt lat="47.26685" lon="6.08925">
        <ele>257.2</ele>
        <time>2021-09-30T10:14:52Z</time>
      </trkpt>
      <trkpt lat="47.26683" lon="6.08925">
        <ele>257.4</ele>
        <time>2021-09-30T10:14:53Z</time>
      </trkpt>
      <trkpt lat="47.26681" lon="6.08925">
        <ele>257.6</ele>
        <time>2021-09-30T10:14:54Z</time>
      </trkpt>
      <trkpt lat="47.2668" lon="6.08925">
        <ele>258</ele>
        <time>2021-09-30T10:14:55Z</time>
      </trkpt>
      <trkpt lat="47.26679" lon="6.08925">
        <ele>258.2</ele>
        <time>2021-09-30T10:14:56Z</time>
      </trkpt>
      <trkpt lat="47.26677" lon="6.08925">
        <ele>258.6</ele>
        <time>2021-09-30T10:14:57Z</time>
      </trkpt>
      <trkpt lat="47.26676" lon="6.08926">
        <ele>258.8</ele>
        <time>2021-09-30T10:14:58Z</time>
      </trkpt>
      <trkpt lat="47.26675" lon="6.08926">
        <ele>259.2</ele>
        <time>2021-09-30T10:14:59Z</time>
      </trkpt>
      <trkpt lat="47.26673" lon="6.08926">
        <ele>259.4</ele>
        <time>2021-09-30T10:15:00Z</time>
      </trkpt>
      <trkpt lat="47.26672" lon="6.08926">
        <ele>259.6</ele>
        <time>2021-09-30T10:15:01Z</time>
      </trkpt>
      <trkpt lat="47.2667" lon="6.08926">
        <ele>259.8</ele>
        <time>2021-09-30T10:15:02Z</time>
      </trkpt>
      <trkpt lat="47.26668" lon="6.08926">
        <ele>260.2</ele>
        <time>2021-09-30T10:15:03Z</time>
      </trkpt>
      <trkpt lat="47.26667" lon="6.08926">
        <ele>260.4</ele>
        <time>2021-09-30T10:15:04Z</time>
      </trkpt>
      <trkpt lat="47.26666" lon="6.08926">
        <ele>260.6</ele>
        <time>2021-09-30T10:15:05Z</time>
      </trkpt>
      <trkpt lat="47.26664" lon="6.08926">
        <ele>260.8</ele>
        <time>2021-09-30T10:15:06Z</time>
      </trkpt>
      <trkpt lat="47.26663" lon="6.08925">
        <ele>261</ele>
        <time>2021-09-30T10:15:07Z</time>
      </trkpt>
      <trkpt lat="47.26662" lon="6.08925">
        <ele>261.2</ele>
        <time>2021-09-30T10:15:08Z</time>
      </trkpt>
      <trkpt lat="47.2666" lon="6.08925">
        <ele>261.4</ele>
        <time>2021-09-30T10:15:09Z</time>
      </trkpt>
      <trkpt lat="47.26658" lon="6.08924">
        <ele>261.4</ele>
        <time>2021-09-30T10:15:10Z</time>
      </trkpt>
      <trkpt lat="47.26657" lon="6.08924">
        <ele>261.6</ele>
        <time>2021-09-30T10:15:11Z</time>
      </trkpt>
      <trkpt lat="47.26655" lon="6.08923">
        <ele>261.8</ele>
        <time>2021-09-30T10:15:12Z</time>
      </trkpt>
      <trkpt lat="47.26654" lon="6.08923">
        <ele>261.8</ele>
        <time>2021-09-30T10:15:13Z</time>
      </trkpt>
      <trkpt lat="47.26653" lon="6.08923">
        <ele>262</ele>
        <time>2021-09-30T10:15:14Z</time>
      </trkpt>
      <trkpt lat="47.26651" lon="6.08923">
        <ele>262.2</ele>
        <time>2021-09-30T10:15:15Z</time>
      </trkpt>
      <trkpt lat="47.2665" lon="6.08923">
        <ele>262.4</ele>
        <time>2021-09-30T10:15:16Z</time>
      </trkpt>
      <trkpt lat="47.26648" lon="6.08924">
        <ele>262.6</ele>
        <time>2021-09-30T10:15:17Z</time>
      </trkpt>
      <trkpt lat="47.26647" lon="6.08923">
        <ele>262.8</ele>
        <time>2021-09-30T10:15:18Z</time>
      </trkpt>
      <trkpt lat="47.26646" lon="6.08923">
        <ele>263</ele>
        <time>2021-09-30T10:15:19Z</time>
      </trkpt>
      <trkpt lat="47.26644" lon="6.08922">
        <ele>263.2</ele>
        <time>2021-09-30T10:15:20Z</time>
      </trkpt>
      <trkpt lat="47.26643" lon="6.08923">
        <ele>263.4</ele>
        <time>2021-09-30T10:15:21Z</time>
      </trkpt>
      <trkpt lat="47.26641" lon="6.08924">
        <ele>263.4</ele>
        <time>2021-09-30T10:15:22Z</time>
      </trkpt>
      <trkpt lat="47.26639" lon="6.08924">
        <ele>263.6</ele>
        <time>2021-09-30T10:15:23Z</time>
      </trkpt>
      <trkpt lat="47.26638" lon="6.08924">
        <ele>264</ele>
        <time>2021-09-30T10:15:24Z</time>
      </trkpt>
      <trkpt lat="47.26636" lon="6.08923">
        <ele>264.2</ele>
        <time>2021-09-30T10:15:25Z</time>
      </trkpt>
      <trkpt lat="47.26634" lon="6.08922">
        <ele>264.4</ele>
        <time>2021-09-30T10:15:26Z</time>
      </trkpt>
      <trkpt lat="47.26633" lon="6.08922">
        <ele>264.6</ele>
        <time>2021-09-30T10:15:27Z</time>
      </trkpt>
      <trkpt lat="47.26632" lon="6.08922">
        <ele>264.8</ele>
        <time>2021-09-30T10:15:28Z</time>
      </trkpt>
      <trkpt lat="47.26631" lon="6.08922">
        <ele>264.8</ele>
        <time>2021-09-30T10:15:29Z</time>
      </trkpt>
      <trkpt lat="47.26629" lon="6.08922">
        <ele>265.2</ele>
        <time>2021-09-30T10:15:30Z</time>
      </trkpt>
      <trkpt lat="47.26628" lon="6.08923">
        <ele>265.2</ele>
        <time>2021-09-30T10:15:31Z</time>
      </trkpt>
      <trkpt lat="47.26627" lon="6.08923">
        <ele>265.4</ele>
        <time>2021-09-30T10:15:32Z</time>
      </trkpt>
      <trkpt lat="47.26625" lon="6.08923">
        <ele>265.6</ele>
        <time>2021-09-30T10:15:33Z</time>
      </trkpt>
      <trkpt lat="47.26624" lon="6.08923">
        <ele>265.8</ele>
        <time>2021-09-30T10:15:34Z</time>
      </trkpt>
      <trkpt lat="47.26623" lon="6.08923">
        <ele>266</ele>
        <time>2021-09-30T10:15:35Z</time>
      </trkpt>
      <trkpt lat="47.26621" lon="6.08923">
        <ele>266</ele>
        <time>2021-09-30T10:15:36Z</time>
      </trkpt>
      <trkpt lat="47.2662" lon="6.08924">
        <ele>266.2</ele>
        <time>2021-09-30T10:15:37Z</time>
      </trkpt>
      <trkpt lat="47.26619" lon="6.08924">
        <ele>266.2</ele>
        <time>2021-09-30T10:15:38Z</time>
      </trkpt>
      <trkpt lat="47.26617" lon="6.08925">
        <ele>266.6</ele>
        <time>2021-09-30T10:15:39Z</time>
      </trkpt>
      <trkpt lat="47.26616" lon="6.08925">
        <ele>266.6</ele>
        <time>2021-09-30T10:15:40Z</time>
      </trkpt>
      <trkpt lat="47.26614" lon="6.08925">
        <ele>266.8</ele>
        <time>2021-09-30T10:15:41Z</time>
      </trkpt>
      <trkpt lat="47.26613" lon="6.08925">
        <ele>266.8</ele>
        <time>2021-09-30T10:15:42Z</time>
      </trkpt>
      <trkpt lat="47.26611" lon="6.08925">
        <ele>267</ele>
        <time>2021-09-30T10:15:43Z</time>
      </trkpt>
      <trkpt lat="47.2661" lon="6.08925">
        <ele>267.2</ele>
        <time>2021-09-30T10:15:44Z</time>
      </trkpt>
      <trkpt lat="47.26608" lon="6.08925">
        <ele>267.2</ele>
        <time>2021-09-30T10:15:45Z</time>
      </trkpt>
      <trkpt lat="47.26606" lon="6.08925">
        <ele>267.4</ele>
        <time>2021-09-30T10:15:46Z</time>
      </trkpt>
      <trkpt lat="47.26605" lon="6.08925">
        <ele>267.6</ele>
        <time>2021-09-30T10:15:47Z</time>
      </trkpt>
      <trkpt lat="47.26603" lon="6.08925">
        <ele>267.8</ele>
        <time>2021-09-30T10:15:48Z</time>
      </trkpt>
      <trkpt lat="47.26601" lon="6.08925">
        <ele>267.8</ele>
        <time>2021-09-30T10:15:49Z</time>
      </trkpt>
      <trkpt lat="47.266" lon="6.08925">
        <ele>268</ele>
        <time>2021-09-30T10:15:50Z</time>
      </trkpt>
      <trkpt lat="47.26599" lon="6.08925">
        <ele>268</ele>
        <time>2021-09-30T10:15:51Z</time>
      </trkpt>
      <trkpt lat="47.26597" lon="6.08925">
        <ele>268.4</ele>
        <time>2021-09-30T10:15:52Z</time>
      </trkpt>
      <trkpt lat="47.26596" lon="6.08924">
        <ele>268.6</ele>
        <time>2021-09-30T10:15:53Z</time>
      </trkpt>
      <trkpt lat="47.26594" lon="6.08924">
        <ele>268.8</ele>
        <time>2021-09-30T10:15:54Z</time>
      </trkpt>
      <trkpt lat="47.26593" lon="6.08924">
        <ele>269</ele>
        <time>2021-09-30T10:15:55Z</time>
      </trkpt>
      <trkpt lat="47.26591" lon="6.08924">
        <ele>269.2</ele>
        <time>2021-09-30T10:15:56Z</time>
      </trkpt>
      <trkpt lat="47.26589" lon="6.08924">
        <ele>269.4</ele>
        <time>2021-09-30T10:15:57Z</time>
      </trkpt>
      <trkpt lat="47.26588" lon="6.08924">
        <ele>269.6</ele>
        <time>2021-09-30T10:15:58Z</time>
      </trkpt>
      <trkpt lat="47.26587" lon="6.08924">
        <ele>270</ele>
        <time>2021-09-30T10:15:59Z</time>
      </trkpt>
      <trkpt lat="47.26585" lon="6.08924">
        <ele>270</ele>
        <time>2021-09-30T10:16:00Z</time>
      </trkpt>
      <trkpt lat="47.26584" lon="6.08924">
        <ele>270.2</ele>
        <time>2021-09-30T10:16:01Z</time>
      </trkpt>
      <trkpt lat="47.26582" lon="6.08923">
        <ele>270.4</ele>
        <time>2021-09-30T10:16:02Z</time>
      </trkpt>
      <trkpt lat="47.26581" lon="6.08923">
        <ele>270.6</ele>
        <time>2021-09-30T10:16:03Z</time>
      </trkpt>
      <trkpt lat="47.2658" lon="6.08922">
        <ele>270.8</ele>
        <time>2021-09-30T10:16:04Z</time>
      </trkpt>
      <trkpt lat="47.26578" lon="6.08922">
        <ele>271</ele>
        <time>2021-09-30T10:16:05Z</time>
      </trkpt>
      <trkpt lat="47.26576" lon="6.08922">
        <ele>271.2</ele>
        <time>2021-09-30T10:16:06Z</time>
      </trkpt>
      <trkpt lat="47.26574" lon="6.08922">
        <ele>271.2</ele>
        <time>2021-09-30T10:16:07Z</time>
      </trkpt>
      <trkpt lat="47.26573" lon="6.08922">
        <ele>271.4</ele>
        <time>2021-09-30T10:16:08Z</time>
      </trkpt>
      <trkpt lat="47.26571" lon="6.08922">
        <ele>271.6</ele>
        <time>2021-09-30T10:16:09Z</time>
      </trkpt>
      <trkpt lat="47.2657" lon="6.08922">
        <ele>272</ele>
        <time>2021-09-30T10:16:10Z</time>
      </trkpt>
      <trkpt lat="47.26568" lon="6.08922">
        <ele>272</ele>
        <time>2021-09-30T10:16:11Z</time>
      </trkpt>
      <trkpt lat="47.26566" lon="6.08923">
        <ele>272.2</ele>
        <time>2021-09-30T10:16:12Z</time>
      </trkpt>
      <trkpt lat="47.26565" lon="6.08922">
        <ele>272.4</ele>
        <time>2021-09-30T10:16:13Z</time>
      </trkpt>
      <trkpt lat="47.26563" lon="6.08922">
        <ele>272.6</ele>
        <time>2021-09-30T10:16:14Z</time>
      </trkpt>
      <trkpt lat="47.26562" lon="6.08922">
        <ele>272.8</ele>
        <time>2021-09-30T10:16:15Z</time>
      </trkpt>
      <trkpt lat="47.2656" lon="6.08922">
        <ele>272.8</ele>
        <time>2021-09-30T10:16:16Z</time>
      </trkpt>
      <trkpt lat="47.26558" lon="6.08921">
        <ele>273</ele>
        <time>2021-09-30T10:16:17Z</time>
      </trkpt>
      <trkpt lat="47.26557" lon="6.08921">
        <ele>273.2</ele>
        <time>2021-09-30T10:16:18Z</time>
      </trkpt>
      <trkpt lat="47.26555" lon="6.08921">
        <ele>273.4</ele>
        <time>2021-09-30T10:16:19Z</time>
      </trkpt>
      <trkpt lat="47.26553" lon="6.08921">
        <ele>273.6</ele>
        <time>2021-09-30T10:16:20Z</time>
      </trkpt>
      <trkpt lat="47.26552" lon="6.08921">
        <ele>273.8</ele>
        <time>2021-09-30T10:16:21Z</time>
      </trkpt>
      <trkpt lat="47.2655" lon="6.08921">
        <ele>274</ele>
        <time>2021-09-30T10:16:22Z</time>
      </trkpt>
      <trkpt lat="47.26549" lon="6.08921">
        <ele>274.2</ele>
        <time>2021-09-30T10:16:23Z</time>
      </trkpt>
      <trkpt lat="47.26547" lon="6.0892">
        <ele>274.4</ele>
        <time>2021-09-30T10:16:24Z</time>
      </trkpt>
      <trkpt lat="47.26545" lon="6.0892">
        <ele>274.6</ele>
        <time>2021-09-30T10:16:25Z</time>
      </trkpt>
      <trkpt lat="47.26544" lon="6.08919">
        <ele>274.8</ele>
        <time>2021-09-30T10:16:26Z</time>
      </trkpt>
      <trkpt lat="47.26542" lon="6.08919">
        <ele>274.8</ele>
        <time>2021-09-30T10:16:27Z</time>
      </trkpt>
      <trkpt lat="47.2654" lon="6.08919">
        <ele>275</ele>
        <time>2021-09-30T10:16:28Z</time>
      </trkpt>
      <trkpt lat="47.26538" lon="6.08919">
        <ele>275.2</ele>
        <time>2021-09-30T10:16:29Z</time>
      </trkpt>
      <trkpt lat="47.26537" lon="6.08919">
        <ele>275.2</ele>
        <time>2021-09-30T10:16:30Z</time>
      </trkpt>
      <trkpt lat="47.26535" lon="6.08919">
        <ele>275.4</ele>
        <time>2021-09-30T10:16:31Z</time>
      </trkpt>
      <trkpt lat="47.26534" lon="6.0892">
        <ele>275.6</ele>
        <time>2021-09-30T10:16:32Z</time>
      </trkpt>
      <trkpt lat="47.26532" lon="6.08919">
        <ele>275.8</ele>
        <time>2021-09-30T10:16:33Z</time>
      </trkpt>
      <trkpt lat="47.2653" lon="6.08919">
        <ele>275.8</ele>
        <time>2021-09-30T10:16:34Z</time>
      </trkpt>
      <trkpt lat="47.26529" lon="6.08919">
        <ele>276</ele>
        <time>2021-09-30T10:16:35Z</time>
      </trkpt>
      <trkpt lat="47.26527" lon="6.08919">
        <ele>276.2</ele>
        <time>2021-09-30T10:16:36Z</time>
      </trkpt>
      <trkpt lat="47.26526" lon="6.08919">
        <ele>276.4</ele>
        <time>2021-09-30T10:16:37Z</time>
      </trkpt>
      <trkpt lat="47.26524" lon="6.08919">
        <ele>276.6</ele>
        <time>2021-09-30T10:16:38Z</time>
      </trkpt>
      <trkpt lat="47.26522" lon="6.08919">
        <ele>276.8</ele>
        <time>2021-09-30T10:16:39Z</time>
      </trkpt>
      <trkpt lat="47.2652" lon="6.08919">
        <ele>277</ele>
        <time>2021-09-30T10:16:40Z</time>
      </trkpt>
      <trkpt lat="47.26518" lon="6.08919">
        <ele>277.2</ele>
        <time>2021-09-30T10:16:41Z</time>
      </trkpt>
      <trkpt lat="47.26517" lon="6.08919">
        <ele>277.2</ele>
        <time>2021-09-30T10:16:42Z</time>
      </trkpt>
      <trkpt lat="47.26516" lon="6.08919">
        <ele>277.4</ele>
        <time>2021-09-30T10:16:43Z</time>
      </trkpt>
      <trkpt lat="47.26514" lon="6.08919">
        <ele>277.6</ele>
        <time>2021-09-30T10:16:44Z</time>
      </trkpt>
      <trkpt lat="47.26512" lon="6.08919">
        <ele>277.8</ele>
        <time>2021-09-30T10:16:45Z</time>
      </trkpt>
      <trkpt lat="47.26511" lon="6.08919">
        <ele>277.8</ele>
        <time>2021-09-30T10:16:46Z</time>
      </trkpt>
      <trkpt lat="47.26509" lon="6.08918">
        <ele>278</ele>
        <time>2021-09-30T10:16:47Z</time>
      </trkpt>
      <trkpt lat="47.26508" lon="6.08918">
        <ele>278.2</ele>
        <time>2021-09-30T10:16:48Z</time>
      </trkpt>
      <trkpt lat="47.26506" lon="6.08917">
        <ele>278.4</ele>
        <time>2021-09-30T10:16:49Z</time>
      </trkpt>
      <trkpt lat="47.26504" lon="6.08917">
        <ele>278.6</ele>
        <time>2021-09-30T10:16:50Z</time>
      </trkpt>
      <trkpt lat="47.26502" lon="6.08917">
        <ele>278.8</ele>
        <time>2021-09-30T10:16:51Z</time>
      </trkpt>
      <trkpt lat="47.265" lon="6.08917">
        <ele>279</ele>
        <time>2021-09-30T10:16:52Z</time>
      </trkpt>
      <trkpt lat="47.26498" lon="6.08916">
        <ele>279.2</ele>
        <time>2021-09-30T10:16:53Z</time>
      </trkpt>
      <trkpt lat="47.26496" lon="6.08916">
        <ele>279.4</ele>
        <time>2021-09-30T10:16:54Z</time>
      </trkpt>
      <trkpt lat="47.26494" lon="6.08916">
        <ele>279.6</ele>
        <time>2021-09-30T10:16:55Z</time>
      </trkpt>
      <trkpt lat="47.26493" lon="6.08916">
        <ele>279.8</ele>
        <time>2021-09-30T10:16:56Z</time>
      </trkpt>
      <trkpt lat="47.26491" lon="6.08916">
        <ele>280</ele>
        <time>2021-09-30T10:16:57Z</time>
      </trkpt>
      <trkpt lat="47.2649" lon="6.08916">
        <ele>280</ele>
        <time>2021-09-30T10:16:58Z</time>
      </trkpt>
      <trkpt lat="47.26488" lon="6.08916">
        <ele>280.2</ele>
        <time>2021-09-30T10:16:59Z</time>
      </trkpt>
      <trkpt lat="47.26486" lon="6.08916">
        <ele>280.2</ele>
        <time>2021-09-30T10:17:00Z</time>
      </trkpt>
      <trkpt lat="47.26484" lon="6.08915">
        <ele>280.6</ele>
        <time>2021-09-30T10:17:01Z</time>
      </trkpt>
      <trkpt lat="47.26483" lon="6.08915">
        <ele>280.6</ele>
        <time>2021-09-30T10:17:02Z</time>
      </trkpt>
      <trkpt lat="47.26481" lon="6.08915">
        <ele>280.8</ele>
        <time>2021-09-30T10:17:03Z</time>
      </trkpt>
      <trkpt lat="47.26479" lon="6.08915">
        <ele>281</ele>
        <time>2021-09-30T10:17:04Z</time>
      </trkpt>
      <trkpt lat="47.26477" lon="6.08914">
        <ele>281.2</ele>
        <time>2021-09-30T10:17:05Z</time>
      </trkpt>
      <trkpt lat="47.26476" lon="6.08914">
        <ele>281.4</ele>
        <time>2021-09-30T10:17:06Z</time>
      </trkpt>
      <trkpt lat="47.26474" lon="6.08914">
        <ele>281.4</ele>
        <time>2021-09-30T10:17:07Z</time>
      </trkpt>
      <trkpt lat="47.26472" lon="6.08913">
        <ele>281.6</ele>
        <time>2021-09-30T10:17:08Z</time>
      </trkpt>
      <trkpt lat="47.2647" lon="6.08913">
        <ele>281.6</ele>
        <time>2021-09-30T10:17:09Z</time>
      </trkpt>
      <trkpt lat="47.26469" lon="6.08913">
        <ele>282.2</ele>
        <time>2021-09-30T10:17:10Z</time>
      </trkpt>
      <trkpt lat="47.26467" lon="6.08912">
        <ele>282.4</ele>
        <time>2021-09-30T10:17:11Z</time>
      </trkpt>
      <trkpt lat="47.26465" lon="6.08912">
        <ele>282.6</ele>
        <time>2021-09-30T10:17:12Z</time>
      </trkpt>
      <trkpt lat="47.26464" lon="6.08912">
        <ele>282.8</ele>
        <time>2021-09-30T10:17:13Z</time>
      </trkpt>
      <trkpt lat="47.26462" lon="6.08911">
        <ele>282.8</ele>
        <time>2021-09-30T10:17:14Z</time>
      </trkpt>
      <trkpt lat="47.2646" lon="6.08911">
        <ele>283.2</ele>
        <time>2021-09-30T10:17:15Z</time>
      </trkpt>
      <trkpt lat="47.26458" lon="6.0891">
        <ele>283.4</ele>
        <time>2021-09-30T10:17:16Z</time>
      </trkpt>
      <trkpt lat="47.26456" lon="6.0891">
        <ele>283.6</ele>
        <time>2021-09-30T10:17:17Z</time>
      </trkpt>
      <trkpt lat="47.26454" lon="6.08909">
        <ele>283.6</ele>
        <time>2021-09-30T10:17:18Z</time>
      </trkpt>
      <trkpt lat="47.26452" lon="6.08908">
        <ele>283.8</ele>
        <time>2021-09-30T10:17:19Z</time>
      </trkpt>
      <trkpt lat="47.26451" lon="6.08907">
        <ele>284.2</ele>
        <time>2021-09-30T10:17:20Z</time>
      </trkpt>
      <trkpt lat="47.26449" lon="6.08907">
        <ele>284.4</ele>
        <time>2021-09-30T10:17:21Z</time>
      </trkpt>
      <trkpt lat="47.26447" lon="6.08906">
        <ele>284.6</ele>
        <time>2021-09-30T10:17:22Z</time>
      </trkpt>
      <trkpt lat="47.26445" lon="6.08905">
        <ele>284.8</ele>
        <time>2021-09-30T10:17:23Z</time>
      </trkpt>
      <trkpt lat="47.26444" lon="6.08905">
        <ele>285.2</ele>
        <time>2021-09-30T10:17:24Z</time>
      </trkpt>
      <trkpt lat="47.26442" lon="6.08904">
        <ele>285.4</ele>
        <time>2021-09-30T10:17:25Z</time>
      </trkpt>
      <trkpt lat="47.26441" lon="6.08904">
        <ele>285.6</ele>
        <time>2021-09-30T10:17:26Z</time>
      </trkpt>
      <trkpt lat="47.26439" lon="6.08904">
        <ele>285.8</ele>
        <time>2021-09-30T10:17:27Z</time>
      </trkpt>
      <trkpt lat="47.26437" lon="6.08904">
        <ele>286</ele>
        <time>2021-09-30T10:17:28Z</time>
      </trkpt>
      <trkpt lat="47.26435" lon="6.08904">
        <ele>286.4</ele>
        <time>2021-09-30T10:17:29Z</time>
      </trkpt>
      <trkpt lat="47.26434" lon="6.08905">
        <ele>286.4</ele>
        <time>2021-09-30T10:17:30Z</time>
      </trkpt>
      <trkpt lat="47.26432" lon="6.08906">
        <ele>286.8</ele>
        <time>2021-09-30T10:17:31Z</time>
      </trkpt>
      <trkpt lat="47.2643" lon="6.08908">
        <ele>286.8</ele>
        <time>2021-09-30T10:17:32Z</time>
      </trkpt>
      <trkpt lat="47.26429" lon="6.08909">
        <ele>287.2</ele>
        <time>2021-09-30T10:17:33Z</time>
      </trkpt>
      <trkpt lat="47.26428" lon="6.08912">
        <ele>287.4</ele>
        <time>2021-09-30T10:17:34Z</time>
      </trkpt>
      <trkpt lat="47.26428" lon="6.08914">
        <ele>287.6</ele>
        <time>2021-09-30T10:17:35Z</time>
      </trkpt>
      <trkpt lat="47.26428" lon="6.08917">
        <ele>287.8</ele>
        <time>2021-09-30T10:17:36Z</time>
      </trkpt>
      <trkpt lat="47.26429" lon="6.0892">
        <ele>288.2</ele>
        <time>2021-09-30T10:17:37Z</time>
      </trkpt>
      <trkpt lat="47.2643" lon="6.08922">
        <ele>288.4</ele>
        <time>2021-09-30T10:17:38Z</time>
      </trkpt>
      <trkpt lat="47.26431" lon="6.08924">
        <ele>288.4</ele>
        <time>2021-09-30T10:17:39Z</time>
      </trkpt>
      <trkpt lat="47.26432" lon="6.08926">
        <ele>288.6</ele>
        <time>2021-09-30T10:17:40Z</time>
      </trkpt>
      <trkpt lat="47.26433" lon="6.08928">
        <ele>288.8</ele>
        <time>2021-09-30T10:17:41Z</time>
      </trkpt>
      <trkpt lat="47.26434" lon="6.08929">
        <ele>289</ele>
        <time>2021-09-30T10:17:42Z</time>
      </trkpt>
      <trkpt lat="47.26436" lon="6.0893">
        <ele>289</ele>
        <time>2021-09-30T10:17:43Z</time>
      </trkpt>
      <trkpt lat="47.26437" lon="6.08932">
        <ele>289.4</ele>
        <time>2021-09-30T10:17:44Z</time>
      </trkpt>
      <trkpt lat="47.26438" lon="6.08933">
        <ele>289.6</ele>
        <time>2021-09-30T10:17:45Z</time>
      </trkpt>
      <trkpt lat="47.26439" lon="6.08935">
        <ele>289.8</ele>
        <time>2021-09-30T10:17:46Z</time>
      </trkpt>
      <trkpt lat="47.26441" lon="6.08936">
        <ele>289.8</ele>
        <time>2021-09-30T10:17:47Z</time>
      </trkpt>
      <trkpt lat="47.26442" lon="6.08938">
        <ele>290</ele>
        <time>2021-09-30T10:17:48Z</time>
      </trkpt>
      <trkpt lat="47.26444" lon="6.0894">
        <ele>290.2</ele>
        <time>2021-09-30T10:17:49Z</time>
      </trkpt>
      <trkpt lat="47.26446" lon="6.08941">
        <ele>290.2</ele>
        <time>2021-09-30T10:17:50Z</time>
      </trkpt>
      <trkpt lat="47.26447" lon="6.08943">
        <ele>290.6</ele>
        <time>2021-09-30T10:17:51Z</time>
      </trkpt>
      <trkpt lat="47.26449" lon="6.08944">
        <ele>290.8</ele>
        <time>2021-09-30T10:17:52Z</time>
      </trkpt>
      <trkpt lat="47.2645" lon="6.08946">
        <ele>291</ele>
        <time>2021-09-30T10:17:53Z</time>
      </trkpt>
      <trkpt lat="47.26452" lon="6.08947">
        <ele>291</ele>
        <time>2021-09-30T10:17:54Z</time>
      </trkpt>
      <trkpt lat="47.26454" lon="6.08949">
        <ele>291.4</ele>
        <time>2021-09-30T10:17:55Z</time>
      </trkpt>
      <trkpt lat="47.26455" lon="6.08951">
        <ele>291.4</ele>
        <time>2021-09-30T10:17:56Z</time>
      </trkpt>
      <trkpt lat="47.26457" lon="6.08952">
        <ele>291.6</ele>
        <time>2021-09-30T10:17:57Z</time>
      </trkpt>
      <trkpt lat="47.26458" lon="6.08954">
        <ele>292</ele>
        <time>2021-09-30T10:17:58Z</time>
      </trkpt>
      <trkpt lat="47.2646" lon="6.08956">
        <ele>292.2</ele>
        <time>2021-09-30T10:17:59Z</time>
      </trkpt>
      <trkpt lat="47.26462" lon="6.08958">
        <ele>292.4</ele>
        <time>2021-09-30T10:18:00Z</time>
      </trkpt>
      <trkpt lat="47.26463" lon="6.08959">
        <ele>292.4</ele>
        <time>2021-09-30T10:18:01Z</time>
      </trkpt>
      <trkpt lat="47.26465" lon="6.08961">
        <ele>292.6</ele>
        <time>2021-09-30T10:18:02Z</time>
      </trkpt>
      <trkpt lat="47.26466" lon="6.08963">
        <ele>292.8</ele>
        <time>2021-09-30T10:18:03Z</time>
      </trkpt>
      <trkpt lat="47.26468" lon="6.08965">
        <ele>293</ele>
        <time>2021-09-30T10:18:04Z</time>
      </trkpt>
      <trkpt lat="47.26469" lon="6.08966">
        <ele>293.2</ele>
        <time>2021-09-30T10:18:05Z</time>
      </trkpt>
      <trkpt lat="47.26471" lon="6.08967">
        <ele>293.4</ele>
        <time>2021-09-30T10:18:06Z</time>
      </trkpt>
      <trkpt lat="47.26472" lon="6.08969">
        <ele>293.4</ele>
        <time>2021-09-30T10:18:07Z</time>
      </trkpt>
      <trkpt lat="47.26474" lon="6.08971">
        <ele>293.6</ele>
        <time>2021-09-30T10:18:08Z</time>
      </trkpt>
      <trkpt lat="47.26475" lon="6.08973">
        <ele>293.8</ele>
        <time>2021-09-30T10:18:09Z</time>
      </trkpt>
      <trkpt lat="47.26476" lon="6.08974">
        <ele>294</ele>
        <time>2021-09-30T10:18:10Z</time>
      </trkpt>
      <trkpt lat="47.26478" lon="6.08975">
        <ele>294</ele>
        <time>2021-09-30T10:18:11Z</time>
      </trkpt>
      <trkpt lat="47.26479" lon="6.08977">
        <ele>294.2</ele>
        <time>2021-09-30T10:18:12Z</time>
      </trkpt>
      <trkpt lat="47.26481" lon="6.08979">
        <ele>294.4</ele>
        <time>2021-09-30T10:18:13Z</time>
      </trkpt>
      <trkpt lat="47.26482" lon="6.08981">
        <ele>294.6</ele>
        <time>2021-09-30T10:18:14Z</time>
      </trkpt>
      <trkpt lat="47.26483" lon="6.08982">
        <ele>294.8</ele>
        <time>2021-09-30T10:18:15Z</time>
      </trkpt>
      <trkpt lat="47.26484" lon="6.08984">
        <ele>295.2</ele>
        <time>2021-09-30T10:18:16Z</time>
      </trkpt>
      <trkpt lat="47.26485" lon="6.08986">
        <ele>295.2</ele>
        <time>2021-09-30T10:18:17Z</time>
      </trkpt>
      <trkpt lat="47.26486" lon="6.08988">
        <ele>295.4</ele>
        <time>2021-09-30T10:18:18Z</time>
      </trkpt>
      <trkpt lat="47.26487" lon="6.0899">
        <ele>295.4</ele>
        <time>2021-09-30T10:18:19Z</time>
      </trkpt>
      <trkpt lat="47.26487" lon="6.08993">
        <ele>295.6</ele>
        <time>2021-09-30T10:18:20Z</time>
      </trkpt>
      <trkpt lat="47.26487" lon="6.08996">
        <ele>295.6</ele>
        <time>2021-09-30T10:18:21Z</time>
      </trkpt>
      <trkpt lat="47.26486" lon="6.08999">
        <ele>295.8</ele>
        <time>2021-09-30T10:18:22Z</time>
      </trkpt>
      <trkpt lat="47.26485" lon="6.09001">
        <ele>296</ele>
        <time>2021-09-30T10:18:23Z</time>
      </trkpt>
      <trkpt lat="47.26484" lon="6.09003">
        <ele>296.4</ele>
        <time>2021-09-30T10:18:24Z</time>
      </trkpt>
      <trkpt lat="47.26482" lon="6.09005">
        <ele>296.6</ele>
        <time>2021-09-30T10:18:25Z</time>
      </trkpt>
      <trkpt lat="47.2648" lon="6.09006">
        <ele>296.6</ele>
        <time>2021-09-30T10:18:26Z</time>
      </trkpt>
      <trkpt lat="47.26478" lon="6.09006">
        <ele>296.8</ele>
        <time>2021-09-30T10:18:27Z</time>
      </trkpt>
      <trkpt lat="47.26476" lon="6.09006">
        <ele>297.2</ele>
        <time>2021-09-30T10:18:28Z</time>
      </trkpt>
      <trkpt lat="47.26475" lon="6.09005">
        <ele>297.6</ele>
        <time>2021-09-30T10:18:29Z</time>
      </trkpt>
      <trkpt lat="47.26473" lon="6.09004">
        <ele>297.8</ele>
        <time>2021-09-30T10:18:30Z</time>
      </trkpt>
      <trkpt lat="47.26471" lon="6.09003">
        <ele>298.2</ele>
        <time>2021-09-30T10:18:31Z</time>
      </trkpt>
      <trkpt lat="47.2647" lon="6.09002">
        <ele>298.2</ele>
        <time>2021-09-30T10:18:32Z</time>
      </trkpt>
      <trkpt lat="47.26468" lon="6.09001">
        <ele>298.4</ele>
        <time>2021-09-30T10:18:33Z</time>
      </trkpt>
      <trkpt lat="47.26466" lon="6.09">
        <ele>298.6</ele>
        <time>2021-09-30T10:18:34Z</time>
      </trkpt>
      <trkpt lat="47.26464" lon="6.09">
        <ele>298.8</ele>
        <time>2021-09-30T10:18:35Z</time>
      </trkpt>
      <trkpt lat="47.26462" lon="6.08999">
        <ele>299</ele>
        <time>2021-09-30T10:18:36Z</time>
      </trkpt>
      <trkpt lat="47.26461" lon="6.08998">
        <ele>299.2</ele>
        <time>2021-09-30T10:18:37Z</time>
      </trkpt>
      <trkpt lat="47.26459" lon="6.08998">
        <ele>299.4</ele>
        <time>2021-09-30T10:18:38Z</time>
      </trkpt>
      <trkpt lat="47.26457" lon="6.08998">
        <ele>299.4</ele>
        <time>2021-09-30T10:18:39Z</time>
      </trkpt>
      <trkpt lat="47.26455" lon="6.08998">
        <ele>299.6</ele>
        <time>2021-09-30T10:18:40Z</time>
      </trkpt>
      <trkpt lat="47.26453" lon="6.08998">
        <ele>299.8</ele>
        <time>2021-09-30T10:18:41Z</time>
      </trkpt>
      <trkpt lat="47.2645" lon="6.08998">
        <ele>299.8</ele>
        <time>2021-09-30T10:18:42Z</time>
      </trkpt>
      <trkpt lat="47.26448" lon="6.08997">
        <ele>300</ele>
        <time>2021-09-30T10:18:43Z</time>
      </trkpt>
      <trkpt lat="47.26446" lon="6.08998">
        <ele>300.2</ele>
        <time>2021-09-30T10:18:44Z</time>
      </trkpt>
      <trkpt lat="47.26445" lon="6.08998">
        <ele>300.4</ele>
        <time>2021-09-30T10:18:45Z</time>
      </trkpt>
      <trkpt lat="47.26442" lon="6.08999">
        <ele>300.6</ele>
        <time>2021-09-30T10:18:46Z</time>
      </trkpt>
      <trkpt lat="47.26441" lon="6.09">
        <ele>300.6</ele>
        <time>2021-09-30T10:18:47Z</time>
      </trkpt>
      <trkpt lat="47.26439" lon="6.09001">
        <ele>300.8</ele>
        <time>2021-09-30T10:18:48Z</time>
      </trkpt>
      <trkpt lat="47.26437" lon="6.09002">
        <ele>301</ele>
        <time>2021-09-30T10:18:49Z</time>
      </trkpt>
      <trkpt lat="47.26435" lon="6.09003">
        <ele>301</ele>
        <time>2021-09-30T10:18:50Z</time>
      </trkpt>
      <trkpt lat="47.26433" lon="6.09005">
        <ele>301</ele>
        <time>2021-09-30T10:18:51Z</time>
      </trkpt>
      <trkpt lat="47.26431" lon="6.09006">
        <ele>301.2</ele>
        <time>2021-09-30T10:18:52Z</time>
      </trkpt>
      <trkpt lat="47.26429" lon="6.09007">
        <ele>301.4</ele>
        <time>2021-09-30T10:18:53Z</time>
      </trkpt>
      <trkpt lat="47.26427" lon="6.09009">
        <ele>301.4</ele>
        <time>2021-09-30T10:18:54Z</time>
      </trkpt>
      <trkpt lat="47.26426" lon="6.09011">
        <ele>301.6</ele>
        <time>2021-09-30T10:18:55Z</time>
      </trkpt>
      <trkpt lat="47.26424" lon="6.09012">
        <ele>301.6</ele>
        <time>2021-09-30T10:18:56Z</time>
      </trkpt>
      <trkpt lat="47.26422" lon="6.09015">
        <ele>301.6</ele>
        <time>2021-09-30T10:18:57Z</time>
      </trkpt>
      <trkpt lat="47.26421" lon="6.09017">
        <ele>301.8</ele>
        <time>2021-09-30T10:18:58Z</time>
      </trkpt>
      <trkpt lat="47.26419" lon="6.09019">
        <ele>301.8</ele>
        <time>2021-09-30T10:18:59Z</time>
      </trkpt>
      <trkpt lat="47.26418" lon="6.09022">
        <ele>302</ele>
        <time>2021-09-30T10:19:00Z</time>
      </trkpt>
      <trkpt lat="47.26416" lon="6.09024">
        <ele>302</ele>
        <time>2021-09-30T10:19:01Z</time>
      </trkpt>
      <trkpt lat="47.26414" lon="6.09027">
        <ele>302</ele>
        <time>2021-09-30T10:19:02Z</time>
      </trkpt>
      <trkpt lat="47.26413" lon="6.09029">
        <ele>302.2</ele>
        <time>2021-09-30T10:19:03Z</time>
      </trkpt>
      <trkpt lat="47.26411" lon="6.09032">
        <ele>302.2</ele>
        <time>2021-09-30T10:19:04Z</time>
      </trkpt>
      <trkpt lat="47.26409" lon="6.09034">
        <ele>302.4</ele>
        <time>2021-09-30T10:19:05Z</time>
      </trkpt>
      <trkpt lat="47.26408" lon="6.09036">
        <ele>302.4</ele>
        <time>2021-09-30T10:19:06Z</time>
      </trkpt>
      <trkpt lat="47.26406" lon="6.09038">
        <ele>302.4</ele>
        <time>2021-09-30T10:19:07Z</time>
      </trkpt>
      <trkpt lat="47.26404" lon="6.09041">
        <ele>302.6</ele>
        <time>2021-09-30T10:19:08Z</time>
      </trkpt>
      <trkpt lat="47.26403" lon="6.09043">
        <ele>302.6</ele>
        <time>2021-09-30T10:19:09Z</time>
      </trkpt>
      <trkpt lat="47.26402" lon="6.09045">
        <ele>302.6</ele>
        <time>2021-09-30T10:19:10Z</time>
      </trkpt>
      <trkpt lat="47.26401" lon="6.09047">
        <ele>302.8</ele>
        <time>2021-09-30T10:19:11Z</time>
      </trkpt>
      <trkpt lat="47.26399" lon="6.09049">
        <ele>302.8</ele>
        <time>2021-09-30T10:19:12Z</time>
      </trkpt>
      <trkpt lat="47.26398" lon="6.09051">
        <ele>302.8</ele>
        <time>2021-09-30T10:19:13Z</time>
      </trkpt>
      <trkpt lat="47.26396" lon="6.09053">
        <ele>303</ele>
        <time>2021-09-30T10:19:14Z</time>
      </trkpt>
      <trkpt lat="47.26394" lon="6.09056">
        <ele>303</ele>
        <time>2021-09-30T10:19:15Z</time>
      </trkpt>
      <trkpt lat="47.2639" lon="6.09062">
        <ele>303.2</ele>
        <time>2021-09-30T10:19:18Z</time>
      </trkpt>
      <trkpt lat="47.26387" lon="6.09068">
        <ele>303.4</ele>
        <time>2021-09-30T10:19:20Z</time>
      </trkpt>
      <trkpt lat="47.26382" lon="6.09074">
        <ele>303.6</ele>
        <time>2021-09-30T10:19:23Z</time>
      </trkpt>
      <trkpt lat="47.26371" lon="6.09088">
        <ele>304</ele>
        <time>2021-09-30T10:19:30Z</time>
      </trkpt>
      <trkpt lat="47.26369" lon="6.0909">
        <ele>304</ele>
        <time>2021-09-30T10:19:31Z</time>
      </trkpt>
      <trkpt lat="47.26365" lon="6.09096">
        <ele>304.4</ele>
        <time>2021-09-30T10:19:34Z</time>
      </trkpt>
      <trkpt lat="47.26364" lon="6.09098">
        <ele>304.4</ele>
        <time>2021-09-30T10:19:35Z</time>
      </trkpt>
      <trkpt lat="47.26362" lon="6.09101">
        <ele>304.8</ele>
        <time>2021-09-30T10:19:36Z</time>
      </trkpt>
      <trkpt lat="47.26361" lon="6.09103">
        <ele>304.8</ele>
        <time>2021-09-30T10:19:37Z</time>
      </trkpt>
      <trkpt lat="47.26356" lon="6.09109">
        <ele>305</ele>
        <time>2021-09-30T10:19:40Z</time>
      </trkpt>
      <trkpt lat="47.26355" lon="6.09111">
        <ele>305</ele>
        <time>2021-09-30T10:19:41Z</time>
      </trkpt>
      <trkpt lat="47.2635" lon="6.09122">
        <ele>305.4</ele>
        <time>2021-09-30T10:19:45Z</time>
      </trkpt>
      <trkpt lat="47.26339" lon="6.09154">
        <ele>306.6</ele>
        <time>2021-09-30T10:19:56Z</time>
      </trkpt>
      <trkpt lat="47.26338" lon="6.09157">
        <ele>306.6</ele>
        <time>2021-09-30T10:19:57Z</time>
      </trkpt>
      <trkpt lat="47.26336" lon="6.09162">
        <ele>307</ele>
        <time>2021-09-30T10:19:59Z</time>
      </trkpt>
      <trkpt lat="47.26334" lon="6.09171">
        <ele>307.2</ele>
        <time>2021-09-30T10:20:02Z</time>
      </trkpt>
      <trkpt lat="47.26331" lon="6.09184">
        <ele>307.6</ele>
        <time>2021-09-30T10:20:06Z</time>
      </trkpt>
      <trkpt lat="47.26331" lon="6.09187">
        <ele>307.8</ele>
        <time>2021-09-30T10:20:07Z</time>
      </trkpt>
      <trkpt lat="47.2633" lon="6.0919">
        <ele>307.8</ele>
        <time>2021-09-30T10:20:08Z</time>
      </trkpt>
      <trkpt lat="47.2633" lon="6.09194">
        <ele>308.2</ele>
        <time>2021-09-30T10:20:09Z</time>
      </trkpt>
      <trkpt lat="47.26329" lon="6.09197">
        <ele>308.2</ele>
        <time>2021-09-30T10:20:10Z</time>
      </trkpt>
      <trkpt lat="47.26328" lon="6.092">
        <ele>308.4</ele>
        <time>2021-09-30T10:20:11Z</time>
      </trkpt>
      <trkpt lat="47.26328" lon="6.09204">
        <ele>308.4</ele>
        <time>2021-09-30T10:20:12Z</time>
      </trkpt>
      <trkpt lat="47.26327" lon="6.09207">
        <ele>308.6</ele>
        <time>2021-09-30T10:20:13Z</time>
      </trkpt>
      <trkpt lat="47.26326" lon="6.0921">
        <ele>308.6</ele>
        <time>2021-09-30T10:20:14Z</time>
      </trkpt>
      <trkpt lat="47.26326" lon="6.09213">
        <ele>308.8</ele>
        <time>2021-09-30T10:20:15Z</time>
      </trkpt>
      <trkpt lat="47.26326" lon="6.09217">
        <ele>308.8</ele>
        <time>2021-09-30T10:20:16Z</time>
      </trkpt>
      <trkpt lat="47.26325" lon="6.0922">
        <ele>309</ele>
        <time>2021-09-30T10:20:17Z</time>
      </trkpt>
      <trkpt lat="47.26325" lon="6.09223">
        <ele>309.2</ele>
        <time>2021-09-30T10:20:18Z</time>
      </trkpt>
      <trkpt lat="47.26324" lon="6.09227">
        <ele>309.4</ele>
        <time>2021-09-30T10:20:19Z</time>
      </trkpt>
      <trkpt lat="47.26323" lon="6.0923">
        <ele>309.4</ele>
        <time>2021-09-30T10:20:20Z</time>
      </trkpt>
      <trkpt lat="47.26323" lon="6.09233">
        <ele>309.6</ele>
        <time>2021-09-30T10:20:21Z</time>
      </trkpt>
      <trkpt lat="47.26322" lon="6.09237">
        <ele>309.6</ele>
        <time>2021-09-30T10:20:22Z</time>
      </trkpt>
      <trkpt lat="47.26322" lon="6.0924">
        <ele>309.8</ele>
        <time>2021-09-30T10:20:23Z</time>
      </trkpt>
      <trkpt lat="47.26321" lon="6.09243">
        <ele>310</ele>
        <time>2021-09-30T10:20:24Z</time>
      </trkpt>
      <trkpt lat="47.26321" lon="6.09245">
        <ele>310</ele>
        <time>2021-09-30T10:20:25Z</time>
      </trkpt>
      <trkpt lat="47.2632" lon="6.09248">
        <ele>310.2</ele>
        <time>2021-09-30T10:20:26Z</time>
      </trkpt>
      <trkpt lat="47.26319" lon="6.09251">
        <ele>310.4</ele>
        <time>2021-09-30T10:20:27Z</time>
      </trkpt>
      <trkpt lat="47.26318" lon="6.09253">
        <ele>310.6</ele>
        <time>2021-09-30T10:20:28Z</time>
      </trkpt>
      <trkpt lat="47.26317" lon="6.09256">
        <ele>310.8</ele>
        <time>2021-09-30T10:20:29Z</time>
      </trkpt>
      <trkpt lat="47.26316" lon="6.09259">
        <ele>311</ele>
        <time>2021-09-30T10:20:30Z</time>
      </trkpt>
      <trkpt lat="47.26315" lon="6.09262">
        <ele>311</ele>
        <time>2021-09-30T10:20:31Z</time>
      </trkpt>
      <trkpt lat="47.26314" lon="6.09265">
        <ele>311.2</ele>
        <time>2021-09-30T10:20:32Z</time>
      </trkpt>
      <trkpt lat="47.26314" lon="6.09268">
        <ele>311.2</ele>
        <time>2021-09-30T10:20:33Z</time>
      </trkpt>
      <trkpt lat="47.26313" lon="6.09271">
        <ele>311.4</ele>
        <time>2021-09-30T10:20:34Z</time>
      </trkpt>
      <trkpt lat="47.26312" lon="6.09273">
        <ele>311.4</ele>
        <time>2021-09-30T10:20:35Z</time>
      </trkpt>
      <trkpt lat="47.26311" lon="6.09276">
        <ele>311.6</ele>
        <time>2021-09-30T10:20:36Z</time>
      </trkpt>
      <trkpt lat="47.2631" lon="6.09279">
        <ele>311.8</ele>
        <time>2021-09-30T10:20:37Z</time>
      </trkpt>
      <trkpt lat="47.26309" lon="6.09283">
        <ele>311.8</ele>
        <time>2021-09-30T10:20:38Z</time>
      </trkpt>
      <trkpt lat="47.26308" lon="6.09286">
        <ele>312</ele>
        <time>2021-09-30T10:20:39Z</time>
      </trkpt>
      <trkpt lat="47.26307" lon="6.09289">
        <ele>312</ele>
        <time>2021-09-30T10:20:40Z</time>
      </trkpt>
      <trkpt lat="47.26306" lon="6.09291">
        <ele>312.2</ele>
        <time>2021-09-30T10:20:41Z</time>
      </trkpt>
      <trkpt lat="47.26305" lon="6.09294">
        <ele>312.2</ele>
        <time>2021-09-30T10:20:42Z</time>
      </trkpt>
      <trkpt lat="47.26304" lon="6.09297">
        <ele>312.4</ele>
        <time>2021-09-30T10:20:43Z</time>
      </trkpt>
      <trkpt lat="47.26303" lon="6.093">
        <ele>312.6</ele>
        <time>2021-09-30T10:20:44Z</time>
      </trkpt>
      <trkpt lat="47.26302" lon="6.09304">
        <ele>312.8</ele>
        <time>2021-09-30T10:20:45Z</time>
      </trkpt>
      <trkpt lat="47.26301" lon="6.09307">
        <ele>313</ele>
        <time>2021-09-30T10:20:46Z</time>
      </trkpt>
      <trkpt lat="47.263" lon="6.09309">
        <ele>313</ele>
        <time>2021-09-30T10:20:47Z</time>
      </trkpt>
      <trkpt lat="47.263" lon="6.09312">
        <ele>313.2</ele>
        <time>2021-09-30T10:20:48Z</time>
      </trkpt>
      <trkpt lat="47.26299" lon="6.09315">
        <ele>313.2</ele>
        <time>2021-09-30T10:20:49Z</time>
      </trkpt>
      <trkpt lat="47.26299" lon="6.09318">
        <ele>313.4</ele>
        <time>2021-09-30T10:20:50Z</time>
      </trkpt>
      <trkpt lat="47.26298" lon="6.0932">
        <ele>313.4</ele>
        <time>2021-09-30T10:20:51Z</time>
      </trkpt>
      <trkpt lat="47.26297" lon="6.09323">
        <ele>313.6</ele>
        <time>2021-09-30T10:20:52Z</time>
      </trkpt>
      <trkpt lat="47.26296" lon="6.09325">
        <ele>313.8</ele>
        <time>2021-09-30T10:20:53Z</time>
      </trkpt>
      <trkpt lat="47.26296" lon="6.09328">
        <ele>314</ele>
        <time>2021-09-30T10:20:54Z</time>
      </trkpt>
      <trkpt lat="47.26295" lon="6.09331">
        <ele>314.2</ele>
        <time>2021-09-30T10:20:55Z</time>
      </trkpt>
      <trkpt lat="47.26295" lon="6.09333">
        <ele>314.6</ele>
        <time>2021-09-30T10:20:56Z</time>
      </trkpt>
      <trkpt lat="47.26294" lon="6.09336">
        <ele>314.8</ele>
        <time>2021-09-30T10:20:57Z</time>
      </trkpt>
      <trkpt lat="47.26294" lon="6.09339">
        <ele>314.8</ele>
        <time>2021-09-30T10:20:58Z</time>
      </trkpt>
      <trkpt lat="47.26293" lon="6.09342">
        <ele>315</ele>
        <time>2021-09-30T10:20:59Z</time>
      </trkpt>
      <trkpt lat="47.26292" lon="6.09345">
        <ele>315.2</ele>
        <time>2021-09-30T10:21:00Z</time>
      </trkpt>
      <trkpt lat="47.26291" lon="6.09347">
        <ele>315.6</ele>
        <time>2021-09-30T10:21:01Z</time>
      </trkpt>
      <trkpt lat="47.2629" lon="6.0935">
        <ele>315.6</ele>
        <time>2021-09-30T10:21:02Z</time>
      </trkpt>
      <trkpt lat="47.26289" lon="6.09352">
        <ele>316</ele>
        <time>2021-09-30T10:21:03Z</time>
      </trkpt>
      <trkpt lat="47.26288" lon="6.09355">
        <ele>316</ele>
        <time>2021-09-30T10:21:04Z</time>
      </trkpt>
      <trkpt lat="47.26288" lon="6.09357">
        <ele>316.2</ele>
        <time>2021-09-30T10:21:05Z</time>
      </trkpt>
      <trkpt lat="47.26287" lon="6.0936">
        <ele>316.4</ele>
        <time>2021-09-30T10:21:06Z</time>
      </trkpt>
      <trkpt lat="47.26286" lon="6.09363">
        <ele>316.6</ele>
        <time>2021-09-30T10:21:07Z</time>
      </trkpt>
      <trkpt lat="47.26285" lon="6.09366">
        <ele>316.6</ele>
        <time>2021-09-30T10:21:08Z</time>
      </trkpt>
      <trkpt lat="47.26284" lon="6.09369">
        <ele>316.8</ele>
        <time>2021-09-30T10:21:09Z</time>
      </trkpt>
      <trkpt lat="47.26284" lon="6.09371">
        <ele>317</ele>
        <time>2021-09-30T10:21:10Z</time>
      </trkpt>
      <trkpt lat="47.26283" lon="6.09373">
        <ele>317.2</ele>
        <time>2021-09-30T10:21:11Z</time>
      </trkpt>
      <trkpt lat="47.26282" lon="6.09376">
        <ele>317.4</ele>
        <time>2021-09-30T10:21:12Z</time>
      </trkpt>
      <trkpt lat="47.26281" lon="6.09379">
        <ele>317.4</ele>
        <time>2021-09-30T10:21:13Z</time>
      </trkpt>
      <trkpt lat="47.2628" lon="6.09381">
        <ele>317.6</ele>
        <time>2021-09-30T10:21:14Z</time>
      </trkpt>
      <trkpt lat="47.26279" lon="6.09384">
        <ele>317.8</ele>
        <time>2021-09-30T10:21:15Z</time>
      </trkpt>
      <trkpt lat="47.26278" lon="6.09387">
        <ele>317.8</ele>
        <time>2021-09-30T10:21:16Z</time>
      </trkpt>
      <trkpt lat="47.26278" lon="6.09389">
        <ele>318</ele>
        <time>2021-09-30T10:21:17Z</time>
      </trkpt>
      <trkpt lat="47.26277" lon="6.09392">
        <ele>318.2</ele>
        <time>2021-09-30T10:21:18Z</time>
      </trkpt>
      <trkpt lat="47.26276" lon="6.09394">
        <ele>318.4</ele>
        <time>2021-09-30T10:21:19Z</time>
      </trkpt>
      <trkpt lat="47.26275" lon="6.09397">
        <ele>318.6</ele>
        <time>2021-09-30T10:21:20Z</time>
      </trkpt>
      <trkpt lat="47.26274" lon="6.094">
        <ele>319</ele>
        <time>2021-09-30T10:21:21Z</time>
      </trkpt>
      <trkpt lat="47.26272" lon="6.09402">
        <ele>319</ele>
        <time>2021-09-30T10:21:22Z</time>
      </trkpt>
      <trkpt lat="47.26271" lon="6.09403">
        <ele>319.4</ele>
        <time>2021-09-30T10:21:23Z</time>
      </trkpt>
      <trkpt lat="47.26269" lon="6.09405">
        <ele>319.6</ele>
        <time>2021-09-30T10:21:24Z</time>
      </trkpt>
      <trkpt lat="47.26268" lon="6.09406">
        <ele>319.8</ele>
        <time>2021-09-30T10:21:25Z</time>
      </trkpt>
      <trkpt lat="47.26266" lon="6.09407">
        <ele>320.2</ele>
        <time>2021-09-30T10:21:26Z</time>
      </trkpt>
      <trkpt lat="47.26265" lon="6.09408">
        <ele>320.2</ele>
        <time>2021-09-30T10:21:27Z</time>
      </trkpt>
      <trkpt lat="47.26263" lon="6.09409">
        <ele>320.4</ele>
        <time>2021-09-30T10:21:28Z</time>
      </trkpt>
      <trkpt lat="47.26261" lon="6.0941">
        <ele>320.6</ele>
        <time>2021-09-30T10:21:29Z</time>
      </trkpt>
      <trkpt lat="47.2626" lon="6.09411">
        <ele>321</ele>
        <time>2021-09-30T10:21:30Z</time>
      </trkpt>
      <trkpt lat="47.26258" lon="6.09411">
        <ele>321</ele>
        <time>2021-09-30T10:21:31Z</time>
      </trkpt>
      <trkpt lat="47.26257" lon="6.09412">
        <ele>321.4</ele>
        <time>2021-09-30T10:21:32Z</time>
      </trkpt>
      <trkpt lat="47.26255" lon="6.09412">
        <ele>321.8</ele>
        <time>2021-09-30T10:21:33Z</time>
      </trkpt>
      <trkpt lat="47.26253" lon="6.09412">
        <ele>321.8</ele>
        <time>2021-09-30T10:21:34Z</time>
      </trkpt>
      <trkpt lat="47.26251" lon="6.09412">
        <ele>322.2</ele>
        <time>2021-09-30T10:21:35Z</time>
      </trkpt>
      <trkpt lat="47.26249" lon="6.09412">
        <ele>322.4</ele>
        <time>2021-09-30T10:21:36Z</time>
      </trkpt>
      <trkpt lat="47.26247" lon="6.09411">
        <ele>322.6</ele>
        <time>2021-09-30T10:21:37Z</time>
      </trkpt>
      <trkpt lat="47.26245" lon="6.09411">
        <ele>322.8</ele>
        <time>2021-09-30T10:21:38Z</time>
      </trkpt>
      <trkpt lat="47.26244" lon="6.09411">
        <ele>323.2</ele>
        <time>2021-09-30T10:21:39Z</time>
      </trkpt>
      <trkpt lat="47.26242" lon="6.09411">
        <ele>323.2</ele>
        <time>2021-09-30T10:21:40Z</time>
      </trkpt>
      <trkpt lat="47.2624" lon="6.09411">
        <ele>323.4</ele>
        <time>2021-09-30T10:21:41Z</time>
      </trkpt>
      <trkpt lat="47.26238" lon="6.0941">
        <ele>323.6</ele>
        <time>2021-09-30T10:21:42Z</time>
      </trkpt>
      <trkpt lat="47.26236" lon="6.0941">
        <ele>323.8</ele>
        <time>2021-09-30T10:21:43Z</time>
      </trkpt>
      <trkpt lat="47.26234" lon="6.09409">
        <ele>324</ele>
        <time>2021-09-30T10:21:44Z</time>
      </trkpt>
      <trkpt lat="47.26232" lon="6.09409">
        <ele>324.2</ele>
        <time>2021-09-30T10:21:45Z</time>
      </trkpt>
      <trkpt lat="47.2623" lon="6.09408">
        <ele>324.2</ele>
        <time>2021-09-30T10:21:46Z</time>
      </trkpt>
      <trkpt lat="47.26228" lon="6.09408">
        <ele>324.4</ele>
        <time>2021-09-30T10:21:47Z</time>
      </trkpt>
      <trkpt lat="47.26226" lon="6.09408">
        <ele>324.6</ele>
        <time>2021-09-30T10:21:48Z</time>
      </trkpt>
      <trkpt lat="47.26224" lon="6.09407">
        <ele>324.6</ele>
        <time>2021-09-30T10:21:49Z</time>
      </trkpt>
      <trkpt lat="47.26222" lon="6.09407">
        <ele>324.8</ele>
        <time>2021-09-30T10:21:50Z</time>
      </trkpt>
      <trkpt lat="47.26221" lon="6.09407">
        <ele>325</ele>
        <time>2021-09-30T10:21:51Z</time>
      </trkpt>
      <trkpt lat="47.26219" lon="6.09407">
        <ele>325.2</ele>
        <time>2021-09-30T10:21:52Z</time>
      </trkpt>
      <trkpt lat="47.26217" lon="6.09407">
        <ele>325.2</ele>
        <time>2021-09-30T10:21:53Z</time>
      </trkpt>
      <trkpt lat="47.26214" lon="6.09406">
        <ele>325.4</ele>
        <time>2021-09-30T10:21:54Z</time>
      </trkpt>
      <trkpt lat="47.26213" lon="6.09406">
        <ele>325.6</ele>
        <time>2021-09-30T10:21:55Z</time>
      </trkpt>
      <trkpt lat="47.26211" lon="6.09405">
        <ele>325.6</ele>
        <time>2021-09-30T10:21:56Z</time>
      </trkpt>
      <trkpt lat="47.2621" lon="6.09405">
        <ele>325.8</ele>
        <time>2021-09-30T10:21:57Z</time>
      </trkpt>
      <trkpt lat="47.26208" lon="6.09405">
        <ele>325.8</ele>
        <time>2021-09-30T10:21:58Z</time>
      </trkpt>
      <trkpt lat="47.26206" lon="6.09405">
        <ele>326.2</ele>
        <time>2021-09-30T10:21:59Z</time>
      </trkpt>
      <trkpt lat="47.26204" lon="6.09405">
        <ele>326.2</ele>
        <time>2021-09-30T10:22:00Z</time>
      </trkpt>
      <trkpt lat="47.26203" lon="6.09405">
        <ele>326.4</ele>
        <time>2021-09-30T10:22:01Z</time>
      </trkpt>
      <trkpt lat="47.26201" lon="6.09405">
        <ele>326.6</ele>
        <time>2021-09-30T10:22:02Z</time>
      </trkpt>
      <trkpt lat="47.26199" lon="6.09405">
        <ele>326.8</ele>
        <time>2021-09-30T10:22:03Z</time>
      </trkpt>
      <trkpt lat="47.26198" lon="6.09404">
        <ele>327</ele>
        <time>2021-09-30T10:22:04Z</time>
      </trkpt>
      <trkpt lat="47.26196" lon="6.09404">
        <ele>327.2</ele>
        <time>2021-09-30T10:22:05Z</time>
      </trkpt>
      <trkpt lat="47.26194" lon="6.09403">
        <ele>327.6</ele>
        <time>2021-09-30T10:22:06Z</time>
      </trkpt>
      <trkpt lat="47.26193" lon="6.09403">
        <ele>327.6</ele>
        <time>2021-09-30T10:22:07Z</time>
      </trkpt>
      <trkpt lat="47.26191" lon="6.09402">
        <ele>328</ele>
        <time>2021-09-30T10:22:08Z</time>
      </trkpt>
      <trkpt lat="47.26189" lon="6.09401">
        <ele>328</ele>
        <time>2021-09-30T10:22:09Z</time>
      </trkpt>
      <trkpt lat="47.26187" lon="6.094">
        <ele>328.2</ele>
        <time>2021-09-30T10:22:10Z</time>
      </trkpt>
      <trkpt lat="47.26186" lon="6.094">
        <ele>328.6</ele>
        <time>2021-09-30T10:22:11Z</time>
      </trkpt>
      <trkpt lat="47.26184" lon="6.09399">
        <ele>328.8</ele>
        <time>2021-09-30T10:22:12Z</time>
      </trkpt>
      <trkpt lat="47.26182" lon="6.09399">
        <ele>329.2</ele>
        <time>2021-09-30T10:22:13Z</time>
      </trkpt>
      <trkpt lat="47.2618" lon="6.09399">
        <ele>329.4</ele>
        <time>2021-09-30T10:22:14Z</time>
      </trkpt>
      <trkpt lat="47.26178" lon="6.09398">
        <ele>329.6</ele>
        <time>2021-09-30T10:22:15Z</time>
      </trkpt>
      <trkpt lat="47.26176" lon="6.09398">
        <ele>329.8</ele>
        <time>2021-09-30T10:22:16Z</time>
      </trkpt>
      <trkpt lat="47.26174" lon="6.09398">
        <ele>330</ele>
        <time>2021-09-30T10:22:17Z</time>
      </trkpt>
      <trkpt lat="47.26172" lon="6.09398">
        <ele>330.4</ele>
        <time>2021-09-30T10:22:18Z</time>
      </trkpt>
      <trkpt lat="47.2617" lon="6.09398">
        <ele>330.6</ele>
        <time>2021-09-30T10:22:19Z</time>
      </trkpt>
      <trkpt lat="47.26168" lon="6.09398">
        <ele>330.8</ele>
        <time>2021-09-30T10:22:20Z</time>
      </trkpt>
      <trkpt lat="47.26166" lon="6.09398">
        <ele>330.8</ele>
        <time>2021-09-30T10:22:21Z</time>
      </trkpt>
      <trkpt lat="47.26164" lon="6.09398">
        <ele>331.2</ele>
        <time>2021-09-30T10:22:22Z</time>
      </trkpt>
      <trkpt lat="47.26162" lon="6.09397">
        <ele>331.2</ele>
        <time>2021-09-30T10:22:23Z</time>
      </trkpt>
      <trkpt lat="47.2616" lon="6.09396">
        <ele>331.6</ele>
        <time>2021-09-30T10:22:24Z</time>
      </trkpt>
      <trkpt lat="47.26158" lon="6.09396">
        <ele>331.6</ele>
        <time>2021-09-30T10:22:25Z</time>
      </trkpt>
      <trkpt lat="47.26156" lon="6.09397">
        <ele>331.8</ele>
        <time>2021-09-30T10:22:26Z</time>
      </trkpt>
      <trkpt lat="47.26155" lon="6.09397">
        <ele>331.8</ele>
        <time>2021-09-30T10:22:27Z</time>
      </trkpt>
      <trkpt lat="47.26155" lon="6.09398">
        <ele>332</ele>
        <time>2021-09-30T10:22:28Z</time>
      </trkpt>
      <trkpt lat="47.26155" lon="6.09399">
        <ele>332.2</ele>
        <time>2021-09-30T10:22:29Z</time>
      </trkpt>
      <trkpt lat="47.26155" lon="6.09399">
        <ele>332.4</ele>
        <time>2021-09-30T10:22:30Z</time>
      </trkpt>
      <trkpt lat="47.26155" lon="6.09399">
        <ele>333</ele>
        <time>2021-09-30T10:22:34Z</time>
      </trkpt>
      <trkpt lat="47.26155" lon="6.09399">
        <ele>333.2</ele>
        <time>2021-09-30T10:22:35Z</time>
      </trkpt>
      <trkpt lat="47.26155" lon="6.09399">
        <ele>333.2</ele>
        <time>2021-09-30T10:22:42Z</time>
      </trkpt>
      <trkpt lat="47.26155" lon="6.09399">
        <ele>333</ele>
        <time>2021-09-30T10:22:58Z</time>
      </trkpt>
      <trkpt lat="47.26154" lon="6.09399">
        <ele>332.6</ele>
        <time>2021-09-30T10:23:49Z</time>
      </trkpt>
      <trkpt lat="47.26154" lon="6.09407">
        <ele>332.8</ele>
        <time>2021-09-30T10:24:28Z</time>
      </trkpt>
      <trkpt lat="47.26156" lon="6.09423">
        <ele>333</ele>
        <time>2021-09-30T10:24:33Z</time>
      </trkpt>
      <trkpt lat="47.26157" lon="6.09426">
        <ele>333</ele>
        <time>2021-09-30T10:24:34Z</time>
      </trkpt>
      <trkpt lat="47.26162" lon="6.09433">
        <ele>333.2</ele>
        <time>2021-09-30T10:24:37Z</time>
      </trkpt>
      <trkpt lat="47.26163" lon="6.09435">
        <ele>333.2</ele>
        <time>2021-09-30T10:24:38Z</time>
      </trkpt>
      <trkpt lat="47.26165" lon="6.09436">
        <ele>333.4</ele>
        <time>2021-09-30T10:24:39Z</time>
      </trkpt>
      <trkpt lat="47.26166" lon="6.09438">
        <ele>333.6</ele>
        <time>2021-09-30T10:24:40Z</time>
      </trkpt>
      <trkpt lat="47.26172" lon="6.09441">
        <ele>333.8</ele>
        <time>2021-09-30T10:24:43Z</time>
      </trkpt>
      <trkpt lat="47.26173" lon="6.09442">
        <ele>334</ele>
        <time>2021-09-30T10:24:44Z</time>
      </trkpt>
      <trkpt lat="47.26176" lon="6.09444">
        <ele>334.4</ele>
        <time>2021-09-30T10:24:45Z</time>
      </trkpt>
      <trkpt lat="47.26178" lon="6.09445">
        <ele>334.4</ele>
        <time>2021-09-30T10:24:46Z</time>
      </trkpt>
      <trkpt lat="47.26179" lon="6.09446">
        <ele>334.6</ele>
        <time>2021-09-30T10:24:47Z</time>
      </trkpt>
      <trkpt lat="47.26191" lon="6.09453">
        <ele>335.4</ele>
        <time>2021-09-30T10:24:53Z</time>
      </trkpt>
      <trkpt lat="47.26193" lon="6.09454">
        <ele>335.4</ele>
        <time>2021-09-30T10:24:54Z</time>
      </trkpt>
      <trkpt lat="47.26195" lon="6.09455">
        <ele>335.6</ele>
        <time>2021-09-30T10:24:55Z</time>
      </trkpt>
      <trkpt lat="47.26196" lon="6.09456">
        <ele>335.6</ele>
        <time>2021-09-30T10:24:56Z</time>
      </trkpt>
      <trkpt lat="47.26198" lon="6.09457">
        <ele>335.6</ele>
        <time>2021-09-30T10:24:57Z</time>
      </trkpt>
      <trkpt lat="47.26199" lon="6.09459">
        <ele>335.8</ele>
        <time>2021-09-30T10:24:58Z</time>
      </trkpt>
      <trkpt lat="47.262" lon="6.0946">
        <ele>335.8</ele>
        <time>2021-09-30T10:24:59Z</time>
      </trkpt>
      <trkpt lat="47.26202" lon="6.09461">
        <ele>336.2</ele>
        <time>2021-09-30T10:25:00Z</time>
      </trkpt>
      <trkpt lat="47.26203" lon="6.09462">
        <ele>336.2</ele>
        <time>2021-09-30T10:25:01Z</time>
      </trkpt>
      <trkpt lat="47.26204" lon="6.09464">
        <ele>336.4</ele>
        <time>2021-09-30T10:25:02Z</time>
      </trkpt>
      <trkpt lat="47.26206" lon="6.09466">
        <ele>336.6</ele>
        <time>2021-09-30T10:25:03Z</time>
      </trkpt>
      <trkpt lat="47.26207" lon="6.09467">
        <ele>336.8</ele>
        <time>2021-09-30T10:25:04Z</time>
      </trkpt>
      <trkpt lat="47.26209" lon="6.09468">
        <ele>337</ele>
        <time>2021-09-30T10:25:05Z</time>
      </trkpt>
      <trkpt lat="47.2621" lon="6.09469">
        <ele>337.2</ele>
        <time>2021-09-30T10:25:06Z</time>
      </trkpt>
      <trkpt lat="47.26212" lon="6.0947">
        <ele>337.2</ele>
        <time>2021-09-30T10:25:07Z</time>
      </trkpt>
      <trkpt lat="47.26213" lon="6.09472">
        <ele>337.4</ele>
        <time>2021-09-30T10:25:08Z</time>
      </trkpt>
      <trkpt lat="47.26214" lon="6.09474">
        <ele>337.6</ele>
        <time>2021-09-30T10:25:09Z</time>
      </trkpt>
      <trkpt lat="47.26216" lon="6.09476">
        <ele>337.6</ele>
        <time>2021-09-30T10:25:10Z</time>
      </trkpt>
      <trkpt lat="47.26218" lon="6.09479">
        <ele>337.8</ele>
        <time>2021-09-30T10:25:11Z</time>
      </trkpt>
      <trkpt lat="47.2622" lon="6.09482">
        <ele>337.8</ele>
        <time>2021-09-30T10:25:12Z</time>
      </trkpt>
      <trkpt lat="47.26221" lon="6.09484">
        <ele>338.2</ele>
        <time>2021-09-30T10:25:13Z</time>
      </trkpt>
      <trkpt lat="47.26222" lon="6.09486">
        <ele>338.4</ele>
        <time>2021-09-30T10:25:14Z</time>
      </trkpt>
      <trkpt lat="47.26223" lon="6.09488">
        <ele>338.4</ele>
        <time>2021-09-30T10:25:15Z</time>
      </trkpt>
      <trkpt lat="47.26225" lon="6.0949">
        <ele>338.6</ele>
        <time>2021-09-30T10:25:16Z</time>
      </trkpt>
      <trkpt lat="47.26226" lon="6.09492">
        <ele>338.6</ele>
        <time>2021-09-30T10:25:17Z</time>
      </trkpt>
      <trkpt lat="47.26227" lon="6.09495">
        <ele>338.8</ele>
        <time>2021-09-30T10:25:18Z</time>
      </trkpt>
      <trkpt lat="47.26229" lon="6.09497">
        <ele>338.8</ele>
        <time>2021-09-30T10:25:19Z</time>
      </trkpt>
      <trkpt lat="47.2623" lon="6.095">
        <ele>339</ele>
        <time>2021-09-30T10:25:20Z</time>
      </trkpt>
      <trkpt lat="47.26231" lon="6.09502">
        <ele>339</ele>
        <time>2021-09-30T10:25:21Z</time>
      </trkpt>
      <trkpt lat="47.26232" lon="6.09505">
        <ele>339.2</ele>
        <time>2021-09-30T10:25:22Z</time>
      </trkpt>
      <trkpt lat="47.26233" lon="6.09507">
        <ele>339.2</ele>
        <time>2021-09-30T10:25:23Z</time>
      </trkpt>
      <trkpt lat="47.26234" lon="6.0951">
        <ele>339.4</ele>
        <time>2021-09-30T10:25:24Z</time>
      </trkpt>
      <trkpt lat="47.26235" lon="6.09513">
        <ele>339.6</ele>
        <time>2021-09-30T10:25:25Z</time>
      </trkpt>
      <trkpt lat="47.26235" lon="6.09516">
        <ele>339.8</ele>
        <time>2021-09-30T10:25:26Z</time>
      </trkpt>
      <trkpt lat="47.26236" lon="6.09519">
        <ele>340</ele>
        <time>2021-09-30T10:25:27Z</time>
      </trkpt>
      <trkpt lat="47.26236" lon="6.09522">
        <ele>340.2</ele>
        <time>2021-09-30T10:25:28Z</time>
      </trkpt>
      <trkpt lat="47.26237" lon="6.09525">
        <ele>340.4</ele>
        <time>2021-09-30T10:25:29Z</time>
      </trkpt>
      <trkpt lat="47.2624" lon="6.09529">
        <ele>340.4</ele>
        <time>2021-09-30T10:25:30Z</time>
      </trkpt>
      <trkpt lat="47.26242" lon="6.09532">
        <ele>340.8</ele>
        <time>2021-09-30T10:25:31Z</time>
      </trkpt>
      <trkpt lat="47.26243" lon="6.09535">
        <ele>340.8</ele>
        <time>2021-09-30T10:25:32Z</time>
      </trkpt>
      <trkpt lat="47.26245" lon="6.09538">
        <ele>341</ele>
        <time>2021-09-30T10:25:33Z</time>
      </trkpt>
      <trkpt lat="47.26246" lon="6.09541">
        <ele>341.2</ele>
        <time>2021-09-30T10:25:34Z</time>
      </trkpt>
      <trkpt lat="47.26249" lon="6.09545">
        <ele>341.4</ele>
        <time>2021-09-30T10:25:35Z</time>
      </trkpt>
      <trkpt lat="47.26249" lon="6.09549">
        <ele>341.4</ele>
        <time>2021-09-30T10:25:36Z</time>
      </trkpt>
      <trkpt lat="47.2625" lon="6.09552">
        <ele>341.6</ele>
        <time>2021-09-30T10:25:37Z</time>
      </trkpt>
      <trkpt lat="47.2625" lon="6.09556">
        <ele>341.8</ele>
        <time>2021-09-30T10:25:38Z</time>
      </trkpt>
      <trkpt lat="47.26251" lon="6.09559">
        <ele>341.8</ele>
        <time>2021-09-30T10:25:39Z</time>
      </trkpt>
      <trkpt lat="47.26251" lon="6.09562">
        <ele>342</ele>
        <time>2021-09-30T10:25:40Z</time>
      </trkpt>
      <trkpt lat="47.26251" lon="6.09565">
        <ele>342.2</ele>
        <time>2021-09-30T10:25:41Z</time>
      </trkpt>
      <trkpt lat="47.26252" lon="6.09568">
        <ele>342.4</ele>
        <time>2021-09-30T10:25:42Z</time>
      </trkpt>
      <trkpt lat="47.26253" lon="6.0957">
        <ele>342.4</ele>
        <time>2021-09-30T10:25:43Z</time>
      </trkpt>
      <trkpt lat="47.26255" lon="6.09572">
        <ele>342.6</ele>
        <time>2021-09-30T10:25:44Z</time>
      </trkpt>
      <trkpt lat="47.26255" lon="6.09575">
        <ele>342.8</ele>
        <time>2021-09-30T10:25:45Z</time>
      </trkpt>
      <trkpt lat="47.26256" lon="6.09578">
        <ele>343</ele>
        <time>2021-09-30T10:25:46Z</time>
      </trkpt>
      <trkpt lat="47.26256" lon="6.0958">
        <ele>343</ele>
        <time>2021-09-30T10:25:47Z</time>
      </trkpt>
      <trkpt lat="47.26257" lon="6.09583">
        <ele>343.2</ele>
        <time>2021-09-30T10:25:48Z</time>
      </trkpt>
      <trkpt lat="47.26258" lon="6.09587">
        <ele>343.4</ele>
        <time>2021-09-30T10:25:49Z</time>
      </trkpt>
      <trkpt lat="47.26258" lon="6.09589">
        <ele>343.6</ele>
        <time>2021-09-30T10:25:50Z</time>
      </trkpt>
      <trkpt lat="47.26258" lon="6.09591">
        <ele>343.8</ele>
        <time>2021-09-30T10:25:51Z</time>
      </trkpt>
      <trkpt lat="47.26259" lon="6.09593">
        <ele>343.8</ele>
        <time>2021-09-30T10:25:52Z</time>
      </trkpt>
      <trkpt lat="47.26259" lon="6.09594">
        <ele>344</ele>
        <time>2021-09-30T10:25:53Z</time>
      </trkpt>
      <trkpt lat="47.26259" lon="6.09596">
        <ele>344.2</ele>
        <time>2021-09-30T10:25:54Z</time>
      </trkpt>
      <trkpt lat="47.2626" lon="6.09599">
        <ele>344.4</ele>
        <time>2021-09-30T10:25:55Z</time>
      </trkpt>
      <trkpt lat="47.2626" lon="6.09602">
        <ele>344.6</ele>
        <time>2021-09-30T10:25:56Z</time>
      </trkpt>
      <trkpt lat="47.26261" lon="6.09604">
        <ele>344.6</ele>
        <time>2021-09-30T10:25:57Z</time>
      </trkpt>
      <trkpt lat="47.26262" lon="6.09606">
        <ele>344.8</ele>
        <time>2021-09-30T10:25:58Z</time>
      </trkpt>
      <trkpt lat="47.26263" lon="6.09608">
        <ele>345</ele>
        <time>2021-09-30T10:25:59Z</time>
      </trkpt>
      <trkpt lat="47.26264" lon="6.0961">
        <ele>345</ele>
        <time>2021-09-30T10:26:00Z</time>
      </trkpt>
      <trkpt lat="47.26264" lon="6.09613">
        <ele>345</ele>
        <time>2021-09-30T10:26:01Z</time>
      </trkpt>
      <trkpt lat="47.26265" lon="6.09615">
        <ele>345.4</ele>
        <time>2021-09-30T10:26:02Z</time>
      </trkpt>
      <trkpt lat="47.26266" lon="6.09617">
        <ele>345.4</ele>
        <time>2021-09-30T10:26:03Z</time>
      </trkpt>
      <trkpt lat="47.26266" lon="6.09619">
        <ele>345.6</ele>
        <time>2021-09-30T10:26:04Z</time>
      </trkpt>
      <trkpt lat="47.26267" lon="6.09622">
        <ele>346</ele>
        <time>2021-09-30T10:26:05Z</time>
      </trkpt>
      <trkpt lat="47.26268" lon="6.09623">
        <ele>346.2</ele>
        <time>2021-09-30T10:26:06Z</time>
      </trkpt>
      <trkpt lat="47.26269" lon="6.09625">
        <ele>346.2</ele>
        <time>2021-09-30T10:26:07Z</time>
      </trkpt>
      <trkpt lat="47.2627" lon="6.09627">
        <ele>346.4</ele>
        <time>2021-09-30T10:26:08Z</time>
      </trkpt>
      <trkpt lat="47.26271" lon="6.09629">
        <ele>346.6</ele>
        <time>2021-09-30T10:26:09Z</time>
      </trkpt>
      <trkpt lat="47.26272" lon="6.09631">
        <ele>346.8</ele>
        <time>2021-09-30T10:26:10Z</time>
      </trkpt>
      <trkpt lat="47.26273" lon="6.09634">
        <ele>347</ele>
        <time>2021-09-30T10:26:11Z</time>
      </trkpt>
      <trkpt lat="47.26274" lon="6.09635">
        <ele>347</ele>
        <time>2021-09-30T10:26:12Z</time>
      </trkpt>
      <trkpt lat="47.26275" lon="6.09638">
        <ele>347.2</ele>
        <time>2021-09-30T10:26:13Z</time>
      </trkpt>
      <trkpt lat="47.26276" lon="6.09642">
        <ele>347.4</ele>
        <time>2021-09-30T10:26:14Z</time>
      </trkpt>
      <trkpt lat="47.26276" lon="6.09646">
        <ele>347.4</ele>
        <time>2021-09-30T10:26:15Z</time>
      </trkpt>
      <trkpt lat="47.26276" lon="6.09648">
        <ele>347.8</ele>
        <time>2021-09-30T10:26:16Z</time>
      </trkpt>
      <trkpt lat="47.26276" lon="6.09651">
        <ele>348</ele>
        <time>2021-09-30T10:26:17Z</time>
      </trkpt>
      <trkpt lat="47.26276" lon="6.09652">
        <ele>348.2</ele>
        <time>2021-09-30T10:26:18Z</time>
      </trkpt>
      <trkpt lat="47.26276" lon="6.09654">
        <ele>348.4</ele>
        <time>2021-09-30T10:26:19Z</time>
      </trkpt>
      <trkpt lat="47.26277" lon="6.09656">
        <ele>348.6</ele>
        <time>2021-09-30T10:26:20Z</time>
      </trkpt>
      <trkpt lat="47.26276" lon="6.09658">
        <ele>348.6</ele>
        <time>2021-09-30T10:26:21Z</time>
      </trkpt>
      <trkpt lat="47.26277" lon="6.09661">
        <ele>348.8</ele>
        <time>2021-09-30T10:26:22Z</time>
      </trkpt>
      <trkpt lat="47.26278" lon="6.09665">
        <ele>348.8</ele>
        <time>2021-09-30T10:26:23Z</time>
      </trkpt>
      <trkpt lat="47.26278" lon="6.09667">
        <ele>349</ele>
        <time>2021-09-30T10:26:24Z</time>
      </trkpt>
      <trkpt lat="47.2628" lon="6.09674">
        <ele>349.2</ele>
        <time>2021-09-30T10:26:25Z</time>
      </trkpt>
      <trkpt lat="47.26281" lon="6.09677">
        <ele>349.4</ele>
        <time>2021-09-30T10:26:26Z</time>
      </trkpt>
      <trkpt lat="47.26282" lon="6.0968">
        <ele>349.4</ele>
        <time>2021-09-30T10:26:27Z</time>
      </trkpt>
      <trkpt lat="47.26282" lon="6.09683">
        <ele>349.6</ele>
        <time>2021-09-30T10:26:28Z</time>
      </trkpt>
      <trkpt lat="47.26283" lon="6.09686">
        <ele>349.6</ele>
        <time>2021-09-30T10:26:29Z</time>
      </trkpt>
      <trkpt lat="47.26282" lon="6.09688">
        <ele>349.8</ele>
        <time>2021-09-30T10:26:30Z</time>
      </trkpt>
      <trkpt lat="47.26282" lon="6.09691">
        <ele>350</ele>
        <time>2021-09-30T10:26:31Z</time>
      </trkpt>
      <trkpt lat="47.26284" lon="6.09694">
        <ele>350</ele>
        <time>2021-09-30T10:26:32Z</time>
      </trkpt>
      <trkpt lat="47.26285" lon="6.09697">
        <ele>350.2</ele>
        <time>2021-09-30T10:26:33Z</time>
      </trkpt>
      <trkpt lat="47.26286" lon="6.097">
        <ele>350.4</ele>
        <time>2021-09-30T10:26:34Z</time>
      </trkpt>
      <trkpt lat="47.26287" lon="6.09702">
        <ele>350.4</ele>
        <time>2021-09-30T10:26:35Z</time>
      </trkpt>
      <trkpt lat="47.26287" lon="6.09705">
        <ele>350.6</ele>
        <time>2021-09-30T10:26:36Z</time>
      </trkpt>
      <trkpt lat="47.26288" lon="6.09707">
        <ele>350.8</ele>
        <time>2021-09-30T10:26:37Z</time>
      </trkpt>
      <trkpt lat="47.26288" lon="6.09708">
        <ele>350.8</ele>
        <time>2021-09-30T10:26:38Z</time>
      </trkpt>
      <trkpt lat="47.26288" lon="6.09709">
        <ele>351</ele>
        <time>2021-09-30T10:26:39Z</time>
      </trkpt>
      <trkpt lat="47.26288" lon="6.0971">
        <ele>351.2</ele>
        <time>2021-09-30T10:26:40Z</time>
      </trkpt>
      <trkpt lat="47.26288" lon="6.09711">
        <ele>351.4</ele>
        <time>2021-09-30T10:26:41Z</time>
      </trkpt>
      <trkpt lat="47.2629" lon="6.09715">
        <ele>351.6</ele>
        <time>2021-09-30T10:26:42Z</time>
      </trkpt>
      <trkpt lat="47.26291" lon="6.09719">
        <ele>351.8</ele>
        <time>2021-09-30T10:26:43Z</time>
      </trkpt>
      <trkpt lat="47.26292" lon="6.09722">
        <ele>352</ele>
        <time>2021-09-30T10:26:44Z</time>
      </trkpt>
      <trkpt lat="47.26293" lon="6.09725">
        <ele>352.2</ele>
        <time>2021-09-30T10:26:45Z</time>
      </trkpt>
      <trkpt lat="47.26292" lon="6.09726">
        <ele>352.4</ele>
        <time>2021-09-30T10:26:46Z</time>
      </trkpt>
      <trkpt lat="47.26293" lon="6.09731">
        <ele>352.8</ele>
        <time>2021-09-30T10:26:47Z</time>
      </trkpt>
      <trkpt lat="47.26294" lon="6.09735">
        <ele>353</ele>
        <time>2021-09-30T10:26:48Z</time>
      </trkpt>
      <trkpt lat="47.26296" lon="6.09741">
        <ele>353.2</ele>
        <time>2021-09-30T10:26:49Z</time>
      </trkpt>
      <trkpt lat="47.26299" lon="6.09744">
        <ele>353.2</ele>
        <time>2021-09-30T10:26:50Z</time>
      </trkpt>
      <trkpt lat="47.26301" lon="6.09748">
        <ele>353.4</ele>
        <time>2021-09-30T10:26:51Z</time>
      </trkpt>
      <trkpt lat="47.26302" lon="6.0975">
        <ele>353.4</ele>
        <time>2021-09-30T10:26:52Z</time>
      </trkpt>
      <trkpt lat="47.26303" lon="6.09754">
        <ele>353.6</ele>
        <time>2021-09-30T10:26:53Z</time>
      </trkpt>
      <trkpt lat="47.26303" lon="6.09756">
        <ele>353.8</ele>
        <time>2021-09-30T10:26:54Z</time>
      </trkpt>
      <trkpt lat="47.26304" lon="6.09759">
        <ele>354</ele>
        <time>2021-09-30T10:26:55Z</time>
      </trkpt>
      <trkpt lat="47.26305" lon="6.09762">
        <ele>354.4</ele>
        <time>2021-09-30T10:26:56Z</time>
      </trkpt>
      <trkpt lat="47.26306" lon="6.09765">
        <ele>354.4</ele>
        <time>2021-09-30T10:26:57Z</time>
      </trkpt>
      <trkpt lat="47.26307" lon="6.09767">
        <ele>354.6</ele>
        <time>2021-09-30T10:26:58Z</time>
      </trkpt>
      <trkpt lat="47.26308" lon="6.09769">
        <ele>354.8</ele>
        <time>2021-09-30T10:26:59Z</time>
      </trkpt>
      <trkpt lat="47.26309" lon="6.09772">
        <ele>355</ele>
        <time>2021-09-30T10:27:00Z</time>
      </trkpt>
      <trkpt lat="47.2631" lon="6.09774">
        <ele>355.2</ele>
        <time>2021-09-30T10:27:01Z</time>
      </trkpt>
      <trkpt lat="47.26311" lon="6.09777">
        <ele>355.4</ele>
        <time>2021-09-30T10:27:02Z</time>
      </trkpt>
      <trkpt lat="47.26313" lon="6.0978">
        <ele>355.6</ele>
        <time>2021-09-30T10:27:03Z</time>
      </trkpt>
      <trkpt lat="47.26312" lon="6.09782">
        <ele>355.8</ele>
        <time>2021-09-30T10:27:04Z</time>
      </trkpt>
      <trkpt lat="47.26312" lon="6.09784">
        <ele>355.8</ele>
        <time>2021-09-30T10:27:05Z</time>
      </trkpt>
      <trkpt lat="47.26311" lon="6.09785">
        <ele>356.2</ele>
        <time>2021-09-30T10:27:06Z</time>
      </trkpt>
      <trkpt lat="47.26311" lon="6.09788">
        <ele>356.4</ele>
        <time>2021-09-30T10:27:07Z</time>
      </trkpt>
      <trkpt lat="47.26311" lon="6.0979">
        <ele>356.6</ele>
        <time>2021-09-30T10:27:08Z</time>
      </trkpt>
      <trkpt lat="47.26312" lon="6.09792">
        <ele>356.8</ele>
        <time>2021-09-30T10:27:09Z</time>
      </trkpt>
      <trkpt lat="47.26313" lon="6.09795">
        <ele>357</ele>
        <time>2021-09-30T10:27:10Z</time>
      </trkpt>
      <trkpt lat="47.26314" lon="6.09796">
        <ele>357.2</ele>
        <time>2021-09-30T10:27:11Z</time>
      </trkpt>
      <trkpt lat="47.26315" lon="6.09798">
        <ele>357.4</ele>
        <time>2021-09-30T10:27:12Z</time>
      </trkpt>
      <trkpt lat="47.26316" lon="6.09801">
        <ele>357.4</ele>
        <time>2021-09-30T10:27:13Z</time>
      </trkpt>
      <trkpt lat="47.26317" lon="6.09806">
        <ele>357.6</ele>
        <time>2021-09-30T10:27:14Z</time>
      </trkpt>
      <trkpt lat="47.26317" lon="6.09808">
        <ele>357.8</ele>
        <time>2021-09-30T10:27:15Z</time>
      </trkpt>
      <trkpt lat="47.26318" lon="6.09809">
        <ele>358.2</ele>
        <time>2021-09-30T10:27:16Z</time>
      </trkpt>
      <trkpt lat="47.26318" lon="6.09812">
        <ele>358.2</ele>
        <time>2021-09-30T10:27:17Z</time>
      </trkpt>
      <trkpt lat="47.26319" lon="6.09815">
        <ele>358.6</ele>
        <time>2021-09-30T10:27:18Z</time>
      </trkpt>
      <trkpt lat="47.26321" lon="6.09819">
        <ele>358.6</ele>
        <time>2021-09-30T10:27:19Z</time>
      </trkpt>
      <trkpt lat="47.26323" lon="6.09822">
        <ele>358.8</ele>
        <time>2021-09-30T10:27:20Z</time>
      </trkpt>
      <trkpt lat="47.26324" lon="6.09825">
        <ele>358.8</ele>
        <time>2021-09-30T10:27:21Z</time>
      </trkpt>
      <trkpt lat="47.26325" lon="6.09826">
        <ele>359</ele>
        <time>2021-09-30T10:27:22Z</time>
      </trkpt>
      <trkpt lat="47.26326" lon="6.09828">
        <ele>359</ele>
        <time>2021-09-30T10:27:23Z</time>
      </trkpt>
      <trkpt lat="47.26326" lon="6.09829">
        <ele>359.4</ele>
        <time>2021-09-30T10:27:24Z</time>
      </trkpt>
      <trkpt lat="47.26327" lon="6.09834">
        <ele>359.4</ele>
        <time>2021-09-30T10:27:25Z</time>
      </trkpt>
      <trkpt lat="47.26329" lon="6.09836">
        <ele>359.6</ele>
        <time>2021-09-30T10:27:26Z</time>
      </trkpt>
      <trkpt lat="47.2633" lon="6.09839">
        <ele>359.8</ele>
        <time>2021-09-30T10:27:27Z</time>
      </trkpt>
      <trkpt lat="47.26332" lon="6.09841">
        <ele>360</ele>
        <time>2021-09-30T10:27:28Z</time>
      </trkpt>
      <trkpt lat="47.26332" lon="6.09844">
        <ele>360.2</ele>
        <time>2021-09-30T10:27:29Z</time>
      </trkpt>
      <trkpt lat="47.26332" lon="6.09846">
        <ele>360.4</ele>
        <time>2021-09-30T10:27:30Z</time>
      </trkpt>
      <trkpt lat="47.26332" lon="6.09848">
        <ele>360.6</ele>
        <time>2021-09-30T10:27:31Z</time>
      </trkpt>
      <trkpt lat="47.26334" lon="6.09851">
        <ele>360.6</ele>
        <time>2021-09-30T10:27:32Z</time>
      </trkpt>
      <trkpt lat="47.26334" lon="6.09853">
        <ele>361</ele>
        <time>2021-09-30T10:27:33Z</time>
      </trkpt>
      <trkpt lat="47.26334" lon="6.09856">
        <ele>361</ele>
        <time>2021-09-30T10:27:34Z</time>
      </trkpt>
      <trkpt lat="47.26335" lon="6.09858">
        <ele>361.2</ele>
        <time>2021-09-30T10:27:35Z</time>
      </trkpt>
      <trkpt lat="47.26336" lon="6.09862">
        <ele>361.4</ele>
        <time>2021-09-30T10:27:36Z</time>
      </trkpt>
      <trkpt lat="47.26337" lon="6.09865">
        <ele>361.6</ele>
        <time>2021-09-30T10:27:37Z</time>
      </trkpt>
      <trkpt lat="47.26339" lon="6.09868">
        <ele>361.6</ele>
        <time>2021-09-30T10:27:38Z</time>
      </trkpt>
      <trkpt lat="47.26339" lon="6.09871">
        <ele>361.6</ele>
        <time>2021-09-30T10:27:39Z</time>
      </trkpt>
      <trkpt lat="47.26339" lon="6.09873">
        <ele>362</ele>
        <time>2021-09-30T10:27:40Z</time>
      </trkpt>
      <trkpt lat="47.2634" lon="6.09875">
        <ele>362.2</ele>
        <time>2021-09-30T10:27:41Z</time>
      </trkpt>
      <trkpt lat="47.26341" lon="6.09879">
        <ele>362.4</ele>
        <time>2021-09-30T10:27:42Z</time>
      </trkpt>
      <trkpt lat="47.26342" lon="6.09882">
        <ele>362.6</ele>
        <time>2021-09-30T10:27:43Z</time>
      </trkpt>
      <trkpt lat="47.26343" lon="6.09886">
        <ele>362.6</ele>
        <time>2021-09-30T10:27:44Z</time>
      </trkpt>
      <trkpt lat="47.26343" lon="6.09889">
        <ele>362.8</ele>
        <time>2021-09-30T10:27:45Z</time>
      </trkpt>
      <trkpt lat="47.26344" lon="6.0989">
        <ele>363</ele>
        <time>2021-09-30T10:27:46Z</time>
      </trkpt>
      <trkpt lat="47.26345" lon="6.09891">
        <ele>363</ele>
        <time>2021-09-30T10:27:47Z</time>
      </trkpt>
      <trkpt lat="47.26345" lon="6.09894">
        <ele>363.4</ele>
        <time>2021-09-30T10:27:48Z</time>
      </trkpt>
      <trkpt lat="47.26345" lon="6.09897">
        <ele>363.8</ele>
        <time>2021-09-30T10:27:49Z</time>
      </trkpt>
      <trkpt lat="47.26346" lon="6.099">
        <ele>363.8</ele>
        <time>2021-09-30T10:27:50Z</time>
      </trkpt>
      <trkpt lat="47.26346" lon="6.09901">
        <ele>364</ele>
        <time>2021-09-30T10:27:51Z</time>
      </trkpt>
      <trkpt lat="47.26347" lon="6.09903">
        <ele>364.2</ele>
        <time>2021-09-30T10:27:52Z</time>
      </trkpt>
      <trkpt lat="47.26348" lon="6.09906">
        <ele>364.4</ele>
        <time>2021-09-30T10:27:53Z</time>
      </trkpt>
      <trkpt lat="47.26349" lon="6.0991">
        <ele>364.4</ele>
        <time>2021-09-30T10:27:54Z</time>
      </trkpt>
      <trkpt lat="47.26351" lon="6.09914">
        <ele>364.6</ele>
        <time>2021-09-30T10:27:55Z</time>
      </trkpt>
      <trkpt lat="47.26352" lon="6.09917">
        <ele>364.6</ele>
        <time>2021-09-30T10:27:56Z</time>
      </trkpt>
      <trkpt lat="47.26353" lon="6.09919">
        <ele>364.8</ele>
        <time>2021-09-30T10:27:57Z</time>
      </trkpt>
      <trkpt lat="47.26355" lon="6.09922">
        <ele>365</ele>
        <time>2021-09-30T10:27:58Z</time>
      </trkpt>
      <trkpt lat="47.26356" lon="6.09925">
        <ele>365.2</ele>
        <time>2021-09-30T10:27:59Z</time>
      </trkpt>
      <trkpt lat="47.26357" lon="6.09927">
        <ele>365.4</ele>
        <time>2021-09-30T10:28:00Z</time>
      </trkpt>
      <trkpt lat="47.26356" lon="6.0993">
        <ele>365.6</ele>
        <time>2021-09-30T10:28:01Z</time>
      </trkpt>
      <trkpt lat="47.26357" lon="6.09932">
        <ele>365.8</ele>
        <time>2021-09-30T10:28:02Z</time>
      </trkpt>
      <trkpt lat="47.26359" lon="6.09934">
        <ele>365.8</ele>
        <time>2021-09-30T10:28:03Z</time>
      </trkpt>
      <trkpt lat="47.26359" lon="6.09938">
        <ele>366</ele>
        <time>2021-09-30T10:28:04Z</time>
      </trkpt>
      <trkpt lat="47.26358" lon="6.09941">
        <ele>366.2</ele>
        <time>2021-09-30T10:28:05Z</time>
      </trkpt>
      <trkpt lat="47.26359" lon="6.09941">
        <ele>366.4</ele>
        <time>2021-09-30T10:28:06Z</time>
      </trkpt>
      <trkpt lat="47.26359" lon="6.09942">
        <ele>366.4</ele>
        <time>2021-09-30T10:28:07Z</time>
      </trkpt>
      <trkpt lat="47.26361" lon="6.09944">
        <ele>366.8</ele>
        <time>2021-09-30T10:28:08Z</time>
      </trkpt>
      <trkpt lat="47.26364" lon="6.09947">
        <ele>366.8</ele>
        <time>2021-09-30T10:28:09Z</time>
      </trkpt>
      <trkpt lat="47.26365" lon="6.09951">
        <ele>367</ele>
        <time>2021-09-30T10:28:10Z</time>
      </trkpt>
      <trkpt lat="47.26366" lon="6.09954">
        <ele>367.4</ele>
        <time>2021-09-30T10:28:11Z</time>
      </trkpt>
      <trkpt lat="47.26366" lon="6.09956">
        <ele>367.4</ele>
        <time>2021-09-30T10:28:12Z</time>
      </trkpt>
      <trkpt lat="47.26367" lon="6.09958">
        <ele>367.6</ele>
        <time>2021-09-30T10:28:13Z</time>
      </trkpt>
      <trkpt lat="47.26367" lon="6.09961">
        <ele>367.8</ele>
        <time>2021-09-30T10:28:14Z</time>
      </trkpt>
      <trkpt lat="47.26367" lon="6.09963">
        <ele>367.8</ele>
        <time>2021-09-30T10:28:15Z</time>
      </trkpt>
      <trkpt lat="47.26368" lon="6.09966">
        <ele>368</ele>
        <time>2021-09-30T10:28:16Z</time>
      </trkpt>
      <trkpt lat="47.26367" lon="6.0997">
        <ele>368.2</ele>
        <time>2021-09-30T10:28:17Z</time>
      </trkpt>
      <trkpt lat="47.26368" lon="6.09972">
        <ele>368.2</ele>
        <time>2021-09-30T10:28:18Z</time>
      </trkpt>
      <trkpt lat="47.26369" lon="6.09977">
        <ele>368.4</ele>
        <time>2021-09-30T10:28:19Z</time>
      </trkpt>
      <trkpt lat="47.26369" lon="6.0998">
        <ele>368.4</ele>
        <time>2021-09-30T10:28:20Z</time>
      </trkpt>
      <trkpt lat="47.2637" lon="6.09983">
        <ele>368.6</ele>
        <time>2021-09-30T10:28:21Z</time>
      </trkpt>
      <trkpt lat="47.26371" lon="6.09984">
        <ele>368.8</ele>
        <time>2021-09-30T10:28:22Z</time>
      </trkpt>
      <trkpt lat="47.26372" lon="6.09986">
        <ele>369</ele>
        <time>2021-09-30T10:28:23Z</time>
      </trkpt>
      <trkpt lat="47.26372" lon="6.0999">
        <ele>369.2</ele>
        <time>2021-09-30T10:28:24Z</time>
      </trkpt>
      <trkpt lat="47.26374" lon="6.09993">
        <ele>369.4</ele>
        <time>2021-09-30T10:28:25Z</time>
      </trkpt>
      <trkpt lat="47.26374" lon="6.09995">
        <ele>369.6</ele>
        <time>2021-09-30T10:28:26Z</time>
      </trkpt>
      <trkpt lat="47.26374" lon="6.09997">
        <ele>369.6</ele>
        <time>2021-09-30T10:28:27Z</time>
      </trkpt>
      <trkpt lat="47.26374" lon="6.09998">
        <ele>369.8</ele>
        <time>2021-09-30T10:28:28Z</time>
      </trkpt>
      <trkpt lat="47.26375" lon="6.1">
        <ele>370</ele>
        <time>2021-09-30T10:28:29Z</time>
      </trkpt>
      <trkpt lat="47.26375" lon="6.1">
        <ele>370</ele>
        <time>2021-09-30T10:28:30Z</time>
      </trkpt>
      <trkpt lat="47.26376" lon="6.10005">
        <ele>370.2</ele>
        <time>2021-09-30T10:28:31Z</time>
      </trkpt>
      <trkpt lat="47.26378" lon="6.10009">
        <ele>370.4</ele>
        <time>2021-09-30T10:28:32Z</time>
      </trkpt>
      <trkpt lat="47.26379" lon="6.10013">
        <ele>370.6</ele>
        <time>2021-09-30T10:28:33Z</time>
      </trkpt>
      <trkpt lat="47.26379" lon="6.10014">
        <ele>370.8</ele>
        <time>2021-09-30T10:28:34Z</time>
      </trkpt>
      <trkpt lat="47.2638" lon="6.10017">
        <ele>371</ele>
        <time>2021-09-30T10:28:35Z</time>
      </trkpt>
      <trkpt lat="47.2638" lon="6.10018">
        <ele>371.2</ele>
        <time>2021-09-30T10:28:36Z</time>
      </trkpt>
      <trkpt lat="47.26382" lon="6.10021">
        <ele>371.2</ele>
        <time>2021-09-30T10:28:37Z</time>
      </trkpt>
      <trkpt lat="47.26383" lon="6.10023">
        <ele>371.6</ele>
        <time>2021-09-30T10:28:38Z</time>
      </trkpt>
      <trkpt lat="47.26385" lon="6.10025">
        <ele>371.6</ele>
        <time>2021-09-30T10:28:39Z</time>
      </trkpt>
      <trkpt lat="47.26386" lon="6.10028">
        <ele>371.8</ele>
        <time>2021-09-30T10:28:40Z</time>
      </trkpt>
      <trkpt lat="47.26386" lon="6.10029">
        <ele>371.8</ele>
        <time>2021-09-30T10:28:41Z</time>
      </trkpt>
      <trkpt lat="47.26386" lon="6.10031">
        <ele>372</ele>
        <time>2021-09-30T10:28:42Z</time>
      </trkpt>
      <trkpt lat="47.26386" lon="6.10032">
        <ele>372</ele>
        <time>2021-09-30T10:28:43Z</time>
      </trkpt>
      <trkpt lat="47.26387" lon="6.10035">
        <ele>372.2</ele>
        <time>2021-09-30T10:28:44Z</time>
      </trkpt>
      <trkpt lat="47.26388" lon="6.10037">
        <ele>372.4</ele>
        <time>2021-09-30T10:28:45Z</time>
      </trkpt>
      <trkpt lat="47.26389" lon="6.1004">
        <ele>372.8</ele>
        <time>2021-09-30T10:28:46Z</time>
      </trkpt>
      <trkpt lat="47.26391" lon="6.10042">
        <ele>373</ele>
        <time>2021-09-30T10:28:47Z</time>
      </trkpt>
      <trkpt lat="47.26392" lon="6.10044">
        <ele>373</ele>
        <time>2021-09-30T10:28:48Z</time>
      </trkpt>
      <trkpt lat="47.26393" lon="6.10048">
        <ele>373</ele>
        <time>2021-09-30T10:28:49Z</time>
      </trkpt>
      <trkpt lat="47.26393" lon="6.10052">
        <ele>373.4</ele>
        <time>2021-09-30T10:28:50Z</time>
      </trkpt>
      <trkpt lat="47.26392" lon="6.10054">
        <ele>373.4</ele>
        <time>2021-09-30T10:28:51Z</time>
      </trkpt>
      <trkpt lat="47.26392" lon="6.10059">
        <ele>373.6</ele>
        <time>2021-09-30T10:28:52Z</time>
      </trkpt>
      <trkpt lat="47.26393" lon="6.10062">
        <ele>373.8</ele>
        <time>2021-09-30T10:28:53Z</time>
      </trkpt>
      <trkpt lat="47.26394" lon="6.10065">
        <ele>374.2</ele>
        <time>2021-09-30T10:28:54Z</time>
      </trkpt>
      <trkpt lat="47.26394" lon="6.10068">
        <ele>374.2</ele>
        <time>2021-09-30T10:28:55Z</time>
      </trkpt>
      <trkpt lat="47.26395" lon="6.1007">
        <ele>374.2</ele>
        <time>2021-09-30T10:28:56Z</time>
      </trkpt>
      <trkpt lat="47.26395" lon="6.10073">
        <ele>374.6</ele>
        <time>2021-09-30T10:28:57Z</time>
      </trkpt>
      <trkpt lat="47.26396" lon="6.10075">
        <ele>374.6</ele>
        <time>2021-09-30T10:28:58Z</time>
      </trkpt>
      <trkpt lat="47.26397" lon="6.10077">
        <ele>374.8</ele>
        <time>2021-09-30T10:28:59Z</time>
      </trkpt>
      <trkpt lat="47.26398" lon="6.10079">
        <ele>375</ele>
        <time>2021-09-30T10:29:00Z</time>
      </trkpt>
      <trkpt lat="47.26401" lon="6.10084">
        <ele>375.4</ele>
        <time>2021-09-30T10:29:01Z</time>
      </trkpt>
      <trkpt lat="47.26403" lon="6.10088">
        <ele>375.4</ele>
        <time>2021-09-30T10:29:02Z</time>
      </trkpt>
      <trkpt lat="47.26404" lon="6.1009">
        <ele>375.6</ele>
        <time>2021-09-30T10:29:03Z</time>
      </trkpt>
      <trkpt lat="47.26405" lon="6.10094">
        <ele>375.6</ele>
        <time>2021-09-30T10:29:04Z</time>
      </trkpt>
      <trkpt lat="47.26407" lon="6.10096">
        <ele>376</ele>
        <time>2021-09-30T10:29:05Z</time>
      </trkpt>
      <trkpt lat="47.26408" lon="6.10098">
        <ele>376.2</ele>
        <time>2021-09-30T10:29:06Z</time>
      </trkpt>
      <trkpt lat="47.26407" lon="6.101">
        <ele>376.2</ele>
        <time>2021-09-30T10:29:07Z</time>
      </trkpt>
      <trkpt lat="47.26406" lon="6.10103">
        <ele>376.2</ele>
        <time>2021-09-30T10:29:08Z</time>
      </trkpt>
      <trkpt lat="47.26406" lon="6.10105">
        <ele>376.4</ele>
        <time>2021-09-30T10:29:09Z</time>
      </trkpt>
      <trkpt lat="47.26406" lon="6.10108">
        <ele>376.8</ele>
        <time>2021-09-30T10:29:10Z</time>
      </trkpt>
      <trkpt lat="47.26406" lon="6.1011">
        <ele>376.8</ele>
        <time>2021-09-30T10:29:11Z</time>
      </trkpt>
      <trkpt lat="47.26405" lon="6.10113">
        <ele>377</ele>
        <time>2021-09-30T10:29:12Z</time>
      </trkpt>
      <trkpt lat="47.26406" lon="6.10116">
        <ele>377</ele>
        <time>2021-09-30T10:29:13Z</time>
      </trkpt>
      <trkpt lat="47.26406" lon="6.10117">
        <ele>377.4</ele>
        <time>2021-09-30T10:29:14Z</time>
      </trkpt>
      <trkpt lat="47.26407" lon="6.10118">
        <ele>377.6</ele>
        <time>2021-09-30T10:29:15Z</time>
      </trkpt>
      <trkpt lat="47.26408" lon="6.10121">
        <ele>378</ele>
        <time>2021-09-30T10:29:16Z</time>
      </trkpt>
      <trkpt lat="47.26409" lon="6.10125">
        <ele>378</ele>
        <time>2021-09-30T10:29:17Z</time>
      </trkpt>
      <trkpt lat="47.2641" lon="6.10127">
        <ele>378.2</ele>
        <time>2021-09-30T10:29:18Z</time>
      </trkpt>
      <trkpt lat="47.2641" lon="6.10131">
        <ele>378.6</ele>
        <time>2021-09-30T10:29:19Z</time>
      </trkpt>
      <trkpt lat="47.26411" lon="6.10136">
        <ele>378.8</ele>
        <time>2021-09-30T10:29:20Z</time>
      </trkpt>
      <trkpt lat="47.26413" lon="6.10138">
        <ele>378.8</ele>
        <time>2021-09-30T10:29:21Z</time>
      </trkpt>
      <trkpt lat="47.26414" lon="6.10139">
        <ele>378.8</ele>
        <time>2021-09-30T10:29:22Z</time>
      </trkpt>
      <trkpt lat="47.26415" lon="6.10141">
        <ele>379</ele>
        <time>2021-09-30T10:29:23Z</time>
      </trkpt>
      <trkpt lat="47.26415" lon="6.10142">
        <ele>379</ele>
        <time>2021-09-30T10:29:24Z</time>
      </trkpt>
      <trkpt lat="47.26416" lon="6.10144">
        <ele>379.4</ele>
        <time>2021-09-30T10:29:25Z</time>
      </trkpt>
      <trkpt lat="47.26417" lon="6.10146">
        <ele>379.4</ele>
        <time>2021-09-30T10:29:26Z</time>
      </trkpt>
      <trkpt lat="47.26417" lon="6.10148">
        <ele>379.6</ele>
        <time>2021-09-30T10:29:27Z</time>
      </trkpt>
      <trkpt lat="47.26417" lon="6.1015">
        <ele>380</ele>
        <time>2021-09-30T10:29:28Z</time>
      </trkpt>
      <trkpt lat="47.26417" lon="6.10151">
        <ele>380</ele>
        <time>2021-09-30T10:29:29Z</time>
      </trkpt>
      <trkpt lat="47.26417" lon="6.10153">
        <ele>380.2</ele>
        <time>2021-09-30T10:29:30Z</time>
      </trkpt>
      <trkpt lat="47.26417" lon="6.10155">
        <ele>380.6</ele>
        <time>2021-09-30T10:29:31Z</time>
      </trkpt>
      <trkpt lat="47.26418" lon="6.10156">
        <ele>380.8</ele>
        <time>2021-09-30T10:29:32Z</time>
      </trkpt>
      <trkpt lat="47.26418" lon="6.10158">
        <ele>380.8</ele>
        <time>2021-09-30T10:29:33Z</time>
      </trkpt>
      <trkpt lat="47.26419" lon="6.1016">
        <ele>381.2</ele>
        <time>2021-09-30T10:29:34Z</time>
      </trkpt>
      <trkpt lat="47.26419" lon="6.10161">
        <ele>381</ele>
        <time>2021-09-30T10:29:35Z</time>
      </trkpt>
      <trkpt lat="47.26419" lon="6.10163">
        <ele>381.4</ele>
        <time>2021-09-30T10:29:36Z</time>
      </trkpt>
      <trkpt lat="47.2642" lon="6.10165">
        <ele>381.6</ele>
        <time>2021-09-30T10:29:37Z</time>
      </trkpt>
      <trkpt lat="47.2642" lon="6.10168">
        <ele>381.8</ele>
        <time>2021-09-30T10:29:38Z</time>
      </trkpt>
      <trkpt lat="47.26421" lon="6.1017">
        <ele>382</ele>
        <time>2021-09-30T10:29:39Z</time>
      </trkpt>
      <trkpt lat="47.26422" lon="6.10173">
        <ele>382.2</ele>
        <time>2021-09-30T10:29:40Z</time>
      </trkpt>
      <trkpt lat="47.26423" lon="6.10175">
        <ele>382.4</ele>
        <time>2021-09-30T10:29:41Z</time>
      </trkpt>
      <trkpt lat="47.26425" lon="6.10178">
        <ele>382.4</ele>
        <time>2021-09-30T10:29:42Z</time>
      </trkpt>
      <trkpt lat="47.26426" lon="6.1018">
        <ele>382.6</ele>
        <time>2021-09-30T10:29:43Z</time>
      </trkpt>
      <trkpt lat="47.26426" lon="6.10183">
        <ele>382.6</ele>
        <time>2021-09-30T10:29:44Z</time>
      </trkpt>
      <trkpt lat="47.26427" lon="6.10185">
        <ele>382.8</ele>
        <time>2021-09-30T10:29:45Z</time>
      </trkpt>
      <trkpt lat="47.26427" lon="6.10187">
        <ele>382.8</ele>
        <time>2021-09-30T10:29:46Z</time>
      </trkpt>
      <trkpt lat="47.26427" lon="6.10191">
        <ele>383.2</ele>
        <time>2021-09-30T10:29:47Z</time>
      </trkpt>
      <trkpt lat="47.26428" lon="6.10194">
        <ele>383.4</ele>
        <time>2021-09-30T10:29:48Z</time>
      </trkpt>
      <trkpt lat="47.26428" lon="6.10197">
        <ele>383.6</ele>
        <time>2021-09-30T10:29:49Z</time>
      </trkpt>
      <trkpt lat="47.26428" lon="6.10198">
        <ele>383.6</ele>
        <time>2021-09-30T10:29:50Z</time>
      </trkpt>
      <trkpt lat="47.26429" lon="6.10201">
        <ele>383.8</ele>
        <time>2021-09-30T10:29:51Z</time>
      </trkpt>
      <trkpt lat="47.2643" lon="6.10204">
        <ele>384</ele>
        <time>2021-09-30T10:29:52Z</time>
      </trkpt>
      <trkpt lat="47.2643" lon="6.10208">
        <ele>384</ele>
        <time>2021-09-30T10:29:53Z</time>
      </trkpt>
      <trkpt lat="47.26431" lon="6.10211">
        <ele>384.4</ele>
        <time>2021-09-30T10:29:54Z</time>
      </trkpt>
      <trkpt lat="47.26431" lon="6.10214">
        <ele>384.6</ele>
        <time>2021-09-30T10:29:55Z</time>
      </trkpt>
      <trkpt lat="47.26431" lon="6.10217">
        <ele>384.8</ele>
        <time>2021-09-30T10:29:56Z</time>
      </trkpt>
      <trkpt lat="47.26432" lon="6.1022">
        <ele>385.2</ele>
        <time>2021-09-30T10:29:57Z</time>
      </trkpt>
      <trkpt lat="47.26432" lon="6.10224">
        <ele>385.2</ele>
        <time>2021-09-30T10:29:58Z</time>
      </trkpt>
      <trkpt lat="47.26433" lon="6.10228">
        <ele>385.2</ele>
        <time>2021-09-30T10:29:59Z</time>
      </trkpt>
      <trkpt lat="47.26433" lon="6.10231">
        <ele>385.8</ele>
        <time>2021-09-30T10:30:00Z</time>
      </trkpt>
      <trkpt lat="47.26435" lon="6.10234">
        <ele>385.8</ele>
        <time>2021-09-30T10:30:01Z</time>
      </trkpt>
      <trkpt lat="47.26435" lon="6.10237">
        <ele>385.8</ele>
        <time>2021-09-30T10:30:02Z</time>
      </trkpt>
      <trkpt lat="47.26435" lon="6.1024">
        <ele>386</ele>
        <time>2021-09-30T10:30:03Z</time>
      </trkpt>
      <trkpt lat="47.26435" lon="6.10242">
        <ele>386.4</ele>
        <time>2021-09-30T10:30:04Z</time>
      </trkpt>
      <trkpt lat="47.26433" lon="6.10246">
        <ele>386.6</ele>
        <time>2021-09-30T10:30:05Z</time>
      </trkpt>
      <trkpt lat="47.26433" lon="6.10249">
        <ele>386.6</ele>
        <time>2021-09-30T10:30:06Z</time>
      </trkpt>
      <trkpt lat="47.26433" lon="6.10252">
        <ele>387.2</ele>
        <time>2021-09-30T10:30:07Z</time>
      </trkpt>
      <trkpt lat="47.26433" lon="6.10254">
        <ele>387.2</ele>
        <time>2021-09-30T10:30:08Z</time>
      </trkpt>
      <trkpt lat="47.26434" lon="6.10258">
        <ele>387.2</ele>
        <time>2021-09-30T10:30:09Z</time>
      </trkpt>
      <trkpt lat="47.26435" lon="6.10262">
        <ele>387.4</ele>
        <time>2021-09-30T10:30:10Z</time>
      </trkpt>
      <trkpt lat="47.26435" lon="6.10265">
        <ele>387.8</ele>
        <time>2021-09-30T10:30:11Z</time>
      </trkpt>
      <trkpt lat="47.26434" lon="6.10268">
        <ele>388</ele>
        <time>2021-09-30T10:30:12Z</time>
      </trkpt>
      <trkpt lat="47.26434" lon="6.1027">
        <ele>388.4</ele>
        <time>2021-09-30T10:30:13Z</time>
      </trkpt>
      <trkpt lat="47.26434" lon="6.10272">
        <ele>388.4</ele>
        <time>2021-09-30T10:30:14Z</time>
      </trkpt>
      <trkpt lat="47.26433" lon="6.10274">
        <ele>388.4</ele>
        <time>2021-09-30T10:30:15Z</time>
      </trkpt>
      <trkpt lat="47.26433" lon="6.10276">
        <ele>389</ele>
        <time>2021-09-30T10:30:16Z</time>
      </trkpt>
      <trkpt lat="47.26432" lon="6.10279">
        <ele>389</ele>
        <time>2021-09-30T10:30:17Z</time>
      </trkpt>
      <trkpt lat="47.26431" lon="6.10282">
        <ele>389.6</ele>
        <time>2021-09-30T10:30:18Z</time>
      </trkpt>
      <trkpt lat="47.2643" lon="6.10285">
        <ele>389.6</ele>
        <time>2021-09-30T10:30:19Z</time>
      </trkpt>
      <trkpt lat="47.26429" lon="6.10287">
        <ele>389.8</ele>
        <time>2021-09-30T10:30:20Z</time>
      </trkpt>
      <trkpt lat="47.26427" lon="6.10289">
        <ele>389.8</ele>
        <time>2021-09-30T10:30:21Z</time>
      </trkpt>
      <trkpt lat="47.26426" lon="6.1029">
        <ele>390</ele>
        <time>2021-09-30T10:30:22Z</time>
      </trkpt>
      <trkpt lat="47.26425" lon="6.10291">
        <ele>390.4</ele>
        <time>2021-09-30T10:30:23Z</time>
      </trkpt>
      <trkpt lat="47.26423" lon="6.10293">
        <ele>390.4</ele>
        <time>2021-09-30T10:30:24Z</time>
      </trkpt>
      <trkpt lat="47.26421" lon="6.10296">
        <ele>390.6</ele>
        <time>2021-09-30T10:30:25Z</time>
      </trkpt>
      <trkpt lat="47.26419" lon="6.10298">
        <ele>390.6</ele>
        <time>2021-09-30T10:30:26Z</time>
      </trkpt>
      <trkpt lat="47.26418" lon="6.103">
        <ele>391</ele>
        <time>2021-09-30T10:30:27Z</time>
      </trkpt>
      <trkpt lat="47.26416" lon="6.10301">
        <ele>391</ele>
        <time>2021-09-30T10:30:28Z</time>
      </trkpt>
      <trkpt lat="47.26414" lon="6.10303">
        <ele>391.2</ele>
        <time>2021-09-30T10:30:29Z</time>
      </trkpt>
      <trkpt lat="47.26413" lon="6.10305">
        <ele>391.2</ele>
        <time>2021-09-30T10:30:30Z</time>
      </trkpt>
      <trkpt lat="47.26412" lon="6.10307">
        <ele>391.6</ele>
        <time>2021-09-30T10:30:31Z</time>
      </trkpt>
      <trkpt lat="47.26411" lon="6.10309">
        <ele>391.6</ele>
        <time>2021-09-30T10:30:32Z</time>
      </trkpt>
      <trkpt lat="47.2641" lon="6.10311">
        <ele>391.6</ele>
        <time>2021-09-30T10:30:33Z</time>
      </trkpt>
      <trkpt lat="47.26408" lon="6.10312">
        <ele>391.8</ele>
        <time>2021-09-30T10:30:34Z</time>
      </trkpt>
      <trkpt lat="47.26406" lon="6.10315">
        <ele>391.8</ele>
        <time>2021-09-30T10:30:35Z</time>
      </trkpt>
      <trkpt lat="47.26403" lon="6.10315">
        <ele>392.2</ele>
        <time>2021-09-30T10:30:36Z</time>
      </trkpt>
      <trkpt lat="47.264" lon="6.10317">
        <ele>392.4</ele>
        <time>2021-09-30T10:30:37Z</time>
      </trkpt>
      <trkpt lat="47.26398" lon="6.10319">
        <ele>392.4</ele>
        <time>2021-09-30T10:30:38Z</time>
      </trkpt>
      <trkpt lat="47.26396" lon="6.1032">
        <ele>392.6</ele>
        <time>2021-09-30T10:30:39Z</time>
      </trkpt>
      <trkpt lat="47.26395" lon="6.10322">
        <ele>393</ele>
        <time>2021-09-30T10:30:40Z</time>
      </trkpt>
      <trkpt lat="47.26393" lon="6.10323">
        <ele>393</ele>
        <time>2021-09-30T10:30:41Z</time>
      </trkpt>
      <trkpt lat="47.26391" lon="6.10323">
        <ele>393</ele>
        <time>2021-09-30T10:30:42Z</time>
      </trkpt>
      <trkpt lat="47.26389" lon="6.10323">
        <ele>393</ele>
        <time>2021-09-30T10:30:43Z</time>
      </trkpt>
      <trkpt lat="47.26386" lon="6.10326">
        <ele>393.2</ele>
        <time>2021-09-30T10:30:44Z</time>
      </trkpt>
      <trkpt lat="47.26384" lon="6.10327">
        <ele>393.6</ele>
        <time>2021-09-30T10:30:45Z</time>
      </trkpt>
      <trkpt lat="47.26382" lon="6.10327">
        <ele>393.6</ele>
        <time>2021-09-30T10:30:46Z</time>
      </trkpt>
      <trkpt lat="47.26379" lon="6.1033">
        <ele>393.6</ele>
        <time>2021-09-30T10:30:47Z</time>
      </trkpt>
      <trkpt lat="47.26376" lon="6.10331">
        <ele>393.8</ele>
        <time>2021-09-30T10:30:48Z</time>
      </trkpt>
      <trkpt lat="47.26373" lon="6.10331">
        <ele>393.8</ele>
        <time>2021-09-30T10:30:49Z</time>
      </trkpt>
      <trkpt lat="47.26372" lon="6.10331">
        <ele>393.8</ele>
        <time>2021-09-30T10:30:50Z</time>
      </trkpt>
      <trkpt lat="47.26369" lon="6.10331">
        <ele>394.2</ele>
        <time>2021-09-30T10:30:51Z</time>
      </trkpt>
      <trkpt lat="47.26367" lon="6.1033">
        <ele>394.2</ele>
        <time>2021-09-30T10:30:52Z</time>
      </trkpt>
      <trkpt lat="47.26364" lon="6.10328">
        <ele>394.4</ele>
        <time>2021-09-30T10:30:53Z</time>
      </trkpt>
      <trkpt lat="47.26362" lon="6.10328">
        <ele>394.4</ele>
        <time>2021-09-30T10:30:54Z</time>
      </trkpt>
      <trkpt lat="47.2636" lon="6.10327">
        <ele>394.8</ele>
        <time>2021-09-30T10:30:55Z</time>
      </trkpt>
      <trkpt lat="47.26358" lon="6.10326">
        <ele>395</ele>
        <time>2021-09-30T10:30:56Z</time>
      </trkpt>
      <trkpt lat="47.26357" lon="6.10326">
        <ele>395</ele>
        <time>2021-09-30T10:30:57Z</time>
      </trkpt>
      <trkpt lat="47.26355" lon="6.10325">
        <ele>395.2</ele>
        <time>2021-09-30T10:30:58Z</time>
      </trkpt>
      <trkpt lat="47.26354" lon="6.10324">
        <ele>395.2</ele>
        <time>2021-09-30T10:30:59Z</time>
      </trkpt>
      <trkpt lat="47.26353" lon="6.10324">
        <ele>395.6</ele>
        <time>2021-09-30T10:31:00Z</time>
      </trkpt>
      <trkpt lat="47.26352" lon="6.10323">
        <ele>395.6</ele>
        <time>2021-09-30T10:31:01Z</time>
      </trkpt>
      <trkpt lat="47.26352" lon="6.10323">
        <ele>395.6</ele>
        <time>2021-09-30T10:31:02Z</time>
      </trkpt>
      <trkpt lat="47.26351" lon="6.10323">
        <ele>395.8</ele>
        <time>2021-09-30T10:31:03Z</time>
      </trkpt>
      <trkpt lat="47.2635" lon="6.10322">
        <ele>396.2</ele>
        <time>2021-09-30T10:31:04Z</time>
      </trkpt>
      <trkpt lat="47.26349" lon="6.10321">
        <ele>396.2</ele>
        <time>2021-09-30T10:31:05Z</time>
      </trkpt>
      <trkpt lat="47.26347" lon="6.1032">
        <ele>396.2</ele>
        <time>2021-09-30T10:31:06Z</time>
      </trkpt>
      <trkpt lat="47.26346" lon="6.10318">
        <ele>396.4</ele>
        <time>2021-09-30T10:31:07Z</time>
      </trkpt>
      <trkpt lat="47.26344" lon="6.10317">
        <ele>396.8</ele>
        <time>2021-09-30T10:31:08Z</time>
      </trkpt>
      <trkpt lat="47.26342" lon="6.10316">
        <ele>396.8</ele>
        <time>2021-09-30T10:31:09Z</time>
      </trkpt>
      <trkpt lat="47.26341" lon="6.10314">
        <ele>396.8</ele>
        <time>2021-09-30T10:31:10Z</time>
      </trkpt>
      <trkpt lat="47.2634" lon="6.10313">
        <ele>397</ele>
        <time>2021-09-30T10:31:11Z</time>
      </trkpt>
      <trkpt lat="47.26338" lon="6.10311">
        <ele>397</ele>
        <time>2021-09-30T10:31:12Z</time>
      </trkpt>
      <trkpt lat="47.26337" lon="6.1031">
        <ele>397.4</ele>
        <time>2021-09-30T10:31:13Z</time>
      </trkpt>
      <trkpt lat="47.26336" lon="6.10308">
        <ele>397.6</ele>
        <time>2021-09-30T10:31:14Z</time>
      </trkpt>
      <trkpt lat="47.26335" lon="6.10306">
        <ele>397.6</ele>
        <time>2021-09-30T10:31:15Z</time>
      </trkpt>
      <trkpt lat="47.26334" lon="6.10304">
        <ele>397.6</ele>
        <time>2021-09-30T10:31:16Z</time>
      </trkpt>
      <trkpt lat="47.26332" lon="6.10302">
        <ele>397.6</ele>
        <time>2021-09-30T10:31:17Z</time>
      </trkpt>
      <trkpt lat="47.26331" lon="6.103">
        <ele>397.8</ele>
        <time>2021-09-30T10:31:18Z</time>
      </trkpt>
      <trkpt lat="47.26329" lon="6.10299">
        <ele>397.8</ele>
        <time>2021-09-30T10:31:19Z</time>
      </trkpt>
      <trkpt lat="47.26328" lon="6.10297">
        <ele>398.2</ele>
        <time>2021-09-30T10:31:20Z</time>
      </trkpt>
      <trkpt lat="47.26326" lon="6.10295">
        <ele>398.4</ele>
        <time>2021-09-30T10:31:21Z</time>
      </trkpt>
      <trkpt lat="47.26325" lon="6.10293">
        <ele>398.8</ele>
        <time>2021-09-30T10:31:22Z</time>
      </trkpt>
      <trkpt lat="47.26325" lon="6.10291">
        <ele>398.8</ele>
        <time>2021-09-30T10:31:23Z</time>
      </trkpt>
      <trkpt lat="47.26324" lon="6.1029">
        <ele>399</ele>
        <time>2021-09-30T10:31:24Z</time>
      </trkpt>
      <trkpt lat="47.26324" lon="6.10288">
        <ele>399</ele>
        <time>2021-09-30T10:31:25Z</time>
      </trkpt>
      <trkpt lat="47.26323" lon="6.10286">
        <ele>399.4</ele>
        <time>2021-09-30T10:31:26Z</time>
      </trkpt>
      <trkpt lat="47.26323" lon="6.10284">
        <ele>399.4</ele>
        <time>2021-09-30T10:31:27Z</time>
      </trkpt>
      <trkpt lat="47.26322" lon="6.10282">
        <ele>399.6</ele>
        <time>2021-09-30T10:31:28Z</time>
      </trkpt>
      <trkpt lat="47.26322" lon="6.10281">
        <ele>399.6</ele>
        <time>2021-09-30T10:31:29Z</time>
      </trkpt>
      <trkpt lat="47.26321" lon="6.1028">
        <ele>400</ele>
        <time>2021-09-30T10:31:30Z</time>
      </trkpt>
      <trkpt lat="47.26321" lon="6.10278">
        <ele>400.2</ele>
        <time>2021-09-30T10:31:31Z</time>
      </trkpt>
      <trkpt lat="47.2632" lon="6.10276">
        <ele>400.2</ele>
        <time>2021-09-30T10:31:32Z</time>
      </trkpt>
      <trkpt lat="47.2632" lon="6.10274">
        <ele>400.6</ele>
        <time>2021-09-30T10:31:33Z</time>
      </trkpt>
      <trkpt lat="47.26319" lon="6.10272">
        <ele>400.6</ele>
        <time>2021-09-30T10:31:34Z</time>
      </trkpt>
      <trkpt lat="47.26318" lon="6.10269">
        <ele>400.8</ele>
        <time>2021-09-30T10:31:35Z</time>
      </trkpt>
      <trkpt lat="47.26318" lon="6.10267">
        <ele>400.8</ele>
        <time>2021-09-30T10:31:36Z</time>
      </trkpt>
      <trkpt lat="47.26317" lon="6.10265">
        <ele>400.8</ele>
        <time>2021-09-30T10:31:37Z</time>
      </trkpt>
      <trkpt lat="47.26317" lon="6.10263">
        <ele>401.2</ele>
        <time>2021-09-30T10:31:38Z</time>
      </trkpt>
      <trkpt lat="47.26317" lon="6.10261">
        <ele>401.2</ele>
        <time>2021-09-30T10:31:39Z</time>
      </trkpt>
      <trkpt lat="47.26316" lon="6.10259">
        <ele>401.4</ele>
        <time>2021-09-30T10:31:40Z</time>
      </trkpt>
      <trkpt lat="47.26316" lon="6.10257">
        <ele>401.4</ele>
        <time>2021-09-30T10:31:41Z</time>
      </trkpt>
      <trkpt lat="47.26316" lon="6.10255">
        <ele>401.6</ele>
        <time>2021-09-30T10:31:42Z</time>
      </trkpt>
      <trkpt lat="47.26316" lon="6.10253">
        <ele>401.6</ele>
        <time>2021-09-30T10:31:43Z</time>
      </trkpt>
      <trkpt lat="47.26316" lon="6.10252">
        <ele>401.8</ele>
        <time>2021-09-30T10:31:44Z</time>
      </trkpt>
      <trkpt lat="47.26315" lon="6.1025">
        <ele>402</ele>
        <time>2021-09-30T10:31:45Z</time>
      </trkpt>
      <trkpt lat="47.26315" lon="6.10248">
        <ele>402</ele>
        <time>2021-09-30T10:31:46Z</time>
      </trkpt>
      <trkpt lat="47.26314" lon="6.10247">
        <ele>402.2</ele>
        <time>2021-09-30T10:31:47Z</time>
      </trkpt>
      <trkpt lat="47.26314" lon="6.10246">
        <ele>402.2</ele>
        <time>2021-09-30T10:31:48Z</time>
      </trkpt>
      <trkpt lat="47.26313" lon="6.10245">
        <ele>402.4</ele>
        <time>2021-09-30T10:31:49Z</time>
      </trkpt>
      <trkpt lat="47.26313" lon="6.10243">
        <ele>402.6</ele>
        <time>2021-09-30T10:31:50Z</time>
      </trkpt>
      <trkpt lat="47.26312" lon="6.1024">
        <ele>402.8</ele>
        <time>2021-09-30T10:31:51Z</time>
      </trkpt>
      <trkpt lat="47.26312" lon="6.10238">
        <ele>403</ele>
        <time>2021-09-30T10:31:52Z</time>
      </trkpt>
      <trkpt lat="47.26312" lon="6.10236">
        <ele>403.2</ele>
        <time>2021-09-30T10:31:53Z</time>
      </trkpt>
      <trkpt lat="47.26311" lon="6.10233">
        <ele>403.2</ele>
        <time>2021-09-30T10:31:54Z</time>
      </trkpt>
      <trkpt lat="47.26311" lon="6.1023">
        <ele>403.6</ele>
        <time>2021-09-30T10:31:55Z</time>
      </trkpt>
      <trkpt lat="47.2631" lon="6.10228">
        <ele>403.6</ele>
        <time>2021-09-30T10:31:56Z</time>
      </trkpt>
      <trkpt lat="47.26309" lon="6.10224">
        <ele>404</ele>
        <time>2021-09-30T10:31:57Z</time>
      </trkpt>
      <trkpt lat="47.26308" lon="6.10221">
        <ele>404</ele>
        <time>2021-09-30T10:31:58Z</time>
      </trkpt>
      <trkpt lat="47.26307" lon="6.10217">
        <ele>404.2</ele>
        <time>2021-09-30T10:31:59Z</time>
      </trkpt>
      <trkpt lat="47.26306" lon="6.10215">
        <ele>404.4</ele>
        <time>2021-09-30T10:32:00Z</time>
      </trkpt>
      <trkpt lat="47.26306" lon="6.10212">
        <ele>404.4</ele>
        <time>2021-09-30T10:32:01Z</time>
      </trkpt>
      <trkpt lat="47.26305" lon="6.10208">
        <ele>404.6</ele>
        <time>2021-09-30T10:32:02Z</time>
      </trkpt>
      <trkpt lat="47.26305" lon="6.10205">
        <ele>404.8</ele>
        <time>2021-09-30T10:32:03Z</time>
      </trkpt>
      <trkpt lat="47.26304" lon="6.10202">
        <ele>405</ele>
        <time>2021-09-30T10:32:04Z</time>
      </trkpt>
      <trkpt lat="47.26304" lon="6.10199">
        <ele>405.2</ele>
        <time>2021-09-30T10:32:05Z</time>
      </trkpt>
      <trkpt lat="47.26303" lon="6.10197">
        <ele>405.4</ele>
        <time>2021-09-30T10:32:06Z</time>
      </trkpt>
      <trkpt lat="47.26301" lon="6.10194">
        <ele>405.4</ele>
        <time>2021-09-30T10:32:07Z</time>
      </trkpt>
      <trkpt lat="47.26299" lon="6.10191">
        <ele>405.8</ele>
        <time>2021-09-30T10:32:08Z</time>
      </trkpt>
      <trkpt lat="47.26298" lon="6.10188">
        <ele>405.8</ele>
        <time>2021-09-30T10:32:09Z</time>
      </trkpt>
      <trkpt lat="47.26297" lon="6.10185">
        <ele>406</ele>
        <time>2021-09-30T10:32:10Z</time>
      </trkpt>
      <trkpt lat="47.26296" lon="6.10183">
        <ele>406.2</ele>
        <time>2021-09-30T10:32:11Z</time>
      </trkpt>
      <trkpt lat="47.26295" lon="6.10179">
        <ele>406.2</ele>
        <time>2021-09-30T10:32:12Z</time>
      </trkpt>
      <trkpt lat="47.26296" lon="6.10176">
        <ele>406.2</ele>
        <time>2021-09-30T10:32:13Z</time>
      </trkpt>
      <trkpt lat="47.26295" lon="6.10173">
        <ele>406.4</ele>
        <time>2021-09-30T10:32:14Z</time>
      </trkpt>
      <trkpt lat="47.26294" lon="6.1017">
        <ele>406.6</ele>
        <time>2021-09-30T10:32:15Z</time>
      </trkpt>
      <trkpt lat="47.26293" lon="6.10167">
        <ele>406.6</ele>
        <time>2021-09-30T10:32:16Z</time>
      </trkpt>
      <trkpt lat="47.26291" lon="6.10163">
        <ele>406.8</ele>
        <time>2021-09-30T10:32:17Z</time>
      </trkpt>
      <trkpt lat="47.26291" lon="6.1016">
        <ele>407</ele>
        <time>2021-09-30T10:32:18Z</time>
      </trkpt>
      <trkpt lat="47.2629" lon="6.10158">
        <ele>407.4</ele>
        <time>2021-09-30T10:32:19Z</time>
      </trkpt>
      <trkpt lat="47.2629" lon="6.10154">
        <ele>407.4</ele>
        <time>2021-09-30T10:32:20Z</time>
      </trkpt>
      <trkpt lat="47.26288" lon="6.10151">
        <ele>407.6</ele>
        <time>2021-09-30T10:32:21Z</time>
      </trkpt>
      <trkpt lat="47.26287" lon="6.10148">
        <ele>407.6</ele>
        <time>2021-09-30T10:32:22Z</time>
      </trkpt>
      <trkpt lat="47.26285" lon="6.10145">
        <ele>407.8</ele>
        <time>2021-09-30T10:32:23Z</time>
      </trkpt>
      <trkpt lat="47.26285" lon="6.10142">
        <ele>407.8</ele>
        <time>2021-09-30T10:32:24Z</time>
      </trkpt>
      <trkpt lat="47.26284" lon="6.10139">
        <ele>408</ele>
        <time>2021-09-30T10:32:25Z</time>
      </trkpt>
      <trkpt lat="47.26283" lon="6.10136">
        <ele>408</ele>
        <time>2021-09-30T10:32:26Z</time>
      </trkpt>
      <trkpt lat="47.26282" lon="6.10133">
        <ele>408.2</ele>
        <time>2021-09-30T10:32:27Z</time>
      </trkpt>
      <trkpt lat="47.26281" lon="6.10131">
        <ele>408.4</ele>
        <time>2021-09-30T10:32:28Z</time>
      </trkpt>
      <trkpt lat="47.2628" lon="6.10128">
        <ele>408.4</ele>
        <time>2021-09-30T10:32:29Z</time>
      </trkpt>
      <trkpt lat="47.26279" lon="6.10125">
        <ele>408.6</ele>
        <time>2021-09-30T10:32:30Z</time>
      </trkpt>
      <trkpt lat="47.26278" lon="6.10123">
        <ele>408.8</ele>
        <time>2021-09-30T10:32:31Z</time>
      </trkpt>
      <trkpt lat="47.26277" lon="6.1012">
        <ele>409</ele>
        <time>2021-09-30T10:32:32Z</time>
      </trkpt>
      <trkpt lat="47.26275" lon="6.10117">
        <ele>409.2</ele>
        <time>2021-09-30T10:32:33Z</time>
      </trkpt>
      <trkpt lat="47.26274" lon="6.10115">
        <ele>409.4</ele>
        <time>2021-09-30T10:32:34Z</time>
      </trkpt>
      <trkpt lat="47.26272" lon="6.10113">
        <ele>409.4</ele>
        <time>2021-09-30T10:32:35Z</time>
      </trkpt>
      <trkpt lat="47.2627" lon="6.10111">
        <ele>409.4</ele>
        <time>2021-09-30T10:32:36Z</time>
      </trkpt>
      <trkpt lat="47.26269" lon="6.10109">
        <ele>409.4</ele>
        <time>2021-09-30T10:32:37Z</time>
      </trkpt>
      <trkpt lat="47.26267" lon="6.10107">
        <ele>409.6</ele>
        <time>2021-09-30T10:32:38Z</time>
      </trkpt>
      <trkpt lat="47.26265" lon="6.10106">
        <ele>409.8</ele>
        <time>2021-09-30T10:32:39Z</time>
      </trkpt>
      <trkpt lat="47.26264" lon="6.10104">
        <ele>409.8</ele>
        <time>2021-09-30T10:32:40Z</time>
      </trkpt>
      <trkpt lat="47.26262" lon="6.10103">
        <ele>410</ele>
        <time>2021-09-30T10:32:41Z</time>
      </trkpt>
      <trkpt lat="47.26261" lon="6.10101">
        <ele>410</ele>
        <time>2021-09-30T10:32:42Z</time>
      </trkpt>
      <trkpt lat="47.26259" lon="6.101">
        <ele>410</ele>
        <time>2021-09-30T10:32:43Z</time>
      </trkpt>
      <trkpt lat="47.26258" lon="6.10098">
        <ele>410</ele>
        <time>2021-09-30T10:32:44Z</time>
      </trkpt>
      <trkpt lat="47.26257" lon="6.10097">
        <ele>410</ele>
        <time>2021-09-30T10:32:45Z</time>
      </trkpt>
      <trkpt lat="47.26256" lon="6.10095">
        <ele>410</ele>
        <time>2021-09-30T10:32:46Z</time>
      </trkpt>
      <trkpt lat="47.26254" lon="6.10093">
        <ele>410.2</ele>
        <time>2021-09-30T10:32:47Z</time>
      </trkpt>
      <trkpt lat="47.26253" lon="6.10092">
        <ele>410.2</ele>
        <time>2021-09-30T10:32:48Z</time>
      </trkpt>
      <trkpt lat="47.26251" lon="6.1009">
        <ele>410.2</ele>
        <time>2021-09-30T10:32:49Z</time>
      </trkpt>
      <trkpt lat="47.26249" lon="6.10088">
        <ele>410.2</ele>
        <time>2021-09-30T10:32:50Z</time>
      </trkpt>
      <trkpt lat="47.26247" lon="6.10085">
        <ele>410.2</ele>
        <time>2021-09-30T10:32:51Z</time>
      </trkpt>
      <trkpt lat="47.26246" lon="6.10084">
        <ele>410.4</ele>
        <time>2021-09-30T10:32:52Z</time>
      </trkpt>
      <trkpt lat="47.26245" lon="6.10083">
        <ele>410.6</ele>
        <time>2021-09-30T10:32:53Z</time>
      </trkpt>
      <trkpt lat="47.26242" lon="6.10081">
        <ele>410.6</ele>
        <time>2021-09-30T10:32:54Z</time>
      </trkpt>
      <trkpt lat="47.26238" lon="6.10075">
        <ele>410.8</ele>
        <time>2021-09-30T10:32:57Z</time>
      </trkpt>
      <trkpt lat="47.26234" lon="6.10071">
        <ele>410.8</ele>
        <time>2021-09-30T10:33:00Z</time>
      </trkpt>
      <trkpt lat="47.2623" lon="6.10067">
        <ele>411</ele>
        <time>2021-09-30T10:33:02Z</time>
      </trkpt>
      <trkpt lat="47.26217" lon="6.10053">
        <ele>411.2</ele>
        <time>2021-09-30T10:33:08Z</time>
      </trkpt>
      <trkpt lat="47.26214" lon="6.10051">
        <ele>411.2</ele>
        <time>2021-09-30T10:33:09Z</time>
      </trkpt>
      <trkpt lat="47.26203" lon="6.10041">
        <ele>411.4</ele>
        <time>2021-09-30T10:33:14Z</time>
      </trkpt>
      <trkpt lat="47.26185" lon="6.10029">
        <ele>411.6</ele>
        <time>2021-09-30T10:33:19Z</time>
      </trkpt>
      <trkpt lat="47.26182" lon="6.10027">
        <ele>411.6</ele>
        <time>2021-09-30T10:33:20Z</time>
      </trkpt>
      <trkpt lat="47.26178" lon="6.10025">
        <ele>411.6</ele>
        <time>2021-09-30T10:33:22Z</time>
      </trkpt>
      <trkpt lat="47.26176" lon="6.10026">
        <ele>411.8</ele>
        <time>2021-09-30T10:33:23Z</time>
      </trkpt>
      <trkpt lat="47.26175" lon="6.10027">
        <ele>411.8</ele>
        <time>2021-09-30T10:33:24Z</time>
      </trkpt>
      <trkpt lat="47.26172" lon="6.10027">
        <ele>411.8</ele>
        <time>2021-09-30T10:33:25Z</time>
      </trkpt>
      <trkpt lat="47.26171" lon="6.10028">
        <ele>411.8</ele>
        <time>2021-09-30T10:33:26Z</time>
      </trkpt>
      <trkpt lat="47.26169" lon="6.10029">
        <ele>411.8</ele>
        <time>2021-09-30T10:33:27Z</time>
      </trkpt>
      <trkpt lat="47.26167" lon="6.10031">
        <ele>411.8</ele>
        <time>2021-09-30T10:33:28Z</time>
      </trkpt>
      <trkpt lat="47.26164" lon="6.10034">
        <ele>412</ele>
        <time>2021-09-30T10:33:29Z</time>
      </trkpt>
      <trkpt lat="47.26161" lon="6.10035">
        <ele>412</ele>
        <time>2021-09-30T10:33:30Z</time>
      </trkpt>
      <trkpt lat="47.26157" lon="6.10038">
        <ele>412.2</ele>
        <time>2021-09-30T10:33:32Z</time>
      </trkpt>
      <trkpt lat="47.26156" lon="6.1004">
        <ele>412.2</ele>
        <time>2021-09-30T10:33:33Z</time>
      </trkpt>
      <trkpt lat="47.26155" lon="6.10042">
        <ele>412.4</ele>
        <time>2021-09-30T10:33:34Z</time>
      </trkpt>
      <trkpt lat="47.26154" lon="6.10044">
        <ele>412.4</ele>
        <time>2021-09-30T10:33:35Z</time>
      </trkpt>
      <trkpt lat="47.26152" lon="6.10046">
        <ele>412.6</ele>
        <time>2021-09-30T10:33:36Z</time>
      </trkpt>
      <trkpt lat="47.2615" lon="6.1005">
        <ele>412.8</ele>
        <time>2021-09-30T10:33:37Z</time>
      </trkpt>
      <trkpt lat="47.26147" lon="6.10052">
        <ele>413</ele>
        <time>2021-09-30T10:33:38Z</time>
      </trkpt>
      <trkpt lat="47.26141" lon="6.10058">
        <ele>413.8</ele>
        <time>2021-09-30T10:33:41Z</time>
      </trkpt>
      <trkpt lat="47.2614" lon="6.10059">
        <ele>414</ele>
        <time>2021-09-30T10:33:42Z</time>
      </trkpt>
      <trkpt lat="47.26138" lon="6.10062">
        <ele>414</ele>
        <time>2021-09-30T10:33:43Z</time>
      </trkpt>
      <trkpt lat="47.26138" lon="6.10065">
        <ele>414.2</ele>
        <time>2021-09-30T10:33:44Z</time>
      </trkpt>
      <trkpt lat="47.26135" lon="6.10068">
        <ele>414.4</ele>
        <time>2021-09-30T10:33:45Z</time>
      </trkpt>
      <trkpt lat="47.26134" lon="6.1007">
        <ele>414.6</ele>
        <time>2021-09-30T10:33:46Z</time>
      </trkpt>
      <trkpt lat="47.26133" lon="6.10072">
        <ele>414.8</ele>
        <time>2021-09-30T10:33:47Z</time>
      </trkpt>
      <trkpt lat="47.26131" lon="6.10076">
        <ele>415</ele>
        <time>2021-09-30T10:33:48Z</time>
      </trkpt>
      <trkpt lat="47.26128" lon="6.1008">
        <ele>415.4</ele>
        <time>2021-09-30T10:33:49Z</time>
      </trkpt>
      <trkpt lat="47.26126" lon="6.10084">
        <ele>415.6</ele>
        <time>2021-09-30T10:33:50Z</time>
      </trkpt>
      <trkpt lat="47.26124" lon="6.10086">
        <ele>415.8</ele>
        <time>2021-09-30T10:33:51Z</time>
      </trkpt>
      <trkpt lat="47.26122" lon="6.10088">
        <ele>416</ele>
        <time>2021-09-30T10:33:52Z</time>
      </trkpt>
      <trkpt lat="47.26121" lon="6.10089">
        <ele>416.2</ele>
        <time>2021-09-30T10:33:53Z</time>
      </trkpt>
      <trkpt lat="47.2612" lon="6.10093">
        <ele>416.4</ele>
        <time>2021-09-30T10:33:54Z</time>
      </trkpt>
      <trkpt lat="47.26119" lon="6.10096">
        <ele>416.6</ele>
        <time>2021-09-30T10:33:55Z</time>
      </trkpt>
      <trkpt lat="47.26121" lon="6.10099">
        <ele>416.8</ele>
        <time>2021-09-30T10:33:56Z</time>
      </trkpt>
      <trkpt lat="47.26122" lon="6.10102">
        <ele>417.2</ele>
        <time>2021-09-30T10:33:57Z</time>
      </trkpt>
      <trkpt lat="47.26123" lon="6.10109">
        <ele>417.4</ele>
        <time>2021-09-30T10:33:58Z</time>
      </trkpt>
      <trkpt lat="47.26122" lon="6.10113">
        <ele>417.6</ele>
        <time>2021-09-30T10:33:59Z</time>
      </trkpt>
      <trkpt lat="47.26121" lon="6.10115">
        <ele>417.6</ele>
        <time>2021-09-30T10:34:00Z</time>
      </trkpt>
      <trkpt lat="47.26118" lon="6.10119">
        <ele>417.6</ele>
        <time>2021-09-30T10:34:01Z</time>
      </trkpt>
      <trkpt lat="47.26115" lon="6.10123">
        <ele>417.8</ele>
        <time>2021-09-30T10:34:02Z</time>
      </trkpt>
      <trkpt lat="47.26114" lon="6.10127">
        <ele>418</ele>
        <time>2021-09-30T10:34:03Z</time>
      </trkpt>
      <trkpt lat="47.26113" lon="6.1013">
        <ele>418</ele>
        <time>2021-09-30T10:34:04Z</time>
      </trkpt>
      <trkpt lat="47.26115" lon="6.10133">
        <ele>418.2</ele>
        <time>2021-09-30T10:34:05Z</time>
      </trkpt>
      <trkpt lat="47.26116" lon="6.10136">
        <ele>418.6</ele>
        <time>2021-09-30T10:34:06Z</time>
      </trkpt>
      <trkpt lat="47.26116" lon="6.10137">
        <ele>418.8</ele>
        <time>2021-09-30T10:34:07Z</time>
      </trkpt>
      <trkpt lat="47.26116" lon="6.10139">
        <ele>419</ele>
        <time>2021-09-30T10:34:08Z</time>
      </trkpt>
      <trkpt lat="47.26116" lon="6.10141">
        <ele>419.4</ele>
        <time>2021-09-30T10:34:09Z</time>
      </trkpt>
      <trkpt lat="47.26115" lon="6.10144">
        <ele>419.4</ele>
        <time>2021-09-30T10:34:10Z</time>
      </trkpt>
      <trkpt lat="47.26115" lon="6.10147">
        <ele>419.6</ele>
        <time>2021-09-30T10:34:11Z</time>
      </trkpt>
      <trkpt lat="47.26114" lon="6.1015">
        <ele>419.8</ele>
        <time>2021-09-30T10:34:12Z</time>
      </trkpt>
      <trkpt lat="47.26113" lon="6.10151">
        <ele>420</ele>
        <time>2021-09-30T10:34:13Z</time>
      </trkpt>
      <trkpt lat="47.26113" lon="6.10153">
        <ele>420.2</ele>
        <time>2021-09-30T10:34:14Z</time>
      </trkpt>
      <trkpt lat="47.26113" lon="6.10155">
        <ele>420.2</ele>
        <time>2021-09-30T10:34:15Z</time>
      </trkpt>
      <trkpt lat="47.26112" lon="6.10157">
        <ele>420.4</ele>
        <time>2021-09-30T10:34:16Z</time>
      </trkpt>
      <trkpt lat="47.26112" lon="6.10158">
        <ele>420.6</ele>
        <time>2021-09-30T10:34:17Z</time>
      </trkpt>
      <trkpt lat="47.26111" lon="6.1016">
        <ele>420.6</ele>
        <time>2021-09-30T10:34:18Z</time>
      </trkpt>
      <trkpt lat="47.26111" lon="6.10162">
        <ele>420.8</ele>
        <time>2021-09-30T10:34:19Z</time>
      </trkpt>
      <trkpt lat="47.26111" lon="6.10165">
        <ele>420.8</ele>
        <time>2021-09-30T10:34:20Z</time>
      </trkpt>
      <trkpt lat="47.2611" lon="6.10168">
        <ele>420.8</ele>
        <time>2021-09-30T10:34:21Z</time>
      </trkpt>
      <trkpt lat="47.2611" lon="6.10171">
        <ele>420.8</ele>
        <time>2021-09-30T10:34:22Z</time>
      </trkpt>
      <trkpt lat="47.26109" lon="6.10174">
        <ele>421</ele>
        <time>2021-09-30T10:34:23Z</time>
      </trkpt>
      <trkpt lat="47.26109" lon="6.10177">
        <ele>421</ele>
        <time>2021-09-30T10:34:24Z</time>
      </trkpt>
      <trkpt lat="47.26109" lon="6.1018">
        <ele>421</ele>
        <time>2021-09-30T10:34:25Z</time>
      </trkpt>
      <trkpt lat="47.26109" lon="6.10183">
        <ele>421</ele>
        <time>2021-09-30T10:34:26Z</time>
      </trkpt>
      <trkpt lat="47.26108" lon="6.10187">
        <ele>421</ele>
        <time>2021-09-30T10:34:27Z</time>
      </trkpt>
      <trkpt lat="47.26108" lon="6.1019">
        <ele>421</ele>
        <time>2021-09-30T10:34:28Z</time>
      </trkpt>
      <trkpt lat="47.26108" lon="6.10193">
        <ele>421</ele>
        <time>2021-09-30T10:34:29Z</time>
      </trkpt>
      <trkpt lat="47.26108" lon="6.10195">
        <ele>421</ele>
        <time>2021-09-30T10:34:30Z</time>
      </trkpt>
      <trkpt lat="47.26108" lon="6.10199">
        <ele>420.8</ele>
        <time>2021-09-30T10:34:31Z</time>
      </trkpt>
      <trkpt lat="47.26107" lon="6.10203">
        <ele>421</ele>
        <time>2021-09-30T10:34:32Z</time>
      </trkpt>
      <trkpt lat="47.26106" lon="6.10206">
        <ele>421</ele>
        <time>2021-09-30T10:34:33Z</time>
      </trkpt>
      <trkpt lat="47.26105" lon="6.1021">
        <ele>420.8</ele>
        <time>2021-09-30T10:34:34Z</time>
      </trkpt>
      <trkpt lat="47.26104" lon="6.10213">
        <ele>420.8</ele>
        <time>2021-09-30T10:34:35Z</time>
      </trkpt>
      <trkpt lat="47.26104" lon="6.10217">
        <ele>420.8</ele>
        <time>2021-09-30T10:34:36Z</time>
      </trkpt>
      <trkpt lat="47.26104" lon="6.10221">
        <ele>420.8</ele>
        <time>2021-09-30T10:34:37Z</time>
      </trkpt>
      <trkpt lat="47.26103" lon="6.10224">
        <ele>420.8</ele>
        <time>2021-09-30T10:34:38Z</time>
      </trkpt>
      <trkpt lat="47.26101" lon="6.10237">
        <ele>420.8</ele>
        <time>2021-09-30T10:34:42Z</time>
      </trkpt>
      <trkpt lat="47.261" lon="6.10239">
        <ele>420.8</ele>
        <time>2021-09-30T10:34:43Z</time>
      </trkpt>
      <trkpt lat="47.26099" lon="6.10242">
        <ele>420.8</ele>
        <time>2021-09-30T10:34:44Z</time>
      </trkpt>
      <trkpt lat="47.26099" lon="6.10245">
        <ele>421</ele>
        <time>2021-09-30T10:34:45Z</time>
      </trkpt>
      <trkpt lat="47.26099" lon="6.10248">
        <ele>421.2</ele>
        <time>2021-09-30T10:34:46Z</time>
      </trkpt>
      <trkpt lat="47.26099" lon="6.10251">
        <ele>421.2</ele>
        <time>2021-09-30T10:34:47Z</time>
      </trkpt>
      <trkpt lat="47.26099" lon="6.10253">
        <ele>421.6</ele>
        <time>2021-09-30T10:34:48Z</time>
      </trkpt>
      <trkpt lat="47.261" lon="6.10256">
        <ele>421.6</ele>
        <time>2021-09-30T10:34:50Z</time>
      </trkpt>
      <trkpt lat="47.26102" lon="6.10261">
        <ele>421.6</ele>
        <time>2021-09-30T10:34:51Z</time>
      </trkpt>
      <trkpt lat="47.26101" lon="6.10265">
        <ele>421.8</ele>
        <time>2021-09-30T10:34:52Z</time>
      </trkpt>
      <trkpt lat="47.26099" lon="6.1027">
        <ele>421.8</ele>
        <time>2021-09-30T10:34:53Z</time>
      </trkpt>
      <trkpt lat="47.26096" lon="6.10277">
        <ele>422</ele>
        <time>2021-09-30T10:34:55Z</time>
      </trkpt>
      <trkpt lat="47.26095" lon="6.1028">
        <ele>422.2</ele>
        <time>2021-09-30T10:34:56Z</time>
      </trkpt>
      <trkpt lat="47.26094" lon="6.10283">
        <ele>422.4</ele>
        <time>2021-09-30T10:34:57Z</time>
      </trkpt>
      <trkpt lat="47.26093" lon="6.10286">
        <ele>422.6</ele>
        <time>2021-09-30T10:34:58Z</time>
      </trkpt>
      <trkpt lat="47.26089" lon="6.10293">
        <ele>423</ele>
        <time>2021-09-30T10:35:01Z</time>
      </trkpt>
      <trkpt lat="47.26088" lon="6.10294">
        <ele>423.2</ele>
        <time>2021-09-30T10:35:02Z</time>
      </trkpt>
      <trkpt lat="47.26088" lon="6.10296">
        <ele>423.4</ele>
        <time>2021-09-30T10:35:03Z</time>
      </trkpt>
      <trkpt lat="47.26087" lon="6.10298">
        <ele>423.6</ele>
        <time>2021-09-30T10:35:04Z</time>
      </trkpt>
      <trkpt lat="47.26087" lon="6.10299">
        <ele>423.8</ele>
        <time>2021-09-30T10:35:05Z</time>
      </trkpt>
      <trkpt lat="47.26086" lon="6.10301">
        <ele>424</ele>
        <time>2021-09-30T10:35:06Z</time>
      </trkpt>
      <trkpt lat="47.26085" lon="6.10303">
        <ele>424.2</ele>
        <time>2021-09-30T10:35:07Z</time>
      </trkpt>
      <trkpt lat="47.26084" lon="6.10306">
        <ele>424.2</ele>
        <time>2021-09-30T10:35:08Z</time>
      </trkpt>
      <trkpt lat="47.26082" lon="6.1031">
        <ele>424.4</ele>
        <time>2021-09-30T10:35:09Z</time>
      </trkpt>
      <trkpt lat="47.26079" lon="6.10314">
        <ele>424.4</ele>
        <time>2021-09-30T10:35:10Z</time>
      </trkpt>
      <trkpt lat="47.26078" lon="6.10316">
        <ele>424.8</ele>
        <time>2021-09-30T10:35:11Z</time>
      </trkpt>
      <trkpt lat="47.26076" lon="6.10319">
        <ele>425</ele>
        <time>2021-09-30T10:35:12Z</time>
      </trkpt>
      <trkpt lat="47.26074" lon="6.10322">
        <ele>425.4</ele>
        <time>2021-09-30T10:35:13Z</time>
      </trkpt>
      <trkpt lat="47.26073" lon="6.10324">
        <ele>425.6</ele>
        <time>2021-09-30T10:35:14Z</time>
      </trkpt>
      <trkpt lat="47.26071" lon="6.10327">
        <ele>425.8</ele>
        <time>2021-09-30T10:35:15Z</time>
      </trkpt>
      <trkpt lat="47.26069" lon="6.10329">
        <ele>425.8</ele>
        <time>2021-09-30T10:35:16Z</time>
      </trkpt>
      <trkpt lat="47.26067" lon="6.10333">
        <ele>426</ele>
        <time>2021-09-30T10:35:17Z</time>
      </trkpt>
      <trkpt lat="47.26064" lon="6.10335">
        <ele>426.2</ele>
        <time>2021-09-30T10:35:18Z</time>
      </trkpt>
      <trkpt lat="47.26062" lon="6.10337">
        <ele>426.4</ele>
        <time>2021-09-30T10:35:19Z</time>
      </trkpt>
      <trkpt lat="47.2606" lon="6.10339">
        <ele>426.4</ele>
        <time>2021-09-30T10:35:20Z</time>
      </trkpt>
      <trkpt lat="47.26059" lon="6.10341">
        <ele>426.4</ele>
        <time>2021-09-30T10:35:21Z</time>
      </trkpt>
      <trkpt lat="47.26057" lon="6.10342">
        <ele>426.6</ele>
        <time>2021-09-30T10:35:22Z</time>
      </trkpt>
      <trkpt lat="47.26055" lon="6.10344">
        <ele>426.6</ele>
        <time>2021-09-30T10:35:23Z</time>
      </trkpt>
      <trkpt lat="47.26052" lon="6.10346">
        <ele>426.8</ele>
        <time>2021-09-30T10:35:24Z</time>
      </trkpt>
      <trkpt lat="47.26049" lon="6.10349">
        <ele>427</ele>
        <time>2021-09-30T10:35:25Z</time>
      </trkpt>
      <trkpt lat="47.26045" lon="6.1035">
        <ele>427.2</ele>
        <time>2021-09-30T10:35:26Z</time>
      </trkpt>
      <trkpt lat="47.26043" lon="6.1035">
        <ele>427.4</ele>
        <time>2021-09-30T10:35:27Z</time>
      </trkpt>
      <trkpt lat="47.26041" lon="6.1035">
        <ele>427.6</ele>
        <time>2021-09-30T10:35:28Z</time>
      </trkpt>
      <trkpt lat="47.26039" lon="6.10352">
        <ele>427.6</ele>
        <time>2021-09-30T10:35:29Z</time>
      </trkpt>
      <trkpt lat="47.26036" lon="6.10352">
        <ele>427.8</ele>
        <time>2021-09-30T10:35:30Z</time>
      </trkpt>
      <trkpt lat="47.26035" lon="6.10351">
        <ele>428</ele>
        <time>2021-09-30T10:35:31Z</time>
      </trkpt>
      <trkpt lat="47.26032" lon="6.10351">
        <ele>428.2</ele>
        <time>2021-09-30T10:35:32Z</time>
      </trkpt>
      <trkpt lat="47.2603" lon="6.1035">
        <ele>428.4</ele>
        <time>2021-09-30T10:35:33Z</time>
      </trkpt>
      <trkpt lat="47.26028" lon="6.10349">
        <ele>428.6</ele>
        <time>2021-09-30T10:35:34Z</time>
      </trkpt>
      <trkpt lat="47.26027" lon="6.10348">
        <ele>428.8</ele>
        <time>2021-09-30T10:35:35Z</time>
      </trkpt>
      <trkpt lat="47.26026" lon="6.10347">
        <ele>429</ele>
        <time>2021-09-30T10:35:36Z</time>
      </trkpt>
      <trkpt lat="47.26024" lon="6.10346">
        <ele>429.2</ele>
        <time>2021-09-30T10:35:37Z</time>
      </trkpt>
      <trkpt lat="47.26023" lon="6.10345">
        <ele>429.4</ele>
        <time>2021-09-30T10:35:38Z</time>
      </trkpt>
      <trkpt lat="47.26022" lon="6.10344">
        <ele>429.8</ele>
        <time>2021-09-30T10:35:39Z</time>
      </trkpt>
      <trkpt lat="47.2602" lon="6.10343">
        <ele>429.8</ele>
        <time>2021-09-30T10:35:40Z</time>
      </trkpt>
      <trkpt lat="47.26019" lon="6.10342">
        <ele>430</ele>
        <time>2021-09-30T10:35:41Z</time>
      </trkpt>
      <trkpt lat="47.26019" lon="6.10341">
        <ele>430.2</ele>
        <time>2021-09-30T10:35:42Z</time>
      </trkpt>
      <trkpt lat="47.26017" lon="6.1034">
        <ele>430.2</ele>
        <time>2021-09-30T10:35:43Z</time>
      </trkpt>
      <trkpt lat="47.26016" lon="6.10339">
        <ele>430.8</ele>
        <time>2021-09-30T10:35:44Z</time>
      </trkpt>
      <trkpt lat="47.26014" lon="6.10338">
        <ele>431</ele>
        <time>2021-09-30T10:35:45Z</time>
      </trkpt>
      <trkpt lat="47.26013" lon="6.10336">
        <ele>431.2</ele>
        <time>2021-09-30T10:35:46Z</time>
      </trkpt>
      <trkpt lat="47.26012" lon="6.10335">
        <ele>431.2</ele>
        <time>2021-09-30T10:35:47Z</time>
      </trkpt>
      <trkpt lat="47.26011" lon="6.10334">
        <ele>431.4</ele>
        <time>2021-09-30T10:35:48Z</time>
      </trkpt>
      <trkpt lat="47.26009" lon="6.10334">
        <ele>431.4</ele>
        <time>2021-09-30T10:35:49Z</time>
      </trkpt>
      <trkpt lat="47.26007" lon="6.10332">
        <ele>431.8</ele>
        <time>2021-09-30T10:35:50Z</time>
      </trkpt>
      <trkpt lat="47.26006" lon="6.10331">
        <ele>431.8</ele>
        <time>2021-09-30T10:35:51Z</time>
      </trkpt>
      <trkpt lat="47.26005" lon="6.1033">
        <ele>432.2</ele>
        <time>2021-09-30T10:35:52Z</time>
      </trkpt>
      <trkpt lat="47.26003" lon="6.10329">
        <ele>432.2</ele>
        <time>2021-09-30T10:35:53Z</time>
      </trkpt>
      <trkpt lat="47.26002" lon="6.10328">
        <ele>432.6</ele>
        <time>2021-09-30T10:35:54Z</time>
      </trkpt>
      <trkpt lat="47.25999" lon="6.10327">
        <ele>432.8</ele>
        <time>2021-09-30T10:35:55Z</time>
      </trkpt>
      <trkpt lat="47.25995" lon="6.10325">
        <ele>433</ele>
        <time>2021-09-30T10:35:56Z</time>
      </trkpt>
      <trkpt lat="47.25993" lon="6.10323">
        <ele>433.4</ele>
        <time>2021-09-30T10:35:57Z</time>
      </trkpt>
      <trkpt lat="47.25991" lon="6.10321">
        <ele>433.4</ele>
        <time>2021-09-30T10:35:58Z</time>
      </trkpt>
      <trkpt lat="47.25989" lon="6.10319">
        <ele>433.6</ele>
        <time>2021-09-30T10:35:59Z</time>
      </trkpt>
      <trkpt lat="47.25987" lon="6.10317">
        <ele>433.8</ele>
        <time>2021-09-30T10:36:00Z</time>
      </trkpt>
      <trkpt lat="47.25986" lon="6.10316">
        <ele>433.8</ele>
        <time>2021-09-30T10:36:01Z</time>
      </trkpt>
      <trkpt lat="47.25985" lon="6.10315">
        <ele>434</ele>
        <time>2021-09-30T10:36:02Z</time>
      </trkpt>
      <trkpt lat="47.25983" lon="6.10313">
        <ele>434</ele>
        <time>2021-09-30T10:36:03Z</time>
      </trkpt>
      <trkpt lat="47.25982" lon="6.10312">
        <ele>434.6</ele>
        <time>2021-09-30T10:36:04Z</time>
      </trkpt>
      <trkpt lat="47.25981" lon="6.10312">
        <ele>434.6</ele>
        <time>2021-09-30T10:36:05Z</time>
      </trkpt>
      <trkpt lat="47.25979" lon="6.10311">
        <ele>434.8</ele>
        <time>2021-09-30T10:36:06Z</time>
      </trkpt>
      <trkpt lat="47.25977" lon="6.10309">
        <ele>435</ele>
        <time>2021-09-30T10:36:07Z</time>
      </trkpt>
      <trkpt lat="47.25976" lon="6.10307">
        <ele>435.2</ele>
        <time>2021-09-30T10:36:08Z</time>
      </trkpt>
      <trkpt lat="47.25973" lon="6.10305">
        <ele>435.4</ele>
        <time>2021-09-30T10:36:09Z</time>
      </trkpt>
      <trkpt lat="47.25971" lon="6.10304">
        <ele>435.8</ele>
        <time>2021-09-30T10:36:10Z</time>
      </trkpt>
      <trkpt lat="47.25969" lon="6.10302">
        <ele>436</ele>
        <time>2021-09-30T10:36:11Z</time>
      </trkpt>
      <trkpt lat="47.25966" lon="6.10298">
        <ele>436</ele>
        <time>2021-09-30T10:36:12Z</time>
      </trkpt>
      <trkpt lat="47.25965" lon="6.10296">
        <ele>436</ele>
        <time>2021-09-30T10:36:13Z</time>
      </trkpt>
      <trkpt lat="47.25965" lon="6.10295">
        <ele>436.2</ele>
        <time>2021-09-30T10:36:14Z</time>
      </trkpt>
      <trkpt lat="47.25962" lon="6.10294">
        <ele>436.2</ele>
        <time>2021-09-30T10:36:15Z</time>
      </trkpt>
      <trkpt lat="47.25959" lon="6.10293">
        <ele>436.6</ele>
        <time>2021-09-30T10:36:16Z</time>
      </trkpt>
      <trkpt lat="47.25956" lon="6.10292">
        <ele>436.6</ele>
        <time>2021-09-30T10:36:17Z</time>
      </trkpt>
      <trkpt lat="47.25954" lon="6.10292">
        <ele>437</ele>
        <time>2021-09-30T10:36:18Z</time>
      </trkpt>
      <trkpt lat="47.25952" lon="6.10291">
        <ele>437.2</ele>
        <time>2021-09-30T10:36:19Z</time>
      </trkpt>
      <trkpt lat="47.25949" lon="6.10288">
        <ele>437.2</ele>
        <time>2021-09-30T10:36:20Z</time>
      </trkpt>
      <trkpt lat="47.25947" lon="6.10287">
        <ele>437.2</ele>
        <time>2021-09-30T10:36:21Z</time>
      </trkpt>
      <trkpt lat="47.25946" lon="6.10286">
        <ele>437.2</ele>
        <time>2021-09-30T10:36:22Z</time>
      </trkpt>
      <trkpt lat="47.25946" lon="6.10286">
        <ele>437.4</ele>
        <time>2021-09-30T10:36:23Z</time>
      </trkpt>
      <trkpt lat="47.25946" lon="6.10286">
        <ele>437.6</ele>
        <time>2021-09-30T10:36:24Z</time>
      </trkpt>
      <trkpt lat="47.25944" lon="6.10282">
        <ele>437.8</ele>
        <time>2021-09-30T10:36:25Z</time>
      </trkpt>
      <trkpt lat="47.25942" lon="6.10283">
        <ele>437.8</ele>
        <time>2021-09-30T10:36:26Z</time>
      </trkpt>
      <trkpt lat="47.25941" lon="6.10284">
        <ele>437.8</ele>
        <time>2021-09-30T10:36:27Z</time>
      </trkpt>
      <trkpt lat="47.2594" lon="6.10283">
        <ele>438.2</ele>
        <time>2021-09-30T10:36:28Z</time>
      </trkpt>
      <trkpt lat="47.25939" lon="6.10282">
        <ele>438.4</ele>
        <time>2021-09-30T10:36:29Z</time>
      </trkpt>
      <trkpt lat="47.25938" lon="6.10282">
        <ele>438.6</ele>
        <time>2021-09-30T10:36:30Z</time>
      </trkpt>
      <trkpt lat="47.25936" lon="6.10281">
        <ele>438.6</ele>
        <time>2021-09-30T10:36:31Z</time>
      </trkpt>
      <trkpt lat="47.25935" lon="6.1028">
        <ele>439</ele>
        <time>2021-09-30T10:36:32Z</time>
      </trkpt>
      <trkpt lat="47.25933" lon="6.10279">
        <ele>439</ele>
        <time>2021-09-30T10:36:33Z</time>
      </trkpt>
      <trkpt lat="47.25932" lon="6.10278">
        <ele>439.2</ele>
        <time>2021-09-30T10:36:34Z</time>
      </trkpt>
      <trkpt lat="47.25931" lon="6.10277">
        <ele>439.2</ele>
        <time>2021-09-30T10:36:35Z</time>
      </trkpt>
      <trkpt lat="47.2593" lon="6.10277">
        <ele>439.2</ele>
        <time>2021-09-30T10:36:36Z</time>
      </trkpt>
      <trkpt lat="47.25929" lon="6.10277">
        <ele>439.4</ele>
        <time>2021-09-30T10:36:37Z</time>
      </trkpt>
      <trkpt lat="47.25927" lon="6.10276">
        <ele>439.6</ele>
        <time>2021-09-30T10:36:38Z</time>
      </trkpt>
      <trkpt lat="47.25926" lon="6.10276">
        <ele>439.8</ele>
        <time>2021-09-30T10:36:39Z</time>
      </trkpt>
      <trkpt lat="47.25925" lon="6.10275">
        <ele>440</ele>
        <time>2021-09-30T10:36:40Z</time>
      </trkpt>
      <trkpt lat="47.25924" lon="6.10275">
        <ele>440.2</ele>
        <time>2021-09-30T10:36:41Z</time>
      </trkpt>
      <trkpt lat="47.25923" lon="6.10275">
        <ele>440.4</ele>
        <time>2021-09-30T10:36:42Z</time>
      </trkpt>
      <trkpt lat="47.25922" lon="6.10275">
        <ele>440.4</ele>
        <time>2021-09-30T10:36:43Z</time>
      </trkpt>
      <trkpt lat="47.2592" lon="6.10274">
        <ele>440.6</ele>
        <time>2021-09-30T10:36:44Z</time>
      </trkpt>
      <trkpt lat="47.25919" lon="6.10274">
        <ele>441</ele>
        <time>2021-09-30T10:36:45Z</time>
      </trkpt>
      <trkpt lat="47.25917" lon="6.10273">
        <ele>441</ele>
        <time>2021-09-30T10:36:46Z</time>
      </trkpt>
      <trkpt lat="47.25915" lon="6.10274">
        <ele>441.2</ele>
        <time>2021-09-30T10:36:47Z</time>
      </trkpt>
      <trkpt lat="47.25913" lon="6.10273">
        <ele>441.4</ele>
        <time>2021-09-30T10:36:48Z</time>
      </trkpt>
      <trkpt lat="47.25912" lon="6.10273">
        <ele>441.4</ele>
        <time>2021-09-30T10:36:49Z</time>
      </trkpt>
      <trkpt lat="47.2591" lon="6.10273">
        <ele>441.6</ele>
        <time>2021-09-30T10:36:50Z</time>
      </trkpt>
      <trkpt lat="47.25908" lon="6.10273">
        <ele>441.8</ele>
        <time>2021-09-30T10:36:51Z</time>
      </trkpt>
      <trkpt lat="47.25906" lon="6.10273">
        <ele>441.8</ele>
        <time>2021-09-30T10:36:52Z</time>
      </trkpt>
      <trkpt lat="47.25904" lon="6.10272">
        <ele>442</ele>
        <time>2021-09-30T10:36:53Z</time>
      </trkpt>
      <trkpt lat="47.25902" lon="6.10272">
        <ele>442</ele>
        <time>2021-09-30T10:36:54Z</time>
      </trkpt>
      <trkpt lat="47.25901" lon="6.10272">
        <ele>442.2</ele>
        <time>2021-09-30T10:36:55Z</time>
      </trkpt>
      <trkpt lat="47.25899" lon="6.10272">
        <ele>442.2</ele>
        <time>2021-09-30T10:36:56Z</time>
      </trkpt>
      <trkpt lat="47.25897" lon="6.10272">
        <ele>442.4</ele>
        <time>2021-09-30T10:36:57Z</time>
      </trkpt>
      <trkpt lat="47.25895" lon="6.10271">
        <ele>442.4</ele>
        <time>2021-09-30T10:36:58Z</time>
      </trkpt>
      <trkpt lat="47.25894" lon="6.10271">
        <ele>442.6</ele>
        <time>2021-09-30T10:36:59Z</time>
      </trkpt>
      <trkpt lat="47.25892" lon="6.10271">
        <ele>442.6</ele>
        <time>2021-09-30T10:37:00Z</time>
      </trkpt>
      <trkpt lat="47.2589" lon="6.10271">
        <ele>442.8</ele>
        <time>2021-09-30T10:37:01Z</time>
      </trkpt>
      <trkpt lat="47.25889" lon="6.1027">
        <ele>442.8</ele>
        <time>2021-09-30T10:37:02Z</time>
      </trkpt>
      <trkpt lat="47.25887" lon="6.1027">
        <ele>443.2</ele>
        <time>2021-09-30T10:37:03Z</time>
      </trkpt>
      <trkpt lat="47.25885" lon="6.10269">
        <ele>443.4</ele>
        <time>2021-09-30T10:37:04Z</time>
      </trkpt>
      <trkpt lat="47.25883" lon="6.10269">
        <ele>443.4</ele>
        <time>2021-09-30T10:37:05Z</time>
      </trkpt>
      <trkpt lat="47.25882" lon="6.1027">
        <ele>443.6</ele>
        <time>2021-09-30T10:37:06Z</time>
      </trkpt>
      <trkpt lat="47.2588" lon="6.1027">
        <ele>443.8</ele>
        <time>2021-09-30T10:37:07Z</time>
      </trkpt>
      <trkpt lat="47.25878" lon="6.1027">
        <ele>443.8</ele>
        <time>2021-09-30T10:37:08Z</time>
      </trkpt>
      <trkpt lat="47.25876" lon="6.1027">
        <ele>444.2</ele>
        <time>2021-09-30T10:37:09Z</time>
      </trkpt>
      <trkpt lat="47.25875" lon="6.10269">
        <ele>444.4</ele>
        <time>2021-09-30T10:37:10Z</time>
      </trkpt>
      <trkpt lat="47.25873" lon="6.10269">
        <ele>444.4</ele>
        <time>2021-09-30T10:37:11Z</time>
      </trkpt>
      <trkpt lat="47.2587" lon="6.1027">
        <ele>444.6</ele>
        <time>2021-09-30T10:37:12Z</time>
      </trkpt>
      <trkpt lat="47.25867" lon="6.1027">
        <ele>444.6</ele>
        <time>2021-09-30T10:37:13Z</time>
      </trkpt>
      <trkpt lat="47.25865" lon="6.1027">
        <ele>444.8</ele>
        <time>2021-09-30T10:37:14Z</time>
      </trkpt>
      <trkpt lat="47.25863" lon="6.1027">
        <ele>444.8</ele>
        <time>2021-09-30T10:37:15Z</time>
      </trkpt>
      <trkpt lat="47.25861" lon="6.1027">
        <ele>445</ele>
        <time>2021-09-30T10:37:16Z</time>
      </trkpt>
      <trkpt lat="47.2586" lon="6.1027">
        <ele>445.2</ele>
        <time>2021-09-30T10:37:17Z</time>
      </trkpt>
      <trkpt lat="47.25857" lon="6.1027">
        <ele>445.4</ele>
        <time>2021-09-30T10:37:18Z</time>
      </trkpt>
      <trkpt lat="47.25854" lon="6.10269">
        <ele>445.4</ele>
        <time>2021-09-30T10:37:19Z</time>
      </trkpt>
      <trkpt lat="47.25852" lon="6.10269">
        <ele>445.6</ele>
        <time>2021-09-30T10:37:20Z</time>
      </trkpt>
      <trkpt lat="47.2585" lon="6.1027">
        <ele>445.8</ele>
        <time>2021-09-30T10:37:21Z</time>
      </trkpt>
      <trkpt lat="47.25848" lon="6.1027">
        <ele>446</ele>
        <time>2021-09-30T10:37:22Z</time>
      </trkpt>
      <trkpt lat="47.25847" lon="6.10271">
        <ele>446</ele>
        <time>2021-09-30T10:37:23Z</time>
      </trkpt>
      <trkpt lat="47.25845" lon="6.1027">
        <ele>446.2</ele>
        <time>2021-09-30T10:37:24Z</time>
      </trkpt>
      <trkpt lat="47.25843" lon="6.1027">
        <ele>446.2</ele>
        <time>2021-09-30T10:37:25Z</time>
      </trkpt>
      <trkpt lat="47.25842" lon="6.1027">
        <ele>446.2</ele>
        <time>2021-09-30T10:37:26Z</time>
      </trkpt>
      <trkpt lat="47.2584" lon="6.1027">
        <ele>446.4</ele>
        <time>2021-09-30T10:37:27Z</time>
      </trkpt>
      <trkpt lat="47.25838" lon="6.1027">
        <ele>446.6</ele>
        <time>2021-09-30T10:37:28Z</time>
      </trkpt>
      <trkpt lat="47.25836" lon="6.1027">
        <ele>446.6</ele>
        <time>2021-09-30T10:37:29Z</time>
      </trkpt>
      <trkpt lat="47.25833" lon="6.1027">
        <ele>446.6</ele>
        <time>2021-09-30T10:37:30Z</time>
      </trkpt>
      <trkpt lat="47.25831" lon="6.10269">
        <ele>446.8</ele>
        <time>2021-09-30T10:37:31Z</time>
      </trkpt>
      <trkpt lat="47.25829" lon="6.10269">
        <ele>446.8</ele>
        <time>2021-09-30T10:37:32Z</time>
      </trkpt>
      <trkpt lat="47.25827" lon="6.10269">
        <ele>446.8</ele>
        <time>2021-09-30T10:37:33Z</time>
      </trkpt>
      <trkpt lat="47.25825" lon="6.10269">
        <ele>447</ele>
        <time>2021-09-30T10:37:34Z</time>
      </trkpt>
      <trkpt lat="47.25823" lon="6.10269">
        <ele>447.2</ele>
        <time>2021-09-30T10:37:35Z</time>
      </trkpt>
      <trkpt lat="47.25822" lon="6.10268">
        <ele>447.2</ele>
        <time>2021-09-30T10:37:36Z</time>
      </trkpt>
      <trkpt lat="47.2582" lon="6.10268">
        <ele>447.4</ele>
        <time>2021-09-30T10:37:37Z</time>
      </trkpt>
      <trkpt lat="47.25818" lon="6.10268">
        <ele>447.6</ele>
        <time>2021-09-30T10:37:38Z</time>
      </trkpt>
      <trkpt lat="47.25816" lon="6.10268">
        <ele>447.6</ele>
        <time>2021-09-30T10:37:39Z</time>
      </trkpt>
      <trkpt lat="47.25814" lon="6.10268">
        <ele>447.8</ele>
        <time>2021-09-30T10:37:40Z</time>
      </trkpt>
      <trkpt lat="47.25811" lon="6.10267">
        <ele>448</ele>
        <time>2021-09-30T10:37:41Z</time>
      </trkpt>
      <trkpt lat="47.25809" lon="6.10267">
        <ele>448.2</ele>
        <time>2021-09-30T10:37:42Z</time>
      </trkpt>
      <trkpt lat="47.25807" lon="6.10266">
        <ele>448.4</ele>
        <time>2021-09-30T10:37:43Z</time>
      </trkpt>
      <trkpt lat="47.25805" lon="6.10265">
        <ele>448.8</ele>
        <time>2021-09-30T10:37:44Z</time>
      </trkpt>
      <trkpt lat="47.25804" lon="6.10264">
        <ele>448.8</ele>
        <time>2021-09-30T10:37:45Z</time>
      </trkpt>
      <trkpt lat="47.25802" lon="6.10264">
        <ele>449</ele>
        <time>2021-09-30T10:37:46Z</time>
      </trkpt>
      <trkpt lat="47.258" lon="6.10264">
        <ele>449.2</ele>
        <time>2021-09-30T10:37:47Z</time>
      </trkpt>
      <trkpt lat="47.25798" lon="6.10263">
        <ele>449.4</ele>
        <time>2021-09-30T10:37:48Z</time>
      </trkpt>
      <trkpt lat="47.25795" lon="6.10261">
        <ele>449.6</ele>
        <time>2021-09-30T10:37:49Z</time>
      </trkpt>
      <trkpt lat="47.25793" lon="6.10258">
        <ele>449.8</ele>
        <time>2021-09-30T10:37:50Z</time>
      </trkpt>
      <trkpt lat="47.25791" lon="6.10256">
        <ele>449.8</ele>
        <time>2021-09-30T10:37:51Z</time>
      </trkpt>
      <trkpt lat="47.2579" lon="6.10253">
        <ele>450</ele>
        <time>2021-09-30T10:37:52Z</time>
      </trkpt>
      <trkpt lat="47.25787" lon="6.10251">
        <ele>450.2</ele>
        <time>2021-09-30T10:37:53Z</time>
      </trkpt>
      <trkpt lat="47.25787" lon="6.10249">
        <ele>450.2</ele>
        <time>2021-09-30T10:37:54Z</time>
      </trkpt>
      <trkpt lat="47.25787" lon="6.10248">
        <ele>450.6</ele>
        <time>2021-09-30T10:37:55Z</time>
      </trkpt>
      <trkpt lat="47.25787" lon="6.10246">
        <ele>450.6</ele>
        <time>2021-09-30T10:37:56Z</time>
      </trkpt>
      <trkpt lat="47.25788" lon="6.10244">
        <ele>450.8</ele>
        <time>2021-09-30T10:37:57Z</time>
      </trkpt>
      <trkpt lat="47.25788" lon="6.10242">
        <ele>451</ele>
        <time>2021-09-30T10:37:58Z</time>
      </trkpt>
      <trkpt lat="47.25787" lon="6.10239">
        <ele>451.2</ele>
        <time>2021-09-30T10:37:59Z</time>
      </trkpt>
      <trkpt lat="47.25787" lon="6.10236">
        <ele>451.2</ele>
        <time>2021-09-30T10:38:00Z</time>
      </trkpt>
      <trkpt lat="47.25787" lon="6.10234">
        <ele>451.4</ele>
        <time>2021-09-30T10:38:01Z</time>
      </trkpt>
      <trkpt lat="47.25788" lon="6.10232">
        <ele>451.8</ele>
        <time>2021-09-30T10:38:02Z</time>
      </trkpt>
      <trkpt lat="47.25788" lon="6.1023">
        <ele>452</ele>
        <time>2021-09-30T10:38:03Z</time>
      </trkpt>
      <trkpt lat="47.25788" lon="6.10229">
        <ele>452.2</ele>
        <time>2021-09-30T10:38:04Z</time>
      </trkpt>
      <trkpt lat="47.25789" lon="6.10227">
        <ele>452.2</ele>
        <time>2021-09-30T10:38:05Z</time>
      </trkpt>
      <trkpt lat="47.25789" lon="6.10227">
        <ele>452.4</ele>
        <time>2021-09-30T10:38:06Z</time>
      </trkpt>
      <trkpt lat="47.2579" lon="6.10224">
        <ele>452.6</ele>
        <time>2021-09-30T10:38:07Z</time>
      </trkpt>
      <trkpt lat="47.25791" lon="6.10223">
        <ele>452.8</ele>
        <time>2021-09-30T10:38:08Z</time>
      </trkpt>
      <trkpt lat="47.25792" lon="6.10221">
        <ele>453</ele>
        <time>2021-09-30T10:38:09Z</time>
      </trkpt>
      <trkpt lat="47.25792" lon="6.10219">
        <ele>453</ele>
        <time>2021-09-30T10:38:10Z</time>
      </trkpt>
      <trkpt lat="47.25793" lon="6.10217">
        <ele>453.2</ele>
        <time>2021-09-30T10:38:11Z</time>
      </trkpt>
      <trkpt lat="47.25794" lon="6.10215">
        <ele>453.4</ele>
        <time>2021-09-30T10:38:12Z</time>
      </trkpt>
      <trkpt lat="47.25795" lon="6.10213">
        <ele>453.4</ele>
        <time>2021-09-30T10:38:13Z</time>
      </trkpt>
      <trkpt lat="47.25796" lon="6.1021">
        <ele>453.6</ele>
        <time>2021-09-30T10:38:14Z</time>
      </trkpt>
      <trkpt lat="47.25797" lon="6.10207">
        <ele>453.8</ele>
        <time>2021-09-30T10:38:15Z</time>
      </trkpt>
      <trkpt lat="47.25798" lon="6.10206">
        <ele>454</ele>
        <time>2021-09-30T10:38:16Z</time>
      </trkpt>
      <trkpt lat="47.25799" lon="6.10204">
        <ele>454.2</ele>
        <time>2021-09-30T10:38:17Z</time>
      </trkpt>
      <trkpt lat="47.258" lon="6.10201">
        <ele>454.2</ele>
        <time>2021-09-30T10:38:18Z</time>
      </trkpt>
      <trkpt lat="47.258" lon="6.10199">
        <ele>454.4</ele>
        <time>2021-09-30T10:38:19Z</time>
      </trkpt>
      <trkpt lat="47.25801" lon="6.10198">
        <ele>454.6</ele>
        <time>2021-09-30T10:38:20Z</time>
      </trkpt>
      <trkpt lat="47.25802" lon="6.10195">
        <ele>454.8</ele>
        <time>2021-09-30T10:38:21Z</time>
      </trkpt>
      <trkpt lat="47.25803" lon="6.10193">
        <ele>454.8</ele>
        <time>2021-09-30T10:38:22Z</time>
      </trkpt>
      <trkpt lat="47.25803" lon="6.10192">
        <ele>455</ele>
        <time>2021-09-30T10:38:23Z</time>
      </trkpt>
      <trkpt lat="47.25803" lon="6.10191">
        <ele>455.2</ele>
        <time>2021-09-30T10:38:24Z</time>
      </trkpt>
      <trkpt lat="47.25804" lon="6.10189">
        <ele>455.2</ele>
        <time>2021-09-30T10:38:25Z</time>
      </trkpt>
      <trkpt lat="47.25805" lon="6.10187">
        <ele>455.4</ele>
        <time>2021-09-30T10:38:26Z</time>
      </trkpt>
      <trkpt lat="47.25807" lon="6.10185">
        <ele>455.6</ele>
        <time>2021-09-30T10:38:27Z</time>
      </trkpt>
      <trkpt lat="47.25808" lon="6.10183">
        <ele>455.6</ele>
        <time>2021-09-30T10:38:28Z</time>
      </trkpt>
      <trkpt lat="47.25809" lon="6.1018">
        <ele>455.8</ele>
        <time>2021-09-30T10:38:29Z</time>
      </trkpt>
      <trkpt lat="47.25811" lon="6.10177">
        <ele>456</ele>
        <time>2021-09-30T10:38:30Z</time>
      </trkpt>
      <trkpt lat="47.25813" lon="6.10174">
        <ele>456.2</ele>
        <time>2021-09-30T10:38:31Z</time>
      </trkpt>
      <trkpt lat="47.25814" lon="6.10171">
        <ele>456.4</ele>
        <time>2021-09-30T10:38:32Z</time>
      </trkpt>
      <trkpt lat="47.25816" lon="6.10168">
        <ele>456.6</ele>
        <time>2021-09-30T10:38:33Z</time>
      </trkpt>
      <trkpt lat="47.25817" lon="6.10165">
        <ele>457</ele>
        <time>2021-09-30T10:38:34Z</time>
      </trkpt>
      <trkpt lat="47.25819" lon="6.10162">
        <ele>457.2</ele>
        <time>2021-09-30T10:38:35Z</time>
      </trkpt>
      <trkpt lat="47.25822" lon="6.1016">
        <ele>457.2</ele>
        <time>2021-09-30T10:38:36Z</time>
      </trkpt>
      <trkpt lat="47.25823" lon="6.10158">
        <ele>457.4</ele>
        <time>2021-09-30T10:38:37Z</time>
      </trkpt>
      <trkpt lat="47.25825" lon="6.10157">
        <ele>457.4</ele>
        <time>2021-09-30T10:38:38Z</time>
      </trkpt>
      <trkpt lat="47.25828" lon="6.10153">
        <ele>457.8</ele>
        <time>2021-09-30T10:38:39Z</time>
      </trkpt>
      <trkpt lat="47.2583" lon="6.1015">
        <ele>457.8</ele>
        <time>2021-09-30T10:38:40Z</time>
      </trkpt>
      <trkpt lat="47.25831" lon="6.10148">
        <ele>457.8</ele>
        <time>2021-09-30T10:38:41Z</time>
      </trkpt>
      <trkpt lat="47.25833" lon="6.10146">
        <ele>458</ele>
        <time>2021-09-30T10:38:42Z</time>
      </trkpt>
      <trkpt lat="47.25834" lon="6.10144">
        <ele>458.2</ele>
        <time>2021-09-30T10:38:43Z</time>
      </trkpt>
      <trkpt lat="47.25836" lon="6.10141">
        <ele>458.2</ele>
        <time>2021-09-30T10:38:44Z</time>
      </trkpt>
      <trkpt lat="47.25837" lon="6.10138">
        <ele>458.4</ele>
        <time>2021-09-30T10:38:45Z</time>
      </trkpt>
      <trkpt lat="47.25838" lon="6.10137">
        <ele>458.6</ele>
        <time>2021-09-30T10:38:46Z</time>
      </trkpt>
      <trkpt lat="47.25839" lon="6.10135">
        <ele>458.6</ele>
        <time>2021-09-30T10:38:47Z</time>
      </trkpt>
      <trkpt lat="47.25841" lon="6.10134">
        <ele>458.8</ele>
        <time>2021-09-30T10:38:48Z</time>
      </trkpt>
      <trkpt lat="47.25842" lon="6.10132">
        <ele>459</ele>
        <time>2021-09-30T10:38:49Z</time>
      </trkpt>
      <trkpt lat="47.25843" lon="6.10131">
        <ele>459.4</ele>
        <time>2021-09-30T10:38:50Z</time>
      </trkpt>
      <trkpt lat="47.25844" lon="6.10129">
        <ele>459.2</ele>
        <time>2021-09-30T10:38:51Z</time>
      </trkpt>
      <trkpt lat="47.25846" lon="6.10126">
        <ele>459.6</ele>
        <time>2021-09-30T10:38:52Z</time>
      </trkpt>
      <trkpt lat="47.25847" lon="6.10124">
        <ele>459.8</ele>
        <time>2021-09-30T10:38:53Z</time>
      </trkpt>
      <trkpt lat="47.25849" lon="6.10121">
        <ele>459.8</ele>
        <time>2021-09-30T10:38:54Z</time>
      </trkpt>
      <trkpt lat="47.2585" lon="6.10121">
        <ele>460</ele>
        <time>2021-09-30T10:38:55Z</time>
      </trkpt>
      <trkpt lat="47.25852" lon="6.1012">
        <ele>460</ele>
        <time>2021-09-30T10:38:56Z</time>
      </trkpt>
      <trkpt lat="47.25853" lon="6.10117">
        <ele>460</ele>
        <time>2021-09-30T10:38:57Z</time>
      </trkpt>
      <trkpt lat="47.25854" lon="6.10114">
        <ele>460.4</ele>
        <time>2021-09-30T10:38:58Z</time>
      </trkpt>
      <trkpt lat="47.25855" lon="6.10111">
        <ele>460.6</ele>
        <time>2021-09-30T10:38:59Z</time>
      </trkpt>
      <trkpt lat="47.25857" lon="6.1011">
        <ele>460.6</ele>
        <time>2021-09-30T10:39:00Z</time>
      </trkpt>
      <trkpt lat="47.25858" lon="6.10109">
        <ele>461</ele>
        <time>2021-09-30T10:39:01Z</time>
      </trkpt>
      <trkpt lat="47.25858" lon="6.10106">
        <ele>461</ele>
        <time>2021-09-30T10:39:02Z</time>
      </trkpt>
      <trkpt lat="47.25859" lon="6.10104">
        <ele>461.2</ele>
        <time>2021-09-30T10:39:03Z</time>
      </trkpt>
      <trkpt lat="47.25859" lon="6.10102">
        <ele>461.4</ele>
        <time>2021-09-30T10:39:04Z</time>
      </trkpt>
      <trkpt lat="47.2586" lon="6.101">
        <ele>461.6</ele>
        <time>2021-09-30T10:39:05Z</time>
      </trkpt>
      <trkpt lat="47.25861" lon="6.10097">
        <ele>461.6</ele>
        <time>2021-09-30T10:39:06Z</time>
      </trkpt>
      <trkpt lat="47.25861" lon="6.10095">
        <ele>462</ele>
        <time>2021-09-30T10:39:07Z</time>
      </trkpt>
      <trkpt lat="47.25862" lon="6.10093">
        <ele>462.2</ele>
        <time>2021-09-30T10:39:08Z</time>
      </trkpt>
      <trkpt lat="47.25863" lon="6.10091">
        <ele>462.2</ele>
        <time>2021-09-30T10:39:09Z</time>
      </trkpt>
      <trkpt lat="47.25863" lon="6.10089">
        <ele>462.4</ele>
        <time>2021-09-30T10:39:10Z</time>
      </trkpt>
      <trkpt lat="47.25863" lon="6.10087">
        <ele>462.4</ele>
        <time>2021-09-30T10:39:11Z</time>
      </trkpt>
      <trkpt lat="47.25863" lon="6.10085">
        <ele>462.6</ele>
        <time>2021-09-30T10:39:12Z</time>
      </trkpt>
      <trkpt lat="47.25864" lon="6.10084">
        <ele>462.8</ele>
        <time>2021-09-30T10:39:13Z</time>
      </trkpt>
      <trkpt lat="47.25864" lon="6.10082">
        <ele>463</ele>
        <time>2021-09-30T10:39:14Z</time>
      </trkpt>
      <trkpt lat="47.25865" lon="6.1008">
        <ele>463</ele>
        <time>2021-09-30T10:39:15Z</time>
      </trkpt>
      <trkpt lat="47.25865" lon="6.10077">
        <ele>463.2</ele>
        <time>2021-09-30T10:39:16Z</time>
      </trkpt>
      <trkpt lat="47.25866" lon="6.10075">
        <ele>463.2</ele>
        <time>2021-09-30T10:39:17Z</time>
      </trkpt>
      <trkpt lat="47.25866" lon="6.10073">
        <ele>463.4</ele>
        <time>2021-09-30T10:39:18Z</time>
      </trkpt>
      <trkpt lat="47.25867" lon="6.1007">
        <ele>463.6</ele>
        <time>2021-09-30T10:39:19Z</time>
      </trkpt>
      <trkpt lat="47.25868" lon="6.10068">
        <ele>463.8</ele>
        <time>2021-09-30T10:39:20Z</time>
      </trkpt>
      <trkpt lat="47.25869" lon="6.10065">
        <ele>464</ele>
        <time>2021-09-30T10:39:21Z</time>
      </trkpt>
      <trkpt lat="47.25869" lon="6.10063">
        <ele>464.2</ele>
        <time>2021-09-30T10:39:22Z</time>
      </trkpt>
      <trkpt lat="47.2587" lon="6.1006">
        <ele>464.4</ele>
        <time>2021-09-30T10:39:23Z</time>
      </trkpt>
      <trkpt lat="47.25871" lon="6.10058">
        <ele>464.4</ele>
        <time>2021-09-30T10:39:24Z</time>
      </trkpt>
      <trkpt lat="47.25873" lon="6.10056">
        <ele>464.6</ele>
        <time>2021-09-30T10:39:25Z</time>
      </trkpt>
      <trkpt lat="47.25874" lon="6.10054">
        <ele>464.8</ele>
        <time>2021-09-30T10:39:26Z</time>
      </trkpt>
      <trkpt lat="47.25875" lon="6.10051">
        <ele>465</ele>
        <time>2021-09-30T10:39:27Z</time>
      </trkpt>
      <trkpt lat="47.25876" lon="6.10048">
        <ele>465.2</ele>
        <time>2021-09-30T10:39:28Z</time>
      </trkpt>
      <trkpt lat="47.25877" lon="6.10047">
        <ele>465.4</ele>
        <time>2021-09-30T10:39:29Z</time>
      </trkpt>
      <trkpt lat="47.25878" lon="6.10044">
        <ele>465.6</ele>
        <time>2021-09-30T10:39:30Z</time>
      </trkpt>
      <trkpt lat="47.25879" lon="6.10042">
        <ele>465.8</ele>
        <time>2021-09-30T10:39:31Z</time>
      </trkpt>
      <trkpt lat="47.25879" lon="6.1004">
        <ele>466</ele>
        <time>2021-09-30T10:39:32Z</time>
      </trkpt>
      <trkpt lat="47.2588" lon="6.10038">
        <ele>466.2</ele>
        <time>2021-09-30T10:39:33Z</time>
      </trkpt>
      <trkpt lat="47.25881" lon="6.10036">
        <ele>466.4</ele>
        <time>2021-09-30T10:39:34Z</time>
      </trkpt>
      <trkpt lat="47.25882" lon="6.10035">
        <ele>466.6</ele>
        <time>2021-09-30T10:39:35Z</time>
      </trkpt>
      <trkpt lat="47.25884" lon="6.10034">
        <ele>466.8</ele>
        <time>2021-09-30T10:39:36Z</time>
      </trkpt>
      <trkpt lat="47.25885" lon="6.10033">
        <ele>466.8</ele>
        <time>2021-09-30T10:39:37Z</time>
      </trkpt>
      <trkpt lat="47.25886" lon="6.10032">
        <ele>467</ele>
        <time>2021-09-30T10:39:38Z</time>
      </trkpt>
      <trkpt lat="47.25887" lon="6.1003">
        <ele>467</ele>
        <time>2021-09-30T10:39:39Z</time>
      </trkpt>
      <trkpt lat="47.25888" lon="6.10028">
        <ele>467.2</ele>
        <time>2021-09-30T10:39:40Z</time>
      </trkpt>
      <trkpt lat="47.25889" lon="6.10027">
        <ele>467.4</ele>
        <time>2021-09-30T10:39:41Z</time>
      </trkpt>
      <trkpt lat="47.2589" lon="6.10025">
        <ele>467.6</ele>
        <time>2021-09-30T10:39:42Z</time>
      </trkpt>
      <trkpt lat="47.25891" lon="6.10024">
        <ele>467.6</ele>
        <time>2021-09-30T10:39:43Z</time>
      </trkpt>
      <trkpt lat="47.25893" lon="6.10022">
        <ele>468</ele>
        <time>2021-09-30T10:39:44Z</time>
      </trkpt>
      <trkpt lat="47.25894" lon="6.1002">
        <ele>468.2</ele>
        <time>2021-09-30T10:39:45Z</time>
      </trkpt>
      <trkpt lat="47.25895" lon="6.10019">
        <ele>468.2</ele>
        <time>2021-09-30T10:39:46Z</time>
      </trkpt>
      <trkpt lat="47.25896" lon="6.10018">
        <ele>468.4</ele>
        <time>2021-09-30T10:39:47Z</time>
      </trkpt>
      <trkpt lat="47.25897" lon="6.10016">
        <ele>468.4</ele>
        <time>2021-09-30T10:39:48Z</time>
      </trkpt>
      <trkpt lat="47.25898" lon="6.10015">
        <ele>468.8</ele>
        <time>2021-09-30T10:39:49Z</time>
      </trkpt>
      <trkpt lat="47.25899" lon="6.10013">
        <ele>468.8</ele>
        <time>2021-09-30T10:39:50Z</time>
      </trkpt>
      <trkpt lat="47.25901" lon="6.10011">
        <ele>469</ele>
        <time>2021-09-30T10:39:51Z</time>
      </trkpt>
      <trkpt lat="47.25902" lon="6.10009">
        <ele>469.2</ele>
        <time>2021-09-30T10:39:52Z</time>
      </trkpt>
      <trkpt lat="47.25903" lon="6.10007">
        <ele>469.4</ele>
        <time>2021-09-30T10:39:53Z</time>
      </trkpt>
      <trkpt lat="47.25904" lon="6.10005">
        <ele>469.6</ele>
        <time>2021-09-30T10:39:54Z</time>
      </trkpt>
      <trkpt lat="47.25905" lon="6.10003">
        <ele>469.8</ele>
        <time>2021-09-30T10:39:55Z</time>
      </trkpt>
      <trkpt lat="47.25906" lon="6.10001">
        <ele>469.8</ele>
        <time>2021-09-30T10:39:56Z</time>
      </trkpt>
      <trkpt lat="47.25908" lon="6.09999">
        <ele>470</ele>
        <time>2021-09-30T10:39:57Z</time>
      </trkpt>
      <trkpt lat="47.25909" lon="6.09997">
        <ele>470</ele>
        <time>2021-09-30T10:39:58Z</time>
      </trkpt>
      <trkpt lat="47.25911" lon="6.09995">
        <ele>470.2</ele>
        <time>2021-09-30T10:39:59Z</time>
      </trkpt>
      <trkpt lat="47.25912" lon="6.09993">
        <ele>470.4</ele>
        <time>2021-09-30T10:40:00Z</time>
      </trkpt>
      <trkpt lat="47.25913" lon="6.0999">
        <ele>470.6</ele>
        <time>2021-09-30T10:40:01Z</time>
      </trkpt>
      <trkpt lat="47.25915" lon="6.09988">
        <ele>470.8</ele>
        <time>2021-09-30T10:40:02Z</time>
      </trkpt>
      <trkpt lat="47.25916" lon="6.09985">
        <ele>470.8</ele>
        <time>2021-09-30T10:40:03Z</time>
      </trkpt>
      <trkpt lat="47.25916" lon="6.09983">
        <ele>471</ele>
        <time>2021-09-30T10:40:04Z</time>
      </trkpt>
      <trkpt lat="47.25916" lon="6.09979">
        <ele>471</ele>
        <time>2021-09-30T10:40:05Z</time>
      </trkpt>
      <trkpt lat="47.25915" lon="6.09976">
        <ele>471.2</ele>
        <time>2021-09-30T10:40:06Z</time>
      </trkpt>
      <trkpt lat="47.25916" lon="6.09973">
        <ele>471.2</ele>
        <time>2021-09-30T10:40:07Z</time>
      </trkpt>
      <trkpt lat="47.25916" lon="6.09969">
        <ele>471.6</ele>
        <time>2021-09-30T10:40:08Z</time>
      </trkpt>
      <trkpt lat="47.25917" lon="6.09967">
        <ele>472</ele>
        <time>2021-09-30T10:40:09Z</time>
      </trkpt>
      <trkpt lat="47.25918" lon="6.09963">
        <ele>471.8</ele>
        <time>2021-09-30T10:40:10Z</time>
      </trkpt>
      <trkpt lat="47.25919" lon="6.09961">
        <ele>472.4</ele>
        <time>2021-09-30T10:40:11Z</time>
      </trkpt>
      <trkpt lat="47.25919" lon="6.09957">
        <ele>472.4</ele>
        <time>2021-09-30T10:40:12Z</time>
      </trkpt>
      <trkpt lat="47.2592" lon="6.09954">
        <ele>472.6</ele>
        <time>2021-09-30T10:40:13Z</time>
      </trkpt>
      <trkpt lat="47.2592" lon="6.09951">
        <ele>472.8</ele>
        <time>2021-09-30T10:40:14Z</time>
      </trkpt>
      <trkpt lat="47.2592" lon="6.09948">
        <ele>472.8</ele>
        <time>2021-09-30T10:40:15Z</time>
      </trkpt>
      <trkpt lat="47.2592" lon="6.09945">
        <ele>472.8</ele>
        <time>2021-09-30T10:40:16Z</time>
      </trkpt>
      <trkpt lat="47.2592" lon="6.09943">
        <ele>473</ele>
        <time>2021-09-30T10:40:17Z</time>
      </trkpt>
      <trkpt lat="47.2592" lon="6.0994">
        <ele>473</ele>
        <time>2021-09-30T10:40:18Z</time>
      </trkpt>
      <trkpt lat="47.25919" lon="6.09937">
        <ele>473.4</ele>
        <time>2021-09-30T10:40:19Z</time>
      </trkpt>
      <trkpt lat="47.25918" lon="6.09935">
        <ele>473.4</ele>
        <time>2021-09-30T10:40:20Z</time>
      </trkpt>
      <trkpt lat="47.25917" lon="6.09932">
        <ele>473.8</ele>
        <time>2021-09-30T10:40:21Z</time>
      </trkpt>
      <trkpt lat="47.25917" lon="6.0993">
        <ele>474</ele>
        <time>2021-09-30T10:40:22Z</time>
      </trkpt>
      <trkpt lat="47.25916" lon="6.09927">
        <ele>474</ele>
        <time>2021-09-30T10:40:23Z</time>
      </trkpt>
      <trkpt lat="47.25915" lon="6.09924">
        <ele>474.2</ele>
        <time>2021-09-30T10:40:24Z</time>
      </trkpt>
      <trkpt lat="47.25915" lon="6.09922">
        <ele>474.4</ele>
        <time>2021-09-30T10:40:25Z</time>
      </trkpt>
      <trkpt lat="47.25915" lon="6.09919">
        <ele>474.4</ele>
        <time>2021-09-30T10:40:26Z</time>
      </trkpt>
      <trkpt lat="47.25914" lon="6.09916">
        <ele>474.6</ele>
        <time>2021-09-30T10:40:27Z</time>
      </trkpt>
      <trkpt lat="47.25913" lon="6.09914">
        <ele>474.6</ele>
        <time>2021-09-30T10:40:28Z</time>
      </trkpt>
      <trkpt lat="47.25913" lon="6.09912">
        <ele>474.8</ele>
        <time>2021-09-30T10:40:29Z</time>
      </trkpt>
      <trkpt lat="47.25912" lon="6.0991">
        <ele>475</ele>
        <time>2021-09-30T10:40:30Z</time>
      </trkpt>
      <trkpt lat="47.25911" lon="6.09908">
        <ele>475.2</ele>
        <time>2021-09-30T10:40:31Z</time>
      </trkpt>
      <trkpt lat="47.2591" lon="6.09906">
        <ele>475.2</ele>
        <time>2021-09-30T10:40:32Z</time>
      </trkpt>
      <trkpt lat="47.25909" lon="6.09904">
        <ele>475.4</ele>
        <time>2021-09-30T10:40:33Z</time>
      </trkpt>
      <trkpt lat="47.25908" lon="6.09902">
        <ele>475.6</ele>
        <time>2021-09-30T10:40:34Z</time>
      </trkpt>
      <trkpt lat="47.25907" lon="6.09899">
        <ele>475.8</ele>
        <time>2021-09-30T10:40:35Z</time>
      </trkpt>
      <trkpt lat="47.25906" lon="6.09897">
        <ele>475.8</ele>
        <time>2021-09-30T10:40:36Z</time>
      </trkpt>
      <trkpt lat="47.25904" lon="6.09895">
        <ele>476</ele>
        <time>2021-09-30T10:40:37Z</time>
      </trkpt>
      <trkpt lat="47.25903" lon="6.09894">
        <ele>476</ele>
        <time>2021-09-30T10:40:38Z</time>
      </trkpt>
      <trkpt lat="47.25902" lon="6.09893">
        <ele>476.2</ele>
        <time>2021-09-30T10:40:39Z</time>
      </trkpt>
      <trkpt lat="47.25901" lon="6.09891">
        <ele>476.4</ele>
        <time>2021-09-30T10:40:40Z</time>
      </trkpt>
      <trkpt lat="47.259" lon="6.09889">
        <ele>476.6</ele>
        <time>2021-09-30T10:40:41Z</time>
      </trkpt>
      <trkpt lat="47.25899" lon="6.09887">
        <ele>476.8</ele>
        <time>2021-09-30T10:40:42Z</time>
      </trkpt>
      <trkpt lat="47.25897" lon="6.09886">
        <ele>476.8</ele>
        <time>2021-09-30T10:40:43Z</time>
      </trkpt>
      <trkpt lat="47.25896" lon="6.09884">
        <ele>477</ele>
        <time>2021-09-30T10:40:44Z</time>
      </trkpt>
      <trkpt lat="47.25895" lon="6.09882">
        <ele>477</ele>
        <time>2021-09-30T10:40:45Z</time>
      </trkpt>
      <trkpt lat="47.25894" lon="6.0988">
        <ele>477.2</ele>
        <time>2021-09-30T10:40:46Z</time>
      </trkpt>
      <trkpt lat="47.25893" lon="6.09878">
        <ele>477.4</ele>
        <time>2021-09-30T10:40:47Z</time>
      </trkpt>
      <trkpt lat="47.25892" lon="6.09876">
        <ele>477.6</ele>
        <time>2021-09-30T10:40:48Z</time>
      </trkpt>
      <trkpt lat="47.25891" lon="6.09875">
        <ele>477.8</ele>
        <time>2021-09-30T10:40:49Z</time>
      </trkpt>
      <trkpt lat="47.25889" lon="6.09873">
        <ele>478</ele>
        <time>2021-09-30T10:40:50Z</time>
      </trkpt>
      <trkpt lat="47.25888" lon="6.09871">
        <ele>478.2</ele>
        <time>2021-09-30T10:40:51Z</time>
      </trkpt>
      <trkpt lat="47.25887" lon="6.0987">
        <ele>478.4</ele>
        <time>2021-09-30T10:40:52Z</time>
      </trkpt>
      <trkpt lat="47.25886" lon="6.09869">
        <ele>478.6</ele>
        <time>2021-09-30T10:40:53Z</time>
      </trkpt>
      <trkpt lat="47.25885" lon="6.09867">
        <ele>479</ele>
        <time>2021-09-30T10:40:54Z</time>
      </trkpt>
      <trkpt lat="47.25884" lon="6.09865">
        <ele>479.2</ele>
        <time>2021-09-30T10:40:55Z</time>
      </trkpt>
      <trkpt lat="47.25883" lon="6.09863">
        <ele>479.4</ele>
        <time>2021-09-30T10:40:56Z</time>
      </trkpt>
      <trkpt lat="47.25881" lon="6.09861">
        <ele>479.6</ele>
        <time>2021-09-30T10:40:57Z</time>
      </trkpt>
      <trkpt lat="47.2588" lon="6.09859">
        <ele>479.8</ele>
        <time>2021-09-30T10:40:58Z</time>
      </trkpt>
      <trkpt lat="47.25879" lon="6.09857">
        <ele>480</ele>
        <time>2021-09-30T10:40:59Z</time>
      </trkpt>
      <trkpt lat="47.25877" lon="6.09856">
        <ele>480.2</ele>
        <time>2021-09-30T10:41:00Z</time>
      </trkpt>
      <trkpt lat="47.25876" lon="6.09854">
        <ele>480.2</ele>
        <time>2021-09-30T10:41:01Z</time>
      </trkpt>
      <trkpt lat="47.25874" lon="6.09852">
        <ele>480.2</ele>
        <time>2021-09-30T10:41:02Z</time>
      </trkpt>
      <trkpt lat="47.25873" lon="6.0985">
        <ele>480.4</ele>
        <time>2021-09-30T10:41:03Z</time>
      </trkpt>
      <trkpt lat="47.25872" lon="6.09848">
        <ele>480.6</ele>
        <time>2021-09-30T10:41:04Z</time>
      </trkpt>
      <trkpt lat="47.25871" lon="6.09847">
        <ele>480.6</ele>
        <time>2021-09-30T10:41:05Z</time>
      </trkpt>
      <trkpt lat="47.2587" lon="6.09845">
        <ele>481</ele>
        <time>2021-09-30T10:41:06Z</time>
      </trkpt>
      <trkpt lat="47.25869" lon="6.09844">
        <ele>481</ele>
        <time>2021-09-30T10:41:07Z</time>
      </trkpt>
      <trkpt lat="47.25868" lon="6.09841">
        <ele>481.2</ele>
        <time>2021-09-30T10:41:08Z</time>
      </trkpt>
      <trkpt lat="47.25867" lon="6.09839">
        <ele>481.4</ele>
        <time>2021-09-30T10:41:09Z</time>
      </trkpt>
      <trkpt lat="47.25866" lon="6.09838">
        <ele>481.6</ele>
        <time>2021-09-30T10:41:10Z</time>
      </trkpt>
      <trkpt lat="47.25865" lon="6.09835">
        <ele>481.6</ele>
        <time>2021-09-30T10:41:11Z</time>
      </trkpt>
      <trkpt lat="47.25864" lon="6.09834">
        <ele>482.2</ele>
        <time>2021-09-30T10:41:12Z</time>
      </trkpt>
      <trkpt lat="47.25863" lon="6.09832">
        <ele>482.4</ele>
        <time>2021-09-30T10:41:13Z</time>
      </trkpt>
      <trkpt lat="47.25862" lon="6.0983">
        <ele>482.6</ele>
        <time>2021-09-30T10:41:14Z</time>
      </trkpt>
      <trkpt lat="47.25861" lon="6.09828">
        <ele>482.6</ele>
        <time>2021-09-30T10:41:15Z</time>
      </trkpt>
      <trkpt lat="47.25859" lon="6.09826">
        <ele>482.8</ele>
        <time>2021-09-30T10:41:16Z</time>
      </trkpt>
      <trkpt lat="47.25858" lon="6.09824">
        <ele>483.2</ele>
        <time>2021-09-30T10:41:17Z</time>
      </trkpt>
      <trkpt lat="47.25857" lon="6.09822">
        <ele>483.2</ele>
        <time>2021-09-30T10:41:18Z</time>
      </trkpt>
      <trkpt lat="47.25857" lon="6.09822">
        <ele>483.4</ele>
        <time>2021-09-30T10:41:19Z</time>
      </trkpt>
      <trkpt lat="47.25854" lon="6.0982">
        <ele>483.6</ele>
        <time>2021-09-30T10:41:20Z</time>
      </trkpt>
      <trkpt lat="47.25853" lon="6.09818">
        <ele>483.6</ele>
        <time>2021-09-30T10:41:21Z</time>
      </trkpt>
      <trkpt lat="47.25852" lon="6.09817">
        <ele>484</ele>
        <time>2021-09-30T10:41:22Z</time>
      </trkpt>
      <trkpt lat="47.2585" lon="6.09816">
        <ele>484.2</ele>
        <time>2021-09-30T10:41:23Z</time>
      </trkpt>
      <trkpt lat="47.25849" lon="6.09814">
        <ele>484</ele>
        <time>2021-09-30T10:41:24Z</time>
      </trkpt>
      <trkpt lat="47.25847" lon="6.09812">
        <ele>484.4</ele>
        <time>2021-09-30T10:41:25Z</time>
      </trkpt>
      <trkpt lat="47.25846" lon="6.09811">
        <ele>484.4</ele>
        <time>2021-09-30T10:41:26Z</time>
      </trkpt>
      <trkpt lat="47.25845" lon="6.0981">
        <ele>484.6</ele>
        <time>2021-09-30T10:41:27Z</time>
      </trkpt>
      <trkpt lat="47.25844" lon="6.09808">
        <ele>484.8</ele>
        <time>2021-09-30T10:41:28Z</time>
      </trkpt>
      <trkpt lat="47.25842" lon="6.09806">
        <ele>485</ele>
        <time>2021-09-30T10:41:29Z</time>
      </trkpt>
      <trkpt lat="47.2584" lon="6.09804">
        <ele>485.2</ele>
        <time>2021-09-30T10:41:30Z</time>
      </trkpt>
      <trkpt lat="47.25839" lon="6.09802">
        <ele>485.2</ele>
        <time>2021-09-30T10:41:31Z</time>
      </trkpt>
      <trkpt lat="47.25838" lon="6.098">
        <ele>485.4</ele>
        <time>2021-09-30T10:41:32Z</time>
      </trkpt>
      <trkpt lat="47.25836" lon="6.09799">
        <ele>485.4</ele>
        <time>2021-09-30T10:41:33Z</time>
      </trkpt>
      <trkpt lat="47.25835" lon="6.09798">
        <ele>486</ele>
        <time>2021-09-30T10:41:34Z</time>
      </trkpt>
      <trkpt lat="47.25833" lon="6.09797">
        <ele>486</ele>
        <time>2021-09-30T10:41:35Z</time>
      </trkpt>
      <trkpt lat="47.25831" lon="6.09797">
        <ele>486.2</ele>
        <time>2021-09-30T10:41:36Z</time>
      </trkpt>
      <trkpt lat="47.25829" lon="6.09795">
        <ele>486.2</ele>
        <time>2021-09-30T10:41:37Z</time>
      </trkpt>
      <trkpt lat="47.25827" lon="6.09793">
        <ele>486.4</ele>
        <time>2021-09-30T10:41:38Z</time>
      </trkpt>
      <trkpt lat="47.25826" lon="6.09791">
        <ele>486.6</ele>
        <time>2021-09-30T10:41:39Z</time>
      </trkpt>
      <trkpt lat="47.25824" lon="6.09789">
        <ele>486.8</ele>
        <time>2021-09-30T10:41:40Z</time>
      </trkpt>
      <trkpt lat="47.25823" lon="6.09787">
        <ele>486.8</ele>
        <time>2021-09-30T10:41:41Z</time>
      </trkpt>
      <trkpt lat="47.25821" lon="6.09785">
        <ele>487</ele>
        <time>2021-09-30T10:41:42Z</time>
      </trkpt>
      <trkpt lat="47.2582" lon="6.09783">
        <ele>487.2</ele>
        <time>2021-09-30T10:41:43Z</time>
      </trkpt>
      <trkpt lat="47.25818" lon="6.09782">
        <ele>487.4</ele>
        <time>2021-09-30T10:41:44Z</time>
      </trkpt>
      <trkpt lat="47.25817" lon="6.09781">
        <ele>487.6</ele>
        <time>2021-09-30T10:41:45Z</time>
      </trkpt>
      <trkpt lat="47.25815" lon="6.09779">
        <ele>487.6</ele>
        <time>2021-09-30T10:41:46Z</time>
      </trkpt>
      <trkpt lat="47.25814" lon="6.09777">
        <ele>487.8</ele>
        <time>2021-09-30T10:41:47Z</time>
      </trkpt>
      <trkpt lat="47.25812" lon="6.09776">
        <ele>488</ele>
        <time>2021-09-30T10:41:48Z</time>
      </trkpt>
      <trkpt lat="47.2581" lon="6.09774">
        <ele>488.2</ele>
        <time>2021-09-30T10:41:49Z</time>
      </trkpt>
      <trkpt lat="47.25808" lon="6.09773">
        <ele>488.2</ele>
        <time>2021-09-30T10:41:50Z</time>
      </trkpt>
      <trkpt lat="47.25807" lon="6.09771">
        <ele>488.4</ele>
        <time>2021-09-30T10:41:51Z</time>
      </trkpt>
      <trkpt lat="47.25806" lon="6.0977">
        <ele>488.6</ele>
        <time>2021-09-30T10:41:52Z</time>
      </trkpt>
      <trkpt lat="47.25804" lon="6.09768">
        <ele>488.8</ele>
        <time>2021-09-30T10:41:53Z</time>
      </trkpt>
      <trkpt lat="47.25803" lon="6.09767">
        <ele>489</ele>
        <time>2021-09-30T10:41:54Z</time>
      </trkpt>
      <trkpt lat="47.25801" lon="6.09765">
        <ele>489</ele>
        <time>2021-09-30T10:41:55Z</time>
      </trkpt>
      <trkpt lat="47.258" lon="6.09765">
        <ele>489.2</ele>
        <time>2021-09-30T10:41:56Z</time>
      </trkpt>
      <trkpt lat="47.25798" lon="6.09764">
        <ele>489.4</ele>
        <time>2021-09-30T10:41:57Z</time>
      </trkpt>
      <trkpt lat="47.25797" lon="6.09763">
        <ele>489.4</ele>
        <time>2021-09-30T10:41:58Z</time>
      </trkpt>
      <trkpt lat="47.25796" lon="6.09761">
        <ele>489.6</ele>
        <time>2021-09-30T10:41:59Z</time>
      </trkpt>
      <trkpt lat="47.25795" lon="6.09761">
        <ele>489.8</ele>
        <time>2021-09-30T10:42:00Z</time>
      </trkpt>
      <trkpt lat="47.25793" lon="6.0976">
        <ele>490</ele>
        <time>2021-09-30T10:42:01Z</time>
      </trkpt>
      <trkpt lat="47.25792" lon="6.0976">
        <ele>490.2</ele>
        <time>2021-09-30T10:42:02Z</time>
      </trkpt>
      <trkpt lat="47.25791" lon="6.09759">
        <ele>490.2</ele>
        <time>2021-09-30T10:42:03Z</time>
      </trkpt>
      <trkpt lat="47.2579" lon="6.09757">
        <ele>490.4</ele>
        <time>2021-09-30T10:42:04Z</time>
      </trkpt>
      <trkpt lat="47.25788" lon="6.09756">
        <ele>490.4</ele>
        <time>2021-09-30T10:42:05Z</time>
      </trkpt>
      <trkpt lat="47.25787" lon="6.09755">
        <ele>490.6</ele>
        <time>2021-09-30T10:42:06Z</time>
      </trkpt>
      <trkpt lat="47.25785" lon="6.09755">
        <ele>490.6</ele>
        <time>2021-09-30T10:42:07Z</time>
      </trkpt>
      <trkpt lat="47.25784" lon="6.09754">
        <ele>490.8</ele>
        <time>2021-09-30T10:42:08Z</time>
      </trkpt>
      <trkpt lat="47.25782" lon="6.09753">
        <ele>491</ele>
        <time>2021-09-30T10:42:09Z</time>
      </trkpt>
      <trkpt lat="47.25781" lon="6.09752">
        <ele>491</ele>
        <time>2021-09-30T10:42:10Z</time>
      </trkpt>
      <trkpt lat="47.2578" lon="6.0975">
        <ele>491.2</ele>
        <time>2021-09-30T10:42:11Z</time>
      </trkpt>
      <trkpt lat="47.25779" lon="6.09749">
        <ele>491.2</ele>
        <time>2021-09-30T10:42:12Z</time>
      </trkpt>
      <trkpt lat="47.25777" lon="6.09748">
        <ele>491.2</ele>
        <time>2021-09-30T10:42:13Z</time>
      </trkpt>
      <trkpt lat="47.25776" lon="6.09747">
        <ele>491.4</ele>
        <time>2021-09-30T10:42:14Z</time>
      </trkpt>
      <trkpt lat="47.25775" lon="6.09745">
        <ele>491.6</ele>
        <time>2021-09-30T10:42:15Z</time>
      </trkpt>
      <trkpt lat="47.25773" lon="6.09744">
        <ele>491.6</ele>
        <time>2021-09-30T10:42:16Z</time>
      </trkpt>
      <trkpt lat="47.25772" lon="6.09742">
        <ele>491.8</ele>
        <time>2021-09-30T10:42:17Z</time>
      </trkpt>
      <trkpt lat="47.2577" lon="6.09741">
        <ele>492</ele>
        <time>2021-09-30T10:42:18Z</time>
      </trkpt>
      <trkpt lat="47.25768" lon="6.09741">
        <ele>492.2</ele>
        <time>2021-09-30T10:42:19Z</time>
      </trkpt>
      <trkpt lat="47.25766" lon="6.09739">
        <ele>492.4</ele>
        <time>2021-09-30T10:42:20Z</time>
      </trkpt>
      <trkpt lat="47.25765" lon="6.09738">
        <ele>492.4</ele>
        <time>2021-09-30T10:42:21Z</time>
      </trkpt>
      <trkpt lat="47.25764" lon="6.09736">
        <ele>492.6</ele>
        <time>2021-09-30T10:42:22Z</time>
      </trkpt>
      <trkpt lat="47.25763" lon="6.09735">
        <ele>492.8</ele>
        <time>2021-09-30T10:42:23Z</time>
      </trkpt>
      <trkpt lat="47.25762" lon="6.09733">
        <ele>492.8</ele>
        <time>2021-09-30T10:42:24Z</time>
      </trkpt>
      <trkpt lat="47.25761" lon="6.09732">
        <ele>493</ele>
        <time>2021-09-30T10:42:25Z</time>
      </trkpt>
      <trkpt lat="47.25759" lon="6.09731">
        <ele>493</ele>
        <time>2021-09-30T10:42:26Z</time>
      </trkpt>
      <trkpt lat="47.25757" lon="6.0973">
        <ele>493</ele>
        <time>2021-09-30T10:42:27Z</time>
      </trkpt>
      <trkpt lat="47.25755" lon="6.09728">
        <ele>493.2</ele>
        <time>2021-09-30T10:42:28Z</time>
      </trkpt>
      <trkpt lat="47.25754" lon="6.09726">
        <ele>493.4</ele>
        <time>2021-09-30T10:42:29Z</time>
      </trkpt>
      <trkpt lat="47.25753" lon="6.09724">
        <ele>493.6</ele>
        <time>2021-09-30T10:42:30Z</time>
      </trkpt>
      <trkpt lat="47.25752" lon="6.09723">
        <ele>493.6</ele>
        <time>2021-09-30T10:42:31Z</time>
      </trkpt>
      <trkpt lat="47.25751" lon="6.09722">
        <ele>493.8</ele>
        <time>2021-09-30T10:42:32Z</time>
      </trkpt>
      <trkpt lat="47.2575" lon="6.0972">
        <ele>493.8</ele>
        <time>2021-09-30T10:42:33Z</time>
      </trkpt>
      <trkpt lat="47.25749" lon="6.09719">
        <ele>493.8</ele>
        <time>2021-09-30T10:42:34Z</time>
      </trkpt>
      <trkpt lat="47.25748" lon="6.09717">
        <ele>494</ele>
        <time>2021-09-30T10:42:35Z</time>
      </trkpt>
      <trkpt lat="47.25747" lon="6.09716">
        <ele>494.2</ele>
        <time>2021-09-30T10:42:36Z</time>
      </trkpt>
      <trkpt lat="47.25746" lon="6.09714">
        <ele>494.2</ele>
        <time>2021-09-30T10:42:37Z</time>
      </trkpt>
      <trkpt lat="47.25744" lon="6.09712">
        <ele>494.2</ele>
        <time>2021-09-30T10:42:38Z</time>
      </trkpt>
      <trkpt lat="47.25742" lon="6.09711">
        <ele>494.4</ele>
        <time>2021-09-30T10:42:39Z</time>
      </trkpt>
      <trkpt lat="47.2574" lon="6.09709">
        <ele>494.6</ele>
        <time>2021-09-30T10:42:40Z</time>
      </trkpt>
      <trkpt lat="47.25738" lon="6.09706">
        <ele>494.6</ele>
        <time>2021-09-30T10:42:41Z</time>
      </trkpt>
      <trkpt lat="47.25737" lon="6.09705">
        <ele>494.8</ele>
        <time>2021-09-30T10:42:42Z</time>
      </trkpt>
      <trkpt lat="47.25736" lon="6.09703">
        <ele>494.8</ele>
        <time>2021-09-30T10:42:43Z</time>
      </trkpt>
      <trkpt lat="47.25735" lon="6.09701">
        <ele>495</ele>
        <time>2021-09-30T10:42:44Z</time>
      </trkpt>
      <trkpt lat="47.25734" lon="6.09699">
        <ele>495</ele>
        <time>2021-09-30T10:42:45Z</time>
      </trkpt>
      <trkpt lat="47.25732" lon="6.09697">
        <ele>495.2</ele>
        <time>2021-09-30T10:42:46Z</time>
      </trkpt>
      <trkpt lat="47.25731" lon="6.09695">
        <ele>495.4</ele>
        <time>2021-09-30T10:42:47Z</time>
      </trkpt>
      <trkpt lat="47.25729" lon="6.09692">
        <ele>495.4</ele>
        <time>2021-09-30T10:42:48Z</time>
      </trkpt>
      <trkpt lat="47.25727" lon="6.09689">
        <ele>495.4</ele>
        <time>2021-09-30T10:42:49Z</time>
      </trkpt>
      <trkpt lat="47.25724" lon="6.09687">
        <ele>495.6</ele>
        <time>2021-09-30T10:42:50Z</time>
      </trkpt>
      <trkpt lat="47.25722" lon="6.09685">
        <ele>495.6</ele>
        <time>2021-09-30T10:42:51Z</time>
      </trkpt>
      <trkpt lat="47.25721" lon="6.09684">
        <ele>495.8</ele>
        <time>2021-09-30T10:42:52Z</time>
      </trkpt>
      <trkpt lat="47.2572" lon="6.09683">
        <ele>495.8</ele>
        <time>2021-09-30T10:42:53Z</time>
      </trkpt>
      <trkpt lat="47.25719" lon="6.09681">
        <ele>495.8</ele>
        <time>2021-09-30T10:42:54Z</time>
      </trkpt>
      <trkpt lat="47.25717" lon="6.09678">
        <ele>496</ele>
        <time>2021-09-30T10:42:55Z</time>
      </trkpt>
      <trkpt lat="47.25715" lon="6.09676">
        <ele>496</ele>
        <time>2021-09-30T10:42:56Z</time>
      </trkpt>
      <trkpt lat="47.25712" lon="6.09673">
        <ele>496.2</ele>
        <time>2021-09-30T10:42:57Z</time>
      </trkpt>
      <trkpt lat="47.25708" lon="6.0967">
        <ele>496.2</ele>
        <time>2021-09-30T10:42:58Z</time>
      </trkpt>
      <trkpt lat="47.25705" lon="6.09667">
        <ele>496.6</ele>
        <time>2021-09-30T10:42:59Z</time>
      </trkpt>
      <trkpt lat="47.25702" lon="6.09665">
        <ele>496.6</ele>
        <time>2021-09-30T10:43:00Z</time>
      </trkpt>
      <trkpt lat="47.25699" lon="6.09663">
        <ele>496.6</ele>
        <time>2021-09-30T10:43:01Z</time>
      </trkpt>
      <trkpt lat="47.25696" lon="6.09661">
        <ele>496.8</ele>
        <time>2021-09-30T10:43:02Z</time>
      </trkpt>
      <trkpt lat="47.25694" lon="6.0966">
        <ele>496.8</ele>
        <time>2021-09-30T10:43:03Z</time>
      </trkpt>
      <trkpt lat="47.25685" lon="6.09657">
        <ele>497</ele>
        <time>2021-09-30T10:43:06Z</time>
      </trkpt>
      <trkpt lat="47.25678" lon="6.09654">
        <ele>497.4</ele>
        <time>2021-09-30T10:43:09Z</time>
      </trkpt>
      <trkpt lat="47.25674" lon="6.09654">
        <ele>497.6</ele>
        <time>2021-09-30T10:43:11Z</time>
      </trkpt>
      <trkpt lat="47.25671" lon="6.09655">
        <ele>497.8</ele>
        <time>2021-09-30T10:43:12Z</time>
      </trkpt>
      <trkpt lat="47.25668" lon="6.09655">
        <ele>497.8</ele>
        <time>2021-09-30T10:43:13Z</time>
      </trkpt>
      <trkpt lat="47.25665" lon="6.09654">
        <ele>498</ele>
        <time>2021-09-30T10:43:14Z</time>
      </trkpt>
      <trkpt lat="47.25659" lon="6.09655">
        <ele>498.2</ele>
        <time>2021-09-30T10:43:16Z</time>
      </trkpt>
      <trkpt lat="47.25657" lon="6.09657">
        <ele>498.4</ele>
        <time>2021-09-30T10:43:17Z</time>
      </trkpt>
      <trkpt lat="47.25654" lon="6.09658">
        <ele>498.4</ele>
        <time>2021-09-30T10:43:18Z</time>
      </trkpt>
      <trkpt lat="47.25651" lon="6.09661">
        <ele>498.6</ele>
        <time>2021-09-30T10:43:19Z</time>
      </trkpt>
      <trkpt lat="47.25649" lon="6.09663">
        <ele>498.6</ele>
        <time>2021-09-30T10:43:20Z</time>
      </trkpt>
      <trkpt lat="47.25642" lon="6.09671">
        <ele>499</ele>
        <time>2021-09-30T10:43:23Z</time>
      </trkpt>
      <trkpt lat="47.2564" lon="6.09674">
        <ele>499</ele>
        <time>2021-09-30T10:43:24Z</time>
      </trkpt>
      <trkpt lat="47.25639" lon="6.09677">
        <ele>499</ele>
        <time>2021-09-30T10:43:25Z</time>
      </trkpt>
      <trkpt lat="47.25637" lon="6.09679">
        <ele>499.2</ele>
        <time>2021-09-30T10:43:26Z</time>
      </trkpt>
      <trkpt lat="47.25635" lon="6.09681">
        <ele>499.2</ele>
        <time>2021-09-30T10:43:27Z</time>
      </trkpt>
      <trkpt lat="47.25633" lon="6.09684">
        <ele>499.4</ele>
        <time>2021-09-30T10:43:28Z</time>
      </trkpt>
      <trkpt lat="47.25632" lon="6.09687">
        <ele>499.6</ele>
        <time>2021-09-30T10:43:29Z</time>
      </trkpt>
      <trkpt lat="47.25631" lon="6.09689">
        <ele>499.8</ele>
        <time>2021-09-30T10:43:30Z</time>
      </trkpt>
      <trkpt lat="47.2563" lon="6.09692">
        <ele>500</ele>
        <time>2021-09-30T10:43:31Z</time>
      </trkpt>
      <trkpt lat="47.25628" lon="6.09695">
        <ele>500</ele>
        <time>2021-09-30T10:43:32Z</time>
      </trkpt>
      <trkpt lat="47.25627" lon="6.09697">
        <ele>500.2</ele>
        <time>2021-09-30T10:43:33Z</time>
      </trkpt>
      <trkpt lat="47.25625" lon="6.09701">
        <ele>500.4</ele>
        <time>2021-09-30T10:43:34Z</time>
      </trkpt>
      <trkpt lat="47.25624" lon="6.09703">
        <ele>500.6</ele>
        <time>2021-09-30T10:43:35Z</time>
      </trkpt>
      <trkpt lat="47.25623" lon="6.09705">
        <ele>500.8</ele>
        <time>2021-09-30T10:43:36Z</time>
      </trkpt>
      <trkpt lat="47.25622" lon="6.09707">
        <ele>501</ele>
        <time>2021-09-30T10:43:37Z</time>
      </trkpt>
      <trkpt lat="47.25621" lon="6.09709">
        <ele>501</ele>
        <time>2021-09-30T10:43:38Z</time>
      </trkpt>
      <trkpt lat="47.2562" lon="6.09712">
        <ele>501</ele>
        <time>2021-09-30T10:43:39Z</time>
      </trkpt>
      <trkpt lat="47.25619" lon="6.09716">
        <ele>501.2</ele>
        <time>2021-09-30T10:43:40Z</time>
      </trkpt>
      <trkpt lat="47.25618" lon="6.09719">
        <ele>501.4</ele>
        <time>2021-09-30T10:43:41Z</time>
      </trkpt>
      <trkpt lat="47.25617" lon="6.09723">
        <ele>501.6</ele>
        <time>2021-09-30T10:43:42Z</time>
      </trkpt>
      <trkpt lat="47.25616" lon="6.09725">
        <ele>501.6</ele>
        <time>2021-09-30T10:43:43Z</time>
      </trkpt>
      <trkpt lat="47.25616" lon="6.09728">
        <ele>501.6</ele>
        <time>2021-09-30T10:43:44Z</time>
      </trkpt>
      <trkpt lat="47.25615" lon="6.0973">
        <ele>501.8</ele>
        <time>2021-09-30T10:43:45Z</time>
      </trkpt>
      <trkpt lat="47.25613" lon="6.09733">
        <ele>502</ele>
        <time>2021-09-30T10:43:46Z</time>
      </trkpt>
      <trkpt lat="47.25612" lon="6.09736">
        <ele>502</ele>
        <time>2021-09-30T10:43:47Z</time>
      </trkpt>
      <trkpt lat="47.25611" lon="6.0974">
        <ele>502.2</ele>
        <time>2021-09-30T10:43:48Z</time>
      </trkpt>
      <trkpt lat="47.25609" lon="6.09744">
        <ele>502.2</ele>
        <time>2021-09-30T10:43:49Z</time>
      </trkpt>
      <trkpt lat="47.25608" lon="6.09747">
        <ele>502.4</ele>
        <time>2021-09-30T10:43:50Z</time>
      </trkpt>
      <trkpt lat="47.25607" lon="6.0975">
        <ele>502.4</ele>
        <time>2021-09-30T10:43:51Z</time>
      </trkpt>
      <trkpt lat="47.25606" lon="6.09752">
        <ele>502.6</ele>
        <time>2021-09-30T10:43:52Z</time>
      </trkpt>
      <trkpt lat="47.25605" lon="6.09754">
        <ele>502.6</ele>
        <time>2021-09-30T10:43:53Z</time>
      </trkpt>
      <trkpt lat="47.25604" lon="6.09756">
        <ele>502.8</ele>
        <time>2021-09-30T10:43:54Z</time>
      </trkpt>
      <trkpt lat="47.25603" lon="6.09758">
        <ele>503</ele>
        <time>2021-09-30T10:43:55Z</time>
      </trkpt>
      <trkpt lat="47.25602" lon="6.09761">
        <ele>503.2</ele>
        <time>2021-09-30T10:43:56Z</time>
      </trkpt>
      <trkpt lat="47.25601" lon="6.09764">
        <ele>503.4</ele>
        <time>2021-09-30T10:43:57Z</time>
      </trkpt>
      <trkpt lat="47.256" lon="6.09766">
        <ele>503.4</ele>
        <time>2021-09-30T10:43:58Z</time>
      </trkpt>
      <trkpt lat="47.25599" lon="6.09768">
        <ele>503.6</ele>
        <time>2021-09-30T10:43:59Z</time>
      </trkpt>
      <trkpt lat="47.25598" lon="6.0977">
        <ele>503.6</ele>
        <time>2021-09-30T10:44:00Z</time>
      </trkpt>
      <trkpt lat="47.25597" lon="6.09772">
        <ele>503.8</ele>
        <time>2021-09-30T10:44:01Z</time>
      </trkpt>
      <trkpt lat="47.25596" lon="6.09775">
        <ele>503.8</ele>
        <time>2021-09-30T10:44:02Z</time>
      </trkpt>
      <trkpt lat="47.25595" lon="6.09777">
        <ele>503.8</ele>
        <time>2021-09-30T10:44:03Z</time>
      </trkpt>
      <trkpt lat="47.25594" lon="6.09779">
        <ele>504</ele>
        <time>2021-09-30T10:44:04Z</time>
      </trkpt>
      <trkpt lat="47.25592" lon="6.09782">
        <ele>504</ele>
        <time>2021-09-30T10:44:05Z</time>
      </trkpt>
      <trkpt lat="47.25591" lon="6.09785">
        <ele>504.2</ele>
        <time>2021-09-30T10:44:06Z</time>
      </trkpt>
      <trkpt lat="47.2559" lon="6.09787">
        <ele>504.2</ele>
        <time>2021-09-30T10:44:07Z</time>
      </trkpt>
      <trkpt lat="47.25589" lon="6.09788">
        <ele>504.4</ele>
        <time>2021-09-30T10:44:08Z</time>
      </trkpt>
      <trkpt lat="47.25588" lon="6.0979">
        <ele>504.4</ele>
        <time>2021-09-30T10:44:09Z</time>
      </trkpt>
      <trkpt lat="47.25587" lon="6.09791">
        <ele>504.4</ele>
        <time>2021-09-30T10:44:10Z</time>
      </trkpt>
      <trkpt lat="47.25586" lon="6.09792">
        <ele>504.6</ele>
        <time>2021-09-30T10:44:11Z</time>
      </trkpt>
      <trkpt lat="47.25585" lon="6.09794">
        <ele>504.8</ele>
        <time>2021-09-30T10:44:12Z</time>
      </trkpt>
      <trkpt lat="47.25585" lon="6.09795">
        <ele>504.8</ele>
        <time>2021-09-30T10:44:13Z</time>
      </trkpt>
      <trkpt lat="47.25584" lon="6.09797">
        <ele>505</ele>
        <time>2021-09-30T10:44:14Z</time>
      </trkpt>
      <trkpt lat="47.25582" lon="6.09799">
        <ele>505</ele>
        <time>2021-09-30T10:44:15Z</time>
      </trkpt>
      <trkpt lat="47.25581" lon="6.09802">
        <ele>505.2</ele>
        <time>2021-09-30T10:44:16Z</time>
      </trkpt>
      <trkpt lat="47.2558" lon="6.09804">
        <ele>505.2</ele>
        <time>2021-09-30T10:44:17Z</time>
      </trkpt>
      <trkpt lat="47.25579" lon="6.09806">
        <ele>505.2</ele>
        <time>2021-09-30T10:44:18Z</time>
      </trkpt>
      <trkpt lat="47.25577" lon="6.09808">
        <ele>505.2</ele>
        <time>2021-09-30T10:44:19Z</time>
      </trkpt>
      <trkpt lat="47.25575" lon="6.09811">
        <ele>505.4</ele>
        <time>2021-09-30T10:44:20Z</time>
      </trkpt>
      <trkpt lat="47.25573" lon="6.09814">
        <ele>505.4</ele>
        <time>2021-09-30T10:44:21Z</time>
      </trkpt>
      <trkpt lat="47.25572" lon="6.09818">
        <ele>505.4</ele>
        <time>2021-09-30T10:44:22Z</time>
      </trkpt>
      <trkpt lat="47.25569" lon="6.09826">
        <ele>505.4</ele>
        <time>2021-09-30T10:44:24Z</time>
      </trkpt>
      <trkpt lat="47.25567" lon="6.0983">
        <ele>505.6</ele>
        <time>2021-09-30T10:44:25Z</time>
      </trkpt>
      <trkpt lat="47.25564" lon="6.09837">
        <ele>505.6</ele>
        <time>2021-09-30T10:44:27Z</time>
      </trkpt>
      <trkpt lat="47.25562" lon="6.09843">
        <ele>505.6</ele>
        <time>2021-09-30T10:44:29Z</time>
      </trkpt>
      <trkpt lat="47.25555" lon="6.09855">
        <ele>506.2</ele>
        <time>2021-09-30T10:44:33Z</time>
      </trkpt>
      <trkpt lat="47.25553" lon="6.09857">
        <ele>506.4</ele>
        <time>2021-09-30T10:44:34Z</time>
      </trkpt>
      <trkpt lat="47.25552" lon="6.09861">
        <ele>506.4</ele>
        <time>2021-09-30T10:44:35Z</time>
      </trkpt>
      <trkpt lat="47.25549" lon="6.09865">
        <ele>506.6</ele>
        <time>2021-09-30T10:44:36Z</time>
      </trkpt>
      <trkpt lat="47.25547" lon="6.09868">
        <ele>506.8</ele>
        <time>2021-09-30T10:44:37Z</time>
      </trkpt>
      <trkpt lat="47.25546" lon="6.09871">
        <ele>507</ele>
        <time>2021-09-30T10:44:38Z</time>
      </trkpt>
      <trkpt lat="47.25543" lon="6.09881">
        <ele>507.2</ele>
        <time>2021-09-30T10:44:41Z</time>
      </trkpt>
      <trkpt lat="47.25538" lon="6.09889">
        <ele>507.6</ele>
        <time>2021-09-30T10:44:44Z</time>
      </trkpt>
      <trkpt lat="47.25536" lon="6.09892">
        <ele>507.8</ele>
        <time>2021-09-30T10:44:45Z</time>
      </trkpt>
      <trkpt lat="47.25533" lon="6.09899">
        <ele>508.2</ele>
        <time>2021-09-30T10:44:48Z</time>
      </trkpt>
      <trkpt lat="47.25532" lon="6.09902">
        <ele>508.2</ele>
        <time>2021-09-30T10:44:49Z</time>
      </trkpt>
      <trkpt lat="47.25531" lon="6.09904">
        <ele>508.4</ele>
        <time>2021-09-30T10:44:50Z</time>
      </trkpt>
      <trkpt lat="47.2553" lon="6.09907">
        <ele>508.4</ele>
        <time>2021-09-30T10:44:51Z</time>
      </trkpt>
      <trkpt lat="47.25528" lon="6.09909">
        <ele>508.6</ele>
        <time>2021-09-30T10:44:52Z</time>
      </trkpt>
      <trkpt lat="47.25527" lon="6.09912">
        <ele>508.6</ele>
        <time>2021-09-30T10:44:53Z</time>
      </trkpt>
      <trkpt lat="47.25525" lon="6.09915">
        <ele>508.8</ele>
        <time>2021-09-30T10:44:54Z</time>
      </trkpt>
      <trkpt lat="47.25523" lon="6.09917">
        <ele>508.8</ele>
        <time>2021-09-30T10:44:55Z</time>
      </trkpt>
      <trkpt lat="47.25522" lon="6.0992">
        <ele>508.8</ele>
        <time>2021-09-30T10:44:56Z</time>
      </trkpt>
      <trkpt lat="47.2552" lon="6.09922">
        <ele>509</ele>
        <time>2021-09-30T10:44:57Z</time>
      </trkpt>
      <trkpt lat="47.25518" lon="6.09924">
        <ele>509</ele>
        <time>2021-09-30T10:44:58Z</time>
      </trkpt>
      <trkpt lat="47.25517" lon="6.09926">
        <ele>509</ele>
        <time>2021-09-30T10:44:59Z</time>
      </trkpt>
      <trkpt lat="47.25516" lon="6.09928">
        <ele>509.2</ele>
        <time>2021-09-30T10:45:00Z</time>
      </trkpt>
      <trkpt lat="47.25514" lon="6.0993">
        <ele>509.4</ele>
        <time>2021-09-30T10:45:01Z</time>
      </trkpt>
      <trkpt lat="47.25513" lon="6.09932">
        <ele>509.6</ele>
        <time>2021-09-30T10:45:02Z</time>
      </trkpt>
      <trkpt lat="47.25511" lon="6.09935">
        <ele>509.6</ele>
        <time>2021-09-30T10:45:03Z</time>
      </trkpt>
      <trkpt lat="47.25509" lon="6.09937">
        <ele>509.8</ele>
        <time>2021-09-30T10:45:04Z</time>
      </trkpt>
      <trkpt lat="47.25507" lon="6.09939">
        <ele>510</ele>
        <time>2021-09-30T10:45:05Z</time>
      </trkpt>
      <trkpt lat="47.25505" lon="6.09941">
        <ele>510</ele>
        <time>2021-09-30T10:45:06Z</time>
      </trkpt>
      <trkpt lat="47.25503" lon="6.09944">
        <ele>510.2</ele>
        <time>2021-09-30T10:45:07Z</time>
      </trkpt>
      <trkpt lat="47.25502" lon="6.09946">
        <ele>510.2</ele>
        <time>2021-09-30T10:45:08Z</time>
      </trkpt>
      <trkpt lat="47.255" lon="6.09949">
        <ele>510.4</ele>
        <time>2021-09-30T10:45:09Z</time>
      </trkpt>
      <trkpt lat="47.25497" lon="6.09952">
        <ele>510.4</ele>
        <time>2021-09-30T10:45:10Z</time>
      </trkpt>
      <trkpt lat="47.25494" lon="6.09954">
        <ele>510.6</ele>
        <time>2021-09-30T10:45:11Z</time>
      </trkpt>
      <trkpt lat="47.25492" lon="6.09958">
        <ele>510.6</ele>
        <time>2021-09-30T10:45:12Z</time>
      </trkpt>
      <trkpt lat="47.2549" lon="6.0996">
        <ele>510.6</ele>
        <time>2021-09-30T10:45:13Z</time>
      </trkpt>
      <trkpt lat="47.25488" lon="6.09962">
        <ele>510.6</ele>
        <time>2021-09-30T10:45:14Z</time>
      </trkpt>
      <trkpt lat="47.25486" lon="6.09963">
        <ele>510.8</ele>
        <time>2021-09-30T10:45:15Z</time>
      </trkpt>
      <trkpt lat="47.25483" lon="6.09966">
        <ele>510.8</ele>
        <time>2021-09-30T10:45:16Z</time>
      </trkpt>
      <trkpt lat="47.25481" lon="6.09969">
        <ele>511</ele>
        <time>2021-09-30T10:45:17Z</time>
      </trkpt>
      <trkpt lat="47.25479" lon="6.09972">
        <ele>511</ele>
        <time>2021-09-30T10:45:18Z</time>
      </trkpt>
      <trkpt lat="47.25476" lon="6.09975">
        <ele>511.2</ele>
        <time>2021-09-30T10:45:19Z</time>
      </trkpt>
      <trkpt lat="47.25474" lon="6.09978">
        <ele>511.2</ele>
        <time>2021-09-30T10:45:20Z</time>
      </trkpt>
      <trkpt lat="47.25473" lon="6.0998">
        <ele>511.2</ele>
        <time>2021-09-30T10:45:21Z</time>
      </trkpt>
      <trkpt lat="47.25469" lon="6.09984">
        <ele>511.4</ele>
        <time>2021-09-30T10:45:23Z</time>
      </trkpt>
      <trkpt lat="47.25467" lon="6.09987">
        <ele>511.4</ele>
        <time>2021-09-30T10:45:24Z</time>
      </trkpt>
      <trkpt lat="47.25463" lon="6.09989">
        <ele>511.6</ele>
        <time>2021-09-30T10:45:26Z</time>
      </trkpt>
      <trkpt lat="47.25462" lon="6.0999">
        <ele>511.8</ele>
        <time>2021-09-30T10:45:27Z</time>
      </trkpt>
      <trkpt lat="47.2546" lon="6.09991">
        <ele>511.8</ele>
        <time>2021-09-30T10:45:28Z</time>
      </trkpt>
      <trkpt lat="47.25459" lon="6.09992">
        <ele>512</ele>
        <time>2021-09-30T10:45:29Z</time>
      </trkpt>
      <trkpt lat="47.25459" lon="6.09993">
        <ele>512</ele>
        <time>2021-09-30T10:45:30Z</time>
      </trkpt>
      <trkpt lat="47.25458" lon="6.09994">
        <ele>512.2</ele>
        <time>2021-09-30T10:45:31Z</time>
      </trkpt>
      <trkpt lat="47.25457" lon="6.09997">
        <ele>512.4</ele>
        <time>2021-09-30T10:45:32Z</time>
      </trkpt>
      <trkpt lat="47.25455" lon="6.10001">
        <ele>512.4</ele>
        <time>2021-09-30T10:45:33Z</time>
      </trkpt>
      <trkpt lat="47.2545" lon="6.10009">
        <ele>512.6</ele>
        <time>2021-09-30T10:45:36Z</time>
      </trkpt>
      <trkpt lat="47.25448" lon="6.10012">
        <ele>512.6</ele>
        <time>2021-09-30T10:45:37Z</time>
      </trkpt>
      <trkpt lat="47.25442" lon="6.10023">
        <ele>513</ele>
        <time>2021-09-30T10:45:41Z</time>
      </trkpt>
      <trkpt lat="47.2544" lon="6.10027">
        <ele>513</ele>
        <time>2021-09-30T10:45:42Z</time>
      </trkpt>
      <trkpt lat="47.25438" lon="6.10037">
        <ele>513.2</ele>
        <time>2021-09-30T10:45:45Z</time>
      </trkpt>
      <trkpt lat="47.25437" lon="6.1004">
        <ele>513.4</ele>
        <time>2021-09-30T10:45:46Z</time>
      </trkpt>
      <trkpt lat="47.25436" lon="6.10044">
        <ele>513.6</ele>
        <time>2021-09-30T10:45:47Z</time>
      </trkpt>
      <trkpt lat="47.25434" lon="6.1005">
        <ele>513.6</ele>
        <time>2021-09-30T10:45:48Z</time>
      </trkpt>
      <trkpt lat="47.25431" lon="6.10064">
        <ele>514</ele>
        <time>2021-09-30T10:45:52Z</time>
      </trkpt>
      <trkpt lat="47.2543" lon="6.10068">
        <ele>514.2</ele>
        <time>2021-09-30T10:45:53Z</time>
      </trkpt>
      <trkpt lat="47.25428" lon="6.10083">
        <ele>514.2</ele>
        <time>2021-09-30T10:45:56Z</time>
      </trkpt>
      <trkpt lat="47.25429" lon="6.10089">
        <ele>514.4</ele>
        <time>2021-09-30T10:45:57Z</time>
      </trkpt>
      <trkpt lat="47.25427" lon="6.10092">
        <ele>514.4</ele>
        <time>2021-09-30T10:45:58Z</time>
      </trkpt>
      <trkpt lat="47.25426" lon="6.10096">
        <ele>514.6</ele>
        <time>2021-09-30T10:45:59Z</time>
      </trkpt>
      <trkpt lat="47.25424" lon="6.10106">
        <ele>514.8</ele>
        <time>2021-09-30T10:46:01Z</time>
      </trkpt>
      <trkpt lat="47.25424" lon="6.10111">
        <ele>514.8</ele>
        <time>2021-09-30T10:46:02Z</time>
      </trkpt>
      <trkpt lat="47.25425" lon="6.10115">
        <ele>514.8</ele>
        <time>2021-09-30T10:46:03Z</time>
      </trkpt>
      <trkpt lat="47.25425" lon="6.10118">
        <ele>515</ele>
        <time>2021-09-30T10:46:04Z</time>
      </trkpt>
      <trkpt lat="47.25425" lon="6.10121">
        <ele>515</ele>
        <time>2021-09-30T10:46:05Z</time>
      </trkpt>
      <trkpt lat="47.25425" lon="6.10126">
        <ele>515.2</ele>
        <time>2021-09-30T10:46:06Z</time>
      </trkpt>
      <trkpt lat="47.25424" lon="6.10134">
        <ele>515.6</ele>
        <time>2021-09-30T10:46:08Z</time>
      </trkpt>
      <trkpt lat="47.25423" lon="6.10141">
        <ele>515.4</ele>
        <time>2021-09-30T10:46:09Z</time>
      </trkpt>
      <trkpt lat="47.25423" lon="6.1015">
        <ele>515.6</ele>
        <time>2021-09-30T10:46:11Z</time>
      </trkpt>
      <trkpt lat="47.25421" lon="6.10155">
        <ele>515.8</ele>
        <time>2021-09-30T10:46:12Z</time>
      </trkpt>
      <trkpt lat="47.25421" lon="6.10158">
        <ele>515.8</ele>
        <time>2021-09-30T10:46:13Z</time>
      </trkpt>
      <trkpt lat="47.25418" lon="6.10169">
        <ele>515.8</ele>
        <time>2021-09-30T10:46:15Z</time>
      </trkpt>
      <trkpt lat="47.25418" lon="6.10173">
        <ele>516</ele>
        <time>2021-09-30T10:46:16Z</time>
      </trkpt>
      <trkpt lat="47.25417" lon="6.10177">
        <ele>516.2</ele>
        <time>2021-09-30T10:46:17Z</time>
      </trkpt>
      <trkpt lat="47.2541" lon="6.10213">
        <ele>516.8</ele>
        <time>2021-09-30T10:46:24Z</time>
      </trkpt>
      <trkpt lat="47.25407" lon="6.10235">
        <ele>517.2</ele>
        <time>2021-09-30T10:46:28Z</time>
      </trkpt>
      <trkpt lat="47.25409" lon="6.10247">
        <ele>517.2</ele>
        <time>2021-09-30T10:46:31Z</time>
      </trkpt>
      <trkpt lat="47.25409" lon="6.1025">
        <ele>517.4</ele>
        <time>2021-09-30T10:46:32Z</time>
      </trkpt>
      <trkpt lat="47.2541" lon="6.10255">
        <ele>517.4</ele>
        <time>2021-09-30T10:46:33Z</time>
      </trkpt>
      <trkpt lat="47.2541" lon="6.10258">
        <ele>517.6</ele>
        <time>2021-09-30T10:46:34Z</time>
      </trkpt>
      <trkpt lat="47.25411" lon="6.10269">
        <ele>517.8</ele>
        <time>2021-09-30T10:46:37Z</time>
      </trkpt>
      <trkpt lat="47.25413" lon="6.10279">
        <ele>518.4</ele>
        <time>2021-09-30T10:46:40Z</time>
      </trkpt>
      <trkpt lat="47.25416" lon="6.10288">
        <ele>518.6</ele>
        <time>2021-09-30T10:46:43Z</time>
      </trkpt>
      <trkpt lat="47.25417" lon="6.10291">
        <ele>518.8</ele>
        <time>2021-09-30T10:46:44Z</time>
      </trkpt>
      <trkpt lat="47.25418" lon="6.10295">
        <ele>519</ele>
        <time>2021-09-30T10:46:45Z</time>
      </trkpt>
      <trkpt lat="47.25419" lon="6.10303">
        <ele>519.4</ele>
        <time>2021-09-30T10:46:47Z</time>
      </trkpt>
      <trkpt lat="47.2542" lon="6.10307">
        <ele>519.4</ele>
        <time>2021-09-30T10:46:48Z</time>
      </trkpt>
      <trkpt lat="47.2542" lon="6.10311">
        <ele>519.6</ele>
        <time>2021-09-30T10:46:49Z</time>
      </trkpt>
      <trkpt lat="47.25421" lon="6.10315">
        <ele>519.8</ele>
        <time>2021-09-30T10:46:50Z</time>
      </trkpt>
      <trkpt lat="47.25422" lon="6.10319">
        <ele>520</ele>
        <time>2021-09-30T10:46:51Z</time>
      </trkpt>
      <trkpt lat="47.25422" lon="6.10323">
        <ele>520.4</ele>
        <time>2021-09-30T10:46:52Z</time>
      </trkpt>
      <trkpt lat="47.25423" lon="6.10325">
        <ele>520.6</ele>
        <time>2021-09-30T10:46:53Z</time>
      </trkpt>
      <trkpt lat="47.25424" lon="6.10328">
        <ele>520.8</ele>
        <time>2021-09-30T10:46:54Z</time>
      </trkpt>
      <trkpt lat="47.25424" lon="6.10332">
        <ele>520.8</ele>
        <time>2021-09-30T10:46:55Z</time>
      </trkpt>
      <trkpt lat="47.25424" lon="6.10335">
        <ele>521</ele>
        <time>2021-09-30T10:46:56Z</time>
      </trkpt>
      <trkpt lat="47.25425" lon="6.10338">
        <ele>521</ele>
        <time>2021-09-30T10:46:57Z</time>
      </trkpt>
      <trkpt lat="47.25426" lon="6.10341">
        <ele>521.2</ele>
        <time>2021-09-30T10:46:58Z</time>
      </trkpt>
      <trkpt lat="47.25427" lon="6.10343">
        <ele>521.6</ele>
        <time>2021-09-30T10:46:59Z</time>
      </trkpt>
      <trkpt lat="47.25428" lon="6.10348">
        <ele>522</ele>
        <time>2021-09-30T10:47:00Z</time>
      </trkpt>
      <trkpt lat="47.25428" lon="6.1035">
        <ele>522.2</ele>
        <time>2021-09-30T10:47:01Z</time>
      </trkpt>
      <trkpt lat="47.25429" lon="6.10353">
        <ele>522.2</ele>
        <time>2021-09-30T10:47:02Z</time>
      </trkpt>
      <trkpt lat="47.2543" lon="6.10355">
        <ele>522.4</ele>
        <time>2021-09-30T10:47:03Z</time>
      </trkpt>
      <trkpt lat="47.25431" lon="6.10359">
        <ele>522.6</ele>
        <time>2021-09-30T10:47:04Z</time>
      </trkpt>
      <trkpt lat="47.25432" lon="6.10362">
        <ele>523</ele>
        <time>2021-09-30T10:47:05Z</time>
      </trkpt>
      <trkpt lat="47.25432" lon="6.10365">
        <ele>523.2</ele>
        <time>2021-09-30T10:47:06Z</time>
      </trkpt>
      <trkpt lat="47.25433" lon="6.10368">
        <ele>523.4</ele>
        <time>2021-09-30T10:47:07Z</time>
      </trkpt>
      <trkpt lat="47.25433" lon="6.10371">
        <ele>523.4</ele>
        <time>2021-09-30T10:47:08Z</time>
      </trkpt>
      <trkpt lat="47.25434" lon="6.10375">
        <ele>523.6</ele>
        <time>2021-09-30T10:47:09Z</time>
      </trkpt>
      <trkpt lat="47.25434" lon="6.10378">
        <ele>523.8</ele>
        <time>2021-09-30T10:47:10Z</time>
      </trkpt>
      <trkpt lat="47.25434" lon="6.1038">
        <ele>524</ele>
        <time>2021-09-30T10:47:11Z</time>
      </trkpt>
      <trkpt lat="47.25435" lon="6.10383">
        <ele>524.2</ele>
        <time>2021-09-30T10:47:12Z</time>
      </trkpt>
      <trkpt lat="47.25435" lon="6.10386">
        <ele>524.4</ele>
        <time>2021-09-30T10:47:13Z</time>
      </trkpt>
      <trkpt lat="47.25435" lon="6.10389">
        <ele>524.4</ele>
        <time>2021-09-30T10:47:14Z</time>
      </trkpt>
      <trkpt lat="47.25436" lon="6.10392">
        <ele>524.6</ele>
        <time>2021-09-30T10:47:15Z</time>
      </trkpt>
      <trkpt lat="47.25436" lon="6.10395">
        <ele>524.8</ele>
        <time>2021-09-30T10:47:16Z</time>
      </trkpt>
      <trkpt lat="47.25437" lon="6.10398">
        <ele>525</ele>
        <time>2021-09-30T10:47:17Z</time>
      </trkpt>
      <trkpt lat="47.25437" lon="6.10402">
        <ele>525.2</ele>
        <time>2021-09-30T10:47:18Z</time>
      </trkpt>
      <trkpt lat="47.25436" lon="6.10406">
        <ele>525.2</ele>
        <time>2021-09-30T10:47:19Z</time>
      </trkpt>
      <trkpt lat="47.25436" lon="6.10409">
        <ele>525.4</ele>
        <time>2021-09-30T10:47:20Z</time>
      </trkpt>
      <trkpt lat="47.25436" lon="6.10412">
        <ele>525.6</ele>
        <time>2021-09-30T10:47:21Z</time>
      </trkpt>
      <trkpt lat="47.25435" lon="6.10416">
        <ele>525.8</ele>
        <time>2021-09-30T10:47:22Z</time>
      </trkpt>
      <trkpt lat="47.25433" lon="6.10419">
        <ele>525.8</ele>
        <time>2021-09-30T10:47:23Z</time>
      </trkpt>
      <trkpt lat="47.25431" lon="6.10421">
        <ele>526</ele>
        <time>2021-09-30T10:47:24Z</time>
      </trkpt>
      <trkpt lat="47.2543" lon="6.10422">
        <ele>526</ele>
        <time>2021-09-30T10:47:25Z</time>
      </trkpt>
      <trkpt lat="47.25428" lon="6.10423">
        <ele>526.2</ele>
        <time>2021-09-30T10:47:26Z</time>
      </trkpt>
      <trkpt lat="47.25425" lon="6.10422">
        <ele>526.6</ele>
        <time>2021-09-30T10:47:27Z</time>
      </trkpt>
      <trkpt lat="47.25424" lon="6.10421">
        <ele>526.6</ele>
        <time>2021-09-30T10:47:28Z</time>
      </trkpt>
      <trkpt lat="47.25422" lon="6.10419">
        <ele>526.8</ele>
        <time>2021-09-30T10:47:29Z</time>
      </trkpt>
      <trkpt lat="47.2542" lon="6.10417">
        <ele>527</ele>
        <time>2021-09-30T10:47:30Z</time>
      </trkpt>
      <trkpt lat="47.25419" lon="6.10416">
        <ele>527.2</ele>
        <time>2021-09-30T10:47:31Z</time>
      </trkpt>
      <trkpt lat="47.25417" lon="6.10414">
        <ele>527.4</ele>
        <time>2021-09-30T10:47:32Z</time>
      </trkpt>
      <trkpt lat="47.25415" lon="6.10412">
        <ele>527.4</ele>
        <time>2021-09-30T10:47:33Z</time>
      </trkpt>
      <trkpt lat="47.25414" lon="6.10411">
        <ele>527.6</ele>
        <time>2021-09-30T10:47:34Z</time>
      </trkpt>
      <trkpt lat="47.25413" lon="6.10409">
        <ele>528</ele>
        <time>2021-09-30T10:47:35Z</time>
      </trkpt>
      <trkpt lat="47.25412" lon="6.10407">
        <ele>528</ele>
        <time>2021-09-30T10:47:36Z</time>
      </trkpt>
      <trkpt lat="47.25411" lon="6.10406">
        <ele>528.2</ele>
        <time>2021-09-30T10:47:37Z</time>
      </trkpt>
      <trkpt lat="47.2541" lon="6.10404">
        <ele>528.4</ele>
        <time>2021-09-30T10:47:38Z</time>
      </trkpt>
      <trkpt lat="47.25409" lon="6.10402">
        <ele>528.6</ele>
        <time>2021-09-30T10:47:39Z</time>
      </trkpt>
      <trkpt lat="47.25407" lon="6.104">
        <ele>528.8</ele>
        <time>2021-09-30T10:47:40Z</time>
      </trkpt>
      <trkpt lat="47.25406" lon="6.10398">
        <ele>529</ele>
        <time>2021-09-30T10:47:41Z</time>
      </trkpt>
      <trkpt lat="47.25405" lon="6.10396">
        <ele>529</ele>
        <time>2021-09-30T10:47:42Z</time>
      </trkpt>
      <trkpt lat="47.25403" lon="6.10394">
        <ele>529.2</ele>
        <time>2021-09-30T10:47:43Z</time>
      </trkpt>
      <trkpt lat="47.25402" lon="6.10392">
        <ele>529.2</ele>
        <time>2021-09-30T10:47:44Z</time>
      </trkpt>
      <trkpt lat="47.25401" lon="6.1039">
        <ele>529.4</ele>
        <time>2021-09-30T10:47:45Z</time>
      </trkpt>
      <trkpt lat="47.25399" lon="6.10387">
        <ele>529.4</ele>
        <time>2021-09-30T10:47:46Z</time>
      </trkpt>
      <trkpt lat="47.25397" lon="6.10386">
        <ele>529.6</ele>
        <time>2021-09-30T10:47:47Z</time>
      </trkpt>
      <trkpt lat="47.25396" lon="6.10384">
        <ele>529.6</ele>
        <time>2021-09-30T10:47:48Z</time>
      </trkpt>
      <trkpt lat="47.25394" lon="6.10382">
        <ele>529.8</ele>
        <time>2021-09-30T10:47:49Z</time>
      </trkpt>
      <trkpt lat="47.25393" lon="6.10381">
        <ele>530</ele>
        <time>2021-09-30T10:47:50Z</time>
      </trkpt>
      <trkpt lat="47.25392" lon="6.10379">
        <ele>530.4</ele>
        <time>2021-09-30T10:47:51Z</time>
      </trkpt>
      <trkpt lat="47.2539" lon="6.10377">
        <ele>530.4</ele>
        <time>2021-09-30T10:47:52Z</time>
      </trkpt>
      <trkpt lat="47.25388" lon="6.10375">
        <ele>530.8</ele>
        <time>2021-09-30T10:47:53Z</time>
      </trkpt>
      <trkpt lat="47.25387" lon="6.10373">
        <ele>531</ele>
        <time>2021-09-30T10:47:54Z</time>
      </trkpt>
      <trkpt lat="47.25385" lon="6.10371">
        <ele>531.2</ele>
        <time>2021-09-30T10:47:55Z</time>
      </trkpt>
      <trkpt lat="47.25384" lon="6.1037">
        <ele>531.4</ele>
        <time>2021-09-30T10:47:56Z</time>
      </trkpt>
      <trkpt lat="47.25383" lon="6.10369">
        <ele>531.4</ele>
        <time>2021-09-30T10:47:57Z</time>
      </trkpt>
      <trkpt lat="47.25382" lon="6.10367">
        <ele>531.4</ele>
        <time>2021-09-30T10:47:58Z</time>
      </trkpt>
      <trkpt lat="47.25381" lon="6.10365">
        <ele>531.8</ele>
        <time>2021-09-30T10:47:59Z</time>
      </trkpt>
      <trkpt lat="47.25379" lon="6.10364">
        <ele>532</ele>
        <time>2021-09-30T10:48:00Z</time>
      </trkpt>
      <trkpt lat="47.25377" lon="6.10362">
        <ele>532.2</ele>
        <time>2021-09-30T10:48:01Z</time>
      </trkpt>
      <trkpt lat="47.25375" lon="6.10361">
        <ele>532.4</ele>
        <time>2021-09-30T10:48:02Z</time>
      </trkpt>
      <trkpt lat="47.25373" lon="6.10359">
        <ele>532.6</ele>
        <time>2021-09-30T10:48:03Z</time>
      </trkpt>
      <trkpt lat="47.25371" lon="6.10359">
        <ele>532.6</ele>
        <time>2021-09-30T10:48:04Z</time>
      </trkpt>
      <trkpt lat="47.25369" lon="6.10358">
        <ele>532.8</ele>
        <time>2021-09-30T10:48:05Z</time>
      </trkpt>
      <trkpt lat="47.25368" lon="6.10357">
        <ele>533.2</ele>
        <time>2021-09-30T10:48:06Z</time>
      </trkpt>
      <trkpt lat="47.25368" lon="6.10357">
        <ele>533.2</ele>
        <time>2021-09-30T10:48:07Z</time>
      </trkpt>
      <trkpt lat="47.25366" lon="6.10356">
        <ele>533.6</ele>
        <time>2021-09-30T10:48:08Z</time>
      </trkpt>
      <trkpt lat="47.25365" lon="6.10356">
        <ele>533.6</ele>
        <time>2021-09-30T10:48:09Z</time>
      </trkpt>
      <trkpt lat="47.25363" lon="6.10355">
        <ele>533.8</ele>
        <time>2021-09-30T10:48:10Z</time>
      </trkpt>
      <trkpt lat="47.25362" lon="6.10355">
        <ele>534</ele>
        <time>2021-09-30T10:48:11Z</time>
      </trkpt>
      <trkpt lat="47.2536" lon="6.10354">
        <ele>534.4</ele>
        <time>2021-09-30T10:48:12Z</time>
      </trkpt>
      <trkpt lat="47.25358" lon="6.10354">
        <ele>534.4</ele>
        <time>2021-09-30T10:48:13Z</time>
      </trkpt>
      <trkpt lat="47.25357" lon="6.10353">
        <ele>534.6</ele>
        <time>2021-09-30T10:48:14Z</time>
      </trkpt>
      <trkpt lat="47.25355" lon="6.10353">
        <ele>534.8</ele>
        <time>2021-09-30T10:48:15Z</time>
      </trkpt>
      <trkpt lat="47.25354" lon="6.10354">
        <ele>535</ele>
        <time>2021-09-30T10:48:16Z</time>
      </trkpt>
      <trkpt lat="47.25352" lon="6.10354">
        <ele>535.2</ele>
        <time>2021-09-30T10:48:17Z</time>
      </trkpt>
      <trkpt lat="47.2535" lon="6.10355">
        <ele>535.2</ele>
        <time>2021-09-30T10:48:18Z</time>
      </trkpt>
      <trkpt lat="47.25348" lon="6.10355">
        <ele>535.4</ele>
        <time>2021-09-30T10:48:19Z</time>
      </trkpt>
      <trkpt lat="47.25347" lon="6.10355">
        <ele>535.6</ele>
        <time>2021-09-30T10:48:20Z</time>
      </trkpt>
      <trkpt lat="47.25346" lon="6.10355">
        <ele>535.6</ele>
        <time>2021-09-30T10:48:21Z</time>
      </trkpt>
      <trkpt lat="47.25344" lon="6.10355">
        <ele>535.8</ele>
        <time>2021-09-30T10:48:22Z</time>
      </trkpt>
      <trkpt lat="47.25342" lon="6.10355">
        <ele>536</ele>
        <time>2021-09-30T10:48:23Z</time>
      </trkpt>
      <trkpt lat="47.2534" lon="6.10355">
        <ele>536</ele>
        <time>2021-09-30T10:48:24Z</time>
      </trkpt>
      <trkpt lat="47.25339" lon="6.10355">
        <ele>536.4</ele>
        <time>2021-09-30T10:48:25Z</time>
      </trkpt>
      <trkpt lat="47.25336" lon="6.10356">
        <ele>536.6</ele>
        <time>2021-09-30T10:48:26Z</time>
      </trkpt>
      <trkpt lat="47.25334" lon="6.10356">
        <ele>536.6</ele>
        <time>2021-09-30T10:48:27Z</time>
      </trkpt>
      <trkpt lat="47.25332" lon="6.10357">
        <ele>536.8</ele>
        <time>2021-09-30T10:48:28Z</time>
      </trkpt>
      <trkpt lat="47.25331" lon="6.10356">
        <ele>537</ele>
        <time>2021-09-30T10:48:29Z</time>
      </trkpt>
      <trkpt lat="47.25329" lon="6.10356">
        <ele>537.2</ele>
        <time>2021-09-30T10:48:30Z</time>
      </trkpt>
      <trkpt lat="47.25327" lon="6.10357">
        <ele>537.2</ele>
        <time>2021-09-30T10:48:31Z</time>
      </trkpt>
      <trkpt lat="47.25326" lon="6.10357">
        <ele>537.4</ele>
        <time>2021-09-30T10:48:32Z</time>
      </trkpt>
      <trkpt lat="47.25324" lon="6.10358">
        <ele>537.6</ele>
        <time>2021-09-30T10:48:33Z</time>
      </trkpt>
      <trkpt lat="47.25324" lon="6.10358">
        <ele>537.8</ele>
        <time>2021-09-30T10:48:34Z</time>
      </trkpt>
      <trkpt lat="47.25322" lon="6.10359">
        <ele>537.8</ele>
        <time>2021-09-30T10:48:35Z</time>
      </trkpt>
      <trkpt lat="47.2532" lon="6.10359">
        <ele>538</ele>
        <time>2021-09-30T10:48:36Z</time>
      </trkpt>
      <trkpt lat="47.25318" lon="6.10358">
        <ele>538.2</ele>
        <time>2021-09-30T10:48:37Z</time>
      </trkpt>
      <trkpt lat="47.25316" lon="6.10359">
        <ele>538.2</ele>
        <time>2021-09-30T10:48:38Z</time>
      </trkpt>
      <trkpt lat="47.25314" lon="6.1036">
        <ele>538.4</ele>
        <time>2021-09-30T10:48:39Z</time>
      </trkpt>
      <trkpt lat="47.25312" lon="6.10361">
        <ele>538.6</ele>
        <time>2021-09-30T10:48:40Z</time>
      </trkpt>
      <trkpt lat="47.2531" lon="6.10362">
        <ele>538.8</ele>
        <time>2021-09-30T10:48:41Z</time>
      </trkpt>
      <trkpt lat="47.25309" lon="6.10362">
        <ele>538.8</ele>
        <time>2021-09-30T10:48:42Z</time>
      </trkpt>
      <trkpt lat="47.25306" lon="6.10363">
        <ele>539</ele>
        <time>2021-09-30T10:48:43Z</time>
      </trkpt>
      <trkpt lat="47.25304" lon="6.10364">
        <ele>539</ele>
        <time>2021-09-30T10:48:44Z</time>
      </trkpt>
      <trkpt lat="47.25302" lon="6.10364">
        <ele>539.4</ele>
        <time>2021-09-30T10:48:45Z</time>
      </trkpt>
      <trkpt lat="47.25298" lon="6.10365">
        <ele>539.6</ele>
        <time>2021-09-30T10:48:46Z</time>
      </trkpt>
      <trkpt lat="47.25294" lon="6.10367">
        <ele>540</ele>
        <time>2021-09-30T10:48:47Z</time>
      </trkpt>
      <trkpt lat="47.25292" lon="6.10367">
        <ele>540</ele>
        <time>2021-09-30T10:48:48Z</time>
      </trkpt>
      <trkpt lat="47.25291" lon="6.10368">
        <ele>540.2</ele>
        <time>2021-09-30T10:48:49Z</time>
      </trkpt>
      <trkpt lat="47.25287" lon="6.10368">
        <ele>540.4</ele>
        <time>2021-09-30T10:48:50Z</time>
      </trkpt>
      <trkpt lat="47.25286" lon="6.10368">
        <ele>540.6</ele>
        <time>2021-09-30T10:48:51Z</time>
      </trkpt>
      <trkpt lat="47.25285" lon="6.10369">
        <ele>540.8</ele>
        <time>2021-09-30T10:48:52Z</time>
      </trkpt>
      <trkpt lat="47.25284" lon="6.10369">
        <ele>540.8</ele>
        <time>2021-09-30T10:48:53Z</time>
      </trkpt>
      <trkpt lat="47.25283" lon="6.10369">
        <ele>541.2</ele>
        <time>2021-09-30T10:48:54Z</time>
      </trkpt>
      <trkpt lat="47.25281" lon="6.10369">
        <ele>541.2</ele>
        <time>2021-09-30T10:48:55Z</time>
      </trkpt>
      <trkpt lat="47.25279" lon="6.10368">
        <ele>541.2</ele>
        <time>2021-09-30T10:48:56Z</time>
      </trkpt>
      <trkpt lat="47.25278" lon="6.10367">
        <ele>541.4</ele>
        <time>2021-09-30T10:48:57Z</time>
      </trkpt>
      <trkpt lat="47.25276" lon="6.10366">
        <ele>541.6</ele>
        <time>2021-09-30T10:48:58Z</time>
      </trkpt>
      <trkpt lat="47.25275" lon="6.10365">
        <ele>541.6</ele>
        <time>2021-09-30T10:48:59Z</time>
      </trkpt>
      <trkpt lat="47.25274" lon="6.10363">
        <ele>541.8</ele>
        <time>2021-09-30T10:49:00Z</time>
      </trkpt>
      <trkpt lat="47.25273" lon="6.10361">
        <ele>542</ele>
        <time>2021-09-30T10:49:01Z</time>
      </trkpt>
      <trkpt lat="47.25273" lon="6.10359">
        <ele>542</ele>
        <time>2021-09-30T10:49:02Z</time>
      </trkpt>
      <trkpt lat="47.25273" lon="6.10356">
        <ele>542.2</ele>
        <time>2021-09-30T10:49:03Z</time>
      </trkpt>
      <trkpt lat="47.25273" lon="6.10353">
        <ele>542.2</ele>
        <time>2021-09-30T10:49:04Z</time>
      </trkpt>
      <trkpt lat="47.25274" lon="6.10351">
        <ele>542.4</ele>
        <time>2021-09-30T10:49:05Z</time>
      </trkpt>
      <trkpt lat="47.25274" lon="6.1035">
        <ele>542.4</ele>
        <time>2021-09-30T10:49:06Z</time>
      </trkpt>
      <trkpt lat="47.25274" lon="6.10348">
        <ele>542.6</ele>
        <time>2021-09-30T10:49:07Z</time>
      </trkpt>
      <trkpt lat="47.25274" lon="6.10345">
        <ele>542.6</ele>
        <time>2021-09-30T10:49:08Z</time>
      </trkpt>
      <trkpt lat="47.25274" lon="6.10342">
        <ele>543</ele>
        <time>2021-09-30T10:49:09Z</time>
      </trkpt>
      <trkpt lat="47.25274" lon="6.1034">
        <ele>543</ele>
        <time>2021-09-30T10:49:10Z</time>
      </trkpt>
      <trkpt lat="47.25274" lon="6.10338">
        <ele>543.2</ele>
        <time>2021-09-30T10:49:11Z</time>
      </trkpt>
      <trkpt lat="47.25273" lon="6.10335">
        <ele>543.4</ele>
        <time>2021-09-30T10:49:12Z</time>
      </trkpt>
      <trkpt lat="47.25273" lon="6.10333">
        <ele>543.4</ele>
        <time>2021-09-30T10:49:13Z</time>
      </trkpt>
      <trkpt lat="47.25274" lon="6.10331">
        <ele>543.6</ele>
        <time>2021-09-30T10:49:14Z</time>
      </trkpt>
      <trkpt lat="47.25274" lon="6.1033">
        <ele>543.8</ele>
        <time>2021-09-30T10:49:15Z</time>
      </trkpt>
      <trkpt lat="47.25274" lon="6.10329">
        <ele>544</ele>
        <time>2021-09-30T10:49:16Z</time>
      </trkpt>
      <trkpt lat="47.25275" lon="6.10327">
        <ele>544</ele>
        <time>2021-09-30T10:49:17Z</time>
      </trkpt>
      <trkpt lat="47.25275" lon="6.10325">
        <ele>544.2</ele>
        <time>2021-09-30T10:49:18Z</time>
      </trkpt>
      <trkpt lat="47.25275" lon="6.10322">
        <ele>544.4</ele>
        <time>2021-09-30T10:49:19Z</time>
      </trkpt>
      <trkpt lat="47.25275" lon="6.1032">
        <ele>544.6</ele>
        <time>2021-09-30T10:49:20Z</time>
      </trkpt>
      <trkpt lat="47.25275" lon="6.10316">
        <ele>544.8</ele>
        <time>2021-09-30T10:49:21Z</time>
      </trkpt>
      <trkpt lat="47.25275" lon="6.10313">
        <ele>545</ele>
        <time>2021-09-30T10:49:22Z</time>
      </trkpt>
      <trkpt lat="47.25275" lon="6.10309">
        <ele>545</ele>
        <time>2021-09-30T10:49:23Z</time>
      </trkpt>
      <trkpt lat="47.25276" lon="6.10305">
        <ele>545.2</ele>
        <time>2021-09-30T10:49:24Z</time>
      </trkpt>
      <trkpt lat="47.25276" lon="6.10301">
        <ele>545.4</ele>
        <time>2021-09-30T10:49:25Z</time>
      </trkpt>
      <trkpt lat="47.25277" lon="6.10298">
        <ele>545.2</ele>
        <time>2021-09-30T10:49:26Z</time>
      </trkpt>
      <trkpt lat="47.25277" lon="6.10294">
        <ele>545.6</ele>
        <time>2021-09-30T10:49:27Z</time>
      </trkpt>
      <trkpt lat="47.25277" lon="6.1029">
        <ele>545.8</ele>
        <time>2021-09-30T10:49:28Z</time>
      </trkpt>
      <trkpt lat="47.25277" lon="6.10285">
        <ele>546</ele>
        <time>2021-09-30T10:49:29Z</time>
      </trkpt>
      <trkpt lat="47.25276" lon="6.10282">
        <ele>546</ele>
        <time>2021-09-30T10:49:30Z</time>
      </trkpt>
      <trkpt lat="47.25275" lon="6.1028">
        <ele>546.2</ele>
        <time>2021-09-30T10:49:31Z</time>
      </trkpt>
      <trkpt lat="47.25274" lon="6.10275">
        <ele>546.4</ele>
        <time>2021-09-30T10:49:32Z</time>
      </trkpt>
      <trkpt lat="47.25273" lon="6.10272">
        <ele>546.6</ele>
        <time>2021-09-30T10:49:33Z</time>
      </trkpt>
      <trkpt lat="47.25272" lon="6.10269">
        <ele>546.6</ele>
        <time>2021-09-30T10:49:34Z</time>
      </trkpt>
      <trkpt lat="47.2527" lon="6.10265">
        <ele>546.8</ele>
        <time>2021-09-30T10:49:35Z</time>
      </trkpt>
      <trkpt lat="47.25269" lon="6.10261">
        <ele>547.2</ele>
        <time>2021-09-30T10:49:36Z</time>
      </trkpt>
      <trkpt lat="47.25268" lon="6.10259">
        <ele>547.4</ele>
        <time>2021-09-30T10:49:37Z</time>
      </trkpt>
      <trkpt lat="47.25268" lon="6.10257">
        <ele>547.6</ele>
        <time>2021-09-30T10:49:38Z</time>
      </trkpt>
      <trkpt lat="47.25267" lon="6.10255">
        <ele>547.6</ele>
        <time>2021-09-30T10:49:39Z</time>
      </trkpt>
      <trkpt lat="47.25266" lon="6.10253">
        <ele>547.8</ele>
        <time>2021-09-30T10:49:40Z</time>
      </trkpt>
      <trkpt lat="47.25264" lon="6.10252">
        <ele>548</ele>
        <time>2021-09-30T10:49:41Z</time>
      </trkpt>
      <trkpt lat="47.25263" lon="6.10251">
        <ele>548.2</ele>
        <time>2021-09-30T10:49:42Z</time>
      </trkpt>
      <trkpt lat="47.25261" lon="6.1025">
        <ele>548.4</ele>
        <time>2021-09-30T10:49:43Z</time>
      </trkpt>
      <trkpt lat="47.2526" lon="6.10248">
        <ele>548.6</ele>
        <time>2021-09-30T10:49:44Z</time>
      </trkpt>
      <trkpt lat="47.25258" lon="6.10247">
        <ele>548.6</ele>
        <time>2021-09-30T10:49:45Z</time>
      </trkpt>
      <trkpt lat="47.25257" lon="6.10246">
        <ele>548.8</ele>
        <time>2021-09-30T10:49:46Z</time>
      </trkpt>
      <trkpt lat="47.25256" lon="6.10245">
        <ele>549.2</ele>
        <time>2021-09-30T10:49:47Z</time>
      </trkpt>
      <trkpt lat="47.25254" lon="6.10243">
        <ele>549.2</ele>
        <time>2021-09-30T10:49:48Z</time>
      </trkpt>
      <trkpt lat="47.25253" lon="6.10242">
        <ele>549.4</ele>
        <time>2021-09-30T10:49:49Z</time>
      </trkpt>
      <trkpt lat="47.25252" lon="6.10241">
        <ele>549.4</ele>
        <time>2021-09-30T10:49:50Z</time>
      </trkpt>
      <trkpt lat="47.25251" lon="6.1024">
        <ele>549.6</ele>
        <time>2021-09-30T10:49:51Z</time>
      </trkpt>
      <trkpt lat="47.25249" lon="6.10238">
        <ele>549.6</ele>
        <time>2021-09-30T10:49:52Z</time>
      </trkpt>
      <trkpt lat="47.25248" lon="6.10237">
        <ele>550</ele>
        <time>2021-09-30T10:49:53Z</time>
      </trkpt>
      <trkpt lat="47.25246" lon="6.10235">
        <ele>550</ele>
        <time>2021-09-30T10:49:54Z</time>
      </trkpt>
      <trkpt lat="47.25244" lon="6.10234">
        <ele>550.2</ele>
        <time>2021-09-30T10:49:55Z</time>
      </trkpt>
      <trkpt lat="47.25242" lon="6.10233">
        <ele>550.4</ele>
        <time>2021-09-30T10:49:56Z</time>
      </trkpt>
      <trkpt lat="47.25241" lon="6.10232">
        <ele>550.6</ele>
        <time>2021-09-30T10:49:57Z</time>
      </trkpt>
      <trkpt lat="47.2524" lon="6.1023">
        <ele>550.6</ele>
        <time>2021-09-30T10:49:58Z</time>
      </trkpt>
      <trkpt lat="47.25239" lon="6.10229">
        <ele>550.8</ele>
        <time>2021-09-30T10:49:59Z</time>
      </trkpt>
      <trkpt lat="47.25237" lon="6.10229">
        <ele>551</ele>
        <time>2021-09-30T10:50:00Z</time>
      </trkpt>
      <trkpt lat="47.25236" lon="6.10228">
        <ele>551</ele>
        <time>2021-09-30T10:50:01Z</time>
      </trkpt>
      <trkpt lat="47.25234" lon="6.10227">
        <ele>551.2</ele>
        <time>2021-09-30T10:50:02Z</time>
      </trkpt>
      <trkpt lat="47.25232" lon="6.10227">
        <ele>551.4</ele>
        <time>2021-09-30T10:50:03Z</time>
      </trkpt>
      <trkpt lat="47.2523" lon="6.10225">
        <ele>551.6</ele>
        <time>2021-09-30T10:50:04Z</time>
      </trkpt>
      <trkpt lat="47.25229" lon="6.10224">
        <ele>551.8</ele>
        <time>2021-09-30T10:50:05Z</time>
      </trkpt>
      <trkpt lat="47.25227" lon="6.10224">
        <ele>552</ele>
        <time>2021-09-30T10:50:06Z</time>
      </trkpt>
      <trkpt lat="47.25226" lon="6.10222">
        <ele>552</ele>
        <time>2021-09-30T10:50:07Z</time>
      </trkpt>
      <trkpt lat="47.25224" lon="6.10221">
        <ele>552.4</ele>
        <time>2021-09-30T10:50:08Z</time>
      </trkpt>
      <trkpt lat="47.25222" lon="6.10219">
        <ele>552.4</ele>
        <time>2021-09-30T10:50:09Z</time>
      </trkpt>
      <trkpt lat="47.25221" lon="6.10217">
        <ele>552.6</ele>
        <time>2021-09-30T10:50:10Z</time>
      </trkpt>
      <trkpt lat="47.25219" lon="6.10216">
        <ele>553</ele>
        <time>2021-09-30T10:50:11Z</time>
      </trkpt>
      <trkpt lat="47.25217" lon="6.10214">
        <ele>553.2</ele>
        <time>2021-09-30T10:50:12Z</time>
      </trkpt>
      <trkpt lat="47.25215" lon="6.10213">
        <ele>553.4</ele>
        <time>2021-09-30T10:50:13Z</time>
      </trkpt>
      <trkpt lat="47.25213" lon="6.10212">
        <ele>553.6</ele>
        <time>2021-09-30T10:50:14Z</time>
      </trkpt>
      <trkpt lat="47.25212" lon="6.10211">
        <ele>553.8</ele>
        <time>2021-09-30T10:50:15Z</time>
      </trkpt>
      <trkpt lat="47.25211" lon="6.10209">
        <ele>554</ele>
        <time>2021-09-30T10:50:16Z</time>
      </trkpt>
      <trkpt lat="47.25209" lon="6.10208">
        <ele>554.4</ele>
        <time>2021-09-30T10:50:17Z</time>
      </trkpt>
      <trkpt lat="47.25207" lon="6.10207">
        <ele>554.4</ele>
        <time>2021-09-30T10:50:18Z</time>
      </trkpt>
      <trkpt lat="47.25206" lon="6.10207">
        <ele>554.6</ele>
        <time>2021-09-30T10:50:19Z</time>
      </trkpt>
      <trkpt lat="47.25204" lon="6.10206">
        <ele>554.8</ele>
        <time>2021-09-30T10:50:20Z</time>
      </trkpt>
      <trkpt lat="47.25203" lon="6.10205">
        <ele>555</ele>
        <time>2021-09-30T10:50:21Z</time>
      </trkpt>
      <trkpt lat="47.25201" lon="6.10204">
        <ele>555.4</ele>
        <time>2021-09-30T10:50:22Z</time>
      </trkpt>
      <trkpt lat="47.25199" lon="6.10203">
        <ele>555.6</ele>
        <time>2021-09-30T10:50:23Z</time>
      </trkpt>
      <trkpt lat="47.25198" lon="6.10202">
        <ele>555.6</ele>
        <time>2021-09-30T10:50:24Z</time>
      </trkpt>
      <trkpt lat="47.25196" lon="6.10201">
        <ele>555.8</ele>
        <time>2021-09-30T10:50:25Z</time>
      </trkpt>
      <trkpt lat="47.25194" lon="6.10199">
        <ele>556</ele>
        <time>2021-09-30T10:50:26Z</time>
      </trkpt>
      <trkpt lat="47.25192" lon="6.10197">
        <ele>556.2</ele>
        <time>2021-09-30T10:50:27Z</time>
      </trkpt>
      <trkpt lat="47.25191" lon="6.10196">
        <ele>556.4</ele>
        <time>2021-09-30T10:50:28Z</time>
      </trkpt>
      <trkpt lat="47.25189" lon="6.10195">
        <ele>556.4</ele>
        <time>2021-09-30T10:50:29Z</time>
      </trkpt>
      <trkpt lat="47.25187" lon="6.10193">
        <ele>556.6</ele>
        <time>2021-09-30T10:50:30Z</time>
      </trkpt>
      <trkpt lat="47.25186" lon="6.10192">
        <ele>556.6</ele>
        <time>2021-09-30T10:50:31Z</time>
      </trkpt>
      <trkpt lat="47.25184" lon="6.10191">
        <ele>556.8</ele>
        <time>2021-09-30T10:50:32Z</time>
      </trkpt>
      <trkpt lat="47.25183" lon="6.10189">
        <ele>557</ele>
        <time>2021-09-30T10:50:33Z</time>
      </trkpt>
      <trkpt lat="47.25182" lon="6.10188">
        <ele>557.2</ele>
        <time>2021-09-30T10:50:34Z</time>
      </trkpt>
      <trkpt lat="47.2518" lon="6.10187">
        <ele>557.6</ele>
        <time>2021-09-30T10:50:35Z</time>
      </trkpt>
      <trkpt lat="47.25178" lon="6.10186">
        <ele>557.6</ele>
        <time>2021-09-30T10:50:36Z</time>
      </trkpt>
      <trkpt lat="47.25177" lon="6.10185">
        <ele>557.8</ele>
        <time>2021-09-30T10:50:37Z</time>
      </trkpt>
      <trkpt lat="47.25176" lon="6.10184">
        <ele>557.8</ele>
        <time>2021-09-30T10:50:38Z</time>
      </trkpt>
      <trkpt lat="47.25174" lon="6.10182">
        <ele>558</ele>
        <time>2021-09-30T10:50:39Z</time>
      </trkpt>
      <trkpt lat="47.25172" lon="6.1018">
        <ele>558</ele>
        <time>2021-09-30T10:50:40Z</time>
      </trkpt>
      <trkpt lat="47.2517" lon="6.10177">
        <ele>558.2</ele>
        <time>2021-09-30T10:50:41Z</time>
      </trkpt>
      <trkpt lat="47.25169" lon="6.10175">
        <ele>558.4</ele>
        <time>2021-09-30T10:50:42Z</time>
      </trkpt>
      <trkpt lat="47.25167" lon="6.10173">
        <ele>558.6</ele>
        <time>2021-09-30T10:50:43Z</time>
      </trkpt>
      <trkpt lat="47.25165" lon="6.10171">
        <ele>558.6</ele>
        <time>2021-09-30T10:50:44Z</time>
      </trkpt>
      <trkpt lat="47.25164" lon="6.10168">
        <ele>558.8</ele>
        <time>2021-09-30T10:50:45Z</time>
      </trkpt>
      <trkpt lat="47.25163" lon="6.10166">
        <ele>559</ele>
        <time>2021-09-30T10:50:46Z</time>
      </trkpt>
      <trkpt lat="47.25162" lon="6.10165">
        <ele>559.2</ele>
        <time>2021-09-30T10:50:47Z</time>
      </trkpt>
      <trkpt lat="47.25162" lon="6.10164">
        <ele>559.4</ele>
        <time>2021-09-30T10:50:48Z</time>
      </trkpt>
      <trkpt lat="47.2516" lon="6.10162">
        <ele>559.6</ele>
        <time>2021-09-30T10:50:49Z</time>
      </trkpt>
      <trkpt lat="47.25159" lon="6.1016">
        <ele>559.8</ele>
        <time>2021-09-30T10:50:50Z</time>
      </trkpt>
      <trkpt lat="47.25159" lon="6.1016">
        <ele>560</ele>
        <time>2021-09-30T10:50:51Z</time>
      </trkpt>
      <trkpt lat="47.25158" lon="6.10156">
        <ele>560.2</ele>
        <time>2021-09-30T10:50:52Z</time>
      </trkpt>
      <trkpt lat="47.25155" lon="6.10154">
        <ele>560.4</ele>
        <time>2021-09-30T10:50:53Z</time>
      </trkpt>
      <trkpt lat="47.25152" lon="6.10151">
        <ele>560.6</ele>
        <time>2021-09-30T10:50:54Z</time>
      </trkpt>
      <trkpt lat="47.25149" lon="6.10149">
        <ele>560.8</ele>
        <time>2021-09-30T10:50:55Z</time>
      </trkpt>
      <trkpt lat="47.25146" lon="6.10147">
        <ele>561</ele>
        <time>2021-09-30T10:50:56Z</time>
      </trkpt>
      <trkpt lat="47.25144" lon="6.10143">
        <ele>561.2</ele>
        <time>2021-09-30T10:50:57Z</time>
      </trkpt>
      <trkpt lat="47.25142" lon="6.10141">
        <ele>561.2</ele>
        <time>2021-09-30T10:50:58Z</time>
      </trkpt>
      <trkpt lat="47.25142" lon="6.10139">
        <ele>561.6</ele>
        <time>2021-09-30T10:50:59Z</time>
      </trkpt>
      <trkpt lat="47.2514" lon="6.10136">
        <ele>561.8</ele>
        <time>2021-09-30T10:51:00Z</time>
      </trkpt>
      <trkpt lat="47.25138" lon="6.10135">
        <ele>561.8</ele>
        <time>2021-09-30T10:51:01Z</time>
      </trkpt>
      <trkpt lat="47.25135" lon="6.10134">
        <ele>562</ele>
        <time>2021-09-30T10:51:02Z</time>
      </trkpt>
      <trkpt lat="47.25134" lon="6.10133">
        <ele>562.2</ele>
        <time>2021-09-30T10:51:03Z</time>
      </trkpt>
      <trkpt lat="47.25132" lon="6.10133">
        <ele>562.4</ele>
        <time>2021-09-30T10:51:04Z</time>
      </trkpt>
      <trkpt lat="47.2513" lon="6.10132">
        <ele>562.6</ele>
        <time>2021-09-30T10:51:05Z</time>
      </trkpt>
      <trkpt lat="47.25129" lon="6.1013">
        <ele>562.6</ele>
        <time>2021-09-30T10:51:06Z</time>
      </trkpt>
      <trkpt lat="47.25128" lon="6.10131">
        <ele>562.8</ele>
        <time>2021-09-30T10:51:07Z</time>
      </trkpt>
      <trkpt lat="47.25127" lon="6.10131">
        <ele>562.8</ele>
        <time>2021-09-30T10:51:08Z</time>
      </trkpt>
      <trkpt lat="47.25126" lon="6.1013">
        <ele>563</ele>
        <time>2021-09-30T10:51:09Z</time>
      </trkpt>
      <trkpt lat="47.25125" lon="6.1013">
        <ele>563.2</ele>
        <time>2021-09-30T10:51:10Z</time>
      </trkpt>
      <trkpt lat="47.25124" lon="6.10128">
        <ele>563.2</ele>
        <time>2021-09-30T10:51:11Z</time>
      </trkpt>
      <trkpt lat="47.25122" lon="6.10126">
        <ele>563.4</ele>
        <time>2021-09-30T10:51:12Z</time>
      </trkpt>
      <trkpt lat="47.25121" lon="6.10124">
        <ele>563.4</ele>
        <time>2021-09-30T10:51:13Z</time>
      </trkpt>
      <trkpt lat="47.2512" lon="6.10123">
        <ele>563.6</ele>
        <time>2021-09-30T10:51:14Z</time>
      </trkpt>
      <trkpt lat="47.2512" lon="6.10122">
        <ele>563.8</ele>
        <time>2021-09-30T10:51:15Z</time>
      </trkpt>
      <trkpt lat="47.2512" lon="6.1012">
        <ele>563.8</ele>
        <time>2021-09-30T10:51:16Z</time>
      </trkpt>
      <trkpt lat="47.25119" lon="6.10119">
        <ele>563.8</ele>
        <time>2021-09-30T10:51:17Z</time>
      </trkpt>
      <trkpt lat="47.25118" lon="6.10118">
        <ele>564</ele>
        <time>2021-09-30T10:51:18Z</time>
      </trkpt>
      <trkpt lat="47.25118" lon="6.10117">
        <ele>564</ele>
        <time>2021-09-30T10:51:19Z</time>
      </trkpt>
      <trkpt lat="47.25117" lon="6.10117">
        <ele>564.2</ele>
        <time>2021-09-30T10:51:20Z</time>
      </trkpt>
      <trkpt lat="47.25117" lon="6.10117">
        <ele>564.2</ele>
        <time>2021-09-30T10:51:23Z</time>
      </trkpt>
      <trkpt lat="47.25114" lon="6.10111">
        <ele>563.8</ele>
        <time>2021-09-30T10:52:59Z</time>
      </trkpt>
      <trkpt lat="47.25113" lon="6.10109">
        <ele>563.8</ele>
        <time>2021-09-30T10:53:00Z</time>
      </trkpt>
      <trkpt lat="47.25111" lon="6.10106">
        <ele>563.8</ele>
        <time>2021-09-30T10:53:01Z</time>
      </trkpt>
      <trkpt lat="47.2511" lon="6.10104">
        <ele>563.8</ele>
        <time>2021-09-30T10:53:02Z</time>
      </trkpt>
      <trkpt lat="47.25107" lon="6.10098">
        <ele>563.8</ele>
        <time>2021-09-30T10:53:04Z</time>
      </trkpt>
      <trkpt lat="47.25102" lon="6.10089">
        <ele>564</ele>
        <time>2021-09-30T10:53:07Z</time>
      </trkpt>
      <trkpt lat="47.25092" lon="6.10066">
        <ele>564</ele>
        <time>2021-09-30T10:53:14Z</time>
      </trkpt>
      <trkpt lat="47.25082" lon="6.10042">
        <ele>564</ele>
        <time>2021-09-30T10:53:20Z</time>
      </trkpt>
      <trkpt lat="47.2508" lon="6.10037">
        <ele>564</ele>
        <time>2021-09-30T10:53:21Z</time>
      </trkpt>
      <trkpt lat="47.25074" lon="6.1002">
        <ele>563.8</ele>
        <time>2021-09-30T10:53:25Z</time>
      </trkpt>
      <trkpt lat="47.25068" lon="6.10007">
        <ele>563.8</ele>
        <time>2021-09-30T10:53:28Z</time>
      </trkpt>
      <trkpt lat="47.25059" lon="6.09986">
        <ele>563.8</ele>
        <time>2021-09-30T10:53:33Z</time>
      </trkpt>
      <trkpt lat="47.25057" lon="6.09982">
        <ele>563.8</ele>
        <time>2021-09-30T10:53:34Z</time>
      </trkpt>
      <trkpt lat="47.25041" lon="6.09944">
        <ele>563.6</ele>
        <time>2021-09-30T10:53:41Z</time>
      </trkpt>
      <trkpt lat="47.25035" lon="6.09932">
        <ele>563.6</ele>
        <time>2021-09-30T10:53:43Z</time>
      </trkpt>
      <trkpt lat="47.25029" lon="6.09921">
        <ele>563.4</ele>
        <time>2021-09-30T10:53:45Z</time>
      </trkpt>
      <trkpt lat="47.25021" lon="6.09913">
        <ele>563.2</ele>
        <time>2021-09-30T10:53:47Z</time>
      </trkpt>
      <trkpt lat="47.25012" lon="6.09907">
        <ele>563.2</ele>
        <time>2021-09-30T10:53:49Z</time>
      </trkpt>
      <trkpt lat="47.24996" lon="6.09902">
        <ele>563.2</ele>
        <time>2021-09-30T10:53:53Z</time>
      </trkpt>
      <trkpt lat="47.24993" lon="6.09902">
        <ele>563.2</ele>
        <time>2021-09-30T10:53:54Z</time>
      </trkpt>
      <trkpt lat="47.24989" lon="6.099">
        <ele>563.2</ele>
        <time>2021-09-30T10:53:55Z</time>
      </trkpt>
      <trkpt lat="47.24986" lon="6.09899">
        <ele>563.2</ele>
        <time>2021-09-30T10:53:56Z</time>
      </trkpt>
      <trkpt lat="47.24978" lon="6.09895">
        <ele>563.2</ele>
        <time>2021-09-30T10:53:58Z</time>
      </trkpt>
      <trkpt lat="47.24953" lon="6.09872">
        <ele>563.2</ele>
        <time>2021-09-30T10:54:05Z</time>
      </trkpt>
      <trkpt lat="47.24943" lon="6.09857">
        <ele>563.6</ele>
        <time>2021-09-30T10:54:09Z</time>
      </trkpt>
      <trkpt lat="47.24941" lon="6.09852">
        <ele>563.4</ele>
        <time>2021-09-30T10:54:10Z</time>
      </trkpt>
      <trkpt lat="47.24939" lon="6.09848">
        <ele>563.6</ele>
        <time>2021-09-30T10:54:11Z</time>
      </trkpt>
      <trkpt lat="47.24937" lon="6.09843">
        <ele>563.4</ele>
        <time>2021-09-30T10:54:12Z</time>
      </trkpt>
      <trkpt lat="47.24935" lon="6.09839">
        <ele>563.8</ele>
        <time>2021-09-30T10:54:13Z</time>
      </trkpt>
      <trkpt lat="47.24933" lon="6.09835">
        <ele>563.8</ele>
        <time>2021-09-30T10:54:14Z</time>
      </trkpt>
      <trkpt lat="47.24932" lon="6.0983">
        <ele>563.6</ele>
        <time>2021-09-30T10:54:15Z</time>
      </trkpt>
      <trkpt lat="47.24932" lon="6.09825">
        <ele>563.8</ele>
        <time>2021-09-30T10:54:16Z</time>
      </trkpt>
      <trkpt lat="47.24933" lon="6.09822">
        <ele>564</ele>
        <time>2021-09-30T10:54:17Z</time>
      </trkpt>
      <trkpt lat="47.24934" lon="6.0982">
        <ele>563.8</ele>
        <time>2021-09-30T10:54:18Z</time>
      </trkpt>
      <trkpt lat="47.24937" lon="6.09818">
        <ele>563.8</ele>
        <time>2021-09-30T10:54:19Z</time>
      </trkpt>
      <trkpt lat="47.24939" lon="6.09818">
        <ele>564</ele>
        <time>2021-09-30T10:54:20Z</time>
      </trkpt>
      <trkpt lat="47.24942" lon="6.09816">
        <ele>564.2</ele>
        <time>2021-09-30T10:54:21Z</time>
      </trkpt>
      <trkpt lat="47.24947" lon="6.09804">
        <ele>564.6</ele>
        <time>2021-09-30T10:54:25Z</time>
      </trkpt>
      <trkpt lat="47.24948" lon="6.09801">
        <ele>564.8</ele>
        <time>2021-09-30T10:54:26Z</time>
      </trkpt>
      <trkpt lat="47.24948" lon="6.09797">
        <ele>565</ele>
        <time>2021-09-30T10:54:27Z</time>
      </trkpt>
      <trkpt lat="47.24949" lon="6.09793">
        <ele>565.2</ele>
        <time>2021-09-30T10:54:28Z</time>
      </trkpt>
      <trkpt lat="47.24949" lon="6.09785">
        <ele>565.4</ele>
        <time>2021-09-30T10:54:30Z</time>
      </trkpt>
      <trkpt lat="47.2495" lon="6.09774">
        <ele>566</ele>
        <time>2021-09-30T10:54:33Z</time>
      </trkpt>
      <trkpt lat="47.24951" lon="6.09766">
        <ele>566.6</ele>
        <time>2021-09-30T10:54:35Z</time>
      </trkpt>
      <trkpt lat="47.24952" lon="6.09763">
        <ele>566.8</ele>
        <time>2021-09-30T10:54:36Z</time>
      </trkpt>
      <trkpt lat="47.24953" lon="6.0976">
        <ele>567.2</ele>
        <time>2021-09-30T10:54:37Z</time>
      </trkpt>
      <trkpt lat="47.24953" lon="6.09758">
        <ele>567.4</ele>
        <time>2021-09-30T10:54:38Z</time>
      </trkpt>
      <trkpt lat="47.24952" lon="6.09756">
        <ele>567.6</ele>
        <time>2021-09-30T10:54:39Z</time>
      </trkpt>
      <trkpt lat="47.2495" lon="6.09754">
        <ele>567.8</ele>
        <time>2021-09-30T10:54:40Z</time>
      </trkpt>
      <trkpt lat="47.24948" lon="6.09752">
        <ele>567.8</ele>
        <time>2021-09-30T10:54:41Z</time>
      </trkpt>
      <trkpt lat="47.24947" lon="6.09748">
        <ele>568</ele>
        <time>2021-09-30T10:54:42Z</time>
      </trkpt>
      <trkpt lat="47.24946" lon="6.09745">
        <ele>568</ele>
        <time>2021-09-30T10:54:43Z</time>
      </trkpt>
      <trkpt lat="47.24945" lon="6.09741">
        <ele>568.2</ele>
        <time>2021-09-30T10:54:44Z</time>
      </trkpt>
      <trkpt lat="47.24944" lon="6.09738">
        <ele>568.2</ele>
        <time>2021-09-30T10:54:45Z</time>
      </trkpt>
      <trkpt lat="47.24943" lon="6.09735">
        <ele>568.4</ele>
        <time>2021-09-30T10:54:46Z</time>
      </trkpt>
      <trkpt lat="47.24941" lon="6.09732">
        <ele>568.4</ele>
        <time>2021-09-30T10:54:47Z</time>
      </trkpt>
      <trkpt lat="47.2494" lon="6.09729">
        <ele>568.4</ele>
        <time>2021-09-30T10:54:48Z</time>
      </trkpt>
      <trkpt lat="47.24939" lon="6.09725">
        <ele>568.4</ele>
        <time>2021-09-30T10:54:49Z</time>
      </trkpt>
      <trkpt lat="47.24938" lon="6.09722">
        <ele>568.4</ele>
        <time>2021-09-30T10:54:50Z</time>
      </trkpt>
      <trkpt lat="47.24936" lon="6.09718">
        <ele>568.4</ele>
        <time>2021-09-30T10:54:51Z</time>
      </trkpt>
      <trkpt lat="47.24935" lon="6.09715">
        <ele>568.6</ele>
        <time>2021-09-30T10:54:52Z</time>
      </trkpt>
      <trkpt lat="47.24934" lon="6.09711">
        <ele>568.6</ele>
        <time>2021-09-30T10:54:53Z</time>
      </trkpt>
      <trkpt lat="47.24932" lon="6.09707">
        <ele>568.8</ele>
        <time>2021-09-30T10:54:54Z</time>
      </trkpt>
      <trkpt lat="47.24931" lon="6.09704">
        <ele>569</ele>
        <time>2021-09-30T10:54:55Z</time>
      </trkpt>
      <trkpt lat="47.2493" lon="6.097">
        <ele>569</ele>
        <time>2021-09-30T10:54:56Z</time>
      </trkpt>
      <trkpt lat="47.24928" lon="6.09697">
        <ele>569.2</ele>
        <time>2021-09-30T10:54:57Z</time>
      </trkpt>
      <trkpt lat="47.24927" lon="6.09693">
        <ele>569.2</ele>
        <time>2021-09-30T10:54:58Z</time>
      </trkpt>
      <trkpt lat="47.24925" lon="6.09689">
        <ele>569.4</ele>
        <time>2021-09-30T10:54:59Z</time>
      </trkpt>
      <trkpt lat="47.24924" lon="6.09685">
        <ele>569.4</ele>
        <time>2021-09-30T10:55:00Z</time>
      </trkpt>
      <trkpt lat="47.24922" lon="6.09682">
        <ele>569.4</ele>
        <time>2021-09-30T10:55:01Z</time>
      </trkpt>
      <trkpt lat="47.24921" lon="6.09678">
        <ele>569.6</ele>
        <time>2021-09-30T10:55:02Z</time>
      </trkpt>
      <trkpt lat="47.24919" lon="6.09675">
        <ele>569.6</ele>
        <time>2021-09-30T10:55:03Z</time>
      </trkpt>
      <trkpt lat="47.24918" lon="6.09671">
        <ele>569.6</ele>
        <time>2021-09-30T10:55:04Z</time>
      </trkpt>
      <trkpt lat="47.24916" lon="6.09667">
        <ele>569.8</ele>
        <time>2021-09-30T10:55:05Z</time>
      </trkpt>
      <trkpt lat="47.24915" lon="6.09664">
        <ele>569.8</ele>
        <time>2021-09-30T10:55:06Z</time>
      </trkpt>
      <trkpt lat="47.24913" lon="6.0966">
        <ele>569.8</ele>
        <time>2021-09-30T10:55:07Z</time>
      </trkpt>
      <trkpt lat="47.24912" lon="6.09656">
        <ele>569.8</ele>
        <time>2021-09-30T10:55:08Z</time>
      </trkpt>
      <trkpt lat="47.24909" lon="6.09649">
        <ele>570</ele>
        <time>2021-09-30T10:55:10Z</time>
      </trkpt>
      <trkpt lat="47.24906" lon="6.09641">
        <ele>570</ele>
        <time>2021-09-30T10:55:12Z</time>
      </trkpt>
      <trkpt lat="47.24903" lon="6.09634">
        <ele>570.2</ele>
        <time>2021-09-30T10:55:14Z</time>
      </trkpt>
      <trkpt lat="47.24897" lon="6.09618">
        <ele>570.6</ele>
        <time>2021-09-30T10:55:19Z</time>
      </trkpt>
      <trkpt lat="47.24896" lon="6.09615">
        <ele>570.6</ele>
        <time>2021-09-30T10:55:20Z</time>
      </trkpt>
      <trkpt lat="47.24895" lon="6.09612">
        <ele>570.8</ele>
        <time>2021-09-30T10:55:21Z</time>
      </trkpt>
      <trkpt lat="47.24894" lon="6.09608">
        <ele>570.8</ele>
        <time>2021-09-30T10:55:22Z</time>
      </trkpt>
      <trkpt lat="47.24893" lon="6.09605">
        <ele>570.8</ele>
        <time>2021-09-30T10:55:23Z</time>
      </trkpt>
      <trkpt lat="47.24892" lon="6.09601">
        <ele>570.8</ele>
        <time>2021-09-30T10:55:24Z</time>
      </trkpt>
      <trkpt lat="47.24889" lon="6.0959">
        <ele>571.4</ele>
        <time>2021-09-30T10:55:27Z</time>
      </trkpt>
      <trkpt lat="47.24888" lon="6.09587">
        <ele>571.4</ele>
        <time>2021-09-30T10:55:28Z</time>
      </trkpt>
      <trkpt lat="47.24881" lon="6.09563">
        <ele>572.6</ele>
        <time>2021-09-30T10:55:35Z</time>
      </trkpt>
      <trkpt lat="47.24875" lon="6.09541">
        <ele>573.2</ele>
        <time>2021-09-30T10:55:41Z</time>
      </trkpt>
      <trkpt lat="47.24873" lon="6.09535">
        <ele>573.4</ele>
        <time>2021-09-30T10:55:43Z</time>
      </trkpt>
      <trkpt lat="47.24872" lon="6.09527">
        <ele>573.6</ele>
        <time>2021-09-30T10:55:45Z</time>
      </trkpt>
      <trkpt lat="47.24871" lon="6.09524">
        <ele>573.6</ele>
        <time>2021-09-30T10:55:46Z</time>
      </trkpt>
      <trkpt lat="47.24871" lon="6.0952">
        <ele>573.6</ele>
        <time>2021-09-30T10:55:47Z</time>
      </trkpt>
      <trkpt lat="47.2487" lon="6.09517">
        <ele>573.6</ele>
        <time>2021-09-30T10:55:48Z</time>
      </trkpt>
      <trkpt lat="47.2487" lon="6.0951">
        <ele>573.8</ele>
        <time>2021-09-30T10:55:50Z</time>
      </trkpt>
      <trkpt lat="47.2487" lon="6.09507">
        <ele>573.8</ele>
        <time>2021-09-30T10:55:51Z</time>
      </trkpt>
      <trkpt lat="47.24871" lon="6.09503">
        <ele>574</ele>
        <time>2021-09-30T10:55:52Z</time>
      </trkpt>
      <trkpt lat="47.24871" lon="6.095">
        <ele>574</ele>
        <time>2021-09-30T10:55:53Z</time>
      </trkpt>
      <trkpt lat="47.24871" lon="6.09497">
        <ele>574.2</ele>
        <time>2021-09-30T10:55:54Z</time>
      </trkpt>
      <trkpt lat="47.24871" lon="6.09493">
        <ele>574.2</ele>
        <time>2021-09-30T10:55:55Z</time>
      </trkpt>
      <trkpt lat="47.24871" lon="6.09489">
        <ele>574.6</ele>
        <time>2021-09-30T10:55:56Z</time>
      </trkpt>
      <trkpt lat="47.24872" lon="6.09468">
        <ele>575.4</ele>
        <time>2021-09-30T10:56:02Z</time>
      </trkpt>
      <trkpt lat="47.24872" lon="6.09465">
        <ele>575.6</ele>
        <time>2021-09-30T10:56:03Z</time>
      </trkpt>
      <trkpt lat="47.24873" lon="6.09462">
        <ele>575.6</ele>
        <time>2021-09-30T10:56:04Z</time>
      </trkpt>
      <trkpt lat="47.24873" lon="6.09458">
        <ele>575.8</ele>
        <time>2021-09-30T10:56:05Z</time>
      </trkpt>
      <trkpt lat="47.24874" lon="6.09455">
        <ele>575.8</ele>
        <time>2021-09-30T10:56:06Z</time>
      </trkpt>
      <trkpt lat="47.24874" lon="6.09452">
        <ele>576</ele>
        <time>2021-09-30T10:56:07Z</time>
      </trkpt>
      <trkpt lat="47.24875" lon="6.09448">
        <ele>576</ele>
        <time>2021-09-30T10:56:08Z</time>
      </trkpt>
      <trkpt lat="47.24875" lon="6.09445">
        <ele>576</ele>
        <time>2021-09-30T10:56:09Z</time>
      </trkpt>
      <trkpt lat="47.24876" lon="6.09442">
        <ele>576.2</ele>
        <time>2021-09-30T10:56:10Z</time>
      </trkpt>
      <trkpt lat="47.24877" lon="6.09439">
        <ele>576.4</ele>
        <time>2021-09-30T10:56:11Z</time>
      </trkpt>
      <trkpt lat="47.24877" lon="6.09436">
        <ele>576.6</ele>
        <time>2021-09-30T10:56:12Z</time>
      </trkpt>
      <trkpt lat="47.24878" lon="6.09432">
        <ele>576.6</ele>
        <time>2021-09-30T10:56:13Z</time>
      </trkpt>
      <trkpt lat="47.24878" lon="6.0943">
        <ele>576.8</ele>
        <time>2021-09-30T10:56:14Z</time>
      </trkpt>
      <trkpt lat="47.24878" lon="6.09427">
        <ele>576.8</ele>
        <time>2021-09-30T10:56:15Z</time>
      </trkpt>
      <trkpt lat="47.24878" lon="6.09424">
        <ele>577</ele>
        <time>2021-09-30T10:56:16Z</time>
      </trkpt>
      <trkpt lat="47.24878" lon="6.09421">
        <ele>577</ele>
        <time>2021-09-30T10:56:17Z</time>
      </trkpt>
      <trkpt lat="47.24877" lon="6.09418">
        <ele>577</ele>
        <time>2021-09-30T10:56:18Z</time>
      </trkpt>
      <trkpt lat="47.24877" lon="6.09415">
        <ele>577</ele>
        <time>2021-09-30T10:56:19Z</time>
      </trkpt>
      <trkpt lat="47.24876" lon="6.09412">
        <ele>577.2</ele>
        <time>2021-09-30T10:56:20Z</time>
      </trkpt>
      <trkpt lat="47.24875" lon="6.09409">
        <ele>577.2</ele>
        <time>2021-09-30T10:56:21Z</time>
      </trkpt>
      <trkpt lat="47.24874" lon="6.09405">
        <ele>577.4</ele>
        <time>2021-09-30T10:56:22Z</time>
      </trkpt>
      <trkpt lat="47.24872" lon="6.09402">
        <ele>577.4</ele>
        <time>2021-09-30T10:56:23Z</time>
      </trkpt>
      <trkpt lat="47.24871" lon="6.094">
        <ele>577.4</ele>
        <time>2021-09-30T10:56:24Z</time>
      </trkpt>
      <trkpt lat="47.2487" lon="6.09397">
        <ele>577.6</ele>
        <time>2021-09-30T10:56:25Z</time>
      </trkpt>
      <trkpt lat="47.24869" lon="6.09395">
        <ele>577.6</ele>
        <time>2021-09-30T10:56:26Z</time>
      </trkpt>
      <trkpt lat="47.24867" lon="6.09392">
        <ele>577.8</ele>
        <time>2021-09-30T10:56:27Z</time>
      </trkpt>
      <trkpt lat="47.24865" lon="6.09389">
        <ele>577.8</ele>
        <time>2021-09-30T10:56:28Z</time>
      </trkpt>
      <trkpt lat="47.24864" lon="6.09386">
        <ele>578</ele>
        <time>2021-09-30T10:56:29Z</time>
      </trkpt>
      <trkpt lat="47.24863" lon="6.09384">
        <ele>578</ele>
        <time>2021-09-30T10:56:30Z</time>
      </trkpt>
      <trkpt lat="47.24862" lon="6.09381">
        <ele>578</ele>
        <time>2021-09-30T10:56:31Z</time>
      </trkpt>
      <trkpt lat="47.24861" lon="6.09379">
        <ele>578.2</ele>
        <time>2021-09-30T10:56:32Z</time>
      </trkpt>
      <trkpt lat="47.2486" lon="6.09377">
        <ele>578.2</ele>
        <time>2021-09-30T10:56:33Z</time>
      </trkpt>
      <trkpt lat="47.24858" lon="6.09374">
        <ele>578.4</ele>
        <time>2021-09-30T10:56:34Z</time>
      </trkpt>
      <trkpt lat="47.24856" lon="6.09372">
        <ele>578.4</ele>
        <time>2021-09-30T10:56:35Z</time>
      </trkpt>
      <trkpt lat="47.24854" lon="6.09369">
        <ele>578.6</ele>
        <time>2021-09-30T10:56:37Z</time>
      </trkpt>
      <trkpt lat="47.24853" lon="6.09367">
        <ele>579</ele>
        <time>2021-09-30T10:56:38Z</time>
      </trkpt>
      <trkpt lat="47.24852" lon="6.09364">
        <ele>579</ele>
        <time>2021-09-30T10:56:39Z</time>
      </trkpt>
      <trkpt lat="47.24849" lon="6.09361">
        <ele>579.4</ele>
        <time>2021-09-30T10:56:40Z</time>
      </trkpt>
      <trkpt lat="47.24847" lon="6.09358">
        <ele>579.4</ele>
        <time>2021-09-30T10:56:41Z</time>
      </trkpt>
      <trkpt lat="47.2484" lon="6.09348">
        <ele>579.6</ele>
        <time>2021-09-30T10:56:44Z</time>
      </trkpt>
      <trkpt lat="47.24838" lon="6.09344">
        <ele>579.8</ele>
        <time>2021-09-30T10:56:45Z</time>
      </trkpt>
      <trkpt lat="47.24836" lon="6.09341">
        <ele>579.8</ele>
        <time>2021-09-30T10:56:46Z</time>
      </trkpt>
      <trkpt lat="47.24834" lon="6.09338">
        <ele>580</ele>
        <time>2021-09-30T10:56:47Z</time>
      </trkpt>
      <trkpt lat="47.24832" lon="6.09335">
        <ele>580</ele>
        <time>2021-09-30T10:56:48Z</time>
      </trkpt>
      <trkpt lat="47.24831" lon="6.09332">
        <ele>580.2</ele>
        <time>2021-09-30T10:56:49Z</time>
      </trkpt>
      <trkpt lat="47.2483" lon="6.09329">
        <ele>580.2</ele>
        <time>2021-09-30T10:56:50Z</time>
      </trkpt>
      <trkpt lat="47.2483" lon="6.09324">
        <ele>580.4</ele>
        <time>2021-09-30T10:56:51Z</time>
      </trkpt>
      <trkpt lat="47.2483" lon="6.0932">
        <ele>580.4</ele>
        <time>2021-09-30T10:56:52Z</time>
      </trkpt>
      <trkpt lat="47.24831" lon="6.09316">
        <ele>580.6</ele>
        <time>2021-09-30T10:56:53Z</time>
      </trkpt>
      <trkpt lat="47.24831" lon="6.09313">
        <ele>580.8</ele>
        <time>2021-09-30T10:56:54Z</time>
      </trkpt>
      <trkpt lat="47.24831" lon="6.0931">
        <ele>581</ele>
        <time>2021-09-30T10:56:55Z</time>
      </trkpt>
      <trkpt lat="47.24831" lon="6.09308">
        <ele>581.2</ele>
        <time>2021-09-30T10:56:56Z</time>
      </trkpt>
      <trkpt lat="47.24832" lon="6.09305">
        <ele>581.2</ele>
        <time>2021-09-30T10:56:57Z</time>
      </trkpt>
      <trkpt lat="47.24832" lon="6.09301">
        <ele>581.6</ele>
        <time>2021-09-30T10:56:58Z</time>
      </trkpt>
      <trkpt lat="47.24832" lon="6.09298">
        <ele>581.6</ele>
        <time>2021-09-30T10:56:59Z</time>
      </trkpt>
      <trkpt lat="47.24833" lon="6.09294">
        <ele>581.8</ele>
        <time>2021-09-30T10:57:00Z</time>
      </trkpt>
      <trkpt lat="47.24833" lon="6.09291">
        <ele>582</ele>
        <time>2021-09-30T10:57:01Z</time>
      </trkpt>
      <trkpt lat="47.24833" lon="6.09289">
        <ele>582.2</ele>
        <time>2021-09-30T10:57:02Z</time>
      </trkpt>
      <trkpt lat="47.24831" lon="6.09287">
        <ele>582.2</ele>
        <time>2021-09-30T10:57:03Z</time>
      </trkpt>
      <trkpt lat="47.2483" lon="6.09286">
        <ele>582.6</ele>
        <time>2021-09-30T10:57:04Z</time>
      </trkpt>
      <trkpt lat="47.24829" lon="6.09286">
        <ele>582.8</ele>
        <time>2021-09-30T10:57:05Z</time>
      </trkpt>
      <trkpt lat="47.24827" lon="6.09286">
        <ele>583</ele>
        <time>2021-09-30T10:57:06Z</time>
      </trkpt>
      <trkpt lat="47.24825" lon="6.09288">
        <ele>583.4</ele>
        <time>2021-09-30T10:57:07Z</time>
      </trkpt>
      <trkpt lat="47.24824" lon="6.09288">
        <ele>583.6</ele>
        <time>2021-09-30T10:57:08Z</time>
      </trkpt>
      <trkpt lat="47.24822" lon="6.0929">
        <ele>584</ele>
        <time>2021-09-30T10:57:09Z</time>
      </trkpt>
      <trkpt lat="47.2482" lon="6.09291">
        <ele>584</ele>
        <time>2021-09-30T10:57:10Z</time>
      </trkpt>
      <trkpt lat="47.24818" lon="6.09292">
        <ele>584.2</ele>
        <time>2021-09-30T10:57:11Z</time>
      </trkpt>
      <trkpt lat="47.24817" lon="6.09293">
        <ele>584.4</ele>
        <time>2021-09-30T10:57:12Z</time>
      </trkpt>
      <trkpt lat="47.24815" lon="6.09294">
        <ele>584.6</ele>
        <time>2021-09-30T10:57:13Z</time>
      </trkpt>
      <trkpt lat="47.24813" lon="6.09295">
        <ele>584.8</ele>
        <time>2021-09-30T10:57:14Z</time>
      </trkpt>
      <trkpt lat="47.24812" lon="6.09296">
        <ele>584.8</ele>
        <time>2021-09-30T10:57:15Z</time>
      </trkpt>
      <trkpt lat="47.2481" lon="6.09297">
        <ele>585</ele>
        <time>2021-09-30T10:57:16Z</time>
      </trkpt>
      <trkpt lat="47.24808" lon="6.09297">
        <ele>585</ele>
        <time>2021-09-30T10:57:17Z</time>
      </trkpt>
      <trkpt lat="47.24805" lon="6.09299">
        <ele>585</ele>
        <time>2021-09-30T10:57:18Z</time>
      </trkpt>
      <trkpt lat="47.24802" lon="6.093">
        <ele>585.4</ele>
        <time>2021-09-30T10:57:19Z</time>
      </trkpt>
      <trkpt lat="47.248" lon="6.093">
        <ele>585.4</ele>
        <time>2021-09-30T10:57:20Z</time>
      </trkpt>
      <trkpt lat="47.24797" lon="6.09301">
        <ele>585.4</ele>
        <time>2021-09-30T10:57:21Z</time>
      </trkpt>
      <trkpt lat="47.24794" lon="6.09303">
        <ele>585.6</ele>
        <time>2021-09-30T10:57:22Z</time>
      </trkpt>
      <trkpt lat="47.2479" lon="6.09303">
        <ele>585.6</ele>
        <time>2021-09-30T10:57:23Z</time>
      </trkpt>
      <trkpt lat="47.24787" lon="6.09303">
        <ele>585.6</ele>
        <time>2021-09-30T10:57:24Z</time>
      </trkpt>
      <trkpt lat="47.24784" lon="6.09303">
        <ele>585.6</ele>
        <time>2021-09-30T10:57:25Z</time>
      </trkpt>
      <trkpt lat="47.24781" lon="6.09303">
        <ele>585.8</ele>
        <time>2021-09-30T10:57:26Z</time>
      </trkpt>
      <trkpt lat="47.24778" lon="6.09303">
        <ele>585.8</ele>
        <time>2021-09-30T10:57:27Z</time>
      </trkpt>
      <trkpt lat="47.24775" lon="6.09305">
        <ele>585.8</ele>
        <time>2021-09-30T10:57:28Z</time>
      </trkpt>
      <trkpt lat="47.24772" lon="6.09305">
        <ele>586</ele>
        <time>2021-09-30T10:57:29Z</time>
      </trkpt>
      <trkpt lat="47.24769" lon="6.09307">
        <ele>586</ele>
        <time>2021-09-30T10:57:30Z</time>
      </trkpt>
      <trkpt lat="47.24766" lon="6.09308">
        <ele>586</ele>
        <time>2021-09-30T10:57:31Z</time>
      </trkpt>
      <trkpt lat="47.24762" lon="6.09307">
        <ele>586</ele>
        <time>2021-09-30T10:57:32Z</time>
      </trkpt>
      <trkpt lat="47.2476" lon="6.09307">
        <ele>586.2</ele>
        <time>2021-09-30T10:57:33Z</time>
      </trkpt>
      <trkpt lat="47.24758" lon="6.09306">
        <ele>586.2</ele>
        <time>2021-09-30T10:57:34Z</time>
      </trkpt>
      <trkpt lat="47.24756" lon="6.09305">
        <ele>586.4</ele>
        <time>2021-09-30T10:57:35Z</time>
      </trkpt>
      <trkpt lat="47.24754" lon="6.09306">
        <ele>586.6</ele>
        <time>2021-09-30T10:57:36Z</time>
      </trkpt>
      <trkpt lat="47.24751" lon="6.09306">
        <ele>586.6</ele>
        <time>2021-09-30T10:57:37Z</time>
      </trkpt>
      <trkpt lat="47.24744" lon="6.09306">
        <ele>587</ele>
        <time>2021-09-30T10:57:39Z</time>
      </trkpt>
      <trkpt lat="47.2474" lon="6.09306">
        <ele>587.2</ele>
        <time>2021-09-30T10:57:40Z</time>
      </trkpt>
      <trkpt lat="47.24722" lon="6.09299">
        <ele>587.8</ele>
        <time>2021-09-30T10:57:46Z</time>
      </trkpt>
      <trkpt lat="47.2472" lon="6.09296">
        <ele>588</ele>
        <time>2021-09-30T10:57:47Z</time>
      </trkpt>
      <trkpt lat="47.24717" lon="6.09294">
        <ele>588</ele>
        <time>2021-09-30T10:57:48Z</time>
      </trkpt>
      <trkpt lat="47.24715" lon="6.09291">
        <ele>588.4</ele>
        <time>2021-09-30T10:57:49Z</time>
      </trkpt>
      <trkpt lat="47.24713" lon="6.0929">
        <ele>588.4</ele>
        <time>2021-09-30T10:57:50Z</time>
      </trkpt>
      <trkpt lat="47.2471" lon="6.09287">
        <ele>588.6</ele>
        <time>2021-09-30T10:57:51Z</time>
      </trkpt>
      <trkpt lat="47.24708" lon="6.09285">
        <ele>588.6</ele>
        <time>2021-09-30T10:57:52Z</time>
      </trkpt>
      <trkpt lat="47.24706" lon="6.09282">
        <ele>588.8</ele>
        <time>2021-09-30T10:57:53Z</time>
      </trkpt>
      <trkpt lat="47.24704" lon="6.09279">
        <ele>588.8</ele>
        <time>2021-09-30T10:57:54Z</time>
      </trkpt>
      <trkpt lat="47.24702" lon="6.09276">
        <ele>589</ele>
        <time>2021-09-30T10:57:55Z</time>
      </trkpt>
      <trkpt lat="47.247" lon="6.09273">
        <ele>589</ele>
        <time>2021-09-30T10:57:56Z</time>
      </trkpt>
      <trkpt lat="47.24697" lon="6.09271">
        <ele>589.2</ele>
        <time>2021-09-30T10:57:57Z</time>
      </trkpt>
      <trkpt lat="47.24694" lon="6.09269">
        <ele>589.2</ele>
        <time>2021-09-30T10:57:58Z</time>
      </trkpt>
      <trkpt lat="47.24692" lon="6.09267">
        <ele>589.4</ele>
        <time>2021-09-30T10:57:59Z</time>
      </trkpt>
      <trkpt lat="47.2469" lon="6.09264">
        <ele>589.4</ele>
        <time>2021-09-30T10:58:00Z</time>
      </trkpt>
      <trkpt lat="47.24688" lon="6.09262">
        <ele>589.4</ele>
        <time>2021-09-30T10:58:01Z</time>
      </trkpt>
      <trkpt lat="47.24686" lon="6.0926">
        <ele>589.6</ele>
        <time>2021-09-30T10:58:02Z</time>
      </trkpt>
      <trkpt lat="47.24684" lon="6.09258">
        <ele>589.8</ele>
        <time>2021-09-30T10:58:03Z</time>
      </trkpt>
      <trkpt lat="47.24681" lon="6.09255">
        <ele>590</ele>
        <time>2021-09-30T10:58:04Z</time>
      </trkpt>
      <trkpt lat="47.24679" lon="6.09253">
        <ele>590</ele>
        <time>2021-09-30T10:58:05Z</time>
      </trkpt>
      <trkpt lat="47.24676" lon="6.0925">
        <ele>590.2</ele>
        <time>2021-09-30T10:58:06Z</time>
      </trkpt>
      <trkpt lat="47.24674" lon="6.09248">
        <ele>590.2</ele>
        <time>2021-09-30T10:58:07Z</time>
      </trkpt>
      <trkpt lat="47.24671" lon="6.09246">
        <ele>590.4</ele>
        <time>2021-09-30T10:58:08Z</time>
      </trkpt>
      <trkpt lat="47.2467" lon="6.09244">
        <ele>590.4</ele>
        <time>2021-09-30T10:58:09Z</time>
      </trkpt>
      <trkpt lat="47.24668" lon="6.09241">
        <ele>590.6</ele>
        <time>2021-09-30T10:58:10Z</time>
      </trkpt>
      <trkpt lat="47.24666" lon="6.09238">
        <ele>590.8</ele>
        <time>2021-09-30T10:58:11Z</time>
      </trkpt>
      <trkpt lat="47.24664" lon="6.09235">
        <ele>591</ele>
        <time>2021-09-30T10:58:12Z</time>
      </trkpt>
      <trkpt lat="47.24662" lon="6.09231">
        <ele>591.2</ele>
        <time>2021-09-30T10:58:13Z</time>
      </trkpt>
      <trkpt lat="47.2466" lon="6.09228">
        <ele>591.2</ele>
        <time>2021-09-30T10:58:14Z</time>
      </trkpt>
      <trkpt lat="47.24657" lon="6.09224">
        <ele>591.2</ele>
        <time>2021-09-30T10:58:15Z</time>
      </trkpt>
      <trkpt lat="47.24653" lon="6.0922">
        <ele>591.4</ele>
        <time>2021-09-30T10:58:16Z</time>
      </trkpt>
      <trkpt lat="47.24651" lon="6.09217">
        <ele>591.4</ele>
        <time>2021-09-30T10:58:17Z</time>
      </trkpt>
      <trkpt lat="47.24647" lon="6.09213">
        <ele>591.6</ele>
        <time>2021-09-30T10:58:18Z</time>
      </trkpt>
      <trkpt lat="47.24644" lon="6.09209">
        <ele>591.8</ele>
        <time>2021-09-30T10:58:19Z</time>
      </trkpt>
      <trkpt lat="47.24642" lon="6.09206">
        <ele>592</ele>
        <time>2021-09-30T10:58:20Z</time>
      </trkpt>
      <trkpt lat="47.24639" lon="6.09202">
        <ele>592</ele>
        <time>2021-09-30T10:58:21Z</time>
      </trkpt>
      <trkpt lat="47.24637" lon="6.09199">
        <ele>592.2</ele>
        <time>2021-09-30T10:58:22Z</time>
      </trkpt>
      <trkpt lat="47.24635" lon="6.09195">
        <ele>592.2</ele>
        <time>2021-09-30T10:58:23Z</time>
      </trkpt>
      <trkpt lat="47.24633" lon="6.09192">
        <ele>592.4</ele>
        <time>2021-09-30T10:58:24Z</time>
      </trkpt>
      <trkpt lat="47.24631" lon="6.09189">
        <ele>592.4</ele>
        <time>2021-09-30T10:58:25Z</time>
      </trkpt>
      <trkpt lat="47.24629" lon="6.09186">
        <ele>592.6</ele>
        <time>2021-09-30T10:58:26Z</time>
      </trkpt>
      <trkpt lat="47.24627" lon="6.09183">
        <ele>592.6</ele>
        <time>2021-09-30T10:58:27Z</time>
      </trkpt>
      <trkpt lat="47.24625" lon="6.0918">
        <ele>592.8</ele>
        <time>2021-09-30T10:58:28Z</time>
      </trkpt>
      <trkpt lat="47.24623" lon="6.09176">
        <ele>592.8</ele>
        <time>2021-09-30T10:58:29Z</time>
      </trkpt>
      <trkpt lat="47.24622" lon="6.09173">
        <ele>592.8</ele>
        <time>2021-09-30T10:58:30Z</time>
      </trkpt>
      <trkpt lat="47.24619" lon="6.0917">
        <ele>593</ele>
        <time>2021-09-30T10:58:31Z</time>
      </trkpt>
      <trkpt lat="47.24618" lon="6.09167">
        <ele>593</ele>
        <time>2021-09-30T10:58:32Z</time>
      </trkpt>
      <trkpt lat="47.24616" lon="6.09164">
        <ele>593.2</ele>
        <time>2021-09-30T10:58:33Z</time>
      </trkpt>
      <trkpt lat="47.24613" lon="6.09161">
        <ele>593.2</ele>
        <time>2021-09-30T10:58:34Z</time>
      </trkpt>
      <trkpt lat="47.24611" lon="6.09158">
        <ele>593.4</ele>
        <time>2021-09-30T10:58:35Z</time>
      </trkpt>
      <trkpt lat="47.24609" lon="6.09154">
        <ele>593.6</ele>
        <time>2021-09-30T10:58:36Z</time>
      </trkpt>
      <trkpt lat="47.24607" lon="6.09151">
        <ele>593.6</ele>
        <time>2021-09-30T10:58:37Z</time>
      </trkpt>
      <trkpt lat="47.24605" lon="6.09148">
        <ele>593.8</ele>
        <time>2021-09-30T10:58:38Z</time>
      </trkpt>
      <trkpt lat="47.24604" lon="6.09144">
        <ele>593.8</ele>
        <time>2021-09-30T10:58:39Z</time>
      </trkpt>
      <trkpt lat="47.24602" lon="6.0914">
        <ele>594</ele>
        <time>2021-09-30T10:58:40Z</time>
      </trkpt>
      <trkpt lat="47.246" lon="6.09137">
        <ele>594</ele>
        <time>2021-09-30T10:58:41Z</time>
      </trkpt>
      <trkpt lat="47.24598" lon="6.09133">
        <ele>594.2</ele>
        <time>2021-09-30T10:58:42Z</time>
      </trkpt>
      <trkpt lat="47.24597" lon="6.09129">
        <ele>594.2</ele>
        <time>2021-09-30T10:58:43Z</time>
      </trkpt>
      <trkpt lat="47.24595" lon="6.09126">
        <ele>594.2</ele>
        <time>2021-09-30T10:58:44Z</time>
      </trkpt>
      <trkpt lat="47.24594" lon="6.09122">
        <ele>594.2</ele>
        <time>2021-09-30T10:58:45Z</time>
      </trkpt>
      <trkpt lat="47.24592" lon="6.09118">
        <ele>594.4</ele>
        <time>2021-09-30T10:58:46Z</time>
      </trkpt>
      <trkpt lat="47.24591" lon="6.09114">
        <ele>594.4</ele>
        <time>2021-09-30T10:58:47Z</time>
      </trkpt>
      <trkpt lat="47.24589" lon="6.0911">
        <ele>594.6</ele>
        <time>2021-09-30T10:58:48Z</time>
      </trkpt>
      <trkpt lat="47.24588" lon="6.09107">
        <ele>594.8</ele>
        <time>2021-09-30T10:58:49Z</time>
      </trkpt>
      <trkpt lat="47.24586" lon="6.09104">
        <ele>594.8</ele>
        <time>2021-09-30T10:58:50Z</time>
      </trkpt>
      <trkpt lat="47.24585" lon="6.091">
        <ele>595</ele>
        <time>2021-09-30T10:58:51Z</time>
      </trkpt>
      <trkpt lat="47.24584" lon="6.09096">
        <ele>595</ele>
        <time>2021-09-30T10:58:52Z</time>
      </trkpt>
      <trkpt lat="47.24583" lon="6.09093">
        <ele>595.2</ele>
        <time>2021-09-30T10:58:53Z</time>
      </trkpt>
      <trkpt lat="47.24582" lon="6.0909">
        <ele>595.4</ele>
        <time>2021-09-30T10:58:54Z</time>
      </trkpt>
      <trkpt lat="47.24581" lon="6.09087">
        <ele>595.6</ele>
        <time>2021-09-30T10:58:55Z</time>
      </trkpt>
      <trkpt lat="47.24579" lon="6.09084">
        <ele>595.8</ele>
        <time>2021-09-30T10:58:56Z</time>
      </trkpt>
      <trkpt lat="47.24578" lon="6.09082">
        <ele>596</ele>
        <time>2021-09-30T10:58:57Z</time>
      </trkpt>
      <trkpt lat="47.24577" lon="6.0908">
        <ele>596.2</ele>
        <time>2021-09-30T10:58:58Z</time>
      </trkpt>
      <trkpt lat="47.24577" lon="6.09078">
        <ele>596.2</ele>
        <time>2021-09-30T10:58:59Z</time>
      </trkpt>
      <trkpt lat="47.24576" lon="6.09075">
        <ele>596.4</ele>
        <time>2021-09-30T10:59:00Z</time>
      </trkpt>
      <trkpt lat="47.24575" lon="6.09073">
        <ele>596.4</ele>
        <time>2021-09-30T10:59:01Z</time>
      </trkpt>
      <trkpt lat="47.24574" lon="6.0907">
        <ele>596.4</ele>
        <time>2021-09-30T10:59:02Z</time>
      </trkpt>
      <trkpt lat="47.24574" lon="6.0907">
        <ele>596.6</ele>
        <time>2021-09-30T10:59:03Z</time>
      </trkpt>
      <trkpt lat="47.24574" lon="6.0907">
        <ele>596.8</ele>
        <time>2021-09-30T10:59:05Z</time>
      </trkpt>
      <trkpt lat="47.24574" lon="6.0907">
        <ele>597.2</ele>
        <time>2021-09-30T10:59:17Z</time>
      </trkpt>
      <trkpt lat="47.24571" lon="6.09063">
        <ele>597.2</ele>
        <time>2021-09-30T10:59:21Z</time>
      </trkpt>
      <trkpt lat="47.2457" lon="6.09061">
        <ele>597.2</ele>
        <time>2021-09-30T10:59:22Z</time>
      </trkpt>
      <trkpt lat="47.24565" lon="6.09048">
        <ele>597.2</ele>
        <time>2021-09-30T10:59:27Z</time>
      </trkpt>
      <trkpt lat="47.24559" lon="6.09033">
        <ele>597.6</ele>
        <time>2021-09-30T10:59:32Z</time>
      </trkpt>
      <trkpt lat="47.24555" lon="6.09023">
        <ele>598.2</ele>
        <time>2021-09-30T10:59:35Z</time>
      </trkpt>
      <trkpt lat="47.24546" lon="6.08996">
        <ele>598.6</ele>
        <time>2021-09-30T10:59:43Z</time>
      </trkpt>
      <trkpt lat="47.24545" lon="6.08993">
        <ele>598.8</ele>
        <time>2021-09-30T10:59:44Z</time>
      </trkpt>
      <trkpt lat="47.24536" lon="6.08971">
        <ele>599.4</ele>
        <time>2021-09-30T10:59:51Z</time>
      </trkpt>
      <trkpt lat="47.24531" lon="6.08956">
        <ele>599.8</ele>
        <time>2021-09-30T10:59:55Z</time>
      </trkpt>
      <trkpt lat="47.24527" lon="6.08943">
        <ele>600.2</ele>
        <time>2021-09-30T10:59:59Z</time>
      </trkpt>
      <trkpt lat="47.24522" lon="6.08932">
        <ele>600.8</ele>
        <time>2021-09-30T11:00:02Z</time>
      </trkpt>
      <trkpt lat="47.24517" lon="6.08917">
        <ele>601.4</ele>
        <time>2021-09-30T11:00:06Z</time>
      </trkpt>
      <trkpt lat="47.24515" lon="6.08912">
        <ele>601.4</ele>
        <time>2021-09-30T11:00:07Z</time>
      </trkpt>
      <trkpt lat="47.24513" lon="6.08909">
        <ele>601.4</ele>
        <time>2021-09-30T11:00:08Z</time>
      </trkpt>
      <trkpt lat="47.24512" lon="6.08904">
        <ele>601.4</ele>
        <time>2021-09-30T11:00:09Z</time>
      </trkpt>
      <trkpt lat="47.24511" lon="6.089">
        <ele>601.6</ele>
        <time>2021-09-30T11:00:10Z</time>
      </trkpt>
      <trkpt lat="47.24509" lon="6.08896">
        <ele>601.4</ele>
        <time>2021-09-30T11:00:11Z</time>
      </trkpt>
      <trkpt lat="47.24508" lon="6.08892">
        <ele>601.4</ele>
        <time>2021-09-30T11:00:12Z</time>
      </trkpt>
      <trkpt lat="47.24506" lon="6.08888">
        <ele>601.6</ele>
        <time>2021-09-30T11:00:13Z</time>
      </trkpt>
      <trkpt lat="47.24505" lon="6.08884">
        <ele>601.6</ele>
        <time>2021-09-30T11:00:14Z</time>
      </trkpt>
      <trkpt lat="47.24503" lon="6.08881">
        <ele>601.6</ele>
        <time>2021-09-30T11:00:15Z</time>
      </trkpt>
      <trkpt lat="47.24501" lon="6.08877">
        <ele>601.6</ele>
        <time>2021-09-30T11:00:16Z</time>
      </trkpt>
      <trkpt lat="47.24499" lon="6.08871">
        <ele>601.6</ele>
        <time>2021-09-30T11:00:18Z</time>
      </trkpt>
      <trkpt lat="47.24498" lon="6.08868">
        <ele>601.6</ele>
        <time>2021-09-30T11:00:19Z</time>
      </trkpt>
      <trkpt lat="47.24497" lon="6.08865">
        <ele>601.8</ele>
        <time>2021-09-30T11:00:20Z</time>
      </trkpt>
      <trkpt lat="47.24496" lon="6.08862">
        <ele>602</ele>
        <time>2021-09-30T11:00:21Z</time>
      </trkpt>
      <trkpt lat="47.24493" lon="6.08855">
        <ele>602.4</ele>
        <time>2021-09-30T11:00:24Z</time>
      </trkpt>
      <trkpt lat="47.24491" lon="6.08853">
        <ele>602.4</ele>
        <time>2021-09-30T11:00:25Z</time>
      </trkpt>
      <trkpt lat="47.24489" lon="6.08851">
        <ele>602.6</ele>
        <time>2021-09-30T11:00:26Z</time>
      </trkpt>
      <trkpt lat="47.24487" lon="6.08848">
        <ele>602.6</ele>
        <time>2021-09-30T11:00:27Z</time>
      </trkpt>
      <trkpt lat="47.2448" lon="6.0884">
        <ele>602.6</ele>
        <time>2021-09-30T11:00:29Z</time>
      </trkpt>
      <trkpt lat="47.24465" lon="6.08821">
        <ele>602.6</ele>
        <time>2021-09-30T11:00:33Z</time>
      </trkpt>
      <trkpt lat="47.24458" lon="6.0881">
        <ele>601.8</ele>
        <time>2021-09-30T11:00:35Z</time>
      </trkpt>
      <trkpt lat="47.24455" lon="6.08805">
        <ele>601.8</ele>
        <time>2021-09-30T11:00:36Z</time>
      </trkpt>
      <trkpt lat="47.24452" lon="6.08801">
        <ele>601.6</ele>
        <time>2021-09-30T11:00:37Z</time>
      </trkpt>
      <trkpt lat="47.24451" lon="6.08799">
        <ele>601.4</ele>
        <time>2021-09-30T11:00:38Z</time>
      </trkpt>
      <trkpt lat="47.24451" lon="6.08796">
        <ele>601.4</ele>
        <time>2021-09-30T11:00:39Z</time>
      </trkpt>
      <trkpt lat="47.2445" lon="6.08795">
        <ele>601.4</ele>
        <time>2021-09-30T11:00:40Z</time>
      </trkpt>
      <trkpt lat="47.2445" lon="6.08795">
        <ele>601.2</ele>
        <time>2021-09-30T11:00:43Z</time>
      </trkpt>
      <trkpt lat="47.24451" lon="6.08796">
        <ele>601</ele>
        <time>2021-09-30T11:00:48Z</time>
      </trkpt>
      <trkpt lat="47.24451" lon="6.08796">
        <ele>601</ele>
        <time>2021-09-30T11:00:49Z</time>
      </trkpt>
      <trkpt lat="47.24451" lon="6.08796">
        <ele>601</ele>
        <time>2021-09-30T11:00:52Z</time>
      </trkpt>
      <trkpt lat="47.24453" lon="6.08794">
        <ele>600.8</ele>
        <time>2021-09-30T11:00:59Z</time>
      </trkpt>
      <trkpt lat="47.24453" lon="6.08793">
        <ele>600.8</ele>
        <time>2021-09-30T11:01:00Z</time>
      </trkpt>
      <trkpt lat="47.24454" lon="6.08791">
        <ele>600.8</ele>
        <time>2021-09-30T11:01:01Z</time>
      </trkpt>
      <trkpt lat="47.24454" lon="6.0879">
        <ele>600.8</ele>
        <time>2021-09-30T11:01:02Z</time>
      </trkpt>
      <trkpt lat="47.24454" lon="6.08786">
        <ele>601.2</ele>
        <time>2021-09-30T11:01:04Z</time>
      </trkpt>
      <trkpt lat="47.24455" lon="6.08785">
        <ele>601.4</ele>
        <time>2021-09-30T11:01:05Z</time>
      </trkpt>
      <trkpt lat="47.24455" lon="6.08781">
        <ele>601.8</ele>
        <time>2021-09-30T11:01:07Z</time>
      </trkpt>
      <trkpt lat="47.24456" lon="6.0878">
        <ele>602</ele>
        <time>2021-09-30T11:01:08Z</time>
      </trkpt>
      <trkpt lat="47.24456" lon="6.08775">
        <ele>602.4</ele>
        <time>2021-09-30T11:01:11Z</time>
      </trkpt>
      <trkpt lat="47.24457" lon="6.0877">
        <ele>602.8</ele>
        <time>2021-09-30T11:01:13Z</time>
      </trkpt>
      <trkpt lat="47.24457" lon="6.08769">
        <ele>603</ele>
        <time>2021-09-30T11:01:14Z</time>
      </trkpt>
      <trkpt lat="47.24457" lon="6.08768">
        <ele>603</ele>
        <time>2021-09-30T11:01:15Z</time>
      </trkpt>
      <trkpt lat="47.24457" lon="6.08768">
        <ele>603.6</ele>
        <time>2021-09-30T11:01:17Z</time>
      </trkpt>
      <trkpt lat="47.24458" lon="6.08765">
        <ele>604</ele>
        <time>2021-09-30T11:01:21Z</time>
      </trkpt>
      <trkpt lat="47.24459" lon="6.08764">
        <ele>604</ele>
        <time>2021-09-30T11:01:22Z</time>
      </trkpt>
      <trkpt lat="47.24459" lon="6.08762">
        <ele>604.2</ele>
        <time>2021-09-30T11:01:23Z</time>
      </trkpt>
      <trkpt lat="47.2446" lon="6.0876">
        <ele>604.2</ele>
        <time>2021-09-30T11:01:24Z</time>
      </trkpt>
      <trkpt lat="47.2446" lon="6.08756">
        <ele>604.2</ele>
        <time>2021-09-30T11:01:25Z</time>
      </trkpt>
      <trkpt lat="47.2446" lon="6.08754">
        <ele>604.2</ele>
        <time>2021-09-30T11:01:26Z</time>
      </trkpt>
      <trkpt lat="47.24461" lon="6.08751">
        <ele>604.2</ele>
        <time>2021-09-30T11:01:27Z</time>
      </trkpt>
      <trkpt lat="47.24461" lon="6.08749">
        <ele>604.2</ele>
        <time>2021-09-30T11:01:28Z</time>
      </trkpt>
      <trkpt lat="47.24462" lon="6.08747">
        <ele>604.2</ele>
        <time>2021-09-30T11:01:29Z</time>
      </trkpt>
      <trkpt lat="47.24463" lon="6.08745">
        <ele>604.4</ele>
        <time>2021-09-30T11:01:30Z</time>
      </trkpt>
      <trkpt lat="47.24465" lon="6.08742">
        <ele>604.4</ele>
        <time>2021-09-30T11:01:31Z</time>
      </trkpt>
      <trkpt lat="47.24465" lon="6.08739">
        <ele>604.4</ele>
        <time>2021-09-30T11:01:32Z</time>
      </trkpt>
      <trkpt lat="47.24466" lon="6.08736">
        <ele>604.4</ele>
        <time>2021-09-30T11:01:33Z</time>
      </trkpt>
      <trkpt lat="47.24467" lon="6.08733">
        <ele>604.4</ele>
        <time>2021-09-30T11:01:34Z</time>
      </trkpt>
      <trkpt lat="47.24468" lon="6.08729">
        <ele>604.4</ele>
        <time>2021-09-30T11:01:35Z</time>
      </trkpt>
      <trkpt lat="47.24479" lon="6.087">
        <ele>604.6</ele>
        <time>2021-09-30T11:01:43Z</time>
      </trkpt>
      <trkpt lat="47.24483" lon="6.08693">
        <ele>604.6</ele>
        <time>2021-09-30T11:01:46Z</time>
      </trkpt>
      <trkpt lat="47.24483" lon="6.08691">
        <ele>604.6</ele>
        <time>2021-09-30T11:01:47Z</time>
      </trkpt>
      <trkpt lat="47.24484" lon="6.08689">
        <ele>604.6</ele>
        <time>2021-09-30T11:01:48Z</time>
      </trkpt>
      <trkpt lat="47.24485" lon="6.08687">
        <ele>604.6</ele>
        <time>2021-09-30T11:01:49Z</time>
      </trkpt>
      <trkpt lat="47.24487" lon="6.08682">
        <ele>604.6</ele>
        <time>2021-09-30T11:01:51Z</time>
      </trkpt>
      <trkpt lat="47.24488" lon="6.08679">
        <ele>604.8</ele>
        <time>2021-09-30T11:01:52Z</time>
      </trkpt>
      <trkpt lat="47.24489" lon="6.08677">
        <ele>604.8</ele>
        <time>2021-09-30T11:01:53Z</time>
      </trkpt>
      <trkpt lat="47.2449" lon="6.08675">
        <ele>604.8</ele>
        <time>2021-09-30T11:01:54Z</time>
      </trkpt>
      <trkpt lat="47.24493" lon="6.08669">
        <ele>604.8</ele>
        <time>2021-09-30T11:01:56Z</time>
      </trkpt>
      <trkpt lat="47.24502" lon="6.08646">
        <ele>604.4</ele>
        <time>2021-09-30T11:02:01Z</time>
      </trkpt>
      <trkpt lat="47.24505" lon="6.08635">
        <ele>604.2</ele>
        <time>2021-09-30T11:02:03Z</time>
      </trkpt>
      <trkpt lat="47.24515" lon="6.08609">
        <ele>603.6</ele>
        <time>2021-09-30T11:02:08Z</time>
      </trkpt>
      <trkpt lat="47.24518" lon="6.086">
        <ele>603</ele>
        <time>2021-09-30T11:02:10Z</time>
      </trkpt>
      <trkpt lat="47.24519" lon="6.08596">
        <ele>602.8</ele>
        <time>2021-09-30T11:02:11Z</time>
      </trkpt>
      <trkpt lat="47.2452" lon="6.08592">
        <ele>602.4</ele>
        <time>2021-09-30T11:02:12Z</time>
      </trkpt>
      <trkpt lat="47.2452" lon="6.08589">
        <ele>602</ele>
        <time>2021-09-30T11:02:13Z</time>
      </trkpt>
      <trkpt lat="47.24521" lon="6.08587">
        <ele>601.4</ele>
        <time>2021-09-30T11:02:14Z</time>
      </trkpt>
      <trkpt lat="47.24521" lon="6.08585">
        <ele>601.2</ele>
        <time>2021-09-30T11:02:15Z</time>
      </trkpt>
      <trkpt lat="47.24521" lon="6.08585">
        <ele>600.8</ele>
        <time>2021-09-30T11:02:16Z</time>
      </trkpt>
      <trkpt lat="47.24521" lon="6.08585">
        <ele>600.8</ele>
        <time>2021-09-30T11:02:17Z</time>
      </trkpt>
      <trkpt lat="47.24521" lon="6.08585">
        <ele>600.6</ele>
        <time>2021-09-30T11:03:04Z</time>
      </trkpt>
      <trkpt lat="47.24516" lon="6.08578">
        <ele>600.6</ele>
        <time>2021-09-30T11:03:08Z</time>
      </trkpt>
      <trkpt lat="47.24493" lon="6.08555">
        <ele>592.8</ele>
      </trkpt>
      <trkpt lat="47.24475" lon="6.0854">
        <ele>591.8</ele>
      </trkpt>
      <trkpt lat="47.24456" lon="6.08529">
        <ele>592.8</ele>
      </trkpt>
      <trkpt lat="47.24443" lon="6.08524">
        <ele>594.6</ele>
      </trkpt>
      <trkpt lat="47.24425" lon="6.08524">
        <ele>597.9</ele>
      </trkpt>
      <trkpt lat="47.2439" lon="6.08549">
        <ele>600.8</ele>
        <time>2021-09-30T11:09:57Z</time>
      </trkpt>
      <trkpt lat="47.24388" lon="6.08551">
        <ele>600.8</ele>
        <time>2021-09-30T11:09:58Z</time>
      </trkpt>
      <trkpt lat="47.24387" lon="6.08553">
        <ele>600.8</ele>
        <time>2021-09-30T11:09:59Z</time>
      </trkpt>
      <trkpt lat="47.24385" lon="6.08554">
        <ele>600.8</ele>
        <time>2021-09-30T11:10:00Z</time>
      </trkpt>
      <trkpt lat="47.24383" lon="6.08556">
        <ele>601</ele>
        <time>2021-09-30T11:10:01Z</time>
      </trkpt>
      <trkpt lat="47.24382" lon="6.08558">
        <ele>601</ele>
        <time>2021-09-30T11:10:02Z</time>
      </trkpt>
      <trkpt lat="47.2438" lon="6.08559">
        <ele>601</ele>
        <time>2021-09-30T11:10:03Z</time>
      </trkpt>
      <trkpt lat="47.24379" lon="6.08559">
        <ele>601</ele>
        <time>2021-09-30T11:10:04Z</time>
      </trkpt>
      <trkpt lat="47.24377" lon="6.0856">
        <ele>601</ele>
        <time>2021-09-30T11:10:05Z</time>
      </trkpt>
      <trkpt lat="47.24376" lon="6.08562">
        <ele>601</ele>
        <time>2021-09-30T11:10:06Z</time>
      </trkpt>
      <trkpt lat="47.24375" lon="6.08563">
        <ele>601.2</ele>
        <time>2021-09-30T11:10:07Z</time>
      </trkpt>
      <trkpt lat="47.24373" lon="6.08564">
        <ele>601.2</ele>
        <time>2021-09-30T11:10:08Z</time>
      </trkpt>
      <trkpt lat="47.2437" lon="6.08565">
        <ele>601.2</ele>
        <time>2021-09-30T11:10:09Z</time>
      </trkpt>
      <trkpt lat="47.2436" lon="6.08568">
        <ele>601.4</ele>
        <time>2021-09-30T11:10:13Z</time>
      </trkpt>
      <trkpt lat="47.24336" lon="6.08563">
        <ele>601.6</ele>
        <time>2021-09-30T11:10:20Z</time>
      </trkpt>
      <trkpt lat="47.24309" lon="6.08551">
        <ele>601.8</ele>
        <time>2021-09-30T11:10:28Z</time>
      </trkpt>
      <trkpt lat="47.24281" lon="6.08535">
        <ele>601.4</ele>
        <time>2021-09-30T11:10:36Z</time>
      </trkpt>
      <trkpt lat="47.24255" lon="6.08523">
        <ele>600.8</ele>
        <time>2021-09-30T11:10:43Z</time>
      </trkpt>
      <trkpt lat="47.24226" lon="6.08508">
        <ele>600.2</ele>
        <time>2021-09-30T11:10:51Z</time>
      </trkpt>
      <trkpt lat="47.24223" lon="6.08506">
        <ele>600</ele>
        <time>2021-09-30T11:10:52Z</time>
      </trkpt>
      <trkpt lat="47.24216" lon="6.08501">
        <ele>599.8</ele>
        <time>2021-09-30T11:10:54Z</time>
      </trkpt>
      <trkpt lat="47.24195" lon="6.0849">
        <ele>599.4</ele>
        <time>2021-09-30T11:10:59Z</time>
      </trkpt>
      <trkpt lat="47.24182" lon="6.08482">
        <ele>599</ele>
        <time>2021-09-30T11:11:02Z</time>
      </trkpt>
      <trkpt lat="47.24178" lon="6.08479">
        <ele>598.6</ele>
        <time>2021-09-30T11:11:03Z</time>
      </trkpt>
      <trkpt lat="47.24174" lon="6.08477">
        <ele>598.4</ele>
        <time>2021-09-30T11:11:04Z</time>
      </trkpt>
      <trkpt lat="47.24171" lon="6.08474">
        <ele>598</ele>
        <time>2021-09-30T11:11:05Z</time>
      </trkpt>
      <trkpt lat="47.24168" lon="6.08472">
        <ele>597.8</ele>
        <time>2021-09-30T11:11:06Z</time>
      </trkpt>
      <trkpt lat="47.24166" lon="6.0847">
        <ele>597.4</ele>
        <time>2021-09-30T11:11:07Z</time>
      </trkpt>
      <trkpt lat="47.24164" lon="6.08467">
        <ele>596.8</ele>
        <time>2021-09-30T11:11:08Z</time>
      </trkpt>
      <trkpt lat="47.24162" lon="6.08466">
        <ele>596.6</ele>
        <time>2021-09-30T11:11:09Z</time>
      </trkpt>
      <trkpt lat="47.24159" lon="6.08464">
        <ele>596.4</ele>
        <time>2021-09-30T11:11:10Z</time>
      </trkpt>
      <trkpt lat="47.24156" lon="6.08462">
        <ele>596.4</ele>
        <time>2021-09-30T11:11:11Z</time>
      </trkpt>
      <trkpt lat="47.24149" lon="6.0845">
        <ele>595.8</ele>
        <time>2021-09-30T11:11:14Z</time>
      </trkpt>
      <trkpt lat="47.24148" lon="6.08445">
        <ele>595.8</ele>
        <time>2021-09-30T11:11:15Z</time>
      </trkpt>
      <trkpt lat="47.24148" lon="6.08441">
        <ele>595.4</ele>
        <time>2021-09-30T11:11:16Z</time>
      </trkpt>
      <trkpt lat="47.24147" lon="6.08437">
        <ele>595.4</ele>
        <time>2021-09-30T11:11:17Z</time>
      </trkpt>
      <trkpt lat="47.24146" lon="6.08433">
        <ele>595.2</ele>
        <time>2021-09-30T11:11:18Z</time>
      </trkpt>
      <trkpt lat="47.24146" lon="6.08429">
        <ele>595.2</ele>
        <time>2021-09-30T11:11:19Z</time>
      </trkpt>
      <trkpt lat="47.24141" lon="6.08412">
        <ele>595.2</ele>
        <time>2021-09-30T11:11:23Z</time>
      </trkpt>
      <trkpt lat="47.24133" lon="6.08379">
        <ele>596.6</ele>
        <time>2021-09-30T11:11:30Z</time>
      </trkpt>
      <trkpt lat="47.24129" lon="6.08365">
        <ele>597</ele>
        <time>2021-09-30T11:11:33Z</time>
      </trkpt>
      <trkpt lat="47.24123" lon="6.0834">
        <ele>597.8</ele>
        <time>2021-09-30T11:11:38Z</time>
      </trkpt>
      <trkpt lat="47.24121" lon="6.08323">
        <ele>598.2</ele>
        <time>2021-09-30T11:11:41Z</time>
      </trkpt>
      <trkpt lat="47.24121" lon="6.08313">
        <ele>598.6</ele>
        <time>2021-09-30T11:11:43Z</time>
      </trkpt>
      <trkpt lat="47.24121" lon="6.08309">
        <ele>598.8</ele>
        <time>2021-09-30T11:11:44Z</time>
      </trkpt>
      <trkpt lat="47.2412" lon="6.08304">
        <ele>599</ele>
        <time>2021-09-30T11:11:45Z</time>
      </trkpt>
      <trkpt lat="47.2412" lon="6.08299">
        <ele>599</ele>
        <time>2021-09-30T11:11:46Z</time>
      </trkpt>
      <trkpt lat="47.24121" lon="6.08295">
        <ele>599.2</ele>
        <time>2021-09-30T11:11:47Z</time>
      </trkpt>
      <trkpt lat="47.24122" lon="6.08291">
        <ele>599.4</ele>
        <time>2021-09-30T11:11:48Z</time>
      </trkpt>
      <trkpt lat="47.24123" lon="6.08287">
        <ele>599.6</ele>
        <time>2021-09-30T11:11:49Z</time>
      </trkpt>
      <trkpt lat="47.24125" lon="6.08283">
        <ele>599.6</ele>
        <time>2021-09-30T11:11:50Z</time>
      </trkpt>
      <trkpt lat="47.24126" lon="6.08279">
        <ele>599.8</ele>
        <time>2021-09-30T11:11:51Z</time>
      </trkpt>
      <trkpt lat="47.24127" lon="6.08275">
        <ele>600</ele>
        <time>2021-09-30T11:11:52Z</time>
      </trkpt>
      <trkpt lat="47.24128" lon="6.08271">
        <ele>600</ele>
        <time>2021-09-30T11:11:53Z</time>
      </trkpt>
      <trkpt lat="47.24129" lon="6.08267">
        <ele>600.2</ele>
        <time>2021-09-30T11:11:54Z</time>
      </trkpt>
      <trkpt lat="47.2413" lon="6.08262">
        <ele>600.2</ele>
        <time>2021-09-30T11:11:55Z</time>
      </trkpt>
      <trkpt lat="47.2413" lon="6.08258">
        <ele>600.2</ele>
        <time>2021-09-30T11:11:56Z</time>
      </trkpt>
      <trkpt lat="47.24131" lon="6.08254">
        <ele>600.2</ele>
        <time>2021-09-30T11:11:57Z</time>
      </trkpt>
      <trkpt lat="47.2413" lon="6.0825">
        <ele>600.4</ele>
        <time>2021-09-30T11:11:58Z</time>
      </trkpt>
      <trkpt lat="47.24129" lon="6.08246">
        <ele>600.4</ele>
        <time>2021-09-30T11:11:59Z</time>
      </trkpt>
      <trkpt lat="47.24128" lon="6.08243">
        <ele>600.4</ele>
        <time>2021-09-30T11:12:00Z</time>
      </trkpt>
      <trkpt lat="47.24128" lon="6.0824">
        <ele>600.4</ele>
        <time>2021-09-30T11:12:01Z</time>
      </trkpt>
      <trkpt lat="47.24127" lon="6.08237">
        <ele>600.4</ele>
        <time>2021-09-30T11:12:02Z</time>
      </trkpt>
      <trkpt lat="47.24127" lon="6.08236">
        <ele>600.4</ele>
        <time>2021-09-30T11:12:03Z</time>
      </trkpt>
      <trkpt lat="47.24127" lon="6.08235">
        <ele>600.4</ele>
        <time>2021-09-30T11:12:04Z</time>
      </trkpt>
      <trkpt lat="47.24127" lon="6.08235">
        <ele>600.4</ele>
        <time>2021-09-30T11:12:05Z</time>
      </trkpt>
      <trkpt lat="47.24127" lon="6.08235">
        <ele>600.4</ele>
        <time>2021-09-30T11:12:09Z</time>
      </trkpt>
      <trkpt lat="47.24126" lon="6.08235">
        <ele>600.2</ele>
        <time>2021-09-30T11:12:14Z</time>
      </trkpt>
      <trkpt lat="47.24126" lon="6.08235">
        <ele>600.2</ele>
        <time>2021-09-30T11:12:30Z</time>
      </trkpt>
      <trkpt lat="47.24126" lon="6.08235">
        <ele>600.2</ele>
        <time>2021-09-30T11:12:40Z</time>
      </trkpt>
      <trkpt lat="47.24126" lon="6.08235">
        <ele>600.8</ele>
        <time>2021-09-30T11:13:09Z</time>
      </trkpt>
      <trkpt lat="47.24126" lon="6.08235">
        <ele>600.2</ele>
        <time>2021-09-30T11:13:39Z</time>
      </trkpt>
      <trkpt lat="47.24126" lon="6.08235">
        <ele>600.4</ele>
        <time>2021-09-30T11:14:13Z</time>
      </trkpt>
      <trkpt lat="47.24126" lon="6.08235">
        <ele>600.6</ele>
        <time>2021-09-30T11:14:46Z</time>
      </trkpt>
      <trkpt lat="47.24126" lon="6.08235">
        <ele>600.4</ele>
        <time>2021-09-30T11:15:20Z</time>
      </trkpt>
      <trkpt lat="47.24126" lon="6.08235">
        <ele>600.8</ele>
        <time>2021-09-30T11:15:58Z</time>
      </trkpt>
      <trkpt lat="47.24126" lon="6.08235">
        <ele>601</ele>
        <time>2021-09-30T11:16:41Z</time>
      </trkpt>
      <trkpt lat="47.24126" lon="6.08235">
        <ele>601</ele>
        <time>2021-09-30T11:17:03Z</time>
      </trkpt>
      <trkpt lat="47.24119" lon="6.08233">
        <ele>601</ele>
        <time>2021-09-30T11:17:06Z</time>
      </trkpt>
      <trkpt lat="47.24114" lon="6.08226">
        <ele>600.8</ele>
        <time>2021-09-30T11:17:08Z</time>
      </trkpt>
      <trkpt lat="47.24112" lon="6.08223">
        <ele>600.8</ele>
        <time>2021-09-30T11:17:09Z</time>
      </trkpt>
      <trkpt lat="47.24109" lon="6.08219">
        <ele>600.6</ele>
        <time>2021-09-30T11:17:10Z</time>
      </trkpt>
      <trkpt lat="47.24107" lon="6.08217">
        <ele>600.4</ele>
        <time>2021-09-30T11:17:11Z</time>
      </trkpt>
      <trkpt lat="47.24105" lon="6.08215">
        <ele>600.2</ele>
        <time>2021-09-30T11:17:12Z</time>
      </trkpt>
      <trkpt lat="47.24103" lon="6.08214">
        <ele>600</ele>
        <time>2021-09-30T11:17:13Z</time>
      </trkpt>
      <trkpt lat="47.24101" lon="6.08213">
        <ele>599.8</ele>
        <time>2021-09-30T11:17:14Z</time>
      </trkpt>
      <trkpt lat="47.24098" lon="6.08212">
        <ele>599.8</ele>
        <time>2021-09-30T11:17:15Z</time>
      </trkpt>
      <trkpt lat="47.24095" lon="6.08212">
        <ele>599.8</ele>
        <time>2021-09-30T11:17:16Z</time>
      </trkpt>
      <trkpt lat="47.24086" lon="6.08209">
        <ele>599</ele>
        <time>2021-09-30T11:17:19Z</time>
      </trkpt>
      <trkpt lat="47.24084" lon="6.08208">
        <ele>598.8</ele>
        <time>2021-09-30T11:17:20Z</time>
      </trkpt>
      <trkpt lat="47.24078" lon="6.08205">
        <ele>597.8</ele>
        <time>2021-09-30T11:17:22Z</time>
      </trkpt>
      <trkpt lat="47.24065" lon="6.08197">
        <ele>596.6</ele>
        <time>2021-09-30T11:17:25Z</time>
      </trkpt>
      <trkpt lat="47.24057" lon="6.08192">
        <ele>595.2</ele>
        <time>2021-09-30T11:17:27Z</time>
      </trkpt>
      <trkpt lat="47.24048" lon="6.08187">
        <ele>594</ele>
        <time>2021-09-30T11:17:29Z</time>
      </trkpt>
      <trkpt lat="47.24035" lon="6.08181">
        <ele>592.8</ele>
        <time>2021-09-30T11:17:32Z</time>
      </trkpt>
      <trkpt lat="47.24031" lon="6.08179">
        <ele>592.4</ele>
        <time>2021-09-30T11:17:33Z</time>
      </trkpt>
      <trkpt lat="47.24028" lon="6.08177">
        <ele>592</ele>
        <time>2021-09-30T11:17:34Z</time>
      </trkpt>
      <trkpt lat="47.24024" lon="6.08175">
        <ele>591.8</ele>
        <time>2021-09-30T11:17:35Z</time>
      </trkpt>
      <trkpt lat="47.24021" lon="6.08173">
        <ele>591.2</ele>
        <time>2021-09-30T11:17:36Z</time>
      </trkpt>
      <trkpt lat="47.24018" lon="6.0817">
        <ele>590.6</ele>
        <time>2021-09-30T11:17:37Z</time>
      </trkpt>
      <trkpt lat="47.24011" lon="6.08162">
        <ele>589.4</ele>
        <time>2021-09-30T11:17:39Z</time>
      </trkpt>
      <trkpt lat="47.24005" lon="6.08155">
        <ele>588.8</ele>
        <time>2021-09-30T11:17:41Z</time>
      </trkpt>
      <trkpt lat="47.24002" lon="6.08151">
        <ele>588</ele>
        <time>2021-09-30T11:17:42Z</time>
      </trkpt>
      <trkpt lat="47.23998" lon="6.08147">
        <ele>587</ele>
        <time>2021-09-30T11:17:43Z</time>
      </trkpt>
      <trkpt lat="47.23987" lon="6.08135">
        <ele>585.4</ele>
        <time>2021-09-30T11:17:46Z</time>
      </trkpt>
      <trkpt lat="47.23984" lon="6.08131">
        <ele>585</ele>
        <time>2021-09-30T11:17:47Z</time>
      </trkpt>
      <trkpt lat="47.23981" lon="6.08128">
        <ele>584.2</ele>
        <time>2021-09-30T11:17:48Z</time>
      </trkpt>
      <trkpt lat="47.23979" lon="6.08126">
        <ele>583.8</ele>
        <time>2021-09-30T11:17:49Z</time>
      </trkpt>
      <trkpt lat="47.23977" lon="6.08123">
        <ele>583</ele>
        <time>2021-09-30T11:17:50Z</time>
      </trkpt>
      <trkpt lat="47.23969" lon="6.08114">
        <ele>582.2</ele>
        <time>2021-09-30T11:17:52Z</time>
      </trkpt>
      <trkpt lat="47.23965" lon="6.0811">
        <ele>582</ele>
        <time>2021-09-30T11:17:53Z</time>
      </trkpt>
      <trkpt lat="47.23962" lon="6.08106">
        <ele>581.8</ele>
        <time>2021-09-30T11:17:54Z</time>
      </trkpt>
      <trkpt lat="47.23959" lon="6.08103">
        <ele>580.8</ele>
        <time>2021-09-30T11:17:55Z</time>
      </trkpt>
      <trkpt lat="47.23956" lon="6.081">
        <ele>580.4</ele>
        <time>2021-09-30T11:17:56Z</time>
      </trkpt>
      <trkpt lat="47.23952" lon="6.08096">
        <ele>579.8</ele>
        <time>2021-09-30T11:17:57Z</time>
      </trkpt>
      <trkpt lat="47.23948" lon="6.08094">
        <ele>579.6</ele>
        <time>2021-09-30T11:17:58Z</time>
      </trkpt>
      <trkpt lat="47.23942" lon="6.08088">
        <ele>578.4</ele>
        <time>2021-09-30T11:18:00Z</time>
      </trkpt>
      <trkpt lat="47.23933" lon="6.08081">
        <ele>577.4</ele>
        <time>2021-09-30T11:18:02Z</time>
      </trkpt>
      <trkpt lat="47.23929" lon="6.08078">
        <ele>576.8</ele>
        <time>2021-09-30T11:18:03Z</time>
      </trkpt>
      <trkpt lat="47.23925" lon="6.08075">
        <ele>576.4</ele>
        <time>2021-09-30T11:18:04Z</time>
      </trkpt>
      <trkpt lat="47.23918" lon="6.08069">
        <ele>575.4</ele>
        <time>2021-09-30T11:18:06Z</time>
      </trkpt>
      <trkpt lat="47.23912" lon="6.08064">
        <ele>574.2</ele>
        <time>2021-09-30T11:18:08Z</time>
      </trkpt>
      <trkpt lat="47.2391" lon="6.08063">
        <ele>573.6</ele>
        <time>2021-09-30T11:18:09Z</time>
      </trkpt>
      <trkpt lat="47.23907" lon="6.0806">
        <ele>572.6</ele>
        <time>2021-09-30T11:18:10Z</time>
      </trkpt>
      <trkpt lat="47.239" lon="6.08058">
        <ele>571.4</ele>
        <time>2021-09-30T11:18:12Z</time>
      </trkpt>
      <trkpt lat="47.23895" lon="6.08056">
        <ele>570.2</ele>
        <time>2021-09-30T11:18:14Z</time>
      </trkpt>
      <trkpt lat="47.23892" lon="6.08055">
        <ele>569.8</ele>
        <time>2021-09-30T11:18:15Z</time>
      </trkpt>
      <trkpt lat="47.23889" lon="6.08055">
        <ele>569.2</ele>
        <time>2021-09-30T11:18:16Z</time>
      </trkpt>
      <trkpt lat="47.23887" lon="6.08054">
        <ele>568.8</ele>
        <time>2021-09-30T11:18:17Z</time>
      </trkpt>
      <trkpt lat="47.23885" lon="6.08053">
        <ele>568.6</ele>
        <time>2021-09-30T11:18:18Z</time>
      </trkpt>
      <trkpt lat="47.23883" lon="6.08053">
        <ele>568</ele>
        <time>2021-09-30T11:18:19Z</time>
      </trkpt>
      <trkpt lat="47.23882" lon="6.08054">
        <ele>567.6</ele>
        <time>2021-09-30T11:18:20Z</time>
      </trkpt>
      <trkpt lat="47.23881" lon="6.08054">
        <ele>567.2</ele>
        <time>2021-09-30T11:18:21Z</time>
      </trkpt>
      <trkpt lat="47.23881" lon="6.08054">
        <ele>566.8</ele>
        <time>2021-09-30T11:18:22Z</time>
      </trkpt>
      <trkpt lat="47.23879" lon="6.08053">
        <ele>566.2</ele>
        <time>2021-09-30T11:18:25Z</time>
      </trkpt>
      <trkpt lat="47.23879" lon="6.08053">
        <ele>565.8</ele>
        <time>2021-09-30T11:18:26Z</time>
      </trkpt>
      <trkpt lat="47.23879" lon="6.08053">
        <ele>565.6</ele>
        <time>2021-09-30T11:18:27Z</time>
      </trkpt>
      <trkpt lat="47.23878" lon="6.08053">
        <ele>565.6</ele>
        <time>2021-09-30T11:18:28Z</time>
      </trkpt>
      <trkpt lat="47.23878" lon="6.08054">
        <ele>565.4</ele>
        <time>2021-09-30T11:18:29Z</time>
      </trkpt>
      <trkpt lat="47.23873" lon="6.08057">
        <ele>565</ele>
        <time>2021-09-30T11:18:32Z</time>
      </trkpt>
      <trkpt lat="47.2387" lon="6.08059">
        <ele>564.8</ele>
        <time>2021-09-30T11:18:33Z</time>
      </trkpt>
      <trkpt lat="47.23867" lon="6.0806">
        <ele>564.8</ele>
        <time>2021-09-30T11:18:34Z</time>
      </trkpt>
      <trkpt lat="47.2386" lon="6.0806">
        <ele>564.4</ele>
        <time>2021-09-30T11:18:36Z</time>
      </trkpt>
      <trkpt lat="47.23858" lon="6.0806">
        <ele>564.2</ele>
        <time>2021-09-30T11:18:37Z</time>
      </trkpt>
      <trkpt lat="47.23855" lon="6.08059">
        <ele>564</ele>
        <time>2021-09-30T11:18:38Z</time>
      </trkpt>
      <trkpt lat="47.23853" lon="6.08059">
        <ele>563.8</ele>
        <time>2021-09-30T11:18:39Z</time>
      </trkpt>
      <trkpt lat="47.2385" lon="6.08057">
        <ele>563.4</ele>
        <time>2021-09-30T11:18:40Z</time>
      </trkpt>
      <trkpt lat="47.23848" lon="6.08056">
        <ele>563.2</ele>
        <time>2021-09-30T11:18:41Z</time>
      </trkpt>
      <trkpt lat="47.23839" lon="6.08054">
        <ele>562.6</ele>
        <time>2021-09-30T11:18:44Z</time>
      </trkpt>
      <trkpt lat="47.23837" lon="6.08053">
        <ele>562.4</ele>
        <time>2021-09-30T11:18:45Z</time>
      </trkpt>
      <trkpt lat="47.23834" lon="6.08054">
        <ele>561.8</ele>
        <time>2021-09-30T11:18:46Z</time>
      </trkpt>
      <trkpt lat="47.23828" lon="6.08058">
        <ele>561.4</ele>
        <time>2021-09-30T11:18:48Z</time>
      </trkpt>
      <trkpt lat="47.23825" lon="6.08061">
        <ele>561.2</ele>
        <time>2021-09-30T11:18:49Z</time>
      </trkpt>
      <trkpt lat="47.23822" lon="6.08064">
        <ele>561</ele>
        <time>2021-09-30T11:18:50Z</time>
      </trkpt>
      <trkpt lat="47.23807" lon="6.08078">
        <ele>560</ele>
        <time>2021-09-30T11:18:53Z</time>
      </trkpt>
      <trkpt lat="47.23803" lon="6.08081">
        <ele>559.8</ele>
        <time>2021-09-30T11:18:54Z</time>
      </trkpt>
      <trkpt lat="47.23798" lon="6.08084">
        <ele>559</ele>
        <time>2021-09-30T11:18:55Z</time>
      </trkpt>
      <trkpt lat="47.23794" lon="6.08087">
        <ele>558.8</ele>
        <time>2021-09-30T11:18:56Z</time>
      </trkpt>
      <trkpt lat="47.23788" lon="6.08087">
        <ele>558.4</ele>
        <time>2021-09-30T11:18:57Z</time>
      </trkpt>
      <trkpt lat="47.23783" lon="6.08087">
        <ele>558.2</ele>
        <time>2021-09-30T11:18:58Z</time>
      </trkpt>
      <trkpt lat="47.23778" lon="6.08086">
        <ele>558</ele>
        <time>2021-09-30T11:18:59Z</time>
      </trkpt>
      <trkpt lat="47.23772" lon="6.08084">
        <ele>557.8</ele>
        <time>2021-09-30T11:19:00Z</time>
      </trkpt>
      <trkpt lat="47.23765" lon="6.0808">
        <ele>557.6</ele>
        <time>2021-09-30T11:19:01Z</time>
      </trkpt>
      <trkpt lat="47.2376" lon="6.08077">
        <ele>557</ele>
        <time>2021-09-30T11:19:02Z</time>
      </trkpt>
      <trkpt lat="47.23755" lon="6.08074">
        <ele>557</ele>
        <time>2021-09-30T11:19:03Z</time>
      </trkpt>
      <trkpt lat="47.23752" lon="6.08073">
        <ele>556.2</ele>
        <time>2021-09-30T11:19:04Z</time>
      </trkpt>
      <trkpt lat="47.23749" lon="6.08072">
        <ele>555.8</ele>
        <time>2021-09-30T11:19:05Z</time>
      </trkpt>
      <trkpt lat="47.23745" lon="6.08071">
        <ele>554.8</ele>
        <time>2021-09-30T11:19:06Z</time>
      </trkpt>
      <trkpt lat="47.23742" lon="6.08072">
        <ele>554.4</ele>
        <time>2021-09-30T11:19:07Z</time>
      </trkpt>
      <trkpt lat="47.23739" lon="6.08073">
        <ele>553.4</ele>
        <time>2021-09-30T11:19:08Z</time>
      </trkpt>
      <trkpt lat="47.23737" lon="6.08074">
        <ele>552.6</ele>
        <time>2021-09-30T11:19:09Z</time>
      </trkpt>
      <trkpt lat="47.23734" lon="6.08076">
        <ele>552.4</ele>
        <time>2021-09-30T11:19:10Z</time>
      </trkpt>
      <trkpt lat="47.23732" lon="6.08077">
        <ele>551.8</ele>
        <time>2021-09-30T11:19:11Z</time>
      </trkpt>
      <trkpt lat="47.2373" lon="6.08079">
        <ele>551.4</ele>
        <time>2021-09-30T11:19:12Z</time>
      </trkpt>
      <trkpt lat="47.23728" lon="6.08081">
        <ele>550.8</ele>
        <time>2021-09-30T11:19:13Z</time>
      </trkpt>
      <trkpt lat="47.23721" lon="6.08091">
        <ele>550.2</ele>
        <time>2021-09-30T11:19:16Z</time>
      </trkpt>
      <trkpt lat="47.23714" lon="6.08099">
        <ele>549.6</ele>
        <time>2021-09-30T11:19:18Z</time>
      </trkpt>
      <trkpt lat="47.23699" lon="6.08112">
        <ele>549</ele>
        <time>2021-09-30T11:19:21Z</time>
      </trkpt>
      <trkpt lat="47.2369" lon="6.08119">
        <ele>548.4</ele>
        <time>2021-09-30T11:19:23Z</time>
      </trkpt>
      <trkpt lat="47.23685" lon="6.08124">
        <ele>547.8</ele>
        <time>2021-09-30T11:19:24Z</time>
      </trkpt>
      <trkpt lat="47.23681" lon="6.08126">
        <ele>547.4</ele>
        <time>2021-09-30T11:19:25Z</time>
      </trkpt>
      <trkpt lat="47.23678" lon="6.08129">
        <ele>546.8</ele>
        <time>2021-09-30T11:19:26Z</time>
      </trkpt>
      <trkpt lat="47.23675" lon="6.08131">
        <ele>545.8</ele>
        <time>2021-09-30T11:19:27Z</time>
      </trkpt>
      <trkpt lat="47.23672" lon="6.08135">
        <ele>545.4</ele>
        <time>2021-09-30T11:19:28Z</time>
      </trkpt>
      <trkpt lat="47.23669" lon="6.0814">
        <ele>544.8</ele>
        <time>2021-09-30T11:19:29Z</time>
      </trkpt>
      <trkpt lat="47.23667" lon="6.08145">
        <ele>544.4</ele>
        <time>2021-09-30T11:19:30Z</time>
      </trkpt>
      <trkpt lat="47.23666" lon="6.08151">
        <ele>543.6</ele>
        <time>2021-09-30T11:19:31Z</time>
      </trkpt>
      <trkpt lat="47.23665" lon="6.08155">
        <ele>543.2</ele>
        <time>2021-09-30T11:19:32Z</time>
      </trkpt>
      <trkpt lat="47.23664" lon="6.0816">
        <ele>542.4</ele>
        <time>2021-09-30T11:19:33Z</time>
      </trkpt>
      <trkpt lat="47.23663" lon="6.08164">
        <ele>542</ele>
        <time>2021-09-30T11:19:34Z</time>
      </trkpt>
      <trkpt lat="47.23662" lon="6.08169">
        <ele>541.6</ele>
        <time>2021-09-30T11:19:35Z</time>
      </trkpt>
      <trkpt lat="47.23661" lon="6.08173">
        <ele>541.4</ele>
        <time>2021-09-30T11:19:36Z</time>
      </trkpt>
      <trkpt lat="47.2366" lon="6.08178">
        <ele>541.2</ele>
        <time>2021-09-30T11:19:37Z</time>
      </trkpt>
      <trkpt lat="47.23659" lon="6.08184">
        <ele>540.8</ele>
        <time>2021-09-30T11:19:38Z</time>
      </trkpt>
      <trkpt lat="47.23659" lon="6.0819">
        <ele>540.8</ele>
        <time>2021-09-30T11:19:39Z</time>
      </trkpt>
      <trkpt lat="47.2366" lon="6.08197">
        <ele>540.6</ele>
        <time>2021-09-30T11:19:40Z</time>
      </trkpt>
      <trkpt lat="47.23662" lon="6.08219">
        <ele>539.8</ele>
        <time>2021-09-30T11:19:43Z</time>
      </trkpt>
      <trkpt lat="47.23664" lon="6.08242">
        <ele>539</ele>
        <time>2021-09-30T11:19:46Z</time>
      </trkpt>
      <trkpt lat="47.23665" lon="6.08251">
        <ele>538.6</ele>
        <time>2021-09-30T11:19:47Z</time>
      </trkpt>
      <trkpt lat="47.23667" lon="6.08268">
        <ele>537.8</ele>
        <time>2021-09-30T11:19:49Z</time>
      </trkpt>
      <trkpt lat="47.23668" lon="6.08275">
        <ele>537.6</ele>
        <time>2021-09-30T11:19:50Z</time>
      </trkpt>
      <trkpt lat="47.23667" lon="6.08281">
        <ele>537</ele>
        <time>2021-09-30T11:19:51Z</time>
      </trkpt>
      <trkpt lat="47.23665" lon="6.08285">
        <ele>536.8</ele>
        <time>2021-09-30T11:19:52Z</time>
      </trkpt>
      <trkpt lat="47.23663" lon="6.08288">
        <ele>536</ele>
        <time>2021-09-30T11:19:53Z</time>
      </trkpt>
      <trkpt lat="47.23659" lon="6.08289">
        <ele>535.4</ele>
        <time>2021-09-30T11:19:54Z</time>
      </trkpt>
      <trkpt lat="47.23656" lon="6.08289">
        <ele>535.2</ele>
        <time>2021-09-30T11:19:55Z</time>
      </trkpt>
      <trkpt lat="47.23652" lon="6.08286">
        <ele>534.6</ele>
        <time>2021-09-30T11:19:56Z</time>
      </trkpt>
      <trkpt lat="47.23649" lon="6.08281">
        <ele>534.2</ele>
        <time>2021-09-30T11:19:57Z</time>
      </trkpt>
      <trkpt lat="47.23645" lon="6.08275">
        <ele>533.4</ele>
        <time>2021-09-30T11:19:58Z</time>
      </trkpt>
      <trkpt lat="47.23643" lon="6.08271">
        <ele>533</ele>
        <time>2021-09-30T11:19:59Z</time>
      </trkpt>
      <trkpt lat="47.23638" lon="6.08265">
        <ele>532.4</ele>
        <time>2021-09-30T11:20:00Z</time>
      </trkpt>
      <trkpt lat="47.23635" lon="6.0826">
        <ele>532.2</ele>
        <time>2021-09-30T11:20:01Z</time>
      </trkpt>
      <trkpt lat="47.2363" lon="6.08253">
        <ele>531.8</ele>
        <time>2021-09-30T11:20:02Z</time>
      </trkpt>
      <trkpt lat="47.23619" lon="6.08233">
        <ele>531</ele>
        <time>2021-09-30T11:20:05Z</time>
      </trkpt>
      <trkpt lat="47.23605" lon="6.0821">
        <ele>530</ele>
        <time>2021-09-30T11:20:08Z</time>
      </trkpt>
      <trkpt lat="47.23591" lon="6.08187">
        <ele>528.8</ele>
        <time>2021-09-30T11:20:11Z</time>
      </trkpt>
      <trkpt lat="47.23582" lon="6.0817">
        <ele>528.2</ele>
        <time>2021-09-30T11:20:13Z</time>
      </trkpt>
      <trkpt lat="47.23579" lon="6.08163">
        <ele>527.8</ele>
        <time>2021-09-30T11:20:14Z</time>
      </trkpt>
      <trkpt lat="47.23575" lon="6.08154">
        <ele>527.6</ele>
        <time>2021-09-30T11:20:15Z</time>
      </trkpt>
      <trkpt lat="47.23559" lon="6.08107">
        <ele>526.8</ele>
        <time>2021-09-30T11:20:20Z</time>
      </trkpt>
      <trkpt lat="47.23554" lon="6.0809">
        <ele>526.2</ele>
        <time>2021-09-30T11:20:22Z</time>
      </trkpt>
      <trkpt lat="47.23551" lon="6.08081">
        <ele>525.8</ele>
        <time>2021-09-30T11:20:23Z</time>
      </trkpt>
      <trkpt lat="47.2355" lon="6.08073">
        <ele>525.4</ele>
        <time>2021-09-30T11:20:24Z</time>
      </trkpt>
      <trkpt lat="47.23549" lon="6.08065">
        <ele>525.2</ele>
        <time>2021-09-30T11:20:25Z</time>
      </trkpt>
      <trkpt lat="47.23547" lon="6.08056">
        <ele>525.2</ele>
        <time>2021-09-30T11:20:26Z</time>
      </trkpt>
      <trkpt lat="47.23547" lon="6.08049">
        <ele>524.6</ele>
        <time>2021-09-30T11:20:27Z</time>
      </trkpt>
      <trkpt lat="47.23547" lon="6.08044">
        <ele>524.4</ele>
        <time>2021-09-30T11:20:28Z</time>
      </trkpt>
      <trkpt lat="47.2354" lon="6.0802">
        <ele>516.6</ele>
      </trkpt>
      <trkpt lat="47.23534" lon="6.07986">
        <ele>520.4</ele>
        <time>2021-09-30T11:21:37Z</time>
      </trkpt>
      <trkpt lat="47.2353" lon="6.07985">
        <ele>520.4</ele>
        <time>2021-09-30T11:21:38Z</time>
      </trkpt>
      <trkpt lat="47.23527" lon="6.07984">
        <ele>520.4</ele>
        <time>2021-09-30T11:21:39Z</time>
      </trkpt>
      <trkpt lat="47.23524" lon="6.07984">
        <ele>520.4</ele>
        <time>2021-09-30T11:21:40Z</time>
      </trkpt>
      <trkpt lat="47.23521" lon="6.07983">
        <ele>520</ele>
        <time>2021-09-30T11:21:41Z</time>
      </trkpt>
      <trkpt lat="47.23517" lon="6.07983">
        <ele>520</ele>
        <time>2021-09-30T11:21:42Z</time>
      </trkpt>
      <trkpt lat="47.23515" lon="6.07983">
        <ele>519.6</ele>
        <time>2021-09-30T11:21:43Z</time>
      </trkpt>
      <trkpt lat="47.23513" lon="6.07983">
        <ele>519</ele>
        <time>2021-09-30T11:21:44Z</time>
      </trkpt>
      <trkpt lat="47.23511" lon="6.07982">
        <ele>518.8</ele>
        <time>2021-09-30T11:21:45Z</time>
      </trkpt>
      <trkpt lat="47.23509" lon="6.0798">
        <ele>518.4</ele>
        <time>2021-09-30T11:21:46Z</time>
      </trkpt>
      <trkpt lat="47.23507" lon="6.07978">
        <ele>518.2</ele>
        <time>2021-09-30T11:21:47Z</time>
      </trkpt>
      <trkpt lat="47.23506" lon="6.07976">
        <ele>517.6</ele>
        <time>2021-09-30T11:21:48Z</time>
      </trkpt>
      <trkpt lat="47.23506" lon="6.07974">
        <ele>517.4</ele>
        <time>2021-09-30T11:21:49Z</time>
      </trkpt>
      <trkpt lat="47.23505" lon="6.0797">
        <ele>516.8</ele>
        <time>2021-09-30T11:21:50Z</time>
      </trkpt>
      <trkpt lat="47.23505" lon="6.07967">
        <ele>516.6</ele>
        <time>2021-09-30T11:21:51Z</time>
      </trkpt>
      <trkpt lat="47.23505" lon="6.07961">
        <ele>516.2</ele>
        <time>2021-09-30T11:21:52Z</time>
      </trkpt>
      <trkpt lat="47.23505" lon="6.07946">
        <ele>515.6</ele>
        <time>2021-09-30T11:21:54Z</time>
      </trkpt>
      <trkpt lat="47.23506" lon="6.07931">
        <ele>514.8</ele>
        <time>2021-09-30T11:21:56Z</time>
      </trkpt>
      <trkpt lat="47.23507" lon="6.07924">
        <ele>514.4</ele>
        <time>2021-09-30T11:21:57Z</time>
      </trkpt>
      <trkpt lat="47.23509" lon="6.07918">
        <ele>514.2</ele>
        <time>2021-09-30T11:21:58Z</time>
      </trkpt>
      <trkpt lat="47.2351" lon="6.07912">
        <ele>513.6</ele>
        <time>2021-09-30T11:21:59Z</time>
      </trkpt>
      <trkpt lat="47.23512" lon="6.07908">
        <ele>513.2</ele>
        <time>2021-09-30T11:22:00Z</time>
      </trkpt>
      <trkpt lat="47.23513" lon="6.07905">
        <ele>512.4</ele>
        <time>2021-09-30T11:22:01Z</time>
      </trkpt>
      <trkpt lat="47.23515" lon="6.07902">
        <ele>511.6</ele>
        <time>2021-09-30T11:22:02Z</time>
      </trkpt>
      <trkpt lat="47.23516" lon="6.07899">
        <ele>511.2</ele>
        <time>2021-09-30T11:22:03Z</time>
      </trkpt>
      <trkpt lat="47.23518" lon="6.07896">
        <ele>510.8</ele>
        <time>2021-09-30T11:22:04Z</time>
      </trkpt>
      <trkpt lat="47.23525" lon="6.07888">
        <ele>510</ele>
        <time>2021-09-30T11:22:06Z</time>
      </trkpt>
      <trkpt lat="47.23532" lon="6.07879">
        <ele>509.6</ele>
        <time>2021-09-30T11:22:08Z</time>
      </trkpt>
      <trkpt lat="47.23534" lon="6.07875">
        <ele>509.4</ele>
        <time>2021-09-30T11:22:09Z</time>
      </trkpt>
      <trkpt lat="47.23535" lon="6.07873">
        <ele>508.8</ele>
        <time>2021-09-30T11:22:10Z</time>
      </trkpt>
      <trkpt lat="47.23535" lon="6.07868">
        <ele>508.2</ele>
        <time>2021-09-30T11:22:11Z</time>
      </trkpt>
      <trkpt lat="47.23535" lon="6.07864">
        <ele>507.8</ele>
        <time>2021-09-30T11:22:12Z</time>
      </trkpt>
      <trkpt lat="47.23534" lon="6.07858">
        <ele>507.2</ele>
        <time>2021-09-30T11:22:13Z</time>
      </trkpt>
      <trkpt lat="47.23533" lon="6.07852">
        <ele>507</ele>
        <time>2021-09-30T11:22:14Z</time>
      </trkpt>
      <trkpt lat="47.23531" lon="6.07843">
        <ele>506.6</ele>
        <time>2021-09-30T11:22:15Z</time>
      </trkpt>
      <trkpt lat="47.23528" lon="6.07821">
        <ele>506</ele>
        <time>2021-09-30T11:22:17Z</time>
      </trkpt>
      <trkpt lat="47.23527" lon="6.07806">
        <ele>504.2</ele>
        <time>2021-09-30T11:22:19Z</time>
      </trkpt>
      <trkpt lat="47.23526" lon="6.07799">
        <ele>502.8</ele>
        <time>2021-09-30T11:22:20Z</time>
      </trkpt>
      <trkpt lat="47.23526" lon="6.07791">
        <ele>502</ele>
        <time>2021-09-30T11:22:21Z</time>
      </trkpt>
      <trkpt lat="47.23525" lon="6.07786">
        <ele>500.8</ele>
        <time>2021-09-30T11:22:22Z</time>
      </trkpt>
      <trkpt lat="47.23524" lon="6.07782">
        <ele>500.2</ele>
        <time>2021-09-30T11:22:23Z</time>
      </trkpt>
      <trkpt lat="47.23524" lon="6.0778">
        <ele>499</ele>
        <time>2021-09-30T11:22:24Z</time>
      </trkpt>
      <trkpt lat="47.23523" lon="6.07777">
        <ele>498.4</ele>
        <time>2021-09-30T11:22:25Z</time>
      </trkpt>
      <trkpt lat="47.23521" lon="6.07774">
        <ele>497.6</ele>
        <time>2021-09-30T11:22:26Z</time>
      </trkpt>
      <trkpt lat="47.23518" lon="6.07772">
        <ele>497.2</ele>
        <time>2021-09-30T11:22:27Z</time>
      </trkpt>
      <trkpt lat="47.23515" lon="6.0777">
        <ele>496.6</ele>
        <time>2021-09-30T11:22:28Z</time>
      </trkpt>
      <trkpt lat="47.23512" lon="6.07768">
        <ele>496.6</ele>
        <time>2021-09-30T11:22:29Z</time>
      </trkpt>
      <trkpt lat="47.23507" lon="6.07766">
        <ele>495.8</ele>
        <time>2021-09-30T11:22:30Z</time>
      </trkpt>
      <trkpt lat="47.23503" lon="6.07764">
        <ele>495.2</ele>
        <time>2021-09-30T11:22:31Z</time>
      </trkpt>
      <trkpt lat="47.23493" lon="6.07757">
        <ele>494.4</ele>
        <time>2021-09-30T11:22:33Z</time>
      </trkpt>
      <trkpt lat="47.23483" lon="6.07749">
        <ele>494</ele>
        <time>2021-09-30T11:22:35Z</time>
      </trkpt>
      <trkpt lat="47.23479" lon="6.07744">
        <ele>493.8</ele>
        <time>2021-09-30T11:22:36Z</time>
      </trkpt>
      <trkpt lat="47.23475" lon="6.07741">
        <ele>493.6</ele>
        <time>2021-09-30T11:22:37Z</time>
      </trkpt>
      <trkpt lat="47.23472" lon="6.07738">
        <ele>493.4</ele>
        <time>2021-09-30T11:22:38Z</time>
      </trkpt>
      <trkpt lat="47.23468" lon="6.07734">
        <ele>493</ele>
        <time>2021-09-30T11:22:39Z</time>
      </trkpt>
      <trkpt lat="47.23464" lon="6.0773">
        <ele>493</ele>
        <time>2021-09-30T11:22:40Z</time>
      </trkpt>
      <trkpt lat="47.23461" lon="6.07728">
        <ele>493</ele>
        <time>2021-09-30T11:22:41Z</time>
      </trkpt>
      <trkpt lat="47.2346" lon="6.07726">
        <ele>493</ele>
        <time>2021-09-30T11:22:42Z</time>
      </trkpt>
      <trkpt lat="47.23458" lon="6.07724">
        <ele>493</ele>
        <time>2021-09-30T11:22:43Z</time>
      </trkpt>
      <trkpt lat="47.23456" lon="6.07722">
        <ele>493</ele>
        <time>2021-09-30T11:22:44Z</time>
      </trkpt>
      <trkpt lat="47.23455" lon="6.07721">
        <ele>493.2</ele>
        <time>2021-09-30T11:22:45Z</time>
      </trkpt>
      <trkpt lat="47.23453" lon="6.07719">
        <ele>493.2</ele>
        <time>2021-09-30T11:22:46Z</time>
      </trkpt>
      <trkpt lat="47.23443" lon="6.07711">
        <ele>493.8</ele>
        <time>2021-09-30T11:22:50Z</time>
      </trkpt>
      <trkpt lat="47.2344" lon="6.07709">
        <ele>494</ele>
        <time>2021-09-30T11:22:51Z</time>
      </trkpt>
      <trkpt lat="47.23419" lon="6.07695">
        <ele>494.4</ele>
        <time>2021-09-30T11:22:58Z</time>
      </trkpt>
      <trkpt lat="47.23396" lon="6.07678">
        <ele>494.6</ele>
        <time>2021-09-30T11:23:05Z</time>
      </trkpt>
      <trkpt lat="47.2339" lon="6.07673">
        <ele>494.4</ele>
        <time>2021-09-30T11:23:07Z</time>
      </trkpt>
      <trkpt lat="47.23389" lon="6.07671">
        <ele>494.4</ele>
        <time>2021-09-30T11:23:08Z</time>
      </trkpt>
      <trkpt lat="47.23387" lon="6.0767">
        <ele>494.2</ele>
        <time>2021-09-30T11:23:09Z</time>
      </trkpt>
      <trkpt lat="47.23386" lon="6.07669">
        <ele>494</ele>
        <time>2021-09-30T11:23:10Z</time>
      </trkpt>
      <trkpt lat="47.23385" lon="6.07669">
        <ele>493.8</ele>
        <time>2021-09-30T11:23:11Z</time>
      </trkpt>
      <trkpt lat="47.23383" lon="6.07668">
        <ele>493.6</ele>
        <time>2021-09-30T11:23:12Z</time>
      </trkpt>
      <trkpt lat="47.23381" lon="6.07669">
        <ele>493.2</ele>
        <time>2021-09-30T11:23:13Z</time>
      </trkpt>
      <trkpt lat="47.23377" lon="6.07669">
        <ele>493.2</ele>
        <time>2021-09-30T11:23:14Z</time>
      </trkpt>
      <trkpt lat="47.23375" lon="6.0767">
        <ele>493</ele>
        <time>2021-09-30T11:23:15Z</time>
      </trkpt>
      <trkpt lat="47.23358" lon="6.07675">
        <ele>492.4</ele>
        <time>2021-09-30T11:23:20Z</time>
      </trkpt>
      <trkpt lat="47.23327" lon="6.07679">
        <ele>492</ele>
        <time>2021-09-30T11:23:26Z</time>
      </trkpt>
      <trkpt lat="47.23322" lon="6.0768">
        <ele>491.8</ele>
        <time>2021-09-30T11:23:27Z</time>
      </trkpt>
      <trkpt lat="47.23316" lon="6.0768">
        <ele>491.8</ele>
        <time>2021-09-30T11:23:28Z</time>
      </trkpt>
      <trkpt lat="47.2331" lon="6.0768">
        <ele>491.6</ele>
        <time>2021-09-30T11:23:29Z</time>
      </trkpt>
      <trkpt lat="47.23307" lon="6.0768">
        <ele>491.4</ele>
        <time>2021-09-30T11:23:30Z</time>
      </trkpt>
      <trkpt lat="47.23302" lon="6.07679">
        <ele>491.4</ele>
        <time>2021-09-30T11:23:31Z</time>
      </trkpt>
      <trkpt lat="47.23298" lon="6.07678">
        <ele>491.4</ele>
        <time>2021-09-30T11:23:32Z</time>
      </trkpt>
      <trkpt lat="47.23295" lon="6.07677">
        <ele>491.2</ele>
        <time>2021-09-30T11:23:33Z</time>
      </trkpt>
      <trkpt lat="47.23292" lon="6.07677">
        <ele>491.2</ele>
        <time>2021-09-30T11:23:34Z</time>
      </trkpt>
      <trkpt lat="47.23288" lon="6.07675">
        <ele>491.2</ele>
        <time>2021-09-30T11:23:35Z</time>
      </trkpt>
      <trkpt lat="47.23281" lon="6.07673">
        <ele>491.2</ele>
        <time>2021-09-30T11:23:37Z</time>
      </trkpt>
      <trkpt lat="47.23243" lon="6.07658">
        <ele>491.6</ele>
        <time>2021-09-30T11:23:45Z</time>
      </trkpt>
      <trkpt lat="47.23204" lon="6.07643">
        <ele>491</ele>
        <time>2021-09-30T11:23:53Z</time>
      </trkpt>
      <trkpt lat="47.232" lon="6.07641">
        <ele>491</ele>
        <time>2021-09-30T11:23:54Z</time>
      </trkpt>
      <trkpt lat="47.23196" lon="6.07639">
        <ele>490.8</ele>
        <time>2021-09-30T11:23:55Z</time>
      </trkpt>
      <trkpt lat="47.23192" lon="6.07637">
        <ele>490.8</ele>
        <time>2021-09-30T11:23:56Z</time>
      </trkpt>
      <trkpt lat="47.23188" lon="6.07635">
        <ele>490.8</ele>
        <time>2021-09-30T11:23:57Z</time>
      </trkpt>
      <trkpt lat="47.2318" lon="6.07632">
        <ele>491</ele>
        <time>2021-09-30T11:23:59Z</time>
      </trkpt>
      <trkpt lat="47.23176" lon="6.07631">
        <ele>491</ele>
        <time>2021-09-30T11:24:00Z</time>
      </trkpt>
      <trkpt lat="47.23172" lon="6.07629">
        <ele>491</ele>
        <time>2021-09-30T11:24:01Z</time>
      </trkpt>
      <trkpt lat="47.23168" lon="6.07628">
        <ele>491</ele>
        <time>2021-09-30T11:24:02Z</time>
      </trkpt>
      <trkpt lat="47.23163" lon="6.07627">
        <ele>491.4</ele>
        <time>2021-09-30T11:24:03Z</time>
      </trkpt>
      <trkpt lat="47.23159" lon="6.07626">
        <ele>491.4</ele>
        <time>2021-09-30T11:24:04Z</time>
      </trkpt>
      <trkpt lat="47.23156" lon="6.07624">
        <ele>491.4</ele>
        <time>2021-09-30T11:24:05Z</time>
      </trkpt>
      <trkpt lat="47.23152" lon="6.07623">
        <ele>491.6</ele>
        <time>2021-09-30T11:24:06Z</time>
      </trkpt>
      <trkpt lat="47.23149" lon="6.0762">
        <ele>491.6</ele>
        <time>2021-09-30T11:24:07Z</time>
      </trkpt>
      <trkpt lat="47.23147" lon="6.07618">
        <ele>491.6</ele>
        <time>2021-09-30T11:24:08Z</time>
      </trkpt>
      <trkpt lat="47.23144" lon="6.07615">
        <ele>491.8</ele>
        <time>2021-09-30T11:24:09Z</time>
      </trkpt>
      <trkpt lat="47.23142" lon="6.07614">
        <ele>492</ele>
        <time>2021-09-30T11:24:10Z</time>
      </trkpt>
      <trkpt lat="47.23139" lon="6.07613">
        <ele>492</ele>
        <time>2021-09-30T11:24:11Z</time>
      </trkpt>
      <trkpt lat="47.23136" lon="6.07611">
        <ele>492</ele>
        <time>2021-09-30T11:24:12Z</time>
      </trkpt>
      <trkpt lat="47.23115" lon="6.07595">
        <ele>492</ele>
        <time>2021-09-30T11:24:18Z</time>
      </trkpt>
      <trkpt lat="47.23086" lon="6.07568">
        <ele>491</ele>
        <time>2021-09-30T11:24:24Z</time>
      </trkpt>
      <trkpt lat="47.23081" lon="6.07562">
        <ele>490.8</ele>
        <time>2021-09-30T11:24:25Z</time>
      </trkpt>
      <trkpt lat="47.23058" lon="6.07534">
        <ele>489.8</ele>
        <time>2021-09-30T11:24:29Z</time>
      </trkpt>
      <trkpt lat="47.23052" lon="6.07526">
        <ele>489.4</ele>
        <time>2021-09-30T11:24:30Z</time>
      </trkpt>
      <trkpt lat="47.23035" lon="6.07504">
        <ele>488.2</ele>
        <time>2021-09-30T11:24:33Z</time>
      </trkpt>
      <trkpt lat="47.23029" lon="6.07497">
        <ele>487.4</ele>
        <time>2021-09-30T11:24:34Z</time>
      </trkpt>
      <trkpt lat="47.23023" lon="6.07491">
        <ele>487.2</ele>
        <time>2021-09-30T11:24:35Z</time>
      </trkpt>
      <trkpt lat="47.23018" lon="6.07486">
        <ele>486.8</ele>
        <time>2021-09-30T11:24:36Z</time>
      </trkpt>
      <trkpt lat="47.23012" lon="6.07481">
        <ele>486.6</ele>
        <time>2021-09-30T11:24:37Z</time>
      </trkpt>
      <trkpt lat="47.23008" lon="6.07477">
        <ele>486.6</ele>
        <time>2021-09-30T11:24:38Z</time>
      </trkpt>
      <trkpt lat="47.23004" lon="6.07473">
        <ele>486.4</ele>
        <time>2021-09-30T11:24:39Z</time>
      </trkpt>
      <trkpt lat="47.23" lon="6.07469">
        <ele>486.4</ele>
        <time>2021-09-30T11:24:40Z</time>
      </trkpt>
      <trkpt lat="47.22996" lon="6.07466">
        <ele>486.4</ele>
        <time>2021-09-30T11:24:41Z</time>
      </trkpt>
      <trkpt lat="47.22992" lon="6.07463">
        <ele>486.4</ele>
        <time>2021-09-30T11:24:42Z</time>
      </trkpt>
      <trkpt lat="47.22989" lon="6.07461">
        <ele>486.4</ele>
        <time>2021-09-30T11:24:43Z</time>
      </trkpt>
      <trkpt lat="47.22985" lon="6.07458">
        <ele>486.6</ele>
        <time>2021-09-30T11:24:44Z</time>
      </trkpt>
      <trkpt lat="47.22977" lon="6.07453">
        <ele>486.8</ele>
        <time>2021-09-30T11:24:46Z</time>
      </trkpt>
      <trkpt lat="47.22974" lon="6.0745">
        <ele>486.8</ele>
        <time>2021-09-30T11:24:47Z</time>
      </trkpt>
      <trkpt lat="47.22971" lon="6.07448">
        <ele>486.8</ele>
        <time>2021-09-30T11:24:48Z</time>
      </trkpt>
      <trkpt lat="47.22965" lon="6.07444">
        <ele>487</ele>
        <time>2021-09-30T11:24:50Z</time>
      </trkpt>
      <trkpt lat="47.22962" lon="6.07442">
        <ele>487.2</ele>
        <time>2021-09-30T11:24:51Z</time>
      </trkpt>
      <trkpt lat="47.22959" lon="6.0744">
        <ele>487.2</ele>
        <time>2021-09-30T11:24:52Z</time>
      </trkpt>
      <trkpt lat="47.22953" lon="6.07435">
        <ele>487</ele>
        <time>2021-09-30T11:24:54Z</time>
      </trkpt>
      <trkpt lat="47.22945" lon="6.07426">
        <ele>487</ele>
        <time>2021-09-30T11:24:57Z</time>
      </trkpt>
      <trkpt lat="47.22943" lon="6.07423">
        <ele>487</ele>
        <time>2021-09-30T11:24:58Z</time>
      </trkpt>
      <trkpt lat="47.22942" lon="6.07418">
        <ele>486.8</ele>
        <time>2021-09-30T11:24:59Z</time>
      </trkpt>
      <trkpt lat="47.22943" lon="6.07413">
        <ele>486.8</ele>
        <time>2021-09-30T11:25:00Z</time>
      </trkpt>
      <trkpt lat="47.22946" lon="6.07403">
        <ele>486.8</ele>
        <time>2021-09-30T11:25:02Z</time>
      </trkpt>
      <trkpt lat="47.22947" lon="6.07398">
        <ele>486.6</ele>
        <time>2021-09-30T11:25:03Z</time>
      </trkpt>
      <trkpt lat="47.22949" lon="6.07393">
        <ele>486.6</ele>
        <time>2021-09-30T11:25:04Z</time>
      </trkpt>
      <trkpt lat="47.22951" lon="6.07389">
        <ele>486.6</ele>
        <time>2021-09-30T11:25:05Z</time>
      </trkpt>
      <trkpt lat="47.22954" lon="6.07386">
        <ele>486.6</ele>
        <time>2021-09-30T11:25:06Z</time>
      </trkpt>
      <trkpt lat="47.22956" lon="6.07383">
        <ele>486.6</ele>
        <time>2021-09-30T11:25:07Z</time>
      </trkpt>
      <trkpt lat="47.22959" lon="6.07381">
        <ele>486.6</ele>
        <time>2021-09-30T11:25:08Z</time>
      </trkpt>
      <trkpt lat="47.22963" lon="6.07376">
        <ele>486.6</ele>
        <time>2021-09-30T11:25:10Z</time>
      </trkpt>
      <trkpt lat="47.22965" lon="6.07374">
        <ele>486.6</ele>
        <time>2021-09-30T11:25:11Z</time>
      </trkpt>
      <trkpt lat="47.22966" lon="6.07372">
        <ele>486.8</ele>
        <time>2021-09-30T11:25:12Z</time>
      </trkpt>
      <trkpt lat="47.22966" lon="6.07371">
        <ele>487</ele>
        <time>2021-09-30T11:25:13Z</time>
      </trkpt>
      <trkpt lat="47.22964" lon="6.07371">
        <ele>487.2</ele>
        <time>2021-09-30T11:25:14Z</time>
      </trkpt>
      <trkpt lat="47.22963" lon="6.07371">
        <ele>487.4</ele>
        <time>2021-09-30T11:25:15Z</time>
      </trkpt>
      <trkpt lat="47.22959" lon="6.07369">
        <ele>487.6</ele>
        <time>2021-09-30T11:25:17Z</time>
      </trkpt>
      <trkpt lat="47.22957" lon="6.07368">
        <ele>487.6</ele>
        <time>2021-09-30T11:25:18Z</time>
      </trkpt>
      <trkpt lat="47.22956" lon="6.07366">
        <ele>487.6</ele>
        <time>2021-09-30T11:25:19Z</time>
      </trkpt>
      <trkpt lat="47.22953" lon="6.07363">
        <ele>487.6</ele>
        <time>2021-09-30T11:25:20Z</time>
      </trkpt>
      <trkpt lat="47.22944" lon="6.07352">
        <ele>487.6</ele>
        <time>2021-09-30T11:25:23Z</time>
      </trkpt>
      <trkpt lat="47.22936" lon="6.07344">
        <ele>487.6</ele>
        <time>2021-09-30T11:25:26Z</time>
      </trkpt>
      <trkpt lat="47.22934" lon="6.07342">
        <ele>487.6</ele>
        <time>2021-09-30T11:25:27Z</time>
      </trkpt>
      <trkpt lat="47.22932" lon="6.0734">
        <ele>487.6</ele>
        <time>2021-09-30T11:25:28Z</time>
      </trkpt>
      <trkpt lat="47.2293" lon="6.07338">
        <ele>487.4</ele>
        <time>2021-09-30T11:25:29Z</time>
      </trkpt>
      <trkpt lat="47.2293" lon="6.07337">
        <ele>487.4</ele>
        <time>2021-09-30T11:25:30Z</time>
      </trkpt>
      <trkpt lat="47.2293" lon="6.07337">
        <ele>487.4</ele>
        <time>2021-09-30T11:25:31Z</time>
      </trkpt>
      <trkpt lat="47.22917" lon="6.07324">
        <ele>486.8</ele>
        <time>2021-09-30T11:25:44Z</time>
      </trkpt>
      <trkpt lat="47.22905" lon="6.07313">
        <ele>486.6</ele>
        <time>2021-09-30T11:25:48Z</time>
      </trkpt>
      <trkpt lat="47.22902" lon="6.07311">
        <ele>486.6</ele>
        <time>2021-09-30T11:25:49Z</time>
      </trkpt>
      <trkpt lat="47.22899" lon="6.07311">
        <ele>486.4</ele>
        <time>2021-09-30T11:25:50Z</time>
      </trkpt>
      <trkpt lat="47.22886" lon="6.07303">
        <ele>486.2</ele>
        <time>2021-09-30T11:25:55Z</time>
      </trkpt>
      <trkpt lat="47.22884" lon="6.073">
        <ele>486.2</ele>
        <time>2021-09-30T11:25:56Z</time>
      </trkpt>
      <trkpt lat="47.22881" lon="6.07298">
        <ele>486.2</ele>
        <time>2021-09-30T11:25:57Z</time>
      </trkpt>
      <trkpt lat="47.22874" lon="6.07293">
        <ele>486.2</ele>
        <time>2021-09-30T11:26:00Z</time>
      </trkpt>
      <trkpt lat="47.22872" lon="6.07292">
        <ele>486.2</ele>
        <time>2021-09-30T11:26:01Z</time>
      </trkpt>
      <trkpt lat="47.22868" lon="6.07291">
        <ele>486.2</ele>
        <time>2021-09-30T11:26:03Z</time>
      </trkpt>
      <trkpt lat="47.22866" lon="6.07291">
        <ele>486.2</ele>
        <time>2021-09-30T11:26:04Z</time>
      </trkpt>
      <trkpt lat="47.22864" lon="6.0729">
        <ele>486.2</ele>
        <time>2021-09-30T11:26:05Z</time>
      </trkpt>
      <trkpt lat="47.22863" lon="6.07288">
        <ele>486</ele>
        <time>2021-09-30T11:26:06Z</time>
      </trkpt>
      <trkpt lat="47.22862" lon="6.07287">
        <ele>486</ele>
        <time>2021-09-30T11:26:07Z</time>
      </trkpt>
      <trkpt lat="47.2286" lon="6.07287">
        <ele>486</ele>
        <time>2021-09-30T11:26:08Z</time>
      </trkpt>
      <trkpt lat="47.22859" lon="6.07287">
        <ele>486</ele>
        <time>2021-09-30T11:26:09Z</time>
      </trkpt>
      <trkpt lat="47.22859" lon="6.07287">
        <ele>486</ele>
        <time>2021-09-30T11:26:11Z</time>
      </trkpt>
      <trkpt lat="47.22859" lon="6.07287">
        <ele>486</ele>
        <time>2021-09-30T11:26:16Z</time>
      </trkpt>
      <trkpt lat="47.22855" lon="6.0729">
        <ele>485.8</ele>
        <time>2021-09-30T11:27:02Z</time>
      </trkpt>
      <trkpt lat="47.22852" lon="6.07291">
        <ele>485.6</ele>
        <time>2021-09-30T11:27:03Z</time>
      </trkpt>
      <trkpt lat="47.22838" lon="6.073">
        <ele>485.2</ele>
        <time>2021-09-30T11:27:07Z</time>
      </trkpt>
      <trkpt lat="47.22834" lon="6.07303">
        <ele>485.2</ele>
        <time>2021-09-30T11:27:08Z</time>
      </trkpt>
      <trkpt lat="47.22831" lon="6.07305">
        <ele>484.8</ele>
        <time>2021-09-30T11:27:09Z</time>
      </trkpt>
      <trkpt lat="47.22828" lon="6.07306">
        <ele>484.8</ele>
        <time>2021-09-30T11:27:10Z</time>
      </trkpt>
      <trkpt lat="47.22826" lon="6.07305">
        <ele>484.6</ele>
        <time>2021-09-30T11:27:11Z</time>
      </trkpt>
      <trkpt lat="47.22823" lon="6.07304">
        <ele>484.4</ele>
        <time>2021-09-30T11:27:12Z</time>
      </trkpt>
      <trkpt lat="47.22821" lon="6.07303">
        <ele>484.4</ele>
        <time>2021-09-30T11:27:13Z</time>
      </trkpt>
      <trkpt lat="47.22818" lon="6.07302">
        <ele>484.2</ele>
        <time>2021-09-30T11:27:14Z</time>
      </trkpt>
      <trkpt lat="47.22814" lon="6.073">
        <ele>484.2</ele>
        <time>2021-09-30T11:27:16Z</time>
      </trkpt>
      <trkpt lat="47.22812" lon="6.07299">
        <ele>484.2</ele>
        <time>2021-09-30T11:27:17Z</time>
      </trkpt>
      <trkpt lat="47.2281" lon="6.073">
        <ele>484.2</ele>
        <time>2021-09-30T11:27:18Z</time>
      </trkpt>
      <trkpt lat="47.22808" lon="6.07301">
        <ele>484.2</ele>
        <time>2021-09-30T11:27:19Z</time>
      </trkpt>
      <trkpt lat="47.22807" lon="6.07302">
        <ele>484.4</ele>
        <time>2021-09-30T11:27:20Z</time>
      </trkpt>
      <trkpt lat="47.22806" lon="6.07304">
        <ele>484.4</ele>
        <time>2021-09-30T11:27:21Z</time>
      </trkpt>
      <trkpt lat="47.22805" lon="6.07305">
        <ele>484.8</ele>
        <time>2021-09-30T11:27:22Z</time>
      </trkpt>
      <trkpt lat="47.22804" lon="6.07307">
        <ele>485</ele>
        <time>2021-09-30T11:27:23Z</time>
      </trkpt>
      <trkpt lat="47.22798" lon="6.07312">
        <ele>485.4</ele>
        <time>2021-09-30T11:27:26Z</time>
      </trkpt>
      <trkpt lat="47.22794" lon="6.07314">
        <ele>485.6</ele>
        <time>2021-09-30T11:27:27Z</time>
      </trkpt>
      <trkpt lat="47.22788" lon="6.07321">
        <ele>486</ele>
        <time>2021-09-30T11:27:30Z</time>
      </trkpt>
      <trkpt lat="47.22785" lon="6.07323">
        <ele>486</ele>
        <time>2021-09-30T11:27:31Z</time>
      </trkpt>
      <trkpt lat="47.2278" lon="6.07323">
        <ele>486.2</ele>
        <time>2021-09-30T11:27:33Z</time>
      </trkpt>
      <trkpt lat="47.22778" lon="6.07322">
        <ele>486.2</ele>
        <time>2021-09-30T11:27:34Z</time>
      </trkpt>
      <trkpt lat="47.22776" lon="6.07321">
        <ele>486.4</ele>
        <time>2021-09-30T11:27:35Z</time>
      </trkpt>
      <trkpt lat="47.22774" lon="6.0732">
        <ele>486.4</ele>
        <time>2021-09-30T11:27:36Z</time>
      </trkpt>
      <trkpt lat="47.22772" lon="6.07319">
        <ele>486.6</ele>
        <time>2021-09-30T11:27:37Z</time>
      </trkpt>
      <trkpt lat="47.22771" lon="6.07319">
        <ele>486.6</ele>
        <time>2021-09-30T11:27:38Z</time>
      </trkpt>
      <trkpt lat="47.22769" lon="6.07319">
        <ele>486.8</ele>
        <time>2021-09-30T11:27:39Z</time>
      </trkpt>
      <trkpt lat="47.22768" lon="6.07319">
        <ele>487</ele>
        <time>2021-09-30T11:27:40Z</time>
      </trkpt>
      <trkpt lat="47.22766" lon="6.07319">
        <ele>487.2</ele>
        <time>2021-09-30T11:27:41Z</time>
      </trkpt>
      <trkpt lat="47.22762" lon="6.07321">
        <ele>487.4</ele>
        <time>2021-09-30T11:27:43Z</time>
      </trkpt>
      <trkpt lat="47.22759" lon="6.07324">
        <ele>487.4</ele>
        <time>2021-09-30T11:27:44Z</time>
      </trkpt>
      <trkpt lat="47.22758" lon="6.07325">
        <ele>487.4</ele>
        <time>2021-09-30T11:27:45Z</time>
      </trkpt>
      <trkpt lat="47.22757" lon="6.07325">
        <ele>487.4</ele>
        <time>2021-09-30T11:27:46Z</time>
      </trkpt>
      <trkpt lat="47.22756" lon="6.07326">
        <ele>487.4</ele>
        <time>2021-09-30T11:27:47Z</time>
      </trkpt>
      <trkpt lat="47.22754" lon="6.07327">
        <ele>487.2</ele>
        <time>2021-09-30T11:27:48Z</time>
      </trkpt>
      <trkpt lat="47.22748" lon="6.07327">
        <ele>487.2</ele>
        <time>2021-09-30T11:27:50Z</time>
      </trkpt>
      <trkpt lat="47.22746" lon="6.07327">
        <ele>487.2</ele>
        <time>2021-09-30T11:27:51Z</time>
      </trkpt>
      <trkpt lat="47.22742" lon="6.07328">
        <ele>487</ele>
        <time>2021-09-30T11:27:52Z</time>
      </trkpt>
      <trkpt lat="47.2274" lon="6.07327">
        <ele>487</ele>
        <time>2021-09-30T11:27:53Z</time>
      </trkpt>
      <trkpt lat="47.22738" lon="6.07327">
        <ele>487.2</ele>
        <time>2021-09-30T11:27:54Z</time>
      </trkpt>
      <trkpt lat="47.22735" lon="6.07326">
        <ele>487.2</ele>
        <time>2021-09-30T11:27:55Z</time>
      </trkpt>
      <trkpt lat="47.22732" lon="6.07327">
        <ele>487.2</ele>
        <time>2021-09-30T11:27:56Z</time>
      </trkpt>
      <trkpt lat="47.22731" lon="6.07329">
        <ele>487.2</ele>
        <time>2021-09-30T11:27:57Z</time>
      </trkpt>
      <trkpt lat="47.22729" lon="6.0733">
        <ele>487.2</ele>
        <time>2021-09-30T11:27:58Z</time>
      </trkpt>
      <trkpt lat="47.22728" lon="6.07332">
        <ele>487.2</ele>
        <time>2021-09-30T11:27:59Z</time>
      </trkpt>
      <trkpt lat="47.22728" lon="6.07333">
        <ele>487.2</ele>
        <time>2021-09-30T11:28:00Z</time>
      </trkpt>
      <trkpt lat="47.22728" lon="6.07335">
        <ele>487.2</ele>
        <time>2021-09-30T11:28:01Z</time>
      </trkpt>
      <trkpt lat="47.22729" lon="6.07336">
        <ele>487</ele>
        <time>2021-09-30T11:28:02Z</time>
      </trkpt>
      <trkpt lat="47.22728" lon="6.07339">
        <ele>487</ele>
        <time>2021-09-30T11:28:03Z</time>
      </trkpt>
      <trkpt lat="47.22726" lon="6.07341">
        <ele>487</ele>
        <time>2021-09-30T11:28:04Z</time>
      </trkpt>
      <trkpt lat="47.22724" lon="6.07343">
        <ele>486.6</ele>
        <time>2021-09-30T11:28:05Z</time>
      </trkpt>
      <trkpt lat="47.22715" lon="6.07352">
        <ele>486</ele>
        <time>2021-09-30T11:28:08Z</time>
      </trkpt>
      <trkpt lat="47.22713" lon="6.07355">
        <ele>485.6</ele>
        <time>2021-09-30T11:28:09Z</time>
      </trkpt>
      <trkpt lat="47.2271" lon="6.07358">
        <ele>485.2</ele>
        <time>2021-09-30T11:28:10Z</time>
      </trkpt>
      <trkpt lat="47.22706" lon="6.07363">
        <ele>485</ele>
        <time>2021-09-30T11:28:12Z</time>
      </trkpt>
      <trkpt lat="47.22704" lon="6.07365">
        <ele>484.8</ele>
        <time>2021-09-30T11:28:13Z</time>
      </trkpt>
      <trkpt lat="47.22702" lon="6.07369">
        <ele>484</ele>
        <time>2021-09-30T11:28:14Z</time>
      </trkpt>
      <trkpt lat="47.22696" lon="6.07382">
        <ele>483.2</ele>
        <time>2021-09-30T11:28:17Z</time>
      </trkpt>
      <trkpt lat="47.22692" lon="6.07385">
        <ele>482.8</ele>
        <time>2021-09-30T11:28:18Z</time>
      </trkpt>
      <trkpt lat="47.22682" lon="6.07394">
        <ele>481.6</ele>
        <time>2021-09-30T11:28:21Z</time>
      </trkpt>
      <trkpt lat="47.2268" lon="6.07396">
        <ele>481.4</ele>
        <time>2021-09-30T11:28:22Z</time>
      </trkpt>
      <trkpt lat="47.22677" lon="6.07398">
        <ele>481</ele>
        <time>2021-09-30T11:28:23Z</time>
      </trkpt>
      <trkpt lat="47.22671" lon="6.074">
        <ele>480.6</ele>
        <time>2021-09-30T11:28:25Z</time>
      </trkpt>
      <trkpt lat="47.22668" lon="6.07401">
        <ele>480.4</ele>
        <time>2021-09-30T11:28:26Z</time>
      </trkpt>
      <trkpt lat="47.22666" lon="6.07402">
        <ele>480.2</ele>
        <time>2021-09-30T11:28:27Z</time>
      </trkpt>
      <trkpt lat="47.22664" lon="6.07403">
        <ele>480</ele>
        <time>2021-09-30T11:28:28Z</time>
      </trkpt>
      <trkpt lat="47.22662" lon="6.07404">
        <ele>479.8</ele>
        <time>2021-09-30T11:28:29Z</time>
      </trkpt>
      <trkpt lat="47.2266" lon="6.07405">
        <ele>479.4</ele>
        <time>2021-09-30T11:28:30Z</time>
      </trkpt>
      <trkpt lat="47.22657" lon="6.07409">
        <ele>479.4</ele>
        <time>2021-09-30T11:28:31Z</time>
      </trkpt>
      <trkpt lat="47.22654" lon="6.07411">
        <ele>479</ele>
        <time>2021-09-30T11:28:32Z</time>
      </trkpt>
      <trkpt lat="47.22653" lon="6.07412">
        <ele>479</ele>
        <time>2021-09-30T11:28:33Z</time>
      </trkpt>
      <trkpt lat="47.2265" lon="6.07413">
        <ele>478.8</ele>
        <time>2021-09-30T11:28:34Z</time>
      </trkpt>
      <trkpt lat="47.22649" lon="6.07415">
        <ele>478.6</ele>
        <time>2021-09-30T11:28:35Z</time>
      </trkpt>
      <trkpt lat="47.22648" lon="6.07418">
        <ele>478.4</ele>
        <time>2021-09-30T11:28:36Z</time>
      </trkpt>
      <trkpt lat="47.22645" lon="6.0742">
        <ele>478.2</ele>
        <time>2021-09-30T11:28:37Z</time>
      </trkpt>
      <trkpt lat="47.22642" lon="6.07424">
        <ele>478</ele>
        <time>2021-09-30T11:28:38Z</time>
      </trkpt>
      <trkpt lat="47.2264" lon="6.07426">
        <ele>477.6</ele>
        <time>2021-09-30T11:28:39Z</time>
      </trkpt>
      <trkpt lat="47.22639" lon="6.07425">
        <ele>477.4</ele>
        <time>2021-09-30T11:28:40Z</time>
      </trkpt>
      <trkpt lat="47.22638" lon="6.07425">
        <ele>477.2</ele>
        <time>2021-09-30T11:28:41Z</time>
      </trkpt>
      <trkpt lat="47.22638" lon="6.07425">
        <ele>476.2</ele>
        <time>2021-09-30T11:28:44Z</time>
      </trkpt>
      <trkpt lat="47.22638" lon="6.07425">
        <ele>476</ele>
        <time>2021-09-30T11:28:45Z</time>
      </trkpt>
      <trkpt lat="47.22638" lon="6.07425">
        <ele>475.6</ele>
        <time>2021-09-30T11:28:48Z</time>
      </trkpt>
      <trkpt lat="47.22632" lon="6.07431">
        <ele>475</ele>
        <time>2021-09-30T11:28:55Z</time>
      </trkpt>
      <trkpt lat="47.22628" lon="6.07436">
        <ele>474.8</ele>
        <time>2021-09-30T11:28:57Z</time>
      </trkpt>
      <trkpt lat="47.22625" lon="6.07441">
        <ele>474.2</ele>
        <time>2021-09-30T11:28:59Z</time>
      </trkpt>
      <trkpt lat="47.22624" lon="6.07443">
        <ele>474</ele>
        <time>2021-09-30T11:29:00Z</time>
      </trkpt>
      <trkpt lat="47.22623" lon="6.07445">
        <ele>473.4</ele>
        <time>2021-09-30T11:29:01Z</time>
      </trkpt>
      <trkpt lat="47.22621" lon="6.07447">
        <ele>473.4</ele>
        <time>2021-09-30T11:29:02Z</time>
      </trkpt>
      <trkpt lat="47.22615" lon="6.07456">
        <ele>472.4</ele>
        <time>2021-09-30T11:29:05Z</time>
      </trkpt>
      <trkpt lat="47.22613" lon="6.07459">
        <ele>471.8</ele>
        <time>2021-09-30T11:29:06Z</time>
      </trkpt>
      <trkpt lat="47.22611" lon="6.07463">
        <ele>471.6</ele>
        <time>2021-09-30T11:29:07Z</time>
      </trkpt>
      <trkpt lat="47.22608" lon="6.07467">
        <ele>470.8</ele>
        <time>2021-09-30T11:29:08Z</time>
      </trkpt>
      <trkpt lat="47.22606" lon="6.0747">
        <ele>470.4</ele>
        <time>2021-09-30T11:29:09Z</time>
      </trkpt>
      <trkpt lat="47.22602" lon="6.07474">
        <ele>469.6</ele>
        <time>2021-09-30T11:29:10Z</time>
      </trkpt>
      <trkpt lat="47.22597" lon="6.07479">
        <ele>468.6</ele>
        <time>2021-09-30T11:29:12Z</time>
      </trkpt>
      <trkpt lat="47.22593" lon="6.07483">
        <ele>467.2</ele>
        <time>2021-09-30T11:29:14Z</time>
      </trkpt>
      <trkpt lat="47.22591" lon="6.07484">
        <ele>466.4</ele>
        <time>2021-09-30T11:29:15Z</time>
      </trkpt>
      <trkpt lat="47.22589" lon="6.07486">
        <ele>466</ele>
        <time>2021-09-30T11:29:16Z</time>
      </trkpt>
      <trkpt lat="47.22588" lon="6.07488">
        <ele>465.2</ele>
        <time>2021-09-30T11:29:17Z</time>
      </trkpt>
      <trkpt lat="47.22586" lon="6.0749">
        <ele>465</ele>
        <time>2021-09-30T11:29:18Z</time>
      </trkpt>
      <trkpt lat="47.22583" lon="6.07493">
        <ele>464.6</ele>
        <time>2021-09-30T11:29:19Z</time>
      </trkpt>
      <trkpt lat="47.22581" lon="6.07495">
        <ele>464.2</ele>
        <time>2021-09-30T11:29:20Z</time>
      </trkpt>
      <trkpt lat="47.22578" lon="6.07497">
        <ele>463.8</ele>
        <time>2021-09-30T11:29:21Z</time>
      </trkpt>
      <trkpt lat="47.22574" lon="6.07498">
        <ele>462.4</ele>
        <time>2021-09-30T11:29:23Z</time>
      </trkpt>
      <trkpt lat="47.22572" lon="6.075">
        <ele>461.4</ele>
        <time>2021-09-30T11:29:24Z</time>
      </trkpt>
      <trkpt lat="47.2257" lon="6.07502">
        <ele>461.2</ele>
        <time>2021-09-30T11:29:25Z</time>
      </trkpt>
      <trkpt lat="47.22564" lon="6.07506">
        <ele>460</ele>
        <time>2021-09-30T11:29:28Z</time>
      </trkpt>
      <trkpt lat="47.2256" lon="6.07508">
        <ele>458.2</ele>
        <time>2021-09-30T11:29:30Z</time>
      </trkpt>
      <trkpt lat="47.22557" lon="6.07508">
        <ele>457.8</ele>
        <time>2021-09-30T11:29:31Z</time>
      </trkpt>
      <trkpt lat="47.22556" lon="6.07506">
        <ele>456.8</ele>
        <time>2021-09-30T11:29:32Z</time>
      </trkpt>
      <trkpt lat="47.22556" lon="6.07504">
        <ele>456</ele>
        <time>2021-09-30T11:29:33Z</time>
      </trkpt>
      <trkpt lat="47.22556" lon="6.07503">
        <ele>455.6</ele>
        <time>2021-09-30T11:29:34Z</time>
      </trkpt>
      <trkpt lat="47.22556" lon="6.07503">
        <ele>454.2</ele>
        <time>2021-09-30T11:29:37Z</time>
      </trkpt>
      <trkpt lat="47.22556" lon="6.07503">
        <ele>453.2</ele>
        <time>2021-09-30T11:29:45Z</time>
      </trkpt>
      <trkpt lat="47.22556" lon="6.07503">
        <ele>453</ele>
        <time>2021-09-30T11:29:54Z</time>
      </trkpt>
      <trkpt lat="47.22552" lon="6.07502">
        <ele>452.4</ele>
        <time>2021-09-30T11:30:12Z</time>
      </trkpt>
      <trkpt lat="47.22543" lon="6.07498">
        <ele>452.2</ele>
        <time>2021-09-30T11:30:15Z</time>
      </trkpt>
      <trkpt lat="47.22542" lon="6.07495">
        <ele>452</ele>
        <time>2021-09-30T11:30:16Z</time>
      </trkpt>
      <trkpt lat="47.2254" lon="6.07493">
        <ele>451.8</ele>
        <time>2021-09-30T11:30:17Z</time>
      </trkpt>
      <trkpt lat="47.22539" lon="6.07491">
        <ele>451.6</ele>
        <time>2021-09-30T11:30:18Z</time>
      </trkpt>
      <trkpt lat="47.22537" lon="6.07489">
        <ele>451.6</ele>
        <time>2021-09-30T11:30:19Z</time>
      </trkpt>
      <trkpt lat="47.22537" lon="6.07487">
        <ele>451.6</ele>
        <time>2021-09-30T11:30:20Z</time>
      </trkpt>
      <trkpt lat="47.22536" lon="6.07486">
        <ele>451.6</ele>
        <time>2021-09-30T11:30:21Z</time>
      </trkpt>
      <trkpt lat="47.22534" lon="6.07484">
        <ele>451.6</ele>
        <time>2021-09-30T11:30:22Z</time>
      </trkpt>
      <trkpt lat="47.22527" lon="6.0747">
        <ele>451.6</ele>
        <time>2021-09-30T11:30:28Z</time>
      </trkpt>
      <trkpt lat="47.22517" lon="6.07451">
        <ele>452.2</ele>
        <time>2021-09-30T11:30:35Z</time>
      </trkpt>
      <trkpt lat="47.22508" lon="6.07429">
        <ele>452.8</ele>
        <time>2021-09-30T11:30:42Z</time>
      </trkpt>
      <trkpt lat="47.22504" lon="6.07415">
        <ele>453.2</ele>
        <time>2021-09-30T11:30:46Z</time>
      </trkpt>
      <trkpt lat="47.22499" lon="6.07408">
        <ele>453.4</ele>
        <time>2021-09-30T11:30:48Z</time>
      </trkpt>
      <trkpt lat="47.22496" lon="6.07406">
        <ele>453.4</ele>
        <time>2021-09-30T11:30:49Z</time>
      </trkpt>
      <trkpt lat="47.22494" lon="6.07405">
        <ele>453.4</ele>
        <time>2021-09-30T11:30:50Z</time>
      </trkpt>
      <trkpt lat="47.22491" lon="6.07403">
        <ele>453.4</ele>
        <time>2021-09-30T11:30:51Z</time>
      </trkpt>
      <trkpt lat="47.22488" lon="6.07402">
        <ele>453.4</ele>
        <time>2021-09-30T11:30:52Z</time>
      </trkpt>
      <trkpt lat="47.22484" lon="6.07399">
        <ele>453.4</ele>
        <time>2021-09-30T11:30:54Z</time>
      </trkpt>
      <trkpt lat="47.22475" lon="6.0739">
        <ele>453.4</ele>
        <time>2021-09-30T11:30:58Z</time>
      </trkpt>
      <trkpt lat="47.22473" lon="6.07387">
        <ele>453.6</ele>
        <time>2021-09-30T11:30:59Z</time>
      </trkpt>
      <trkpt lat="47.22472" lon="6.07385">
        <ele>453.6</ele>
        <time>2021-09-30T11:31:00Z</time>
      </trkpt>
      <trkpt lat="47.2247" lon="6.07382">
        <ele>453.6</ele>
        <time>2021-09-30T11:31:01Z</time>
      </trkpt>
      <trkpt lat="47.22468" lon="6.0738">
        <ele>453.8</ele>
        <time>2021-09-30T11:31:02Z</time>
      </trkpt>
      <trkpt lat="47.22465" lon="6.07378">
        <ele>453.8</ele>
        <time>2021-09-30T11:31:03Z</time>
      </trkpt>
      <trkpt lat="47.22452" lon="6.07362">
        <ele>454.4</ele>
        <time>2021-09-30T11:31:09Z</time>
      </trkpt>
      <trkpt lat="47.22446" lon="6.07355">
        <ele>454.4</ele>
        <time>2021-09-30T11:31:11Z</time>
      </trkpt>
      <trkpt lat="47.22429" lon="6.07338">
        <ele>454.6</ele>
        <time>2021-09-30T11:31:18Z</time>
      </trkpt>
      <trkpt lat="47.22421" lon="6.07322">
        <ele>454.6</ele>
        <time>2021-09-30T11:31:22Z</time>
      </trkpt>
      <trkpt lat="47.2242" lon="6.07318">
        <ele>454.4</ele>
        <time>2021-09-30T11:31:23Z</time>
      </trkpt>
      <trkpt lat="47.22418" lon="6.07315">
        <ele>454.4</ele>
        <time>2021-09-30T11:31:24Z</time>
      </trkpt>
      <trkpt lat="47.22406" lon="6.07298">
        <ele>454.6</ele>
        <time>2021-09-30T11:31:29Z</time>
      </trkpt>
      <trkpt lat="47.224" lon="6.07291">
        <ele>454.6</ele>
        <time>2021-09-30T11:31:31Z</time>
      </trkpt>
      <trkpt lat="47.22397" lon="6.07288">
        <ele>454.6</ele>
        <time>2021-09-30T11:31:32Z</time>
      </trkpt>
      <trkpt lat="47.22384" lon="6.07273">
        <ele>454.6</ele>
        <time>2021-09-30T11:31:37Z</time>
      </trkpt>
      <trkpt lat="47.22369" lon="6.07252">
        <ele>454.2</ele>
        <time>2021-09-30T11:31:43Z</time>
      </trkpt>
      <trkpt lat="47.22367" lon="6.07247">
        <ele>454</ele>
        <time>2021-09-30T11:31:44Z</time>
      </trkpt>
      <trkpt lat="47.22365" lon="6.07244">
        <ele>454</ele>
        <time>2021-09-30T11:31:45Z</time>
      </trkpt>
      <trkpt lat="47.22361" lon="6.07238">
        <ele>454</ele>
        <time>2021-09-30T11:31:47Z</time>
      </trkpt>
      <trkpt lat="47.22358" lon="6.07235">
        <ele>454</ele>
        <time>2021-09-30T11:31:48Z</time>
      </trkpt>
      <trkpt lat="47.22356" lon="6.07232">
        <ele>454</ele>
        <time>2021-09-30T11:31:49Z</time>
      </trkpt>
      <trkpt lat="47.22353" lon="6.07226">
        <ele>453.8</ele>
        <time>2021-09-30T11:31:51Z</time>
      </trkpt>
      <trkpt lat="47.2235" lon="6.07222">
        <ele>453.8</ele>
        <time>2021-09-30T11:31:52Z</time>
      </trkpt>
      <trkpt lat="47.22347" lon="6.0722">
        <ele>453.8</ele>
        <time>2021-09-30T11:31:53Z</time>
      </trkpt>
      <trkpt lat="47.22345" lon="6.07217">
        <ele>453.8</ele>
        <time>2021-09-30T11:31:54Z</time>
      </trkpt>
      <trkpt lat="47.22343" lon="6.07215">
        <ele>453.8</ele>
        <time>2021-09-30T11:31:55Z</time>
      </trkpt>
      <trkpt lat="47.22341" lon="6.07212">
        <ele>454.2</ele>
        <time>2021-09-30T11:31:56Z</time>
      </trkpt>
      <trkpt lat="47.22339" lon="6.0721">
        <ele>454</ele>
        <time>2021-09-30T11:31:57Z</time>
      </trkpt>
      <trkpt lat="47.22336" lon="6.07207">
        <ele>454.4</ele>
        <time>2021-09-30T11:31:58Z</time>
      </trkpt>
      <trkpt lat="47.22335" lon="6.07205">
        <ele>454.4</ele>
        <time>2021-09-30T11:31:59Z</time>
      </trkpt>
      <trkpt lat="47.22333" lon="6.07203">
        <ele>454.4</ele>
        <time>2021-09-30T11:32:00Z</time>
      </trkpt>
      <trkpt lat="47.22332" lon="6.07201">
        <ele>454.6</ele>
        <time>2021-09-30T11:32:01Z</time>
      </trkpt>
      <trkpt lat="47.2233" lon="6.07198">
        <ele>454.6</ele>
        <time>2021-09-30T11:32:02Z</time>
      </trkpt>
      <trkpt lat="47.22328" lon="6.07195">
        <ele>454.8</ele>
        <time>2021-09-30T11:32:03Z</time>
      </trkpt>
      <trkpt lat="47.22323" lon="6.07187">
        <ele>455</ele>
        <time>2021-09-30T11:32:06Z</time>
      </trkpt>
      <trkpt lat="47.22319" lon="6.0718">
        <ele>455.2</ele>
        <time>2021-09-30T11:32:08Z</time>
      </trkpt>
      <trkpt lat="47.22318" lon="6.07178">
        <ele>455.4</ele>
        <time>2021-09-30T11:32:09Z</time>
      </trkpt>
      <trkpt lat="47.22316" lon="6.07176">
        <ele>455.4</ele>
        <time>2021-09-30T11:32:10Z</time>
      </trkpt>
      <trkpt lat="47.2231" lon="6.07169">
        <ele>455.8</ele>
        <time>2021-09-30T11:32:12Z</time>
      </trkpt>
      <trkpt lat="47.22309" lon="6.07166">
        <ele>456</ele>
        <time>2021-09-30T11:32:13Z</time>
      </trkpt>
      <trkpt lat="47.22307" lon="6.07163">
        <ele>456.2</ele>
        <time>2021-09-30T11:32:14Z</time>
      </trkpt>
      <trkpt lat="47.22306" lon="6.07159">
        <ele>456.4</ele>
        <time>2021-09-30T11:32:15Z</time>
      </trkpt>
      <trkpt lat="47.22305" lon="6.07156">
        <ele>456.6</ele>
        <time>2021-09-30T11:32:16Z</time>
      </trkpt>
      <trkpt lat="47.22303" lon="6.07152">
        <ele>456.6</ele>
        <time>2021-09-30T11:32:17Z</time>
      </trkpt>
      <trkpt lat="47.22302" lon="6.07149">
        <ele>456.8</ele>
        <time>2021-09-30T11:32:18Z</time>
      </trkpt>
      <trkpt lat="47.223" lon="6.07147">
        <ele>457</ele>
        <time>2021-09-30T11:32:19Z</time>
      </trkpt>
      <trkpt lat="47.22296" lon="6.07143">
        <ele>457.2</ele>
        <time>2021-09-30T11:32:20Z</time>
      </trkpt>
      <trkpt lat="47.22294" lon="6.07141">
        <ele>457.2</ele>
        <time>2021-09-30T11:32:21Z</time>
      </trkpt>
      <trkpt lat="47.22292" lon="6.07139">
        <ele>457.2</ele>
        <time>2021-09-30T11:32:22Z</time>
      </trkpt>
      <trkpt lat="47.2229" lon="6.07135">
        <ele>457.4</ele>
        <time>2021-09-30T11:32:23Z</time>
      </trkpt>
      <trkpt lat="47.22287" lon="6.07131">
        <ele>457.4</ele>
        <time>2021-09-30T11:32:24Z</time>
      </trkpt>
      <trkpt lat="47.22285" lon="6.07129">
        <ele>457.6</ele>
        <time>2021-09-30T11:32:25Z</time>
      </trkpt>
      <trkpt lat="47.22283" lon="6.07125">
        <ele>457.6</ele>
        <time>2021-09-30T11:32:26Z</time>
      </trkpt>
      <trkpt lat="47.22281" lon="6.07121">
        <ele>457.6</ele>
        <time>2021-09-30T11:32:27Z</time>
      </trkpt>
      <trkpt lat="47.22279" lon="6.07118">
        <ele>457.6</ele>
        <time>2021-09-30T11:32:28Z</time>
      </trkpt>
      <trkpt lat="47.22277" lon="6.07115">
        <ele>457.8</ele>
        <time>2021-09-30T11:32:29Z</time>
      </trkpt>
      <trkpt lat="47.22275" lon="6.07112">
        <ele>457.8</ele>
        <time>2021-09-30T11:32:30Z</time>
      </trkpt>
      <trkpt lat="47.22274" lon="6.07108">
        <ele>457.8</ele>
        <time>2021-09-30T11:32:31Z</time>
      </trkpt>
      <trkpt lat="47.22272" lon="6.07105">
        <ele>458</ele>
        <time>2021-09-30T11:32:32Z</time>
      </trkpt>
      <trkpt lat="47.2227" lon="6.07101">
        <ele>458</ele>
        <time>2021-09-30T11:32:33Z</time>
      </trkpt>
      <trkpt lat="47.22269" lon="6.071">
        <ele>458</ele>
        <time>2021-09-30T11:32:34Z</time>
      </trkpt>
      <trkpt lat="47.22266" lon="6.07096">
        <ele>458</ele>
        <time>2021-09-30T11:32:35Z</time>
      </trkpt>
      <trkpt lat="47.22265" lon="6.07094">
        <ele>458.2</ele>
        <time>2021-09-30T11:32:36Z</time>
      </trkpt>
      <trkpt lat="47.22258" lon="6.0708">
        <ele>458.6</ele>
        <time>2021-09-30T11:32:41Z</time>
      </trkpt>
      <trkpt lat="47.22256" lon="6.07076">
        <ele>458.8</ele>
        <time>2021-09-30T11:32:43Z</time>
      </trkpt>
      <trkpt lat="47.22252" lon="6.07071">
        <ele>459</ele>
        <time>2021-09-30T11:32:45Z</time>
      </trkpt>
      <trkpt lat="47.22245" lon="6.07061">
        <ele>459.2</ele>
        <time>2021-09-30T11:32:49Z</time>
      </trkpt>
      <trkpt lat="47.22243" lon="6.07059">
        <ele>459.4</ele>
        <time>2021-09-30T11:32:50Z</time>
      </trkpt>
      <trkpt lat="47.22226" lon="6.07029">
        <ele>460</ele>
        <time>2021-09-30T11:32:58Z</time>
      </trkpt>
      <trkpt lat="47.22223" lon="6.07025">
        <ele>460</ele>
        <time>2021-09-30T11:32:59Z</time>
      </trkpt>
      <trkpt lat="47.22207" lon="6.07005">
        <ele>461</ele>
        <time>2021-09-30T11:33:05Z</time>
      </trkpt>
      <trkpt lat="47.22203" lon="6.06999">
        <ele>461.8</ele>
        <time>2021-09-30T11:33:08Z</time>
      </trkpt>
      <trkpt lat="47.22203" lon="6.06997">
        <ele>462</ele>
        <time>2021-09-30T11:33:09Z</time>
      </trkpt>
      <trkpt lat="47.22202" lon="6.06995">
        <ele>462.4</ele>
        <time>2021-09-30T11:33:10Z</time>
      </trkpt>
      <trkpt lat="47.22201" lon="6.06991">
        <ele>462.4</ele>
        <time>2021-09-30T11:33:11Z</time>
      </trkpt>
      <trkpt lat="47.22199" lon="6.06987">
        <ele>462.6</ele>
        <time>2021-09-30T11:33:12Z</time>
      </trkpt>
      <trkpt lat="47.22198" lon="6.06986">
        <ele>462.8</ele>
        <time>2021-09-30T11:33:13Z</time>
      </trkpt>
      <trkpt lat="47.22199" lon="6.06984">
        <ele>463</ele>
        <time>2021-09-30T11:33:14Z</time>
      </trkpt>
      <trkpt lat="47.22198" lon="6.06981">
        <ele>463.2</ele>
        <time>2021-09-30T11:33:15Z</time>
      </trkpt>
      <trkpt lat="47.22198" lon="6.0698">
        <ele>463.4</ele>
        <time>2021-09-30T11:33:16Z</time>
      </trkpt>
      <trkpt lat="47.22198" lon="6.06978">
        <ele>463.6</ele>
        <time>2021-09-30T11:33:17Z</time>
      </trkpt>
      <trkpt lat="47.22197" lon="6.06975">
        <ele>463.6</ele>
        <time>2021-09-30T11:33:18Z</time>
      </trkpt>
      <trkpt lat="47.22196" lon="6.06973">
        <ele>463.6</ele>
        <time>2021-09-30T11:33:19Z</time>
      </trkpt>
      <trkpt lat="47.22195" lon="6.06971">
        <ele>463.8</ele>
        <time>2021-09-30T11:33:20Z</time>
      </trkpt>
      <trkpt lat="47.22194" lon="6.06968">
        <ele>463.8</ele>
        <time>2021-09-30T11:33:21Z</time>
      </trkpt>
      <trkpt lat="47.22193" lon="6.06966">
        <ele>464</ele>
        <time>2021-09-30T11:33:22Z</time>
      </trkpt>
      <trkpt lat="47.22192" lon="6.06964">
        <ele>464</ele>
        <time>2021-09-30T11:33:23Z</time>
      </trkpt>
      <trkpt lat="47.2219" lon="6.06962">
        <ele>464.4</ele>
        <time>2021-09-30T11:33:24Z</time>
      </trkpt>
      <trkpt lat="47.22189" lon="6.06961">
        <ele>464.4</ele>
        <time>2021-09-30T11:33:25Z</time>
      </trkpt>
      <trkpt lat="47.22188" lon="6.06959">
        <ele>464.6</ele>
        <time>2021-09-30T11:33:26Z</time>
      </trkpt>
      <trkpt lat="47.22186" lon="6.06957">
        <ele>464.6</ele>
        <time>2021-09-30T11:33:27Z</time>
      </trkpt>
      <trkpt lat="47.22185" lon="6.06956">
        <ele>464.8</ele>
        <time>2021-09-30T11:33:28Z</time>
      </trkpt>
      <trkpt lat="47.22184" lon="6.06954">
        <ele>465</ele>
        <time>2021-09-30T11:33:29Z</time>
      </trkpt>
      <trkpt lat="47.22182" lon="6.06952">
        <ele>465.4</ele>
        <time>2021-09-30T11:33:30Z</time>
      </trkpt>
      <trkpt lat="47.2218" lon="6.0695">
        <ele>465.4</ele>
        <time>2021-09-30T11:33:31Z</time>
      </trkpt>
      <trkpt lat="47.22179" lon="6.06947">
        <ele>465.8</ele>
        <time>2021-09-30T11:33:32Z</time>
      </trkpt>
      <trkpt lat="47.22177" lon="6.06945">
        <ele>466</ele>
        <time>2021-09-30T11:33:33Z</time>
      </trkpt>
      <trkpt lat="47.22175" lon="6.06943">
        <ele>466.2</ele>
        <time>2021-09-30T11:33:34Z</time>
      </trkpt>
      <trkpt lat="47.22173" lon="6.06939">
        <ele>466.4</ele>
        <time>2021-09-30T11:33:35Z</time>
      </trkpt>
      <trkpt lat="47.22171" lon="6.06936">
        <ele>466.4</ele>
        <time>2021-09-30T11:33:36Z</time>
      </trkpt>
      <trkpt lat="47.2217" lon="6.06933">
        <ele>466.6</ele>
        <time>2021-09-30T11:33:37Z</time>
      </trkpt>
      <trkpt lat="47.22169" lon="6.06931">
        <ele>466.8</ele>
        <time>2021-09-30T11:33:38Z</time>
      </trkpt>
      <trkpt lat="47.22168" lon="6.06929">
        <ele>467</ele>
        <time>2021-09-30T11:33:39Z</time>
      </trkpt>
      <trkpt lat="47.22168" lon="6.06927">
        <ele>467</ele>
        <time>2021-09-30T11:33:40Z</time>
      </trkpt>
      <trkpt lat="47.22166" lon="6.06926">
        <ele>467.2</ele>
        <time>2021-09-30T11:33:41Z</time>
      </trkpt>
      <trkpt lat="47.22165" lon="6.06924">
        <ele>467.4</ele>
        <time>2021-09-30T11:33:42Z</time>
      </trkpt>
      <trkpt lat="47.22164" lon="6.06923">
        <ele>467.6</ele>
        <time>2021-09-30T11:33:43Z</time>
      </trkpt>
      <trkpt lat="47.22163" lon="6.06922">
        <ele>467.4</ele>
        <time>2021-09-30T11:33:44Z</time>
      </trkpt>
      <trkpt lat="47.22161" lon="6.06921">
        <ele>467.6</ele>
        <time>2021-09-30T11:33:45Z</time>
      </trkpt>
      <trkpt lat="47.22159" lon="6.0692">
        <ele>467.6</ele>
        <time>2021-09-30T11:33:46Z</time>
      </trkpt>
      <trkpt lat="47.22158" lon="6.06918">
        <ele>467.8</ele>
        <time>2021-09-30T11:33:47Z</time>
      </trkpt>
      <trkpt lat="47.22155" lon="6.06916">
        <ele>467.8</ele>
        <time>2021-09-30T11:33:48Z</time>
      </trkpt>
      <trkpt lat="47.22153" lon="6.06914">
        <ele>468</ele>
        <time>2021-09-30T11:33:49Z</time>
      </trkpt>
      <trkpt lat="47.22151" lon="6.06913">
        <ele>468.2</ele>
        <time>2021-09-30T11:33:50Z</time>
      </trkpt>
      <trkpt lat="47.22149" lon="6.06911">
        <ele>468.4</ele>
        <time>2021-09-30T11:33:51Z</time>
      </trkpt>
      <trkpt lat="47.22147" lon="6.0691">
        <ele>468.4</ele>
        <time>2021-09-30T11:33:52Z</time>
      </trkpt>
      <trkpt lat="47.22146" lon="6.06908">
        <ele>468.6</ele>
        <time>2021-09-30T11:33:53Z</time>
      </trkpt>
      <trkpt lat="47.22145" lon="6.06907">
        <ele>468.8</ele>
        <time>2021-09-30T11:33:54Z</time>
      </trkpt>
      <trkpt lat="47.22144" lon="6.06905">
        <ele>469.2</ele>
        <time>2021-09-30T11:33:55Z</time>
      </trkpt>
      <trkpt lat="47.22143" lon="6.06904">
        <ele>469.4</ele>
        <time>2021-09-30T11:33:56Z</time>
      </trkpt>
      <trkpt lat="47.22141" lon="6.06902">
        <ele>470</ele>
        <time>2021-09-30T11:33:57Z</time>
      </trkpt>
      <trkpt lat="47.2214" lon="6.06901">
        <ele>470.2</ele>
        <time>2021-09-30T11:33:58Z</time>
      </trkpt>
      <trkpt lat="47.22139" lon="6.06899">
        <ele>470.8</ele>
        <time>2021-09-30T11:33:59Z</time>
      </trkpt>
      <trkpt lat="47.22137" lon="6.06898">
        <ele>471</ele>
        <time>2021-09-30T11:34:00Z</time>
      </trkpt>
      <trkpt lat="47.22136" lon="6.06897">
        <ele>471.6</ele>
        <time>2021-09-30T11:34:01Z</time>
      </trkpt>
      <trkpt lat="47.22135" lon="6.06896">
        <ele>472.4</ele>
        <time>2021-09-30T11:34:02Z</time>
      </trkpt>
      <trkpt lat="47.22135" lon="6.06895">
        <ele>472.8</ele>
        <time>2021-09-30T11:34:03Z</time>
      </trkpt>
      <trkpt lat="47.22133" lon="6.06894">
        <ele>473.2</ele>
        <time>2021-09-30T11:34:04Z</time>
      </trkpt>
      <trkpt lat="47.22132" lon="6.06892">
        <ele>473.2</ele>
        <time>2021-09-30T11:34:05Z</time>
      </trkpt>
      <trkpt lat="47.2213" lon="6.06891">
        <ele>473.6</ele>
        <time>2021-09-30T11:34:06Z</time>
      </trkpt>
      <trkpt lat="47.22129" lon="6.0689">
        <ele>473.8</ele>
        <time>2021-09-30T11:34:07Z</time>
      </trkpt>
      <trkpt lat="47.22128" lon="6.06889">
        <ele>474</ele>
        <time>2021-09-30T11:34:08Z</time>
      </trkpt>
      <trkpt lat="47.22126" lon="6.06888">
        <ele>474</ele>
        <time>2021-09-30T11:34:09Z</time>
      </trkpt>
      <trkpt lat="47.22125" lon="6.06887">
        <ele>474.4</ele>
        <time>2021-09-30T11:34:10Z</time>
      </trkpt>
      <trkpt lat="47.22123" lon="6.06886">
        <ele>474.8</ele>
        <time>2021-09-30T11:34:11Z</time>
      </trkpt>
      <trkpt lat="47.22123" lon="6.06885">
        <ele>475</ele>
        <time>2021-09-30T11:34:12Z</time>
      </trkpt>
      <trkpt lat="47.22123" lon="6.06885">
        <ele>475.2</ele>
        <time>2021-09-30T11:34:13Z</time>
      </trkpt>
      <trkpt lat="47.22118" lon="6.06878">
        <ele>475.4</ele>
        <time>2021-09-30T11:35:10Z</time>
      </trkpt>
      <trkpt lat="47.22114" lon="6.06873">
        <ele>475.6</ele>
        <time>2021-09-30T11:35:12Z</time>
      </trkpt>
      <trkpt lat="47.22113" lon="6.06871">
        <ele>475.6</ele>
        <time>2021-09-30T11:35:13Z</time>
      </trkpt>
      <trkpt lat="47.22111" lon="6.06869">
        <ele>475.6</ele>
        <time>2021-09-30T11:35:14Z</time>
      </trkpt>
      <trkpt lat="47.22109" lon="6.06867">
        <ele>475.6</ele>
        <time>2021-09-30T11:35:15Z</time>
      </trkpt>
      <trkpt lat="47.22101" lon="6.06857">
        <ele>475.8</ele>
        <time>2021-09-30T11:35:21Z</time>
      </trkpt>
      <trkpt lat="47.22099" lon="6.06855">
        <ele>476</ele>
        <time>2021-09-30T11:35:22Z</time>
      </trkpt>
      <trkpt lat="47.22096" lon="6.06849">
        <ele>476</ele>
        <time>2021-09-30T11:35:25Z</time>
      </trkpt>
      <trkpt lat="47.22095" lon="6.06846">
        <ele>476</ele>
        <time>2021-09-30T11:35:26Z</time>
      </trkpt>
      <trkpt lat="47.22093" lon="6.06843">
        <ele>476</ele>
        <time>2021-09-30T11:35:27Z</time>
      </trkpt>
      <trkpt lat="47.22092" lon="6.0684">
        <ele>476.2</ele>
        <time>2021-09-30T11:35:28Z</time>
      </trkpt>
      <trkpt lat="47.22089" lon="6.06836">
        <ele>476.4</ele>
        <time>2021-09-30T11:35:29Z</time>
      </trkpt>
      <trkpt lat="47.2208" lon="6.06824">
        <ele>476.4</ele>
        <time>2021-09-30T11:35:33Z</time>
      </trkpt>
      <trkpt lat="47.22078" lon="6.06822">
        <ele>476.6</ele>
        <time>2021-09-30T11:35:34Z</time>
      </trkpt>
      <trkpt lat="47.2207" lon="6.0681">
        <ele>477</ele>
        <time>2021-09-30T11:35:40Z</time>
      </trkpt>
      <trkpt lat="47.22066" lon="6.06807">
        <ele>477</ele>
        <time>2021-09-30T11:35:41Z</time>
      </trkpt>
      <trkpt lat="47.22063" lon="6.06804">
        <ele>477.2</ele>
        <time>2021-09-30T11:35:42Z</time>
      </trkpt>
      <trkpt lat="47.22062" lon="6.06803">
        <ele>477.4</ele>
        <time>2021-09-30T11:35:43Z</time>
      </trkpt>
      <trkpt lat="47.22061" lon="6.06801">
        <ele>477.6</ele>
        <time>2021-09-30T11:35:44Z</time>
      </trkpt>
      <trkpt lat="47.2206" lon="6.068">
        <ele>477.8</ele>
        <time>2021-09-30T11:35:45Z</time>
      </trkpt>
      <trkpt lat="47.22059" lon="6.06799">
        <ele>478</ele>
        <time>2021-09-30T11:35:46Z</time>
      </trkpt>
      <trkpt lat="47.22057" lon="6.06797">
        <ele>478.4</ele>
        <time>2021-09-30T11:35:48Z</time>
      </trkpt>
      <trkpt lat="47.22056" lon="6.06796">
        <ele>479</ele>
        <time>2021-09-30T11:35:49Z</time>
      </trkpt>
      <trkpt lat="47.22055" lon="6.06796">
        <ele>479.6</ele>
        <time>2021-09-30T11:35:50Z</time>
      </trkpt>
      <trkpt lat="47.22055" lon="6.06796">
        <ele>480</ele>
        <time>2021-09-30T11:35:51Z</time>
      </trkpt>
      <trkpt lat="47.22054" lon="6.06796">
        <ele>480.2</ele>
        <time>2021-09-30T11:35:52Z</time>
      </trkpt>
      <trkpt lat="47.22053" lon="6.06795">
        <ele>480.4</ele>
        <time>2021-09-30T11:35:53Z</time>
      </trkpt>
      <trkpt lat="47.22052" lon="6.06794">
        <ele>480.8</ele>
        <time>2021-09-30T11:35:54Z</time>
      </trkpt>
      <trkpt lat="47.2205" lon="6.06792">
        <ele>481.4</ele>
        <time>2021-09-30T11:35:55Z</time>
      </trkpt>
      <trkpt lat="47.22049" lon="6.06791">
        <ele>481.6</ele>
        <time>2021-09-30T11:35:56Z</time>
      </trkpt>
      <trkpt lat="47.22047" lon="6.0679">
        <ele>482</ele>
        <time>2021-09-30T11:35:57Z</time>
      </trkpt>
      <trkpt lat="47.22046" lon="6.06789">
        <ele>482</ele>
        <time>2021-09-30T11:35:58Z</time>
      </trkpt>
      <trkpt lat="47.22045" lon="6.06789">
        <ele>482.4</ele>
        <time>2021-09-30T11:35:59Z</time>
      </trkpt>
      <trkpt lat="47.22044" lon="6.06788">
        <ele>482.6</ele>
        <time>2021-09-30T11:36:00Z</time>
      </trkpt>
      <trkpt lat="47.22042" lon="6.06787">
        <ele>482.8</ele>
        <time>2021-09-30T11:36:01Z</time>
      </trkpt>
      <trkpt lat="47.2204" lon="6.06786">
        <ele>483</ele>
        <time>2021-09-30T11:36:02Z</time>
      </trkpt>
      <trkpt lat="47.22038" lon="6.06784">
        <ele>483.2</ele>
        <time>2021-09-30T11:36:03Z</time>
      </trkpt>
      <trkpt lat="47.22037" lon="6.06782">
        <ele>483.4</ele>
        <time>2021-09-30T11:36:04Z</time>
      </trkpt>
      <trkpt lat="47.22035" lon="6.06781">
        <ele>483.4</ele>
        <time>2021-09-30T11:36:05Z</time>
      </trkpt>
      <trkpt lat="47.22034" lon="6.06779">
        <ele>483.6</ele>
        <time>2021-09-30T11:36:06Z</time>
      </trkpt>
      <trkpt lat="47.22033" lon="6.06777">
        <ele>483.6</ele>
        <time>2021-09-30T11:36:07Z</time>
      </trkpt>
      <trkpt lat="47.22033" lon="6.06775">
        <ele>483.8</ele>
        <time>2021-09-30T11:36:08Z</time>
      </trkpt>
      <trkpt lat="47.22032" lon="6.06774">
        <ele>484</ele>
        <time>2021-09-30T11:36:09Z</time>
      </trkpt>
      <trkpt lat="47.22032" lon="6.06772">
        <ele>484</ele>
        <time>2021-09-30T11:36:10Z</time>
      </trkpt>
      <trkpt lat="47.22031" lon="6.0677">
        <ele>484</ele>
        <time>2021-09-30T11:36:11Z</time>
      </trkpt>
      <trkpt lat="47.2203" lon="6.06769">
        <ele>484</ele>
        <time>2021-09-30T11:36:12Z</time>
      </trkpt>
      <trkpt lat="47.22028" lon="6.06767">
        <ele>484.2</ele>
        <time>2021-09-30T11:36:13Z</time>
      </trkpt>
      <trkpt lat="47.22025" lon="6.06765">
        <ele>484.2</ele>
        <time>2021-09-30T11:36:14Z</time>
      </trkpt>
      <trkpt lat="47.22024" lon="6.06764">
        <ele>484.4</ele>
        <time>2021-09-30T11:36:15Z</time>
      </trkpt>
      <trkpt lat="47.22023" lon="6.06763">
        <ele>484.4</ele>
        <time>2021-09-30T11:36:16Z</time>
      </trkpt>
      <trkpt lat="47.22022" lon="6.06761">
        <ele>484.2</ele>
        <time>2021-09-30T11:36:17Z</time>
      </trkpt>
      <trkpt lat="47.2202" lon="6.06759">
        <ele>484.2</ele>
        <time>2021-09-30T11:36:18Z</time>
      </trkpt>
      <trkpt lat="47.22019" lon="6.06759">
        <ele>484.4</ele>
        <time>2021-09-30T11:36:19Z</time>
      </trkpt>
      <trkpt lat="47.22019" lon="6.06759">
        <ele>484.4</ele>
        <time>2021-09-30T11:36:20Z</time>
      </trkpt>
      <trkpt lat="47.22018" lon="6.06757">
        <ele>484.4</ele>
        <time>2021-09-30T11:36:21Z</time>
      </trkpt>
      <trkpt lat="47.22016" lon="6.06755">
        <ele>484.4</ele>
        <time>2021-09-30T11:36:22Z</time>
      </trkpt>
      <trkpt lat="47.22014" lon="6.06752">
        <ele>484.6</ele>
        <time>2021-09-30T11:36:23Z</time>
      </trkpt>
      <trkpt lat="47.22013" lon="6.0675">
        <ele>484.4</ele>
        <time>2021-09-30T11:36:24Z</time>
      </trkpt>
      <trkpt lat="47.22012" lon="6.06748">
        <ele>484.4</ele>
        <time>2021-09-30T11:36:25Z</time>
      </trkpt>
      <trkpt lat="47.2201" lon="6.06745">
        <ele>484.4</ele>
        <time>2021-09-30T11:36:26Z</time>
      </trkpt>
      <trkpt lat="47.22008" lon="6.06743">
        <ele>484.6</ele>
        <time>2021-09-30T11:36:27Z</time>
      </trkpt>
      <trkpt lat="47.22006" lon="6.06741">
        <ele>484.6</ele>
        <time>2021-09-30T11:36:28Z</time>
      </trkpt>
      <trkpt lat="47.22003" lon="6.06736">
        <ele>484.6</ele>
        <time>2021-09-30T11:36:31Z</time>
      </trkpt>
      <trkpt lat="47.22004" lon="6.06734">
        <ele>484.4</ele>
        <time>2021-09-30T11:36:32Z</time>
      </trkpt>
      <trkpt lat="47.22005" lon="6.06733">
        <ele>484.4</ele>
        <time>2021-09-30T11:36:33Z</time>
      </trkpt>
      <trkpt lat="47.22004" lon="6.06732">
        <ele>484.4</ele>
        <time>2021-09-30T11:36:34Z</time>
      </trkpt>
      <trkpt lat="47.22004" lon="6.0673">
        <ele>484.4</ele>
        <time>2021-09-30T11:36:35Z</time>
      </trkpt>
      <trkpt lat="47.22003" lon="6.06729">
        <ele>484.4</ele>
        <time>2021-09-30T11:36:36Z</time>
      </trkpt>
      <trkpt lat="47.22001" lon="6.06725">
        <ele>484.4</ele>
        <time>2021-09-30T11:36:39Z</time>
      </trkpt>
      <trkpt lat="47.21998" lon="6.06722">
        <ele>484.4</ele>
        <time>2021-09-30T11:36:41Z</time>
      </trkpt>
      <trkpt lat="47.21992" lon="6.06715">
        <ele>484.4</ele>
        <time>2021-09-30T11:36:46Z</time>
      </trkpt>
      <trkpt lat="47.21986" lon="6.06707">
        <ele>484.4</ele>
        <time>2021-09-30T11:36:50Z</time>
      </trkpt>
      <trkpt lat="47.21983" lon="6.06702">
        <ele>484.2</ele>
        <time>2021-09-30T11:36:52Z</time>
      </trkpt>
      <trkpt lat="47.21982" lon="6.067">
        <ele>484.2</ele>
        <time>2021-09-30T11:36:53Z</time>
      </trkpt>
      <trkpt lat="47.21978" lon="6.06693">
        <ele>484</ele>
        <time>2021-09-30T11:36:56Z</time>
      </trkpt>
      <trkpt lat="47.21976" lon="6.06691">
        <ele>484</ele>
        <time>2021-09-30T11:36:57Z</time>
      </trkpt>
      <trkpt lat="47.21972" lon="6.06685">
        <ele>483.8</ele>
        <time>2021-09-30T11:36:59Z</time>
      </trkpt>
      <trkpt lat="47.21971" lon="6.06683">
        <ele>483.8</ele>
        <time>2021-09-30T11:37:00Z</time>
      </trkpt>
      <trkpt lat="47.21957" lon="6.06662">
        <ele>483.4</ele>
        <time>2021-09-30T11:37:07Z</time>
      </trkpt>
      <trkpt lat="47.21956" lon="6.0666">
        <ele>483.4</ele>
        <time>2021-09-30T11:37:08Z</time>
      </trkpt>
      <trkpt lat="47.21954" lon="6.06659">
        <ele>483.2</ele>
        <time>2021-09-30T11:37:09Z</time>
      </trkpt>
      <trkpt lat="47.21952" lon="6.06657">
        <ele>483.2</ele>
        <time>2021-09-30T11:37:10Z</time>
      </trkpt>
      <trkpt lat="47.21948" lon="6.06654">
        <ele>483.2</ele>
        <time>2021-09-30T11:37:11Z</time>
      </trkpt>
      <trkpt lat="47.21944" lon="6.06651">
        <ele>483</ele>
        <time>2021-09-30T11:37:14Z</time>
      </trkpt>
      <trkpt lat="47.21942" lon="6.0665">
        <ele>483</ele>
        <time>2021-09-30T11:37:15Z</time>
      </trkpt>
      <trkpt lat="47.21941" lon="6.06648">
        <ele>483</ele>
        <time>2021-09-30T11:37:16Z</time>
      </trkpt>
      <trkpt lat="47.2194" lon="6.06647">
        <ele>482.8</ele>
        <time>2021-09-30T11:37:17Z</time>
      </trkpt>
      <trkpt lat="47.21938" lon="6.06645">
        <ele>482.8</ele>
        <time>2021-09-30T11:37:18Z</time>
      </trkpt>
      <trkpt lat="47.21937" lon="6.06642">
        <ele>482.6</ele>
        <time>2021-09-30T11:37:19Z</time>
      </trkpt>
      <trkpt lat="47.21935" lon="6.0664">
        <ele>482.4</ele>
        <time>2021-09-30T11:37:20Z</time>
      </trkpt>
      <trkpt lat="47.21931" lon="6.06635">
        <ele>482.2</ele>
        <time>2021-09-30T11:37:22Z</time>
      </trkpt>
      <trkpt lat="47.21931" lon="6.06633">
        <ele>482</ele>
        <time>2021-09-30T11:37:23Z</time>
      </trkpt>
      <trkpt lat="47.2193" lon="6.06632">
        <ele>482</ele>
        <time>2021-09-30T11:37:24Z</time>
      </trkpt>
      <trkpt lat="47.21926" lon="6.06626">
        <ele>481.8</ele>
        <time>2021-09-30T11:37:26Z</time>
      </trkpt>
      <trkpt lat="47.21921" lon="6.06615">
        <ele>481.6</ele>
        <time>2021-09-30T11:37:30Z</time>
      </trkpt>
      <trkpt lat="47.2192" lon="6.06613">
        <ele>481.6</ele>
        <time>2021-09-30T11:37:31Z</time>
      </trkpt>
      <trkpt lat="47.21918" lon="6.06612">
        <ele>481.4</ele>
        <time>2021-09-30T11:37:32Z</time>
      </trkpt>
      <trkpt lat="47.21917" lon="6.0661">
        <ele>481.2</ele>
        <time>2021-09-30T11:37:33Z</time>
      </trkpt>
      <trkpt lat="47.21915" lon="6.06608">
        <ele>481</ele>
        <time>2021-09-30T11:37:34Z</time>
      </trkpt>
      <trkpt lat="47.21912" lon="6.06603">
        <ele>481</ele>
        <time>2021-09-30T11:37:36Z</time>
      </trkpt>
      <trkpt lat="47.2191" lon="6.06601">
        <ele>480.8</ele>
        <time>2021-09-30T11:37:37Z</time>
      </trkpt>
      <trkpt lat="47.2191" lon="6.06601">
        <ele>480.8</ele>
        <time>2021-09-30T11:37:38Z</time>
      </trkpt>
      <trkpt lat="47.21909" lon="6.066">
        <ele>480.4</ele>
        <time>2021-09-30T11:37:39Z</time>
      </trkpt>
      <trkpt lat="47.21903" lon="6.06593">
        <ele>480</ele>
        <time>2021-09-30T11:37:41Z</time>
      </trkpt>
      <trkpt lat="47.21897" lon="6.06582">
        <ele>479.8</ele>
        <time>2021-09-30T11:37:43Z</time>
      </trkpt>
      <trkpt lat="47.2189" lon="6.06575">
        <ele>478.8</ele>
        <time>2021-09-30T11:37:45Z</time>
      </trkpt>
      <trkpt lat="47.21888" lon="6.06573">
        <ele>478.2</ele>
        <time>2021-09-30T11:37:46Z</time>
      </trkpt>
      <trkpt lat="47.21886" lon="6.06572">
        <ele>478</ele>
        <time>2021-09-30T11:37:47Z</time>
      </trkpt>
      <trkpt lat="47.21886" lon="6.06572">
        <ele>477.6</ele>
        <time>2021-09-30T11:37:48Z</time>
      </trkpt>
      <trkpt lat="47.21886" lon="6.06572">
        <ele>477.2</ele>
        <time>2021-09-30T11:37:52Z</time>
      </trkpt>
      <trkpt lat="47.21886" lon="6.06573">
        <ele>477</ele>
        <time>2021-09-30T11:37:58Z</time>
      </trkpt>
      <trkpt lat="47.21885" lon="6.06573">
        <ele>477</ele>
        <time>2021-09-30T11:37:59Z</time>
      </trkpt>
      <trkpt lat="47.21882" lon="6.06572">
        <ele>477</ele>
        <time>2021-09-30T11:38:02Z</time>
      </trkpt>
      <trkpt lat="47.21878" lon="6.06571">
        <ele>476.8</ele>
        <time>2021-09-30T11:38:04Z</time>
      </trkpt>
      <trkpt lat="47.21873" lon="6.0657">
        <ele>476.6</ele>
        <time>2021-09-30T11:38:06Z</time>
      </trkpt>
      <trkpt lat="47.2187" lon="6.06569">
        <ele>476.4</ele>
        <time>2021-09-30T11:38:07Z</time>
      </trkpt>
      <trkpt lat="47.21867" lon="6.06569">
        <ele>475.2</ele>
        <time>2021-09-30T11:38:09Z</time>
      </trkpt>
      <trkpt lat="47.21866" lon="6.06569">
        <ele>474.8</ele>
        <time>2021-09-30T11:38:10Z</time>
      </trkpt>
      <trkpt lat="47.21865" lon="6.06569">
        <ele>474.4</ele>
        <time>2021-09-30T11:38:11Z</time>
      </trkpt>
      <trkpt lat="47.21865" lon="6.06569">
        <ele>474</ele>
        <time>2021-09-30T11:38:13Z</time>
      </trkpt>
      <trkpt lat="47.21861" lon="6.06569">
        <ele>473.6</ele>
        <time>2021-09-30T11:38:22Z</time>
      </trkpt>
      <trkpt lat="47.21854" lon="6.06568">
        <ele>473.6</ele>
        <time>2021-09-30T11:38:25Z</time>
      </trkpt>
      <trkpt lat="47.21852" lon="6.06566">
        <ele>473.4</ele>
        <time>2021-09-30T11:38:26Z</time>
      </trkpt>
      <trkpt lat="47.21852" lon="6.06565">
        <ele>473.2</ele>
        <time>2021-09-30T11:38:27Z</time>
      </trkpt>
      <trkpt lat="47.21852" lon="6.06563">
        <ele>472.8</ele>
        <time>2021-09-30T11:38:28Z</time>
      </trkpt>
      <trkpt lat="47.21852" lon="6.0656">
        <ele>472.6</ele>
        <time>2021-09-30T11:38:29Z</time>
      </trkpt>
      <trkpt lat="47.21852" lon="6.06559">
        <ele>471.2</ele>
        <time>2021-09-30T11:38:32Z</time>
      </trkpt>
      <trkpt lat="47.21852" lon="6.06559">
        <ele>470.6</ele>
        <time>2021-09-30T11:38:34Z</time>
      </trkpt>
      <trkpt lat="47.21851" lon="6.06559">
        <ele>470.6</ele>
        <time>2021-09-30T11:38:43Z</time>
      </trkpt>
      <trkpt lat="47.2185" lon="6.06556">
        <ele>472</ele>
        <time>2021-09-30T11:38:51Z</time>
      </trkpt>
      <trkpt lat="47.2185" lon="6.06554">
        <ele>472.2</ele>
        <time>2021-09-30T11:38:52Z</time>
      </trkpt>
      <trkpt lat="47.21849" lon="6.06553">
        <ele>472.4</ele>
        <time>2021-09-30T11:38:53Z</time>
      </trkpt>
      <trkpt lat="47.21848" lon="6.06547">
        <ele>473</ele>
        <time>2021-09-30T11:38:57Z</time>
      </trkpt>
      <trkpt lat="47.21848" lon="6.06545">
        <ele>473.4</ele>
        <time>2021-09-30T11:38:59Z</time>
      </trkpt>
      <trkpt lat="47.21847" lon="6.06545">
        <ele>473.6</ele>
        <time>2021-09-30T11:39:00Z</time>
      </trkpt>
      <trkpt lat="47.21847" lon="6.06544">
        <ele>473.8</ele>
        <time>2021-09-30T11:39:02Z</time>
      </trkpt>
      <trkpt lat="47.21847" lon="6.06543">
        <ele>474</ele>
        <time>2021-09-30T11:39:03Z</time>
      </trkpt>
      <trkpt lat="47.21847" lon="6.06542">
        <ele>474.2</ele>
        <time>2021-09-30T11:39:04Z</time>
      </trkpt>
      <trkpt lat="47.21846" lon="6.06542">
        <ele>474.2</ele>
        <time>2021-09-30T11:39:09Z</time>
      </trkpt>
      <trkpt lat="47.21846" lon="6.06542">
        <ele>474.2</ele>
        <time>2021-09-30T11:39:17Z</time>
      </trkpt>
      <trkpt lat="47.21845" lon="6.06541">
        <ele>474</ele>
        <time>2021-09-30T11:39:18Z</time>
      </trkpt>
      <trkpt lat="47.21843" lon="6.06538">
        <ele>474</ele>
        <time>2021-09-30T11:39:24Z</time>
      </trkpt>
      <trkpt lat="47.21843" lon="6.06538">
        <ele>474</ele>
        <time>2021-09-30T11:39:25Z</time>
      </trkpt>
      <trkpt lat="47.21837" lon="6.06528">
        <ele>474</ele>
        <time>2021-09-30T11:39:29Z</time>
      </trkpt>
      <trkpt lat="47.2183" lon="6.06517">
        <ele>474.2</ele>
        <time>2021-09-30T11:39:33Z</time>
      </trkpt>
      <trkpt lat="47.2183" lon="6.06515">
        <ele>474.2</ele>
        <time>2021-09-30T11:39:34Z</time>
      </trkpt>
      <trkpt lat="47.2183" lon="6.06513">
        <ele>474.2</ele>
        <time>2021-09-30T11:39:35Z</time>
      </trkpt>
      <trkpt lat="47.2183" lon="6.06511">
        <ele>474.4</ele>
        <time>2021-09-30T11:39:36Z</time>
      </trkpt>
      <trkpt lat="47.2183" lon="6.06509">
        <ele>474.6</ele>
        <time>2021-09-30T11:39:37Z</time>
      </trkpt>
      <trkpt lat="47.2183" lon="6.06507">
        <ele>474.6</ele>
        <time>2021-09-30T11:39:38Z</time>
      </trkpt>
      <trkpt lat="47.21829" lon="6.06505">
        <ele>474.8</ele>
        <time>2021-09-30T11:39:39Z</time>
      </trkpt>
      <trkpt lat="47.21827" lon="6.06502">
        <ele>475</ele>
        <time>2021-09-30T11:39:40Z</time>
      </trkpt>
      <trkpt lat="47.21826" lon="6.06499">
        <ele>475.2</ele>
        <time>2021-09-30T11:39:41Z</time>
      </trkpt>
      <trkpt lat="47.21825" lon="6.06496">
        <ele>475.4</ele>
        <time>2021-09-30T11:39:42Z</time>
      </trkpt>
      <trkpt lat="47.21825" lon="6.06494">
        <ele>475.8</ele>
        <time>2021-09-30T11:39:43Z</time>
      </trkpt>
      <trkpt lat="47.21825" lon="6.06492">
        <ele>475.8</ele>
        <time>2021-09-30T11:39:44Z</time>
      </trkpt>
      <trkpt lat="47.21824" lon="6.06488">
        <ele>476</ele>
        <time>2021-09-30T11:39:45Z</time>
      </trkpt>
      <trkpt lat="47.21823" lon="6.06485">
        <ele>476.2</ele>
        <time>2021-09-30T11:39:46Z</time>
      </trkpt>
      <trkpt lat="47.21821" lon="6.06482">
        <ele>476.2</ele>
        <time>2021-09-30T11:39:47Z</time>
      </trkpt>
      <trkpt lat="47.21819" lon="6.0648">
        <ele>476.4</ele>
        <time>2021-09-30T11:39:48Z</time>
      </trkpt>
      <trkpt lat="47.21818" lon="6.06478">
        <ele>476.6</ele>
        <time>2021-09-30T11:39:49Z</time>
      </trkpt>
      <trkpt lat="47.21817" lon="6.06476">
        <ele>476.8</ele>
        <time>2021-09-30T11:39:50Z</time>
      </trkpt>
      <trkpt lat="47.21812" lon="6.06467">
        <ele>477</ele>
        <time>2021-09-30T11:39:53Z</time>
      </trkpt>
      <trkpt lat="47.21812" lon="6.06465">
        <ele>477</ele>
        <time>2021-09-30T11:39:54Z</time>
      </trkpt>
      <trkpt lat="47.21813" lon="6.06463">
        <ele>477.2</ele>
        <time>2021-09-30T11:39:55Z</time>
      </trkpt>
      <trkpt lat="47.21813" lon="6.06462">
        <ele>477.2</ele>
        <time>2021-09-30T11:39:56Z</time>
      </trkpt>
      <trkpt lat="47.21813" lon="6.0646">
        <ele>477.2</ele>
        <time>2021-09-30T11:39:57Z</time>
      </trkpt>
      <trkpt lat="47.21812" lon="6.06459">
        <ele>477.2</ele>
        <time>2021-09-30T11:39:58Z</time>
      </trkpt>
      <trkpt lat="47.21811" lon="6.06458">
        <ele>477.4</ele>
        <time>2021-09-30T11:39:59Z</time>
      </trkpt>
      <trkpt lat="47.2181" lon="6.06457">
        <ele>477.4</ele>
        <time>2021-09-30T11:40:00Z</time>
      </trkpt>
      <trkpt lat="47.21808" lon="6.06455">
        <ele>477.6</ele>
        <time>2021-09-30T11:40:01Z</time>
      </trkpt>
      <trkpt lat="47.21807" lon="6.06452">
        <ele>477.6</ele>
        <time>2021-09-30T11:40:02Z</time>
      </trkpt>
      <trkpt lat="47.21805" lon="6.06448">
        <ele>477.6</ele>
        <time>2021-09-30T11:40:03Z</time>
      </trkpt>
      <trkpt lat="47.21802" lon="6.06445">
        <ele>477.6</ele>
        <time>2021-09-30T11:40:04Z</time>
      </trkpt>
      <trkpt lat="47.218" lon="6.06443">
        <ele>477.6</ele>
        <time>2021-09-30T11:40:05Z</time>
      </trkpt>
      <trkpt lat="47.21798" lon="6.06441">
        <ele>477.8</ele>
        <time>2021-09-30T11:40:06Z</time>
      </trkpt>
      <trkpt lat="47.21797" lon="6.06439">
        <ele>478</ele>
        <time>2021-09-30T11:40:07Z</time>
      </trkpt>
      <trkpt lat="47.21796" lon="6.06436">
        <ele>478</ele>
        <time>2021-09-30T11:40:08Z</time>
      </trkpt>
      <trkpt lat="47.21794" lon="6.06433">
        <ele>478</ele>
        <time>2021-09-30T11:40:09Z</time>
      </trkpt>
      <trkpt lat="47.2179" lon="6.06427">
        <ele>478.4</ele>
        <time>2021-09-30T11:40:12Z</time>
      </trkpt>
      <trkpt lat="47.21787" lon="6.06426">
        <ele>478.4</ele>
        <time>2021-09-30T11:40:13Z</time>
      </trkpt>
      <trkpt lat="47.21785" lon="6.06425">
        <ele>478.4</ele>
        <time>2021-09-30T11:40:14Z</time>
      </trkpt>
      <trkpt lat="47.21784" lon="6.06423">
        <ele>478.4</ele>
        <time>2021-09-30T11:40:15Z</time>
      </trkpt>
      <trkpt lat="47.21784" lon="6.0642">
        <ele>478.2</ele>
        <time>2021-09-30T11:40:17Z</time>
      </trkpt>
      <trkpt lat="47.21785" lon="6.06417">
        <ele>478.2</ele>
        <time>2021-09-30T11:40:18Z</time>
      </trkpt>
      <trkpt lat="47.21784" lon="6.06414">
        <ele>478.2</ele>
        <time>2021-09-30T11:40:19Z</time>
      </trkpt>
      <trkpt lat="47.21781" lon="6.06407">
        <ele>478.2</ele>
        <time>2021-09-30T11:40:22Z</time>
      </trkpt>
      <trkpt lat="47.2178" lon="6.06405">
        <ele>478</ele>
        <time>2021-09-30T11:40:23Z</time>
      </trkpt>
      <trkpt lat="47.21779" lon="6.06402">
        <ele>478</ele>
        <time>2021-09-30T11:40:24Z</time>
      </trkpt>
      <trkpt lat="47.21778" lon="6.06401">
        <ele>478.2</ele>
        <time>2021-09-30T11:40:25Z</time>
      </trkpt>
      <trkpt lat="47.21776" lon="6.06399">
        <ele>478.2</ele>
        <time>2021-09-30T11:40:26Z</time>
      </trkpt>
      <trkpt lat="47.21774" lon="6.06396">
        <ele>478.2</ele>
        <time>2021-09-30T11:40:28Z</time>
      </trkpt>
      <trkpt lat="47.21774" lon="6.06394">
        <ele>478.2</ele>
        <time>2021-09-30T11:40:29Z</time>
      </trkpt>
      <trkpt lat="47.21774" lon="6.06392">
        <ele>478.4</ele>
        <time>2021-09-30T11:40:30Z</time>
      </trkpt>
      <trkpt lat="47.21773" lon="6.06389">
        <ele>478.4</ele>
        <time>2021-09-30T11:40:31Z</time>
      </trkpt>
      <trkpt lat="47.21773" lon="6.06386">
        <ele>478.4</ele>
        <time>2021-09-30T11:40:32Z</time>
      </trkpt>
      <trkpt lat="47.21773" lon="6.06384">
        <ele>478.4</ele>
        <time>2021-09-30T11:40:33Z</time>
      </trkpt>
      <trkpt lat="47.21772" lon="6.06382">
        <ele>478.6</ele>
        <time>2021-09-30T11:40:34Z</time>
      </trkpt>
      <trkpt lat="47.21771" lon="6.0638">
        <ele>478.6</ele>
        <time>2021-09-30T11:40:35Z</time>
      </trkpt>
      <trkpt lat="47.2177" lon="6.06379">
        <ele>478.6</ele>
        <time>2021-09-30T11:40:36Z</time>
      </trkpt>
      <trkpt lat="47.21768" lon="6.06376">
        <ele>479</ele>
        <time>2021-09-30T11:40:38Z</time>
      </trkpt>
      <trkpt lat="47.21765" lon="6.06371">
        <ele>479.2</ele>
        <time>2021-09-30T11:40:40Z</time>
      </trkpt>
      <trkpt lat="47.21765" lon="6.06371">
        <ele>479.4</ele>
        <time>2021-09-30T11:40:41Z</time>
      </trkpt>
      <trkpt lat="47.21765" lon="6.06371">
        <ele>479.6</ele>
        <time>2021-09-30T11:40:44Z</time>
      </trkpt>
      <trkpt lat="47.21765" lon="6.06371">
        <ele>479.6</ele>
        <time>2021-09-30T11:41:01Z</time>
      </trkpt>
      <trkpt lat="47.21765" lon="6.06371">
        <ele>480</ele>
        <time>2021-09-30T11:42:48Z</time>
      </trkpt>
      <trkpt lat="47.21764" lon="6.06369">
        <ele>480</ele>
        <time>2021-09-30T11:43:03Z</time>
      </trkpt>
      <trkpt lat="47.21763" lon="6.06367">
        <ele>479.8</ele>
        <time>2021-09-30T11:43:04Z</time>
      </trkpt>
      <trkpt lat="47.21762" lon="6.06366">
        <ele>479.8</ele>
        <time>2021-09-30T11:43:05Z</time>
      </trkpt>
      <trkpt lat="47.21762" lon="6.06366">
        <ele>479.8</ele>
        <time>2021-09-30T11:43:06Z</time>
      </trkpt>
      <trkpt lat="47.21757" lon="6.06359">
        <ele>479.8</ele>
        <time>2021-09-30T11:43:10Z</time>
      </trkpt>
      <trkpt lat="47.21756" lon="6.06357">
        <ele>479.8</ele>
        <time>2021-09-30T11:43:11Z</time>
      </trkpt>
      <trkpt lat="47.21743" lon="6.06341">
        <ele>479.4</ele>
        <time>2021-09-30T11:43:17Z</time>
      </trkpt>
      <trkpt lat="47.21742" lon="6.06339">
        <ele>479.4</ele>
        <time>2021-09-30T11:43:18Z</time>
      </trkpt>
      <trkpt lat="47.2174" lon="6.06336">
        <ele>479.2</ele>
        <time>2021-09-30T11:43:19Z</time>
      </trkpt>
      <trkpt lat="47.21732" lon="6.06324">
        <ele>478.8</ele>
        <time>2021-09-30T11:43:22Z</time>
      </trkpt>
      <trkpt lat="47.21718" lon="6.06304">
        <ele>478</ele>
        <time>2021-09-30T11:43:28Z</time>
      </trkpt>
      <trkpt lat="47.21712" lon="6.06293">
        <ele>478</ele>
        <time>2021-09-30T11:43:30Z</time>
      </trkpt>
      <trkpt lat="47.21706" lon="6.06281">
        <ele>477.8</ele>
        <time>2021-09-30T11:43:33Z</time>
      </trkpt>
      <trkpt lat="47.21693" lon="6.0626">
        <ele>477.4</ele>
        <time>2021-09-30T11:43:38Z</time>
      </trkpt>
      <trkpt lat="47.21693" lon="6.06256">
        <ele>477.4</ele>
        <time>2021-09-30T11:43:39Z</time>
      </trkpt>
      <trkpt lat="47.21692" lon="6.06251">
        <ele>477.2</ele>
        <time>2021-09-30T11:43:40Z</time>
      </trkpt>
      <trkpt lat="47.2169" lon="6.06247">
        <ele>477.2</ele>
        <time>2021-09-30T11:43:41Z</time>
      </trkpt>
      <trkpt lat="47.21688" lon="6.06245">
        <ele>477.2</ele>
        <time>2021-09-30T11:43:42Z</time>
      </trkpt>
      <trkpt lat="47.21687" lon="6.06243">
        <ele>477.2</ele>
        <time>2021-09-30T11:43:43Z</time>
      </trkpt>
      <trkpt lat="47.21686" lon="6.06241">
        <ele>477.2</ele>
        <time>2021-09-30T11:43:44Z</time>
      </trkpt>
      <trkpt lat="47.21684" lon="6.06239">
        <ele>477.2</ele>
        <time>2021-09-30T11:43:45Z</time>
      </trkpt>
      <trkpt lat="47.21683" lon="6.06236">
        <ele>477.2</ele>
        <time>2021-09-30T11:43:46Z</time>
      </trkpt>
      <trkpt lat="47.21682" lon="6.06234">
        <ele>477.2</ele>
        <time>2021-09-30T11:43:47Z</time>
      </trkpt>
      <trkpt lat="47.21681" lon="6.06232">
        <ele>477.2</ele>
        <time>2021-09-30T11:43:48Z</time>
      </trkpt>
      <trkpt lat="47.21679" lon="6.06229">
        <ele>477.2</ele>
        <time>2021-09-30T11:43:49Z</time>
      </trkpt>
      <trkpt lat="47.21677" lon="6.06226">
        <ele>477</ele>
        <time>2021-09-30T11:43:50Z</time>
      </trkpt>
      <trkpt lat="47.21676" lon="6.06224">
        <ele>477</ele>
        <time>2021-09-30T11:43:51Z</time>
      </trkpt>
      <trkpt lat="47.21674" lon="6.06221">
        <ele>477</ele>
        <time>2021-09-30T11:43:52Z</time>
      </trkpt>
      <trkpt lat="47.21673" lon="6.06219">
        <ele>477</ele>
        <time>2021-09-30T11:43:53Z</time>
      </trkpt>
      <trkpt lat="47.21669" lon="6.06211">
        <ele>476.8</ele>
        <time>2021-09-30T11:43:55Z</time>
      </trkpt>
      <trkpt lat="47.21661" lon="6.06195">
        <ele>476.6</ele>
        <time>2021-09-30T11:43:59Z</time>
      </trkpt>
      <trkpt lat="47.2166" lon="6.06191">
        <ele>476.6</ele>
        <time>2021-09-30T11:44:00Z</time>
      </trkpt>
      <trkpt lat="47.21658" lon="6.06188">
        <ele>476.4</ele>
        <time>2021-09-30T11:44:01Z</time>
      </trkpt>
      <trkpt lat="47.21657" lon="6.06186">
        <ele>476.4</ele>
        <time>2021-09-30T11:44:02Z</time>
      </trkpt>
      <trkpt lat="47.21656" lon="6.06184">
        <ele>476.4</ele>
        <time>2021-09-30T11:44:03Z</time>
      </trkpt>
      <trkpt lat="47.21654" lon="6.06183">
        <ele>476.4</ele>
        <time>2021-09-30T11:44:04Z</time>
      </trkpt>
      <trkpt lat="47.21653" lon="6.06181">
        <ele>476.4</ele>
        <time>2021-09-30T11:44:05Z</time>
      </trkpt>
      <trkpt lat="47.21651" lon="6.06179">
        <ele>476.4</ele>
        <time>2021-09-30T11:44:06Z</time>
      </trkpt>
      <trkpt lat="47.21644" lon="6.06167">
        <ele>476.4</ele>
        <time>2021-09-30T11:44:10Z</time>
      </trkpt>
      <trkpt lat="47.21641" lon="6.06164">
        <ele>476.2</ele>
        <time>2021-09-30T11:44:11Z</time>
      </trkpt>
      <trkpt lat="47.21639" lon="6.06162">
        <ele>476.2</ele>
        <time>2021-09-30T11:44:12Z</time>
      </trkpt>
      <trkpt lat="47.21637" lon="6.0616">
        <ele>476.4</ele>
        <time>2021-09-30T11:44:13Z</time>
      </trkpt>
      <trkpt lat="47.21633" lon="6.06154">
        <ele>476.2</ele>
        <time>2021-09-30T11:44:15Z</time>
      </trkpt>
      <trkpt lat="47.21617" lon="6.0614">
        <ele>476.2</ele>
        <time>2021-09-30T11:44:19Z</time>
      </trkpt>
      <trkpt lat="47.21606" lon="6.06124">
        <ele>475.8</ele>
        <time>2021-09-30T11:44:22Z</time>
      </trkpt>
      <trkpt lat="47.21604" lon="6.0612">
        <ele>475.8</ele>
        <time>2021-09-30T11:44:23Z</time>
      </trkpt>
      <trkpt lat="47.216" lon="6.06111">
        <ele>475.8</ele>
        <time>2021-09-30T11:44:25Z</time>
      </trkpt>
      <trkpt lat="47.216" lon="6.06108">
        <ele>475.8</ele>
        <time>2021-09-30T11:44:26Z</time>
      </trkpt>
      <trkpt lat="47.216" lon="6.06106">
        <ele>475.6</ele>
        <time>2021-09-30T11:44:27Z</time>
      </trkpt>
      <trkpt lat="47.216" lon="6.06104">
        <ele>475.8</ele>
        <time>2021-09-30T11:44:28Z</time>
      </trkpt>
      <trkpt lat="47.21599" lon="6.06101">
        <ele>475.8</ele>
        <time>2021-09-30T11:44:29Z</time>
      </trkpt>
      <trkpt lat="47.21596" lon="6.06098">
        <ele>475.8</ele>
        <time>2021-09-30T11:44:30Z</time>
      </trkpt>
      <trkpt lat="47.21592" lon="6.06093">
        <ele>475.8</ele>
        <time>2021-09-30T11:44:32Z</time>
      </trkpt>
      <trkpt lat="47.2159" lon="6.06089">
        <ele>475.8</ele>
        <time>2021-09-30T11:44:33Z</time>
      </trkpt>
      <trkpt lat="47.2158" lon="6.06074">
        <ele>476</ele>
        <time>2021-09-30T11:44:38Z</time>
      </trkpt>
      <trkpt lat="47.21571" lon="6.06062">
        <ele>476</ele>
        <time>2021-09-30T11:44:43Z</time>
      </trkpt>
      <trkpt lat="47.21565" lon="6.06056">
        <ele>475.8</ele>
        <time>2021-09-30T11:44:45Z</time>
      </trkpt>
      <trkpt lat="47.21563" lon="6.06053">
        <ele>475.8</ele>
        <time>2021-09-30T11:44:46Z</time>
      </trkpt>
      <trkpt lat="47.21559" lon="6.06045">
        <ele>475.8</ele>
        <time>2021-09-30T11:44:48Z</time>
      </trkpt>
      <trkpt lat="47.21557" lon="6.06041">
        <ele>475.6</ele>
        <time>2021-09-30T11:44:49Z</time>
      </trkpt>
      <trkpt lat="47.21555" lon="6.06038">
        <ele>475.4</ele>
        <time>2021-09-30T11:44:50Z</time>
      </trkpt>
      <trkpt lat="47.21553" lon="6.06034">
        <ele>475.2</ele>
        <time>2021-09-30T11:44:51Z</time>
      </trkpt>
      <trkpt lat="47.2155" lon="6.06027">
        <ele>475.2</ele>
        <time>2021-09-30T11:44:52Z</time>
      </trkpt>
      <trkpt lat="47.21542" lon="6.06008">
        <ele>473.8</ele>
        <time>2021-09-30T11:44:56Z</time>
      </trkpt>
      <trkpt lat="47.2154" lon="6.06004">
        <ele>473.2</ele>
        <time>2021-09-30T11:44:57Z</time>
      </trkpt>
      <trkpt lat="47.21538" lon="6.06002">
        <ele>472.8</ele>
        <time>2021-09-30T11:44:58Z</time>
      </trkpt>
      <trkpt lat="47.21538" lon="6.05999">
        <ele>472.4</ele>
        <time>2021-09-30T11:44:59Z</time>
      </trkpt>
      <trkpt lat="47.21538" lon="6.05997">
        <ele>472.2</ele>
        <time>2021-09-30T11:45:00Z</time>
      </trkpt>
      <trkpt lat="47.21538" lon="6.05991">
        <ele>471.6</ele>
        <time>2021-09-30T11:45:01Z</time>
      </trkpt>
      <trkpt lat="47.21538" lon="6.05986">
        <ele>471.4</ele>
        <time>2021-09-30T11:45:02Z</time>
      </trkpt>
      <trkpt lat="47.21537" lon="6.05977">
        <ele>471</ele>
        <time>2021-09-30T11:45:03Z</time>
      </trkpt>
      <trkpt lat="47.21531" lon="6.05963">
        <ele>470.4</ele>
        <time>2021-09-30T11:45:05Z</time>
      </trkpt>
      <trkpt lat="47.21528" lon="6.05956">
        <ele>469.8</ele>
        <time>2021-09-30T11:45:06Z</time>
      </trkpt>
      <trkpt lat="47.21525" lon="6.0595">
        <ele>469.6</ele>
        <time>2021-09-30T11:45:07Z</time>
      </trkpt>
      <trkpt lat="47.21523" lon="6.05944">
        <ele>469</ele>
        <time>2021-09-30T11:45:08Z</time>
      </trkpt>
      <trkpt lat="47.21521" lon="6.0594">
        <ele>468.8</ele>
        <time>2021-09-30T11:45:09Z</time>
      </trkpt>
      <trkpt lat="47.21519" lon="6.05934">
        <ele>468.6</ele>
        <time>2021-09-30T11:45:10Z</time>
      </trkpt>
      <trkpt lat="47.2152" lon="6.05928">
        <ele>468.4</ele>
        <time>2021-09-30T11:45:11Z</time>
      </trkpt>
      <trkpt lat="47.21517" lon="6.05922">
        <ele>468</ele>
        <time>2021-09-30T11:45:12Z</time>
      </trkpt>
      <trkpt lat="47.21514" lon="6.05919">
        <ele>468</ele>
        <time>2021-09-30T11:45:13Z</time>
      </trkpt>
      <trkpt lat="47.2151" lon="6.05917">
        <ele>467.8</ele>
        <time>2021-09-30T11:45:14Z</time>
      </trkpt>
      <trkpt lat="47.21507" lon="6.05914">
        <ele>467.6</ele>
        <time>2021-09-30T11:45:15Z</time>
      </trkpt>
      <trkpt lat="47.21501" lon="6.05907">
        <ele>467.2</ele>
        <time>2021-09-30T11:45:17Z</time>
      </trkpt>
      <trkpt lat="47.21499" lon="6.05901">
        <ele>467.2</ele>
        <time>2021-09-30T11:45:18Z</time>
      </trkpt>
      <trkpt lat="47.21496" lon="6.05898">
        <ele>467.2</ele>
        <time>2021-09-30T11:45:19Z</time>
      </trkpt>
      <trkpt lat="47.21493" lon="6.05892">
        <ele>467.2</ele>
        <time>2021-09-30T11:45:20Z</time>
      </trkpt>
      <trkpt lat="47.21492" lon="6.05885">
        <ele>467.2</ele>
        <time>2021-09-30T11:45:21Z</time>
      </trkpt>
      <trkpt lat="47.2149" lon="6.05878">
        <ele>467</ele>
        <time>2021-09-30T11:45:22Z</time>
      </trkpt>
      <trkpt lat="47.21488" lon="6.05872">
        <ele>467</ele>
        <time>2021-09-30T11:45:23Z</time>
      </trkpt>
      <trkpt lat="47.21484" lon="6.05858">
        <ele>466.8</ele>
        <time>2021-09-30T11:45:25Z</time>
      </trkpt>
      <trkpt lat="47.21482" lon="6.05843">
        <ele>466.4</ele>
        <time>2021-09-30T11:45:27Z</time>
      </trkpt>
      <trkpt lat="47.21483" lon="6.05836">
        <ele>466</ele>
        <time>2021-09-30T11:45:28Z</time>
      </trkpt>
      <trkpt lat="47.21486" lon="6.0583">
        <ele>465.8</ele>
        <time>2021-09-30T11:45:29Z</time>
      </trkpt>
      <trkpt lat="47.21488" lon="6.05824">
        <ele>465.2</ele>
        <time>2021-09-30T11:45:30Z</time>
      </trkpt>
      <trkpt lat="47.2149" lon="6.0582">
        <ele>465.2</ele>
        <time>2021-09-30T11:45:31Z</time>
      </trkpt>
      <trkpt lat="47.21492" lon="6.05815">
        <ele>464.8</ele>
        <time>2021-09-30T11:45:32Z</time>
      </trkpt>
      <trkpt lat="47.21494" lon="6.05809">
        <ele>464.6</ele>
        <time>2021-09-30T11:45:33Z</time>
      </trkpt>
      <trkpt lat="47.21494" lon="6.05804">
        <ele>464.2</ele>
        <time>2021-09-30T11:45:34Z</time>
      </trkpt>
      <trkpt lat="47.21496" lon="6.05799">
        <ele>464</ele>
        <time>2021-09-30T11:45:35Z</time>
      </trkpt>
      <trkpt lat="47.21498" lon="6.05793">
        <ele>463.6</ele>
        <time>2021-09-30T11:45:36Z</time>
      </trkpt>
      <trkpt lat="47.21504" lon="6.05776">
        <ele>463.4</ele>
        <time>2021-09-30T11:45:38Z</time>
      </trkpt>
      <trkpt lat="47.21508" lon="6.05761">
        <ele>462.8</ele>
        <time>2021-09-30T11:45:40Z</time>
      </trkpt>
      <trkpt lat="47.2151" lon="6.05754">
        <ele>462</ele>
        <time>2021-09-30T11:45:41Z</time>
      </trkpt>
      <trkpt lat="47.21512" lon="6.05747">
        <ele>461.8</ele>
        <time>2021-09-30T11:45:42Z</time>
      </trkpt>
      <trkpt lat="47.21513" lon="6.05741">
        <ele>461.4</ele>
        <time>2021-09-30T11:45:43Z</time>
      </trkpt>
      <trkpt lat="47.21515" lon="6.05738">
        <ele>461.2</ele>
        <time>2021-09-30T11:45:44Z</time>
      </trkpt>
      <trkpt lat="47.21517" lon="6.05734">
        <ele>460.6</ele>
        <time>2021-09-30T11:45:45Z</time>
      </trkpt>
      <trkpt lat="47.21519" lon="6.0573">
        <ele>460.2</ele>
        <time>2021-09-30T11:45:46Z</time>
      </trkpt>
      <trkpt lat="47.2152" lon="6.05727">
        <ele>459.4</ele>
        <time>2021-09-30T11:45:47Z</time>
      </trkpt>
      <trkpt lat="47.21522" lon="6.05718">
        <ele>459</ele>
        <time>2021-09-30T11:45:49Z</time>
      </trkpt>
      <trkpt lat="47.21522" lon="6.05715">
        <ele>458.8</ele>
        <time>2021-09-30T11:45:50Z</time>
      </trkpt>
      <trkpt lat="47.21522" lon="6.05711">
        <ele>458.6</ele>
        <time>2021-09-30T11:45:51Z</time>
      </trkpt>
      <trkpt lat="47.21522" lon="6.05707">
        <ele>458.4</ele>
        <time>2021-09-30T11:45:52Z</time>
      </trkpt>
      <trkpt lat="47.21522" lon="6.05705">
        <ele>458.2</ele>
        <time>2021-09-30T11:45:53Z</time>
      </trkpt>
      <trkpt lat="47.21523" lon="6.05703">
        <ele>458</ele>
        <time>2021-09-30T11:45:54Z</time>
      </trkpt>
      <trkpt lat="47.21522" lon="6.05701">
        <ele>458</ele>
        <time>2021-09-30T11:45:55Z</time>
      </trkpt>
      <trkpt lat="47.21522" lon="6.05698">
        <ele>457.8</ele>
        <time>2021-09-30T11:45:56Z</time>
      </trkpt>
      <trkpt lat="47.21522" lon="6.05696">
        <ele>457.8</ele>
        <time>2021-09-30T11:45:57Z</time>
      </trkpt>
      <trkpt lat="47.21523" lon="6.05696">
        <ele>457.8</ele>
        <time>2021-09-30T11:45:58Z</time>
      </trkpt>
      <trkpt lat="47.21523" lon="6.05696">
        <ele>457.4</ele>
        <time>2021-09-30T11:46:03Z</time>
      </trkpt>
      <trkpt lat="47.21523" lon="6.05696">
        <ele>457.2</ele>
        <time>2021-09-30T11:46:05Z</time>
      </trkpt>
      <trkpt lat="47.21521" lon="6.05694">
        <ele>456.6</ele>
        <time>2021-09-30T11:46:49Z</time>
      </trkpt>
      <trkpt lat="47.21518" lon="6.05695">
        <ele>456.6</ele>
        <time>2021-09-30T11:46:51Z</time>
      </trkpt>
      <trkpt lat="47.21512" lon="6.05699">
        <ele>456.8</ele>
        <time>2021-09-30T11:46:54Z</time>
      </trkpt>
      <trkpt lat="47.2151" lon="6.057">
        <ele>456.8</ele>
        <time>2021-09-30T11:46:55Z</time>
      </trkpt>
      <trkpt lat="47.21508" lon="6.05701">
        <ele>456.8</ele>
        <time>2021-09-30T11:46:56Z</time>
      </trkpt>
      <trkpt lat="47.21506" lon="6.05702">
        <ele>457</ele>
        <time>2021-09-30T11:46:57Z</time>
      </trkpt>
      <trkpt lat="47.21496" lon="6.05701">
        <ele>458</ele>
        <time>2021-09-30T11:47:02Z</time>
      </trkpt>
      <trkpt lat="47.21492" lon="6.05701">
        <ele>458.2</ele>
        <time>2021-09-30T11:47:04Z</time>
      </trkpt>
      <trkpt lat="47.2149" lon="6.057">
        <ele>458.4</ele>
        <time>2021-09-30T11:47:05Z</time>
      </trkpt>
      <trkpt lat="47.21471" lon="6.05695">
        <ele>458.8</ele>
        <time>2021-09-30T11:47:12Z</time>
      </trkpt>
      <trkpt lat="47.2145" lon="6.05687">
        <ele>458.8</ele>
        <time>2021-09-30T11:47:18Z</time>
      </trkpt>
      <trkpt lat="47.2142" lon="6.05676">
        <ele>457.8</ele>
        <time>2021-09-30T11:47:24Z</time>
      </trkpt>
      <trkpt lat="47.21407" lon="6.05672">
        <ele>457.2</ele>
        <time>2021-09-30T11:47:26Z</time>
      </trkpt>
      <trkpt lat="47.21387" lon="6.05663">
        <ele>456.2</ele>
        <time>2021-09-30T11:47:29Z</time>
      </trkpt>
      <trkpt lat="47.21374" lon="6.05657">
        <ele>455.4</ele>
        <time>2021-09-30T11:47:31Z</time>
      </trkpt>
      <trkpt lat="47.21368" lon="6.05654">
        <ele>455.2</ele>
        <time>2021-09-30T11:47:32Z</time>
      </trkpt>
      <trkpt lat="47.21361" lon="6.05649">
        <ele>454.8</ele>
        <time>2021-09-30T11:47:33Z</time>
      </trkpt>
      <trkpt lat="47.21351" lon="6.05642">
        <ele>454.2</ele>
        <time>2021-09-30T11:47:35Z</time>
      </trkpt>
      <trkpt lat="47.21347" lon="6.05638">
        <ele>454</ele>
        <time>2021-09-30T11:47:36Z</time>
      </trkpt>
      <trkpt lat="47.21342" lon="6.05634">
        <ele>453.8</ele>
        <time>2021-09-30T11:47:37Z</time>
      </trkpt>
      <trkpt lat="47.21338" lon="6.05629">
        <ele>453.8</ele>
        <time>2021-09-30T11:47:38Z</time>
      </trkpt>
      <trkpt lat="47.21334" lon="6.05625">
        <ele>453.8</ele>
        <time>2021-09-30T11:47:39Z</time>
      </trkpt>
      <trkpt lat="47.21331" lon="6.05621">
        <ele>453.8</ele>
        <time>2021-09-30T11:47:40Z</time>
      </trkpt>
      <trkpt lat="47.21327" lon="6.05617">
        <ele>453.8</ele>
        <time>2021-09-30T11:47:41Z</time>
      </trkpt>
      <trkpt lat="47.2132" lon="6.0561">
        <ele>453.8</ele>
        <time>2021-09-30T11:47:43Z</time>
      </trkpt>
      <trkpt lat="47.21317" lon="6.05607">
        <ele>454.2</ele>
        <time>2021-09-30T11:47:44Z</time>
      </trkpt>
      <trkpt lat="47.21314" lon="6.05604">
        <ele>454.6</ele>
        <time>2021-09-30T11:47:45Z</time>
      </trkpt>
      <trkpt lat="47.21311" lon="6.05601">
        <ele>454.8</ele>
        <time>2021-09-30T11:47:46Z</time>
      </trkpt>
      <trkpt lat="47.21308" lon="6.05599">
        <ele>455.2</ele>
        <time>2021-09-30T11:47:47Z</time>
      </trkpt>
      <trkpt lat="47.21305" lon="6.05596">
        <ele>455.4</ele>
        <time>2021-09-30T11:47:48Z</time>
      </trkpt>
      <trkpt lat="47.21302" lon="6.05594">
        <ele>455.8</ele>
        <time>2021-09-30T11:47:49Z</time>
      </trkpt>
      <trkpt lat="47.213" lon="6.05592">
        <ele>456</ele>
        <time>2021-09-30T11:47:50Z</time>
      </trkpt>
      <trkpt lat="47.21297" lon="6.0559">
        <ele>456.2</ele>
        <time>2021-09-30T11:47:51Z</time>
      </trkpt>
      <trkpt lat="47.21292" lon="6.05585">
        <ele>457</ele>
        <time>2021-09-30T11:47:53Z</time>
      </trkpt>
      <trkpt lat="47.2129" lon="6.05584">
        <ele>457.2</ele>
        <time>2021-09-30T11:47:54Z</time>
      </trkpt>
      <trkpt lat="47.21289" lon="6.05582">
        <ele>457.4</ele>
        <time>2021-09-30T11:47:55Z</time>
      </trkpt>
      <trkpt lat="47.21287" lon="6.0558">
        <ele>458</ele>
        <time>2021-09-30T11:47:56Z</time>
      </trkpt>
      <trkpt lat="47.21284" lon="6.05576">
        <ele>458.4</ele>
        <time>2021-09-30T11:47:57Z</time>
      </trkpt>
      <trkpt lat="47.21277" lon="6.05568">
        <ele>459.2</ele>
        <time>2021-09-30T11:48:00Z</time>
      </trkpt>
      <trkpt lat="47.21274" lon="6.05564">
        <ele>459.4</ele>
        <time>2021-09-30T11:48:01Z</time>
      </trkpt>
      <trkpt lat="47.21272" lon="6.05562">
        <ele>459.8</ele>
        <time>2021-09-30T11:48:02Z</time>
      </trkpt>
      <trkpt lat="47.21269" lon="6.05559">
        <ele>460</ele>
        <time>2021-09-30T11:48:03Z</time>
      </trkpt>
      <trkpt lat="47.21267" lon="6.05556">
        <ele>460.2</ele>
        <time>2021-09-30T11:48:04Z</time>
      </trkpt>
      <trkpt lat="47.21266" lon="6.05554">
        <ele>460.6</ele>
        <time>2021-09-30T11:48:05Z</time>
      </trkpt>
      <trkpt lat="47.21264" lon="6.05551">
        <ele>460.8</ele>
        <time>2021-09-30T11:48:06Z</time>
      </trkpt>
      <trkpt lat="47.21262" lon="6.05549">
        <ele>461</ele>
        <time>2021-09-30T11:48:07Z</time>
      </trkpt>
      <trkpt lat="47.21261" lon="6.05546">
        <ele>461</ele>
        <time>2021-09-30T11:48:08Z</time>
      </trkpt>
      <trkpt lat="47.21259" lon="6.05543">
        <ele>461.4</ele>
        <time>2021-09-30T11:48:09Z</time>
      </trkpt>
      <trkpt lat="47.21257" lon="6.05539">
        <ele>461.6</ele>
        <time>2021-09-30T11:48:10Z</time>
      </trkpt>
      <trkpt lat="47.21254" lon="6.05534">
        <ele>461.8</ele>
        <time>2021-09-30T11:48:11Z</time>
      </trkpt>
      <trkpt lat="47.2125" lon="6.0553">
        <ele>461.8</ele>
        <time>2021-09-30T11:48:12Z</time>
      </trkpt>
      <trkpt lat="47.21248" lon="6.05527">
        <ele>462.4</ele>
        <time>2021-09-30T11:48:13Z</time>
      </trkpt>
      <trkpt lat="47.21244" lon="6.05523">
        <ele>462.6</ele>
        <time>2021-09-30T11:48:14Z</time>
      </trkpt>
      <trkpt lat="47.21242" lon="6.05519">
        <ele>462.6</ele>
        <time>2021-09-30T11:48:15Z</time>
      </trkpt>
      <trkpt lat="47.21241" lon="6.05516">
        <ele>462.8</ele>
        <time>2021-09-30T11:48:16Z</time>
      </trkpt>
      <trkpt lat="47.21239" lon="6.05514">
        <ele>463</ele>
        <time>2021-09-30T11:48:17Z</time>
      </trkpt>
      <trkpt lat="47.21237" lon="6.05511">
        <ele>463.2</ele>
        <time>2021-09-30T11:48:18Z</time>
      </trkpt>
      <trkpt lat="47.21235" lon="6.05507">
        <ele>463.2</ele>
        <time>2021-09-30T11:48:19Z</time>
      </trkpt>
      <trkpt lat="47.21231" lon="6.05502">
        <ele>463.4</ele>
        <time>2021-09-30T11:48:20Z</time>
      </trkpt>
      <trkpt lat="47.21228" lon="6.05498">
        <ele>463.2</ele>
        <time>2021-09-30T11:48:21Z</time>
      </trkpt>
      <trkpt lat="47.21226" lon="6.05494">
        <ele>463.4</ele>
        <time>2021-09-30T11:48:22Z</time>
      </trkpt>
      <trkpt lat="47.21223" lon="6.05491">
        <ele>463.4</ele>
        <time>2021-09-30T11:48:23Z</time>
      </trkpt>
      <trkpt lat="47.21222" lon="6.05489">
        <ele>463.6</ele>
        <time>2021-09-30T11:48:24Z</time>
      </trkpt>
      <trkpt lat="47.21219" lon="6.05485">
        <ele>463.6</ele>
        <time>2021-09-30T11:48:25Z</time>
      </trkpt>
      <trkpt lat="47.21216" lon="6.05482">
        <ele>463.6</ele>
        <time>2021-09-30T11:48:26Z</time>
      </trkpt>
      <trkpt lat="47.21214" lon="6.0548">
        <ele>463.8</ele>
        <time>2021-09-30T11:48:27Z</time>
      </trkpt>
      <trkpt lat="47.21211" lon="6.05477">
        <ele>463.8</ele>
        <time>2021-09-30T11:48:28Z</time>
      </trkpt>
      <trkpt lat="47.21209" lon="6.05477">
        <ele>463.8</ele>
        <time>2021-09-30T11:48:29Z</time>
      </trkpt>
      <trkpt lat="47.21208" lon="6.05475">
        <ele>464</ele>
        <time>2021-09-30T11:48:30Z</time>
      </trkpt>
      <trkpt lat="47.21206" lon="6.05473">
        <ele>464.2</ele>
        <time>2021-09-30T11:48:31Z</time>
      </trkpt>
      <trkpt lat="47.21205" lon="6.05472">
        <ele>464.2</ele>
        <time>2021-09-30T11:48:32Z</time>
      </trkpt>
      <trkpt lat="47.21202" lon="6.05469">
        <ele>464.2</ele>
        <time>2021-09-30T11:48:33Z</time>
      </trkpt>
      <trkpt lat="47.212" lon="6.05467">
        <ele>464.4</ele>
        <time>2021-09-30T11:48:34Z</time>
      </trkpt>
      <trkpt lat="47.21198" lon="6.05465">
        <ele>464.4</ele>
        <time>2021-09-30T11:48:35Z</time>
      </trkpt>
      <trkpt lat="47.21196" lon="6.05463">
        <ele>464.4</ele>
        <time>2021-09-30T11:48:36Z</time>
      </trkpt>
      <trkpt lat="47.21194" lon="6.05461">
        <ele>464.4</ele>
        <time>2021-09-30T11:48:37Z</time>
      </trkpt>
      <trkpt lat="47.21192" lon="6.05458">
        <ele>464.6</ele>
        <time>2021-09-30T11:48:38Z</time>
      </trkpt>
      <trkpt lat="47.2119" lon="6.05455">
        <ele>464.6</ele>
        <time>2021-09-30T11:48:39Z</time>
      </trkpt>
      <trkpt lat="47.21189" lon="6.05452">
        <ele>464.8</ele>
        <time>2021-09-30T11:48:40Z</time>
      </trkpt>
      <trkpt lat="47.21188" lon="6.05449">
        <ele>464.8</ele>
        <time>2021-09-30T11:48:41Z</time>
      </trkpt>
      <trkpt lat="47.21186" lon="6.05446">
        <ele>464.8</ele>
        <time>2021-09-30T11:48:42Z</time>
      </trkpt>
      <trkpt lat="47.21185" lon="6.05443">
        <ele>465</ele>
        <time>2021-09-30T11:48:43Z</time>
      </trkpt>
      <trkpt lat="47.21183" lon="6.0544">
        <ele>465</ele>
        <time>2021-09-30T11:48:44Z</time>
      </trkpt>
      <trkpt lat="47.21182" lon="6.05438">
        <ele>465.2</ele>
        <time>2021-09-30T11:48:45Z</time>
      </trkpt>
      <trkpt lat="47.21181" lon="6.05435">
        <ele>465.2</ele>
        <time>2021-09-30T11:48:46Z</time>
      </trkpt>
      <trkpt lat="47.2118" lon="6.05433">
        <ele>465.4</ele>
        <time>2021-09-30T11:48:47Z</time>
      </trkpt>
      <trkpt lat="47.21179" lon="6.0543">
        <ele>465.4</ele>
        <time>2021-09-30T11:48:48Z</time>
      </trkpt>
      <trkpt lat="47.21178" lon="6.05428">
        <ele>465.8</ele>
        <time>2021-09-30T11:48:49Z</time>
      </trkpt>
      <trkpt lat="47.21177" lon="6.05425">
        <ele>465.8</ele>
        <time>2021-09-30T11:48:50Z</time>
      </trkpt>
      <trkpt lat="47.21176" lon="6.05423">
        <ele>466.2</ele>
        <time>2021-09-30T11:48:51Z</time>
      </trkpt>
      <trkpt lat="47.21175" lon="6.0542">
        <ele>466.4</ele>
        <time>2021-09-30T11:48:52Z</time>
      </trkpt>
      <trkpt lat="47.21174" lon="6.05418">
        <ele>466.8</ele>
        <time>2021-09-30T11:48:53Z</time>
      </trkpt>
      <trkpt lat="47.21173" lon="6.05416">
        <ele>467</ele>
        <time>2021-09-30T11:48:54Z</time>
      </trkpt>
      <trkpt lat="47.21172" lon="6.05413">
        <ele>467</ele>
        <time>2021-09-30T11:48:55Z</time>
      </trkpt>
      <trkpt lat="47.2117" lon="6.05411">
        <ele>467.2</ele>
        <time>2021-09-30T11:48:56Z</time>
      </trkpt>
      <trkpt lat="47.21169" lon="6.05409">
        <ele>467.4</ele>
        <time>2021-09-30T11:48:57Z</time>
      </trkpt>
      <trkpt lat="47.21168" lon="6.05407">
        <ele>467.6</ele>
        <time>2021-09-30T11:48:58Z</time>
      </trkpt>
      <trkpt lat="47.21167" lon="6.05405">
        <ele>467.6</ele>
        <time>2021-09-30T11:48:59Z</time>
      </trkpt>
      <trkpt lat="47.21165" lon="6.05403">
        <ele>467.8</ele>
        <time>2021-09-30T11:49:00Z</time>
      </trkpt>
      <trkpt lat="47.21164" lon="6.05401">
        <ele>468</ele>
        <time>2021-09-30T11:49:01Z</time>
      </trkpt>
      <trkpt lat="47.21162" lon="6.05399">
        <ele>468.2</ele>
        <time>2021-09-30T11:49:02Z</time>
      </trkpt>
      <trkpt lat="47.2116" lon="6.05396">
        <ele>468.2</ele>
        <time>2021-09-30T11:49:03Z</time>
      </trkpt>
      <trkpt lat="47.21159" lon="6.05394">
        <ele>468.4</ele>
        <time>2021-09-30T11:49:04Z</time>
      </trkpt>
      <trkpt lat="47.21158" lon="6.05391">
        <ele>468.6</ele>
        <time>2021-09-30T11:49:05Z</time>
      </trkpt>
      <trkpt lat="47.21156" lon="6.05389">
        <ele>468.8</ele>
        <time>2021-09-30T11:49:06Z</time>
      </trkpt>
      <trkpt lat="47.21154" lon="6.05386">
        <ele>469</ele>
        <time>2021-09-30T11:49:07Z</time>
      </trkpt>
      <trkpt lat="47.21153" lon="6.05384">
        <ele>469</ele>
        <time>2021-09-30T11:49:08Z</time>
      </trkpt>
      <trkpt lat="47.21151" lon="6.05381">
        <ele>469.2</ele>
        <time>2021-09-30T11:49:09Z</time>
      </trkpt>
      <trkpt lat="47.21149" lon="6.05378">
        <ele>469.4</ele>
        <time>2021-09-30T11:49:10Z</time>
      </trkpt>
      <trkpt lat="47.21148" lon="6.05376">
        <ele>469.8</ele>
        <time>2021-09-30T11:49:11Z</time>
      </trkpt>
      <trkpt lat="47.21146" lon="6.05374">
        <ele>470</ele>
        <time>2021-09-30T11:49:12Z</time>
      </trkpt>
      <trkpt lat="47.21145" lon="6.05371">
        <ele>470.2</ele>
        <time>2021-09-30T11:49:13Z</time>
      </trkpt>
      <trkpt lat="47.21144" lon="6.05369">
        <ele>470.2</ele>
        <time>2021-09-30T11:49:14Z</time>
      </trkpt>
      <trkpt lat="47.21142" lon="6.05368">
        <ele>470.4</ele>
        <time>2021-09-30T11:49:15Z</time>
      </trkpt>
      <trkpt lat="47.21141" lon="6.05365">
        <ele>470.4</ele>
        <time>2021-09-30T11:49:16Z</time>
      </trkpt>
      <trkpt lat="47.21139" lon="6.05363">
        <ele>470.6</ele>
        <time>2021-09-30T11:49:17Z</time>
      </trkpt>
      <trkpt lat="47.21137" lon="6.05361">
        <ele>470.8</ele>
        <time>2021-09-30T11:49:18Z</time>
      </trkpt>
      <trkpt lat="47.21135" lon="6.05358">
        <ele>470.8</ele>
        <time>2021-09-30T11:49:19Z</time>
      </trkpt>
      <trkpt lat="47.21133" lon="6.05355">
        <ele>471.2</ele>
        <time>2021-09-30T11:49:20Z</time>
      </trkpt>
      <trkpt lat="47.21132" lon="6.05352">
        <ele>471.2</ele>
        <time>2021-09-30T11:49:21Z</time>
      </trkpt>
      <trkpt lat="47.21131" lon="6.05349">
        <ele>471.4</ele>
        <time>2021-09-30T11:49:22Z</time>
      </trkpt>
      <trkpt lat="47.21129" lon="6.05345">
        <ele>471.6</ele>
        <time>2021-09-30T11:49:23Z</time>
      </trkpt>
      <trkpt lat="47.21128" lon="6.05342">
        <ele>471.8</ele>
        <time>2021-09-30T11:49:24Z</time>
      </trkpt>
      <trkpt lat="47.21126" lon="6.0534">
        <ele>472</ele>
        <time>2021-09-30T11:49:25Z</time>
      </trkpt>
      <trkpt lat="47.21125" lon="6.05337">
        <ele>472</ele>
        <time>2021-09-30T11:49:26Z</time>
      </trkpt>
      <trkpt lat="47.21122" lon="6.05334">
        <ele>472.2</ele>
        <time>2021-09-30T11:49:27Z</time>
      </trkpt>
      <trkpt lat="47.2112" lon="6.0533">
        <ele>472.2</ele>
        <time>2021-09-30T11:49:28Z</time>
      </trkpt>
      <trkpt lat="47.21119" lon="6.05326">
        <ele>472.4</ele>
        <time>2021-09-30T11:49:29Z</time>
      </trkpt>
      <trkpt lat="47.21117" lon="6.05322">
        <ele>472.6</ele>
        <time>2021-09-30T11:49:30Z</time>
      </trkpt>
      <trkpt lat="47.21116" lon="6.05319">
        <ele>472.8</ele>
        <time>2021-09-30T11:49:31Z</time>
      </trkpt>
      <trkpt lat="47.21114" lon="6.05316">
        <ele>472.8</ele>
        <time>2021-09-30T11:49:32Z</time>
      </trkpt>
      <trkpt lat="47.21113" lon="6.05315">
        <ele>473</ele>
        <time>2021-09-30T11:49:33Z</time>
      </trkpt>
      <trkpt lat="47.21111" lon="6.05312">
        <ele>473</ele>
        <time>2021-09-30T11:49:34Z</time>
      </trkpt>
      <trkpt lat="47.21109" lon="6.05309">
        <ele>473.2</ele>
        <time>2021-09-30T11:49:35Z</time>
      </trkpt>
      <trkpt lat="47.21108" lon="6.05308">
        <ele>473.4</ele>
        <time>2021-09-30T11:49:36Z</time>
      </trkpt>
      <trkpt lat="47.21107" lon="6.05305">
        <ele>473.4</ele>
        <time>2021-09-30T11:49:37Z</time>
      </trkpt>
      <trkpt lat="47.21105" lon="6.05302">
        <ele>473.6</ele>
        <time>2021-09-30T11:49:38Z</time>
      </trkpt>
      <trkpt lat="47.21104" lon="6.05299">
        <ele>473.6</ele>
        <time>2021-09-30T11:49:39Z</time>
      </trkpt>
      <trkpt lat="47.21103" lon="6.05296">
        <ele>474</ele>
        <time>2021-09-30T11:49:40Z</time>
      </trkpt>
      <trkpt lat="47.21101" lon="6.05294">
        <ele>474</ele>
        <time>2021-09-30T11:49:41Z</time>
      </trkpt>
      <trkpt lat="47.211" lon="6.05292">
        <ele>474.4</ele>
        <time>2021-09-30T11:49:42Z</time>
      </trkpt>
      <trkpt lat="47.21099" lon="6.0529">
        <ele>474.4</ele>
        <time>2021-09-30T11:49:43Z</time>
      </trkpt>
      <trkpt lat="47.21098" lon="6.05289">
        <ele>474.6</ele>
        <time>2021-09-30T11:49:44Z</time>
      </trkpt>
      <trkpt lat="47.21096" lon="6.05287">
        <ele>474.8</ele>
        <time>2021-09-30T11:49:45Z</time>
      </trkpt>
      <trkpt lat="47.21095" lon="6.05285">
        <ele>474.8</ele>
        <time>2021-09-30T11:49:46Z</time>
      </trkpt>
      <trkpt lat="47.21094" lon="6.05283">
        <ele>475</ele>
        <time>2021-09-30T11:49:47Z</time>
      </trkpt>
      <trkpt lat="47.21093" lon="6.05281">
        <ele>475.2</ele>
        <time>2021-09-30T11:49:48Z</time>
      </trkpt>
      <trkpt lat="47.21092" lon="6.0528">
        <ele>475.2</ele>
        <time>2021-09-30T11:49:49Z</time>
      </trkpt>
      <trkpt lat="47.21092" lon="6.05278">
        <ele>475.4</ele>
        <time>2021-09-30T11:49:50Z</time>
      </trkpt>
      <trkpt lat="47.21091" lon="6.05276">
        <ele>475.4</ele>
        <time>2021-09-30T11:49:51Z</time>
      </trkpt>
      <trkpt lat="47.2109" lon="6.05274">
        <ele>475.4</ele>
        <time>2021-09-30T11:49:52Z</time>
      </trkpt>
      <trkpt lat="47.21089" lon="6.05272">
        <ele>475.4</ele>
        <time>2021-09-30T11:49:53Z</time>
      </trkpt>
      <trkpt lat="47.21088" lon="6.0527">
        <ele>475.6</ele>
        <time>2021-09-30T11:49:54Z</time>
      </trkpt>
      <trkpt lat="47.21087" lon="6.05267">
        <ele>475.6</ele>
        <time>2021-09-30T11:49:55Z</time>
      </trkpt>
      <trkpt lat="47.21086" lon="6.05265">
        <ele>475.8</ele>
        <time>2021-09-30T11:49:56Z</time>
      </trkpt>
      <trkpt lat="47.21085" lon="6.05263">
        <ele>475.8</ele>
        <time>2021-09-30T11:49:57Z</time>
      </trkpt>
      <trkpt lat="47.21084" lon="6.05261">
        <ele>475.8</ele>
        <time>2021-09-30T11:49:58Z</time>
      </trkpt>
      <trkpt lat="47.21082" lon="6.05258">
        <ele>475.8</ele>
        <time>2021-09-30T11:49:59Z</time>
      </trkpt>
      <trkpt lat="47.21081" lon="6.05256">
        <ele>476</ele>
        <time>2021-09-30T11:50:00Z</time>
      </trkpt>
      <trkpt lat="47.2108" lon="6.05254">
        <ele>476</ele>
        <time>2021-09-30T11:50:01Z</time>
      </trkpt>
      <trkpt lat="47.21078" lon="6.05251">
        <ele>476.2</ele>
        <time>2021-09-30T11:50:02Z</time>
      </trkpt>
      <trkpt lat="47.21077" lon="6.05249">
        <ele>476.2</ele>
        <time>2021-09-30T11:50:03Z</time>
      </trkpt>
      <trkpt lat="47.21076" lon="6.05247">
        <ele>476.2</ele>
        <time>2021-09-30T11:50:04Z</time>
      </trkpt>
      <trkpt lat="47.21075" lon="6.05244">
        <ele>476.2</ele>
        <time>2021-09-30T11:50:05Z</time>
      </trkpt>
      <trkpt lat="47.21074" lon="6.05242">
        <ele>476.2</ele>
        <time>2021-09-30T11:50:06Z</time>
      </trkpt>
      <trkpt lat="47.21073" lon="6.05239">
        <ele>476.2</ele>
        <time>2021-09-30T11:50:07Z</time>
      </trkpt>
      <trkpt lat="47.21072" lon="6.05237">
        <ele>476.2</ele>
        <time>2021-09-30T11:50:08Z</time>
      </trkpt>
      <trkpt lat="47.21069" lon="6.05232">
        <ele>476.2</ele>
        <time>2021-09-30T11:50:10Z</time>
      </trkpt>
      <trkpt lat="47.21067" lon="6.05227">
        <ele>476.2</ele>
        <time>2021-09-30T11:50:12Z</time>
      </trkpt>
      <trkpt lat="47.21066" lon="6.05224">
        <ele>476.4</ele>
        <time>2021-09-30T11:50:13Z</time>
      </trkpt>
      <trkpt lat="47.21062" lon="6.05219">
        <ele>476.4</ele>
        <time>2021-09-30T11:50:15Z</time>
      </trkpt>
      <trkpt lat="47.21061" lon="6.05216">
        <ele>476.4</ele>
        <time>2021-09-30T11:50:16Z</time>
      </trkpt>
      <trkpt lat="47.21059" lon="6.05213">
        <ele>476.4</ele>
        <time>2021-09-30T11:50:17Z</time>
      </trkpt>
      <trkpt lat="47.21049" lon="6.05196">
        <ele>476.2</ele>
        <time>2021-09-30T11:50:23Z</time>
      </trkpt>
      <trkpt lat="47.21046" lon="6.05191">
        <ele>476.2</ele>
        <time>2021-09-30T11:50:25Z</time>
      </trkpt>
      <trkpt lat="47.21045" lon="6.05189">
        <ele>476.2</ele>
        <time>2021-09-30T11:50:26Z</time>
      </trkpt>
      <trkpt lat="47.21046" lon="6.05186">
        <ele>476.2</ele>
        <time>2021-09-30T11:50:27Z</time>
      </trkpt>
      <trkpt lat="47.21045" lon="6.05184">
        <ele>476.2</ele>
        <time>2021-09-30T11:50:28Z</time>
      </trkpt>
      <trkpt lat="47.21044" lon="6.05182">
        <ele>476.2</ele>
        <time>2021-09-30T11:50:29Z</time>
      </trkpt>
      <trkpt lat="47.21042" lon="6.05178">
        <ele>476.2</ele>
        <time>2021-09-30T11:50:30Z</time>
      </trkpt>
      <trkpt lat="47.21037" lon="6.05165">
        <ele>476.6</ele>
        <time>2021-09-30T11:50:33Z</time>
      </trkpt>
      <trkpt lat="47.21034" lon="6.05163">
        <ele>476.6</ele>
        <time>2021-09-30T11:50:34Z</time>
      </trkpt>
      <trkpt lat="47.21032" lon="6.05161">
        <ele>476.6</ele>
        <time>2021-09-30T11:50:35Z</time>
      </trkpt>
      <trkpt lat="47.21031" lon="6.05157">
        <ele>476.6</ele>
        <time>2021-09-30T11:50:36Z</time>
      </trkpt>
      <trkpt lat="47.2102" lon="6.05143">
        <ele>477</ele>
        <time>2021-09-30T11:50:40Z</time>
      </trkpt>
      <trkpt lat="47.21019" lon="6.05137">
        <ele>477.2</ele>
        <time>2021-09-30T11:50:42Z</time>
      </trkpt>
      <trkpt lat="47.21018" lon="6.05134">
        <ele>477.2</ele>
        <time>2021-09-30T11:50:43Z</time>
      </trkpt>
      <trkpt lat="47.21016" lon="6.05129">
        <ele>477.4</ele>
        <time>2021-09-30T11:50:44Z</time>
      </trkpt>
      <trkpt lat="47.21012" lon="6.05121">
        <ele>477.6</ele>
        <time>2021-09-30T11:50:46Z</time>
      </trkpt>
      <trkpt lat="47.21011" lon="6.05118">
        <ele>477.6</ele>
        <time>2021-09-30T11:50:47Z</time>
      </trkpt>
      <trkpt lat="47.2101" lon="6.05116">
        <ele>477.6</ele>
        <time>2021-09-30T11:50:48Z</time>
      </trkpt>
      <trkpt lat="47.2101" lon="6.05114">
        <ele>477.8</ele>
        <time>2021-09-30T11:50:49Z</time>
      </trkpt>
      <trkpt lat="47.21009" lon="6.05111">
        <ele>478</ele>
        <time>2021-09-30T11:50:50Z</time>
      </trkpt>
      <trkpt lat="47.21008" lon="6.05108">
        <ele>478.2</ele>
        <time>2021-09-30T11:50:51Z</time>
      </trkpt>
      <trkpt lat="47.21007" lon="6.05105">
        <ele>478.2</ele>
        <time>2021-09-30T11:50:52Z</time>
      </trkpt>
      <trkpt lat="47.21006" lon="6.05102">
        <ele>478.4</ele>
        <time>2021-09-30T11:50:53Z</time>
      </trkpt>
      <trkpt lat="47.21004" lon="6.05098">
        <ele>478.6</ele>
        <time>2021-09-30T11:50:54Z</time>
      </trkpt>
      <trkpt lat="47.21002" lon="6.05095">
        <ele>478.8</ele>
        <time>2021-09-30T11:50:55Z</time>
      </trkpt>
      <trkpt lat="47.20997" lon="6.05085">
        <ele>479</ele>
        <time>2021-09-30T11:50:59Z</time>
      </trkpt>
      <trkpt lat="47.20996" lon="6.05082">
        <ele>479.2</ele>
        <time>2021-09-30T11:51:00Z</time>
      </trkpt>
      <trkpt lat="47.20994" lon="6.05079">
        <ele>479.2</ele>
        <time>2021-09-30T11:51:01Z</time>
      </trkpt>
      <trkpt lat="47.20985" lon="6.05058">
        <ele>479.8</ele>
        <time>2021-09-30T11:51:07Z</time>
      </trkpt>
      <trkpt lat="47.20975" lon="6.05041">
        <ele>480.4</ele>
        <time>2021-09-30T11:51:12Z</time>
      </trkpt>
      <trkpt lat="47.2097" lon="6.05035">
        <ele>480.8</ele>
        <time>2021-09-30T11:51:14Z</time>
      </trkpt>
      <trkpt lat="47.20968" lon="6.0503">
        <ele>481</ele>
        <time>2021-09-30T11:51:15Z</time>
      </trkpt>
      <trkpt lat="47.20966" lon="6.05026">
        <ele>481</ele>
        <time>2021-09-30T11:51:16Z</time>
      </trkpt>
      <trkpt lat="47.20964" lon="6.05021">
        <ele>481.2</ele>
        <time>2021-09-30T11:51:17Z</time>
      </trkpt>
      <trkpt lat="47.20962" lon="6.05017">
        <ele>481.4</ele>
        <time>2021-09-30T11:51:18Z</time>
      </trkpt>
      <trkpt lat="47.2096" lon="6.05013">
        <ele>481.6</ele>
        <time>2021-09-30T11:51:19Z</time>
      </trkpt>
      <trkpt lat="47.20958" lon="6.05009">
        <ele>482</ele>
        <time>2021-09-30T11:51:20Z</time>
      </trkpt>
      <trkpt lat="47.20956" lon="6.05004">
        <ele>482</ele>
        <time>2021-09-30T11:51:21Z</time>
      </trkpt>
      <trkpt lat="47.20954" lon="6.05">
        <ele>482.4</ele>
        <time>2021-09-30T11:51:22Z</time>
      </trkpt>
      <trkpt lat="47.20952" lon="6.04997">
        <ele>482.6</ele>
        <time>2021-09-30T11:51:23Z</time>
      </trkpt>
      <trkpt lat="47.20949" lon="6.04994">
        <ele>483</ele>
        <time>2021-09-30T11:51:24Z</time>
      </trkpt>
      <trkpt lat="47.20949" lon="6.04991">
        <ele>483</ele>
        <time>2021-09-30T11:51:25Z</time>
      </trkpt>
      <trkpt lat="47.20948" lon="6.04986">
        <ele>483.2</ele>
        <time>2021-09-30T11:51:26Z</time>
      </trkpt>
      <trkpt lat="47.20948" lon="6.04983">
        <ele>483.4</ele>
        <time>2021-09-30T11:51:27Z</time>
      </trkpt>
      <trkpt lat="47.20946" lon="6.0498">
        <ele>483.6</ele>
        <time>2021-09-30T11:51:28Z</time>
      </trkpt>
      <trkpt lat="47.20944" lon="6.04976">
        <ele>483.8</ele>
        <time>2021-09-30T11:51:29Z</time>
      </trkpt>
      <trkpt lat="47.20942" lon="6.04973">
        <ele>483.8</ele>
        <time>2021-09-30T11:51:30Z</time>
      </trkpt>
      <trkpt lat="47.2094" lon="6.04969">
        <ele>484</ele>
        <time>2021-09-30T11:51:31Z</time>
      </trkpt>
      <trkpt lat="47.20938" lon="6.04967">
        <ele>484</ele>
        <time>2021-09-30T11:51:32Z</time>
      </trkpt>
      <trkpt lat="47.20937" lon="6.04963">
        <ele>484.4</ele>
        <time>2021-09-30T11:51:33Z</time>
      </trkpt>
      <trkpt lat="47.20936" lon="6.04959">
        <ele>484.4</ele>
        <time>2021-09-30T11:51:34Z</time>
      </trkpt>
      <trkpt lat="47.20935" lon="6.04956">
        <ele>484.6</ele>
        <time>2021-09-30T11:51:35Z</time>
      </trkpt>
      <trkpt lat="47.20935" lon="6.04953">
        <ele>484.8</ele>
        <time>2021-09-30T11:51:36Z</time>
      </trkpt>
      <trkpt lat="47.20933" lon="6.0495">
        <ele>485</ele>
        <time>2021-09-30T11:51:37Z</time>
      </trkpt>
      <trkpt lat="47.20931" lon="6.04946">
        <ele>485</ele>
        <time>2021-09-30T11:51:38Z</time>
      </trkpt>
      <trkpt lat="47.2093" lon="6.04943">
        <ele>485</ele>
        <time>2021-09-30T11:51:39Z</time>
      </trkpt>
      <trkpt lat="47.20929" lon="6.0494">
        <ele>485.2</ele>
        <time>2021-09-30T11:51:40Z</time>
      </trkpt>
      <trkpt lat="47.20928" lon="6.04937">
        <ele>485.2</ele>
        <time>2021-09-30T11:51:41Z</time>
      </trkpt>
      <trkpt lat="47.20927" lon="6.04933">
        <ele>485.4</ele>
        <time>2021-09-30T11:51:42Z</time>
      </trkpt>
      <trkpt lat="47.20926" lon="6.0493">
        <ele>485.4</ele>
        <time>2021-09-30T11:51:43Z</time>
      </trkpt>
      <trkpt lat="47.20924" lon="6.04927">
        <ele>485.4</ele>
        <time>2021-09-30T11:51:44Z</time>
      </trkpt>
      <trkpt lat="47.20923" lon="6.04924">
        <ele>485.4</ele>
        <time>2021-09-30T11:51:45Z</time>
      </trkpt>
      <trkpt lat="47.20921" lon="6.0492">
        <ele>485.4</ele>
        <time>2021-09-30T11:51:46Z</time>
      </trkpt>
      <trkpt lat="47.2092" lon="6.04917">
        <ele>485.4</ele>
        <time>2021-09-30T11:51:47Z</time>
      </trkpt>
      <trkpt lat="47.20918" lon="6.04913">
        <ele>485.6</ele>
        <time>2021-09-30T11:51:48Z</time>
      </trkpt>
      <trkpt lat="47.20917" lon="6.0491">
        <ele>485.6</ele>
        <time>2021-09-30T11:51:49Z</time>
      </trkpt>
      <trkpt lat="47.20915" lon="6.04907">
        <ele>485.6</ele>
        <time>2021-09-30T11:51:50Z</time>
      </trkpt>
      <trkpt lat="47.20914" lon="6.04904">
        <ele>485.6</ele>
        <time>2021-09-30T11:51:51Z</time>
      </trkpt>
      <trkpt lat="47.20913" lon="6.04902">
        <ele>485.6</ele>
        <time>2021-09-30T11:51:52Z</time>
      </trkpt>
      <trkpt lat="47.20912" lon="6.049">
        <ele>485.8</ele>
        <time>2021-09-30T11:51:53Z</time>
      </trkpt>
      <trkpt lat="47.20911" lon="6.04898">
        <ele>485.8</ele>
        <time>2021-09-30T11:51:54Z</time>
      </trkpt>
      <trkpt lat="47.2091" lon="6.04896">
        <ele>485.8</ele>
        <time>2021-09-30T11:51:55Z</time>
      </trkpt>
      <trkpt lat="47.20909" lon="6.04894">
        <ele>485.8</ele>
        <time>2021-09-30T11:51:56Z</time>
      </trkpt>
      <trkpt lat="47.20904" lon="6.04881">
        <ele>486</ele>
        <time>2021-09-30T11:52:00Z</time>
      </trkpt>
      <trkpt lat="47.20893" lon="6.04857">
        <ele>486.2</ele>
        <time>2021-09-30T11:52:07Z</time>
      </trkpt>
      <trkpt lat="47.2089" lon="6.04844">
        <ele>486.4</ele>
        <time>2021-09-30T11:52:10Z</time>
      </trkpt>
      <trkpt lat="47.20887" lon="6.04836">
        <ele>486.4</ele>
        <time>2021-09-30T11:52:12Z</time>
      </trkpt>
      <trkpt lat="47.20886" lon="6.04831">
        <ele>486.6</ele>
        <time>2021-09-30T11:52:13Z</time>
      </trkpt>
      <trkpt lat="47.20885" lon="6.04827">
        <ele>486.6</ele>
        <time>2021-09-30T11:52:14Z</time>
      </trkpt>
      <trkpt lat="47.20883" lon="6.0482">
        <ele>486.8</ele>
        <time>2021-09-30T11:52:16Z</time>
      </trkpt>
      <trkpt lat="47.20882" lon="6.04816">
        <ele>487</ele>
        <time>2021-09-30T11:52:17Z</time>
      </trkpt>
      <trkpt lat="47.20879" lon="6.04807">
        <ele>487.2</ele>
        <time>2021-09-30T11:52:19Z</time>
      </trkpt>
      <trkpt lat="47.20878" lon="6.04803">
        <ele>487.2</ele>
        <time>2021-09-30T11:52:20Z</time>
      </trkpt>
      <trkpt lat="47.20875" lon="6.04796">
        <ele>487.8</ele>
        <time>2021-09-30T11:52:22Z</time>
      </trkpt>
      <trkpt lat="47.2087" lon="6.04779">
        <ele>488.4</ele>
        <time>2021-09-30T11:52:25Z</time>
      </trkpt>
      <trkpt lat="47.20867" lon="6.04764">
        <ele>489</ele>
        <time>2021-09-30T11:52:28Z</time>
      </trkpt>
      <trkpt lat="47.20865" lon="6.0476">
        <ele>489.2</ele>
        <time>2021-09-30T11:52:29Z</time>
      </trkpt>
      <trkpt lat="47.20865" lon="6.04756">
        <ele>489.4</ele>
        <time>2021-09-30T11:52:30Z</time>
      </trkpt>
      <trkpt lat="47.20864" lon="6.04752">
        <ele>489.4</ele>
        <time>2021-09-30T11:52:31Z</time>
      </trkpt>
      <trkpt lat="47.20862" lon="6.04748">
        <ele>489.8</ele>
        <time>2021-09-30T11:52:32Z</time>
      </trkpt>
      <trkpt lat="47.20861" lon="6.04744">
        <ele>490</ele>
        <time>2021-09-30T11:52:33Z</time>
      </trkpt>
      <trkpt lat="47.20859" lon="6.04741">
        <ele>490.2</ele>
        <time>2021-09-30T11:52:34Z</time>
      </trkpt>
      <trkpt lat="47.20858" lon="6.04738">
        <ele>490.4</ele>
        <time>2021-09-30T11:52:35Z</time>
      </trkpt>
      <trkpt lat="47.20857" lon="6.04735">
        <ele>490.6</ele>
        <time>2021-09-30T11:52:36Z</time>
      </trkpt>
      <trkpt lat="47.20856" lon="6.04732">
        <ele>490.8</ele>
        <time>2021-09-30T11:52:37Z</time>
      </trkpt>
      <trkpt lat="47.20855" lon="6.0473">
        <ele>491</ele>
        <time>2021-09-30T11:52:38Z</time>
      </trkpt>
      <trkpt lat="47.20854" lon="6.04727">
        <ele>491.2</ele>
        <time>2021-09-30T11:52:39Z</time>
      </trkpt>
      <trkpt lat="47.20854" lon="6.04724">
        <ele>491.4</ele>
        <time>2021-09-30T11:52:40Z</time>
      </trkpt>
      <trkpt lat="47.20853" lon="6.04721">
        <ele>491.6</ele>
        <time>2021-09-30T11:52:41Z</time>
      </trkpt>
      <trkpt lat="47.20852" lon="6.04718">
        <ele>491.6</ele>
        <time>2021-09-30T11:52:42Z</time>
      </trkpt>
      <trkpt lat="47.20851" lon="6.04715">
        <ele>491.6</ele>
        <time>2021-09-30T11:52:43Z</time>
      </trkpt>
      <trkpt lat="47.2085" lon="6.04712">
        <ele>491.6</ele>
        <time>2021-09-30T11:52:44Z</time>
      </trkpt>
      <trkpt lat="47.20849" lon="6.0471">
        <ele>491.6</ele>
        <time>2021-09-30T11:52:45Z</time>
      </trkpt>
      <trkpt lat="47.20848" lon="6.04707">
        <ele>491.8</ele>
        <time>2021-09-30T11:52:46Z</time>
      </trkpt>
      <trkpt lat="47.20847" lon="6.04703">
        <ele>491.8</ele>
        <time>2021-09-30T11:52:47Z</time>
      </trkpt>
      <trkpt lat="47.20846" lon="6.047">
        <ele>492</ele>
        <time>2021-09-30T11:52:48Z</time>
      </trkpt>
      <trkpt lat="47.20845" lon="6.04697">
        <ele>492.2</ele>
        <time>2021-09-30T11:52:49Z</time>
      </trkpt>
      <trkpt lat="47.20843" lon="6.04693">
        <ele>492.2</ele>
        <time>2021-09-30T11:52:50Z</time>
      </trkpt>
      <trkpt lat="47.20842" lon="6.0469">
        <ele>492.2</ele>
        <time>2021-09-30T11:52:51Z</time>
      </trkpt>
      <trkpt lat="47.20841" lon="6.04687">
        <ele>492.4</ele>
        <time>2021-09-30T11:52:52Z</time>
      </trkpt>
      <trkpt lat="47.2084" lon="6.04684">
        <ele>492.4</ele>
        <time>2021-09-30T11:52:53Z</time>
      </trkpt>
      <trkpt lat="47.20839" lon="6.04682">
        <ele>492.6</ele>
        <time>2021-09-30T11:52:54Z</time>
      </trkpt>
      <trkpt lat="47.20838" lon="6.0468">
        <ele>492.6</ele>
        <time>2021-09-30T11:52:55Z</time>
      </trkpt>
      <trkpt lat="47.20837" lon="6.04677">
        <ele>492.6</ele>
        <time>2021-09-30T11:52:56Z</time>
      </trkpt>
      <trkpt lat="47.20836" lon="6.04675">
        <ele>492.6</ele>
        <time>2021-09-30T11:52:57Z</time>
      </trkpt>
      <trkpt lat="47.20834" lon="6.04673">
        <ele>492.6</ele>
        <time>2021-09-30T11:52:58Z</time>
      </trkpt>
      <trkpt lat="47.20833" lon="6.04672">
        <ele>492.6</ele>
        <time>2021-09-30T11:52:59Z</time>
      </trkpt>
      <trkpt lat="47.20832" lon="6.0467">
        <ele>492.8</ele>
        <time>2021-09-30T11:53:00Z</time>
      </trkpt>
      <trkpt lat="47.20831" lon="6.04668">
        <ele>492.8</ele>
        <time>2021-09-30T11:53:01Z</time>
      </trkpt>
      <trkpt lat="47.2083" lon="6.04666">
        <ele>492.8</ele>
        <time>2021-09-30T11:53:02Z</time>
      </trkpt>
      <trkpt lat="47.20829" lon="6.04664">
        <ele>492.8</ele>
        <time>2021-09-30T11:53:03Z</time>
      </trkpt>
      <trkpt lat="47.20828" lon="6.04661">
        <ele>492.6</ele>
        <time>2021-09-30T11:53:04Z</time>
      </trkpt>
      <trkpt lat="47.20827" lon="6.04659">
        <ele>492.6</ele>
        <time>2021-09-30T11:53:05Z</time>
      </trkpt>
      <trkpt lat="47.20824" lon="6.04646">
        <ele>492.6</ele>
        <time>2021-09-30T11:53:10Z</time>
      </trkpt>
      <trkpt lat="47.20818" lon="6.04624">
        <ele>492.2</ele>
        <time>2021-09-30T11:53:16Z</time>
      </trkpt>
      <trkpt lat="47.20812" lon="6.04602">
        <ele>491.8</ele>
        <time>2021-09-30T11:53:20Z</time>
      </trkpt>
      <trkpt lat="47.2081" lon="6.04598">
        <ele>491.6</ele>
        <time>2021-09-30T11:53:21Z</time>
      </trkpt>
      <trkpt lat="47.20809" lon="6.04593">
        <ele>491.6</ele>
        <time>2021-09-30T11:53:22Z</time>
      </trkpt>
      <trkpt lat="47.20808" lon="6.04587">
        <ele>491.4</ele>
        <time>2021-09-30T11:53:23Z</time>
      </trkpt>
      <trkpt lat="47.20802" lon="6.04568">
        <ele>490.6</ele>
        <time>2021-09-30T11:53:27Z</time>
      </trkpt>
      <trkpt lat="47.20799" lon="6.04555">
        <ele>490.6</ele>
        <time>2021-09-30T11:53:30Z</time>
      </trkpt>
      <trkpt lat="47.20798" lon="6.0455">
        <ele>490.6</ele>
        <time>2021-09-30T11:53:31Z</time>
      </trkpt>
      <trkpt lat="47.20797" lon="6.04546">
        <ele>490.6</ele>
        <time>2021-09-30T11:53:32Z</time>
      </trkpt>
      <trkpt lat="47.20796" lon="6.04542">
        <ele>490.6</ele>
        <time>2021-09-30T11:53:33Z</time>
      </trkpt>
      <trkpt lat="47.20795" lon="6.04538">
        <ele>490.6</ele>
        <time>2021-09-30T11:53:34Z</time>
      </trkpt>
      <trkpt lat="47.20793" lon="6.04534">
        <ele>490.6</ele>
        <time>2021-09-30T11:53:35Z</time>
      </trkpt>
      <trkpt lat="47.20792" lon="6.0453">
        <ele>490.6</ele>
        <time>2021-09-30T11:53:36Z</time>
      </trkpt>
      <trkpt lat="47.2079" lon="6.04525">
        <ele>490.6</ele>
        <time>2021-09-30T11:53:37Z</time>
      </trkpt>
      <trkpt lat="47.20787" lon="6.04516">
        <ele>490.2</ele>
        <time>2021-09-30T11:53:39Z</time>
      </trkpt>
      <trkpt lat="47.20782" lon="6.045">
        <ele>490</ele>
        <time>2021-09-30T11:53:42Z</time>
      </trkpt>
      <trkpt lat="47.20776" lon="6.04487">
        <ele>489.8</ele>
        <time>2021-09-30T11:53:44Z</time>
      </trkpt>
      <trkpt lat="47.20769" lon="6.04472">
        <ele>489.6</ele>
        <time>2021-09-30T11:53:46Z</time>
      </trkpt>
      <trkpt lat="47.20765" lon="6.04463">
        <ele>489</ele>
        <time>2021-09-30T11:53:47Z</time>
      </trkpt>
      <trkpt lat="47.20762" lon="6.04456">
        <ele>487.8</ele>
        <time>2021-09-30T11:53:48Z</time>
      </trkpt>
      <trkpt lat="47.20759" lon="6.04449">
        <ele>487.6</ele>
        <time>2021-09-30T11:53:49Z</time>
      </trkpt>
      <trkpt lat="47.20755" lon="6.04443">
        <ele>487</ele>
        <time>2021-09-30T11:53:50Z</time>
      </trkpt>
      <trkpt lat="47.20752" lon="6.04437">
        <ele>486.4</ele>
        <time>2021-09-30T11:53:51Z</time>
      </trkpt>
      <trkpt lat="47.20751" lon="6.04431">
        <ele>485.8</ele>
        <time>2021-09-30T11:53:52Z</time>
      </trkpt>
      <trkpt lat="47.20751" lon="6.04424">
        <ele>485.4</ele>
        <time>2021-09-30T11:53:53Z</time>
      </trkpt>
      <trkpt lat="47.20751" lon="6.04416">
        <ele>485.2</ele>
        <time>2021-09-30T11:53:54Z</time>
      </trkpt>
      <trkpt lat="47.20751" lon="6.04409">
        <ele>485.2</ele>
        <time>2021-09-30T11:53:55Z</time>
      </trkpt>
      <trkpt lat="47.20752" lon="6.04402">
        <ele>484.8</ele>
        <time>2021-09-30T11:53:56Z</time>
      </trkpt>
      <trkpt lat="47.20754" lon="6.04395">
        <ele>484.6</ele>
        <time>2021-09-30T11:53:57Z</time>
      </trkpt>
      <trkpt lat="47.20754" lon="6.04388">
        <ele>484.4</ele>
        <time>2021-09-30T11:53:58Z</time>
      </trkpt>
      <trkpt lat="47.20753" lon="6.04381">
        <ele>484.2</ele>
        <time>2021-09-30T11:53:59Z</time>
      </trkpt>
      <trkpt lat="47.20752" lon="6.04374">
        <ele>484</ele>
        <time>2021-09-30T11:54:00Z</time>
      </trkpt>
      <trkpt lat="47.20751" lon="6.04366">
        <ele>483.8</ele>
        <time>2021-09-30T11:54:01Z</time>
      </trkpt>
      <trkpt lat="47.2075" lon="6.04358">
        <ele>483.6</ele>
        <time>2021-09-30T11:54:02Z</time>
      </trkpt>
      <trkpt lat="47.20748" lon="6.0435">
        <ele>483.2</ele>
        <time>2021-09-30T11:54:03Z</time>
      </trkpt>
      <trkpt lat="47.20746" lon="6.0434">
        <ele>483</ele>
        <time>2021-09-30T11:54:04Z</time>
      </trkpt>
      <trkpt lat="47.20741" lon="6.04312">
        <ele>481.8</ele>
        <time>2021-09-30T11:54:07Z</time>
      </trkpt>
      <trkpt lat="47.20736" lon="6.04294">
        <ele>480.8</ele>
        <time>2021-09-30T11:54:09Z</time>
      </trkpt>
      <trkpt lat="47.20734" lon="6.04284">
        <ele>480.6</ele>
        <time>2021-09-30T11:54:10Z</time>
      </trkpt>
      <trkpt lat="47.20727" lon="6.04254">
        <ele>479.4</ele>
        <time>2021-09-30T11:54:14Z</time>
      </trkpt>
      <trkpt lat="47.20726" lon="6.04248">
        <ele>479</ele>
        <time>2021-09-30T11:54:15Z</time>
      </trkpt>
      <trkpt lat="47.20726" lon="6.04242">
        <ele>478.6</ele>
        <time>2021-09-30T11:54:16Z</time>
      </trkpt>
      <trkpt lat="47.20724" lon="6.04238">
        <ele>478.4</ele>
        <time>2021-09-30T11:54:17Z</time>
      </trkpt>
      <trkpt lat="47.20724" lon="6.04234">
        <ele>478</ele>
        <time>2021-09-30T11:54:18Z</time>
      </trkpt>
      <trkpt lat="47.20723" lon="6.04232">
        <ele>477.6</ele>
        <time>2021-09-30T11:54:19Z</time>
      </trkpt>
      <trkpt lat="47.20722" lon="6.04231">
        <ele>477</ele>
        <time>2021-09-30T11:54:20Z</time>
      </trkpt>
      <trkpt lat="47.20722" lon="6.0423">
        <ele>476.6</ele>
        <time>2021-09-30T11:54:21Z</time>
      </trkpt>
      <trkpt lat="47.20722" lon="6.0423">
        <ele>476.4</ele>
        <time>2021-09-30T11:54:23Z</time>
      </trkpt>
      <trkpt lat="47.20722" lon="6.0423">
        <ele>476</ele>
        <time>2021-09-30T11:54:27Z</time>
      </trkpt>
      <trkpt lat="47.20721" lon="6.04224">
        <ele>475.6</ele>
        <time>2021-09-30T11:54:33Z</time>
      </trkpt>
      <trkpt lat="47.2072" lon="6.0422">
        <ele>475.6</ele>
        <time>2021-09-30T11:54:34Z</time>
      </trkpt>
      <trkpt lat="47.20719" lon="6.04216">
        <ele>475.6</ele>
        <time>2021-09-30T11:54:35Z</time>
      </trkpt>
      <trkpt lat="47.20717" lon="6.042">
        <ele>475.4</ele>
        <time>2021-09-30T11:54:38Z</time>
      </trkpt>
      <trkpt lat="47.20716" lon="6.04175">
        <ele>474.8</ele>
        <time>2021-09-30T11:54:42Z</time>
      </trkpt>
      <trkpt lat="47.20717" lon="6.04168">
        <ele>474.4</ele>
        <time>2021-09-30T11:54:43Z</time>
      </trkpt>
      <trkpt lat="47.20717" lon="6.04159">
        <ele>474.2</ele>
        <time>2021-09-30T11:54:44Z</time>
      </trkpt>
      <trkpt lat="47.20718" lon="6.04142">
        <ele>473.8</ele>
        <time>2021-09-30T11:54:46Z</time>
      </trkpt>
      <trkpt lat="47.20717" lon="6.04133">
        <ele>473.4</ele>
        <time>2021-09-30T11:54:47Z</time>
      </trkpt>
      <trkpt lat="47.20717" lon="6.04124">
        <ele>473.2</ele>
        <time>2021-09-30T11:54:48Z</time>
      </trkpt>
      <trkpt lat="47.20717" lon="6.04117">
        <ele>472</ele>
        <time>2021-09-30T11:54:49Z</time>
      </trkpt>
      <trkpt lat="47.20718" lon="6.0411">
        <ele>471.6</ele>
        <time>2021-09-30T11:54:50Z</time>
      </trkpt>
      <trkpt lat="47.20718" lon="6.04104">
        <ele>470.8</ele>
        <time>2021-09-30T11:54:51Z</time>
      </trkpt>
      <trkpt lat="47.20718" lon="6.04097">
        <ele>470</ele>
        <time>2021-09-30T11:54:52Z</time>
      </trkpt>
      <trkpt lat="47.20719" lon="6.0409">
        <ele>469</ele>
        <time>2021-09-30T11:54:53Z</time>
      </trkpt>
      <trkpt lat="47.20721" lon="6.04084">
        <ele>468.4</ele>
        <time>2021-09-30T11:54:54Z</time>
      </trkpt>
      <trkpt lat="47.20723" lon="6.04078">
        <ele>468</ele>
        <time>2021-09-30T11:54:55Z</time>
      </trkpt>
      <trkpt lat="47.20727" lon="6.04071">
        <ele>467.4</ele>
        <time>2021-09-30T11:54:56Z</time>
      </trkpt>
      <trkpt lat="47.20729" lon="6.04061">
        <ele>467.2</ele>
        <time>2021-09-30T11:54:57Z</time>
      </trkpt>
      <trkpt lat="47.2073" lon="6.0405">
        <ele>466.8</ele>
        <time>2021-09-30T11:54:58Z</time>
      </trkpt>
      <trkpt lat="47.2073" lon="6.04039">
        <ele>466.6</ele>
        <time>2021-09-30T11:54:59Z</time>
      </trkpt>
      <trkpt lat="47.20731" lon="6.04029">
        <ele>466.2</ele>
        <time>2021-09-30T11:55:00Z</time>
      </trkpt>
      <trkpt lat="47.20731" lon="6.0402">
        <ele>465.6</ele>
        <time>2021-09-30T11:55:01Z</time>
      </trkpt>
      <trkpt lat="47.20729" lon="6.04009">
        <ele>464.6</ele>
        <time>2021-09-30T11:55:02Z</time>
      </trkpt>
      <trkpt lat="47.20728" lon="6.04">
        <ele>464.2</ele>
        <time>2021-09-30T11:55:03Z</time>
      </trkpt>
      <trkpt lat="47.20728" lon="6.03993">
        <ele>463.6</ele>
        <time>2021-09-30T11:55:04Z</time>
      </trkpt>
      <trkpt lat="47.20728" lon="6.03985">
        <ele>463.2</ele>
        <time>2021-09-30T11:55:05Z</time>
      </trkpt>
      <trkpt lat="47.20728" lon="6.03977">
        <ele>463</ele>
        <time>2021-09-30T11:55:06Z</time>
      </trkpt>
      <trkpt lat="47.2073" lon="6.03968">
        <ele>462.2</ele>
        <time>2021-09-30T11:55:07Z</time>
      </trkpt>
      <trkpt lat="47.20731" lon="6.03958">
        <ele>462</ele>
        <time>2021-09-30T11:55:08Z</time>
      </trkpt>
      <trkpt lat="47.20732" lon="6.0395">
        <ele>461.2</ele>
        <time>2021-09-30T11:55:09Z</time>
      </trkpt>
      <trkpt lat="47.20733" lon="6.03944">
        <ele>461</ele>
        <time>2021-09-30T11:55:10Z</time>
      </trkpt>
      <trkpt lat="47.20733" lon="6.03938">
        <ele>460.4</ele>
        <time>2021-09-30T11:55:11Z</time>
      </trkpt>
      <trkpt lat="47.20733" lon="6.03934">
        <ele>459.6</ele>
        <time>2021-09-30T11:55:12Z</time>
      </trkpt>
      <trkpt lat="47.20732" lon="6.03929">
        <ele>458.8</ele>
        <time>2021-09-30T11:55:13Z</time>
      </trkpt>
      <trkpt lat="47.20732" lon="6.03923">
        <ele>458.4</ele>
        <time>2021-09-30T11:55:14Z</time>
      </trkpt>
      <trkpt lat="47.20731" lon="6.03919">
        <ele>458.2</ele>
        <time>2021-09-30T11:55:15Z</time>
      </trkpt>
      <trkpt lat="47.20731" lon="6.03915">
        <ele>458</ele>
        <time>2021-09-30T11:55:16Z</time>
      </trkpt>
      <trkpt lat="47.20731" lon="6.03913">
        <ele>457.8</ele>
        <time>2021-09-30T11:55:17Z</time>
      </trkpt>
      <trkpt lat="47.20732" lon="6.0391">
        <ele>457.6</ele>
        <time>2021-09-30T11:55:18Z</time>
      </trkpt>
      <trkpt lat="47.20734" lon="6.03908">
        <ele>457.4</ele>
        <time>2021-09-30T11:55:19Z</time>
      </trkpt>
      <trkpt lat="47.20737" lon="6.03905">
        <ele>457</ele>
        <time>2021-09-30T11:55:20Z</time>
      </trkpt>
      <trkpt lat="47.20739" lon="6.03903">
        <ele>457</ele>
        <time>2021-09-30T11:55:21Z</time>
      </trkpt>
      <trkpt lat="47.2074" lon="6.03901">
        <ele>456.8</ele>
        <time>2021-09-30T11:55:22Z</time>
      </trkpt>
      <trkpt lat="47.20741" lon="6.03898">
        <ele>456.8</ele>
        <time>2021-09-30T11:55:23Z</time>
      </trkpt>
      <trkpt lat="47.20744" lon="6.03893">
        <ele>456.2</ele>
        <time>2021-09-30T11:55:24Z</time>
      </trkpt>
      <trkpt lat="47.20754" lon="6.03878">
        <ele>455.2</ele>
        <time>2021-09-30T11:55:27Z</time>
      </trkpt>
      <trkpt lat="47.20755" lon="6.03869">
        <ele>454.8</ele>
        <time>2021-09-30T11:55:28Z</time>
      </trkpt>
      <trkpt lat="47.20754" lon="6.03859">
        <ele>454.6</ele>
        <time>2021-09-30T11:55:29Z</time>
      </trkpt>
      <trkpt lat="47.20752" lon="6.03843">
        <ele>453.8</ele>
        <time>2021-09-30T11:55:31Z</time>
      </trkpt>
      <trkpt lat="47.20751" lon="6.03835">
        <ele>453.4</ele>
        <time>2021-09-30T11:55:32Z</time>
      </trkpt>
      <trkpt lat="47.20753" lon="6.03814">
        <ele>452.6</ele>
        <time>2021-09-30T11:55:35Z</time>
      </trkpt>
      <trkpt lat="47.20753" lon="6.03806">
        <ele>452.4</ele>
        <time>2021-09-30T11:55:36Z</time>
      </trkpt>
      <trkpt lat="47.20752" lon="6.03798">
        <ele>452</ele>
        <time>2021-09-30T11:55:37Z</time>
      </trkpt>
      <trkpt lat="47.2075" lon="6.03789">
        <ele>451.8</ele>
        <time>2021-09-30T11:55:38Z</time>
      </trkpt>
      <trkpt lat="47.2075" lon="6.03782">
        <ele>451.8</ele>
        <time>2021-09-30T11:55:39Z</time>
      </trkpt>
      <trkpt lat="47.20749" lon="6.03773">
        <ele>451.2</ele>
        <time>2021-09-30T11:55:40Z</time>
      </trkpt>
      <trkpt lat="47.20749" lon="6.03754">
        <ele>449.8</ele>
        <time>2021-09-30T11:55:42Z</time>
      </trkpt>
      <trkpt lat="47.20746" lon="6.03711">
        <ele>448.2</ele>
        <time>2021-09-30T11:55:46Z</time>
      </trkpt>
      <trkpt lat="47.20744" lon="6.03702">
        <ele>447.8</ele>
        <time>2021-09-30T11:55:47Z</time>
      </trkpt>
      <trkpt lat="47.20743" lon="6.03693">
        <ele>447</ele>
        <time>2021-09-30T11:55:48Z</time>
      </trkpt>
      <trkpt lat="47.20742" lon="6.03684">
        <ele>446.6</ele>
        <time>2021-09-30T11:55:49Z</time>
      </trkpt>
      <trkpt lat="47.2074" lon="6.03675">
        <ele>446.2</ele>
        <time>2021-09-30T11:55:50Z</time>
      </trkpt>
      <trkpt lat="47.20739" lon="6.03667">
        <ele>445.4</ele>
        <time>2021-09-30T11:55:51Z</time>
      </trkpt>
      <trkpt lat="47.20737" lon="6.03659">
        <ele>445</ele>
        <time>2021-09-30T11:55:52Z</time>
      </trkpt>
      <trkpt lat="47.20735" lon="6.03652">
        <ele>444</ele>
        <time>2021-09-30T11:55:53Z</time>
      </trkpt>
      <trkpt lat="47.20732" lon="6.03645">
        <ele>443.6</ele>
        <time>2021-09-30T11:55:54Z</time>
      </trkpt>
      <trkpt lat="47.20728" lon="6.03639">
        <ele>443.2</ele>
        <time>2021-09-30T11:55:55Z</time>
      </trkpt>
      <trkpt lat="47.20724" lon="6.03634">
        <ele>443.2</ele>
        <time>2021-09-30T11:55:56Z</time>
      </trkpt>
      <trkpt lat="47.20721" lon="6.0363">
        <ele>442.8</ele>
        <time>2021-09-30T11:55:57Z</time>
      </trkpt>
      <trkpt lat="47.20714" lon="6.0362">
        <ele>442.4</ele>
        <time>2021-09-30T11:55:59Z</time>
      </trkpt>
      <trkpt lat="47.20711" lon="6.03616">
        <ele>442.4</ele>
        <time>2021-09-30T11:56:00Z</time>
      </trkpt>
      <trkpt lat="47.20708" lon="6.03612">
        <ele>442.4</ele>
        <time>2021-09-30T11:56:01Z</time>
      </trkpt>
      <trkpt lat="47.20705" lon="6.03607">
        <ele>442.2</ele>
        <time>2021-09-30T11:56:02Z</time>
      </trkpt>
      <trkpt lat="47.20702" lon="6.03603">
        <ele>442.2</ele>
        <time>2021-09-30T11:56:03Z</time>
      </trkpt>
      <trkpt lat="47.20699" lon="6.036">
        <ele>442</ele>
        <time>2021-09-30T11:56:04Z</time>
      </trkpt>
      <trkpt lat="47.20697" lon="6.03597">
        <ele>442</ele>
        <time>2021-09-30T11:56:05Z</time>
      </trkpt>
      <trkpt lat="47.20694" lon="6.03593">
        <ele>442</ele>
        <time>2021-09-30T11:56:06Z</time>
      </trkpt>
      <trkpt lat="47.20692" lon="6.0359">
        <ele>442</ele>
        <time>2021-09-30T11:56:07Z</time>
      </trkpt>
      <trkpt lat="47.2069" lon="6.03587">
        <ele>442</ele>
        <time>2021-09-30T11:56:08Z</time>
      </trkpt>
      <trkpt lat="47.20689" lon="6.03584">
        <ele>442</ele>
        <time>2021-09-30T11:56:09Z</time>
      </trkpt>
      <trkpt lat="47.20683" lon="6.03574">
        <ele>442</ele>
        <time>2021-09-30T11:56:12Z</time>
      </trkpt>
      <trkpt lat="47.20681" lon="6.03572">
        <ele>442</ele>
        <time>2021-09-30T11:56:13Z</time>
      </trkpt>
      <trkpt lat="47.20679" lon="6.0357">
        <ele>442</ele>
        <time>2021-09-30T11:56:14Z</time>
      </trkpt>
      <trkpt lat="47.20677" lon="6.03567">
        <ele>442.2</ele>
        <time>2021-09-30T11:56:15Z</time>
      </trkpt>
      <trkpt lat="47.20675" lon="6.03564">
        <ele>442.2</ele>
        <time>2021-09-30T11:56:16Z</time>
      </trkpt>
      <trkpt lat="47.20673" lon="6.03562">
        <ele>442.2</ele>
        <time>2021-09-30T11:56:17Z</time>
      </trkpt>
      <trkpt lat="47.20671" lon="6.03559">
        <ele>442.2</ele>
        <time>2021-09-30T11:56:18Z</time>
      </trkpt>
      <trkpt lat="47.20661" lon="6.03544">
        <ele>442.2</ele>
        <time>2021-09-30T11:56:23Z</time>
      </trkpt>
      <trkpt lat="47.20647" lon="6.03524">
        <ele>442</ele>
        <time>2021-09-30T11:56:28Z</time>
      </trkpt>
      <trkpt lat="47.20637" lon="6.0351">
        <ele>442</ele>
        <time>2021-09-30T11:56:31Z</time>
      </trkpt>
      <trkpt lat="47.20634" lon="6.03506">
        <ele>442</ele>
        <time>2021-09-30T11:56:32Z</time>
      </trkpt>
      <trkpt lat="47.20631" lon="6.03503">
        <ele>442</ele>
        <time>2021-09-30T11:56:33Z</time>
      </trkpt>
      <trkpt lat="47.20622" lon="6.03489">
        <ele>441.8</ele>
        <time>2021-09-30T11:56:36Z</time>
      </trkpt>
      <trkpt lat="47.20612" lon="6.03471">
        <ele>441.8</ele>
        <time>2021-09-30T11:56:40Z</time>
      </trkpt>
      <trkpt lat="47.20606" lon="6.0346">
        <ele>441.8</ele>
        <time>2021-09-30T11:56:42Z</time>
      </trkpt>
      <trkpt lat="47.20596" lon="6.03433">
        <ele>441.8</ele>
        <time>2021-09-30T11:56:47Z</time>
      </trkpt>
      <trkpt lat="47.20594" lon="6.03421">
        <ele>441.6</ele>
        <time>2021-09-30T11:56:49Z</time>
      </trkpt>
      <trkpt lat="47.20593" lon="6.03397">
        <ele>441.8</ele>
        <time>2021-09-30T11:56:53Z</time>
      </trkpt>
      <trkpt lat="47.20593" lon="6.0339">
        <ele>441.8</ele>
        <time>2021-09-30T11:56:54Z</time>
      </trkpt>
      <trkpt lat="47.20593" lon="6.03384">
        <ele>441.8</ele>
        <time>2021-09-30T11:56:55Z</time>
      </trkpt>
      <trkpt lat="47.20593" lon="6.03378">
        <ele>441.8</ele>
        <time>2021-09-30T11:56:56Z</time>
      </trkpt>
      <trkpt lat="47.20592" lon="6.03372">
        <ele>441.8</ele>
        <time>2021-09-30T11:56:57Z</time>
      </trkpt>
      <trkpt lat="47.20592" lon="6.03366">
        <ele>441.8</ele>
        <time>2021-09-30T11:56:58Z</time>
      </trkpt>
      <trkpt lat="47.20592" lon="6.03342">
        <ele>441.8</ele>
        <time>2021-09-30T11:57:02Z</time>
      </trkpt>
      <trkpt lat="47.20591" lon="6.03306">
        <ele>441.8</ele>
        <time>2021-09-30T11:57:08Z</time>
      </trkpt>
      <trkpt lat="47.20592" lon="6.03299">
        <ele>441.8</ele>
        <time>2021-09-30T11:57:09Z</time>
      </trkpt>
      <trkpt lat="47.20594" lon="6.03268">
        <ele>441.8</ele>
        <time>2021-09-30T11:57:13Z</time>
      </trkpt>
      <trkpt lat="47.20597" lon="6.03252">
        <ele>441.8</ele>
        <time>2021-09-30T11:57:15Z</time>
      </trkpt>
      <trkpt lat="47.20613" lon="6.03201">
        <ele>441.2</ele>
        <time>2021-09-30T11:57:22Z</time>
      </trkpt>
      <trkpt lat="47.20621" lon="6.03178">
        <ele>441.2</ele>
        <time>2021-09-30T11:57:25Z</time>
      </trkpt>
      <trkpt lat="47.20626" lon="6.03156">
        <ele>441</ele>
        <time>2021-09-30T11:57:28Z</time>
      </trkpt>
      <trkpt lat="47.20647" lon="6.03096">
        <ele>441</ele>
        <time>2021-09-30T11:57:36Z</time>
      </trkpt>
      <trkpt lat="47.2065" lon="6.03089">
        <ele>441</ele>
        <time>2021-09-30T11:57:37Z</time>
      </trkpt>
      <trkpt lat="47.20665" lon="6.03064">
        <ele>440.8</ele>
        <time>2021-09-30T11:57:41Z</time>
      </trkpt>
      <trkpt lat="47.20674" lon="6.03055">
        <ele>440.8</ele>
        <time>2021-09-30T11:57:43Z</time>
      </trkpt>
      <trkpt lat="47.20682" lon="6.03048">
        <ele>440.6</ele>
        <time>2021-09-30T11:57:45Z</time>
      </trkpt>
      <trkpt lat="47.20686" lon="6.03044">
        <ele>440.6</ele>
        <time>2021-09-30T11:57:46Z</time>
      </trkpt>
      <trkpt lat="47.2069" lon="6.03041">
        <ele>440.8</ele>
        <time>2021-09-30T11:57:47Z</time>
      </trkpt>
      <trkpt lat="47.20694" lon="6.03037">
        <ele>440.6</ele>
        <time>2021-09-30T11:57:48Z</time>
      </trkpt>
      <trkpt lat="47.20698" lon="6.03034">
        <ele>440.8</ele>
        <time>2021-09-30T11:57:49Z</time>
      </trkpt>
      <trkpt lat="47.20701" lon="6.0303">
        <ele>440.8</ele>
        <time>2021-09-30T11:57:50Z</time>
      </trkpt>
      <trkpt lat="47.20704" lon="6.03026">
        <ele>440.8</ele>
        <time>2021-09-30T11:57:51Z</time>
      </trkpt>
      <trkpt lat="47.20707" lon="6.03022">
        <ele>440.8</ele>
        <time>2021-09-30T11:57:52Z</time>
      </trkpt>
      <trkpt lat="47.2071" lon="6.03017">
        <ele>441</ele>
        <time>2021-09-30T11:57:53Z</time>
      </trkpt>
      <trkpt lat="47.20712" lon="6.03012">
        <ele>441</ele>
        <time>2021-09-30T11:57:54Z</time>
      </trkpt>
      <trkpt lat="47.20714" lon="6.03007">
        <ele>441</ele>
        <time>2021-09-30T11:57:55Z</time>
      </trkpt>
      <trkpt lat="47.20716" lon="6.03001">
        <ele>441</ele>
        <time>2021-09-30T11:57:56Z</time>
      </trkpt>
      <trkpt lat="47.20723" lon="6.02977">
        <ele>441</ele>
        <time>2021-09-30T11:58:00Z</time>
      </trkpt>
      <trkpt lat="47.20734" lon="6.02913">
        <ele>441.2</ele>
        <time>2021-09-30T11:58:09Z</time>
      </trkpt>
      <trkpt lat="47.20739" lon="6.02886">
        <ele>441.2</ele>
        <time>2021-09-30T11:58:13Z</time>
      </trkpt>
      <trkpt lat="47.20744" lon="6.02849">
        <ele>441.2</ele>
        <time>2021-09-30T11:58:18Z</time>
      </trkpt>
      <trkpt lat="47.20743" lon="6.02827">
        <ele>441.4</ele>
        <time>2021-09-30T11:58:21Z</time>
      </trkpt>
      <trkpt lat="47.2074" lon="6.02798">
        <ele>441.6</ele>
        <time>2021-09-30T11:58:25Z</time>
      </trkpt>
      <trkpt lat="47.20732" lon="6.02762">
        <ele>442.6</ele>
        <time>2021-09-30T11:58:30Z</time>
      </trkpt>
      <trkpt lat="47.20726" lon="6.0275">
        <ele>442.8</ele>
        <time>2021-09-30T11:58:32Z</time>
      </trkpt>
      <trkpt lat="47.20705" lon="6.02704">
        <ele>443.2</ele>
        <time>2021-09-30T11:58:39Z</time>
      </trkpt>
      <trkpt lat="47.20694" lon="6.02678">
        <ele>443.4</ele>
        <time>2021-09-30T11:58:43Z</time>
      </trkpt>
      <trkpt lat="47.20664" lon="6.02617">
        <ele>443.6</ele>
        <time>2021-09-30T11:58:52Z</time>
      </trkpt>
      <trkpt lat="47.20635" lon="6.02558">
        <ele>442.8</ele>
        <time>2021-09-30T11:59:00Z</time>
      </trkpt>
      <trkpt lat="47.20613" lon="6.02519">
        <ele>441.4</ele>
        <time>2021-09-30T11:59:05Z</time>
      </trkpt>
      <trkpt lat="47.20601" lon="6.02495">
        <ele>440.8</ele>
        <time>2021-09-30T11:59:08Z</time>
      </trkpt>
      <trkpt lat="47.20592" lon="6.02479">
        <ele>440.4</ele>
        <time>2021-09-30T11:59:10Z</time>
      </trkpt>
      <trkpt lat="47.20583" lon="6.02463">
        <ele>439.6</ele>
        <time>2021-09-30T11:59:12Z</time>
      </trkpt>
      <trkpt lat="47.20575" lon="6.02446">
        <ele>439.2</ele>
        <time>2021-09-30T11:59:14Z</time>
      </trkpt>
      <trkpt lat="47.20566" lon="6.02429">
        <ele>438.6</ele>
        <time>2021-09-30T11:59:16Z</time>
      </trkpt>
      <trkpt lat="47.20558" lon="6.02411">
        <ele>438</ele>
        <time>2021-09-30T11:59:18Z</time>
      </trkpt>
      <trkpt lat="47.20539" lon="6.02376">
        <ele>436.8</ele>
        <time>2021-09-30T11:59:22Z</time>
      </trkpt>
      <trkpt lat="47.20534" lon="6.02368">
        <ele>436.6</ele>
        <time>2021-09-30T11:59:23Z</time>
      </trkpt>
      <trkpt lat="47.20512" lon="6.02338">
        <ele>435.8</ele>
        <time>2021-09-30T11:59:27Z</time>
      </trkpt>
      <trkpt lat="47.20505" lon="6.0233">
        <ele>435.6</ele>
        <time>2021-09-30T11:59:28Z</time>
      </trkpt>
      <trkpt lat="47.2049" lon="6.02312">
        <ele>434.8</ele>
        <time>2021-09-30T11:59:31Z</time>
      </trkpt>
      <trkpt lat="47.20484" lon="6.02305">
        <ele>434.6</ele>
        <time>2021-09-30T11:59:32Z</time>
      </trkpt>
      <trkpt lat="47.20478" lon="6.02299">
        <ele>434.6</ele>
        <time>2021-09-30T11:59:33Z</time>
      </trkpt>
      <trkpt lat="47.20474" lon="6.02294">
        <ele>434.4</ele>
        <time>2021-09-30T11:59:34Z</time>
      </trkpt>
      <trkpt lat="47.20469" lon="6.02288">
        <ele>434.4</ele>
        <time>2021-09-30T11:59:35Z</time>
      </trkpt>
      <trkpt lat="47.20464" lon="6.02282">
        <ele>434.2</ele>
        <time>2021-09-30T11:59:36Z</time>
      </trkpt>
      <trkpt lat="47.20459" lon="6.02277">
        <ele>434</ele>
        <time>2021-09-30T11:59:37Z</time>
      </trkpt>
      <trkpt lat="47.20455" lon="6.02271">
        <ele>433.8</ele>
        <time>2021-09-30T11:59:38Z</time>
      </trkpt>
      <trkpt lat="47.2045" lon="6.02265">
        <ele>433.8</ele>
        <time>2021-09-30T11:59:39Z</time>
      </trkpt>
      <trkpt lat="47.20445" lon="6.0226">
        <ele>433.8</ele>
        <time>2021-09-30T11:59:40Z</time>
      </trkpt>
      <trkpt lat="47.2044" lon="6.02254">
        <ele>433.6</ele>
        <time>2021-09-30T11:59:41Z</time>
      </trkpt>
      <trkpt lat="47.20435" lon="6.02249">
        <ele>433.6</ele>
        <time>2021-09-30T11:59:42Z</time>
      </trkpt>
      <trkpt lat="47.20431" lon="6.02244">
        <ele>433.4</ele>
        <time>2021-09-30T11:59:43Z</time>
      </trkpt>
      <trkpt lat="47.20426" lon="6.02239">
        <ele>433.4</ele>
        <time>2021-09-30T11:59:44Z</time>
      </trkpt>
      <trkpt lat="47.20421" lon="6.02234">
        <ele>433.2</ele>
        <time>2021-09-30T11:59:45Z</time>
      </trkpt>
      <trkpt lat="47.20417" lon="6.02229">
        <ele>433</ele>
        <time>2021-09-30T11:59:46Z</time>
      </trkpt>
      <trkpt lat="47.20413" lon="6.02225">
        <ele>432.8</ele>
        <time>2021-09-30T11:59:47Z</time>
      </trkpt>
      <trkpt lat="47.2041" lon="6.02222">
        <ele>432.8</ele>
        <time>2021-09-30T11:59:48Z</time>
      </trkpt>
      <trkpt lat="47.20408" lon="6.02219">
        <ele>432.6</ele>
        <time>2021-09-30T11:59:49Z</time>
      </trkpt>
      <trkpt lat="47.20407" lon="6.02216">
        <ele>432.6</ele>
        <time>2021-09-30T11:59:50Z</time>
      </trkpt>
      <trkpt lat="47.20406" lon="6.02214">
        <ele>432.4</ele>
        <time>2021-09-30T11:59:51Z</time>
      </trkpt>
      <trkpt lat="47.20407" lon="6.02212">
        <ele>432.2</ele>
        <time>2021-09-30T11:59:52Z</time>
      </trkpt>
      <trkpt lat="47.20409" lon="6.02212">
        <ele>432.2</ele>
        <time>2021-09-30T11:59:53Z</time>
      </trkpt>
      <trkpt lat="47.20417" lon="6.02215">
        <ele>431.8</ele>
        <time>2021-09-30T11:59:56Z</time>
      </trkpt>
      <trkpt lat="47.20421" lon="6.02217">
        <ele>431.8</ele>
        <time>2021-09-30T11:59:57Z</time>
      </trkpt>
      <trkpt lat="47.20424" lon="6.02218">
        <ele>431.6</ele>
        <time>2021-09-30T11:59:58Z</time>
      </trkpt>
      <trkpt lat="47.20439" lon="6.02225">
        <ele>430.8</ele>
        <time>2021-09-30T12:00:01Z</time>
      </trkpt>
      <trkpt lat="47.20443" lon="6.02227">
        <ele>430.4</ele>
        <time>2021-09-30T12:00:02Z</time>
      </trkpt>
      <trkpt lat="47.20465" lon="6.02241">
        <ele>429.2</ele>
        <time>2021-09-30T12:00:06Z</time>
      </trkpt>
      <trkpt lat="47.2047" lon="6.02245">
        <ele>428.8</ele>
        <time>2021-09-30T12:00:07Z</time>
      </trkpt>
      <trkpt lat="47.20474" lon="6.02247">
        <ele>428.6</ele>
        <time>2021-09-30T12:00:08Z</time>
      </trkpt>
      <trkpt lat="47.20478" lon="6.02249">
        <ele>428</ele>
        <time>2021-09-30T12:00:09Z</time>
      </trkpt>
      <trkpt lat="47.20483" lon="6.02249">
        <ele>427.6</ele>
        <time>2021-09-30T12:00:10Z</time>
      </trkpt>
      <trkpt lat="47.20486" lon="6.02247">
        <ele>427</ele>
        <time>2021-09-30T12:00:11Z</time>
      </trkpt>
      <trkpt lat="47.20488" lon="6.02242">
        <ele>426.8</ele>
        <time>2021-09-30T12:00:12Z</time>
      </trkpt>
      <trkpt lat="47.20486" lon="6.02232">
        <ele>426</ele>
        <time>2021-09-30T12:00:14Z</time>
      </trkpt>
      <trkpt lat="47.2048" lon="6.0222">
        <ele>425.6</ele>
        <time>2021-09-30T12:00:16Z</time>
      </trkpt>
      <trkpt lat="47.20476" lon="6.02214">
        <ele>425.4</ele>
        <time>2021-09-30T12:00:17Z</time>
      </trkpt>
      <trkpt lat="47.20472" lon="6.02208">
        <ele>424.8</ele>
        <time>2021-09-30T12:00:18Z</time>
      </trkpt>
      <trkpt lat="47.20468" lon="6.02202">
        <ele>424.6</ele>
        <time>2021-09-30T12:00:19Z</time>
      </trkpt>
      <trkpt lat="47.20464" lon="6.02196">
        <ele>424</ele>
        <time>2021-09-30T12:00:20Z</time>
      </trkpt>
      <trkpt lat="47.20451" lon="6.02174">
        <ele>422.8</ele>
        <time>2021-09-30T12:00:23Z</time>
      </trkpt>
      <trkpt lat="47.20444" lon="6.0216">
        <ele>422.4</ele>
        <time>2021-09-30T12:00:25Z</time>
      </trkpt>
      <trkpt lat="47.2043" lon="6.02135">
        <ele>421.6</ele>
        <time>2021-09-30T12:00:28Z</time>
      </trkpt>
      <trkpt lat="47.20415" lon="6.02112">
        <ele>420.6</ele>
        <time>2021-09-30T12:00:31Z</time>
      </trkpt>
      <trkpt lat="47.20409" lon="6.02102">
        <ele>419.6</ele>
        <time>2021-09-30T12:00:32Z</time>
      </trkpt>
      <trkpt lat="47.20404" lon="6.02093">
        <ele>419.2</ele>
        <time>2021-09-30T12:00:33Z</time>
      </trkpt>
      <trkpt lat="47.20395" lon="6.02077">
        <ele>418.6</ele>
        <time>2021-09-30T12:00:35Z</time>
      </trkpt>
      <trkpt lat="47.20389" lon="6.02068">
        <ele>417.8</ele>
        <time>2021-09-30T12:00:36Z</time>
      </trkpt>
      <trkpt lat="47.20373" lon="6.02041">
        <ele>416.6</ele>
        <time>2021-09-30T12:00:39Z</time>
      </trkpt>
      <trkpt lat="47.20361" lon="6.02023">
        <ele>415</ele>
        <time>2021-09-30T12:00:41Z</time>
      </trkpt>
      <trkpt lat="47.20335" lon="6.0199">
        <ele>413.4</ele>
        <time>2021-09-30T12:00:45Z</time>
      </trkpt>
      <trkpt lat="47.20328" lon="6.01981">
        <ele>413</ele>
        <time>2021-09-30T12:00:46Z</time>
      </trkpt>
      <trkpt lat="47.20313" lon="6.01962">
        <ele>411.8</ele>
        <time>2021-09-30T12:00:48Z</time>
      </trkpt>
      <trkpt lat="47.20295" lon="6.01939">
        <ele>410.4</ele>
        <time>2021-09-30T12:00:51Z</time>
      </trkpt>
      <trkpt lat="47.20285" lon="6.01923">
        <ele>409.6</ele>
        <time>2021-09-30T12:00:53Z</time>
      </trkpt>
      <trkpt lat="47.20279" lon="6.01914">
        <ele>408.6</ele>
        <time>2021-09-30T12:00:54Z</time>
      </trkpt>
      <trkpt lat="47.20274" lon="6.01905">
        <ele>407.6</ele>
        <time>2021-09-30T12:00:55Z</time>
      </trkpt>
      <trkpt lat="47.20269" lon="6.01897">
        <ele>406.6</ele>
        <time>2021-09-30T12:00:56Z</time>
      </trkpt>
      <trkpt lat="47.20258" lon="6.0188">
        <ele>405.8</ele>
        <time>2021-09-30T12:00:58Z</time>
      </trkpt>
      <trkpt lat="47.20253" lon="6.01873">
        <ele>405.4</ele>
        <time>2021-09-30T12:00:59Z</time>
      </trkpt>
      <trkpt lat="47.2025" lon="6.01868">
        <ele>404.8</ele>
        <time>2021-09-30T12:01:00Z</time>
      </trkpt>
      <trkpt lat="47.20247" lon="6.01863">
        <ele>404.2</ele>
        <time>2021-09-30T12:01:01Z</time>
      </trkpt>
      <trkpt lat="47.20243" lon="6.01857">
        <ele>404</ele>
        <time>2021-09-30T12:01:02Z</time>
      </trkpt>
      <trkpt lat="47.2024" lon="6.01852">
        <ele>403.4</ele>
        <time>2021-09-30T12:01:03Z</time>
      </trkpt>
      <trkpt lat="47.20238" lon="6.01848">
        <ele>403.2</ele>
        <time>2021-09-30T12:01:04Z</time>
      </trkpt>
      <trkpt lat="47.20237" lon="6.01845">
        <ele>402.6</ele>
        <time>2021-09-30T12:01:05Z</time>
      </trkpt>
      <trkpt lat="47.20236" lon="6.0184">
        <ele>402.2</ele>
        <time>2021-09-30T12:01:06Z</time>
      </trkpt>
      <trkpt lat="47.20237" lon="6.01835">
        <ele>402</ele>
        <time>2021-09-30T12:01:07Z</time>
      </trkpt>
      <trkpt lat="47.20238" lon="6.01832">
        <ele>401.6</ele>
        <time>2021-09-30T12:01:08Z</time>
      </trkpt>
      <trkpt lat="47.2024" lon="6.01831">
        <ele>400.8</ele>
        <time>2021-09-30T12:01:09Z</time>
      </trkpt>
      <trkpt lat="47.20242" lon="6.01829">
        <ele>400.6</ele>
        <time>2021-09-30T12:01:10Z</time>
      </trkpt>
      <trkpt lat="47.20244" lon="6.0183">
        <ele>400.4</ele>
        <time>2021-09-30T12:01:11Z</time>
      </trkpt>
      <trkpt lat="47.20246" lon="6.01831">
        <ele>400.2</ele>
        <time>2021-09-30T12:01:12Z</time>
      </trkpt>
      <trkpt lat="47.20247" lon="6.01833">
        <ele>400.2</ele>
        <time>2021-09-30T12:01:13Z</time>
      </trkpt>
      <trkpt lat="47.20248" lon="6.01835">
        <ele>399.6</ele>
        <time>2021-09-30T12:01:14Z</time>
      </trkpt>
      <trkpt lat="47.2025" lon="6.01836">
        <ele>399.6</ele>
        <time>2021-09-30T12:01:15Z</time>
      </trkpt>
      <trkpt lat="47.20251" lon="6.01838">
        <ele>399.2</ele>
        <time>2021-09-30T12:01:16Z</time>
      </trkpt>
      <trkpt lat="47.2026" lon="6.01842">
        <ele>398.6</ele>
        <time>2021-09-30T12:01:20Z</time>
      </trkpt>
      <trkpt lat="47.20267" lon="6.01846">
        <ele>398.4</ele>
        <time>2021-09-30T12:01:22Z</time>
      </trkpt>
      <trkpt lat="47.20288" lon="6.01852">
        <ele>398</ele>
        <time>2021-09-30T12:01:26Z</time>
      </trkpt>
      <trkpt lat="47.20299" lon="6.01854">
        <ele>397.4</ele>
        <time>2021-09-30T12:01:28Z</time>
      </trkpt>
      <trkpt lat="47.20312" lon="6.01856">
        <ele>396.6</ele>
        <time>2021-09-30T12:01:30Z</time>
      </trkpt>
      <trkpt lat="47.2033" lon="6.01861">
        <ele>396</ele>
        <time>2021-09-30T12:01:32Z</time>
      </trkpt>
      <trkpt lat="47.20335" lon="6.01862">
        <ele>395.6</ele>
        <time>2021-09-30T12:01:33Z</time>
      </trkpt>
      <trkpt lat="47.20337" lon="6.01863">
        <ele>395.2</ele>
        <time>2021-09-30T12:01:34Z</time>
      </trkpt>
      <trkpt lat="47.20339" lon="6.01863">
        <ele>394.6</ele>
        <time>2021-09-30T12:01:35Z</time>
      </trkpt>
      <trkpt lat="47.20348" lon="6.01866">
        <ele>394</ele>
        <time>2021-09-30T12:01:36Z</time>
      </trkpt>
      <trkpt lat="47.20352" lon="6.01867">
        <ele>393.8</ele>
        <time>2021-09-30T12:01:37Z</time>
      </trkpt>
      <trkpt lat="47.20357" lon="6.01869">
        <ele>393.6</ele>
        <time>2021-09-30T12:01:38Z</time>
      </trkpt>
      <trkpt lat="47.20361" lon="6.0187">
        <ele>393.4</ele>
        <time>2021-09-30T12:01:39Z</time>
      </trkpt>
      <trkpt lat="47.20364" lon="6.01872">
        <ele>393</ele>
        <time>2021-09-30T12:01:41Z</time>
      </trkpt>
      <trkpt lat="47.20372" lon="6.01874">
        <ele>392.6</ele>
        <time>2021-09-30T12:01:42Z</time>
      </trkpt>
      <trkpt lat="47.20372" lon="6.01874">
        <ele>392.4</ele>
        <time>2021-09-30T12:01:43Z</time>
      </trkpt>
      <trkpt lat="47.20386" lon="6.01877">
        <ele>391.8</ele>
        <time>2021-09-30T12:01:45Z</time>
      </trkpt>
      <trkpt lat="47.20403" lon="6.01882">
        <ele>391.4</ele>
        <time>2021-09-30T12:01:48Z</time>
      </trkpt>
      <trkpt lat="47.20415" lon="6.01887">
        <ele>390.2</ele>
        <time>2021-09-30T12:01:50Z</time>
      </trkpt>
      <trkpt lat="47.20428" lon="6.01893">
        <ele>389.6</ele>
        <time>2021-09-30T12:01:52Z</time>
      </trkpt>
      <trkpt lat="47.2044" lon="6.01901">
        <ele>389</ele>
        <time>2021-09-30T12:01:54Z</time>
      </trkpt>
      <trkpt lat="47.20446" lon="6.01903">
        <ele>388.8</ele>
        <time>2021-09-30T12:01:55Z</time>
      </trkpt>
      <trkpt lat="47.2045" lon="6.01902">
        <ele>388.2</ele>
        <time>2021-09-30T12:01:56Z</time>
      </trkpt>
      <trkpt lat="47.20455" lon="6.01901">
        <ele>388</ele>
        <time>2021-09-30T12:01:57Z</time>
      </trkpt>
      <trkpt lat="47.20463" lon="6.01898">
        <ele>387.2</ele>
        <time>2021-09-30T12:01:58Z</time>
      </trkpt>
      <trkpt lat="47.20468" lon="6.01893">
        <ele>386.2</ele>
        <time>2021-09-30T12:01:59Z</time>
      </trkpt>
      <trkpt lat="47.20472" lon="6.0189">
        <ele>386</ele>
        <time>2021-09-30T12:02:00Z</time>
      </trkpt>
      <trkpt lat="47.20476" lon="6.01888">
        <ele>385.6</ele>
        <time>2021-09-30T12:02:01Z</time>
      </trkpt>
      <trkpt lat="47.20493" lon="6.01877">
        <ele>384.8</ele>
        <time>2021-09-30T12:02:03Z</time>
      </trkpt>
      <trkpt lat="47.20497" lon="6.01875">
        <ele>384.8</ele>
        <time>2021-09-30T12:02:04Z</time>
      </trkpt>
      <trkpt lat="47.20501" lon="6.01874">
        <ele>384.4</ele>
        <time>2021-09-30T12:02:05Z</time>
      </trkpt>
      <trkpt lat="47.20509" lon="6.01871">
        <ele>384</ele>
        <time>2021-09-30T12:02:06Z</time>
      </trkpt>
      <trkpt lat="47.20515" lon="6.01871">
        <ele>383.6</ele>
        <time>2021-09-30T12:02:07Z</time>
      </trkpt>
      <trkpt lat="47.20519" lon="6.01872">
        <ele>383</ele>
        <time>2021-09-30T12:02:08Z</time>
      </trkpt>
      <trkpt lat="47.20522" lon="6.01873">
        <ele>381.4</ele>
        <time>2021-09-30T12:02:09Z</time>
      </trkpt>
      <trkpt lat="47.20524" lon="6.01875">
        <ele>380.8</ele>
        <time>2021-09-30T12:02:10Z</time>
      </trkpt>
      <trkpt lat="47.20527" lon="6.01877">
        <ele>380.4</ele>
        <time>2021-09-30T12:02:11Z</time>
      </trkpt>
      <trkpt lat="47.2053" lon="6.01879">
        <ele>380</ele>
        <time>2021-09-30T12:02:12Z</time>
      </trkpt>
      <trkpt lat="47.20536" lon="6.01885">
        <ele>379.2</ele>
        <time>2021-09-30T12:02:14Z</time>
      </trkpt>
      <trkpt lat="47.20539" lon="6.01889">
        <ele>379</ele>
        <time>2021-09-30T12:02:15Z</time>
      </trkpt>
      <trkpt lat="47.20543" lon="6.01895">
        <ele>378.6</ele>
        <time>2021-09-30T12:02:17Z</time>
      </trkpt>
      <trkpt lat="47.20545" lon="6.01898">
        <ele>378.6</ele>
        <time>2021-09-30T12:02:18Z</time>
      </trkpt>
      <trkpt lat="47.20546" lon="6.01902">
        <ele>378.4</ele>
        <time>2021-09-30T12:02:19Z</time>
      </trkpt>
      <trkpt lat="47.20546" lon="6.01906">
        <ele>378.2</ele>
        <time>2021-09-30T12:02:20Z</time>
      </trkpt>
      <trkpt lat="47.20547" lon="6.01911">
        <ele>377.8</ele>
        <time>2021-09-30T12:02:21Z</time>
      </trkpt>
      <trkpt lat="47.20547" lon="6.01911">
        <ele>377.8</ele>
        <time>2021-09-30T12:02:22Z</time>
      </trkpt>
      <trkpt lat="47.2055" lon="6.01916">
        <ele>377.6</ele>
        <time>2021-09-30T12:02:23Z</time>
      </trkpt>
      <trkpt lat="47.2055" lon="6.01916">
        <ele>377.6</ele>
        <time>2021-09-30T12:02:24Z</time>
      </trkpt>
      <trkpt lat="47.20551" lon="6.01916">
        <ele>377.4</ele>
        <time>2021-09-30T12:02:25Z</time>
      </trkpt>
      <trkpt lat="47.20555" lon="6.01912">
        <ele>377</ele>
        <time>2021-09-30T12:02:27Z</time>
      </trkpt>
      <trkpt lat="47.20557" lon="6.01904">
        <ele>376.8</ele>
        <time>2021-09-30T12:02:28Z</time>
      </trkpt>
      <trkpt lat="47.20556" lon="6.01895">
        <ele>376.4</ele>
        <time>2021-09-30T12:02:31Z</time>
      </trkpt>
      <trkpt lat="47.20556" lon="6.0189">
        <ele>376</ele>
        <time>2021-09-30T12:02:32Z</time>
      </trkpt>
      <trkpt lat="47.20556" lon="6.01886">
        <ele>375.8</ele>
        <time>2021-09-30T12:02:33Z</time>
      </trkpt>
      <trkpt lat="47.20557" lon="6.01881">
        <ele>375.2</ele>
        <time>2021-09-30T12:02:34Z</time>
      </trkpt>
      <trkpt lat="47.20558" lon="6.01876">
        <ele>375</ele>
        <time>2021-09-30T12:02:35Z</time>
      </trkpt>
      <trkpt lat="47.20558" lon="6.0187">
        <ele>374.2</ele>
        <time>2021-09-30T12:02:36Z</time>
      </trkpt>
      <trkpt lat="47.20557" lon="6.01856">
        <ele>373.6</ele>
        <time>2021-09-30T12:02:38Z</time>
      </trkpt>
      <trkpt lat="47.20556" lon="6.0185">
        <ele>373.2</ele>
        <time>2021-09-30T12:02:39Z</time>
      </trkpt>
      <trkpt lat="47.20555" lon="6.01842">
        <ele>372.8</ele>
        <time>2021-09-30T12:02:41Z</time>
      </trkpt>
      <trkpt lat="47.20555" lon="6.01837">
        <ele>372.4</ele>
        <time>2021-09-30T12:02:42Z</time>
      </trkpt>
      <trkpt lat="47.20556" lon="6.01833">
        <ele>372</ele>
        <time>2021-09-30T12:02:43Z</time>
      </trkpt>
      <trkpt lat="47.20556" lon="6.0183">
        <ele>371.8</ele>
        <time>2021-09-30T12:02:44Z</time>
      </trkpt>
      <trkpt lat="47.20556" lon="6.01827">
        <ele>371.4</ele>
        <time>2021-09-30T12:02:45Z</time>
      </trkpt>
      <trkpt lat="47.20556" lon="6.01825">
        <ele>371.4</ele>
        <time>2021-09-30T12:02:46Z</time>
      </trkpt>
      <trkpt lat="47.20556" lon="6.01823">
        <ele>371</ele>
        <time>2021-09-30T12:02:47Z</time>
      </trkpt>
      <trkpt lat="47.20556" lon="6.0182">
        <ele>370.6</ele>
        <time>2021-09-30T12:02:48Z</time>
      </trkpt>
      <trkpt lat="47.20556" lon="6.0182">
        <ele>370.6</ele>
        <time>2021-09-30T12:02:49Z</time>
      </trkpt>
      <trkpt lat="47.20556" lon="6.01801">
        <ele>369.8</ele>
        <time>2021-09-30T12:02:53Z</time>
      </trkpt>
      <trkpt lat="47.20555" lon="6.01781">
        <ele>369.6</ele>
        <time>2021-09-30T12:02:55Z</time>
      </trkpt>
      <trkpt lat="47.20553" lon="6.01773">
        <ele>369.2</ele>
        <time>2021-09-30T12:02:57Z</time>
      </trkpt>
      <trkpt lat="47.20549" lon="6.01755">
        <ele>368.6</ele>
        <time>2021-09-30T12:02:59Z</time>
      </trkpt>
      <trkpt lat="47.20545" lon="6.0173">
        <ele>367.8</ele>
        <time>2021-09-30T12:03:01Z</time>
      </trkpt>
      <trkpt lat="47.20543" lon="6.01724">
        <ele>367.4</ele>
        <time>2021-09-30T12:03:02Z</time>
      </trkpt>
      <trkpt lat="47.20541" lon="6.01718">
        <ele>366.8</ele>
        <time>2021-09-30T12:03:03Z</time>
      </trkpt>
      <trkpt lat="47.20538" lon="6.01713">
        <ele>366.6</ele>
        <time>2021-09-30T12:03:04Z</time>
      </trkpt>
      <trkpt lat="47.20536" lon="6.0171">
        <ele>366.4</ele>
        <time>2021-09-30T12:03:05Z</time>
      </trkpt>
      <trkpt lat="47.20534" lon="6.01707">
        <ele>366.2</ele>
        <time>2021-09-30T12:03:06Z</time>
      </trkpt>
      <trkpt lat="47.20534" lon="6.01707">
        <ele>365.4</ele>
        <time>2021-09-30T12:03:07Z</time>
      </trkpt>
      <trkpt lat="47.20532" lon="6.01705">
        <ele>364.8</ele>
        <time>2021-09-30T12:03:08Z</time>
      </trkpt>
      <trkpt lat="47.20531" lon="6.01703">
        <ele>364.4</ele>
        <time>2021-09-30T12:03:09Z</time>
      </trkpt>
      <trkpt lat="47.2053" lon="6.01702">
        <ele>363.8</ele>
        <time>2021-09-30T12:03:10Z</time>
      </trkpt>
      <trkpt lat="47.2053" lon="6.01702">
        <ele>363.6</ele>
        <time>2021-09-30T12:03:11Z</time>
      </trkpt>
      <trkpt lat="47.20529" lon="6.01701">
        <ele>363.4</ele>
        <time>2021-09-30T12:03:12Z</time>
      </trkpt>
      <trkpt lat="47.20528" lon="6.01699">
        <ele>363.2</ele>
        <time>2021-09-30T12:03:13Z</time>
      </trkpt>
      <trkpt lat="47.20528" lon="6.01696">
        <ele>363</ele>
        <time>2021-09-30T12:03:15Z</time>
      </trkpt>
      <trkpt lat="47.2053" lon="6.01695">
        <ele>363</ele>
        <time>2021-09-30T12:03:16Z</time>
      </trkpt>
      <trkpt lat="47.20533" lon="6.01693">
        <ele>362.4</ele>
        <time>2021-09-30T12:03:18Z</time>
      </trkpt>
      <trkpt lat="47.20534" lon="6.01692">
        <ele>362</ele>
        <time>2021-09-30T12:03:19Z</time>
      </trkpt>
      <trkpt lat="47.20535" lon="6.01689">
        <ele>361.8</ele>
        <time>2021-09-30T12:03:20Z</time>
      </trkpt>
      <trkpt lat="47.20535" lon="6.01689">
        <ele>361.6</ele>
        <time>2021-09-30T12:03:21Z</time>
      </trkpt>
      <trkpt lat="47.20537" lon="6.01686">
        <ele>361.2</ele>
        <time>2021-09-30T12:03:22Z</time>
      </trkpt>
      <trkpt lat="47.20538" lon="6.01681">
        <ele>361</ele>
        <time>2021-09-30T12:03:23Z</time>
      </trkpt>
      <trkpt lat="47.20538" lon="6.01675">
        <ele>360.6</ele>
        <time>2021-09-30T12:03:24Z</time>
      </trkpt>
      <trkpt lat="47.20539" lon="6.01671">
        <ele>360.2</ele>
        <time>2021-09-30T12:03:25Z</time>
      </trkpt>
      <trkpt lat="47.2054" lon="6.01668">
        <ele>360</ele>
        <time>2021-09-30T12:03:26Z</time>
      </trkpt>
      <trkpt lat="47.2054" lon="6.01666">
        <ele>359.2</ele>
        <time>2021-09-30T12:03:28Z</time>
      </trkpt>
      <trkpt lat="47.2054" lon="6.01664">
        <ele>359</ele>
        <time>2021-09-30T12:03:29Z</time>
      </trkpt>
      <trkpt lat="47.2054" lon="6.01662">
        <ele>358.6</ele>
        <time>2021-09-30T12:03:30Z</time>
      </trkpt>
      <trkpt lat="47.2054" lon="6.01659">
        <ele>358.4</ele>
        <time>2021-09-30T12:03:31Z</time>
      </trkpt>
      <trkpt lat="47.20541" lon="6.01657">
        <ele>358.2</ele>
        <time>2021-09-30T12:03:32Z</time>
      </trkpt>
      <trkpt lat="47.20541" lon="6.01655">
        <ele>358</ele>
        <time>2021-09-30T12:03:33Z</time>
      </trkpt>
      <trkpt lat="47.20542" lon="6.01653">
        <ele>357.8</ele>
        <time>2021-09-30T12:03:34Z</time>
      </trkpt>
      <trkpt lat="47.20543" lon="6.01651">
        <ele>357.4</ele>
        <time>2021-09-30T12:03:35Z</time>
      </trkpt>
      <trkpt lat="47.20545" lon="6.01652">
        <ele>357.2</ele>
        <time>2021-09-30T12:03:36Z</time>
      </trkpt>
      <trkpt lat="47.20548" lon="6.01654">
        <ele>356.8</ele>
        <time>2021-09-30T12:03:37Z</time>
      </trkpt>
      <trkpt lat="47.20551" lon="6.01657">
        <ele>356.4</ele>
        <time>2021-09-30T12:03:38Z</time>
      </trkpt>
      <trkpt lat="47.20554" lon="6.01661">
        <ele>355.8</ele>
        <time>2021-09-30T12:03:39Z</time>
      </trkpt>
      <trkpt lat="47.20555" lon="6.01665">
        <ele>355.6</ele>
        <time>2021-09-30T12:03:40Z</time>
      </trkpt>
      <trkpt lat="47.20557" lon="6.01667">
        <ele>355.4</ele>
        <time>2021-09-30T12:03:41Z</time>
      </trkpt>
      <trkpt lat="47.20558" lon="6.0167">
        <ele>355</ele>
        <time>2021-09-30T12:03:42Z</time>
      </trkpt>
      <trkpt lat="47.2056" lon="6.01679">
        <ele>354.2</ele>
        <time>2021-09-30T12:03:43Z</time>
      </trkpt>
      <trkpt lat="47.20561" lon="6.01685">
        <ele>354</ele>
        <time>2021-09-30T12:03:44Z</time>
      </trkpt>
      <trkpt lat="47.20562" lon="6.0169">
        <ele>353.6</ele>
        <time>2021-09-30T12:03:45Z</time>
      </trkpt>
      <trkpt lat="47.20563" lon="6.01697">
        <ele>352.6</ele>
        <time>2021-09-30T12:03:47Z</time>
      </trkpt>
      <trkpt lat="47.20564" lon="6.0172">
        <ele>351.8</ele>
        <time>2021-09-30T12:03:49Z</time>
      </trkpt>
      <trkpt lat="47.20564" lon="6.01727">
        <ele>351.6</ele>
        <time>2021-09-30T12:03:50Z</time>
      </trkpt>
      <trkpt lat="47.20563" lon="6.0173">
        <ele>351.4</ele>
        <time>2021-09-30T12:03:51Z</time>
      </trkpt>
      <trkpt lat="47.20563" lon="6.01733">
        <ele>350.8</ele>
        <time>2021-09-30T12:03:52Z</time>
      </trkpt>
      <trkpt lat="47.20563" lon="6.01746">
        <ele>350.6</ele>
        <time>2021-09-30T12:03:53Z</time>
      </trkpt>
      <trkpt lat="47.20564" lon="6.01752">
        <ele>349.8</ele>
        <time>2021-09-30T12:03:54Z</time>
      </trkpt>
      <trkpt lat="47.20565" lon="6.01757">
        <ele>349.4</ele>
        <time>2021-09-30T12:03:55Z</time>
      </trkpt>
      <trkpt lat="47.20566" lon="6.01762">
        <ele>348.6</ele>
        <time>2021-09-30T12:03:56Z</time>
      </trkpt>
      <trkpt lat="47.20566" lon="6.01762">
        <ele>348</ele>
        <time>2021-09-30T12:03:57Z</time>
      </trkpt>
      <trkpt lat="47.2057" lon="6.01765">
        <ele>347.6</ele>
        <time>2021-09-30T12:03:58Z</time>
      </trkpt>
      <trkpt lat="47.20572" lon="6.01765">
        <ele>347.2</ele>
        <time>2021-09-30T12:03:59Z</time>
      </trkpt>
      <trkpt lat="47.20572" lon="6.01765">
        <ele>347</ele>
        <time>2021-09-30T12:04:00Z</time>
      </trkpt>
      <trkpt lat="47.20573" lon="6.01763">
        <ele>346.6</ele>
        <time>2021-09-30T12:04:01Z</time>
      </trkpt>
      <trkpt lat="47.20573" lon="6.01763">
        <ele>346.4</ele>
        <time>2021-09-30T12:04:02Z</time>
      </trkpt>
      <trkpt lat="47.20574" lon="6.01762">
        <ele>346</ele>
        <time>2021-09-30T12:04:03Z</time>
      </trkpt>
      <trkpt lat="47.20577" lon="6.01756">
        <ele>345.8</ele>
        <time>2021-09-30T12:04:04Z</time>
      </trkpt>
      <trkpt lat="47.20579" lon="6.01751">
        <ele>345.4</ele>
        <time>2021-09-30T12:04:05Z</time>
      </trkpt>
      <trkpt lat="47.20582" lon="6.01746">
        <ele>345</ele>
        <time>2021-09-30T12:04:06Z</time>
      </trkpt>
      <trkpt lat="47.20586" lon="6.0174">
        <ele>345</ele>
        <time>2021-09-30T12:04:07Z</time>
      </trkpt>
      <trkpt lat="47.20599" lon="6.01717">
        <ele>344</ele>
        <time>2021-09-30T12:04:10Z</time>
      </trkpt>
      <trkpt lat="47.20602" lon="6.01709">
        <ele>343.6</ele>
        <time>2021-09-30T12:04:11Z</time>
      </trkpt>
      <trkpt lat="47.20602" lon="6.017">
        <ele>342.6</ele>
        <time>2021-09-30T12:04:12Z</time>
      </trkpt>
      <trkpt lat="47.20601" lon="6.01691">
        <ele>342.2</ele>
        <time>2021-09-30T12:04:13Z</time>
      </trkpt>
      <trkpt lat="47.206" lon="6.01681">
        <ele>341.8</ele>
        <time>2021-09-30T12:04:14Z</time>
      </trkpt>
      <trkpt lat="47.20599" lon="6.01671">
        <ele>341.6</ele>
        <time>2021-09-30T12:04:15Z</time>
      </trkpt>
      <trkpt lat="47.20598" lon="6.0166">
        <ele>341</ele>
        <time>2021-09-30T12:04:16Z</time>
      </trkpt>
      <trkpt lat="47.20598" lon="6.01651">
        <ele>340.2</ele>
        <time>2021-09-30T12:04:17Z</time>
      </trkpt>
      <trkpt lat="47.20596" lon="6.01641">
        <ele>340</ele>
        <time>2021-09-30T12:04:18Z</time>
      </trkpt>
      <trkpt lat="47.20592" lon="6.0162">
        <ele>339.2</ele>
        <time>2021-09-30T12:04:20Z</time>
      </trkpt>
      <trkpt lat="47.20591" lon="6.0161">
        <ele>338.6</ele>
        <time>2021-09-30T12:04:21Z</time>
      </trkpt>
      <trkpt lat="47.20588" lon="6.01602">
        <ele>337.6</ele>
        <time>2021-09-30T12:04:23Z</time>
      </trkpt>
      <trkpt lat="47.20582" lon="6.01589">
        <ele>337.4</ele>
        <time>2021-09-30T12:04:24Z</time>
      </trkpt>
      <trkpt lat="47.20569" lon="6.01564">
        <ele>335.6</ele>
        <time>2021-09-30T12:04:26Z</time>
      </trkpt>
      <trkpt lat="47.20564" lon="6.01555">
        <ele>334.2</ele>
        <time>2021-09-30T12:04:28Z</time>
      </trkpt>
      <trkpt lat="47.20555" lon="6.0154">
        <ele>333.6</ele>
        <time>2021-09-30T12:04:29Z</time>
      </trkpt>
      <trkpt lat="47.20545" lon="6.01525">
        <ele>332.8</ele>
        <time>2021-09-30T12:04:30Z</time>
      </trkpt>
      <trkpt lat="47.20538" lon="6.01516">
        <ele>332.4</ele>
        <time>2021-09-30T12:04:31Z</time>
      </trkpt>
      <trkpt lat="47.2053" lon="6.01508">
        <ele>331.2</ele>
        <time>2021-09-30T12:04:32Z</time>
      </trkpt>
      <trkpt lat="47.20525" lon="6.01504">
        <ele>330.6</ele>
        <time>2021-09-30T12:04:33Z</time>
      </trkpt>
      <trkpt lat="47.2052" lon="6.01501">
        <ele>329.4</ele>
        <time>2021-09-30T12:04:34Z</time>
      </trkpt>
      <trkpt lat="47.20509" lon="6.01494">
        <ele>328.8</ele>
        <time>2021-09-30T12:04:35Z</time>
      </trkpt>
      <trkpt lat="47.20504" lon="6.01489">
        <ele>327.8</ele>
        <time>2021-09-30T12:04:36Z</time>
      </trkpt>
      <trkpt lat="47.20501" lon="6.01483">
        <ele>326.8</ele>
        <time>2021-09-30T12:04:37Z</time>
      </trkpt>
      <trkpt lat="47.205" lon="6.01476">
        <ele>326.6</ele>
        <time>2021-09-30T12:04:38Z</time>
      </trkpt>
      <trkpt lat="47.205" lon="6.01467">
        <ele>325.6</ele>
        <time>2021-09-30T12:04:39Z</time>
      </trkpt>
      <trkpt lat="47.20502" lon="6.01458">
        <ele>325.2</ele>
        <time>2021-09-30T12:04:40Z</time>
      </trkpt>
      <trkpt lat="47.20504" lon="6.01449">
        <ele>324.6</ele>
        <time>2021-09-30T12:04:41Z</time>
      </trkpt>
      <trkpt lat="47.20506" lon="6.01438">
        <ele>324.4</ele>
        <time>2021-09-30T12:04:42Z</time>
      </trkpt>
      <trkpt lat="47.20507" lon="6.01433">
        <ele>323.4</ele>
        <time>2021-09-30T12:04:43Z</time>
      </trkpt>
      <trkpt lat="47.20508" lon="6.01428">
        <ele>323</ele>
        <time>2021-09-30T12:04:44Z</time>
      </trkpt>
      <trkpt lat="47.20513" lon="6.01408">
        <ele>322.2</ele>
        <time>2021-09-30T12:04:45Z</time>
      </trkpt>
      <trkpt lat="47.20519" lon="6.01386">
        <ele>320.8</ele>
        <time>2021-09-30T12:04:47Z</time>
      </trkpt>
      <trkpt lat="47.20526" lon="6.01362">
        <ele>319.6</ele>
        <time>2021-09-30T12:04:49Z</time>
      </trkpt>
      <trkpt lat="47.20536" lon="6.0133">
        <ele>318</ele>
        <time>2021-09-30T12:04:52Z</time>
      </trkpt>
      <trkpt lat="47.20538" lon="6.01325">
        <ele>317.6</ele>
        <time>2021-09-30T12:04:53Z</time>
      </trkpt>
      <trkpt lat="47.2054" lon="6.0132">
        <ele>316.2</ele>
        <time>2021-09-30T12:04:54Z</time>
      </trkpt>
      <trkpt lat="47.20542" lon="6.01318">
        <ele>316</ele>
        <time>2021-09-30T12:04:55Z</time>
      </trkpt>
      <trkpt lat="47.20542" lon="6.01316">
        <ele>315.6</ele>
        <time>2021-09-30T12:04:56Z</time>
      </trkpt>
      <trkpt lat="47.20542" lon="6.01316">
        <ele>315.4</ele>
        <time>2021-09-30T12:04:57Z</time>
      </trkpt>
      <trkpt lat="47.20543" lon="6.01316">
        <ele>315.4</ele>
        <time>2021-09-30T12:04:58Z</time>
      </trkpt>
      <trkpt lat="47.20543" lon="6.01316">
        <ele>315.2</ele>
        <time>2021-09-30T12:04:59Z</time>
      </trkpt>
      <trkpt lat="47.20542" lon="6.01309">
        <ele>315</ele>
        <time>2021-09-30T12:05:36Z</time>
      </trkpt>
      <trkpt lat="47.20543" lon="6.01283">
        <ele>315</ele>
        <time>2021-09-30T12:05:43Z</time>
      </trkpt>
      <trkpt lat="47.20547" lon="6.0127">
        <ele>315</ele>
        <time>2021-09-30T12:05:46Z</time>
      </trkpt>
      <trkpt lat="47.2055" lon="6.01265">
        <ele>315</ele>
        <time>2021-09-30T12:05:47Z</time>
      </trkpt>
      <trkpt lat="47.20553" lon="6.01261">
        <ele>314.8</ele>
        <time>2021-09-30T12:05:48Z</time>
      </trkpt>
      <trkpt lat="47.20557" lon="6.01255">
        <ele>314.8</ele>
        <time>2021-09-30T12:05:49Z</time>
      </trkpt>
      <trkpt lat="47.2056" lon="6.0125">
        <ele>314.6</ele>
        <time>2021-09-30T12:05:50Z</time>
      </trkpt>
      <trkpt lat="47.20562" lon="6.01245">
        <ele>314.6</ele>
        <time>2021-09-30T12:05:51Z</time>
      </trkpt>
      <trkpt lat="47.20567" lon="6.01229">
        <ele>314.4</ele>
        <time>2021-09-30T12:05:53Z</time>
      </trkpt>
      <trkpt lat="47.20567" lon="6.01219">
        <ele>314</ele>
        <time>2021-09-30T12:05:54Z</time>
      </trkpt>
      <trkpt lat="47.20567" lon="6.01209">
        <ele>314</ele>
        <time>2021-09-30T12:05:55Z</time>
      </trkpt>
      <trkpt lat="47.20566" lon="6.01199">
        <ele>313.8</ele>
        <time>2021-09-30T12:05:56Z</time>
      </trkpt>
      <trkpt lat="47.20565" lon="6.01188">
        <ele>313.4</ele>
        <time>2021-09-30T12:05:57Z</time>
      </trkpt>
      <trkpt lat="47.20566" lon="6.01175">
        <ele>313</ele>
        <time>2021-09-30T12:05:58Z</time>
      </trkpt>
      <trkpt lat="47.20566" lon="6.01163">
        <ele>312.4</ele>
        <time>2021-09-30T12:05:59Z</time>
      </trkpt>
      <trkpt lat="47.20566" lon="6.01151">
        <ele>311.8</ele>
        <time>2021-09-30T12:06:00Z</time>
      </trkpt>
      <trkpt lat="47.20566" lon="6.01138">
        <ele>311</ele>
        <time>2021-09-30T12:06:01Z</time>
      </trkpt>
      <trkpt lat="47.20564" lon="6.01103">
        <ele>309.6</ele>
        <time>2021-09-30T12:06:04Z</time>
      </trkpt>
      <trkpt lat="47.20567" lon="6.01092">
        <ele>308.4</ele>
        <time>2021-09-30T12:06:05Z</time>
      </trkpt>
      <trkpt lat="47.2057" lon="6.01081">
        <ele>307</ele>
        <time>2021-09-30T12:06:06Z</time>
      </trkpt>
      <trkpt lat="47.20575" lon="6.01059">
        <ele>305.6</ele>
        <time>2021-09-30T12:06:08Z</time>
      </trkpt>
      <trkpt lat="47.2058" lon="6.0103">
        <ele>304</ele>
        <time>2021-09-30T12:06:10Z</time>
      </trkpt>
      <trkpt lat="47.20585" lon="6.01002">
        <ele>302.4</ele>
        <time>2021-09-30T12:06:12Z</time>
      </trkpt>
      <trkpt lat="47.20587" lon="6.00987">
        <ele>301.6</ele>
        <time>2021-09-30T12:06:13Z</time>
      </trkpt>
      <trkpt lat="47.20591" lon="6.00977">
        <ele>300.6</ele>
        <time>2021-09-30T12:06:14Z</time>
      </trkpt>
      <trkpt lat="47.20595" lon="6.00966">
        <ele>300.2</ele>
        <time>2021-09-30T12:06:15Z</time>
      </trkpt>
      <trkpt lat="47.20603" lon="6.00945">
        <ele>299</ele>
        <time>2021-09-30T12:06:16Z</time>
      </trkpt>
      <trkpt lat="47.20616" lon="6.00917">
        <ele>297.2</ele>
        <time>2021-09-30T12:06:18Z</time>
      </trkpt>
      <trkpt lat="47.20626" lon="6.00897">
        <ele>295.8</ele>
        <time>2021-09-30T12:06:19Z</time>
      </trkpt>
      <trkpt lat="47.20636" lon="6.00877">
        <ele>293.2</ele>
        <time>2021-09-30T12:06:21Z</time>
      </trkpt>
      <trkpt lat="47.20651" lon="6.00846">
        <ele>290.8</ele>
        <time>2021-09-30T12:06:23Z</time>
      </trkpt>
      <trkpt lat="47.20658" lon="6.0083">
        <ele>290.2</ele>
        <time>2021-09-30T12:06:24Z</time>
      </trkpt>
      <trkpt lat="47.20665" lon="6.00815">
        <ele>289</ele>
        <time>2021-09-30T12:06:25Z</time>
      </trkpt>
      <trkpt lat="47.20675" lon="6.00791">
        <ele>287.6</ele>
        <time>2021-09-30T12:06:26Z</time>
      </trkpt>
      <trkpt lat="47.20685" lon="6.00767">
        <ele>285.4</ele>
        <time>2021-09-30T12:06:28Z</time>
      </trkpt>
      <trkpt lat="47.20697" lon="6.00737">
        <ele>282.8</ele>
        <time>2021-09-30T12:06:30Z</time>
      </trkpt>
      <trkpt lat="47.20707" lon="6.00704">
        <ele>280.6</ele>
        <time>2021-09-30T12:06:32Z</time>
      </trkpt>
      <trkpt lat="47.20715" lon="6.00673">
        <ele>278</ele>
        <time>2021-09-30T12:06:34Z</time>
      </trkpt>
      <trkpt lat="47.20717" lon="6.00659">
        <ele>276.6</ele>
        <time>2021-09-30T12:06:35Z</time>
      </trkpt>
      <trkpt lat="47.20719" lon="6.00646">
        <ele>276</ele>
        <time>2021-09-30T12:06:36Z</time>
      </trkpt>
      <trkpt lat="47.2072" lon="6.00633">
        <ele>274.4</ele>
        <time>2021-09-30T12:06:37Z</time>
      </trkpt>
      <trkpt lat="47.20721" lon="6.0062">
        <ele>273.8</ele>
        <time>2021-09-30T12:06:38Z</time>
      </trkpt>
      <trkpt lat="47.2072" lon="6.00608">
        <ele>272.6</ele>
        <time>2021-09-30T12:06:39Z</time>
      </trkpt>
      <trkpt lat="47.20719" lon="6.00594">
        <ele>271.6</ele>
        <time>2021-09-30T12:06:40Z</time>
      </trkpt>
      <trkpt lat="47.20717" lon="6.00577">
        <ele>270.4</ele>
        <time>2021-09-30T12:06:41Z</time>
      </trkpt>
      <trkpt lat="47.20712" lon="6.00555">
        <ele>269.4</ele>
        <time>2021-09-30T12:06:43Z</time>
      </trkpt>
      <trkpt lat="47.20707" lon="6.00534">
        <ele>267.8</ele>
        <time>2021-09-30T12:06:45Z</time>
      </trkpt>
      <trkpt lat="47.20704" lon="6.00527">
        <ele>266.6</ele>
        <time>2021-09-30T12:06:46Z</time>
      </trkpt>
      <trkpt lat="47.20701" lon="6.00522">
        <ele>266.2</ele>
        <time>2021-09-30T12:06:47Z</time>
      </trkpt>
      <trkpt lat="47.20698" lon="6.00518">
        <ele>264.4</ele>
        <time>2021-09-30T12:06:48Z</time>
      </trkpt>
      <trkpt lat="47.20696" lon="6.00514">
        <ele>264</ele>
        <time>2021-09-30T12:06:49Z</time>
      </trkpt>
      <trkpt lat="47.20694" lon="6.00512">
        <ele>263</ele>
        <time>2021-09-30T12:06:50Z</time>
      </trkpt>
      <trkpt lat="47.20693" lon="6.0051">
        <ele>262.6</ele>
        <time>2021-09-30T12:06:51Z</time>
      </trkpt>
      <trkpt lat="47.20693" lon="6.0051">
        <ele>262</ele>
        <time>2021-09-30T12:06:52Z</time>
      </trkpt>
      <trkpt lat="47.20694" lon="6.00507">
        <ele>261.6</ele>
        <time>2021-09-30T12:06:53Z</time>
      </trkpt>
      <trkpt lat="47.20695" lon="6.00507">
        <ele>260.8</ele>
        <time>2021-09-30T12:06:54Z</time>
      </trkpt>
      <trkpt lat="47.20695" lon="6.00507">
        <ele>260.4</ele>
        <time>2021-09-30T12:06:55Z</time>
      </trkpt>
      <trkpt lat="47.20695" lon="6.00507">
        <ele>260.2</ele>
        <time>2021-09-30T12:06:56Z</time>
      </trkpt>
      <trkpt lat="47.20695" lon="6.00507">
        <ele>259.8</ele>
        <time>2021-09-30T12:06:59Z</time>
      </trkpt>
      <trkpt lat="47.20693" lon="6.00504">
        <ele>259.6</ele>
        <time>2021-09-30T12:07:03Z</time>
      </trkpt>
      <trkpt lat="47.20693" lon="6.00502">
        <ele>259.6</ele>
        <time>2021-09-30T12:07:05Z</time>
      </trkpt>
      <trkpt lat="47.20696" lon="6.00487">
        <ele>259.6</ele>
        <time>2021-09-30T12:07:08Z</time>
      </trkpt>
      <trkpt lat="47.20696" lon="6.00484">
        <ele>259.8</ele>
        <time>2021-09-30T12:07:10Z</time>
      </trkpt>
      <trkpt lat="47.20696" lon="6.0048">
        <ele>259.8</ele>
        <time>2021-09-30T12:07:11Z</time>
      </trkpt>
      <trkpt lat="47.20697" lon="6.00481">
        <ele>259.8</ele>
        <time>2021-09-30T12:07:12Z</time>
      </trkpt>
      <trkpt lat="47.20697" lon="6.00481">
        <ele>259.8</ele>
        <time>2021-09-30T12:07:13Z</time>
      </trkpt>
      <trkpt lat="47.20697" lon="6.0048">
        <ele>260.2</ele>
        <time>2021-09-30T12:07:20Z</time>
      </trkpt>
      <trkpt lat="47.207" lon="6.00472">
        <ele>260.2</ele>
        <time>2021-09-30T12:07:24Z</time>
      </trkpt>
      <trkpt lat="47.20702" lon="6.00467">
        <ele>260.2</ele>
        <time>2021-09-30T12:07:25Z</time>
      </trkpt>
      <trkpt lat="47.20705" lon="6.00454">
        <ele>260.2</ele>
        <time>2021-09-30T12:07:27Z</time>
      </trkpt>
      <trkpt lat="47.20707" lon="6.00446">
        <ele>260</ele>
        <time>2021-09-30T12:07:28Z</time>
      </trkpt>
      <trkpt lat="47.20719" lon="6.00407">
        <ele>259.2</ele>
        <time>2021-09-30T12:07:32Z</time>
      </trkpt>
      <trkpt lat="47.20722" lon="6.00398">
        <ele>258.4</ele>
        <time>2021-09-30T12:07:33Z</time>
      </trkpt>
      <trkpt lat="47.20725" lon="6.00394">
        <ele>258.2</ele>
        <time>2021-09-30T12:07:34Z</time>
      </trkpt>
      <trkpt lat="47.20728" lon="6.0039">
        <ele>257.2</ele>
        <time>2021-09-30T12:07:35Z</time>
      </trkpt>
      <trkpt lat="47.20734" lon="6.00381">
        <ele>257</ele>
        <time>2021-09-30T12:07:36Z</time>
      </trkpt>
      <trkpt lat="47.20736" lon="6.00379">
        <ele>256.4</ele>
        <time>2021-09-30T12:07:37Z</time>
      </trkpt>
      <trkpt lat="47.20738" lon="6.00379">
        <ele>256.2</ele>
        <time>2021-09-30T12:07:38Z</time>
      </trkpt>
      <trkpt lat="47.20738" lon="6.00379">
        <ele>255.6</ele>
        <time>2021-09-30T12:07:39Z</time>
      </trkpt>
      <trkpt lat="47.2074" lon="6.00376">
        <ele>255.4</ele>
        <time>2021-09-30T12:07:40Z</time>
      </trkpt>
      <trkpt lat="47.20741" lon="6.00375">
        <ele>255.4</ele>
        <time>2021-09-30T12:07:41Z</time>
      </trkpt>
      <trkpt lat="47.20743" lon="6.00373">
        <ele>255.4</ele>
        <time>2021-09-30T12:07:42Z</time>
      </trkpt>
      <trkpt lat="47.20744" lon="6.00369">
        <ele>255.2</ele>
        <time>2021-09-30T12:07:43Z</time>
      </trkpt>
      <trkpt lat="47.20748" lon="6.00364">
        <ele>255.2</ele>
        <time>2021-09-30T12:07:44Z</time>
      </trkpt>
      <trkpt lat="47.20754" lon="6.00359">
        <ele>255.2</ele>
        <time>2021-09-30T12:07:45Z</time>
      </trkpt>
      <trkpt lat="47.20768" lon="6.00348">
        <ele>255</ele>
        <time>2021-09-30T12:07:48Z</time>
      </trkpt>
      <trkpt lat="47.20772" lon="6.00346">
        <ele>255</ele>
        <time>2021-09-30T12:07:49Z</time>
      </trkpt>
      <trkpt lat="47.20776" lon="6.00343">
        <ele>255</ele>
        <time>2021-09-30T12:07:50Z</time>
      </trkpt>
      <trkpt lat="47.20784" lon="6.00338">
        <ele>255</ele>
        <time>2021-09-30T12:07:52Z</time>
      </trkpt>
      <trkpt lat="47.2079" lon="6.00337">
        <ele>254.2</ele>
        <time>2021-09-30T12:07:53Z</time>
      </trkpt>
      <trkpt lat="47.20794" lon="6.00335">
        <ele>254</ele>
        <time>2021-09-30T12:07:54Z</time>
      </trkpt>
      <trkpt lat="47.2081" lon="6.00329">
        <ele>252.8</ele>
        <time>2021-09-30T12:07:58Z</time>
      </trkpt>
      <trkpt lat="47.20813" lon="6.00327">
        <ele>252.6</ele>
        <time>2021-09-30T12:07:59Z</time>
      </trkpt>
      <trkpt lat="47.20817" lon="6.00325">
        <ele>252.4</ele>
        <time>2021-09-30T12:08:00Z</time>
      </trkpt>
      <trkpt lat="47.2082" lon="6.00324">
        <ele>252.4</ele>
        <time>2021-09-30T12:08:01Z</time>
      </trkpt>
      <trkpt lat="47.20822" lon="6.00322">
        <ele>252.4</ele>
        <time>2021-09-30T12:08:02Z</time>
      </trkpt>
      <trkpt lat="47.20824" lon="6.00319">
        <ele>252.4</ele>
        <time>2021-09-30T12:08:03Z</time>
      </trkpt>
      <trkpt lat="47.20826" lon="6.00317">
        <ele>252.4</ele>
        <time>2021-09-30T12:08:04Z</time>
      </trkpt>
      <trkpt lat="47.20828" lon="6.00315">
        <ele>252.4</ele>
        <time>2021-09-30T12:08:05Z</time>
      </trkpt>
      <trkpt lat="47.2083" lon="6.00314">
        <ele>252.4</ele>
        <time>2021-09-30T12:08:06Z</time>
      </trkpt>
      <trkpt lat="47.20832" lon="6.00313">
        <ele>252.4</ele>
        <time>2021-09-30T12:08:07Z</time>
      </trkpt>
      <trkpt lat="47.20834" lon="6.00312">
        <ele>252.4</ele>
        <time>2021-09-30T12:08:08Z</time>
      </trkpt>
      <trkpt lat="47.20836" lon="6.00311">
        <ele>252.4</ele>
        <time>2021-09-30T12:08:09Z</time>
      </trkpt>
      <trkpt lat="47.20839" lon="6.00309">
        <ele>252.4</ele>
        <time>2021-09-30T12:08:10Z</time>
      </trkpt>
      <trkpt lat="47.2085" lon="6.00301">
        <ele>252.4</ele>
        <time>2021-09-30T12:08:13Z</time>
      </trkpt>
      <trkpt lat="47.20858" lon="6.00293">
        <ele>252.4</ele>
        <time>2021-09-30T12:08:15Z</time>
      </trkpt>
      <trkpt lat="47.20862" lon="6.00289">
        <ele>252.4</ele>
        <time>2021-09-30T12:08:16Z</time>
      </trkpt>
      <trkpt lat="47.20886" lon="6.00271">
        <ele>251.8</ele>
        <time>2021-09-30T12:08:21Z</time>
      </trkpt>
      <trkpt lat="47.20886" lon="6.00271">
        <ele>251.6</ele>
        <time>2021-09-30T12:08:22Z</time>
      </trkpt>
      <trkpt lat="47.20906" lon="6.00255">
        <ele>250.8</ele>
        <time>2021-09-30T12:08:26Z</time>
      </trkpt>
      <trkpt lat="47.2091" lon="6.00252">
        <ele>250.6</ele>
        <time>2021-09-30T12:08:27Z</time>
      </trkpt>
      <trkpt lat="47.20913" lon="6.00249">
        <ele>250.6</ele>
        <time>2021-09-30T12:08:28Z</time>
      </trkpt>
      <trkpt lat="47.20928" lon="6.00232">
        <ele>250.2</ele>
        <time>2021-09-30T12:08:32Z</time>
      </trkpt>
      <trkpt lat="47.2095" lon="6.00201">
        <ele>249.4</ele>
        <time>2021-09-30T12:08:38Z</time>
      </trkpt>
      <trkpt lat="47.20957" lon="6.00192">
        <ele>249.4</ele>
        <time>2021-09-30T12:08:40Z</time>
      </trkpt>
      <trkpt lat="47.20975" lon="6.00163">
        <ele>249.2</ele>
        <time>2021-09-30T12:08:46Z</time>
      </trkpt>
      <trkpt lat="47.20978" lon="6.00158">
        <ele>249.2</ele>
        <time>2021-09-30T12:08:47Z</time>
      </trkpt>
      <trkpt lat="47.20981" lon="6.00153">
        <ele>249.2</ele>
        <time>2021-09-30T12:08:48Z</time>
      </trkpt>
      <trkpt lat="47.20984" lon="6.00148">
        <ele>249.2</ele>
        <time>2021-09-30T12:08:49Z</time>
      </trkpt>
      <trkpt lat="47.20986" lon="6.00144">
        <ele>249.2</ele>
        <time>2021-09-30T12:08:50Z</time>
      </trkpt>
      <trkpt lat="47.2099" lon="6.00139">
        <ele>249.2</ele>
        <time>2021-09-30T12:08:51Z</time>
      </trkpt>
      <trkpt lat="47.20993" lon="6.00135">
        <ele>249.2</ele>
        <time>2021-09-30T12:08:52Z</time>
      </trkpt>
      <trkpt lat="47.20996" lon="6.00131">
        <ele>249.2</ele>
        <time>2021-09-30T12:08:53Z</time>
      </trkpt>
      <trkpt lat="47.20999" lon="6.00128">
        <ele>249.2</ele>
        <time>2021-09-30T12:08:54Z</time>
      </trkpt>
      <trkpt lat="47.21002" lon="6.00124">
        <ele>249.2</ele>
        <time>2021-09-30T12:08:55Z</time>
      </trkpt>
      <trkpt lat="47.21005" lon="6.00121">
        <ele>249.2</ele>
        <time>2021-09-30T12:08:56Z</time>
      </trkpt>
      <trkpt lat="47.21008" lon="6.00118">
        <ele>249.2</ele>
        <time>2021-09-30T12:08:57Z</time>
      </trkpt>
      <trkpt lat="47.21011" lon="6.00116">
        <ele>249.2</ele>
        <time>2021-09-30T12:08:58Z</time>
      </trkpt>
      <trkpt lat="47.21014" lon="6.00114">
        <ele>249.2</ele>
        <time>2021-09-30T12:08:59Z</time>
      </trkpt>
      <trkpt lat="47.21018" lon="6.00112">
        <ele>249.2</ele>
        <time>2021-09-30T12:09:00Z</time>
      </trkpt>
      <trkpt lat="47.21021" lon="6.00111">
        <ele>249.2</ele>
        <time>2021-09-30T12:09:01Z</time>
      </trkpt>
      <trkpt lat="47.21023" lon="6.00109">
        <ele>249.2</ele>
        <time>2021-09-30T12:09:02Z</time>
      </trkpt>
      <trkpt lat="47.21026" lon="6.00108">
        <ele>249.2</ele>
        <time>2021-09-30T12:09:03Z</time>
      </trkpt>
      <trkpt lat="47.21029" lon="6.00106">
        <ele>249.2</ele>
        <time>2021-09-30T12:09:04Z</time>
      </trkpt>
      <trkpt lat="47.21031" lon="6.00105">
        <ele>249.4</ele>
        <time>2021-09-30T12:09:05Z</time>
      </trkpt>
      <trkpt lat="47.21033" lon="6.00104">
        <ele>249.4</ele>
        <time>2021-09-30T12:09:06Z</time>
      </trkpt>
      <trkpt lat="47.21035" lon="6.00103">
        <ele>249.4</ele>
        <time>2021-09-30T12:09:07Z</time>
      </trkpt>
      <trkpt lat="47.21037" lon="6.00102">
        <ele>249.4</ele>
        <time>2021-09-30T12:09:08Z</time>
      </trkpt>
      <trkpt lat="47.21037" lon="6.00102">
        <ele>249.6</ele>
        <time>2021-09-30T12:09:09Z</time>
      </trkpt>
      <trkpt lat="47.21037" lon="6.00102">
        <ele>249.6</ele>
        <time>2021-09-30T12:09:10Z</time>
      </trkpt>
      <trkpt lat="47.21038" lon="6.00101">
        <ele>249.6</ele>
        <time>2021-09-30T12:09:11Z</time>
      </trkpt>
      <trkpt lat="47.2104" lon="6.001">
        <ele>249.6</ele>
        <time>2021-09-30T12:09:12Z</time>
      </trkpt>
      <trkpt lat="47.21044" lon="6.00097">
        <ele>249.8</ele>
        <time>2021-09-30T12:09:14Z</time>
      </trkpt>
      <trkpt lat="47.21047" lon="6.00096">
        <ele>249.8</ele>
        <time>2021-09-30T12:09:15Z</time>
      </trkpt>
      <trkpt lat="47.21058" lon="6.00095">
        <ele>249.8</ele>
        <time>2021-09-30T12:09:18Z</time>
      </trkpt>
      <trkpt lat="47.2106" lon="6.00092">
        <ele>249.8</ele>
        <time>2021-09-30T12:09:19Z</time>
      </trkpt>
      <trkpt lat="47.2106" lon="6.00089">
        <ele>249.8</ele>
        <time>2021-09-30T12:09:20Z</time>
      </trkpt>
      <trkpt lat="47.21059" lon="6.00086">
        <ele>249.8</ele>
        <time>2021-09-30T12:09:21Z</time>
      </trkpt>
      <trkpt lat="47.21057" lon="6.00084">
        <ele>249.8</ele>
        <time>2021-09-30T12:09:22Z</time>
      </trkpt>
      <trkpt lat="47.21054" lon="6.00082">
        <ele>249.8</ele>
        <time>2021-09-30T12:09:23Z</time>
      </trkpt>
      <trkpt lat="47.21049" lon="6.00074">
        <ele>249.8</ele>
        <time>2021-09-30T12:09:25Z</time>
      </trkpt>
      <trkpt lat="47.21046" lon="6.00071">
        <ele>249.8</ele>
        <time>2021-09-30T12:09:26Z</time>
      </trkpt>
      <trkpt lat="47.21039" lon="6.00064">
        <ele>249.6</ele>
        <time>2021-09-30T12:09:28Z</time>
      </trkpt>
      <trkpt lat="47.21034" lon="6.00055">
        <ele>249.4</ele>
        <time>2021-09-30T12:09:30Z</time>
      </trkpt>
      <trkpt lat="47.21032" lon="6.0005">
        <ele>249.2</ele>
        <time>2021-09-30T12:09:31Z</time>
      </trkpt>
      <trkpt lat="47.21032" lon="6.00044">
        <ele>249</ele>
        <time>2021-09-30T12:09:32Z</time>
      </trkpt>
      <trkpt lat="47.21031" lon="6.00039">
        <ele>248.8</ele>
        <time>2021-09-30T12:09:33Z</time>
      </trkpt>
      <trkpt lat="47.21032" lon="6.00033">
        <ele>248.6</ele>
        <time>2021-09-30T12:09:34Z</time>
      </trkpt>
      <trkpt lat="47.21033" lon="6.00028">
        <ele>248.6</ele>
        <time>2021-09-30T12:09:35Z</time>
      </trkpt>
      <trkpt lat="47.21034" lon="6.00024">
        <ele>248.4</ele>
        <time>2021-09-30T12:09:36Z</time>
      </trkpt>
      <trkpt lat="47.21036" lon="6.0002">
        <ele>248.4</ele>
        <time>2021-09-30T12:09:37Z</time>
      </trkpt>
      <trkpt lat="47.21038" lon="6.00015">
        <ele>248.4</ele>
        <time>2021-09-30T12:09:38Z</time>
      </trkpt>
      <trkpt lat="47.2104" lon="6.00011">
        <ele>248.2</ele>
        <time>2021-09-30T12:09:39Z</time>
      </trkpt>
      <trkpt lat="47.21043" lon="6.00006">
        <ele>248</ele>
        <time>2021-09-30T12:09:40Z</time>
      </trkpt>
      <trkpt lat="47.21046" lon="6.00002">
        <ele>248</ele>
        <time>2021-09-30T12:09:41Z</time>
      </trkpt>
      <trkpt lat="47.2106" lon="5.99992">
        <ele>247.6</ele>
        <time>2021-09-30T12:09:45Z</time>
      </trkpt>
      <trkpt lat="47.21064" lon="5.99992">
        <ele>247.6</ele>
        <time>2021-09-30T12:09:46Z</time>
      </trkpt>
      <trkpt lat="47.21068" lon="5.99991">
        <ele>247.2</ele>
        <time>2021-09-30T12:09:47Z</time>
      </trkpt>
      <trkpt lat="47.21081" lon="5.99989">
        <ele>247</ele>
        <time>2021-09-30T12:09:50Z</time>
      </trkpt>
      <trkpt lat="47.21088" lon="5.99985">
        <ele>247</ele>
        <time>2021-09-30T12:09:52Z</time>
      </trkpt>
      <trkpt lat="47.21091" lon="5.99981">
        <ele>247</ele>
        <time>2021-09-30T12:09:53Z</time>
      </trkpt>
      <trkpt lat="47.21094" lon="5.99977">
        <ele>247</ele>
        <time>2021-09-30T12:09:54Z</time>
      </trkpt>
      <trkpt lat="47.21098" lon="5.99972">
        <ele>247</ele>
        <time>2021-09-30T12:09:55Z</time>
      </trkpt>
      <trkpt lat="47.21101" lon="5.9997">
        <ele>247</ele>
        <time>2021-09-30T12:09:56Z</time>
      </trkpt>
      <trkpt lat="47.21104" lon="5.99967">
        <ele>246.8</ele>
        <time>2021-09-30T12:09:57Z</time>
      </trkpt>
      <trkpt lat="47.21112" lon="5.99965">
        <ele>246.6</ele>
        <time>2021-09-30T12:09:59Z</time>
      </trkpt>
      <trkpt lat="47.21117" lon="5.99964">
        <ele>246.6</ele>
        <time>2021-09-30T12:10:00Z</time>
      </trkpt>
      <trkpt lat="47.21125" lon="5.99963">
        <ele>246.2</ele>
        <time>2021-09-30T12:10:02Z</time>
      </trkpt>
      <trkpt lat="47.21133" lon="5.99962">
        <ele>245.8</ele>
        <time>2021-09-30T12:10:04Z</time>
      </trkpt>
      <trkpt lat="47.21144" lon="5.99962">
        <ele>245.8</ele>
        <time>2021-09-30T12:10:07Z</time>
      </trkpt>
      <trkpt lat="47.21149" lon="5.99963">
        <ele>245.6</ele>
        <time>2021-09-30T12:10:08Z</time>
      </trkpt>
      <trkpt lat="47.21151" lon="5.99963">
        <ele>245.6</ele>
        <time>2021-09-30T12:10:09Z</time>
      </trkpt>
      <trkpt lat="47.21155" lon="5.99964">
        <ele>245.6</ele>
        <time>2021-09-30T12:10:10Z</time>
      </trkpt>
      <trkpt lat="47.21158" lon="5.99964">
        <ele>245.6</ele>
        <time>2021-09-30T12:10:11Z</time>
      </trkpt>
      <trkpt lat="47.21161" lon="5.99965">
        <ele>245.6</ele>
        <time>2021-09-30T12:10:12Z</time>
      </trkpt>
      <trkpt lat="47.21165" lon="5.99965">
        <ele>245.8</ele>
        <time>2021-09-30T12:10:13Z</time>
      </trkpt>
      <trkpt lat="47.21168" lon="5.99965">
        <ele>245.8</ele>
        <time>2021-09-30T12:10:14Z</time>
      </trkpt>
      <trkpt lat="47.21171" lon="5.99965">
        <ele>245.8</ele>
        <time>2021-09-30T12:10:15Z</time>
      </trkpt>
      <trkpt lat="47.21174" lon="5.99965">
        <ele>246</ele>
        <time>2021-09-30T12:10:16Z</time>
      </trkpt>
      <trkpt lat="47.21177" lon="5.99964">
        <ele>246</ele>
        <time>2021-09-30T12:10:17Z</time>
      </trkpt>
      <trkpt lat="47.2118" lon="5.99963">
        <ele>246</ele>
        <time>2021-09-30T12:10:18Z</time>
      </trkpt>
      <trkpt lat="47.21181" lon="5.99961">
        <ele>246</ele>
        <time>2021-09-30T12:10:19Z</time>
      </trkpt>
      <trkpt lat="47.21183" lon="5.99957">
        <ele>246</ele>
        <time>2021-09-30T12:10:20Z</time>
      </trkpt>
      <trkpt lat="47.21184" lon="5.99955">
        <ele>246</ele>
        <time>2021-09-30T12:10:21Z</time>
      </trkpt>
      <trkpt lat="47.21185" lon="5.99953">
        <ele>246</ele>
        <time>2021-09-30T12:10:22Z</time>
      </trkpt>
      <trkpt lat="47.21186" lon="5.9995">
        <ele>245.8</ele>
        <time>2021-09-30T12:10:23Z</time>
      </trkpt>
      <trkpt lat="47.21186" lon="5.99948">
        <ele>246</ele>
        <time>2021-09-30T12:10:24Z</time>
      </trkpt>
      <trkpt lat="47.21187" lon="5.99946">
        <ele>246</ele>
        <time>2021-09-30T12:10:25Z</time>
      </trkpt>
      <trkpt lat="47.21188" lon="5.99944">
        <ele>246</ele>
        <time>2021-09-30T12:10:26Z</time>
      </trkpt>
      <trkpt lat="47.21189" lon="5.99942">
        <ele>246</ele>
        <time>2021-09-30T12:10:27Z</time>
      </trkpt>
      <trkpt lat="47.2119" lon="5.9994">
        <ele>246</ele>
        <time>2021-09-30T12:10:28Z</time>
      </trkpt>
      <trkpt lat="47.21191" lon="5.99937">
        <ele>246</ele>
        <time>2021-09-30T12:10:29Z</time>
      </trkpt>
      <trkpt lat="47.21191" lon="5.99935">
        <ele>246</ele>
        <time>2021-09-30T12:10:30Z</time>
      </trkpt>
      <trkpt lat="47.212" lon="5.99914">
        <ele>246</ele>
        <time>2021-09-30T12:10:31Z</time>
      </trkpt>
      <trkpt lat="47.21203" lon="5.99914">
        <ele>246</ele>
        <time>2021-09-30T12:10:32Z</time>
      </trkpt>
      <trkpt lat="47.21204" lon="5.99915">
        <ele>246</ele>
        <time>2021-09-30T12:10:33Z</time>
      </trkpt>
      <trkpt lat="47.21205" lon="5.99917">
        <ele>246</ele>
        <time>2021-09-30T12:10:34Z</time>
      </trkpt>
      <trkpt lat="47.21208" lon="5.9992">
        <ele>246</ele>
        <time>2021-09-30T12:10:35Z</time>
      </trkpt>
      <trkpt lat="47.2121" lon="5.99922">
        <ele>246</ele>
        <time>2021-09-30T12:10:36Z</time>
      </trkpt>
      <trkpt lat="47.21213" lon="5.99925">
        <ele>246</ele>
        <time>2021-09-30T12:10:37Z</time>
      </trkpt>
      <trkpt lat="47.21216" lon="5.99928">
        <ele>246</ele>
        <time>2021-09-30T12:10:38Z</time>
      </trkpt>
      <trkpt lat="47.21227" lon="5.99941">
        <ele>246</ele>
        <time>2021-09-30T12:10:42Z</time>
      </trkpt>
      <trkpt lat="47.2123" lon="5.99945">
        <ele>246</ele>
        <time>2021-09-30T12:10:43Z</time>
      </trkpt>
      <trkpt lat="47.21234" lon="5.99949">
        <ele>246</ele>
        <time>2021-09-30T12:10:44Z</time>
      </trkpt>
      <trkpt lat="47.21244" lon="5.9996">
        <ele>246</ele>
        <time>2021-09-30T12:10:47Z</time>
      </trkpt>
      <trkpt lat="47.21251" lon="5.99966">
        <ele>246</ele>
        <time>2021-09-30T12:10:49Z</time>
      </trkpt>
      <trkpt lat="47.21255" lon="5.99969">
        <ele>246</ele>
        <time>2021-09-30T12:10:50Z</time>
      </trkpt>
      <trkpt lat="47.21258" lon="5.99973">
        <ele>246</ele>
        <time>2021-09-30T12:10:51Z</time>
      </trkpt>
      <trkpt lat="47.21273" lon="5.99987">
        <ele>246</ele>
        <time>2021-09-30T12:10:55Z</time>
      </trkpt>
      <trkpt lat="47.21306" lon="6.00019">
        <ele>246</ele>
        <time>2021-09-30T12:11:03Z</time>
      </trkpt>
      <trkpt lat="47.21318" lon="6.00029">
        <ele>246</ele>
        <time>2021-09-30T12:11:06Z</time>
      </trkpt>
      <trkpt lat="47.21332" lon="6.00045">
        <ele>246.2</ele>
        <time>2021-09-30T12:11:10Z</time>
      </trkpt>
      <trkpt lat="47.21336" lon="6.00049">
        <ele>246.4</ele>
        <time>2021-09-30T12:11:12Z</time>
      </trkpt>
      <trkpt lat="47.21343" lon="6.00056">
        <ele>246.4</ele>
        <time>2021-09-30T12:11:13Z</time>
      </trkpt>
      <trkpt lat="47.21348" lon="6.00061">
        <ele>246.6</ele>
        <time>2021-09-30T12:11:14Z</time>
      </trkpt>
      <trkpt lat="47.21351" lon="6.00064">
        <ele>246.6</ele>
        <time>2021-09-30T12:11:15Z</time>
      </trkpt>
      <trkpt lat="47.21354" lon="6.00068">
        <ele>246.8</ele>
        <time>2021-09-30T12:11:16Z</time>
      </trkpt>
      <trkpt lat="47.21366" lon="6.00082">
        <ele>247</ele>
        <time>2021-09-30T12:11:19Z</time>
      </trkpt>
      <trkpt lat="47.21373" lon="6.00089">
        <ele>247</ele>
        <time>2021-09-30T12:11:21Z</time>
      </trkpt>
      <trkpt lat="47.21386" lon="6.00104">
        <ele>247.2</ele>
        <time>2021-09-30T12:11:25Z</time>
      </trkpt>
      <trkpt lat="47.21389" lon="6.00108">
        <ele>247.4</ele>
        <time>2021-09-30T12:11:26Z</time>
      </trkpt>
      <trkpt lat="47.21392" lon="6.00111">
        <ele>247.4</ele>
        <time>2021-09-30T12:11:27Z</time>
      </trkpt>
      <trkpt lat="47.21396" lon="6.00115">
        <ele>247.6</ele>
        <time>2021-09-30T12:11:28Z</time>
      </trkpt>
      <trkpt lat="47.21399" lon="6.00118">
        <ele>247.6</ele>
        <time>2021-09-30T12:11:29Z</time>
      </trkpt>
      <trkpt lat="47.21403" lon="6.00122">
        <ele>247.8</ele>
        <time>2021-09-30T12:11:30Z</time>
      </trkpt>
      <trkpt lat="47.21406" lon="6.00126">
        <ele>247.8</ele>
        <time>2021-09-30T12:11:31Z</time>
      </trkpt>
      <trkpt lat="47.21419" lon="6.00142">
        <ele>248</ele>
        <time>2021-09-30T12:11:35Z</time>
      </trkpt>
      <trkpt lat="47.21452" lon="6.00185">
        <ele>248</ele>
        <time>2021-09-30T12:11:45Z</time>
      </trkpt>
      <trkpt lat="47.21485" lon="6.00229">
        <ele>247.4</ele>
        <time>2021-09-30T12:11:55Z</time>
      </trkpt>
      <trkpt lat="47.21497" lon="6.00246">
        <ele>247.4</ele>
        <time>2021-09-30T12:11:59Z</time>
      </trkpt>
      <trkpt lat="47.215" lon="6.0025">
        <ele>247.4</ele>
        <time>2021-09-30T12:12:00Z</time>
      </trkpt>
      <trkpt lat="47.21503" lon="6.00254">
        <ele>247.4</ele>
        <time>2021-09-30T12:12:01Z</time>
      </trkpt>
      <trkpt lat="47.21506" lon="6.00258">
        <ele>247.4</ele>
        <time>2021-09-30T12:12:02Z</time>
      </trkpt>
      <trkpt lat="47.21509" lon="6.00262">
        <ele>247.4</ele>
        <time>2021-09-30T12:12:03Z</time>
      </trkpt>
      <trkpt lat="47.21513" lon="6.00266">
        <ele>247.4</ele>
        <time>2021-09-30T12:12:04Z</time>
      </trkpt>
      <trkpt lat="47.21516" lon="6.00271">
        <ele>247.4</ele>
        <time>2021-09-30T12:12:05Z</time>
      </trkpt>
      <trkpt lat="47.21541" lon="6.00305">
        <ele>248</ele>
        <time>2021-09-30T12:12:13Z</time>
      </trkpt>
      <trkpt lat="47.21577" lon="6.00365">
        <ele>247.8</ele>
        <time>2021-09-30T12:12:25Z</time>
      </trkpt>
      <trkpt lat="47.2158" lon="6.00371">
        <ele>247.6</ele>
        <time>2021-09-30T12:12:26Z</time>
      </trkpt>
      <trkpt lat="47.21585" lon="6.00383">
        <ele>247.6</ele>
        <time>2021-09-30T12:12:28Z</time>
      </trkpt>
      <trkpt lat="47.21595" lon="6.00415">
        <ele>247.4</ele>
        <time>2021-09-30T12:12:33Z</time>
      </trkpt>
      <trkpt lat="47.21607" lon="6.00467">
        <ele>247</ele>
        <time>2021-09-30T12:12:40Z</time>
      </trkpt>
      <trkpt lat="47.21614" lon="6.00503">
        <ele>247</ele>
        <time>2021-09-30T12:12:45Z</time>
      </trkpt>
      <trkpt lat="47.21616" lon="6.0051">
        <ele>247</ele>
        <time>2021-09-30T12:12:46Z</time>
      </trkpt>
      <trkpt lat="47.21617" lon="6.00517">
        <ele>247</ele>
        <time>2021-09-30T12:12:47Z</time>
      </trkpt>
      <trkpt lat="47.2162" lon="6.00531">
        <ele>247</ele>
        <time>2021-09-30T12:12:49Z</time>
      </trkpt>
      <trkpt lat="47.21622" lon="6.00546">
        <ele>247</ele>
        <time>2021-09-30T12:12:51Z</time>
      </trkpt>
      <trkpt lat="47.21626" lon="6.00575">
        <ele>247</ele>
        <time>2021-09-30T12:12:55Z</time>
      </trkpt>
      <trkpt lat="47.21627" lon="6.00582">
        <ele>247.2</ele>
        <time>2021-09-30T12:12:56Z</time>
      </trkpt>
      <trkpt lat="47.21636" lon="6.00649">
        <ele>247.2</ele>
        <time>2021-09-30T12:13:05Z</time>
      </trkpt>
      <trkpt lat="47.21641" lon="6.00694">
        <ele>247.2</ele>
        <time>2021-09-30T12:13:11Z</time>
      </trkpt>
      <trkpt lat="47.21641" lon="6.00694">
        <ele>247.2</ele>
        <time>2021-09-30T12:13:12Z</time>
      </trkpt>
      <trkpt lat="47.21643" lon="6.00713">
        <ele>247.2</ele>
        <time>2021-09-30T12:13:14Z</time>
      </trkpt>
      <trkpt lat="47.21644" lon="6.0072">
        <ele>247.2</ele>
        <time>2021-09-30T12:13:15Z</time>
      </trkpt>
      <trkpt lat="47.21644" lon="6.00727">
        <ele>247.4</ele>
        <time>2021-09-30T12:13:16Z</time>
      </trkpt>
      <trkpt lat="47.21644" lon="6.00736">
        <ele>247.4</ele>
        <time>2021-09-30T12:13:17Z</time>
      </trkpt>
      <trkpt lat="47.21645" lon="6.00743">
        <ele>247.4</ele>
        <time>2021-09-30T12:13:18Z</time>
      </trkpt>
      <trkpt lat="47.21645" lon="6.00748">
        <ele>247.4</ele>
        <time>2021-09-30T12:13:19Z</time>
      </trkpt>
      <trkpt lat="47.21646" lon="6.00755">
        <ele>247.4</ele>
        <time>2021-09-30T12:13:20Z</time>
      </trkpt>
      <trkpt lat="47.21646" lon="6.00762">
        <ele>247.4</ele>
        <time>2021-09-30T12:13:21Z</time>
      </trkpt>
      <trkpt lat="47.21646" lon="6.00769">
        <ele>247.4</ele>
        <time>2021-09-30T12:13:22Z</time>
      </trkpt>
      <trkpt lat="47.21647" lon="6.00776">
        <ele>247.4</ele>
        <time>2021-09-30T12:13:23Z</time>
      </trkpt>
      <trkpt lat="47.21647" lon="6.00783">
        <ele>247.4</ele>
        <time>2021-09-30T12:13:24Z</time>
      </trkpt>
      <trkpt lat="47.21648" lon="6.00791">
        <ele>247.4</ele>
        <time>2021-09-30T12:13:25Z</time>
      </trkpt>
      <trkpt lat="47.21651" lon="6.00836">
        <ele>247.4</ele>
        <time>2021-09-30T12:13:31Z</time>
      </trkpt>
      <trkpt lat="47.21655" lon="6.00904">
        <ele>247.2</ele>
        <time>2021-09-30T12:13:40Z</time>
      </trkpt>
      <trkpt lat="47.21656" lon="6.00919">
        <ele>247.4</ele>
        <time>2021-09-30T12:13:42Z</time>
      </trkpt>
      <trkpt lat="47.21656" lon="6.00973">
        <ele>247.4</ele>
        <time>2021-09-30T12:13:49Z</time>
      </trkpt>
      <trkpt lat="47.21659" lon="6.01013">
        <ele>247</ele>
        <time>2021-09-30T12:13:55Z</time>
      </trkpt>
      <trkpt lat="47.21661" lon="6.01045">
        <ele>246.8</ele>
        <time>2021-09-30T12:13:58Z</time>
      </trkpt>
      <trkpt lat="47.21665" lon="6.01131">
        <ele>246.6</ele>
        <time>2021-09-30T12:14:09Z</time>
      </trkpt>
      <trkpt lat="47.21665" lon="6.01138">
        <ele>246.6</ele>
        <time>2021-09-30T12:14:10Z</time>
      </trkpt>
      <trkpt lat="47.21665" lon="6.01145">
        <ele>246.6</ele>
        <time>2021-09-30T12:14:11Z</time>
      </trkpt>
      <trkpt lat="47.21666" lon="6.01152">
        <ele>246.6</ele>
        <time>2021-09-30T12:14:12Z</time>
      </trkpt>
      <trkpt lat="47.21666" lon="6.01159">
        <ele>246.8</ele>
        <time>2021-09-30T12:14:13Z</time>
      </trkpt>
      <trkpt lat="47.21667" lon="6.01166">
        <ele>246.8</ele>
        <time>2021-09-30T12:14:14Z</time>
      </trkpt>
      <trkpt lat="47.21667" lon="6.01173">
        <ele>246.8</ele>
        <time>2021-09-30T12:14:15Z</time>
      </trkpt>
      <trkpt lat="47.21667" lon="6.0118">
        <ele>246.8</ele>
        <time>2021-09-30T12:14:16Z</time>
      </trkpt>
      <trkpt lat="47.21667" lon="6.01189">
        <ele>247</ele>
        <time>2021-09-30T12:14:17Z</time>
      </trkpt>
      <trkpt lat="47.21669" lon="6.0124">
        <ele>247.8</ele>
        <time>2021-09-30T12:14:24Z</time>
      </trkpt>
      <trkpt lat="47.21671" lon="6.01254">
        <ele>248</ele>
        <time>2021-09-30T12:14:26Z</time>
      </trkpt>
      <trkpt lat="47.21674" lon="6.01297">
        <ele>248.2</ele>
        <time>2021-09-30T12:14:31Z</time>
      </trkpt>
      <trkpt lat="47.21676" lon="6.01307">
        <ele>248.2</ele>
        <time>2021-09-30T12:14:32Z</time>
      </trkpt>
      <trkpt lat="47.21676" lon="6.01314">
        <ele>248</ele>
        <time>2021-09-30T12:14:33Z</time>
      </trkpt>
      <trkpt lat="47.2168" lon="6.01361">
        <ele>247.6</ele>
        <time>2021-09-30T12:14:39Z</time>
      </trkpt>
      <trkpt lat="47.21681" lon="6.01368">
        <ele>247.6</ele>
        <time>2021-09-30T12:14:40Z</time>
      </trkpt>
      <trkpt lat="47.21682" lon="6.01376">
        <ele>247.8</ele>
        <time>2021-09-30T12:14:41Z</time>
      </trkpt>
      <trkpt lat="47.21683" lon="6.01384">
        <ele>247.8</ele>
        <time>2021-09-30T12:14:42Z</time>
      </trkpt>
      <trkpt lat="47.21683" lon="6.01391">
        <ele>248</ele>
        <time>2021-09-30T12:14:43Z</time>
      </trkpt>
      <trkpt lat="47.21684" lon="6.01399">
        <ele>248</ele>
        <time>2021-09-30T12:14:44Z</time>
      </trkpt>
      <trkpt lat="47.21685" lon="6.01407">
        <ele>248</ele>
        <time>2021-09-30T12:14:45Z</time>
      </trkpt>
      <trkpt lat="47.21686" lon="6.01414">
        <ele>248.2</ele>
        <time>2021-09-30T12:14:46Z</time>
      </trkpt>
      <trkpt lat="47.21687" lon="6.01422">
        <ele>248.2</ele>
        <time>2021-09-30T12:14:47Z</time>
      </trkpt>
      <trkpt lat="47.21687" lon="6.01429">
        <ele>248.2</ele>
        <time>2021-09-30T12:14:48Z</time>
      </trkpt>
      <trkpt lat="47.21687" lon="6.01437">
        <ele>248.2</ele>
        <time>2021-09-30T12:14:49Z</time>
      </trkpt>
      <trkpt lat="47.21688" lon="6.01444">
        <ele>248.2</ele>
        <time>2021-09-30T12:14:50Z</time>
      </trkpt>
      <trkpt lat="47.2169" lon="6.01458">
        <ele>248.2</ele>
        <time>2021-09-30T12:14:52Z</time>
      </trkpt>
      <trkpt lat="47.2169" lon="6.01465">
        <ele>248.2</ele>
        <time>2021-09-30T12:14:53Z</time>
      </trkpt>
      <trkpt lat="47.21691" lon="6.01472">
        <ele>248.2</ele>
        <time>2021-09-30T12:14:54Z</time>
      </trkpt>
      <trkpt lat="47.21691" lon="6.01479">
        <ele>248.2</ele>
        <time>2021-09-30T12:14:55Z</time>
      </trkpt>
      <trkpt lat="47.21691" lon="6.01488">
        <ele>248.2</ele>
        <time>2021-09-30T12:14:56Z</time>
      </trkpt>
      <trkpt lat="47.21692" lon="6.01495">
        <ele>248.2</ele>
        <time>2021-09-30T12:14:57Z</time>
      </trkpt>
      <trkpt lat="47.21692" lon="6.01495">
        <ele>248.2</ele>
        <time>2021-09-30T12:14:58Z</time>
      </trkpt>
      <trkpt lat="47.21695" lon="6.01575">
        <ele>248.2</ele>
        <time>2021-09-30T12:15:08Z</time>
      </trkpt>
      <trkpt lat="47.21701" lon="6.01634">
        <ele>248.6</ele>
        <time>2021-09-30T12:15:16Z</time>
      </trkpt>
      <trkpt lat="47.21708" lon="6.01701">
        <ele>248.8</ele>
        <time>2021-09-30T12:15:25Z</time>
      </trkpt>
      <trkpt lat="47.21711" lon="6.01736">
        <ele>248.8</ele>
        <time>2021-09-30T12:15:30Z</time>
      </trkpt>
      <trkpt lat="47.21712" lon="6.01742">
        <ele>248.8</ele>
        <time>2021-09-30T12:15:31Z</time>
      </trkpt>
      <trkpt lat="47.21712" lon="6.0175">
        <ele>248.8</ele>
        <time>2021-09-30T12:15:32Z</time>
      </trkpt>
      <trkpt lat="47.21713" lon="6.01754">
        <ele>248.8</ele>
        <time>2021-09-30T12:15:33Z</time>
      </trkpt>
      <trkpt lat="47.21713" lon="6.0176">
        <ele>249</ele>
        <time>2021-09-30T12:15:34Z</time>
      </trkpt>
      <trkpt lat="47.21714" lon="6.01766">
        <ele>249</ele>
        <time>2021-09-30T12:15:35Z</time>
      </trkpt>
      <trkpt lat="47.21714" lon="6.01769">
        <ele>249</ele>
        <time>2021-09-30T12:15:36Z</time>
      </trkpt>
      <trkpt lat="47.21714" lon="6.01774">
        <ele>249</ele>
        <time>2021-09-30T12:15:37Z</time>
      </trkpt>
      <trkpt lat="47.21714" lon="6.01776">
        <ele>249</ele>
        <time>2021-09-30T12:15:38Z</time>
      </trkpt>
      <trkpt lat="47.21714" lon="6.01779">
        <ele>249.2</ele>
        <time>2021-09-30T12:15:39Z</time>
      </trkpt>
      <trkpt lat="47.21714" lon="6.01782">
        <ele>249.2</ele>
        <time>2021-09-30T12:15:40Z</time>
      </trkpt>
      <trkpt lat="47.21714" lon="6.01785">
        <ele>249.4</ele>
        <time>2021-09-30T12:15:41Z</time>
      </trkpt>
      <trkpt lat="47.21714" lon="6.01788">
        <ele>249.4</ele>
        <time>2021-09-30T12:15:42Z</time>
      </trkpt>
      <trkpt lat="47.21716" lon="6.018">
        <ele>249.8</ele>
        <time>2021-09-30T12:15:46Z</time>
      </trkpt>
      <trkpt lat="47.21717" lon="6.01803">
        <ele>249.8</ele>
        <time>2021-09-30T12:15:47Z</time>
      </trkpt>
      <trkpt lat="47.21717" lon="6.01805">
        <ele>250</ele>
        <time>2021-09-30T12:15:48Z</time>
      </trkpt>
      <trkpt lat="47.21718" lon="6.01808">
        <ele>250</ele>
        <time>2021-09-30T12:15:49Z</time>
      </trkpt>
      <trkpt lat="47.21717" lon="6.01814">
        <ele>250.4</ele>
        <time>2021-09-30T12:15:51Z</time>
      </trkpt>
      <trkpt lat="47.21716" lon="6.01817">
        <ele>250.6</ele>
        <time>2021-09-30T12:15:52Z</time>
      </trkpt>
      <trkpt lat="47.21716" lon="6.0182">
        <ele>250.6</ele>
        <time>2021-09-30T12:15:53Z</time>
      </trkpt>
      <trkpt lat="47.21715" lon="6.01823">
        <ele>250.6</ele>
        <time>2021-09-30T12:15:54Z</time>
      </trkpt>
      <trkpt lat="47.21715" lon="6.01827">
        <ele>250.8</ele>
        <time>2021-09-30T12:15:55Z</time>
      </trkpt>
      <trkpt lat="47.21715" lon="6.01831">
        <ele>250.8</ele>
        <time>2021-09-30T12:15:56Z</time>
      </trkpt>
      <trkpt lat="47.21715" lon="6.01835">
        <ele>250.8</ele>
        <time>2021-09-30T12:15:57Z</time>
      </trkpt>
      <trkpt lat="47.21716" lon="6.01839">
        <ele>250.8</ele>
        <time>2021-09-30T12:15:58Z</time>
      </trkpt>
      <trkpt lat="47.21717" lon="6.01842">
        <ele>251</ele>
        <time>2021-09-30T12:15:59Z</time>
      </trkpt>
      <trkpt lat="47.2172" lon="6.01844">
        <ele>251</ele>
        <time>2021-09-30T12:16:00Z</time>
      </trkpt>
      <trkpt lat="47.21722" lon="6.01845">
        <ele>251.2</ele>
        <time>2021-09-30T12:16:01Z</time>
      </trkpt>
      <trkpt lat="47.21724" lon="6.01845">
        <ele>251.2</ele>
        <time>2021-09-30T12:16:02Z</time>
      </trkpt>
      <trkpt lat="47.21738" lon="6.01843">
        <ele>252</ele>
        <time>2021-09-30T12:16:08Z</time>
      </trkpt>
      <trkpt lat="47.21739" lon="6.01843">
        <ele>252</ele>
        <time>2021-09-30T12:16:09Z</time>
      </trkpt>
      <trkpt lat="47.21739" lon="6.01842">
        <ele>252.2</ele>
        <time>2021-09-30T12:16:10Z</time>
      </trkpt>
      <trkpt lat="47.21739" lon="6.01842">
        <ele>252.2</ele>
        <time>2021-09-30T12:16:11Z</time>
      </trkpt>
      <trkpt lat="47.21739" lon="6.01842">
        <ele>252.6</ele>
        <time>2021-09-30T12:16:13Z</time>
      </trkpt>
      <trkpt lat="47.21746" lon="6.01841">
        <ele>252.6</ele>
        <time>2021-09-30T12:16:18Z</time>
      </trkpt>
      <trkpt lat="47.21751" lon="6.01838">
        <ele>252.8</ele>
        <time>2021-09-30T12:16:20Z</time>
      </trkpt>
      <trkpt lat="47.21757" lon="6.01836">
        <ele>252.8</ele>
        <time>2021-09-30T12:16:23Z</time>
      </trkpt>
      <trkpt lat="47.21759" lon="6.01835">
        <ele>252.8</ele>
        <time>2021-09-30T12:16:24Z</time>
      </trkpt>
      <trkpt lat="47.21782" lon="6.01826">
        <ele>252.8</ele>
        <time>2021-09-30T12:16:32Z</time>
      </trkpt>
      <trkpt lat="47.21814" lon="6.01812">
        <ele>252.4</ele>
        <time>2021-09-30T12:16:43Z</time>
      </trkpt>
      <trkpt lat="47.21831" lon="6.01806">
        <ele>252.2</ele>
        <time>2021-09-30T12:16:49Z</time>
      </trkpt>
      <trkpt lat="47.21835" lon="6.01806">
        <ele>252.2</ele>
        <time>2021-09-30T12:16:50Z</time>
      </trkpt>
      <trkpt lat="47.21861" lon="6.01795">
        <ele>251.6</ele>
        <time>2021-09-30T12:16:57Z</time>
      </trkpt>
      <trkpt lat="47.2187" lon="6.01792">
        <ele>251.2</ele>
        <time>2021-09-30T12:16:59Z</time>
      </trkpt>
      <trkpt lat="47.21874" lon="6.0179">
        <ele>251</ele>
        <time>2021-09-30T12:17:00Z</time>
      </trkpt>
      <trkpt lat="47.21884" lon="6.01785">
        <ele>250.8</ele>
        <time>2021-09-30T12:17:03Z</time>
      </trkpt>
      <trkpt lat="47.21887" lon="6.01784">
        <ele>250.6</ele>
        <time>2021-09-30T12:17:04Z</time>
      </trkpt>
      <trkpt lat="47.2189" lon="6.01782">
        <ele>250.6</ele>
        <time>2021-09-30T12:17:05Z</time>
      </trkpt>
      <trkpt lat="47.21895" lon="6.01777">
        <ele>250.6</ele>
        <time>2021-09-30T12:17:07Z</time>
      </trkpt>
      <trkpt lat="47.219" lon="6.0177">
        <ele>250.6</ele>
        <time>2021-09-30T12:17:09Z</time>
      </trkpt>
      <trkpt lat="47.21902" lon="6.01766">
        <ele>250.6</ele>
        <time>2021-09-30T12:17:10Z</time>
      </trkpt>
      <trkpt lat="47.21909" lon="6.01754">
        <ele>250.8</ele>
        <time>2021-09-30T12:17:13Z</time>
      </trkpt>
      <trkpt lat="47.21916" lon="6.01744">
        <ele>251</ele>
        <time>2021-09-30T12:17:16Z</time>
      </trkpt>
      <trkpt lat="47.21919" lon="6.01743">
        <ele>251.2</ele>
        <time>2021-09-30T12:17:17Z</time>
      </trkpt>
      <trkpt lat="47.21922" lon="6.01743">
        <ele>251.2</ele>
        <time>2021-09-30T12:17:18Z</time>
      </trkpt>
      <trkpt lat="47.21923" lon="6.01745">
        <ele>251.4</ele>
        <time>2021-09-30T12:17:19Z</time>
      </trkpt>
      <trkpt lat="47.21924" lon="6.01748">
        <ele>251.4</ele>
        <time>2021-09-30T12:17:20Z</time>
      </trkpt>
      <trkpt lat="47.21924" lon="6.01751">
        <ele>251.6</ele>
        <time>2021-09-30T12:17:21Z</time>
      </trkpt>
      <trkpt lat="47.21924" lon="6.01755">
        <ele>251.8</ele>
        <time>2021-09-30T12:17:22Z</time>
      </trkpt>
      <trkpt lat="47.21924" lon="6.01758">
        <ele>251.8</ele>
        <time>2021-09-30T12:17:23Z</time>
      </trkpt>
      <trkpt lat="47.21925" lon="6.01763">
        <ele>252.2</ele>
        <time>2021-09-30T12:17:24Z</time>
      </trkpt>
      <trkpt lat="47.21926" lon="6.01773">
        <ele>252.8</ele>
        <time>2021-09-30T12:17:27Z</time>
      </trkpt>
      <trkpt lat="47.21927" lon="6.01781">
        <ele>253.6</ele>
        <time>2021-09-30T12:17:29Z</time>
      </trkpt>
      <trkpt lat="47.21929" lon="6.01801">
        <ele>254.2</ele>
        <time>2021-09-30T12:17:34Z</time>
      </trkpt>
      <trkpt lat="47.21929" lon="6.01805">
        <ele>254.2</ele>
        <time>2021-09-30T12:17:35Z</time>
      </trkpt>
      <trkpt lat="47.2193" lon="6.01808">
        <ele>254.4</ele>
        <time>2021-09-30T12:17:36Z</time>
      </trkpt>
      <trkpt lat="47.2193" lon="6.01812">
        <ele>254.4</ele>
        <time>2021-09-30T12:17:37Z</time>
      </trkpt>
      <trkpt lat="47.2193" lon="6.01816">
        <ele>254.6</ele>
        <time>2021-09-30T12:17:38Z</time>
      </trkpt>
      <trkpt lat="47.2193" lon="6.0182">
        <ele>254.6</ele>
        <time>2021-09-30T12:17:39Z</time>
      </trkpt>
      <trkpt lat="47.2193" lon="6.01824">
        <ele>254.6</ele>
        <time>2021-09-30T12:17:40Z</time>
      </trkpt>
      <trkpt lat="47.2193" lon="6.01828">
        <ele>254.6</ele>
        <time>2021-09-30T12:17:41Z</time>
      </trkpt>
      <trkpt lat="47.2193" lon="6.01833">
        <ele>254.6</ele>
        <time>2021-09-30T12:17:42Z</time>
      </trkpt>
      <trkpt lat="47.21931" lon="6.01838">
        <ele>254.6</ele>
        <time>2021-09-30T12:17:43Z</time>
      </trkpt>
      <trkpt lat="47.21931" lon="6.01842">
        <ele>254.6</ele>
        <time>2021-09-30T12:17:44Z</time>
      </trkpt>
      <trkpt lat="47.21931" lon="6.01847">
        <ele>254.4</ele>
        <time>2021-09-30T12:17:45Z</time>
      </trkpt>
      <trkpt lat="47.21932" lon="6.01852">
        <ele>254.4</ele>
        <time>2021-09-30T12:17:46Z</time>
      </trkpt>
      <trkpt lat="47.21932" lon="6.01857">
        <ele>254.4</ele>
        <time>2021-09-30T12:17:47Z</time>
      </trkpt>
      <trkpt lat="47.21931" lon="6.01861">
        <ele>254.2</ele>
        <time>2021-09-30T12:17:48Z</time>
      </trkpt>
      <trkpt lat="47.21931" lon="6.01866">
        <ele>254.2</ele>
        <time>2021-09-30T12:17:49Z</time>
      </trkpt>
      <trkpt lat="47.21929" lon="6.01878">
        <ele>254</ele>
        <time>2021-09-30T12:17:51Z</time>
      </trkpt>
      <trkpt lat="47.21926" lon="6.01908">
        <ele>253.4</ele>
        <time>2021-09-30T12:17:56Z</time>
      </trkpt>
      <trkpt lat="47.21925" lon="6.01914">
        <ele>253.4</ele>
        <time>2021-09-30T12:17:57Z</time>
      </trkpt>
      <trkpt lat="47.21924" lon="6.01928">
        <ele>253.4</ele>
        <time>2021-09-30T12:17:59Z</time>
      </trkpt>
      <trkpt lat="47.21924" lon="6.01964">
        <ele>252.6</ele>
        <time>2021-09-30T12:18:04Z</time>
      </trkpt>
      <trkpt lat="47.21924" lon="6.01997">
        <ele>251.6</ele>
        <time>2021-09-30T12:18:08Z</time>
      </trkpt>
      <trkpt lat="47.21924" lon="6.02004">
        <ele>251.4</ele>
        <time>2021-09-30T12:18:09Z</time>
      </trkpt>
      <trkpt lat="47.21928" lon="6.02038">
        <ele>250.2</ele>
        <time>2021-09-30T12:18:13Z</time>
      </trkpt>
      <trkpt lat="47.21938" lon="6.0208">
        <ele>249.2</ele>
        <time>2021-09-30T12:18:18Z</time>
      </trkpt>
      <trkpt lat="47.21939" lon="6.02086">
        <ele>249.2</ele>
        <time>2021-09-30T12:18:19Z</time>
      </trkpt>
      <trkpt lat="47.21941" lon="6.02093">
        <ele>249</ele>
        <time>2021-09-30T12:18:20Z</time>
      </trkpt>
      <trkpt lat="47.21943" lon="6.02099">
        <ele>249</ele>
        <time>2021-09-30T12:18:21Z</time>
      </trkpt>
      <trkpt lat="47.21946" lon="6.02106">
        <ele>249</ele>
        <time>2021-09-30T12:18:22Z</time>
      </trkpt>
      <trkpt lat="47.21949" lon="6.02113">
        <ele>249</ele>
        <time>2021-09-30T12:18:23Z</time>
      </trkpt>
      <trkpt lat="47.21953" lon="6.02124">
        <ele>248.8</ele>
        <time>2021-09-30T12:18:25Z</time>
      </trkpt>
      <trkpt lat="47.21956" lon="6.02129">
        <ele>248.8</ele>
        <time>2021-09-30T12:18:26Z</time>
      </trkpt>
      <trkpt lat="47.21958" lon="6.02135">
        <ele>248.8</ele>
        <time>2021-09-30T12:18:27Z</time>
      </trkpt>
      <trkpt lat="47.21961" lon="6.02142">
        <ele>248.8</ele>
        <time>2021-09-30T12:18:28Z</time>
      </trkpt>
      <trkpt lat="47.21964" lon="6.02147">
        <ele>248.8</ele>
        <time>2021-09-30T12:18:29Z</time>
      </trkpt>
      <trkpt lat="47.21966" lon="6.02153">
        <ele>248.8</ele>
        <time>2021-09-30T12:18:30Z</time>
      </trkpt>
      <trkpt lat="47.21979" lon="6.02175">
        <ele>248.6</ele>
        <time>2021-09-30T12:18:34Z</time>
      </trkpt>
      <trkpt lat="47.22012" lon="6.02223">
        <ele>248.8</ele>
        <time>2021-09-30T12:18:43Z</time>
      </trkpt>
      <trkpt lat="47.22035" lon="6.02275">
        <ele>249.2</ele>
        <time>2021-09-30T12:18:51Z</time>
      </trkpt>
      <trkpt lat="47.22036" lon="6.0228">
        <ele>249.2</ele>
        <time>2021-09-30T12:18:52Z</time>
      </trkpt>
      <trkpt lat="47.22038" lon="6.02286">
        <ele>249.2</ele>
        <time>2021-09-30T12:18:53Z</time>
      </trkpt>
      <trkpt lat="47.22041" lon="6.02292">
        <ele>249.4</ele>
        <time>2021-09-30T12:18:54Z</time>
      </trkpt>
      <trkpt lat="47.22046" lon="6.02305">
        <ele>249.4</ele>
        <time>2021-09-30T12:18:56Z</time>
      </trkpt>
      <trkpt lat="47.22048" lon="6.02312">
        <ele>249.2</ele>
        <time>2021-09-30T12:18:57Z</time>
      </trkpt>
      <trkpt lat="47.22051" lon="6.02319">
        <ele>249.2</ele>
        <time>2021-09-30T12:18:58Z</time>
      </trkpt>
      <trkpt lat="47.22074" lon="6.02377">
        <ele>249</ele>
        <time>2021-09-30T12:19:06Z</time>
      </trkpt>
      <trkpt lat="47.22078" lon="6.0239">
        <ele>248.8</ele>
        <time>2021-09-30T12:19:08Z</time>
      </trkpt>
      <trkpt lat="47.22084" lon="6.02412">
        <ele>248.8</ele>
        <time>2021-09-30T12:19:11Z</time>
      </trkpt>
      <trkpt lat="47.22086" lon="6.0242">
        <ele>248.8</ele>
        <time>2021-09-30T12:19:12Z</time>
      </trkpt>
      <trkpt lat="47.2209" lon="6.02431">
        <ele>248.6</ele>
        <time>2021-09-30T12:19:14Z</time>
      </trkpt>
      <trkpt lat="47.22092" lon="6.02437">
        <ele>248.6</ele>
        <time>2021-09-30T12:19:15Z</time>
      </trkpt>
      <trkpt lat="47.22095" lon="6.02443">
        <ele>248.6</ele>
        <time>2021-09-30T12:19:16Z</time>
      </trkpt>
      <trkpt lat="47.22097" lon="6.0245">
        <ele>248.6</ele>
        <time>2021-09-30T12:19:17Z</time>
      </trkpt>
      <trkpt lat="47.22099" lon="6.02455">
        <ele>248.6</ele>
        <time>2021-09-30T12:19:18Z</time>
      </trkpt>
      <trkpt lat="47.22101" lon="6.0246">
        <ele>248.6</ele>
        <time>2021-09-30T12:19:19Z</time>
      </trkpt>
      <trkpt lat="47.22103" lon="6.02466">
        <ele>248.6</ele>
        <time>2021-09-30T12:19:20Z</time>
      </trkpt>
      <trkpt lat="47.22105" lon="6.02472">
        <ele>248.6</ele>
        <time>2021-09-30T12:19:21Z</time>
      </trkpt>
      <trkpt lat="47.22107" lon="6.02479">
        <ele>248.6</ele>
        <time>2021-09-30T12:19:22Z</time>
      </trkpt>
      <trkpt lat="47.22109" lon="6.02486">
        <ele>248.6</ele>
        <time>2021-09-30T12:19:23Z</time>
      </trkpt>
      <trkpt lat="47.22115" lon="6.02508">
        <ele>248.6</ele>
        <time>2021-09-30T12:19:26Z</time>
      </trkpt>
      <trkpt lat="47.22135" lon="6.02559">
        <ele>248.4</ele>
        <time>2021-09-30T12:19:34Z</time>
      </trkpt>
      <trkpt lat="47.2215" lon="6.02596">
        <ele>248.4</ele>
        <time>2021-09-30T12:19:40Z</time>
      </trkpt>
      <trkpt lat="47.22152" lon="6.02604">
        <ele>248.4</ele>
        <time>2021-09-30T12:19:41Z</time>
      </trkpt>
      <trkpt lat="47.22154" lon="6.02611">
        <ele>248.4</ele>
        <time>2021-09-30T12:19:42Z</time>
      </trkpt>
      <trkpt lat="47.22156" lon="6.02618">
        <ele>248.6</ele>
        <time>2021-09-30T12:19:43Z</time>
      </trkpt>
      <trkpt lat="47.22158" lon="6.02623">
        <ele>248.6</ele>
        <time>2021-09-30T12:19:44Z</time>
      </trkpt>
      <trkpt lat="47.22161" lon="6.0263">
        <ele>248.6</ele>
        <time>2021-09-30T12:19:45Z</time>
      </trkpt>
      <trkpt lat="47.22168" lon="6.02645">
        <ele>248.6</ele>
        <time>2021-09-30T12:19:47Z</time>
      </trkpt>
      <trkpt lat="47.22174" lon="6.02659">
        <ele>248.6</ele>
        <time>2021-09-30T12:19:49Z</time>
      </trkpt>
      <trkpt lat="47.22179" lon="6.0267">
        <ele>248.6</ele>
        <time>2021-09-30T12:19:51Z</time>
      </trkpt>
      <trkpt lat="47.22182" lon="6.02677">
        <ele>248.6</ele>
        <time>2021-09-30T12:19:52Z</time>
      </trkpt>
      <trkpt lat="47.22184" lon="6.02682">
        <ele>248.6</ele>
        <time>2021-09-30T12:19:53Z</time>
      </trkpt>
      <trkpt lat="47.22195" lon="6.02703">
        <ele>248.8</ele>
        <time>2021-09-30T12:19:56Z</time>
      </trkpt>
      <trkpt lat="47.22222" lon="6.0275">
        <ele>248.8</ele>
        <time>2021-09-30T12:20:03Z</time>
      </trkpt>
      <trkpt lat="47.22234" lon="6.02768">
        <ele>248.8</ele>
        <time>2021-09-30T12:20:06Z</time>
      </trkpt>
      <trkpt lat="47.22241" lon="6.02776">
        <ele>248.8</ele>
        <time>2021-09-30T12:20:08Z</time>
      </trkpt>
      <trkpt lat="47.22244" lon="6.0278">
        <ele>248.8</ele>
        <time>2021-09-30T12:20:09Z</time>
      </trkpt>
      <trkpt lat="47.22247" lon="6.02784">
        <ele>248.8</ele>
        <time>2021-09-30T12:20:10Z</time>
      </trkpt>
      <trkpt lat="47.2225" lon="6.02788">
        <ele>248.8</ele>
        <time>2021-09-30T12:20:11Z</time>
      </trkpt>
      <trkpt lat="47.22253" lon="6.02792">
        <ele>248.8</ele>
        <time>2021-09-30T12:20:12Z</time>
      </trkpt>
      <trkpt lat="47.22257" lon="6.02795">
        <ele>248.8</ele>
        <time>2021-09-30T12:20:13Z</time>
      </trkpt>
      <trkpt lat="47.2226" lon="6.02798">
        <ele>248.8</ele>
        <time>2021-09-30T12:20:14Z</time>
      </trkpt>
      <trkpt lat="47.22267" lon="6.02805">
        <ele>248.8</ele>
        <time>2021-09-30T12:20:16Z</time>
      </trkpt>
      <trkpt lat="47.22299" lon="6.0283">
        <ele>249.4</ele>
        <time>2021-09-30T12:20:24Z</time>
      </trkpt>
      <trkpt lat="47.22303" lon="6.02834">
        <ele>249.4</ele>
        <time>2021-09-30T12:20:25Z</time>
      </trkpt>
      <trkpt lat="47.22308" lon="6.02838">
        <ele>249.4</ele>
        <time>2021-09-30T12:20:26Z</time>
      </trkpt>
      <trkpt lat="47.22332" lon="6.02858">
        <ele>249.6</ele>
        <time>2021-09-30T12:20:32Z</time>
      </trkpt>
      <trkpt lat="47.22336" lon="6.02862">
        <ele>249.6</ele>
        <time>2021-09-30T12:20:33Z</time>
      </trkpt>
      <trkpt lat="47.22351" lon="6.02881">
        <ele>249.6</ele>
        <time>2021-09-30T12:20:37Z</time>
      </trkpt>
      <trkpt lat="47.22381" lon="6.02918">
        <ele>249.2</ele>
        <time>2021-09-30T12:20:45Z</time>
      </trkpt>
      <trkpt lat="47.22387" lon="6.02929">
        <ele>249.2</ele>
        <time>2021-09-30T12:20:47Z</time>
      </trkpt>
      <trkpt lat="47.22402" lon="6.02968">
        <ele>249.2</ele>
        <time>2021-09-30T12:20:53Z</time>
      </trkpt>
      <trkpt lat="47.22407" lon="6.02982">
        <ele>249.2</ele>
        <time>2021-09-30T12:20:55Z</time>
      </trkpt>
      <trkpt lat="47.22419" lon="6.03006">
        <ele>249.2</ele>
        <time>2021-09-30T12:20:59Z</time>
      </trkpt>
      <trkpt lat="47.22443" lon="6.03034">
        <ele>249.2</ele>
        <time>2021-09-30T12:21:05Z</time>
      </trkpt>
      <trkpt lat="47.22459" lon="6.03046">
        <ele>249.4</ele>
        <time>2021-09-30T12:21:09Z</time>
      </trkpt>
      <trkpt lat="47.22467" lon="6.03051">
        <ele>249.4</ele>
        <time>2021-09-30T12:21:11Z</time>
      </trkpt>
      <trkpt lat="47.2247" lon="6.03054">
        <ele>249.4</ele>
        <time>2021-09-30T12:21:12Z</time>
      </trkpt>
      <trkpt lat="47.22475" lon="6.03057">
        <ele>249.4</ele>
        <time>2021-09-30T12:21:13Z</time>
      </trkpt>
      <trkpt lat="47.22479" lon="6.0306">
        <ele>249.4</ele>
        <time>2021-09-30T12:21:14Z</time>
      </trkpt>
      <trkpt lat="47.22484" lon="6.03062">
        <ele>249.4</ele>
        <time>2021-09-30T12:21:15Z</time>
      </trkpt>
      <trkpt lat="47.22503" lon="6.03074">
        <ele>249.4</ele>
        <time>2021-09-30T12:21:19Z</time>
      </trkpt>
      <trkpt lat="47.22538" lon="6.03101">
        <ele>249.2</ele>
        <time>2021-09-30T12:21:27Z</time>
      </trkpt>
      <trkpt lat="47.22542" lon="6.03105">
        <ele>249.2</ele>
        <time>2021-09-30T12:21:28Z</time>
      </trkpt>
      <trkpt lat="47.22547" lon="6.03108">
        <ele>249.4</ele>
        <time>2021-09-30T12:21:29Z</time>
      </trkpt>
      <trkpt lat="47.2256" lon="6.03119">
        <ele>249.6</ele>
        <time>2021-09-30T12:21:32Z</time>
      </trkpt>
      <trkpt lat="47.22594" lon="6.03141">
        <ele>249.6</ele>
        <time>2021-09-30T12:21:39Z</time>
      </trkpt>
      <trkpt lat="47.22599" lon="6.03143">
        <ele>249.6</ele>
        <time>2021-09-30T12:21:40Z</time>
      </trkpt>
      <trkpt lat="47.22617" lon="6.0315">
        <ele>249.6</ele>
        <time>2021-09-30T12:21:44Z</time>
      </trkpt>
      <trkpt lat="47.22621" lon="6.03152">
        <ele>249.6</ele>
        <time>2021-09-30T12:21:45Z</time>
      </trkpt>
      <trkpt lat="47.22625" lon="6.03153">
        <ele>249.6</ele>
        <time>2021-09-30T12:21:46Z</time>
      </trkpt>
      <trkpt lat="47.22628" lon="6.03154">
        <ele>249.6</ele>
        <time>2021-09-30T12:21:47Z</time>
      </trkpt>
      <trkpt lat="47.22632" lon="6.03155">
        <ele>249.6</ele>
        <time>2021-09-30T12:21:48Z</time>
      </trkpt>
      <trkpt lat="47.22636" lon="6.03155">
        <ele>249.6</ele>
        <time>2021-09-30T12:21:49Z</time>
      </trkpt>
      <trkpt lat="47.22641" lon="6.03155">
        <ele>249.6</ele>
        <time>2021-09-30T12:21:50Z</time>
      </trkpt>
      <trkpt lat="47.22645" lon="6.03154">
        <ele>249.6</ele>
        <time>2021-09-30T12:21:51Z</time>
      </trkpt>
      <trkpt lat="47.22678" lon="6.03145">
        <ele>249.4</ele>
        <time>2021-09-30T12:21:59Z</time>
      </trkpt>
      <trkpt lat="47.22681" lon="6.03144">
        <ele>249.4</ele>
        <time>2021-09-30T12:22:00Z</time>
      </trkpt>
      <trkpt lat="47.22685" lon="6.03142">
        <ele>249.4</ele>
        <time>2021-09-30T12:22:01Z</time>
      </trkpt>
      <trkpt lat="47.22689" lon="6.0314">
        <ele>249.4</ele>
        <time>2021-09-30T12:22:02Z</time>
      </trkpt>
      <trkpt lat="47.22692" lon="6.03139">
        <ele>249.4</ele>
        <time>2021-09-30T12:22:03Z</time>
      </trkpt>
      <trkpt lat="47.22706" lon="6.03132">
        <ele>249.4</ele>
        <time>2021-09-30T12:22:06Z</time>
      </trkpt>
      <trkpt lat="47.22715" lon="6.03126">
        <ele>249.6</ele>
        <time>2021-09-30T12:22:08Z</time>
      </trkpt>
      <trkpt lat="47.22724" lon="6.03117">
        <ele>249.6</ele>
        <time>2021-09-30T12:22:10Z</time>
      </trkpt>
      <trkpt lat="47.22728" lon="6.03113">
        <ele>249.6</ele>
        <time>2021-09-30T12:22:11Z</time>
      </trkpt>
      <trkpt lat="47.22731" lon="6.03108">
        <ele>249.6</ele>
        <time>2021-09-30T12:22:12Z</time>
      </trkpt>
      <trkpt lat="47.22735" lon="6.03104">
        <ele>249.8</ele>
        <time>2021-09-30T12:22:13Z</time>
      </trkpt>
      <trkpt lat="47.22738" lon="6.03099">
        <ele>249.8</ele>
        <time>2021-09-30T12:22:14Z</time>
      </trkpt>
      <trkpt lat="47.22741" lon="6.03095">
        <ele>249.8</ele>
        <time>2021-09-30T12:22:15Z</time>
      </trkpt>
      <trkpt lat="47.22744" lon="6.03091">
        <ele>250</ele>
        <time>2021-09-30T12:22:16Z</time>
      </trkpt>
      <trkpt lat="47.22747" lon="6.03087">
        <ele>250</ele>
        <time>2021-09-30T12:22:17Z</time>
      </trkpt>
      <trkpt lat="47.22749" lon="6.03084">
        <ele>250</ele>
        <time>2021-09-30T12:22:18Z</time>
      </trkpt>
      <trkpt lat="47.22759" lon="6.03072">
        <ele>250.2</ele>
        <time>2021-09-30T12:22:21Z</time>
      </trkpt>
      <trkpt lat="47.22767" lon="6.03064">
        <ele>250.2</ele>
        <time>2021-09-30T12:22:23Z</time>
      </trkpt>
      <trkpt lat="47.2278" lon="6.03047">
        <ele>250.4</ele>
        <time>2021-09-30T12:22:26Z</time>
      </trkpt>
      <trkpt lat="47.22784" lon="6.03041">
        <ele>250</ele>
        <time>2021-09-30T12:22:27Z</time>
      </trkpt>
      <trkpt lat="47.22795" lon="6.03026">
        <ele>249.6</ele>
        <time>2021-09-30T12:22:30Z</time>
      </trkpt>
      <trkpt lat="47.22798" lon="6.03022">
        <ele>249.6</ele>
        <time>2021-09-30T12:22:31Z</time>
      </trkpt>
      <trkpt lat="47.22802" lon="6.03017">
        <ele>249.6</ele>
        <time>2021-09-30T12:22:32Z</time>
      </trkpt>
      <trkpt lat="47.22805" lon="6.03012">
        <ele>249.6</ele>
        <time>2021-09-30T12:22:33Z</time>
      </trkpt>
      <trkpt lat="47.22809" lon="6.03007">
        <ele>249.6</ele>
        <time>2021-09-30T12:22:34Z</time>
      </trkpt>
      <trkpt lat="47.22812" lon="6.03002">
        <ele>249.4</ele>
        <time>2021-09-30T12:22:35Z</time>
      </trkpt>
      <trkpt lat="47.22815" lon="6.02996">
        <ele>249.4</ele>
        <time>2021-09-30T12:22:36Z</time>
      </trkpt>
      <trkpt lat="47.2282" lon="6.02985">
        <ele>249.8</ele>
        <time>2021-09-30T12:22:38Z</time>
      </trkpt>
      <trkpt lat="47.22822" lon="6.02982">
        <ele>249.8</ele>
        <time>2021-09-30T12:22:39Z</time>
      </trkpt>
      <trkpt lat="47.22823" lon="6.02979">
        <ele>249.8</ele>
        <time>2021-09-30T12:22:40Z</time>
      </trkpt>
      <trkpt lat="47.22826" lon="6.02974">
        <ele>250</ele>
        <time>2021-09-30T12:22:41Z</time>
      </trkpt>
      <trkpt lat="47.22828" lon="6.02969">
        <ele>250</ele>
        <time>2021-09-30T12:22:42Z</time>
      </trkpt>
      <trkpt lat="47.22837" lon="6.02953">
        <ele>250.2</ele>
        <time>2021-09-30T12:22:45Z</time>
      </trkpt>
      <trkpt lat="47.22846" lon="6.02942">
        <ele>250.4</ele>
        <time>2021-09-30T12:22:47Z</time>
      </trkpt>
      <trkpt lat="47.22853" lon="6.0293">
        <ele>250.4</ele>
        <time>2021-09-30T12:22:49Z</time>
      </trkpt>
      <trkpt lat="47.22855" lon="6.02924">
        <ele>250.4</ele>
        <time>2021-09-30T12:22:50Z</time>
      </trkpt>
      <trkpt lat="47.22856" lon="6.02917">
        <ele>250.2</ele>
        <time>2021-09-30T12:22:51Z</time>
      </trkpt>
      <trkpt lat="47.22857" lon="6.0291">
        <ele>250.6</ele>
        <time>2021-09-30T12:22:52Z</time>
      </trkpt>
      <trkpt lat="47.22859" lon="6.02903">
        <ele>250.6</ele>
        <time>2021-09-30T12:22:53Z</time>
      </trkpt>
      <trkpt lat="47.2286" lon="6.02896">
        <ele>250.4</ele>
        <time>2021-09-30T12:22:54Z</time>
      </trkpt>
      <trkpt lat="47.22866" lon="6.02878">
        <ele>250.4</ele>
        <time>2021-09-30T12:22:57Z</time>
      </trkpt>
      <trkpt lat="47.22869" lon="6.02871">
        <ele>250.4</ele>
        <time>2021-09-30T12:22:58Z</time>
      </trkpt>
      <trkpt lat="47.22871" lon="6.02865">
        <ele>250.4</ele>
        <time>2021-09-30T12:22:59Z</time>
      </trkpt>
      <trkpt lat="47.22874" lon="6.02849">
        <ele>250.2</ele>
        <time>2021-09-30T12:23:02Z</time>
      </trkpt>
      <trkpt lat="47.22876" lon="6.02843">
        <ele>250.2</ele>
        <time>2021-09-30T12:23:03Z</time>
      </trkpt>
      <trkpt lat="47.22878" lon="6.02837">
        <ele>250.2</ele>
        <time>2021-09-30T12:23:04Z</time>
      </trkpt>
      <trkpt lat="47.2288" lon="6.02828">
        <ele>250.2</ele>
        <time>2021-09-30T12:23:05Z</time>
      </trkpt>
      <trkpt lat="47.22881" lon="6.02821">
        <ele>250.2</ele>
        <time>2021-09-30T12:23:06Z</time>
      </trkpt>
      <trkpt lat="47.22887" lon="6.02808">
        <ele>250.2</ele>
        <time>2021-09-30T12:23:08Z</time>
      </trkpt>
      <trkpt lat="47.2289" lon="6.028">
        <ele>250.2</ele>
        <time>2021-09-30T12:23:09Z</time>
      </trkpt>
      <trkpt lat="47.22892" lon="6.02793">
        <ele>250.2</ele>
        <time>2021-09-30T12:23:10Z</time>
      </trkpt>
      <trkpt lat="47.22894" lon="6.02779">
        <ele>250.4</ele>
        <time>2021-09-30T12:23:12Z</time>
      </trkpt>
      <trkpt lat="47.22896" lon="6.02773">
        <ele>250.4</ele>
        <time>2021-09-30T12:23:13Z</time>
      </trkpt>
      <trkpt lat="47.22898" lon="6.02767">
        <ele>250.4</ele>
        <time>2021-09-30T12:23:14Z</time>
      </trkpt>
      <trkpt lat="47.22905" lon="6.02754">
        <ele>250.6</ele>
        <time>2021-09-30T12:23:16Z</time>
      </trkpt>
      <trkpt lat="47.22905" lon="6.02749">
        <ele>250.8</ele>
        <time>2021-09-30T12:23:17Z</time>
      </trkpt>
      <trkpt lat="47.22906" lon="6.02743">
        <ele>251</ele>
        <time>2021-09-30T12:23:18Z</time>
      </trkpt>
      <trkpt lat="47.22907" lon="6.02738">
        <ele>251.2</ele>
        <time>2021-09-30T12:23:19Z</time>
      </trkpt>
      <trkpt lat="47.22909" lon="6.02734">
        <ele>251.4</ele>
        <time>2021-09-30T12:23:20Z</time>
      </trkpt>
      <trkpt lat="47.2291" lon="6.02731">
        <ele>251.8</ele>
        <time>2021-09-30T12:23:21Z</time>
      </trkpt>
      <trkpt lat="47.22911" lon="6.02727">
        <ele>252.2</ele>
        <time>2021-09-30T12:23:22Z</time>
      </trkpt>
      <trkpt lat="47.22911" lon="6.02722">
        <ele>252.2</ele>
        <time>2021-09-30T12:23:23Z</time>
      </trkpt>
      <trkpt lat="47.22913" lon="6.02715">
        <ele>252.6</ele>
        <time>2021-09-30T12:23:24Z</time>
      </trkpt>
      <trkpt lat="47.22916" lon="6.02706">
        <ele>252.8</ele>
        <time>2021-09-30T12:23:26Z</time>
      </trkpt>
      <trkpt lat="47.2292" lon="6.02696">
        <ele>252.8</ele>
        <time>2021-09-30T12:23:28Z</time>
      </trkpt>
      <trkpt lat="47.22923" lon="6.02689">
        <ele>253</ele>
        <time>2021-09-30T12:23:29Z</time>
      </trkpt>
      <trkpt lat="47.22927" lon="6.02682">
        <ele>253</ele>
        <time>2021-09-30T12:23:30Z</time>
      </trkpt>
      <trkpt lat="47.22929" lon="6.02676">
        <ele>253.2</ele>
        <time>2021-09-30T12:23:31Z</time>
      </trkpt>
      <trkpt lat="47.22932" lon="6.0267">
        <ele>253</ele>
        <time>2021-09-30T12:23:32Z</time>
      </trkpt>
      <trkpt lat="47.22933" lon="6.02665">
        <ele>252.8</ele>
        <time>2021-09-30T12:23:33Z</time>
      </trkpt>
      <trkpt lat="47.22933" lon="6.0266">
        <ele>252.8</ele>
        <time>2021-09-30T12:23:34Z</time>
      </trkpt>
      <trkpt lat="47.22933" lon="6.02655">
        <ele>252.8</ele>
        <time>2021-09-30T12:23:35Z</time>
      </trkpt>
      <trkpt lat="47.22937" lon="6.02649">
        <ele>252.8</ele>
        <time>2021-09-30T12:23:36Z</time>
      </trkpt>
      <trkpt lat="47.2294" lon="6.02643">
        <ele>252.8</ele>
        <time>2021-09-30T12:23:37Z</time>
      </trkpt>
      <trkpt lat="47.22941" lon="6.02638">
        <ele>252.8</ele>
        <time>2021-09-30T12:23:38Z</time>
      </trkpt>
      <trkpt lat="47.22942" lon="6.02632">
        <ele>252.8</ele>
        <time>2021-09-30T12:23:39Z</time>
      </trkpt>
      <trkpt lat="47.22947" lon="6.02612">
        <ele>252.6</ele>
        <time>2021-09-30T12:23:42Z</time>
      </trkpt>
      <trkpt lat="47.22948" lon="6.026">
        <ele>252.6</ele>
        <time>2021-09-30T12:23:44Z</time>
      </trkpt>
      <trkpt lat="47.22948" lon="6.02595">
        <ele>252.6</ele>
        <time>2021-09-30T12:23:45Z</time>
      </trkpt>
      <trkpt lat="47.22949" lon="6.02589">
        <ele>252.4</ele>
        <time>2021-09-30T12:23:46Z</time>
      </trkpt>
      <trkpt lat="47.2295" lon="6.02584">
        <ele>252.4</ele>
        <time>2021-09-30T12:23:47Z</time>
      </trkpt>
      <trkpt lat="47.22951" lon="6.02579">
        <ele>252.6</ele>
        <time>2021-09-30T12:23:48Z</time>
      </trkpt>
      <trkpt lat="47.22953" lon="6.02574">
        <ele>252.6</ele>
        <time>2021-09-30T12:23:49Z</time>
      </trkpt>
      <trkpt lat="47.22957" lon="6.0256">
        <ele>252.6</ele>
        <time>2021-09-30T12:23:51Z</time>
      </trkpt>
      <trkpt lat="47.22962" lon="6.02535">
        <ele>252.6</ele>
        <time>2021-09-30T12:23:55Z</time>
      </trkpt>
      <trkpt lat="47.22963" lon="6.02529">
        <ele>252.6</ele>
        <time>2021-09-30T12:23:56Z</time>
      </trkpt>
      <trkpt lat="47.22968" lon="6.02504">
        <ele>252.8</ele>
        <time>2021-09-30T12:24:00Z</time>
      </trkpt>
      <trkpt lat="47.22971" lon="6.02477">
        <ele>253</ele>
        <time>2021-09-30T12:24:04Z</time>
      </trkpt>
      <trkpt lat="47.2297" lon="6.0246">
        <ele>253.2</ele>
        <time>2021-09-30T12:24:07Z</time>
      </trkpt>
      <trkpt lat="47.2297" lon="6.02448">
        <ele>253.2</ele>
        <time>2021-09-30T12:24:09Z</time>
      </trkpt>
      <trkpt lat="47.22971" lon="6.02441">
        <ele>253.4</ele>
        <time>2021-09-30T12:24:10Z</time>
      </trkpt>
      <trkpt lat="47.22972" lon="6.02437">
        <ele>253.8</ele>
        <time>2021-09-30T12:24:11Z</time>
      </trkpt>
      <trkpt lat="47.22974" lon="6.02431">
        <ele>253.8</ele>
        <time>2021-09-30T12:24:12Z</time>
      </trkpt>
      <trkpt lat="47.22975" lon="6.02426">
        <ele>254</ele>
        <time>2021-09-30T12:24:13Z</time>
      </trkpt>
      <trkpt lat="47.22978" lon="6.02415">
        <ele>254.2</ele>
        <time>2021-09-30T12:24:15Z</time>
      </trkpt>
      <trkpt lat="47.22983" lon="6.02396">
        <ele>254.4</ele>
        <time>2021-09-30T12:24:18Z</time>
      </trkpt>
      <trkpt lat="47.22986" lon="6.0239">
        <ele>254.4</ele>
        <time>2021-09-30T12:24:19Z</time>
      </trkpt>
      <trkpt lat="47.2299" lon="6.02376">
        <ele>254.4</ele>
        <time>2021-09-30T12:24:21Z</time>
      </trkpt>
      <trkpt lat="47.2299" lon="6.02366">
        <ele>254.4</ele>
        <time>2021-09-30T12:24:23Z</time>
      </trkpt>
      <trkpt lat="47.2299" lon="6.0236">
        <ele>254.4</ele>
        <time>2021-09-30T12:24:24Z</time>
      </trkpt>
      <trkpt lat="47.22992" lon="6.02346">
        <ele>254.2</ele>
        <time>2021-09-30T12:24:26Z</time>
      </trkpt>
      <trkpt lat="47.22993" lon="6.02332">
        <ele>254</ele>
        <time>2021-09-30T12:24:28Z</time>
      </trkpt>
      <trkpt lat="47.22993" lon="6.02304">
        <ele>254</ele>
        <time>2021-09-30T12:24:32Z</time>
      </trkpt>
      <trkpt lat="47.22994" lon="6.02297">
        <ele>254</ele>
        <time>2021-09-30T12:24:33Z</time>
      </trkpt>
      <trkpt lat="47.22995" lon="6.02289">
        <ele>254</ele>
        <time>2021-09-30T12:24:34Z</time>
      </trkpt>
      <trkpt lat="47.23" lon="6.02262">
        <ele>254.2</ele>
        <time>2021-09-30T12:24:38Z</time>
      </trkpt>
      <trkpt lat="47.23" lon="6.02256">
        <ele>254.4</ele>
        <time>2021-09-30T12:24:39Z</time>
      </trkpt>
      <trkpt lat="47.23002" lon="6.02249">
        <ele>254.4</ele>
        <time>2021-09-30T12:24:40Z</time>
      </trkpt>
      <trkpt lat="47.23004" lon="6.02241">
        <ele>254.4</ele>
        <time>2021-09-30T12:24:41Z</time>
      </trkpt>
      <trkpt lat="47.23004" lon="6.02232">
        <ele>254.4</ele>
        <time>2021-09-30T12:24:42Z</time>
      </trkpt>
      <trkpt lat="47.23004" lon="6.02223">
        <ele>254.6</ele>
        <time>2021-09-30T12:24:43Z</time>
      </trkpt>
      <trkpt lat="47.23006" lon="6.02215">
        <ele>254.6</ele>
        <time>2021-09-30T12:24:44Z</time>
      </trkpt>
      <trkpt lat="47.23011" lon="6.02201">
        <ele>254.6</ele>
        <time>2021-09-30T12:24:46Z</time>
      </trkpt>
      <trkpt lat="47.2301" lon="6.02193">
        <ele>254.6</ele>
        <time>2021-09-30T12:24:47Z</time>
      </trkpt>
      <trkpt lat="47.2301" lon="6.02185">
        <ele>254.6</ele>
        <time>2021-09-30T12:24:48Z</time>
      </trkpt>
      <trkpt lat="47.2301" lon="6.02171">
        <ele>254.6</ele>
        <time>2021-09-30T12:24:50Z</time>
      </trkpt>
      <trkpt lat="47.23009" lon="6.02164">
        <ele>254.6</ele>
        <time>2021-09-30T12:24:51Z</time>
      </trkpt>
      <trkpt lat="47.23008" lon="6.02155">
        <ele>254.8</ele>
        <time>2021-09-30T12:24:52Z</time>
      </trkpt>
      <trkpt lat="47.23007" lon="6.02138">
        <ele>254.8</ele>
        <time>2021-09-30T12:24:54Z</time>
      </trkpt>
      <trkpt lat="47.23007" lon="6.02131">
        <ele>254.6</ele>
        <time>2021-09-30T12:24:55Z</time>
      </trkpt>
      <trkpt lat="47.23007" lon="6.02122">
        <ele>254.6</ele>
        <time>2021-09-30T12:24:56Z</time>
      </trkpt>
      <trkpt lat="47.23007" lon="6.02114">
        <ele>254.6</ele>
        <time>2021-09-30T12:24:57Z</time>
      </trkpt>
      <trkpt lat="47.23006" lon="6.02106">
        <ele>254.6</ele>
        <time>2021-09-30T12:24:58Z</time>
      </trkpt>
      <trkpt lat="47.23007" lon="6.02098">
        <ele>254.6</ele>
        <time>2021-09-30T12:24:59Z</time>
      </trkpt>
      <trkpt lat="47.23007" lon="6.02081">
        <ele>254.6</ele>
        <time>2021-09-30T12:25:01Z</time>
      </trkpt>
      <trkpt lat="47.23008" lon="6.02065">
        <ele>254.6</ele>
        <time>2021-09-30T12:25:03Z</time>
      </trkpt>
      <trkpt lat="47.23009" lon="6.02049">
        <ele>254.6</ele>
        <time>2021-09-30T12:25:05Z</time>
      </trkpt>
      <trkpt lat="47.23009" lon="6.02042">
        <ele>254.6</ele>
        <time>2021-09-30T12:25:06Z</time>
      </trkpt>
      <trkpt lat="47.23007" lon="6.02034">
        <ele>254.6</ele>
        <time>2021-09-30T12:25:07Z</time>
      </trkpt>
      <trkpt lat="47.23005" lon="6.02026">
        <ele>254.6</ele>
        <time>2021-09-30T12:25:08Z</time>
      </trkpt>
      <trkpt lat="47.23005" lon="6.0202">
        <ele>254.6</ele>
        <time>2021-09-30T12:25:09Z</time>
      </trkpt>
      <trkpt lat="47.23002" lon="6.02013">
        <ele>254.6</ele>
        <time>2021-09-30T12:25:10Z</time>
      </trkpt>
      <trkpt lat="47.23" lon="6.02006">
        <ele>254.8</ele>
        <time>2021-09-30T12:25:11Z</time>
      </trkpt>
      <trkpt lat="47.22999" lon="6.01999">
        <ele>254.8</ele>
        <time>2021-09-30T12:25:12Z</time>
      </trkpt>
      <trkpt lat="47.22998" lon="6.01992">
        <ele>255</ele>
        <time>2021-09-30T12:25:13Z</time>
      </trkpt>
      <trkpt lat="47.22998" lon="6.01985">
        <ele>255</ele>
        <time>2021-09-30T12:25:14Z</time>
      </trkpt>
      <trkpt lat="47.22997" lon="6.01978">
        <ele>255.2</ele>
        <time>2021-09-30T12:25:15Z</time>
      </trkpt>
      <trkpt lat="47.22996" lon="6.01972">
        <ele>255.2</ele>
        <time>2021-09-30T12:25:16Z</time>
      </trkpt>
      <trkpt lat="47.22994" lon="6.01965">
        <ele>255.4</ele>
        <time>2021-09-30T12:25:17Z</time>
      </trkpt>
      <trkpt lat="47.22992" lon="6.01957">
        <ele>255.4</ele>
        <time>2021-09-30T12:25:18Z</time>
      </trkpt>
      <trkpt lat="47.22991" lon="6.0195">
        <ele>255.4</ele>
        <time>2021-09-30T12:25:19Z</time>
      </trkpt>
      <trkpt lat="47.22987" lon="6.0192">
        <ele>255.6</ele>
        <time>2021-09-30T12:25:23Z</time>
      </trkpt>
      <trkpt lat="47.22987" lon="6.0189">
        <ele>255.6</ele>
        <time>2021-09-30T12:25:27Z</time>
      </trkpt>
      <trkpt lat="47.22988" lon="6.01868">
        <ele>255.6</ele>
        <time>2021-09-30T12:25:30Z</time>
      </trkpt>
      <trkpt lat="47.22985" lon="6.01848">
        <ele>255.6</ele>
        <time>2021-09-30T12:25:33Z</time>
      </trkpt>
      <trkpt lat="47.22985" lon="6.01842">
        <ele>255.6</ele>
        <time>2021-09-30T12:25:34Z</time>
      </trkpt>
      <trkpt lat="47.22985" lon="6.01835">
        <ele>255.6</ele>
        <time>2021-09-30T12:25:35Z</time>
      </trkpt>
      <trkpt lat="47.22986" lon="6.01828">
        <ele>255.8</ele>
        <time>2021-09-30T12:25:36Z</time>
      </trkpt>
      <trkpt lat="47.22986" lon="6.01822">
        <ele>255.8</ele>
        <time>2021-09-30T12:25:37Z</time>
      </trkpt>
      <trkpt lat="47.22988" lon="6.01815">
        <ele>255.8</ele>
        <time>2021-09-30T12:25:38Z</time>
      </trkpt>
      <trkpt lat="47.2299" lon="6.01808">
        <ele>255.8</ele>
        <time>2021-09-30T12:25:39Z</time>
      </trkpt>
      <trkpt lat="47.22993" lon="6.01801">
        <ele>256</ele>
        <time>2021-09-30T12:25:40Z</time>
      </trkpt>
      <trkpt lat="47.22995" lon="6.01795">
        <ele>256</ele>
        <time>2021-09-30T12:25:41Z</time>
      </trkpt>
      <trkpt lat="47.22998" lon="6.0179">
        <ele>256</ele>
        <time>2021-09-30T12:25:42Z</time>
      </trkpt>
      <trkpt lat="47.23001" lon="6.01785">
        <ele>256</ele>
        <time>2021-09-30T12:25:43Z</time>
      </trkpt>
      <trkpt lat="47.23003" lon="6.01779">
        <ele>256.2</ele>
        <time>2021-09-30T12:25:44Z</time>
      </trkpt>
      <trkpt lat="47.23005" lon="6.01773">
        <ele>256.2</ele>
        <time>2021-09-30T12:25:45Z</time>
      </trkpt>
      <trkpt lat="47.23006" lon="6.01768">
        <ele>256.2</ele>
        <time>2021-09-30T12:25:46Z</time>
      </trkpt>
      <trkpt lat="47.23009" lon="6.01762">
        <ele>256.2</ele>
        <time>2021-09-30T12:25:47Z</time>
      </trkpt>
      <trkpt lat="47.23012" lon="6.01755">
        <ele>256.2</ele>
        <time>2021-09-30T12:25:48Z</time>
      </trkpt>
      <trkpt lat="47.23015" lon="6.01748">
        <ele>256.2</ele>
        <time>2021-09-30T12:25:49Z</time>
      </trkpt>
      <trkpt lat="47.23027" lon="6.0173">
        <ele>255.8</ele>
        <time>2021-09-30T12:25:52Z</time>
      </trkpt>
      <trkpt lat="47.23035" lon="6.0172">
        <ele>255.2</ele>
        <time>2021-09-30T12:25:54Z</time>
      </trkpt>
      <trkpt lat="47.23039" lon="6.01716">
        <ele>255.2</ele>
        <time>2021-09-30T12:25:55Z</time>
      </trkpt>
      <trkpt lat="47.23042" lon="6.01713">
        <ele>254.8</ele>
        <time>2021-09-30T12:25:56Z</time>
      </trkpt>
      <trkpt lat="47.23046" lon="6.0171">
        <ele>254.6</ele>
        <time>2021-09-30T12:25:57Z</time>
      </trkpt>
      <trkpt lat="47.23049" lon="6.01707">
        <ele>254.4</ele>
        <time>2021-09-30T12:25:58Z</time>
      </trkpt>
      <trkpt lat="47.23052" lon="6.01704">
        <ele>254</ele>
        <time>2021-09-30T12:25:59Z</time>
      </trkpt>
      <trkpt lat="47.23053" lon="6.01703">
        <ele>254</ele>
        <time>2021-09-30T12:26:00Z</time>
      </trkpt>
      <trkpt lat="47.23055" lon="6.01703">
        <ele>254</ele>
        <time>2021-09-30T12:26:01Z</time>
      </trkpt>
      <trkpt lat="47.23055" lon="6.01703">
        <ele>253.8</ele>
        <time>2021-09-30T12:26:02Z</time>
      </trkpt>
      <trkpt lat="47.23055" lon="6.01703">
        <ele>253.8</ele>
        <time>2021-09-30T12:26:03Z</time>
      </trkpt>
      <trkpt lat="47.23055" lon="6.01703">
        <ele>253.6</ele>
        <time>2021-09-30T12:26:05Z</time>
      </trkpt>
      <trkpt lat="47.23055" lon="6.01703">
        <ele>253.6</ele>
        <time>2021-09-30T12:26:09Z</time>
      </trkpt>
      <trkpt lat="47.23055" lon="6.01703">
        <ele>253.2</ele>
        <time>2021-09-30T12:26:31Z</time>
      </trkpt>
      <trkpt lat="47.23057" lon="6.01699">
        <ele>253</ele>
        <time>2021-09-30T12:26:33Z</time>
      </trkpt>
      <trkpt lat="47.23059" lon="6.01698">
        <ele>253</ele>
        <time>2021-09-30T12:26:34Z</time>
      </trkpt>
      <trkpt lat="47.23068" lon="6.01686">
        <ele>253</ele>
        <time>2021-09-30T12:26:40Z</time>
      </trkpt>
      <trkpt lat="47.2307" lon="6.01684">
        <ele>253</ele>
        <time>2021-09-30T12:26:41Z</time>
      </trkpt>
      <trkpt lat="47.23081" lon="6.01674">
        <ele>253.2</ele>
        <time>2021-09-30T12:26:46Z</time>
      </trkpt>
      <trkpt lat="47.23099" lon="6.01659">
        <ele>253.2</ele>
        <time>2021-09-30T12:26:51Z</time>
      </trkpt>
      <trkpt lat="47.2311" lon="6.01652">
        <ele>253.4</ele>
        <time>2021-09-30T12:26:54Z</time>
      </trkpt>
      <trkpt lat="47.23121" lon="6.01644">
        <ele>253.4</ele>
        <time>2021-09-30T12:26:57Z</time>
      </trkpt>
      <trkpt lat="47.23149" lon="6.01628">
        <ele>253.2</ele>
        <time>2021-09-30T12:27:04Z</time>
      </trkpt>
      <trkpt lat="47.23164" lon="6.01623">
        <ele>253.2</ele>
        <time>2021-09-30T12:27:07Z</time>
      </trkpt>
      <trkpt lat="47.23182" lon="6.01616">
        <ele>253.4</ele>
        <time>2021-09-30T12:27:11Z</time>
      </trkpt>
      <trkpt lat="47.23224" lon="6.01607">
        <ele>253.8</ele>
        <time>2021-09-30T12:27:20Z</time>
      </trkpt>
      <trkpt lat="47.23258" lon="6.01597">
        <ele>253.8</ele>
        <time>2021-09-30T12:27:27Z</time>
      </trkpt>
      <trkpt lat="47.23263" lon="6.01595">
        <ele>253.8</ele>
        <time>2021-09-30T12:27:28Z</time>
      </trkpt>
      <trkpt lat="47.23272" lon="6.01593">
        <ele>253.6</ele>
        <time>2021-09-30T12:27:30Z</time>
      </trkpt>
      <trkpt lat="47.23276" lon="6.01592">
        <ele>253.6</ele>
        <time>2021-09-30T12:27:31Z</time>
      </trkpt>
      <trkpt lat="47.23284" lon="6.0159">
        <ele>253.4</ele>
        <time>2021-09-30T12:27:33Z</time>
      </trkpt>
      <trkpt lat="47.23288" lon="6.01588">
        <ele>253.4</ele>
        <time>2021-09-30T12:27:34Z</time>
      </trkpt>
      <trkpt lat="47.23293" lon="6.01587">
        <ele>253.4</ele>
        <time>2021-09-30T12:27:35Z</time>
      </trkpt>
      <trkpt lat="47.23297" lon="6.01585">
        <ele>253.4</ele>
        <time>2021-09-30T12:27:36Z</time>
      </trkpt>
      <trkpt lat="47.23302" lon="6.01584">
        <ele>253.4</ele>
        <time>2021-09-30T12:27:37Z</time>
      </trkpt>
      <trkpt lat="47.23306" lon="6.01583">
        <ele>253.4</ele>
        <time>2021-09-30T12:27:38Z</time>
      </trkpt>
      <trkpt lat="47.23337" lon="6.01574">
        <ele>253.4</ele>
        <time>2021-09-30T12:27:45Z</time>
      </trkpt>
      <trkpt lat="47.23369" lon="6.01569">
        <ele>253.6</ele>
        <time>2021-09-30T12:27:52Z</time>
      </trkpt>
      <trkpt lat="47.23372" lon="6.01569">
        <ele>253.6</ele>
        <time>2021-09-30T12:27:53Z</time>
      </trkpt>
      <trkpt lat="47.23378" lon="6.01569">
        <ele>253.6</ele>
        <time>2021-09-30T12:27:54Z</time>
      </trkpt>
      <trkpt lat="47.23382" lon="6.01569">
        <ele>253.6</ele>
        <time>2021-09-30T12:27:55Z</time>
      </trkpt>
      <trkpt lat="47.23387" lon="6.01568">
        <ele>253.6</ele>
        <time>2021-09-30T12:27:56Z</time>
      </trkpt>
      <trkpt lat="47.23391" lon="6.01567">
        <ele>253.6</ele>
        <time>2021-09-30T12:27:57Z</time>
      </trkpt>
      <trkpt lat="47.23401" lon="6.01566">
        <ele>253.6</ele>
        <time>2021-09-30T12:27:59Z</time>
      </trkpt>
      <trkpt lat="47.2344" lon="6.01561">
        <ele>254</ele>
        <time>2021-09-30T12:28:08Z</time>
      </trkpt>
      <trkpt lat="47.23444" lon="6.0156">
        <ele>254</ele>
        <time>2021-09-30T12:28:09Z</time>
      </trkpt>
      <trkpt lat="47.23449" lon="6.0156">
        <ele>254.2</ele>
        <time>2021-09-30T12:28:10Z</time>
      </trkpt>
      <trkpt lat="47.23453" lon="6.01559">
        <ele>254.2</ele>
        <time>2021-09-30T12:28:11Z</time>
      </trkpt>
      <trkpt lat="47.23457" lon="6.01559">
        <ele>254.4</ele>
        <time>2021-09-30T12:28:12Z</time>
      </trkpt>
      <trkpt lat="47.23461" lon="6.01558">
        <ele>254.4</ele>
        <time>2021-09-30T12:28:13Z</time>
      </trkpt>
      <trkpt lat="47.23465" lon="6.01557">
        <ele>254.4</ele>
        <time>2021-09-30T12:28:14Z</time>
      </trkpt>
      <trkpt lat="47.23474" lon="6.01554">
        <ele>254.6</ele>
        <time>2021-09-30T12:28:16Z</time>
      </trkpt>
      <trkpt lat="47.23478" lon="6.01554">
        <ele>254.6</ele>
        <time>2021-09-30T12:28:17Z</time>
      </trkpt>
      <trkpt lat="47.23489" lon="6.01553">
        <ele>254.8</ele>
        <time>2021-09-30T12:28:20Z</time>
      </trkpt>
      <trkpt lat="47.23493" lon="6.01554">
        <ele>255</ele>
        <time>2021-09-30T12:28:21Z</time>
      </trkpt>
      <trkpt lat="47.23496" lon="6.01556">
        <ele>255</ele>
        <time>2021-09-30T12:28:23Z</time>
      </trkpt>
      <trkpt lat="47.235" lon="6.01561">
        <ele>255</ele>
        <time>2021-09-30T12:28:24Z</time>
      </trkpt>
      <trkpt lat="47.23502" lon="6.01563">
        <ele>255.2</ele>
        <time>2021-09-30T12:28:25Z</time>
      </trkpt>
      <trkpt lat="47.23504" lon="6.01565">
        <ele>255.2</ele>
        <time>2021-09-30T12:28:26Z</time>
      </trkpt>
      <trkpt lat="47.23507" lon="6.01566">
        <ele>255.2</ele>
        <time>2021-09-30T12:28:27Z</time>
      </trkpt>
      <trkpt lat="47.23511" lon="6.01568">
        <ele>255.2</ele>
        <time>2021-09-30T12:28:28Z</time>
      </trkpt>
      <trkpt lat="47.23514" lon="6.01569">
        <ele>255.2</ele>
        <time>2021-09-30T12:28:29Z</time>
      </trkpt>
      <trkpt lat="47.23521" lon="6.01571">
        <ele>255</ele>
        <time>2021-09-30T12:28:30Z</time>
      </trkpt>
      <trkpt lat="47.23538" lon="6.01581">
        <ele>254.8</ele>
        <time>2021-09-30T12:28:33Z</time>
      </trkpt>
      <trkpt lat="47.23547" lon="6.01585">
        <ele>254.2</ele>
        <time>2021-09-30T12:28:35Z</time>
      </trkpt>
      <trkpt lat="47.23552" lon="6.01588">
        <ele>253.4</ele>
        <time>2021-09-30T12:28:36Z</time>
      </trkpt>
      <trkpt lat="47.23557" lon="6.0159">
        <ele>252.8</ele>
        <time>2021-09-30T12:28:37Z</time>
      </trkpt>
      <trkpt lat="47.23562" lon="6.01592">
        <ele>252.4</ele>
        <time>2021-09-30T12:28:38Z</time>
      </trkpt>
      <trkpt lat="47.23566" lon="6.01594">
        <ele>251.8</ele>
        <time>2021-09-30T12:28:39Z</time>
      </trkpt>
      <trkpt lat="47.2357" lon="6.01597">
        <ele>251.6</ele>
        <time>2021-09-30T12:28:40Z</time>
      </trkpt>
      <trkpt lat="47.23574" lon="6.01599">
        <ele>251.4</ele>
        <time>2021-09-30T12:28:41Z</time>
      </trkpt>
      <trkpt lat="47.23577" lon="6.01601">
        <ele>251.4</ele>
        <time>2021-09-30T12:28:42Z</time>
      </trkpt>
      <trkpt lat="47.2358" lon="6.01603">
        <ele>251.4</ele>
        <time>2021-09-30T12:28:43Z</time>
      </trkpt>
      <trkpt lat="47.23583" lon="6.01605">
        <ele>251.2</ele>
        <time>2021-09-30T12:28:44Z</time>
      </trkpt>
      <trkpt lat="47.23586" lon="6.01607">
        <ele>251.4</ele>
        <time>2021-09-30T12:28:45Z</time>
      </trkpt>
      <trkpt lat="47.23589" lon="6.01609">
        <ele>251.4</ele>
        <time>2021-09-30T12:28:46Z</time>
      </trkpt>
      <trkpt lat="47.236" lon="6.01615">
        <ele>251.4</ele>
        <time>2021-09-30T12:28:49Z</time>
      </trkpt>
      <trkpt lat="47.23625" lon="6.01628">
        <ele>251.6</ele>
        <time>2021-09-30T12:28:55Z</time>
      </trkpt>
      <trkpt lat="47.23633" lon="6.01632">
        <ele>251.6</ele>
        <time>2021-09-30T12:28:57Z</time>
      </trkpt>
      <trkpt lat="47.23652" lon="6.01641">
        <ele>251.8</ele>
        <time>2021-09-30T12:29:02Z</time>
      </trkpt>
      <trkpt lat="47.23655" lon="6.01642">
        <ele>252</ele>
        <time>2021-09-30T12:29:03Z</time>
      </trkpt>
      <trkpt lat="47.23658" lon="6.01644">
        <ele>252.2</ele>
        <time>2021-09-30T12:29:04Z</time>
      </trkpt>
      <trkpt lat="47.23661" lon="6.01646">
        <ele>252.2</ele>
        <time>2021-09-30T12:29:05Z</time>
      </trkpt>
      <trkpt lat="47.23663" lon="6.01647">
        <ele>252.4</ele>
        <time>2021-09-30T12:29:06Z</time>
      </trkpt>
      <trkpt lat="47.23671" lon="6.0165">
        <ele>253</ele>
        <time>2021-09-30T12:29:09Z</time>
      </trkpt>
      <trkpt lat="47.23674" lon="6.0165">
        <ele>253.4</ele>
        <time>2021-09-30T12:29:10Z</time>
      </trkpt>
      <trkpt lat="47.23676" lon="6.01651">
        <ele>253.6</ele>
        <time>2021-09-30T12:29:11Z</time>
      </trkpt>
      <trkpt lat="47.23678" lon="6.01652">
        <ele>253.8</ele>
        <time>2021-09-30T12:29:12Z</time>
      </trkpt>
      <trkpt lat="47.2368" lon="6.01653">
        <ele>254</ele>
        <time>2021-09-30T12:29:13Z</time>
      </trkpt>
      <trkpt lat="47.23683" lon="6.01654">
        <ele>254.2</ele>
        <time>2021-09-30T12:29:14Z</time>
      </trkpt>
      <trkpt lat="47.23685" lon="6.01654">
        <ele>254.4</ele>
        <time>2021-09-30T12:29:15Z</time>
      </trkpt>
      <trkpt lat="47.23688" lon="6.01654">
        <ele>254.6</ele>
        <time>2021-09-30T12:29:16Z</time>
      </trkpt>
      <trkpt lat="47.2369" lon="6.01656">
        <ele>254.6</ele>
        <time>2021-09-30T12:29:17Z</time>
      </trkpt>
      <trkpt lat="47.23693" lon="6.01657">
        <ele>254.8</ele>
        <time>2021-09-30T12:29:18Z</time>
      </trkpt>
      <trkpt lat="47.23697" lon="6.01658">
        <ele>254.8</ele>
        <time>2021-09-30T12:29:19Z</time>
      </trkpt>
      <trkpt lat="47.237" lon="6.0166">
        <ele>254.8</ele>
        <time>2021-09-30T12:29:20Z</time>
      </trkpt>
      <trkpt lat="47.23704" lon="6.01663">
        <ele>254.8</ele>
        <time>2021-09-30T12:29:21Z</time>
      </trkpt>
      <trkpt lat="47.23707" lon="6.01665">
        <ele>254.8</ele>
        <time>2021-09-30T12:29:22Z</time>
      </trkpt>
      <trkpt lat="47.23711" lon="6.01668">
        <ele>254.8</ele>
        <time>2021-09-30T12:29:23Z</time>
      </trkpt>
      <trkpt lat="47.23715" lon="6.01671">
        <ele>254.8</ele>
        <time>2021-09-30T12:29:24Z</time>
      </trkpt>
      <trkpt lat="47.23718" lon="6.01674">
        <ele>254.8</ele>
        <time>2021-09-30T12:29:25Z</time>
      </trkpt>
      <trkpt lat="47.23722" lon="6.01678">
        <ele>254.6</ele>
        <time>2021-09-30T12:29:26Z</time>
      </trkpt>
      <trkpt lat="47.23726" lon="6.01681">
        <ele>254.6</ele>
        <time>2021-09-30T12:29:27Z</time>
      </trkpt>
      <trkpt lat="47.2373" lon="6.01684">
        <ele>254.6</ele>
        <time>2021-09-30T12:29:28Z</time>
      </trkpt>
      <trkpt lat="47.23733" lon="6.01688">
        <ele>254.6</ele>
        <time>2021-09-30T12:29:29Z</time>
      </trkpt>
      <trkpt lat="47.23742" lon="6.01695">
        <ele>254.4</ele>
        <time>2021-09-30T12:29:31Z</time>
      </trkpt>
      <trkpt lat="47.23776" lon="6.01729">
        <ele>254.4</ele>
        <time>2021-09-30T12:29:40Z</time>
      </trkpt>
      <trkpt lat="47.2378" lon="6.01732">
        <ele>254.6</ele>
        <time>2021-09-30T12:29:41Z</time>
      </trkpt>
      <trkpt lat="47.23783" lon="6.01736">
        <ele>254.6</ele>
        <time>2021-09-30T12:29:42Z</time>
      </trkpt>
      <trkpt lat="47.23786" lon="6.0174">
        <ele>254.6</ele>
        <time>2021-09-30T12:29:43Z</time>
      </trkpt>
      <trkpt lat="47.23796" lon="6.01753">
        <ele>254.8</ele>
        <time>2021-09-30T12:29:46Z</time>
      </trkpt>
      <trkpt lat="47.23799" lon="6.01757">
        <ele>254.8</ele>
        <time>2021-09-30T12:29:47Z</time>
      </trkpt>
      <trkpt lat="47.23799" lon="6.01757">
        <ele>254.8</ele>
        <time>2021-09-30T12:29:48Z</time>
      </trkpt>
      <trkpt lat="47.23824" lon="6.01789">
        <ele>254.8</ele>
        <time>2021-09-30T12:29:54Z</time>
      </trkpt>
      <trkpt lat="47.23832" lon="6.01797">
        <ele>254.8</ele>
        <time>2021-09-30T12:29:56Z</time>
      </trkpt>
      <trkpt lat="47.23864" lon="6.0184">
        <ele>255.2</ele>
        <time>2021-09-30T12:30:05Z</time>
      </trkpt>
      <trkpt lat="47.23871" lon="6.01849">
        <ele>255.2</ele>
        <time>2021-09-30T12:30:07Z</time>
      </trkpt>
      <trkpt lat="47.2388" lon="6.01862">
        <ele>255.2</ele>
        <time>2021-09-30T12:30:10Z</time>
      </trkpt>
      <trkpt lat="47.23883" lon="6.01867">
        <ele>255.2</ele>
        <time>2021-09-30T12:30:11Z</time>
      </trkpt>
      <trkpt lat="47.23886" lon="6.01871">
        <ele>255.2</ele>
        <time>2021-09-30T12:30:12Z</time>
      </trkpt>
      <trkpt lat="47.23889" lon="6.01874">
        <ele>255.2</ele>
        <time>2021-09-30T12:30:13Z</time>
      </trkpt>
      <trkpt lat="47.23892" lon="6.01879">
        <ele>255.2</ele>
        <time>2021-09-30T12:30:14Z</time>
      </trkpt>
      <trkpt lat="47.23918" lon="6.01913">
        <ele>255.4</ele>
        <time>2021-09-30T12:30:22Z</time>
      </trkpt>
      <trkpt lat="47.23925" lon="6.01922">
        <ele>255.6</ele>
        <time>2021-09-30T12:30:24Z</time>
      </trkpt>
      <trkpt lat="47.23931" lon="6.0193">
        <ele>255.6</ele>
        <time>2021-09-30T12:30:26Z</time>
      </trkpt>
      <trkpt lat="47.23946" lon="6.01952">
        <ele>255.6</ele>
        <time>2021-09-30T12:30:31Z</time>
      </trkpt>
      <trkpt lat="47.23949" lon="6.01955">
        <ele>255.6</ele>
        <time>2021-09-30T12:30:32Z</time>
      </trkpt>
      <trkpt lat="47.23952" lon="6.01959">
        <ele>255.6</ele>
        <time>2021-09-30T12:30:33Z</time>
      </trkpt>
      <trkpt lat="47.23955" lon="6.01963">
        <ele>255.6</ele>
        <time>2021-09-30T12:30:34Z</time>
      </trkpt>
      <trkpt lat="47.23958" lon="6.01967">
        <ele>255.6</ele>
        <time>2021-09-30T12:30:36Z</time>
      </trkpt>
      <trkpt lat="47.23964" lon="6.01975">
        <ele>255.6</ele>
        <time>2021-09-30T12:30:37Z</time>
      </trkpt>
      <trkpt lat="47.23968" lon="6.01979">
        <ele>255.6</ele>
        <time>2021-09-30T12:30:38Z</time>
      </trkpt>
      <trkpt lat="47.23971" lon="6.01983">
        <ele>255.6</ele>
        <time>2021-09-30T12:30:39Z</time>
      </trkpt>
      <trkpt lat="47.23974" lon="6.01985">
        <ele>255.6</ele>
        <time>2021-09-30T12:30:40Z</time>
      </trkpt>
      <trkpt lat="47.23977" lon="6.01988">
        <ele>255.6</ele>
        <time>2021-09-30T12:30:41Z</time>
      </trkpt>
      <trkpt lat="47.2398" lon="6.01989">
        <ele>255.6</ele>
        <time>2021-09-30T12:30:42Z</time>
      </trkpt>
      <trkpt lat="47.23983" lon="6.0199">
        <ele>255.8</ele>
        <time>2021-09-30T12:30:43Z</time>
      </trkpt>
      <trkpt lat="47.23986" lon="6.01992">
        <ele>255.8</ele>
        <time>2021-09-30T12:30:44Z</time>
      </trkpt>
      <trkpt lat="47.23988" lon="6.01993">
        <ele>255.8</ele>
        <time>2021-09-30T12:30:45Z</time>
      </trkpt>
      <trkpt lat="47.23991" lon="6.01995">
        <ele>255.8</ele>
        <time>2021-09-30T12:30:46Z</time>
      </trkpt>
      <trkpt lat="47.23994" lon="6.01996">
        <ele>255.8</ele>
        <time>2021-09-30T12:30:47Z</time>
      </trkpt>
      <trkpt lat="47.23998" lon="6.01997">
        <ele>256</ele>
        <time>2021-09-30T12:30:48Z</time>
      </trkpt>
      <trkpt lat="47.24001" lon="6.01997">
        <ele>256</ele>
        <time>2021-09-30T12:30:49Z</time>
      </trkpt>
      <trkpt lat="47.24001" lon="6.01997">
        <ele>256</ele>
        <time>2021-09-30T12:30:50Z</time>
      </trkpt>
      <trkpt lat="47.24007" lon="6.01999">
        <ele>256</ele>
        <time>2021-09-30T12:30:52Z</time>
      </trkpt>
      <trkpt lat="47.2401" lon="6.01997">
        <ele>256.2</ele>
        <time>2021-09-30T12:30:53Z</time>
      </trkpt>
      <trkpt lat="47.24013" lon="6.01994">
        <ele>256.2</ele>
        <time>2021-09-30T12:30:54Z</time>
      </trkpt>
      <trkpt lat="47.24015" lon="6.01993">
        <ele>256.2</ele>
        <time>2021-09-30T12:30:55Z</time>
      </trkpt>
      <trkpt lat="47.24017" lon="6.01994">
        <ele>256.2</ele>
        <time>2021-09-30T12:30:56Z</time>
      </trkpt>
      <trkpt lat="47.24018" lon="6.01996">
        <ele>256.2</ele>
        <time>2021-09-30T12:30:57Z</time>
      </trkpt>
      <trkpt lat="47.2402" lon="6.01998">
        <ele>256.2</ele>
        <time>2021-09-30T12:30:58Z</time>
      </trkpt>
      <trkpt lat="47.24022" lon="6.02001">
        <ele>256.2</ele>
        <time>2021-09-30T12:30:59Z</time>
      </trkpt>
      <trkpt lat="47.24025" lon="6.02003">
        <ele>256.2</ele>
        <time>2021-09-30T12:31:00Z</time>
      </trkpt>
      <trkpt lat="47.24028" lon="6.02005">
        <ele>256.2</ele>
        <time>2021-09-30T12:31:01Z</time>
      </trkpt>
      <trkpt lat="47.2403" lon="6.02006">
        <ele>256</ele>
        <time>2021-09-30T12:31:02Z</time>
      </trkpt>
      <trkpt lat="47.2404" lon="6.0201">
        <ele>256</ele>
        <time>2021-09-30T12:31:05Z</time>
      </trkpt>
      <trkpt lat="47.24042" lon="6.02011">
        <ele>256</ele>
        <time>2021-09-30T12:31:06Z</time>
      </trkpt>
      <trkpt lat="47.24045" lon="6.02013">
        <ele>256</ele>
        <time>2021-09-30T12:31:07Z</time>
      </trkpt>
      <trkpt lat="47.24049" lon="6.02017">
        <ele>256.2</ele>
        <time>2021-09-30T12:31:09Z</time>
      </trkpt>
      <trkpt lat="47.24051" lon="6.02018">
        <ele>256.4</ele>
        <time>2021-09-30T12:31:10Z</time>
      </trkpt>
      <trkpt lat="47.24053" lon="6.0202">
        <ele>256.2</ele>
        <time>2021-09-30T12:31:11Z</time>
      </trkpt>
      <trkpt lat="47.24055" lon="6.02021">
        <ele>256.2</ele>
        <time>2021-09-30T12:31:12Z</time>
      </trkpt>
      <trkpt lat="47.24057" lon="6.02023">
        <ele>256.2</ele>
        <time>2021-09-30T12:31:13Z</time>
      </trkpt>
      <trkpt lat="47.24058" lon="6.02026">
        <ele>256.6</ele>
        <time>2021-09-30T12:31:14Z</time>
      </trkpt>
      <trkpt lat="47.24061" lon="6.02028">
        <ele>256.6</ele>
        <time>2021-09-30T12:31:15Z</time>
      </trkpt>
      <trkpt lat="47.24063" lon="6.0203">
        <ele>256.6</ele>
        <time>2021-09-30T12:31:16Z</time>
      </trkpt>
      <trkpt lat="47.24076" lon="6.02034">
        <ele>256.8</ele>
        <time>2021-09-30T12:31:20Z</time>
      </trkpt>
      <trkpt lat="47.24079" lon="6.02035">
        <ele>256.8</ele>
        <time>2021-09-30T12:31:21Z</time>
      </trkpt>
      <trkpt lat="47.24094" lon="6.0204">
        <ele>257</ele>
        <time>2021-09-30T12:31:26Z</time>
      </trkpt>
      <trkpt lat="47.24096" lon="6.0204">
        <ele>257</ele>
        <time>2021-09-30T12:31:28Z</time>
      </trkpt>
      <trkpt lat="47.24098" lon="6.0204">
        <ele>257.2</ele>
        <time>2021-09-30T12:31:29Z</time>
      </trkpt>
      <trkpt lat="47.241" lon="6.0204">
        <ele>257.2</ele>
        <time>2021-09-30T12:31:30Z</time>
      </trkpt>
      <trkpt lat="47.24103" lon="6.0204">
        <ele>257.2</ele>
        <time>2021-09-30T12:31:31Z</time>
      </trkpt>
      <trkpt lat="47.24107" lon="6.02041">
        <ele>257</ele>
        <time>2021-09-30T12:31:32Z</time>
      </trkpt>
      <trkpt lat="47.2411" lon="6.02042">
        <ele>257</ele>
        <time>2021-09-30T12:31:33Z</time>
      </trkpt>
      <trkpt lat="47.24113" lon="6.02043">
        <ele>257.2</ele>
        <time>2021-09-30T12:31:34Z</time>
      </trkpt>
      <trkpt lat="47.24128" lon="6.02047">
        <ele>257.6</ele>
        <time>2021-09-30T12:31:38Z</time>
      </trkpt>
      <trkpt lat="47.24135" lon="6.0205">
        <ele>257.8</ele>
        <time>2021-09-30T12:31:40Z</time>
      </trkpt>
      <trkpt lat="47.24138" lon="6.02052">
        <ele>257.8</ele>
        <time>2021-09-30T12:31:41Z</time>
      </trkpt>
      <trkpt lat="47.24141" lon="6.02052">
        <ele>257.8</ele>
        <time>2021-09-30T12:31:42Z</time>
      </trkpt>
      <trkpt lat="47.24143" lon="6.02053">
        <ele>257.8</ele>
        <time>2021-09-30T12:31:43Z</time>
      </trkpt>
      <trkpt lat="47.24146" lon="6.02054">
        <ele>257.8</ele>
        <time>2021-09-30T12:31:44Z</time>
      </trkpt>
      <trkpt lat="47.24149" lon="6.02055">
        <ele>258</ele>
        <time>2021-09-30T12:31:45Z</time>
      </trkpt>
      <trkpt lat="47.24158" lon="6.02057">
        <ele>258</ele>
        <time>2021-09-30T12:31:48Z</time>
      </trkpt>
      <trkpt lat="47.24161" lon="6.02058">
        <ele>258</ele>
        <time>2021-09-30T12:31:49Z</time>
      </trkpt>
      <trkpt lat="47.24164" lon="6.02059">
        <ele>258</ele>
        <time>2021-09-30T12:31:50Z</time>
      </trkpt>
      <trkpt lat="47.24166" lon="6.0206">
        <ele>258.2</ele>
        <time>2021-09-30T12:31:51Z</time>
      </trkpt>
      <trkpt lat="47.24169" lon="6.02061">
        <ele>258.4</ele>
        <time>2021-09-30T12:31:52Z</time>
      </trkpt>
      <trkpt lat="47.24172" lon="6.02062">
        <ele>258.4</ele>
        <time>2021-09-30T12:31:53Z</time>
      </trkpt>
      <trkpt lat="47.24175" lon="6.02063">
        <ele>258.6</ele>
        <time>2021-09-30T12:31:54Z</time>
      </trkpt>
      <trkpt lat="47.24185" lon="6.02066">
        <ele>258.6</ele>
        <time>2021-09-30T12:31:57Z</time>
      </trkpt>
      <trkpt lat="47.24194" lon="6.02071">
        <ele>259</ele>
        <time>2021-09-30T12:32:00Z</time>
      </trkpt>
      <trkpt lat="47.24215" lon="6.02078">
        <ele>259.6</ele>
        <time>2021-09-30T12:32:07Z</time>
      </trkpt>
      <trkpt lat="47.24218" lon="6.02079">
        <ele>259.8</ele>
        <time>2021-09-30T12:32:08Z</time>
      </trkpt>
      <trkpt lat="47.24221" lon="6.02081">
        <ele>259.8</ele>
        <time>2021-09-30T12:32:09Z</time>
      </trkpt>
      <trkpt lat="47.24224" lon="6.02083">
        <ele>260</ele>
        <time>2021-09-30T12:32:10Z</time>
      </trkpt>
      <trkpt lat="47.24226" lon="6.02084">
        <ele>260</ele>
        <time>2021-09-30T12:32:11Z</time>
      </trkpt>
      <trkpt lat="47.24229" lon="6.02085">
        <ele>260.2</ele>
        <time>2021-09-30T12:32:12Z</time>
      </trkpt>
      <trkpt lat="47.24235" lon="6.02087">
        <ele>260.4</ele>
        <time>2021-09-30T12:32:14Z</time>
      </trkpt>
      <trkpt lat="47.24244" lon="6.02093">
        <ele>260.8</ele>
        <time>2021-09-30T12:32:17Z</time>
      </trkpt>
      <trkpt lat="47.24258" lon="6.02105">
        <ele>261.2</ele>
        <time>2021-09-30T12:32:22Z</time>
      </trkpt>
      <trkpt lat="47.24265" lon="6.0211">
        <ele>261.8</ele>
        <time>2021-09-30T12:32:25Z</time>
      </trkpt>
      <trkpt lat="47.24268" lon="6.02112">
        <ele>261.8</ele>
        <time>2021-09-30T12:32:26Z</time>
      </trkpt>
      <trkpt lat="47.24271" lon="6.02114">
        <ele>262</ele>
        <time>2021-09-30T12:32:27Z</time>
      </trkpt>
      <trkpt lat="47.24274" lon="6.02116">
        <ele>262.2</ele>
        <time>2021-09-30T12:32:28Z</time>
      </trkpt>
      <trkpt lat="47.24277" lon="6.02118">
        <ele>262.4</ele>
        <time>2021-09-30T12:32:29Z</time>
      </trkpt>
      <trkpt lat="47.24279" lon="6.0212">
        <ele>262.6</ele>
        <time>2021-09-30T12:32:30Z</time>
      </trkpt>
      <trkpt lat="47.24281" lon="6.02122">
        <ele>262.6</ele>
        <time>2021-09-30T12:32:31Z</time>
      </trkpt>
      <trkpt lat="47.24284" lon="6.02123">
        <ele>262.8</ele>
        <time>2021-09-30T12:32:32Z</time>
      </trkpt>
      <trkpt lat="47.24287" lon="6.02125">
        <ele>262.8</ele>
        <time>2021-09-30T12:32:33Z</time>
      </trkpt>
      <trkpt lat="47.2429" lon="6.02128">
        <ele>262.8</ele>
        <time>2021-09-30T12:32:34Z</time>
      </trkpt>
      <trkpt lat="47.24292" lon="6.0213">
        <ele>262.8</ele>
        <time>2021-09-30T12:32:35Z</time>
      </trkpt>
      <trkpt lat="47.24295" lon="6.02134">
        <ele>263.2</ele>
        <time>2021-09-30T12:32:36Z</time>
      </trkpt>
      <trkpt lat="47.24298" lon="6.02136">
        <ele>263.2</ele>
        <time>2021-09-30T12:32:37Z</time>
      </trkpt>
      <trkpt lat="47.24301" lon="6.02139">
        <ele>263.4</ele>
        <time>2021-09-30T12:32:38Z</time>
      </trkpt>
      <trkpt lat="47.24304" lon="6.02142">
        <ele>263.6</ele>
        <time>2021-09-30T12:32:39Z</time>
      </trkpt>
      <trkpt lat="47.24307" lon="6.02145">
        <ele>263.6</ele>
        <time>2021-09-30T12:32:40Z</time>
      </trkpt>
      <trkpt lat="47.24309" lon="6.02148">
        <ele>263.8</ele>
        <time>2021-09-30T12:32:41Z</time>
      </trkpt>
      <trkpt lat="47.24311" lon="6.02151">
        <ele>264</ele>
        <time>2021-09-30T12:32:42Z</time>
      </trkpt>
      <trkpt lat="47.24314" lon="6.02154">
        <ele>264.2</ele>
        <time>2021-09-30T12:32:43Z</time>
      </trkpt>
      <trkpt lat="47.24316" lon="6.02157">
        <ele>264.2</ele>
        <time>2021-09-30T12:32:44Z</time>
      </trkpt>
      <trkpt lat="47.24318" lon="6.02159">
        <ele>264.4</ele>
        <time>2021-09-30T12:32:45Z</time>
      </trkpt>
      <trkpt lat="47.2432" lon="6.02161">
        <ele>264.4</ele>
        <time>2021-09-30T12:32:46Z</time>
      </trkpt>
      <trkpt lat="47.24323" lon="6.02164">
        <ele>264.6</ele>
        <time>2021-09-30T12:32:47Z</time>
      </trkpt>
      <trkpt lat="47.24325" lon="6.02166">
        <ele>264.8</ele>
        <time>2021-09-30T12:32:48Z</time>
      </trkpt>
      <trkpt lat="47.24327" lon="6.02168">
        <ele>265</ele>
        <time>2021-09-30T12:32:49Z</time>
      </trkpt>
      <trkpt lat="47.24329" lon="6.02169">
        <ele>265.2</ele>
        <time>2021-09-30T12:32:50Z</time>
      </trkpt>
      <trkpt lat="47.24331" lon="6.0217">
        <ele>265.4</ele>
        <time>2021-09-30T12:32:51Z</time>
      </trkpt>
      <trkpt lat="47.24333" lon="6.02171">
        <ele>265.6</ele>
        <time>2021-09-30T12:32:52Z</time>
      </trkpt>
      <trkpt lat="47.24336" lon="6.02173">
        <ele>265.6</ele>
        <time>2021-09-30T12:32:53Z</time>
      </trkpt>
      <trkpt lat="47.24338" lon="6.02175">
        <ele>266</ele>
        <time>2021-09-30T12:32:54Z</time>
      </trkpt>
      <trkpt lat="47.2434" lon="6.02176">
        <ele>266.2</ele>
        <time>2021-09-30T12:32:55Z</time>
      </trkpt>
      <trkpt lat="47.24342" lon="6.02178">
        <ele>266.4</ele>
        <time>2021-09-30T12:32:56Z</time>
      </trkpt>
      <trkpt lat="47.24345" lon="6.0218">
        <ele>266.6</ele>
        <time>2021-09-30T12:32:57Z</time>
      </trkpt>
      <trkpt lat="47.24347" lon="6.02182">
        <ele>266.8</ele>
        <time>2021-09-30T12:32:58Z</time>
      </trkpt>
      <trkpt lat="47.24349" lon="6.02184">
        <ele>267</ele>
        <time>2021-09-30T12:32:59Z</time>
      </trkpt>
      <trkpt lat="47.24351" lon="6.02186">
        <ele>267</ele>
        <time>2021-09-30T12:33:00Z</time>
      </trkpt>
      <trkpt lat="47.24352" lon="6.0219">
        <ele>267.2</ele>
        <time>2021-09-30T12:33:01Z</time>
      </trkpt>
      <trkpt lat="47.24354" lon="6.02192">
        <ele>267.2</ele>
        <time>2021-09-30T12:33:02Z</time>
      </trkpt>
      <trkpt lat="47.24355" lon="6.02194">
        <ele>267.4</ele>
        <time>2021-09-30T12:33:03Z</time>
      </trkpt>
      <trkpt lat="47.24358" lon="6.02197">
        <ele>267.4</ele>
        <time>2021-09-30T12:33:04Z</time>
      </trkpt>
      <trkpt lat="47.24359" lon="6.02201">
        <ele>267.6</ele>
        <time>2021-09-30T12:33:05Z</time>
      </trkpt>
      <trkpt lat="47.2436" lon="6.02203">
        <ele>267.8</ele>
        <time>2021-09-30T12:33:06Z</time>
      </trkpt>
      <trkpt lat="47.24361" lon="6.02207">
        <ele>268</ele>
        <time>2021-09-30T12:33:07Z</time>
      </trkpt>
      <trkpt lat="47.24362" lon="6.02209">
        <ele>268.2</ele>
        <time>2021-09-30T12:33:08Z</time>
      </trkpt>
      <trkpt lat="47.24363" lon="6.02212">
        <ele>268.2</ele>
        <time>2021-09-30T12:33:09Z</time>
      </trkpt>
      <trkpt lat="47.24364" lon="6.02214">
        <ele>268.4</ele>
        <time>2021-09-30T12:33:10Z</time>
      </trkpt>
      <trkpt lat="47.24365" lon="6.02216">
        <ele>268.4</ele>
        <time>2021-09-30T12:33:11Z</time>
      </trkpt>
      <trkpt lat="47.24366" lon="6.02219">
        <ele>268.6</ele>
        <time>2021-09-30T12:33:12Z</time>
      </trkpt>
      <trkpt lat="47.24367" lon="6.02222">
        <ele>268.6</ele>
        <time>2021-09-30T12:33:13Z</time>
      </trkpt>
      <trkpt lat="47.24368" lon="6.02226">
        <ele>268.8</ele>
        <time>2021-09-30T12:33:14Z</time>
      </trkpt>
      <trkpt lat="47.24369" lon="6.02229">
        <ele>269</ele>
        <time>2021-09-30T12:33:15Z</time>
      </trkpt>
      <trkpt lat="47.2437" lon="6.02232">
        <ele>269</ele>
        <time>2021-09-30T12:33:16Z</time>
      </trkpt>
      <trkpt lat="47.24371" lon="6.02235">
        <ele>269.2</ele>
        <time>2021-09-30T12:33:17Z</time>
      </trkpt>
      <trkpt lat="47.24371" lon="6.02238">
        <ele>269.2</ele>
        <time>2021-09-30T12:33:18Z</time>
      </trkpt>
      <trkpt lat="47.24371" lon="6.02241">
        <ele>269.2</ele>
        <time>2021-09-30T12:33:19Z</time>
      </trkpt>
      <trkpt lat="47.2437" lon="6.02244">
        <ele>269.4</ele>
        <time>2021-09-30T12:33:20Z</time>
      </trkpt>
      <trkpt lat="47.2437" lon="6.02247">
        <ele>269.4</ele>
        <time>2021-09-30T12:33:21Z</time>
      </trkpt>
      <trkpt lat="47.24371" lon="6.0225">
        <ele>269.6</ele>
        <time>2021-09-30T12:33:22Z</time>
      </trkpt>
      <trkpt lat="47.24371" lon="6.02254">
        <ele>269.8</ele>
        <time>2021-09-30T12:33:23Z</time>
      </trkpt>
      <trkpt lat="47.2437" lon="6.02257">
        <ele>270.2</ele>
        <time>2021-09-30T12:33:24Z</time>
      </trkpt>
      <trkpt lat="47.2437" lon="6.0226">
        <ele>270.2</ele>
        <time>2021-09-30T12:33:25Z</time>
      </trkpt>
      <trkpt lat="47.2437" lon="6.02263">
        <ele>270.2</ele>
        <time>2021-09-30T12:33:26Z</time>
      </trkpt>
      <trkpt lat="47.24371" lon="6.02265">
        <ele>270.4</ele>
        <time>2021-09-30T12:33:27Z</time>
      </trkpt>
      <trkpt lat="47.24373" lon="6.02268">
        <ele>270.8</ele>
        <time>2021-09-30T12:33:28Z</time>
      </trkpt>
      <trkpt lat="47.24374" lon="6.0227">
        <ele>271</ele>
        <time>2021-09-30T12:33:29Z</time>
      </trkpt>
      <trkpt lat="47.24376" lon="6.02272">
        <ele>271.4</ele>
        <time>2021-09-30T12:33:30Z</time>
      </trkpt>
      <trkpt lat="47.24378" lon="6.02274">
        <ele>271.6</ele>
        <time>2021-09-30T12:33:31Z</time>
      </trkpt>
      <trkpt lat="47.2438" lon="6.02276">
        <ele>272</ele>
        <time>2021-09-30T12:33:32Z</time>
      </trkpt>
      <trkpt lat="47.24381" lon="6.02279">
        <ele>272.2</ele>
        <time>2021-09-30T12:33:33Z</time>
      </trkpt>
      <trkpt lat="47.24382" lon="6.02282">
        <ele>272.4</ele>
        <time>2021-09-30T12:33:34Z</time>
      </trkpt>
      <trkpt lat="47.24383" lon="6.02284">
        <ele>272.4</ele>
        <time>2021-09-30T12:33:35Z</time>
      </trkpt>
      <trkpt lat="47.24384" lon="6.02286">
        <ele>272.6</ele>
        <time>2021-09-30T12:33:36Z</time>
      </trkpt>
      <trkpt lat="47.24385" lon="6.02288">
        <ele>272.6</ele>
        <time>2021-09-30T12:33:37Z</time>
      </trkpt>
      <trkpt lat="47.24386" lon="6.0229">
        <ele>272.6</ele>
        <time>2021-09-30T12:33:38Z</time>
      </trkpt>
      <trkpt lat="47.24388" lon="6.02292">
        <ele>272.8</ele>
        <time>2021-09-30T12:33:39Z</time>
      </trkpt>
      <trkpt lat="47.24389" lon="6.02295">
        <ele>272.8</ele>
        <time>2021-09-30T12:33:40Z</time>
      </trkpt>
      <trkpt lat="47.2439" lon="6.02297">
        <ele>273</ele>
        <time>2021-09-30T12:33:41Z</time>
      </trkpt>
      <trkpt lat="47.24392" lon="6.023">
        <ele>273.2</ele>
        <time>2021-09-30T12:33:42Z</time>
      </trkpt>
      <trkpt lat="47.24393" lon="6.02303">
        <ele>273.2</ele>
        <time>2021-09-30T12:33:43Z</time>
      </trkpt>
      <trkpt lat="47.24394" lon="6.02305">
        <ele>273.4</ele>
        <time>2021-09-30T12:33:44Z</time>
      </trkpt>
      <trkpt lat="47.24395" lon="6.02307">
        <ele>273.4</ele>
        <time>2021-09-30T12:33:45Z</time>
      </trkpt>
      <trkpt lat="47.24396" lon="6.02309">
        <ele>273.6</ele>
        <time>2021-09-30T12:33:46Z</time>
      </trkpt>
      <trkpt lat="47.24397" lon="6.02311">
        <ele>273.6</ele>
        <time>2021-09-30T12:33:47Z</time>
      </trkpt>
      <trkpt lat="47.24399" lon="6.02313">
        <ele>273.8</ele>
        <time>2021-09-30T12:33:48Z</time>
      </trkpt>
      <trkpt lat="47.244" lon="6.02315">
        <ele>273.8</ele>
        <time>2021-09-30T12:33:49Z</time>
      </trkpt>
      <trkpt lat="47.24401" lon="6.02316">
        <ele>274</ele>
        <time>2021-09-30T12:33:50Z</time>
      </trkpt>
      <trkpt lat="47.24403" lon="6.02318">
        <ele>274.4</ele>
        <time>2021-09-30T12:33:51Z</time>
      </trkpt>
      <trkpt lat="47.24405" lon="6.02318">
        <ele>274.6</ele>
        <time>2021-09-30T12:33:52Z</time>
      </trkpt>
      <trkpt lat="47.24406" lon="6.02319">
        <ele>274.8</ele>
        <time>2021-09-30T12:33:53Z</time>
      </trkpt>
      <trkpt lat="47.24408" lon="6.02319">
        <ele>274.8</ele>
        <time>2021-09-30T12:33:54Z</time>
      </trkpt>
      <trkpt lat="47.24409" lon="6.0232">
        <ele>275</ele>
        <time>2021-09-30T12:33:55Z</time>
      </trkpt>
      <trkpt lat="47.24411" lon="6.0232">
        <ele>275</ele>
        <time>2021-09-30T12:33:56Z</time>
      </trkpt>
      <trkpt lat="47.24413" lon="6.0232">
        <ele>275.2</ele>
        <time>2021-09-30T12:33:57Z</time>
      </trkpt>
      <trkpt lat="47.24414" lon="6.0232">
        <ele>275.4</ele>
        <time>2021-09-30T12:33:58Z</time>
      </trkpt>
      <trkpt lat="47.24414" lon="6.0232">
        <ele>275.6</ele>
        <time>2021-09-30T12:33:59Z</time>
      </trkpt>
      <trkpt lat="47.24416" lon="6.02319">
        <ele>275.8</ele>
        <time>2021-09-30T12:34:00Z</time>
      </trkpt>
      <trkpt lat="47.24416" lon="6.02319">
        <ele>275.8</ele>
        <time>2021-09-30T12:34:01Z</time>
      </trkpt>
      <trkpt lat="47.24418" lon="6.02319">
        <ele>276</ele>
        <time>2021-09-30T12:34:02Z</time>
      </trkpt>
      <trkpt lat="47.24421" lon="6.02318">
        <ele>276.2</ele>
        <time>2021-09-30T12:34:03Z</time>
      </trkpt>
      <trkpt lat="47.24423" lon="6.02318">
        <ele>276.2</ele>
        <time>2021-09-30T12:34:04Z</time>
      </trkpt>
      <trkpt lat="47.24425" lon="6.02318">
        <ele>276.4</ele>
        <time>2021-09-30T12:34:05Z</time>
      </trkpt>
      <trkpt lat="47.24427" lon="6.02318">
        <ele>276.4</ele>
        <time>2021-09-30T12:34:06Z</time>
      </trkpt>
      <trkpt lat="47.24428" lon="6.02318">
        <ele>276.4</ele>
        <time>2021-09-30T12:34:07Z</time>
      </trkpt>
      <trkpt lat="47.2443" lon="6.02318">
        <ele>276.6</ele>
        <time>2021-09-30T12:34:08Z</time>
      </trkpt>
      <trkpt lat="47.24431" lon="6.02317">
        <ele>277</ele>
        <time>2021-09-30T12:34:09Z</time>
      </trkpt>
      <trkpt lat="47.24433" lon="6.02317">
        <ele>277.2</ele>
        <time>2021-09-30T12:34:10Z</time>
      </trkpt>
      <trkpt lat="47.24434" lon="6.02317">
        <ele>277.2</ele>
        <time>2021-09-30T12:34:11Z</time>
      </trkpt>
      <trkpt lat="47.24436" lon="6.02316">
        <ele>277.4</ele>
        <time>2021-09-30T12:34:12Z</time>
      </trkpt>
      <trkpt lat="47.24437" lon="6.02316">
        <ele>277.4</ele>
        <time>2021-09-30T12:34:13Z</time>
      </trkpt>
      <trkpt lat="47.24439" lon="6.02315">
        <ele>277.4</ele>
        <time>2021-09-30T12:34:14Z</time>
      </trkpt>
      <trkpt lat="47.2444" lon="6.02315">
        <ele>277.6</ele>
        <time>2021-09-30T12:34:15Z</time>
      </trkpt>
      <trkpt lat="47.24441" lon="6.02314">
        <ele>277.6</ele>
        <time>2021-09-30T12:34:16Z</time>
      </trkpt>
      <trkpt lat="47.24443" lon="6.02313">
        <ele>277.6</ele>
        <time>2021-09-30T12:34:17Z</time>
      </trkpt>
      <trkpt lat="47.24444" lon="6.02312">
        <ele>277.8</ele>
        <time>2021-09-30T12:34:18Z</time>
      </trkpt>
      <trkpt lat="47.24445" lon="6.02311">
        <ele>277.8</ele>
        <time>2021-09-30T12:34:19Z</time>
      </trkpt>
      <trkpt lat="47.24445" lon="6.02311">
        <ele>278</ele>
        <time>2021-09-30T12:34:20Z</time>
      </trkpt>
      <trkpt lat="47.24447" lon="6.0231">
        <ele>278</ele>
        <time>2021-09-30T12:34:21Z</time>
      </trkpt>
      <trkpt lat="47.24447" lon="6.02309">
        <ele>278.2</ele>
        <time>2021-09-30T12:34:22Z</time>
      </trkpt>
      <trkpt lat="47.24448" lon="6.02307">
        <ele>278.2</ele>
        <time>2021-09-30T12:34:23Z</time>
      </trkpt>
      <trkpt lat="47.24449" lon="6.02306">
        <ele>278.2</ele>
        <time>2021-09-30T12:34:24Z</time>
      </trkpt>
      <trkpt lat="47.24449" lon="6.02306">
        <ele>278.2</ele>
        <time>2021-09-30T12:34:25Z</time>
      </trkpt>
      <trkpt lat="47.24449" lon="6.02305">
        <ele>278.2</ele>
        <time>2021-09-30T12:34:26Z</time>
      </trkpt>
      <trkpt lat="47.24451" lon="6.02303">
        <ele>278.2</ele>
        <time>2021-09-30T12:34:27Z</time>
      </trkpt>
      <trkpt lat="47.24452" lon="6.02301">
        <ele>278.2</ele>
        <time>2021-09-30T12:34:28Z</time>
      </trkpt>
      <trkpt lat="47.24453" lon="6.02299">
        <ele>278.2</ele>
        <time>2021-09-30T12:34:29Z</time>
      </trkpt>
      <trkpt lat="47.24453" lon="6.02296">
        <ele>278.2</ele>
        <time>2021-09-30T12:34:30Z</time>
      </trkpt>
      <trkpt lat="47.24454" lon="6.02291">
        <ele>278.2</ele>
        <time>2021-09-30T12:34:32Z</time>
      </trkpt>
      <trkpt lat="47.24454" lon="6.02288">
        <ele>278.2</ele>
        <time>2021-09-30T12:34:33Z</time>
      </trkpt>
      <trkpt lat="47.24454" lon="6.02285">
        <ele>278.2</ele>
        <time>2021-09-30T12:34:34Z</time>
      </trkpt>
      <trkpt lat="47.24453" lon="6.02282">
        <ele>278.2</ele>
        <time>2021-09-30T12:34:35Z</time>
      </trkpt>
      <trkpt lat="47.24452" lon="6.0228">
        <ele>278.2</ele>
        <time>2021-09-30T12:34:36Z</time>
      </trkpt>
      <trkpt lat="47.24452" lon="6.02278">
        <ele>278.2</ele>
        <time>2021-09-30T12:34:37Z</time>
      </trkpt>
      <trkpt lat="47.24451" lon="6.02275">
        <ele>278.2</ele>
        <time>2021-09-30T12:34:38Z</time>
      </trkpt>
      <trkpt lat="47.24449" lon="6.02268">
        <ele>278.2</ele>
        <time>2021-09-30T12:34:42Z</time>
      </trkpt>
      <trkpt lat="47.24442" lon="6.02237">
        <ele>278.6</ele>
        <time>2021-09-30T12:34:50Z</time>
      </trkpt>
      <trkpt lat="47.24444" lon="6.02234">
        <ele>278.6</ele>
        <time>2021-09-30T12:34:51Z</time>
      </trkpt>
      <trkpt lat="47.24445" lon="6.0223">
        <ele>278.6</ele>
        <time>2021-09-30T12:34:52Z</time>
      </trkpt>
      <trkpt lat="47.2445" lon="6.02225">
        <ele>278.6</ele>
        <time>2021-09-30T12:34:54Z</time>
      </trkpt>
      <trkpt lat="47.24453" lon="6.02223">
        <ele>278.6</ele>
        <time>2021-09-30T12:34:55Z</time>
      </trkpt>
      <trkpt lat="47.24456" lon="6.0222">
        <ele>278.8</ele>
        <time>2021-09-30T12:34:56Z</time>
      </trkpt>
      <trkpt lat="47.24476" lon="6.02206">
        <ele>278.8</ele>
        <time>2021-09-30T12:35:03Z</time>
      </trkpt>
      <trkpt lat="47.24493" lon="6.02195">
        <ele>278.8</ele>
        <time>2021-09-30T12:35:08Z</time>
      </trkpt>
      <trkpt lat="47.24496" lon="6.02191">
        <ele>278.8</ele>
        <time>2021-09-30T12:35:09Z</time>
      </trkpt>
      <trkpt lat="47.24501" lon="6.02185">
        <ele>278.8</ele>
        <time>2021-09-30T12:35:11Z</time>
      </trkpt>
      <trkpt lat="47.24503" lon="6.02183">
        <ele>278.8</ele>
        <time>2021-09-30T12:35:12Z</time>
      </trkpt>
      <trkpt lat="47.24505" lon="6.02181">
        <ele>278.8</ele>
        <time>2021-09-30T12:35:13Z</time>
      </trkpt>
      <trkpt lat="47.24508" lon="6.0218">
        <ele>279</ele>
        <time>2021-09-30T12:35:14Z</time>
      </trkpt>
      <trkpt lat="47.2451" lon="6.02181">
        <ele>279.2</ele>
        <time>2021-09-30T12:35:15Z</time>
      </trkpt>
      <trkpt lat="47.24513" lon="6.02182">
        <ele>279.6</ele>
        <time>2021-09-30T12:35:16Z</time>
      </trkpt>
      <trkpt lat="47.24515" lon="6.02184">
        <ele>279.8</ele>
        <time>2021-09-30T12:35:17Z</time>
      </trkpt>
      <trkpt lat="47.24518" lon="6.02185">
        <ele>280</ele>
        <time>2021-09-30T12:35:18Z</time>
      </trkpt>
      <trkpt lat="47.24521" lon="6.02187">
        <ele>280</ele>
        <time>2021-09-30T12:35:19Z</time>
      </trkpt>
      <trkpt lat="47.24523" lon="6.02189">
        <ele>280.2</ele>
        <time>2021-09-30T12:35:20Z</time>
      </trkpt>
      <trkpt lat="47.24544" lon="6.02201">
        <ele>281.4</ele>
        <time>2021-09-30T12:35:27Z</time>
      </trkpt>
      <trkpt lat="47.24547" lon="6.02203">
        <ele>281.4</ele>
        <time>2021-09-30T12:35:28Z</time>
      </trkpt>
      <trkpt lat="47.2455" lon="6.02205">
        <ele>281.6</ele>
        <time>2021-09-30T12:35:29Z</time>
      </trkpt>
      <trkpt lat="47.24553" lon="6.02206">
        <ele>281.8</ele>
        <time>2021-09-30T12:35:30Z</time>
      </trkpt>
      <trkpt lat="47.24556" lon="6.02208">
        <ele>281.8</ele>
        <time>2021-09-30T12:35:31Z</time>
      </trkpt>
      <trkpt lat="47.24559" lon="6.02209">
        <ele>282</ele>
        <time>2021-09-30T12:35:32Z</time>
      </trkpt>
      <trkpt lat="47.24562" lon="6.02211">
        <ele>282</ele>
        <time>2021-09-30T12:35:33Z</time>
      </trkpt>
      <trkpt lat="47.24565" lon="6.02212">
        <ele>282.2</ele>
        <time>2021-09-30T12:35:34Z</time>
      </trkpt>
      <trkpt lat="47.24568" lon="6.02214">
        <ele>282.2</ele>
        <time>2021-09-30T12:35:35Z</time>
      </trkpt>
      <trkpt lat="47.2457" lon="6.02215">
        <ele>282.4</ele>
        <time>2021-09-30T12:35:36Z</time>
      </trkpt>
      <trkpt lat="47.24573" lon="6.02217">
        <ele>282.4</ele>
        <time>2021-09-30T12:35:37Z</time>
      </trkpt>
      <trkpt lat="47.24576" lon="6.02218">
        <ele>282.6</ele>
        <time>2021-09-30T12:35:38Z</time>
      </trkpt>
      <trkpt lat="47.24579" lon="6.0222">
        <ele>282.6</ele>
        <time>2021-09-30T12:35:39Z</time>
      </trkpt>
      <trkpt lat="47.24582" lon="6.02221">
        <ele>282.8</ele>
        <time>2021-09-30T12:35:40Z</time>
      </trkpt>
      <trkpt lat="47.24585" lon="6.02222">
        <ele>282.8</ele>
        <time>2021-09-30T12:35:41Z</time>
      </trkpt>
      <trkpt lat="47.24587" lon="6.02224">
        <ele>282.8</ele>
        <time>2021-09-30T12:35:42Z</time>
      </trkpt>
      <trkpt lat="47.2459" lon="6.02226">
        <ele>283</ele>
        <time>2021-09-30T12:35:43Z</time>
      </trkpt>
      <trkpt lat="47.24593" lon="6.02227">
        <ele>283.2</ele>
        <time>2021-09-30T12:35:44Z</time>
      </trkpt>
      <trkpt lat="47.24596" lon="6.02229">
        <ele>283.4</ele>
        <time>2021-09-30T12:35:45Z</time>
      </trkpt>
      <trkpt lat="47.24599" lon="6.0223">
        <ele>283.4</ele>
        <time>2021-09-30T12:35:46Z</time>
      </trkpt>
      <trkpt lat="47.24601" lon="6.02232">
        <ele>283.6</ele>
        <time>2021-09-30T12:35:47Z</time>
      </trkpt>
      <trkpt lat="47.24604" lon="6.02233">
        <ele>283.8</ele>
        <time>2021-09-30T12:35:48Z</time>
      </trkpt>
      <trkpt lat="47.24606" lon="6.02235">
        <ele>283.8</ele>
        <time>2021-09-30T12:35:49Z</time>
      </trkpt>
      <trkpt lat="47.24608" lon="6.02237">
        <ele>284.2</ele>
        <time>2021-09-30T12:35:50Z</time>
      </trkpt>
      <trkpt lat="47.2461" lon="6.02239">
        <ele>284.2</ele>
        <time>2021-09-30T12:35:51Z</time>
      </trkpt>
      <trkpt lat="47.24612" lon="6.02241">
        <ele>284.4</ele>
        <time>2021-09-30T12:35:52Z</time>
      </trkpt>
      <trkpt lat="47.24615" lon="6.02243">
        <ele>284.6</ele>
        <time>2021-09-30T12:35:53Z</time>
      </trkpt>
      <trkpt lat="47.24617" lon="6.02244">
        <ele>284.6</ele>
        <time>2021-09-30T12:35:54Z</time>
      </trkpt>
      <trkpt lat="47.2462" lon="6.02245">
        <ele>284.6</ele>
        <time>2021-09-30T12:35:55Z</time>
      </trkpt>
      <trkpt lat="47.24623" lon="6.02246">
        <ele>284.8</ele>
        <time>2021-09-30T12:35:56Z</time>
      </trkpt>
      <trkpt lat="47.24626" lon="6.02247">
        <ele>284.8</ele>
        <time>2021-09-30T12:35:57Z</time>
      </trkpt>
      <trkpt lat="47.2463" lon="6.02249">
        <ele>284.8</ele>
        <time>2021-09-30T12:35:58Z</time>
      </trkpt>
      <trkpt lat="47.24633" lon="6.0225">
        <ele>284.8</ele>
        <time>2021-09-30T12:35:59Z</time>
      </trkpt>
      <trkpt lat="47.24636" lon="6.02253">
        <ele>285</ele>
        <time>2021-09-30T12:36:00Z</time>
      </trkpt>
      <trkpt lat="47.24638" lon="6.02257">
        <ele>285</ele>
        <time>2021-09-30T12:36:01Z</time>
      </trkpt>
      <trkpt lat="47.2464" lon="6.02261">
        <ele>285</ele>
        <time>2021-09-30T12:36:02Z</time>
      </trkpt>
      <trkpt lat="47.24643" lon="6.02265">
        <ele>285</ele>
        <time>2021-09-30T12:36:03Z</time>
      </trkpt>
      <trkpt lat="47.24645" lon="6.02269">
        <ele>285</ele>
        <time>2021-09-30T12:36:04Z</time>
      </trkpt>
      <trkpt lat="47.24647" lon="6.02271">
        <ele>285</ele>
        <time>2021-09-30T12:36:05Z</time>
      </trkpt>
      <trkpt lat="47.24647" lon="6.02274">
        <ele>285</ele>
        <time>2021-09-30T12:36:06Z</time>
      </trkpt>
      <trkpt lat="47.24647" lon="6.02277">
        <ele>285</ele>
        <time>2021-09-30T12:36:07Z</time>
      </trkpt>
      <trkpt lat="47.24647" lon="6.0228">
        <ele>285</ele>
        <time>2021-09-30T12:36:08Z</time>
      </trkpt>
      <trkpt lat="47.24645" lon="6.02282">
        <ele>285</ele>
        <time>2021-09-30T12:36:09Z</time>
      </trkpt>
      <trkpt lat="47.24643" lon="6.02288">
        <ele>285</ele>
        <time>2021-09-30T12:36:11Z</time>
      </trkpt>
      <trkpt lat="47.24644" lon="6.02293">
        <ele>285</ele>
        <time>2021-09-30T12:36:13Z</time>
      </trkpt>
      <trkpt lat="47.24646" lon="6.02294">
        <ele>285</ele>
        <time>2021-09-30T12:36:14Z</time>
      </trkpt>
      <trkpt lat="47.24647" lon="6.02295">
        <ele>285.2</ele>
        <time>2021-09-30T12:36:15Z</time>
      </trkpt>
      <trkpt lat="47.24649" lon="6.02297">
        <ele>285.2</ele>
        <time>2021-09-30T12:36:16Z</time>
      </trkpt>
      <trkpt lat="47.2465" lon="6.02299">
        <ele>285.2</ele>
        <time>2021-09-30T12:36:17Z</time>
      </trkpt>
      <trkpt lat="47.2465" lon="6.023">
        <ele>285.4</ele>
        <time>2021-09-30T12:36:18Z</time>
      </trkpt>
      <trkpt lat="47.2465" lon="6.023">
        <ele>285.4</ele>
        <time>2021-09-30T12:36:19Z</time>
      </trkpt>
      <trkpt lat="47.2465" lon="6.023">
        <ele>285.4</ele>
        <time>2021-09-30T12:36:20Z</time>
      </trkpt>
      <trkpt lat="47.24648" lon="6.02301">
        <ele>285.6</ele>
        <time>2021-09-30T12:36:21Z</time>
      </trkpt>
      <trkpt lat="47.24646" lon="6.02301">
        <ele>285.6</ele>
        <time>2021-09-30T12:36:22Z</time>
      </trkpt>
      <trkpt lat="47.24642" lon="6.02302">
        <ele>285.8</ele>
        <time>2021-09-30T12:36:24Z</time>
      </trkpt>
      <trkpt lat="47.24639" lon="6.02305">
        <ele>285.6</ele>
        <time>2021-09-30T12:36:25Z</time>
      </trkpt>
      <trkpt lat="47.24636" lon="6.02307">
        <ele>285.6</ele>
        <time>2021-09-30T12:36:26Z</time>
      </trkpt>
      <trkpt lat="47.24633" lon="6.02309">
        <ele>285.4</ele>
        <time>2021-09-30T12:36:27Z</time>
      </trkpt>
      <trkpt lat="47.24626" lon="6.02324">
        <ele>285.2</ele>
        <time>2021-09-30T12:36:30Z</time>
      </trkpt>
      <trkpt lat="47.24626" lon="6.02338">
        <ele>284.8</ele>
        <time>2021-09-30T12:36:32Z</time>
      </trkpt>
      <trkpt lat="47.24627" lon="6.02344">
        <ele>284.4</ele>
        <time>2021-09-30T12:36:33Z</time>
      </trkpt>
      <trkpt lat="47.24629" lon="6.02349">
        <ele>284.2</ele>
        <time>2021-09-30T12:36:34Z</time>
      </trkpt>
      <trkpt lat="47.24632" lon="6.02354">
        <ele>283.8</ele>
        <time>2021-09-30T12:36:35Z</time>
      </trkpt>
      <trkpt lat="47.24635" lon="6.02358">
        <ele>283.8</ele>
        <time>2021-09-30T12:36:36Z</time>
      </trkpt>
      <trkpt lat="47.24638" lon="6.02362">
        <ele>283.6</ele>
        <time>2021-09-30T12:36:37Z</time>
      </trkpt>
      <trkpt lat="47.24651" lon="6.02383">
        <ele>283.8</ele>
        <time>2021-09-30T12:36:42Z</time>
      </trkpt>
      <trkpt lat="47.24652" lon="6.02389">
        <ele>283.8</ele>
        <time>2021-09-30T12:36:43Z</time>
      </trkpt>
      <trkpt lat="47.24654" lon="6.02394">
        <ele>283.8</ele>
        <time>2021-09-30T12:36:44Z</time>
      </trkpt>
      <trkpt lat="47.24657" lon="6.02399">
        <ele>284</ele>
        <time>2021-09-30T12:36:45Z</time>
      </trkpt>
      <trkpt lat="47.24659" lon="6.02403">
        <ele>284</ele>
        <time>2021-09-30T12:36:46Z</time>
      </trkpt>
      <trkpt lat="47.24673" lon="6.02428">
        <ele>283.8</ele>
        <time>2021-09-30T12:36:51Z</time>
      </trkpt>
      <trkpt lat="47.24676" lon="6.02434">
        <ele>284</ele>
        <time>2021-09-30T12:36:52Z</time>
      </trkpt>
      <trkpt lat="47.24694" lon="6.02467">
        <ele>283.6</ele>
        <time>2021-09-30T12:36:59Z</time>
      </trkpt>
      <trkpt lat="47.24697" lon="6.02472">
        <ele>283.6</ele>
        <time>2021-09-30T12:37:00Z</time>
      </trkpt>
      <trkpt lat="47.247" lon="6.02477">
        <ele>283.6</ele>
        <time>2021-09-30T12:37:01Z</time>
      </trkpt>
      <trkpt lat="47.24702" lon="6.02481">
        <ele>283.6</ele>
        <time>2021-09-30T12:37:02Z</time>
      </trkpt>
      <trkpt lat="47.24704" lon="6.02485">
        <ele>283.6</ele>
        <time>2021-09-30T12:37:03Z</time>
      </trkpt>
      <trkpt lat="47.24704" lon="6.02489">
        <ele>283.4</ele>
        <time>2021-09-30T12:37:04Z</time>
      </trkpt>
      <trkpt lat="47.24704" lon="6.02492">
        <ele>283.4</ele>
        <time>2021-09-30T12:37:05Z</time>
      </trkpt>
      <trkpt lat="47.24703" lon="6.02493">
        <ele>283.4</ele>
        <time>2021-09-30T12:37:06Z</time>
      </trkpt>
      <trkpt lat="47.24702" lon="6.02495">
        <ele>283.2</ele>
        <time>2021-09-30T12:37:07Z</time>
      </trkpt>
      <trkpt lat="47.247" lon="6.02498">
        <ele>283.2</ele>
        <time>2021-09-30T12:37:08Z</time>
      </trkpt>
      <trkpt lat="47.24697" lon="6.025">
        <ele>283.2</ele>
        <time>2021-09-30T12:37:09Z</time>
      </trkpt>
      <trkpt lat="47.24695" lon="6.02503">
        <ele>283.2</ele>
        <time>2021-09-30T12:37:10Z</time>
      </trkpt>
      <trkpt lat="47.24687" lon="6.02511">
        <ele>282.6</ele>
        <time>2021-09-30T12:37:13Z</time>
      </trkpt>
      <trkpt lat="47.24686" lon="6.0251">
        <ele>282.4</ele>
        <time>2021-09-30T12:37:14Z</time>
      </trkpt>
      <trkpt lat="47.24685" lon="6.0251">
        <ele>282.2</ele>
        <time>2021-09-30T12:37:15Z</time>
      </trkpt>
      <trkpt lat="47.24685" lon="6.0251">
        <ele>281.8</ele>
        <time>2021-09-30T12:37:16Z</time>
      </trkpt>
      <trkpt lat="47.24685" lon="6.0251">
        <ele>281.6</ele>
        <time>2021-09-30T12:37:17Z</time>
      </trkpt>
      <trkpt lat="47.24685" lon="6.0251">
        <ele>281.4</ele>
        <time>2021-09-30T12:37:18Z</time>
      </trkpt>
      <trkpt lat="47.24685" lon="6.0251">
        <ele>281.2</ele>
        <time>2021-09-30T12:37:21Z</time>
      </trkpt>
      <trkpt lat="47.24685" lon="6.0251">
        <ele>281.2</ele>
        <time>2021-09-30T12:37:23Z</time>
      </trkpt>
    </trkseg>
  </trk>
</gpx>